<?xml version="1.0" encoding="UTF-8"?>
<gpx version="1.1" creator="https://www.youtrack.es" xsi:schemaLocation="http://www.topografix.com/GPX/1/1 http://www.topografix.com/GPX/1/1/gpx.xsd http://www.garmin.com/xmlschemas/GpxExtensions/v3 http://www.garmin.com/xmlschemas/GpxExtensionsv3.xsd http://www.garmin.com/xmlschemas/TrackPointExtension/v1 http://www.garmin.com/xmlschemas/TrackPointExtensionv1.xsd" xmlns:gpxtpx="http://www.garmin.com/xmlschemas/TrackPointExtension/v1" xmlns:gpxx="http://www.garmin.com/xmlschemas/GpxExtensions/v3" xmlns:xsi="http://www.w3.org/2001/XMLSchema-instance">
  <metadata>
    <link href="https://www.youtrack.es">
      <text>YouTrack.es</text>
    </link>
    <time>2026-05-10T21:15:34Z</time>
  </metadata>
  <trk>
    <src>https://www.youtrack.es</src>
    <link href="https://www.youtrack.es/ruta/2817-alacuas-naquera-alacuas">
      <text>YouTrack.es</text>
    </link>
    <trkseg>
      <trkpt lat="39.457652" lon="-0.452973">
        <ele>66.5999984741211</ele>
        <time>2018-11-04T07:08:47.000Z</time>
      </trkpt>
      <trkpt lat="39.45765" lon="-0.452989">
        <ele>66.8571428571429</ele>
        <time>2018-11-04T07:08:48.000Z</time>
      </trkpt>
      <trkpt lat="39.457644" lon="-0.453012">
        <ele>66</ele>
        <time>2018-11-04T07:08:49.000Z</time>
      </trkpt>
      <trkpt lat="39.457644" lon="-0.453045">
        <ele>65.4907377777778</ele>
        <time>2018-11-04T07:08:50.000Z</time>
      </trkpt>
      <trkpt lat="39.457646" lon="-0.45309">
        <ele>64.0784308804337</ele>
        <time>2018-11-04T07:08:51.000Z</time>
      </trkpt>
      <trkpt lat="39.457622" lon="-0.453158">
        <ele>63</ele>
        <time>2018-11-04T07:08:52.000Z</time>
      </trkpt>
      <trkpt lat="39.457618" lon="-0.453212">
        <ele>63</ele>
        <time>2018-11-04T07:08:53.000Z</time>
      </trkpt>
      <trkpt lat="39.457594" lon="-0.453287">
        <ele>63</ele>
        <time>2018-11-04T07:08:54.000Z</time>
      </trkpt>
      <trkpt lat="39.457572" lon="-0.45337">
        <ele>62.36</ele>
        <time>2018-11-04T07:08:55.000Z</time>
      </trkpt>
      <trkpt lat="39.457558" lon="-0.453436">
        <ele>62</ele>
        <time>2018-11-04T07:08:56.000Z</time>
      </trkpt>
      <trkpt lat="39.457541" lon="-0.453496">
        <ele>62</ele>
        <time>2018-11-04T07:08:57.000Z</time>
      </trkpt>
      <trkpt lat="39.457521" lon="-0.453558">
        <ele>62</ele>
        <time>2018-11-04T07:08:58.000Z</time>
      </trkpt>
      <trkpt lat="39.457498" lon="-0.453624">
        <ele>62</ele>
        <time>2018-11-04T07:08:59.000Z</time>
      </trkpt>
      <trkpt lat="39.457475" lon="-0.453697">
        <ele>62</ele>
        <time>2018-11-04T07:09:00.000Z</time>
      </trkpt>
      <trkpt lat="39.457449" lon="-0.453765">
        <ele>62</ele>
        <time>2018-11-04T07:09:01.000Z</time>
      </trkpt>
      <trkpt lat="39.457444" lon="-0.453833">
        <ele>61.4684671179326</ele>
        <time>2018-11-04T07:09:02.000Z</time>
      </trkpt>
      <trkpt lat="39.457439" lon="-0.45389">
        <ele>61.4848469176665</ele>
        <time>2018-11-04T07:09:03.000Z</time>
      </trkpt>
      <trkpt lat="39.457482" lon="-0.45401">
        <ele>62</ele>
        <time>2018-11-04T07:09:06.000Z</time>
      </trkpt>
      <trkpt lat="39.457566" lon="-0.454103">
        <ele>62</ele>
        <time>2018-11-04T07:09:09.000Z</time>
      </trkpt>
      <trkpt lat="39.457599" lon="-0.454117">
        <ele>62</ele>
        <time>2018-11-04T07:09:10.000Z</time>
      </trkpt>
      <trkpt lat="39.45764" lon="-0.454133">
        <ele>62</ele>
        <time>2018-11-04T07:09:11.000Z</time>
      </trkpt>
      <trkpt lat="39.457675" lon="-0.454146">
        <ele>62</ele>
        <time>2018-11-04T07:09:12.000Z</time>
      </trkpt>
      <trkpt lat="39.457708" lon="-0.454159">
        <ele>62.5656547372776</ele>
        <time>2018-11-04T07:09:13.000Z</time>
      </trkpt>
      <trkpt lat="39.45775" lon="-0.454174">
        <ele>63</ele>
        <time>2018-11-04T07:09:14.000Z</time>
      </trkpt>
      <trkpt lat="39.457791" lon="-0.45419">
        <ele>63</ele>
        <time>2018-11-04T07:09:15.000Z</time>
      </trkpt>
      <trkpt lat="39.457835" lon="-0.454204">
        <ele>63</ele>
        <time>2018-11-04T07:09:16.000Z</time>
      </trkpt>
      <trkpt lat="39.457877" lon="-0.45421">
        <ele>63</ele>
        <time>2018-11-04T07:09:17.000Z</time>
      </trkpt>
      <trkpt lat="39.457922" lon="-0.454215">
        <ele>63</ele>
        <time>2018-11-04T07:09:18.000Z</time>
      </trkpt>
      <trkpt lat="39.458018" lon="-0.454197">
        <ele>63</ele>
        <time>2018-11-04T07:09:20.000Z</time>
      </trkpt>
      <trkpt lat="39.458093" lon="-0.454132">
        <ele>62</ele>
        <time>2018-11-04T07:09:22.000Z</time>
      </trkpt>
      <trkpt lat="39.458132" lon="-0.454023">
        <ele>62</ele>
        <time>2018-11-04T07:09:24.000Z</time>
      </trkpt>
      <trkpt lat="39.458133" lon="-0.453963">
        <ele>61.5416711111111</ele>
        <time>2018-11-04T07:09:25.000Z</time>
      </trkpt>
      <trkpt lat="39.458144" lon="-0.453888">
        <ele>61.5922354227768</ele>
        <time>2018-11-04T07:09:26.000Z</time>
      </trkpt>
      <trkpt lat="39.458165" lon="-0.453758">
        <ele>61</ele>
        <time>2018-11-04T07:09:28.000Z</time>
      </trkpt>
      <trkpt lat="39.458166" lon="-0.45363">
        <ele>61</ele>
        <time>2018-11-04T07:09:30.000Z</time>
      </trkpt>
      <trkpt lat="39.458167" lon="-0.453571">
        <ele>61</ele>
        <time>2018-11-04T07:09:31.000Z</time>
      </trkpt>
      <trkpt lat="39.458159" lon="-0.453512">
        <ele>61</ele>
        <time>2018-11-04T07:09:32.000Z</time>
      </trkpt>
      <trkpt lat="39.458157" lon="-0.453445">
        <ele>61</ele>
        <time>2018-11-04T07:09:33.000Z</time>
      </trkpt>
      <trkpt lat="39.458169" lon="-0.453296">
        <ele>60</ele>
        <time>2018-11-04T07:09:35.000Z</time>
      </trkpt>
      <trkpt lat="39.45817" lon="-0.453143">
        <ele>60</ele>
        <time>2018-11-04T07:09:37.000Z</time>
      </trkpt>
      <trkpt lat="39.458154" lon="-0.453002">
        <ele>59</ele>
        <time>2018-11-04T07:09:39.000Z</time>
      </trkpt>
      <trkpt lat="39.458177" lon="-0.452852">
        <ele>59</ele>
        <time>2018-11-04T07:09:41.000Z</time>
      </trkpt>
      <trkpt lat="39.458175" lon="-0.452737">
        <ele>59.3898271990628</ele>
        <time>2018-11-04T07:09:43.000Z</time>
      </trkpt>
      <trkpt lat="39.458165" lon="-0.452666">
        <ele>60</ele>
        <time>2018-11-04T07:09:44.000Z</time>
      </trkpt>
      <trkpt lat="39.458167" lon="-0.452507">
        <ele>59</ele>
        <time>2018-11-04T07:09:46.000Z</time>
      </trkpt>
      <trkpt lat="39.458178" lon="-0.452337">
        <ele>58.6153862984924</ele>
        <time>2018-11-04T07:09:48.000Z</time>
      </trkpt>
      <trkpt lat="39.458187" lon="-0.452244">
        <ele>58</ele>
        <time>2018-11-04T07:09:49.000Z</time>
      </trkpt>
      <trkpt lat="39.458189" lon="-0.452072">
        <ele>57</ele>
        <time>2018-11-04T07:09:51.000Z</time>
      </trkpt>
      <trkpt lat="39.458193" lon="-0.451993">
        <ele>57</ele>
        <time>2018-11-04T07:09:52.000Z</time>
      </trkpt>
      <trkpt lat="39.458201" lon="-0.451916">
        <ele>57</ele>
        <time>2018-11-04T07:09:53.000Z</time>
      </trkpt>
      <trkpt lat="39.458208" lon="-0.451841">
        <ele>57</ele>
        <time>2018-11-04T07:09:54.000Z</time>
      </trkpt>
      <trkpt lat="39.458214" lon="-0.451768">
        <ele>57</ele>
        <time>2018-11-04T07:09:55.000Z</time>
      </trkpt>
      <trkpt lat="39.458226" lon="-0.451705">
        <ele>57</ele>
        <time>2018-11-04T07:09:56.000Z</time>
      </trkpt>
      <trkpt lat="39.458233" lon="-0.45166">
        <ele>57</ele>
        <time>2018-11-04T07:09:57.000Z</time>
      </trkpt>
      <trkpt lat="39.458165" lon="-0.451572">
        <ele>56</ele>
        <time>2018-11-04T07:10:00.000Z</time>
      </trkpt>
      <trkpt lat="39.458071" lon="-0.4515">
        <ele>56</ele>
        <time>2018-11-04T07:10:02.000Z</time>
      </trkpt>
      <trkpt lat="39.457954" lon="-0.451397">
        <ele>56</ele>
        <time>2018-11-04T07:10:04.000Z</time>
      </trkpt>
      <trkpt lat="39.457882" lon="-0.451315">
        <ele>56.6262622344621</ele>
        <time>2018-11-04T07:10:05.000Z</time>
      </trkpt>
      <trkpt lat="39.45778" lon="-0.451225">
        <ele>57</ele>
        <time>2018-11-04T07:10:07.000Z</time>
      </trkpt>
      <trkpt lat="39.457748" lon="-0.45115">
        <ele>57</ele>
        <time>2018-11-04T07:10:09.000Z</time>
      </trkpt>
      <trkpt lat="39.457768" lon="-0.451092">
        <ele>57.56</ele>
        <time>2018-11-04T07:10:10.000Z</time>
      </trkpt>
      <trkpt lat="39.457786" lon="-0.451022">
        <ele>58</ele>
        <time>2018-11-04T07:10:11.000Z</time>
      </trkpt>
      <trkpt lat="39.457805" lon="-0.450954">
        <ele>58.56</ele>
        <time>2018-11-04T07:10:12.000Z</time>
      </trkpt>
      <trkpt lat="39.457832" lon="-0.450884">
        <ele>59</ele>
        <time>2018-11-04T07:10:13.000Z</time>
      </trkpt>
      <trkpt lat="39.457862" lon="-0.450808">
        <ele>59.5841634349733</ele>
        <time>2018-11-04T07:10:14.000Z</time>
      </trkpt>
      <trkpt lat="39.457893" lon="-0.450731">
        <ele>60.4172698307457</ele>
        <time>2018-11-04T07:10:15.000Z</time>
      </trkpt>
      <trkpt lat="39.457937" lon="-0.450655">
        <ele>61</ele>
        <time>2018-11-04T07:10:16.000Z</time>
      </trkpt>
      <trkpt lat="39.457972" lon="-0.450574">
        <ele>61</ele>
        <time>2018-11-04T07:10:17.000Z</time>
      </trkpt>
      <trkpt lat="39.458004" lon="-0.450497">
        <ele>60.36</ele>
        <time>2018-11-04T07:10:18.000Z</time>
      </trkpt>
      <trkpt lat="39.458037" lon="-0.450424">
        <ele>60</ele>
        <time>2018-11-04T07:10:19.000Z</time>
      </trkpt>
      <trkpt lat="39.458073" lon="-0.450349">
        <ele>60</ele>
        <time>2018-11-04T07:10:20.000Z</time>
      </trkpt>
      <trkpt lat="39.458106" lon="-0.450275">
        <ele>60</ele>
        <time>2018-11-04T07:10:21.000Z</time>
      </trkpt>
      <trkpt lat="39.458145" lon="-0.450198">
        <ele>59.7710813645056</ele>
        <time>2018-11-04T07:10:22.000Z</time>
      </trkpt>
      <trkpt lat="39.458187" lon="-0.450118">
        <ele>59.45</ele>
        <time>2018-11-04T07:10:23.000Z</time>
      </trkpt>
      <trkpt lat="39.458222" lon="-0.450048">
        <ele>60</ele>
        <time>2018-11-04T07:10:24.000Z</time>
      </trkpt>
      <trkpt lat="39.458247" lon="-0.449985">
        <ele>60</ele>
        <time>2018-11-04T07:10:25.000Z</time>
      </trkpt>
      <trkpt lat="39.458277" lon="-0.449917">
        <ele>60</ele>
        <time>2018-11-04T07:10:26.000Z</time>
      </trkpt>
      <trkpt lat="39.458302" lon="-0.449838">
        <ele>59.5108730434783</ele>
        <time>2018-11-04T07:10:27.000Z</time>
      </trkpt>
      <trkpt lat="39.458333" lon="-0.44976">
        <ele>59</ele>
        <time>2018-11-04T07:10:28.000Z</time>
      </trkpt>
      <trkpt lat="39.458372" lon="-0.449682">
        <ele>59</ele>
        <time>2018-11-04T07:10:29.000Z</time>
      </trkpt>
      <trkpt lat="39.458403" lon="-0.449604">
        <ele>59</ele>
        <time>2018-11-04T07:10:30.000Z</time>
      </trkpt>
      <trkpt lat="39.458434" lon="-0.449529">
        <ele>59</ele>
        <time>2018-11-04T07:10:31.000Z</time>
      </trkpt>
      <trkpt lat="39.458465" lon="-0.44945">
        <ele>59</ele>
        <time>2018-11-04T07:10:32.000Z</time>
      </trkpt>
      <trkpt lat="39.458498" lon="-0.449368">
        <ele>58.4085966747412</ele>
        <time>2018-11-04T07:10:33.000Z</time>
      </trkpt>
      <trkpt lat="39.458523" lon="-0.449279">
        <ele>58</ele>
        <time>2018-11-04T07:10:34.000Z</time>
      </trkpt>
      <trkpt lat="39.458557" lon="-0.449198">
        <ele>58</ele>
        <time>2018-11-04T07:10:35.000Z</time>
      </trkpt>
      <trkpt lat="39.458585" lon="-0.449116">
        <ele>58</ele>
        <time>2018-11-04T07:10:36.000Z</time>
      </trkpt>
      <trkpt lat="39.458604" lon="-0.449031">
        <ele>58</ele>
        <time>2018-11-04T07:10:37.000Z</time>
      </trkpt>
      <trkpt lat="39.458621" lon="-0.448937">
        <ele>58</ele>
        <time>2018-11-04T07:10:38.000Z</time>
      </trkpt>
      <trkpt lat="39.458671" lon="-0.448786">
        <ele>57</ele>
        <time>2018-11-04T07:10:40.000Z</time>
      </trkpt>
      <trkpt lat="39.458699" lon="-0.448711">
        <ele>56.6585339202647</ele>
        <time>2018-11-04T07:10:41.000Z</time>
      </trkpt>
      <trkpt lat="39.458733" lon="-0.448635">
        <ele>56</ele>
        <time>2018-11-04T07:10:42.000Z</time>
      </trkpt>
      <trkpt lat="39.458768" lon="-0.448561">
        <ele>55.4085966747412</ele>
        <time>2018-11-04T07:10:43.000Z</time>
      </trkpt>
      <trkpt lat="39.458801" lon="-0.448489">
        <ele>55</ele>
        <time>2018-11-04T07:10:44.000Z</time>
      </trkpt>
      <trkpt lat="39.458831" lon="-0.448412">
        <ele>54.6250026666667</ele>
        <time>2018-11-04T07:10:45.000Z</time>
      </trkpt>
      <trkpt lat="39.45886" lon="-0.448335">
        <ele>54</ele>
        <time>2018-11-04T07:10:46.000Z</time>
      </trkpt>
      <trkpt lat="39.45889" lon="-0.448255">
        <ele>53.5</ele>
        <time>2018-11-04T07:10:47.000Z</time>
      </trkpt>
      <trkpt lat="39.458917" lon="-0.448175">
        <ele>53</ele>
        <time>2018-11-04T07:10:48.000Z</time>
      </trkpt>
      <trkpt lat="39.458949" lon="-0.448096">
        <ele>53</ele>
        <time>2018-11-04T07:10:49.000Z</time>
      </trkpt>
      <trkpt lat="39.458977" lon="-0.448019">
        <ele>53</ele>
        <time>2018-11-04T07:10:50.000Z</time>
      </trkpt>
      <trkpt lat="39.459003" lon="-0.447941">
        <ele>53</ele>
        <time>2018-11-04T07:10:51.000Z</time>
      </trkpt>
      <trkpt lat="39.459025" lon="-0.447865">
        <ele>53</ele>
        <time>2018-11-04T07:10:52.000Z</time>
      </trkpt>
      <trkpt lat="39.459048" lon="-0.447789">
        <ele>52.6666587655257</ele>
        <time>2018-11-04T07:10:53.000Z</time>
      </trkpt>
      <trkpt lat="39.459066" lon="-0.447712">
        <ele>52</ele>
        <time>2018-11-04T07:10:54.000Z</time>
      </trkpt>
      <trkpt lat="39.459083" lon="-0.447642">
        <ele>51.4821623214023</ele>
        <time>2018-11-04T07:10:55.000Z</time>
      </trkpt>
      <trkpt lat="39.459104" lon="-0.447589">
        <ele>50.4253212635311</ele>
        <time>2018-11-04T07:10:56.000Z</time>
      </trkpt>
      <trkpt lat="39.459128" lon="-0.44756">
        <ele>50</ele>
        <time>2018-11-04T07:10:57.000Z</time>
      </trkpt>
      <trkpt lat="39.459147" lon="-0.447559">
        <ele>49.4195746966229</ele>
        <time>2018-11-04T07:10:58.000Z</time>
      </trkpt>
      <trkpt lat="39.459141" lon="-0.447586">
        <ele>47</ele>
        <time>2018-11-04T07:11:02.000Z</time>
      </trkpt>
      <trkpt lat="39.459162" lon="-0.447614">
        <ele>46</ele>
        <time>2018-11-04T07:11:04.000Z</time>
      </trkpt>
      <trkpt lat="39.459184" lon="-0.44763">
        <ele>46</ele>
        <time>2018-11-04T07:11:05.000Z</time>
      </trkpt>
      <trkpt lat="39.459209" lon="-0.44765">
        <ele>45.4666628740471</ele>
        <time>2018-11-04T07:11:06.000Z</time>
      </trkpt>
      <trkpt lat="39.459241" lon="-0.447672">
        <ele>45</ele>
        <time>2018-11-04T07:11:07.000Z</time>
      </trkpt>
      <trkpt lat="39.459278" lon="-0.447686">
        <ele>45.5757599265609</ele>
        <time>2018-11-04T07:11:08.000Z</time>
      </trkpt>
      <trkpt lat="39.459318" lon="-0.447686">
        <ele>46</ele>
        <time>2018-11-04T07:11:09.000Z</time>
      </trkpt>
      <trkpt lat="39.459357" lon="-0.447674">
        <ele>46</ele>
        <time>2018-11-04T07:11:10.000Z</time>
      </trkpt>
      <trkpt lat="39.45939" lon="-0.44766">
        <ele>46</ele>
        <time>2018-11-04T07:11:11.000Z</time>
      </trkpt>
      <trkpt lat="39.459423" lon="-0.447657">
        <ele>46</ele>
        <time>2018-11-04T07:11:12.000Z</time>
      </trkpt>
      <trkpt lat="39.459454" lon="-0.447644">
        <ele>46</ele>
        <time>2018-11-04T07:11:13.000Z</time>
      </trkpt>
      <trkpt lat="39.459477" lon="-0.447606">
        <ele>46</ele>
        <time>2018-11-04T07:11:14.000Z</time>
      </trkpt>
      <trkpt lat="39.459495" lon="-0.447556">
        <ele>46</ele>
        <time>2018-11-04T07:11:15.000Z</time>
      </trkpt>
      <trkpt lat="39.459513" lon="-0.447502">
        <ele>46</ele>
        <time>2018-11-04T07:11:16.000Z</time>
      </trkpt>
      <trkpt lat="39.459542" lon="-0.447458">
        <ele>46</ele>
        <time>2018-11-04T07:11:17.000Z</time>
      </trkpt>
      <trkpt lat="39.459591" lon="-0.447426">
        <ele>45.53906</ele>
        <time>2018-11-04T07:11:18.000Z</time>
      </trkpt>
      <trkpt lat="39.45964" lon="-0.447402">
        <ele>45</ele>
        <time>2018-11-04T07:11:19.000Z</time>
      </trkpt>
      <trkpt lat="39.459695" lon="-0.447398">
        <ele>45</ele>
        <time>2018-11-04T07:11:20.000Z</time>
      </trkpt>
      <trkpt lat="39.45975" lon="-0.447405">
        <ele>45</ele>
        <time>2018-11-04T07:11:21.000Z</time>
      </trkpt>
      <trkpt lat="39.459804" lon="-0.447414">
        <ele>45</ele>
        <time>2018-11-04T07:11:22.000Z</time>
      </trkpt>
      <trkpt lat="39.459856" lon="-0.447428">
        <ele>44.4257416959205</ele>
        <time>2018-11-04T07:11:23.000Z</time>
      </trkpt>
      <trkpt lat="39.459907" lon="-0.447448">
        <ele>44</ele>
        <time>2018-11-04T07:11:24.000Z</time>
      </trkpt>
      <trkpt lat="39.459958" lon="-0.447469">
        <ele>44</ele>
        <time>2018-11-04T07:11:25.000Z</time>
      </trkpt>
      <trkpt lat="39.460006" lon="-0.447494">
        <ele>44</ele>
        <time>2018-11-04T07:11:26.000Z</time>
      </trkpt>
      <trkpt lat="39.460058" lon="-0.447518">
        <ele>44</ele>
        <time>2018-11-04T07:11:27.000Z</time>
      </trkpt>
      <trkpt lat="39.460108" lon="-0.447542">
        <ele>44</ele>
        <time>2018-11-04T07:11:28.000Z</time>
      </trkpt>
      <trkpt lat="39.460155" lon="-0.447564">
        <ele>43.4257416959205</ele>
        <time>2018-11-04T07:11:29.000Z</time>
      </trkpt>
      <trkpt lat="39.460201" lon="-0.447584">
        <ele>43</ele>
        <time>2018-11-04T07:11:30.000Z</time>
      </trkpt>
      <trkpt lat="39.460245" lon="-0.447598">
        <ele>43</ele>
        <time>2018-11-04T07:11:31.000Z</time>
      </trkpt>
      <trkpt lat="39.460289" lon="-0.447614">
        <ele>43</ele>
        <time>2018-11-04T07:11:32.000Z</time>
      </trkpt>
      <trkpt lat="39.460333" lon="-0.447628">
        <ele>43</ele>
        <time>2018-11-04T07:11:33.000Z</time>
      </trkpt>
      <trkpt lat="39.460376" lon="-0.447638">
        <ele>43</ele>
        <time>2018-11-04T07:11:34.000Z</time>
      </trkpt>
      <trkpt lat="39.46042" lon="-0.447648">
        <ele>43</ele>
        <time>2018-11-04T07:11:35.000Z</time>
      </trkpt>
      <trkpt lat="39.460465" lon="-0.447657">
        <ele>43</ele>
        <time>2018-11-04T07:11:36.000Z</time>
      </trkpt>
      <trkpt lat="39.460509" lon="-0.447667">
        <ele>43</ele>
        <time>2018-11-04T07:11:37.000Z</time>
      </trkpt>
      <trkpt lat="39.460553" lon="-0.447681">
        <ele>43.4078989473684</ele>
        <time>2018-11-04T07:11:38.000Z</time>
      </trkpt>
      <trkpt lat="39.460595" lon="-0.447692">
        <ele>44</ele>
        <time>2018-11-04T07:11:39.000Z</time>
      </trkpt>
      <trkpt lat="39.460639" lon="-0.4477">
        <ele>44</ele>
        <time>2018-11-04T07:11:40.000Z</time>
      </trkpt>
      <trkpt lat="39.46068" lon="-0.447712">
        <ele>44</ele>
        <time>2018-11-04T07:11:41.000Z</time>
      </trkpt>
      <trkpt lat="39.460722" lon="-0.44772">
        <ele>44</ele>
        <time>2018-11-04T07:11:42.000Z</time>
      </trkpt>
      <trkpt lat="39.460767" lon="-0.447726">
        <ele>44</ele>
        <time>2018-11-04T07:11:43.000Z</time>
      </trkpt>
      <trkpt lat="39.46081" lon="-0.447733">
        <ele>44</ele>
        <time>2018-11-04T07:11:44.000Z</time>
      </trkpt>
      <trkpt lat="39.46085" lon="-0.447739">
        <ele>44</ele>
        <time>2018-11-04T07:11:45.000Z</time>
      </trkpt>
      <trkpt lat="39.460891" lon="-0.44774">
        <ele>44</ele>
        <time>2018-11-04T07:11:46.000Z</time>
      </trkpt>
      <trkpt lat="39.460933" lon="-0.447739">
        <ele>44</ele>
        <time>2018-11-04T07:11:47.000Z</time>
      </trkpt>
      <trkpt lat="39.460975" lon="-0.447736">
        <ele>44</ele>
        <time>2018-11-04T07:11:48.000Z</time>
      </trkpt>
      <trkpt lat="39.461015" lon="-0.447735">
        <ele>44</ele>
        <time>2018-11-04T07:11:49.000Z</time>
      </trkpt>
      <trkpt lat="39.461056" lon="-0.447734">
        <ele>44</ele>
        <time>2018-11-04T07:11:50.000Z</time>
      </trkpt>
      <trkpt lat="39.461096" lon="-0.447732">
        <ele>44</ele>
        <time>2018-11-04T07:11:51.000Z</time>
      </trkpt>
      <trkpt lat="39.461136" lon="-0.44773">
        <ele>44</ele>
        <time>2018-11-04T07:11:52.000Z</time>
      </trkpt>
      <trkpt lat="39.461175" lon="-0.447726">
        <ele>44</ele>
        <time>2018-11-04T07:11:53.000Z</time>
      </trkpt>
      <trkpt lat="39.461215" lon="-0.44772">
        <ele>44</ele>
        <time>2018-11-04T07:11:54.000Z</time>
      </trkpt>
      <trkpt lat="39.461255" lon="-0.44772">
        <ele>43.537504</ele>
        <time>2018-11-04T07:11:55.000Z</time>
      </trkpt>
      <trkpt lat="39.461295" lon="-0.447718">
        <ele>43</ele>
        <time>2018-11-04T07:11:56.000Z</time>
      </trkpt>
      <trkpt lat="39.461335" lon="-0.447716">
        <ele>43</ele>
        <time>2018-11-04T07:11:57.000Z</time>
      </trkpt>
      <trkpt lat="39.461374" lon="-0.44771">
        <ele>43</ele>
        <time>2018-11-04T07:11:58.000Z</time>
      </trkpt>
      <trkpt lat="39.461413" lon="-0.447704">
        <ele>43</ele>
        <time>2018-11-04T07:11:59.000Z</time>
      </trkpt>
      <trkpt lat="39.461453" lon="-0.447699">
        <ele>43</ele>
        <time>2018-11-04T07:12:00.000Z</time>
      </trkpt>
      <trkpt lat="39.461494" lon="-0.447697">
        <ele>43</ele>
        <time>2018-11-04T07:12:01.000Z</time>
      </trkpt>
      <trkpt lat="39.461535" lon="-0.447692">
        <ele>42.3663346260107</ele>
        <time>2018-11-04T07:12:02.000Z</time>
      </trkpt>
      <trkpt lat="39.461576" lon="-0.447683">
        <ele>42</ele>
        <time>2018-11-04T07:12:03.000Z</time>
      </trkpt>
      <trkpt lat="39.461617" lon="-0.447674">
        <ele>42</ele>
        <time>2018-11-04T07:12:04.000Z</time>
      </trkpt>
      <trkpt lat="39.46166" lon="-0.447666">
        <ele>42</ele>
        <time>2018-11-04T07:12:05.000Z</time>
      </trkpt>
      <trkpt lat="39.461703" lon="-0.447656">
        <ele>42</ele>
        <time>2018-11-04T07:12:06.000Z</time>
      </trkpt>
      <trkpt lat="39.461749" lon="-0.447647">
        <ele>42</ele>
        <time>2018-11-04T07:12:07.000Z</time>
      </trkpt>
      <trkpt lat="39.461795" lon="-0.447638">
        <ele>42</ele>
        <time>2018-11-04T07:12:08.000Z</time>
      </trkpt>
      <trkpt lat="39.461842" lon="-0.447629">
        <ele>42.56</ele>
        <time>2018-11-04T07:12:09.000Z</time>
      </trkpt>
      <trkpt lat="39.46189" lon="-0.44762">
        <ele>43</ele>
        <time>2018-11-04T07:12:10.000Z</time>
      </trkpt>
      <trkpt lat="39.461937" lon="-0.447612">
        <ele>43</ele>
        <time>2018-11-04T07:12:11.000Z</time>
      </trkpt>
      <trkpt lat="39.461987" lon="-0.447604">
        <ele>43</ele>
        <time>2018-11-04T07:12:12.000Z</time>
      </trkpt>
      <trkpt lat="39.462039" lon="-0.4476">
        <ele>43</ele>
        <time>2018-11-04T07:12:13.000Z</time>
      </trkpt>
      <trkpt lat="39.462092" lon="-0.447596">
        <ele>43</ele>
        <time>2018-11-04T07:12:14.000Z</time>
      </trkpt>
      <trkpt lat="39.462148" lon="-0.447593">
        <ele>43</ele>
        <time>2018-11-04T07:12:15.000Z</time>
      </trkpt>
      <trkpt lat="39.462207" lon="-0.44759">
        <ele>43</ele>
        <time>2018-11-04T07:12:16.000Z</time>
      </trkpt>
      <trkpt lat="39.462269" lon="-0.447587">
        <ele>43</ele>
        <time>2018-11-04T07:12:17.000Z</time>
      </trkpt>
      <trkpt lat="39.462333" lon="-0.447579">
        <ele>43</ele>
        <time>2018-11-04T07:12:18.000Z</time>
      </trkpt>
      <trkpt lat="39.462399" lon="-0.447572">
        <ele>43</ele>
        <time>2018-11-04T07:12:19.000Z</time>
      </trkpt>
      <trkpt lat="39.462467" lon="-0.447565">
        <ele>43.56</ele>
        <time>2018-11-04T07:12:20.000Z</time>
      </trkpt>
      <trkpt lat="39.462536" lon="-0.447554">
        <ele>43.44</ele>
        <time>2018-11-04T07:12:21.000Z</time>
      </trkpt>
      <trkpt lat="39.462604" lon="-0.447543">
        <ele>43</ele>
        <time>2018-11-04T07:12:22.000Z</time>
      </trkpt>
      <trkpt lat="39.462674" lon="-0.447533">
        <ele>43</ele>
        <time>2018-11-04T07:12:23.000Z</time>
      </trkpt>
      <trkpt lat="39.462745" lon="-0.447522">
        <ele>42.6506076121152</ele>
        <time>2018-11-04T07:12:24.000Z</time>
      </trkpt>
      <trkpt lat="39.462819" lon="-0.44751">
        <ele>42</ele>
        <time>2018-11-04T07:12:25.000Z</time>
      </trkpt>
      <trkpt lat="39.462894" lon="-0.447501">
        <ele>42</ele>
        <time>2018-11-04T07:12:26.000Z</time>
      </trkpt>
      <trkpt lat="39.46297" lon="-0.44749">
        <ele>42</ele>
        <time>2018-11-04T07:12:27.000Z</time>
      </trkpt>
      <trkpt lat="39.463048" lon="-0.447478">
        <ele>42</ele>
        <time>2018-11-04T07:12:28.000Z</time>
      </trkpt>
      <trkpt lat="39.463125" lon="-0.447465">
        <ele>42</ele>
        <time>2018-11-04T07:12:29.000Z</time>
      </trkpt>
      <trkpt lat="39.4632" lon="-0.447455">
        <ele>42</ele>
        <time>2018-11-04T07:12:30.000Z</time>
      </trkpt>
      <trkpt lat="39.463267" lon="-0.447452">
        <ele>41.6666587655257</ele>
        <time>2018-11-04T07:12:31.000Z</time>
      </trkpt>
      <trkpt lat="39.463325" lon="-0.447452">
        <ele>41</ele>
        <time>2018-11-04T07:12:32.000Z</time>
      </trkpt>
      <trkpt lat="39.463373" lon="-0.447453">
        <ele>41</ele>
        <time>2018-11-04T07:12:33.000Z</time>
      </trkpt>
      <trkpt lat="39.463417" lon="-0.447459">
        <ele>41</ele>
        <time>2018-11-04T07:12:34.000Z</time>
      </trkpt>
      <trkpt lat="39.463464" lon="-0.447467">
        <ele>41</ele>
        <time>2018-11-04T07:12:35.000Z</time>
      </trkpt>
      <trkpt lat="39.463511" lon="-0.447473">
        <ele>41</ele>
        <time>2018-11-04T07:12:36.000Z</time>
      </trkpt>
      <trkpt lat="39.463559" lon="-0.447485">
        <ele>41</ele>
        <time>2018-11-04T07:12:37.000Z</time>
      </trkpt>
      <trkpt lat="39.463606" lon="-0.447499">
        <ele>41</ele>
        <time>2018-11-04T07:12:38.000Z</time>
      </trkpt>
      <trkpt lat="39.463653" lon="-0.447519">
        <ele>41</ele>
        <time>2018-11-04T07:12:39.000Z</time>
      </trkpt>
      <trkpt lat="39.463698" lon="-0.447545">
        <ele>41</ele>
        <time>2018-11-04T07:12:40.000Z</time>
      </trkpt>
      <trkpt lat="39.463738" lon="-0.447581">
        <ele>41</ele>
        <time>2018-11-04T07:12:41.000Z</time>
      </trkpt>
      <trkpt lat="39.463773" lon="-0.447626">
        <ele>41</ele>
        <time>2018-11-04T07:12:42.000Z</time>
      </trkpt>
      <trkpt lat="39.463797" lon="-0.447674">
        <ele>41</ele>
        <time>2018-11-04T07:12:43.000Z</time>
      </trkpt>
      <trkpt lat="39.46381" lon="-0.447714">
        <ele>41.48</ele>
        <time>2018-11-04T07:12:44.000Z</time>
      </trkpt>
      <trkpt lat="39.46382" lon="-0.447741">
        <ele>42</ele>
        <time>2018-11-04T07:12:45.000Z</time>
      </trkpt>
      <trkpt lat="39.463838" lon="-0.447766">
        <ele>42</ele>
        <time>2018-11-04T07:12:47.000Z</time>
      </trkpt>
      <trkpt lat="39.463866" lon="-0.447771">
        <ele>42</ele>
        <time>2018-11-04T07:12:49.000Z</time>
      </trkpt>
      <trkpt lat="39.463892" lon="-0.447781">
        <ele>41.4727245223301</ele>
        <time>2018-11-04T07:12:51.000Z</time>
      </trkpt>
      <trkpt lat="39.463916" lon="-0.44779">
        <ele>41</ele>
        <time>2018-11-04T07:12:52.000Z</time>
      </trkpt>
      <trkpt lat="39.463944" lon="-0.447808">
        <ele>41</ele>
        <time>2018-11-04T07:12:53.000Z</time>
      </trkpt>
      <trkpt lat="39.463976" lon="-0.44783">
        <ele>41</ele>
        <time>2018-11-04T07:12:54.000Z</time>
      </trkpt>
      <trkpt lat="39.464006" lon="-0.447869">
        <ele>41</ele>
        <time>2018-11-04T07:12:55.000Z</time>
      </trkpt>
      <trkpt lat="39.464023" lon="-0.447926">
        <ele>41</ele>
        <time>2018-11-04T07:12:56.000Z</time>
      </trkpt>
      <trkpt lat="39.464018" lon="-0.447984">
        <ele>41</ele>
        <time>2018-11-04T07:12:57.000Z</time>
      </trkpt>
      <trkpt lat="39.464001" lon="-0.448044">
        <ele>41.2916622222222</ele>
        <time>2018-11-04T07:12:58.000Z</time>
      </trkpt>
      <trkpt lat="39.463985" lon="-0.448107">
        <ele>42</ele>
        <time>2018-11-04T07:12:59.000Z</time>
      </trkpt>
      <trkpt lat="39.463966" lon="-0.44817">
        <ele>42.5333371259529</ele>
        <time>2018-11-04T07:13:00.000Z</time>
      </trkpt>
      <trkpt lat="39.463948" lon="-0.448234">
        <ele>43</ele>
        <time>2018-11-04T07:13:01.000Z</time>
      </trkpt>
      <trkpt lat="39.463931" lon="-0.448299">
        <ele>43</ele>
        <time>2018-11-04T07:13:02.000Z</time>
      </trkpt>
      <trkpt lat="39.463913" lon="-0.448363">
        <ele>43</ele>
        <time>2018-11-04T07:13:03.000Z</time>
      </trkpt>
      <trkpt lat="39.463894" lon="-0.448428">
        <ele>43</ele>
        <time>2018-11-04T07:13:04.000Z</time>
      </trkpt>
      <trkpt lat="39.463876" lon="-0.448493">
        <ele>43.4899968</ele>
        <time>2018-11-04T07:13:05.000Z</time>
      </trkpt>
      <trkpt lat="39.463854" lon="-0.448556">
        <ele>44</ele>
        <time>2018-11-04T07:13:06.000Z</time>
      </trkpt>
      <trkpt lat="39.463829" lon="-0.448615">
        <ele>44</ele>
        <time>2018-11-04T07:13:07.000Z</time>
      </trkpt>
      <trkpt lat="39.463807" lon="-0.448675">
        <ele>44.4762375484754</ele>
        <time>2018-11-04T07:13:08.000Z</time>
      </trkpt>
      <trkpt lat="39.463786" lon="-0.448734">
        <ele>45</ele>
        <time>2018-11-04T07:13:09.000Z</time>
      </trkpt>
      <trkpt lat="39.463767" lon="-0.448797">
        <ele>45</ele>
        <time>2018-11-04T07:13:10.000Z</time>
      </trkpt>
      <trkpt lat="39.46375" lon="-0.44886">
        <ele>45</ele>
        <time>2018-11-04T07:13:11.000Z</time>
      </trkpt>
      <trkpt lat="39.463733" lon="-0.448924">
        <ele>45.4202871665492</ele>
        <time>2018-11-04T07:13:12.000Z</time>
      </trkpt>
      <trkpt lat="39.463718" lon="-0.448989">
        <ele>46</ele>
        <time>2018-11-04T07:13:13.000Z</time>
      </trkpt>
      <trkpt lat="39.463704" lon="-0.449054">
        <ele>46</ele>
        <time>2018-11-04T07:13:14.000Z</time>
      </trkpt>
      <trkpt lat="39.463689" lon="-0.449123">
        <ele>46</ele>
        <time>2018-11-04T07:13:15.000Z</time>
      </trkpt>
      <trkpt lat="39.463678" lon="-0.449193">
        <ele>46</ele>
        <time>2018-11-04T07:13:16.000Z</time>
      </trkpt>
      <trkpt lat="39.463671" lon="-0.449263">
        <ele>46</ele>
        <time>2018-11-04T07:13:17.000Z</time>
      </trkpt>
      <trkpt lat="39.463666" lon="-0.449331">
        <ele>46</ele>
        <time>2018-11-04T07:13:18.000Z</time>
      </trkpt>
      <trkpt lat="39.463661" lon="-0.449402">
        <ele>46</ele>
        <time>2018-11-04T07:13:19.000Z</time>
      </trkpt>
      <trkpt lat="39.463654" lon="-0.449474">
        <ele>46</ele>
        <time>2018-11-04T07:13:20.000Z</time>
      </trkpt>
      <trkpt lat="39.463651" lon="-0.449546">
        <ele>46</ele>
        <time>2018-11-04T07:13:21.000Z</time>
      </trkpt>
      <trkpt lat="39.463647" lon="-0.44962">
        <ele>46</ele>
        <time>2018-11-04T07:13:22.000Z</time>
      </trkpt>
      <trkpt lat="39.463638" lon="-0.449695">
        <ele>46</ele>
        <time>2018-11-04T07:13:23.000Z</time>
      </trkpt>
      <trkpt lat="39.463632" lon="-0.449769">
        <ele>46</ele>
        <time>2018-11-04T07:13:24.000Z</time>
      </trkpt>
      <trkpt lat="39.463632" lon="-0.449841">
        <ele>46</ele>
        <time>2018-11-04T07:13:25.000Z</time>
      </trkpt>
      <trkpt lat="39.463636" lon="-0.449911">
        <ele>46</ele>
        <time>2018-11-04T07:13:26.000Z</time>
      </trkpt>
      <trkpt lat="39.463642" lon="-0.44998">
        <ele>46</ele>
        <time>2018-11-04T07:13:27.000Z</time>
      </trkpt>
      <trkpt lat="39.463648" lon="-0.450049">
        <ele>46</ele>
        <time>2018-11-04T07:13:28.000Z</time>
      </trkpt>
      <trkpt lat="39.463653" lon="-0.450117">
        <ele>46</ele>
        <time>2018-11-04T07:13:29.000Z</time>
      </trkpt>
      <trkpt lat="39.463656" lon="-0.450181">
        <ele>46</ele>
        <time>2018-11-04T07:13:30.000Z</time>
      </trkpt>
      <trkpt lat="39.463661" lon="-0.450251">
        <ele>46</ele>
        <time>2018-11-04T07:13:31.000Z</time>
      </trkpt>
      <trkpt lat="39.463668" lon="-0.45032">
        <ele>46</ele>
        <time>2018-11-04T07:13:32.000Z</time>
      </trkpt>
      <trkpt lat="39.463674" lon="-0.450393">
        <ele>46</ele>
        <time>2018-11-04T07:13:33.000Z</time>
      </trkpt>
      <trkpt lat="39.463686" lon="-0.450463">
        <ele>46</ele>
        <time>2018-11-04T07:13:34.000Z</time>
      </trkpt>
      <trkpt lat="39.4637" lon="-0.450534">
        <ele>46</ele>
        <time>2018-11-04T07:13:35.000Z</time>
      </trkpt>
      <trkpt lat="39.463719" lon="-0.4506">
        <ele>46</ele>
        <time>2018-11-04T07:13:36.000Z</time>
      </trkpt>
      <trkpt lat="39.463738" lon="-0.450664">
        <ele>46</ele>
        <time>2018-11-04T07:13:37.000Z</time>
      </trkpt>
      <trkpt lat="39.46374" lon="-0.450737">
        <ele>46</ele>
        <time>2018-11-04T07:13:38.000Z</time>
      </trkpt>
      <trkpt lat="39.463741" lon="-0.450819">
        <ele>46</ele>
        <time>2018-11-04T07:13:39.000Z</time>
      </trkpt>
      <trkpt lat="39.463745" lon="-0.450904">
        <ele>46</ele>
        <time>2018-11-04T07:13:40.000Z</time>
      </trkpt>
      <trkpt lat="39.463755" lon="-0.450981">
        <ele>46</ele>
        <time>2018-11-04T07:13:41.000Z</time>
      </trkpt>
      <trkpt lat="39.46377" lon="-0.45105">
        <ele>46</ele>
        <time>2018-11-04T07:13:42.000Z</time>
      </trkpt>
      <trkpt lat="39.463781" lon="-0.451125">
        <ele>46</ele>
        <time>2018-11-04T07:13:43.000Z</time>
      </trkpt>
      <trkpt lat="39.463792" lon="-0.451201">
        <ele>46</ele>
        <time>2018-11-04T07:13:44.000Z</time>
      </trkpt>
      <trkpt lat="39.463802" lon="-0.451276">
        <ele>46</ele>
        <time>2018-11-04T07:13:45.000Z</time>
      </trkpt>
      <trkpt lat="39.463811" lon="-0.451355">
        <ele>46</ele>
        <time>2018-11-04T07:13:46.000Z</time>
      </trkpt>
      <trkpt lat="39.463817" lon="-0.451435">
        <ele>46</ele>
        <time>2018-11-04T07:13:47.000Z</time>
      </trkpt>
      <trkpt lat="39.463822" lon="-0.451517">
        <ele>46</ele>
        <time>2018-11-04T07:13:48.000Z</time>
      </trkpt>
      <trkpt lat="39.46383" lon="-0.451599">
        <ele>46.5250026666667</ele>
        <time>2018-11-04T07:13:49.000Z</time>
      </trkpt>
      <trkpt lat="39.463838" lon="-0.451682">
        <ele>47</ele>
        <time>2018-11-04T07:13:50.000Z</time>
      </trkpt>
      <trkpt lat="39.463848" lon="-0.451758">
        <ele>47</ele>
        <time>2018-11-04T07:13:51.000Z</time>
      </trkpt>
      <trkpt lat="39.463852" lon="-0.451838">
        <ele>47</ele>
        <time>2018-11-04T07:13:52.000Z</time>
      </trkpt>
      <trkpt lat="39.463862" lon="-0.451913">
        <ele>47</ele>
        <time>2018-11-04T07:13:53.000Z</time>
      </trkpt>
      <trkpt lat="39.463871" lon="-0.451989">
        <ele>47.4777779358013</ele>
        <time>2018-11-04T07:13:54.000Z</time>
      </trkpt>
      <trkpt lat="39.463884" lon="-0.45206">
        <ele>48</ele>
        <time>2018-11-04T07:13:55.000Z</time>
      </trkpt>
      <trkpt lat="39.463892" lon="-0.452132">
        <ele>48</ele>
        <time>2018-11-04T07:13:56.000Z</time>
      </trkpt>
      <trkpt lat="39.463894" lon="-0.452212">
        <ele>48</ele>
        <time>2018-11-04T07:13:57.000Z</time>
      </trkpt>
      <trkpt lat="39.463903" lon="-0.452282">
        <ele>48</ele>
        <time>2018-11-04T07:13:58.000Z</time>
      </trkpt>
      <trkpt lat="39.46391" lon="-0.452357">
        <ele>48</ele>
        <time>2018-11-04T07:13:59.000Z</time>
      </trkpt>
      <trkpt lat="39.463912" lon="-0.452436">
        <ele>48</ele>
        <time>2018-11-04T07:14:00.000Z</time>
      </trkpt>
      <trkpt lat="39.463914" lon="-0.452513">
        <ele>48</ele>
        <time>2018-11-04T07:14:01.000Z</time>
      </trkpt>
      <trkpt lat="39.463918" lon="-0.452588">
        <ele>48.5250026666667</ele>
        <time>2018-11-04T07:14:02.000Z</time>
      </trkpt>
      <trkpt lat="39.463925" lon="-0.45266">
        <ele>49</ele>
        <time>2018-11-04T07:14:03.000Z</time>
      </trkpt>
      <trkpt lat="39.463933" lon="-0.45273">
        <ele>49</ele>
        <time>2018-11-04T07:14:04.000Z</time>
      </trkpt>
      <trkpt lat="39.463942" lon="-0.452797">
        <ele>49</ele>
        <time>2018-11-04T07:14:05.000Z</time>
      </trkpt>
      <trkpt lat="39.463949" lon="-0.45287">
        <ele>49</ele>
        <time>2018-11-04T07:14:06.000Z</time>
      </trkpt>
      <trkpt lat="39.463956" lon="-0.452942">
        <ele>49</ele>
        <time>2018-11-04T07:14:07.000Z</time>
      </trkpt>
      <trkpt lat="39.463967" lon="-0.45301">
        <ele>49</ele>
        <time>2018-11-04T07:14:08.000Z</time>
      </trkpt>
      <trkpt lat="39.463975" lon="-0.45308">
        <ele>49.1764750173177</ele>
        <time>2018-11-04T07:14:09.000Z</time>
      </trkpt>
      <trkpt lat="39.463984" lon="-0.453152">
        <ele>50</ele>
        <time>2018-11-04T07:14:10.000Z</time>
      </trkpt>
      <trkpt lat="39.463991" lon="-0.453227">
        <ele>50</ele>
        <time>2018-11-04T07:14:11.000Z</time>
      </trkpt>
      <trkpt lat="39.463997" lon="-0.4533">
        <ele>50</ele>
        <time>2018-11-04T07:14:12.000Z</time>
      </trkpt>
      <trkpt lat="39.464003" lon="-0.453372">
        <ele>50.5206596707993</ele>
        <time>2018-11-04T07:14:13.000Z</time>
      </trkpt>
      <trkpt lat="39.46401" lon="-0.453443">
        <ele>51</ele>
        <time>2018-11-04T07:14:14.000Z</time>
      </trkpt>
      <trkpt lat="39.464018" lon="-0.453518">
        <ele>51</ele>
        <time>2018-11-04T07:14:15.000Z</time>
      </trkpt>
      <trkpt lat="39.464029" lon="-0.453591">
        <ele>51</ele>
        <time>2018-11-04T07:14:16.000Z</time>
      </trkpt>
      <trkpt lat="39.46404" lon="-0.453663">
        <ele>51</ele>
        <time>2018-11-04T07:14:17.000Z</time>
      </trkpt>
      <trkpt lat="39.464052" lon="-0.453737">
        <ele>51</ele>
        <time>2018-11-04T07:14:18.000Z</time>
      </trkpt>
      <trkpt lat="39.464065" lon="-0.45381">
        <ele>51.4666704592323</ele>
        <time>2018-11-04T07:14:19.000Z</time>
      </trkpt>
      <trkpt lat="39.464075" lon="-0.453885">
        <ele>52</ele>
        <time>2018-11-04T07:14:20.000Z</time>
      </trkpt>
      <trkpt lat="39.464084" lon="-0.453959">
        <ele>52</ele>
        <time>2018-11-04T07:14:21.000Z</time>
      </trkpt>
      <trkpt lat="39.464092" lon="-0.454034">
        <ele>52</ele>
        <time>2018-11-04T07:14:22.000Z</time>
      </trkpt>
      <trkpt lat="39.464099" lon="-0.454111">
        <ele>52.577781886449</ele>
        <time>2018-11-04T07:14:23.000Z</time>
      </trkpt>
      <trkpt lat="39.464108" lon="-0.45418">
        <ele>52.483328</ele>
        <time>2018-11-04T07:14:24.000Z</time>
      </trkpt>
      <trkpt lat="39.464111" lon="-0.454253">
        <ele>52.35593569662</ele>
        <time>2018-11-04T07:14:25.000Z</time>
      </trkpt>
      <trkpt lat="39.464112" lon="-0.454329">
        <ele>53</ele>
        <time>2018-11-04T07:14:26.000Z</time>
      </trkpt>
      <trkpt lat="39.46412" lon="-0.454399">
        <ele>53</ele>
        <time>2018-11-04T07:14:27.000Z</time>
      </trkpt>
      <trkpt lat="39.464131" lon="-0.454467">
        <ele>53</ele>
        <time>2018-11-04T07:14:28.000Z</time>
      </trkpt>
      <trkpt lat="39.464146" lon="-0.454528">
        <ele>53</ele>
        <time>2018-11-04T07:14:29.000Z</time>
      </trkpt>
      <trkpt lat="39.464157" lon="-0.454588">
        <ele>53</ele>
        <time>2018-11-04T07:14:30.000Z</time>
      </trkpt>
      <trkpt lat="39.464166" lon="-0.454649">
        <ele>53</ele>
        <time>2018-11-04T07:14:31.000Z</time>
      </trkpt>
      <trkpt lat="39.464178" lon="-0.454714">
        <ele>53</ele>
        <time>2018-11-04T07:14:32.000Z</time>
      </trkpt>
      <trkpt lat="39.464181" lon="-0.454795">
        <ele>53.4666704592323</ele>
        <time>2018-11-04T07:14:33.000Z</time>
      </trkpt>
      <trkpt lat="39.464185" lon="-0.454876">
        <ele>54</ele>
        <time>2018-11-04T07:14:34.000Z</time>
      </trkpt>
      <trkpt lat="39.464191" lon="-0.454951">
        <ele>54</ele>
        <time>2018-11-04T07:14:35.000Z</time>
      </trkpt>
      <trkpt lat="39.464199" lon="-0.455023">
        <ele>54</ele>
        <time>2018-11-04T07:14:36.000Z</time>
      </trkpt>
      <trkpt lat="39.464208" lon="-0.455094">
        <ele>54</ele>
        <time>2018-11-04T07:14:37.000Z</time>
      </trkpt>
      <trkpt lat="39.464218" lon="-0.455162">
        <ele>54</ele>
        <time>2018-11-04T07:14:38.000Z</time>
      </trkpt>
      <trkpt lat="39.464225" lon="-0.45523">
        <ele>54</ele>
        <time>2018-11-04T07:14:39.000Z</time>
      </trkpt>
      <trkpt lat="39.464233" lon="-0.455296">
        <ele>54</ele>
        <time>2018-11-04T07:14:40.000Z</time>
      </trkpt>
      <trkpt lat="39.46424" lon="-0.455361">
        <ele>54</ele>
        <time>2018-11-04T07:14:41.000Z</time>
      </trkpt>
      <trkpt lat="39.464245" lon="-0.455422">
        <ele>54.5888895209921</ele>
        <time>2018-11-04T07:14:42.000Z</time>
      </trkpt>
      <trkpt lat="39.464247" lon="-0.455478">
        <ele>55</ele>
        <time>2018-11-04T07:14:43.000Z</time>
      </trkpt>
      <trkpt lat="39.464251" lon="-0.455522">
        <ele>55</ele>
        <time>2018-11-04T07:14:44.000Z</time>
      </trkpt>
      <trkpt lat="39.464257" lon="-0.455561">
        <ele>55</ele>
        <time>2018-11-04T07:14:45.000Z</time>
      </trkpt>
      <trkpt lat="39.464261" lon="-0.455597">
        <ele>55</ele>
        <time>2018-11-04T07:14:46.000Z</time>
      </trkpt>
      <trkpt lat="39.46426" lon="-0.455634">
        <ele>55</ele>
        <time>2018-11-04T07:14:47.000Z</time>
      </trkpt>
      <trkpt lat="39.464261" lon="-0.455674">
        <ele>55</ele>
        <time>2018-11-04T07:14:48.000Z</time>
      </trkpt>
      <trkpt lat="39.464261" lon="-0.455724">
        <ele>55</ele>
        <time>2018-11-04T07:14:49.000Z</time>
      </trkpt>
      <trkpt lat="39.464268" lon="-0.45577">
        <ele>55</ele>
        <time>2018-11-04T07:14:50.000Z</time>
      </trkpt>
      <trkpt lat="39.464286" lon="-0.455808">
        <ele>54.4719122130817</ele>
        <time>2018-11-04T07:14:51.000Z</time>
      </trkpt>
      <trkpt lat="39.464319" lon="-0.455833">
        <ele>54</ele>
        <time>2018-11-04T07:14:52.000Z</time>
      </trkpt>
      <trkpt lat="39.464357" lon="-0.455847">
        <ele>54</ele>
        <time>2018-11-04T07:14:53.000Z</time>
      </trkpt>
      <trkpt lat="39.4644" lon="-0.455847">
        <ele>54</ele>
        <time>2018-11-04T07:14:54.000Z</time>
      </trkpt>
      <trkpt lat="39.464446" lon="-0.455838">
        <ele>53.4529899568956</ele>
        <time>2018-11-04T07:14:55.000Z</time>
      </trkpt>
      <trkpt lat="39.464495" lon="-0.455833">
        <ele>53</ele>
        <time>2018-11-04T07:14:56.000Z</time>
      </trkpt>
      <trkpt lat="39.464546" lon="-0.45583">
        <ele>53</ele>
        <time>2018-11-04T07:14:57.000Z</time>
      </trkpt>
      <trkpt lat="39.464599" lon="-0.455827">
        <ele>53</ele>
        <time>2018-11-04T07:14:58.000Z</time>
      </trkpt>
      <trkpt lat="39.464656" lon="-0.45582">
        <ele>53</ele>
        <time>2018-11-04T07:14:59.000Z</time>
      </trkpt>
      <trkpt lat="39.464709" lon="-0.455813">
        <ele>52.4418646186819</ele>
        <time>2018-11-04T07:15:00.000Z</time>
      </trkpt>
      <trkpt lat="39.464766" lon="-0.455803">
        <ele>52</ele>
        <time>2018-11-04T07:15:01.000Z</time>
      </trkpt>
      <trkpt lat="39.464823" lon="-0.455793">
        <ele>52</ele>
        <time>2018-11-04T07:15:02.000Z</time>
      </trkpt>
      <trkpt lat="39.464881" lon="-0.455781">
        <ele>52</ele>
        <time>2018-11-04T07:15:03.000Z</time>
      </trkpt>
      <trkpt lat="39.464938" lon="-0.455771">
        <ele>52</ele>
        <time>2018-11-04T07:15:04.000Z</time>
      </trkpt>
      <trkpt lat="39.464993" lon="-0.45576">
        <ele>51.36</ele>
        <time>2018-11-04T07:15:05.000Z</time>
      </trkpt>
      <trkpt lat="39.465047" lon="-0.455749">
        <ele>51</ele>
        <time>2018-11-04T07:15:06.000Z</time>
      </trkpt>
      <trkpt lat="39.465102" lon="-0.455736">
        <ele>50.6542054956755</ele>
        <time>2018-11-04T07:15:07.000Z</time>
      </trkpt>
      <trkpt lat="39.465155" lon="-0.455725">
        <ele>50</ele>
        <time>2018-11-04T07:15:08.000Z</time>
      </trkpt>
      <trkpt lat="39.465207" lon="-0.455712">
        <ele>50</ele>
        <time>2018-11-04T07:15:09.000Z</time>
      </trkpt>
      <trkpt lat="39.465257" lon="-0.455704">
        <ele>50</ele>
        <time>2018-11-04T07:15:10.000Z</time>
      </trkpt>
      <trkpt lat="39.465298" lon="-0.455688">
        <ele>50</ele>
        <time>2018-11-04T07:15:11.000Z</time>
      </trkpt>
      <trkpt lat="39.465339" lon="-0.455679">
        <ele>50</ele>
        <time>2018-11-04T07:15:12.000Z</time>
      </trkpt>
      <trkpt lat="39.465385" lon="-0.455669">
        <ele>49.4465998906398</ele>
        <time>2018-11-04T07:15:13.000Z</time>
      </trkpt>
      <trkpt lat="39.465431" lon="-0.455662">
        <ele>49</ele>
        <time>2018-11-04T07:15:14.000Z</time>
      </trkpt>
      <trkpt lat="39.46548" lon="-0.455651">
        <ele>49</ele>
        <time>2018-11-04T07:15:15.000Z</time>
      </trkpt>
      <trkpt lat="39.465525" lon="-0.455645">
        <ele>49</ele>
        <time>2018-11-04T07:15:16.000Z</time>
      </trkpt>
      <trkpt lat="39.465571" lon="-0.455637">
        <ele>49</ele>
        <time>2018-11-04T07:15:17.000Z</time>
      </trkpt>
      <trkpt lat="39.465616" lon="-0.455624">
        <ele>48.554222441552</ele>
        <time>2018-11-04T07:15:18.000Z</time>
      </trkpt>
      <trkpt lat="39.465662" lon="-0.45561">
        <ele>48</ele>
        <time>2018-11-04T07:15:19.000Z</time>
      </trkpt>
      <trkpt lat="39.465699" lon="-0.455592">
        <ele>48</ele>
        <time>2018-11-04T07:15:20.000Z</time>
      </trkpt>
      <trkpt lat="39.465726" lon="-0.455556">
        <ele>48</ele>
        <time>2018-11-04T07:15:21.000Z</time>
      </trkpt>
      <trkpt lat="39.46575" lon="-0.455519">
        <ele>48</ele>
        <time>2018-11-04T07:15:22.000Z</time>
      </trkpt>
      <trkpt lat="39.46578" lon="-0.455491">
        <ele>48</ele>
        <time>2018-11-04T07:15:23.000Z</time>
      </trkpt>
      <trkpt lat="39.465818" lon="-0.455462">
        <ele>48</ele>
        <time>2018-11-04T07:15:24.000Z</time>
      </trkpt>
      <trkpt lat="39.465867" lon="-0.455436">
        <ele>48</ele>
        <time>2018-11-04T07:15:25.000Z</time>
      </trkpt>
      <trkpt lat="39.465917" lon="-0.455423">
        <ele>48</ele>
        <time>2018-11-04T07:15:26.000Z</time>
      </trkpt>
      <trkpt lat="39.465969" lon="-0.455413">
        <ele>48</ele>
        <time>2018-11-04T07:15:27.000Z</time>
      </trkpt>
      <trkpt lat="39.466031" lon="-0.455403">
        <ele>48</ele>
        <time>2018-11-04T07:15:28.000Z</time>
      </trkpt>
      <trkpt lat="39.466086" lon="-0.455394">
        <ele>48</ele>
        <time>2018-11-04T07:15:29.000Z</time>
      </trkpt>
      <trkpt lat="39.466142" lon="-0.455388">
        <ele>48</ele>
        <time>2018-11-04T07:15:30.000Z</time>
      </trkpt>
      <trkpt lat="39.466199" lon="-0.455377">
        <ele>48</ele>
        <time>2018-11-04T07:15:31.000Z</time>
      </trkpt>
      <trkpt lat="39.466259" lon="-0.455365">
        <ele>48</ele>
        <time>2018-11-04T07:15:32.000Z</time>
      </trkpt>
      <trkpt lat="39.466316" lon="-0.455354">
        <ele>48</ele>
        <time>2018-11-04T07:15:33.000Z</time>
      </trkpt>
      <trkpt lat="39.466374" lon="-0.45534">
        <ele>48</ele>
        <time>2018-11-04T07:15:34.000Z</time>
      </trkpt>
      <trkpt lat="39.466435" lon="-0.455332">
        <ele>48</ele>
        <time>2018-11-04T07:15:35.000Z</time>
      </trkpt>
      <trkpt lat="39.466499" lon="-0.455328">
        <ele>47.5763911111111</ele>
        <time>2018-11-04T07:15:36.000Z</time>
      </trkpt>
      <trkpt lat="39.466561" lon="-0.455323">
        <ele>47</ele>
        <time>2018-11-04T07:15:37.000Z</time>
      </trkpt>
      <trkpt lat="39.466622" lon="-0.455323">
        <ele>47</ele>
        <time>2018-11-04T07:15:38.000Z</time>
      </trkpt>
      <trkpt lat="39.466682" lon="-0.455316">
        <ele>47</ele>
        <time>2018-11-04T07:15:39.000Z</time>
      </trkpt>
      <trkpt lat="39.466745" lon="-0.455301">
        <ele>46.4193539507549</ele>
        <time>2018-11-04T07:15:40.000Z</time>
      </trkpt>
      <trkpt lat="39.466809" lon="-0.455292">
        <ele>46</ele>
        <time>2018-11-04T07:15:41.000Z</time>
      </trkpt>
      <trkpt lat="39.466868" lon="-0.455279">
        <ele>46</ele>
        <time>2018-11-04T07:15:42.000Z</time>
      </trkpt>
      <trkpt lat="39.466931" lon="-0.455268">
        <ele>46</ele>
        <time>2018-11-04T07:15:43.000Z</time>
      </trkpt>
      <trkpt lat="39.466995" lon="-0.455251">
        <ele>46</ele>
        <time>2018-11-04T07:15:44.000Z</time>
      </trkpt>
      <trkpt lat="39.467056" lon="-0.455227">
        <ele>46</ele>
        <time>2018-11-04T07:15:45.000Z</time>
      </trkpt>
      <trkpt lat="39.467117" lon="-0.455207">
        <ele>46</ele>
        <time>2018-11-04T07:15:46.000Z</time>
      </trkpt>
      <trkpt lat="39.467182" lon="-0.455192">
        <ele>46</ele>
        <time>2018-11-04T07:15:47.000Z</time>
      </trkpt>
      <trkpt lat="39.467248" lon="-0.455183">
        <ele>46</ele>
        <time>2018-11-04T07:15:48.000Z</time>
      </trkpt>
      <trkpt lat="39.467315" lon="-0.455175">
        <ele>46</ele>
        <time>2018-11-04T07:15:49.000Z</time>
      </trkpt>
      <trkpt lat="39.467381" lon="-0.45517">
        <ele>46</ele>
        <time>2018-11-04T07:15:50.000Z</time>
      </trkpt>
      <trkpt lat="39.467447" lon="-0.45516">
        <ele>46.5</ele>
        <time>2018-11-04T07:15:51.000Z</time>
      </trkpt>
      <trkpt lat="39.467512" lon="-0.455154">
        <ele>47</ele>
        <time>2018-11-04T07:15:52.000Z</time>
      </trkpt>
      <trkpt lat="39.467578" lon="-0.455149">
        <ele>47</ele>
        <time>2018-11-04T07:15:53.000Z</time>
      </trkpt>
      <trkpt lat="39.467642" lon="-0.455144">
        <ele>47</ele>
        <time>2018-11-04T07:15:54.000Z</time>
      </trkpt>
      <trkpt lat="39.467703" lon="-0.455137">
        <ele>47</ele>
        <time>2018-11-04T07:15:55.000Z</time>
      </trkpt>
      <trkpt lat="39.467763" lon="-0.455134">
        <ele>47</ele>
        <time>2018-11-04T07:15:56.000Z</time>
      </trkpt>
      <trkpt lat="39.467827" lon="-0.455136">
        <ele>47</ele>
        <time>2018-11-04T07:15:57.000Z</time>
      </trkpt>
      <trkpt lat="39.467891" lon="-0.455138">
        <ele>47</ele>
        <time>2018-11-04T07:15:58.000Z</time>
      </trkpt>
      <trkpt lat="39.467953" lon="-0.455144">
        <ele>47</ele>
        <time>2018-11-04T07:15:59.000Z</time>
      </trkpt>
      <trkpt lat="39.468015" lon="-0.455153">
        <ele>47</ele>
        <time>2018-11-04T07:16:00.000Z</time>
      </trkpt>
      <trkpt lat="39.46808" lon="-0.455161">
        <ele>47</ele>
        <time>2018-11-04T07:16:01.000Z</time>
      </trkpt>
      <trkpt lat="39.468144" lon="-0.455168">
        <ele>47</ele>
        <time>2018-11-04T07:16:02.000Z</time>
      </trkpt>
      <trkpt lat="39.468204" lon="-0.45518">
        <ele>47</ele>
        <time>2018-11-04T07:16:03.000Z</time>
      </trkpt>
      <trkpt lat="39.468264" lon="-0.455187">
        <ele>47</ele>
        <time>2018-11-04T07:16:04.000Z</time>
      </trkpt>
      <trkpt lat="39.468319" lon="-0.455196">
        <ele>46.4700894908431</ele>
        <time>2018-11-04T07:16:05.000Z</time>
      </trkpt>
      <trkpt lat="39.468368" lon="-0.45521">
        <ele>46</ele>
        <time>2018-11-04T07:16:06.000Z</time>
      </trkpt>
      <trkpt lat="39.468423" lon="-0.455229">
        <ele>46</ele>
        <time>2018-11-04T07:16:07.000Z</time>
      </trkpt>
      <trkpt lat="39.468484" lon="-0.455256">
        <ele>46</ele>
        <time>2018-11-04T07:16:08.000Z</time>
      </trkpt>
      <trkpt lat="39.468546" lon="-0.455281">
        <ele>46</ele>
        <time>2018-11-04T07:16:09.000Z</time>
      </trkpt>
      <trkpt lat="39.468609" lon="-0.455307">
        <ele>46</ele>
        <time>2018-11-04T07:16:10.000Z</time>
      </trkpt>
      <trkpt lat="39.468669" lon="-0.455332">
        <ele>45.5</ele>
        <time>2018-11-04T07:16:11.000Z</time>
      </trkpt>
      <trkpt lat="39.468727" lon="-0.455361">
        <ele>45</ele>
        <time>2018-11-04T07:16:12.000Z</time>
      </trkpt>
      <trkpt lat="39.468784" lon="-0.455391">
        <ele>45</ele>
        <time>2018-11-04T07:16:13.000Z</time>
      </trkpt>
      <trkpt lat="39.468839" lon="-0.455421">
        <ele>45</ele>
        <time>2018-11-04T07:16:14.000Z</time>
      </trkpt>
      <trkpt lat="39.468895" lon="-0.45545">
        <ele>44.422218113551</ele>
        <time>2018-11-04T07:16:15.000Z</time>
      </trkpt>
      <trkpt lat="39.468953" lon="-0.455478">
        <ele>44</ele>
        <time>2018-11-04T07:16:16.000Z</time>
      </trkpt>
      <trkpt lat="39.469002" lon="-0.455507">
        <ele>44</ele>
        <time>2018-11-04T07:16:17.000Z</time>
      </trkpt>
      <trkpt lat="39.469051" lon="-0.455538">
        <ele>44</ele>
        <time>2018-11-04T07:16:18.000Z</time>
      </trkpt>
      <trkpt lat="39.469096" lon="-0.455574">
        <ele>44.51136</ele>
        <time>2018-11-04T07:16:19.000Z</time>
      </trkpt>
      <trkpt lat="39.469129" lon="-0.455621">
        <ele>45</ele>
        <time>2018-11-04T07:16:20.000Z</time>
      </trkpt>
      <trkpt lat="39.469165" lon="-0.455673">
        <ele>45</ele>
        <time>2018-11-04T07:16:21.000Z</time>
      </trkpt>
      <trkpt lat="39.469202" lon="-0.455725">
        <ele>45</ele>
        <time>2018-11-04T07:16:22.000Z</time>
      </trkpt>
      <trkpt lat="39.469238" lon="-0.455776">
        <ele>45</ele>
        <time>2018-11-04T07:16:23.000Z</time>
      </trkpt>
      <trkpt lat="39.469276" lon="-0.455824">
        <ele>45</ele>
        <time>2018-11-04T07:16:24.000Z</time>
      </trkpt>
      <trkpt lat="39.469314" lon="-0.455872">
        <ele>45</ele>
        <time>2018-11-04T07:16:25.000Z</time>
      </trkpt>
      <trkpt lat="39.469349" lon="-0.455924">
        <ele>45</ele>
        <time>2018-11-04T07:16:26.000Z</time>
      </trkpt>
      <trkpt lat="39.469386" lon="-0.455973">
        <ele>45</ele>
        <time>2018-11-04T07:16:27.000Z</time>
      </trkpt>
      <trkpt lat="39.46946" lon="-0.456085">
        <ele>46</ele>
        <time>2018-11-04T07:16:29.000Z</time>
      </trkpt>
      <trkpt lat="39.46953" lon="-0.456203">
        <ele>46</ele>
        <time>2018-11-04T07:16:31.000Z</time>
      </trkpt>
      <trkpt lat="39.469593" lon="-0.456326">
        <ele>46</ele>
        <time>2018-11-04T07:16:33.000Z</time>
      </trkpt>
      <trkpt lat="39.46965" lon="-0.456441">
        <ele>46.35937</ele>
        <time>2018-11-04T07:16:35.000Z</time>
      </trkpt>
      <trkpt lat="39.46968" lon="-0.456487">
        <ele>47</ele>
        <time>2018-11-04T07:16:36.000Z</time>
      </trkpt>
      <trkpt lat="39.469687" lon="-0.456533">
        <ele>46.4018709476757</ele>
        <time>2018-11-04T07:16:37.000Z</time>
      </trkpt>
      <trkpt lat="39.469671" lon="-0.456577">
        <ele>46.5643550553824</ele>
        <time>2018-11-04T07:16:38.000Z</time>
      </trkpt>
      <trkpt lat="39.469644" lon="-0.456616">
        <ele>47</ele>
        <time>2018-11-04T07:16:39.000Z</time>
      </trkpt>
      <trkpt lat="39.469609" lon="-0.456657">
        <ele>47</ele>
        <time>2018-11-04T07:16:40.000Z</time>
      </trkpt>
      <trkpt lat="39.469572" lon="-0.456694">
        <ele>47</ele>
        <time>2018-11-04T07:16:41.000Z</time>
      </trkpt>
      <trkpt lat="39.469536" lon="-0.456725">
        <ele>47</ele>
        <time>2018-11-04T07:16:42.000Z</time>
      </trkpt>
      <trkpt lat="39.4695" lon="-0.456764">
        <ele>47</ele>
        <time>2018-11-04T07:16:43.000Z</time>
      </trkpt>
      <trkpt lat="39.469462" lon="-0.456803">
        <ele>47</ele>
        <time>2018-11-04T07:16:44.000Z</time>
      </trkpt>
      <trkpt lat="39.469425" lon="-0.456844">
        <ele>47.4700032</ele>
        <time>2018-11-04T07:16:45.000Z</time>
      </trkpt>
      <trkpt lat="39.46939" lon="-0.456882">
        <ele>48</ele>
        <time>2018-11-04T07:16:46.000Z</time>
      </trkpt>
      <trkpt lat="39.469356" lon="-0.456918">
        <ele>48</ele>
        <time>2018-11-04T07:16:47.000Z</time>
      </trkpt>
      <trkpt lat="39.469328" lon="-0.456957">
        <ele>48.4691381435479</ele>
        <time>2018-11-04T07:16:48.000Z</time>
      </trkpt>
      <trkpt lat="39.469307" lon="-0.45701">
        <ele>48.387098106144</ele>
        <time>2018-11-04T07:16:49.000Z</time>
      </trkpt>
      <trkpt lat="39.469294" lon="-0.457066">
        <ele>48.5981290523243</ele>
        <time>2018-11-04T07:16:50.000Z</time>
      </trkpt>
      <trkpt lat="39.469297" lon="-0.457126">
        <ele>49</ele>
        <time>2018-11-04T07:16:51.000Z</time>
      </trkpt>
      <trkpt lat="39.469316" lon="-0.457184">
        <ele>49</ele>
        <time>2018-11-04T07:16:52.000Z</time>
      </trkpt>
      <trkpt lat="39.469341" lon="-0.457241">
        <ele>49.5643550553824</ele>
        <time>2018-11-04T07:16:53.000Z</time>
      </trkpt>
      <trkpt lat="39.469363" lon="-0.4573">
        <ele>50</ele>
        <time>2018-11-04T07:16:54.000Z</time>
      </trkpt>
      <trkpt lat="39.469384" lon="-0.457361">
        <ele>50</ele>
        <time>2018-11-04T07:16:55.000Z</time>
      </trkpt>
      <trkpt lat="39.469402" lon="-0.457424">
        <ele>50</ele>
        <time>2018-11-04T07:16:56.000Z</time>
      </trkpt>
      <trkpt lat="39.469417" lon="-0.457487">
        <ele>50.3536573943992</ele>
        <time>2018-11-04T07:16:57.000Z</time>
      </trkpt>
      <trkpt lat="39.469434" lon="-0.457551">
        <ele>51</ele>
        <time>2018-11-04T07:16:58.000Z</time>
      </trkpt>
      <trkpt lat="39.469455" lon="-0.457612">
        <ele>51</ele>
        <time>2018-11-04T07:16:59.000Z</time>
      </trkpt>
      <trkpt lat="39.469482" lon="-0.457666">
        <ele>51</ele>
        <time>2018-11-04T07:17:00.000Z</time>
      </trkpt>
      <trkpt lat="39.46952" lon="-0.457705">
        <ele>51</ele>
        <time>2018-11-04T07:17:01.000Z</time>
      </trkpt>
      <trkpt lat="39.469569" lon="-0.457733">
        <ele>51</ele>
        <time>2018-11-04T07:17:02.000Z</time>
      </trkpt>
      <trkpt lat="39.469625" lon="-0.457749">
        <ele>51</ele>
        <time>2018-11-04T07:17:03.000Z</time>
      </trkpt>
      <trkpt lat="39.469684" lon="-0.457749">
        <ele>51</ele>
        <time>2018-11-04T07:17:04.000Z</time>
      </trkpt>
      <trkpt lat="39.46974" lon="-0.457735">
        <ele>51</ele>
        <time>2018-11-04T07:17:05.000Z</time>
      </trkpt>
      <trkpt lat="39.469796" lon="-0.457715">
        <ele>50.6463426056008</ele>
        <time>2018-11-04T07:17:06.000Z</time>
      </trkpt>
      <trkpt lat="39.46985" lon="-0.45769">
        <ele>50</ele>
        <time>2018-11-04T07:17:07.000Z</time>
      </trkpt>
      <trkpt lat="39.469905" lon="-0.457664">
        <ele>49.5399994880066</ele>
        <time>2018-11-04T07:17:08.000Z</time>
      </trkpt>
      <trkpt lat="39.46996" lon="-0.45763">
        <ele>49</ele>
        <time>2018-11-04T07:17:09.000Z</time>
      </trkpt>
      <trkpt lat="39.470017" lon="-0.457594">
        <ele>49</ele>
        <time>2018-11-04T07:17:10.000Z</time>
      </trkpt>
      <trkpt lat="39.470074" lon="-0.457562">
        <ele>48.4621863201712</ele>
        <time>2018-11-04T07:17:11.000Z</time>
      </trkpt>
      <trkpt lat="39.470132" lon="-0.457532">
        <ele>48</ele>
        <time>2018-11-04T07:17:12.000Z</time>
      </trkpt>
      <trkpt lat="39.47019" lon="-0.457497">
        <ele>48</ele>
        <time>2018-11-04T07:17:13.000Z</time>
      </trkpt>
      <trkpt lat="39.470247" lon="-0.457461">
        <ele>48</ele>
        <time>2018-11-04T07:17:14.000Z</time>
      </trkpt>
      <trkpt lat="39.470304" lon="-0.457425">
        <ele>47.6792493841472</ele>
        <time>2018-11-04T07:17:15.000Z</time>
      </trkpt>
      <trkpt lat="39.47036" lon="-0.457389">
        <ele>47</ele>
        <time>2018-11-04T07:17:16.000Z</time>
      </trkpt>
      <trkpt lat="39.470414" lon="-0.45735">
        <ele>47</ele>
        <time>2018-11-04T07:17:17.000Z</time>
      </trkpt>
      <trkpt lat="39.470469" lon="-0.457309">
        <ele>47</ele>
        <time>2018-11-04T07:17:18.000Z</time>
      </trkpt>
      <trkpt lat="39.470524" lon="-0.457267">
        <ele>46.5646267980913</ele>
        <time>2018-11-04T07:17:19.000Z</time>
      </trkpt>
      <trkpt lat="39.470579" lon="-0.457222">
        <ele>46</ele>
        <time>2018-11-04T07:17:20.000Z</time>
      </trkpt>
      <trkpt lat="39.470634" lon="-0.457179">
        <ele>45.5763911111111</ele>
        <time>2018-11-04T07:17:21.000Z</time>
      </trkpt>
      <trkpt lat="39.470689" lon="-0.457134">
        <ele>45</ele>
        <time>2018-11-04T07:17:22.000Z</time>
      </trkpt>
      <trkpt lat="39.470743" lon="-0.457089">
        <ele>45</ele>
        <time>2018-11-04T07:17:23.000Z</time>
      </trkpt>
      <trkpt lat="39.470796" lon="-0.457044">
        <ele>45</ele>
        <time>2018-11-04T07:17:24.000Z</time>
      </trkpt>
      <trkpt lat="39.47085" lon="-0.457">
        <ele>44.4210512133012</ele>
        <time>2018-11-04T07:17:25.000Z</time>
      </trkpt>
      <trkpt lat="39.470902" lon="-0.456953">
        <ele>44</ele>
        <time>2018-11-04T07:17:26.000Z</time>
      </trkpt>
      <trkpt lat="39.470955" lon="-0.456907">
        <ele>44</ele>
        <time>2018-11-04T07:17:27.000Z</time>
      </trkpt>
      <trkpt lat="39.471009" lon="-0.456862">
        <ele>44</ele>
        <time>2018-11-04T07:17:28.000Z</time>
      </trkpt>
      <trkpt lat="39.471063" lon="-0.456816">
        <ele>44</ele>
        <time>2018-11-04T07:17:29.000Z</time>
      </trkpt>
      <trkpt lat="39.471117" lon="-0.456769">
        <ele>44</ele>
        <time>2018-11-04T07:17:30.000Z</time>
      </trkpt>
      <trkpt lat="39.47117" lon="-0.456724">
        <ele>44</ele>
        <time>2018-11-04T07:17:31.000Z</time>
      </trkpt>
      <trkpt lat="39.471222" lon="-0.456681">
        <ele>43.36</ele>
        <time>2018-11-04T07:17:32.000Z</time>
      </trkpt>
      <trkpt lat="39.471275" lon="-0.456633">
        <ele>43</ele>
        <time>2018-11-04T07:17:33.000Z</time>
      </trkpt>
      <trkpt lat="39.471329" lon="-0.456589">
        <ele>43.64</ele>
        <time>2018-11-04T07:17:34.000Z</time>
      </trkpt>
      <trkpt lat="39.471382" lon="-0.456545">
        <ele>43.36</ele>
        <time>2018-11-04T07:17:35.000Z</time>
      </trkpt>
      <trkpt lat="39.471435" lon="-0.456499">
        <ele>43</ele>
        <time>2018-11-04T07:17:36.000Z</time>
      </trkpt>
      <trkpt lat="39.471488" lon="-0.456451">
        <ele>43</ele>
        <time>2018-11-04T07:17:37.000Z</time>
      </trkpt>
      <trkpt lat="39.471542" lon="-0.456404">
        <ele>43</ele>
        <time>2018-11-04T07:17:38.000Z</time>
      </trkpt>
      <trkpt lat="39.471596" lon="-0.456357">
        <ele>43</ele>
        <time>2018-11-04T07:17:39.000Z</time>
      </trkpt>
      <trkpt lat="39.471649" lon="-0.456313">
        <ele>43</ele>
        <time>2018-11-04T07:17:40.000Z</time>
      </trkpt>
      <trkpt lat="39.471704" lon="-0.456269">
        <ele>43</ele>
        <time>2018-11-04T07:17:41.000Z</time>
      </trkpt>
      <trkpt lat="39.471758" lon="-0.456223">
        <ele>43</ele>
        <time>2018-11-04T07:17:42.000Z</time>
      </trkpt>
      <trkpt lat="39.471813" lon="-0.456177">
        <ele>43</ele>
        <time>2018-11-04T07:17:43.000Z</time>
      </trkpt>
      <trkpt lat="39.471868" lon="-0.456131">
        <ele>43</ele>
        <time>2018-11-04T07:17:44.000Z</time>
      </trkpt>
      <trkpt lat="39.471922" lon="-0.456084">
        <ele>42.5038747382939</ele>
        <time>2018-11-04T07:17:45.000Z</time>
      </trkpt>
      <trkpt lat="39.471975" lon="-0.456037">
        <ele>42</ele>
        <time>2018-11-04T07:17:46.000Z</time>
      </trkpt>
      <trkpt lat="39.472029" lon="-0.455991">
        <ele>42</ele>
        <time>2018-11-04T07:17:47.000Z</time>
      </trkpt>
      <trkpt lat="39.472083" lon="-0.455946">
        <ele>42</ele>
        <time>2018-11-04T07:17:48.000Z</time>
      </trkpt>
      <trkpt lat="39.472139" lon="-0.4559">
        <ele>42</ele>
        <time>2018-11-04T07:17:49.000Z</time>
      </trkpt>
      <trkpt lat="39.472194" lon="-0.455855">
        <ele>42</ele>
        <time>2018-11-04T07:17:50.000Z</time>
      </trkpt>
      <trkpt lat="39.472247" lon="-0.455811">
        <ele>42</ele>
        <time>2018-11-04T07:17:51.000Z</time>
      </trkpt>
      <trkpt lat="39.472302" lon="-0.455765">
        <ele>42</ele>
        <time>2018-11-04T07:17:52.000Z</time>
      </trkpt>
      <trkpt lat="39.472358" lon="-0.455722">
        <ele>42</ele>
        <time>2018-11-04T07:17:53.000Z</time>
      </trkpt>
      <trkpt lat="39.472413" lon="-0.455676">
        <ele>42</ele>
        <time>2018-11-04T07:17:54.000Z</time>
      </trkpt>
      <trkpt lat="39.472469" lon="-0.455631">
        <ele>42.64</ele>
        <time>2018-11-04T07:17:55.000Z</time>
      </trkpt>
      <trkpt lat="39.472524" lon="-0.455586">
        <ele>42.36</ele>
        <time>2018-11-04T07:17:56.000Z</time>
      </trkpt>
      <trkpt lat="39.47258" lon="-0.455538">
        <ele>42</ele>
        <time>2018-11-04T07:17:57.000Z</time>
      </trkpt>
      <trkpt lat="39.472634" lon="-0.45549">
        <ele>42</ele>
        <time>2018-11-04T07:17:58.000Z</time>
      </trkpt>
      <trkpt lat="39.472689" lon="-0.455444">
        <ele>42.64</ele>
        <time>2018-11-04T07:17:59.000Z</time>
      </trkpt>
      <trkpt lat="39.472745" lon="-0.4554">
        <ele>43</ele>
        <time>2018-11-04T07:18:00.000Z</time>
      </trkpt>
      <trkpt lat="39.4728" lon="-0.455353">
        <ele>42.5070399682706</ele>
        <time>2018-11-04T07:18:01.000Z</time>
      </trkpt>
      <trkpt lat="39.472857" lon="-0.455305">
        <ele>42</ele>
        <time>2018-11-04T07:18:02.000Z</time>
      </trkpt>
      <trkpt lat="39.472913" lon="-0.455258">
        <ele>42</ele>
        <time>2018-11-04T07:18:03.000Z</time>
      </trkpt>
      <trkpt lat="39.472968" lon="-0.45521">
        <ele>42</ele>
        <time>2018-11-04T07:18:04.000Z</time>
      </trkpt>
      <trkpt lat="39.473024" lon="-0.455163">
        <ele>42</ele>
        <time>2018-11-04T07:18:05.000Z</time>
      </trkpt>
      <trkpt lat="39.473081" lon="-0.455116">
        <ele>42</ele>
        <time>2018-11-04T07:18:06.000Z</time>
      </trkpt>
      <trkpt lat="39.473135" lon="-0.455072">
        <ele>42.64</ele>
        <time>2018-11-04T07:18:07.000Z</time>
      </trkpt>
      <trkpt lat="39.47319" lon="-0.455029">
        <ele>43</ele>
        <time>2018-11-04T07:18:08.000Z</time>
      </trkpt>
      <trkpt lat="39.473244" lon="-0.454984">
        <ele>43</ele>
        <time>2018-11-04T07:18:09.000Z</time>
      </trkpt>
      <trkpt lat="39.473297" lon="-0.454939">
        <ele>43</ele>
        <time>2018-11-04T07:18:10.000Z</time>
      </trkpt>
      <trkpt lat="39.473349" lon="-0.454898">
        <ele>43</ele>
        <time>2018-11-04T07:18:11.000Z</time>
      </trkpt>
      <trkpt lat="39.473402" lon="-0.454855">
        <ele>42.36</ele>
        <time>2018-11-04T07:18:12.000Z</time>
      </trkpt>
      <trkpt lat="39.473453" lon="-0.454814">
        <ele>42</ele>
        <time>2018-11-04T07:18:13.000Z</time>
      </trkpt>
      <trkpt lat="39.473507" lon="-0.454771">
        <ele>42</ele>
        <time>2018-11-04T07:18:14.000Z</time>
      </trkpt>
      <trkpt lat="39.473564" lon="-0.454725">
        <ele>42</ele>
        <time>2018-11-04T07:18:15.000Z</time>
      </trkpt>
      <trkpt lat="39.473622" lon="-0.454679">
        <ele>41.6851873799986</ele>
        <time>2018-11-04T07:18:16.000Z</time>
      </trkpt>
      <trkpt lat="39.473678" lon="-0.454636">
        <ele>41</ele>
        <time>2018-11-04T07:18:17.000Z</time>
      </trkpt>
      <trkpt lat="39.473732" lon="-0.454596">
        <ele>41</ele>
        <time>2018-11-04T07:18:18.000Z</time>
      </trkpt>
      <trkpt lat="39.473789" lon="-0.454555">
        <ele>40.36</ele>
        <time>2018-11-04T07:18:19.000Z</time>
      </trkpt>
      <trkpt lat="39.473847" lon="-0.454515">
        <ele>40</ele>
        <time>2018-11-04T07:18:20.000Z</time>
      </trkpt>
      <trkpt lat="39.473907" lon="-0.454477">
        <ele>40</ele>
        <time>2018-11-04T07:18:21.000Z</time>
      </trkpt>
      <trkpt lat="39.473967" lon="-0.454439">
        <ele>40</ele>
        <time>2018-11-04T07:18:22.000Z</time>
      </trkpt>
      <trkpt lat="39.474027" lon="-0.4544">
        <ele>40</ele>
        <time>2018-11-04T07:18:23.000Z</time>
      </trkpt>
      <trkpt lat="39.474088" lon="-0.454363">
        <ele>40</ele>
        <time>2018-11-04T07:18:24.000Z</time>
      </trkpt>
      <trkpt lat="39.474149" lon="-0.45433">
        <ele>40</ele>
        <time>2018-11-04T07:18:25.000Z</time>
      </trkpt>
      <trkpt lat="39.474211" lon="-0.454298">
        <ele>40</ele>
        <time>2018-11-04T07:18:26.000Z</time>
      </trkpt>
      <trkpt lat="39.474274" lon="-0.454264">
        <ele>40</ele>
        <time>2018-11-04T07:18:27.000Z</time>
      </trkpt>
      <trkpt lat="39.474335" lon="-0.454233">
        <ele>40</ele>
        <time>2018-11-04T07:18:28.000Z</time>
      </trkpt>
      <trkpt lat="39.474395" lon="-0.4542">
        <ele>40</ele>
        <time>2018-11-04T07:18:29.000Z</time>
      </trkpt>
      <trkpt lat="39.474455" lon="-0.454171">
        <ele>40.4777779358013</ele>
        <time>2018-11-04T07:18:30.000Z</time>
      </trkpt>
      <trkpt lat="39.474516" lon="-0.454141">
        <ele>41</ele>
        <time>2018-11-04T07:18:31.000Z</time>
      </trkpt>
      <trkpt lat="39.474577" lon="-0.454111">
        <ele>41</ele>
        <time>2018-11-04T07:18:32.000Z</time>
      </trkpt>
      <trkpt lat="39.474638" lon="-0.454082">
        <ele>41.5999971555353</ele>
        <time>2018-11-04T07:18:33.000Z</time>
      </trkpt>
      <trkpt lat="39.474701" lon="-0.454053">
        <ele>42</ele>
        <time>2018-11-04T07:18:34.000Z</time>
      </trkpt>
      <trkpt lat="39.474762" lon="-0.454024">
        <ele>42</ele>
        <time>2018-11-04T07:18:35.000Z</time>
      </trkpt>
      <trkpt lat="39.474823" lon="-0.453996">
        <ele>42</ele>
        <time>2018-11-04T07:18:36.000Z</time>
      </trkpt>
      <trkpt lat="39.474884" lon="-0.453968">
        <ele>42.5</ele>
        <time>2018-11-04T07:18:37.000Z</time>
      </trkpt>
      <trkpt lat="39.474943" lon="-0.453942">
        <ele>43</ele>
        <time>2018-11-04T07:18:38.000Z</time>
      </trkpt>
      <trkpt lat="39.475002" lon="-0.453916">
        <ele>43.423076291908</ele>
        <time>2018-11-04T07:18:39.000Z</time>
      </trkpt>
      <trkpt lat="39.475061" lon="-0.453885">
        <ele>44</ele>
        <time>2018-11-04T07:18:40.000Z</time>
      </trkpt>
      <trkpt lat="39.475114" lon="-0.453841">
        <ele>44</ele>
        <time>2018-11-04T07:18:41.000Z</time>
      </trkpt>
      <trkpt lat="39.475162" lon="-0.453788">
        <ele>44</ele>
        <time>2018-11-04T07:18:42.000Z</time>
      </trkpt>
      <trkpt lat="39.475215" lon="-0.453739">
        <ele>44</ele>
        <time>2018-11-04T07:18:43.000Z</time>
      </trkpt>
      <trkpt lat="39.475278" lon="-0.453701">
        <ele>44</ele>
        <time>2018-11-04T07:18:44.000Z</time>
      </trkpt>
      <trkpt lat="39.475345" lon="-0.453679">
        <ele>44.5054928051988</ele>
        <time>2018-11-04T07:18:45.000Z</time>
      </trkpt>
      <trkpt lat="39.475413" lon="-0.453664">
        <ele>45</ele>
        <time>2018-11-04T07:18:46.000Z</time>
      </trkpt>
      <trkpt lat="39.475476" lon="-0.453644">
        <ele>45</ele>
        <time>2018-11-04T07:18:47.000Z</time>
      </trkpt>
      <trkpt lat="39.475539" lon="-0.45362">
        <ele>45</ele>
        <time>2018-11-04T07:18:48.000Z</time>
      </trkpt>
      <trkpt lat="39.4756" lon="-0.453591">
        <ele>45</ele>
        <time>2018-11-04T07:18:49.000Z</time>
      </trkpt>
      <trkpt lat="39.475658" lon="-0.45356">
        <ele>45</ele>
        <time>2018-11-04T07:18:50.000Z</time>
      </trkpt>
      <trkpt lat="39.475717" lon="-0.453528">
        <ele>45</ele>
        <time>2018-11-04T07:18:51.000Z</time>
      </trkpt>
      <trkpt lat="39.475776" lon="-0.453495">
        <ele>45</ele>
        <time>2018-11-04T07:18:52.000Z</time>
      </trkpt>
      <trkpt lat="39.475835" lon="-0.453463">
        <ele>45</ele>
        <time>2018-11-04T07:18:53.000Z</time>
      </trkpt>
      <trkpt lat="39.475895" lon="-0.453431">
        <ele>45</ele>
        <time>2018-11-04T07:18:54.000Z</time>
      </trkpt>
      <trkpt lat="39.475956" lon="-0.4534">
        <ele>45.399996586623</ele>
        <time>2018-11-04T07:18:55.000Z</time>
      </trkpt>
      <trkpt lat="39.476017" lon="-0.453368">
        <ele>46</ele>
        <time>2018-11-04T07:18:56.000Z</time>
      </trkpt>
      <trkpt lat="39.476075" lon="-0.453337">
        <ele>46.56</ele>
        <time>2018-11-04T07:18:57.000Z</time>
      </trkpt>
      <trkpt lat="39.476133" lon="-0.453305">
        <ele>47</ele>
        <time>2018-11-04T07:18:58.000Z</time>
      </trkpt>
      <trkpt lat="39.476193" lon="-0.453274">
        <ele>47.56</ele>
        <time>2018-11-04T07:18:59.000Z</time>
      </trkpt>
      <trkpt lat="39.476255" lon="-0.453246">
        <ele>48</ele>
        <time>2018-11-04T07:19:00.000Z</time>
      </trkpt>
      <trkpt lat="39.476319" lon="-0.453218">
        <ele>48</ele>
        <time>2018-11-04T07:19:01.000Z</time>
      </trkpt>
      <trkpt lat="39.47638" lon="-0.453188">
        <ele>48</ele>
        <time>2018-11-04T07:19:02.000Z</time>
      </trkpt>
      <trkpt lat="39.476439" lon="-0.453156">
        <ele>48.5</ele>
        <time>2018-11-04T07:19:03.000Z</time>
      </trkpt>
      <trkpt lat="39.476498" lon="-0.453126">
        <ele>49</ele>
        <time>2018-11-04T07:19:04.000Z</time>
      </trkpt>
      <trkpt lat="39.476557" lon="-0.453094">
        <ele>49</ele>
        <time>2018-11-04T07:19:05.000Z</time>
      </trkpt>
      <trkpt lat="39.476616" lon="-0.453063">
        <ele>49</ele>
        <time>2018-11-04T07:19:06.000Z</time>
      </trkpt>
      <trkpt lat="39.476674" lon="-0.453032">
        <ele>49</ele>
        <time>2018-11-04T07:19:07.000Z</time>
      </trkpt>
      <trkpt lat="39.476729" lon="-0.452998">
        <ele>49.5338981212305</ele>
        <time>2018-11-04T07:19:08.000Z</time>
      </trkpt>
      <trkpt lat="39.476779" lon="-0.45296">
        <ele>50</ele>
        <time>2018-11-04T07:19:09.000Z</time>
      </trkpt>
      <trkpt lat="39.476832" lon="-0.452917">
        <ele>50</ele>
        <time>2018-11-04T07:19:10.000Z</time>
      </trkpt>
      <trkpt lat="39.476883" lon="-0.452873">
        <ele>50</ele>
        <time>2018-11-04T07:19:11.000Z</time>
      </trkpt>
      <trkpt lat="39.47693" lon="-0.452823">
        <ele>50</ele>
        <time>2018-11-04T07:19:12.000Z</time>
      </trkpt>
      <trkpt lat="39.476974" lon="-0.452761">
        <ele>50</ele>
        <time>2018-11-04T07:19:13.000Z</time>
      </trkpt>
      <trkpt lat="39.477012" lon="-0.452694">
        <ele>50.3035657142857</ele>
        <time>2018-11-04T07:19:14.000Z</time>
      </trkpt>
      <trkpt lat="39.477051" lon="-0.452624">
        <ele>51</ele>
        <time>2018-11-04T07:19:15.000Z</time>
      </trkpt>
      <trkpt lat="39.477087" lon="-0.452548">
        <ele>51</ele>
        <time>2018-11-04T07:19:16.000Z</time>
      </trkpt>
      <trkpt lat="39.47712" lon="-0.452475">
        <ele>51.4615342537689</ele>
        <time>2018-11-04T07:19:17.000Z</time>
      </trkpt>
      <trkpt lat="39.47715" lon="-0.452402">
        <ele>52</ele>
        <time>2018-11-04T07:19:18.000Z</time>
      </trkpt>
      <trkpt lat="39.477182" lon="-0.452327">
        <ele>52</ele>
        <time>2018-11-04T07:19:19.000Z</time>
      </trkpt>
      <trkpt lat="39.477212" lon="-0.452252">
        <ele>52.5378136798288</ele>
        <time>2018-11-04T07:19:20.000Z</time>
      </trkpt>
      <trkpt lat="39.477243" lon="-0.452175">
        <ele>53</ele>
        <time>2018-11-04T07:19:21.000Z</time>
      </trkpt>
      <trkpt lat="39.477271" lon="-0.452096">
        <ele>53.6000028444242</ele>
        <time>2018-11-04T07:19:22.000Z</time>
      </trkpt>
      <trkpt lat="39.477295" lon="-0.452012">
        <ele>54</ele>
        <time>2018-11-04T07:19:23.000Z</time>
      </trkpt>
      <trkpt lat="39.477317" lon="-0.451926">
        <ele>54</ele>
        <time>2018-11-04T07:19:24.000Z</time>
      </trkpt>
      <trkpt lat="39.47734" lon="-0.451844">
        <ele>54.4537797951984</ele>
        <time>2018-11-04T07:19:25.000Z</time>
      </trkpt>
      <trkpt lat="39.477364" lon="-0.451764">
        <ele>55</ele>
        <time>2018-11-04T07:19:26.000Z</time>
      </trkpt>
      <trkpt lat="39.477385" lon="-0.451678">
        <ele>55.5999971555353</ele>
        <time>2018-11-04T07:19:27.000Z</time>
      </trkpt>
      <trkpt lat="39.477408" lon="-0.451592">
        <ele>56</ele>
        <time>2018-11-04T07:19:28.000Z</time>
      </trkpt>
      <trkpt lat="39.477431" lon="-0.451511">
        <ele>56</ele>
        <time>2018-11-04T07:19:29.000Z</time>
      </trkpt>
      <trkpt lat="39.477448" lon="-0.451434">
        <ele>56.5046773691892</ele>
        <time>2018-11-04T07:19:30.000Z</time>
      </trkpt>
      <trkpt lat="39.477451" lon="-0.451376">
        <ele>57</ele>
        <time>2018-11-04T07:19:31.000Z</time>
      </trkpt>
      <trkpt lat="39.477443" lon="-0.451308">
        <ele>57.3587801922927</ele>
        <time>2018-11-04T07:19:32.000Z</time>
      </trkpt>
      <trkpt lat="39.477434" lon="-0.451223">
        <ele>58</ele>
        <time>2018-11-04T07:19:33.000Z</time>
      </trkpt>
      <trkpt lat="39.477409" lon="-0.451144">
        <ele>58</ele>
        <time>2018-11-04T07:19:34.000Z</time>
      </trkpt>
      <trkpt lat="39.477373" lon="-0.451069">
        <ele>58</ele>
        <time>2018-11-04T07:19:35.000Z</time>
      </trkpt>
      <trkpt lat="39.477325" lon="-0.451013">
        <ele>58</ele>
        <time>2018-11-04T07:19:36.000Z</time>
      </trkpt>
      <trkpt lat="39.477271" lon="-0.450964">
        <ele>58</ele>
        <time>2018-11-04T07:19:37.000Z</time>
      </trkpt>
      <trkpt lat="39.477218" lon="-0.45091">
        <ele>58</ele>
        <time>2018-11-04T07:19:38.000Z</time>
      </trkpt>
      <trkpt lat="39.477167" lon="-0.450849">
        <ele>58.5999971555353</ele>
        <time>2018-11-04T07:19:39.000Z</time>
      </trkpt>
      <trkpt lat="39.477126" lon="-0.450781">
        <ele>59</ele>
        <time>2018-11-04T07:19:40.000Z</time>
      </trkpt>
      <trkpt lat="39.47709" lon="-0.450703">
        <ele>58.7142857142857</ele>
        <time>2018-11-04T07:19:41.000Z</time>
      </trkpt>
      <trkpt lat="39.477059" lon="-0.450622">
        <ele>57.4827586206897</ele>
        <time>2018-11-04T07:19:42.000Z</time>
      </trkpt>
      <trkpt lat="39.477043" lon="-0.450534">
        <ele>57</ele>
        <time>2018-11-04T07:19:43.000Z</time>
      </trkpt>
      <trkpt lat="39.477042" lon="-0.450442">
        <ele>57</ele>
        <time>2018-11-04T07:19:44.000Z</time>
      </trkpt>
      <trkpt lat="39.477053" lon="-0.450353">
        <ele>57</ele>
        <time>2018-11-04T07:19:45.000Z</time>
      </trkpt>
      <trkpt lat="39.477078" lon="-0.450268">
        <ele>57</ele>
        <time>2018-11-04T07:19:46.000Z</time>
      </trkpt>
      <trkpt lat="39.477113" lon="-0.45019">
        <ele>57</ele>
        <time>2018-11-04T07:19:47.000Z</time>
      </trkpt>
      <trkpt lat="39.477157" lon="-0.450121">
        <ele>56.5731701606231</ele>
        <time>2018-11-04T07:19:48.000Z</time>
      </trkpt>
      <trkpt lat="39.477211" lon="-0.450066">
        <ele>56</ele>
        <time>2018-11-04T07:19:49.000Z</time>
      </trkpt>
      <trkpt lat="39.477276" lon="-0.450028">
        <ele>55.4666666666667</ele>
        <time>2018-11-04T07:19:50.000Z</time>
      </trkpt>
      <trkpt lat="39.477348" lon="-0.450006">
        <ele>54.6239305953657</ele>
        <time>2018-11-04T07:19:51.000Z</time>
      </trkpt>
      <trkpt lat="39.477421" lon="-0.45">
        <ele>54</ele>
        <time>2018-11-04T07:19:52.000Z</time>
      </trkpt>
      <trkpt lat="39.477488" lon="-0.450013">
        <ele>53.5111076345432</ele>
        <time>2018-11-04T07:19:53.000Z</time>
      </trkpt>
      <trkpt lat="39.477555" lon="-0.450041">
        <ele>53</ele>
        <time>2018-11-04T07:19:54.000Z</time>
      </trkpt>
      <trkpt lat="39.477621" lon="-0.450075">
        <ele>53</ele>
        <time>2018-11-04T07:19:55.000Z</time>
      </trkpt>
      <trkpt lat="39.47769" lon="-0.450107">
        <ele>53</ele>
        <time>2018-11-04T07:19:56.000Z</time>
      </trkpt>
      <trkpt lat="39.477764" lon="-0.450127">
        <ele>52.4666666666667</ele>
        <time>2018-11-04T07:19:57.000Z</time>
      </trkpt>
      <trkpt lat="39.477841" lon="-0.450124">
        <ele>52</ele>
        <time>2018-11-04T07:19:58.000Z</time>
      </trkpt>
      <trkpt lat="39.477918" lon="-0.450096">
        <ele>52</ele>
        <time>2018-11-04T07:19:59.000Z</time>
      </trkpt>
      <trkpt lat="39.477991" lon="-0.450048">
        <ele>51.4749973333333</ele>
        <time>2018-11-04T07:20:00.000Z</time>
      </trkpt>
      <trkpt lat="39.478063" lon="-0.449987">
        <ele>51</ele>
        <time>2018-11-04T07:20:01.000Z</time>
      </trkpt>
      <trkpt lat="39.478136" lon="-0.449922">
        <ele>50.6987955523341</ele>
        <time>2018-11-04T07:20:02.000Z</time>
      </trkpt>
      <trkpt lat="39.478213" lon="-0.449855">
        <ele>50</ele>
        <time>2018-11-04T07:20:03.000Z</time>
      </trkpt>
      <trkpt lat="39.478295" lon="-0.44979">
        <ele>50</ele>
        <time>2018-11-04T07:20:04.000Z</time>
      </trkpt>
      <trkpt lat="39.47838" lon="-0.449729">
        <ele>49.4749973333333</ele>
        <time>2018-11-04T07:20:05.000Z</time>
      </trkpt>
      <trkpt lat="39.478469" lon="-0.449669">
        <ele>49</ele>
        <time>2018-11-04T07:20:06.000Z</time>
      </trkpt>
      <trkpt lat="39.478559" lon="-0.449611">
        <ele>49</ele>
        <time>2018-11-04T07:20:07.000Z</time>
      </trkpt>
      <trkpt lat="39.478651" lon="-0.449555">
        <ele>49</ele>
        <time>2018-11-04T07:20:08.000Z</time>
      </trkpt>
      <trkpt lat="39.478742" lon="-0.449499">
        <ele>48.422218113551</ele>
        <time>2018-11-04T07:20:09.000Z</time>
      </trkpt>
      <trkpt lat="39.47883" lon="-0.449442">
        <ele>48</ele>
        <time>2018-11-04T07:20:10.000Z</time>
      </trkpt>
      <trkpt lat="39.478912" lon="-0.44939">
        <ele>48</ele>
        <time>2018-11-04T07:20:11.000Z</time>
      </trkpt>
      <trkpt lat="39.478993" lon="-0.449342">
        <ele>48</ele>
        <time>2018-11-04T07:20:12.000Z</time>
      </trkpt>
      <trkpt lat="39.479073" lon="-0.449293">
        <ele>48</ele>
        <time>2018-11-04T07:20:13.000Z</time>
      </trkpt>
      <trkpt lat="39.479155" lon="-0.449249">
        <ele>48</ele>
        <time>2018-11-04T07:20:14.000Z</time>
      </trkpt>
      <trkpt lat="39.479237" lon="-0.449211">
        <ele>48</ele>
        <time>2018-11-04T07:20:15.000Z</time>
      </trkpt>
      <trkpt lat="39.479305" lon="-0.449167">
        <ele>48</ele>
        <time>2018-11-04T07:20:16.000Z</time>
      </trkpt>
      <trkpt lat="39.479367" lon="-0.449123">
        <ele>48.4406755759969</ele>
        <time>2018-11-04T07:20:17.000Z</time>
      </trkpt>
      <trkpt lat="39.479431" lon="-0.449086">
        <ele>49</ele>
        <time>2018-11-04T07:20:18.000Z</time>
      </trkpt>
      <trkpt lat="39.479485" lon="-0.449041">
        <ele>49.577781886449</ele>
        <time>2018-11-04T07:20:19.000Z</time>
      </trkpt>
      <trkpt lat="39.479551" lon="-0.449019">
        <ele>50.516672</ele>
        <time>2018-11-04T07:20:20.000Z</time>
      </trkpt>
      <trkpt lat="39.479611" lon="-0.448991">
        <ele>51</ele>
        <time>2018-11-04T07:20:21.000Z</time>
      </trkpt>
      <trkpt lat="39.479666" lon="-0.448956">
        <ele>51</ele>
        <time>2018-11-04T07:20:22.000Z</time>
      </trkpt>
      <trkpt lat="39.479718" lon="-0.448921">
        <ele>51</ele>
        <time>2018-11-04T07:20:23.000Z</time>
      </trkpt>
      <trkpt lat="39.47977" lon="-0.448883">
        <ele>51</ele>
        <time>2018-11-04T07:20:24.000Z</time>
      </trkpt>
      <trkpt lat="39.47982" lon="-0.448845">
        <ele>51</ele>
        <time>2018-11-04T07:20:25.000Z</time>
      </trkpt>
      <trkpt lat="39.479867" lon="-0.448814">
        <ele>51</ele>
        <time>2018-11-04T07:20:26.000Z</time>
      </trkpt>
      <trkpt lat="39.479913" lon="-0.448782">
        <ele>50.5444447604961</ele>
        <time>2018-11-04T07:20:27.000Z</time>
      </trkpt>
      <trkpt lat="39.479958" lon="-0.44875">
        <ele>50</ele>
        <time>2018-11-04T07:20:28.000Z</time>
      </trkpt>
      <trkpt lat="39.480003" lon="-0.448721">
        <ele>50</ele>
        <time>2018-11-04T07:20:29.000Z</time>
      </trkpt>
      <trkpt lat="39.480047" lon="-0.448689">
        <ele>50</ele>
        <time>2018-11-04T07:20:30.000Z</time>
      </trkpt>
      <trkpt lat="39.480093" lon="-0.448654">
        <ele>50</ele>
        <time>2018-11-04T07:20:31.000Z</time>
      </trkpt>
      <trkpt lat="39.480138" lon="-0.448624">
        <ele>50</ele>
        <time>2018-11-04T07:20:32.000Z</time>
      </trkpt>
      <trkpt lat="39.480183" lon="-0.448593">
        <ele>50</ele>
        <time>2018-11-04T07:20:33.000Z</time>
      </trkpt>
      <trkpt lat="39.480227" lon="-0.448561">
        <ele>50</ele>
        <time>2018-11-04T07:20:34.000Z</time>
      </trkpt>
      <trkpt lat="39.480271" lon="-0.44853">
        <ele>49.6016943636916</ele>
        <time>2018-11-04T07:20:35.000Z</time>
      </trkpt>
      <trkpt lat="39.480314" lon="-0.448498">
        <ele>49</ele>
        <time>2018-11-04T07:20:36.000Z</time>
      </trkpt>
      <trkpt lat="39.480355" lon="-0.448465">
        <ele>49</ele>
        <time>2018-11-04T07:20:37.000Z</time>
      </trkpt>
      <trkpt lat="39.480398" lon="-0.448432">
        <ele>49</ele>
        <time>2018-11-04T07:20:38.000Z</time>
      </trkpt>
      <trkpt lat="39.480441" lon="-0.448399">
        <ele>49</ele>
        <time>2018-11-04T07:20:39.000Z</time>
      </trkpt>
      <trkpt lat="39.480484" lon="-0.448361">
        <ele>49.5</ele>
        <time>2018-11-04T07:20:40.000Z</time>
      </trkpt>
      <trkpt lat="39.480523" lon="-0.44832">
        <ele>50</ele>
        <time>2018-11-04T07:20:41.000Z</time>
      </trkpt>
      <trkpt lat="39.480558" lon="-0.448276">
        <ele>50</ele>
        <time>2018-11-04T07:20:42.000Z</time>
      </trkpt>
      <trkpt lat="39.480596" lon="-0.44824">
        <ele>50</ele>
        <time>2018-11-04T07:20:43.000Z</time>
      </trkpt>
      <trkpt lat="39.480642" lon="-0.448222">
        <ele>50</ele>
        <time>2018-11-04T07:20:44.000Z</time>
      </trkpt>
      <trkpt lat="39.480688" lon="-0.448221">
        <ele>49.51563</ele>
        <time>2018-11-04T07:20:45.000Z</time>
      </trkpt>
      <trkpt lat="39.480737" lon="-0.448223">
        <ele>49</ele>
        <time>2018-11-04T07:20:46.000Z</time>
      </trkpt>
      <trkpt lat="39.480788" lon="-0.448231">
        <ele>49.555556992139</ele>
        <time>2018-11-04T07:20:47.000Z</time>
      </trkpt>
      <trkpt lat="39.48084" lon="-0.448222">
        <ele>50</ele>
        <time>2018-11-04T07:20:48.000Z</time>
      </trkpt>
      <trkpt lat="39.480892" lon="-0.448211">
        <ele>50</ele>
        <time>2018-11-04T07:20:49.000Z</time>
      </trkpt>
      <trkpt lat="39.480942" lon="-0.448197">
        <ele>50</ele>
        <time>2018-11-04T07:20:50.000Z</time>
      </trkpt>
      <trkpt lat="39.480996" lon="-0.44818">
        <ele>50</ele>
        <time>2018-11-04T07:20:51.000Z</time>
      </trkpt>
      <trkpt lat="39.481047" lon="-0.448162">
        <ele>50</ele>
        <time>2018-11-04T07:20:52.000Z</time>
      </trkpt>
      <trkpt lat="39.481101" lon="-0.448142">
        <ele>50</ele>
        <time>2018-11-04T07:20:53.000Z</time>
      </trkpt>
      <trkpt lat="39.481151" lon="-0.448123">
        <ele>50.4600005119934</ele>
        <time>2018-11-04T07:20:54.000Z</time>
      </trkpt>
      <trkpt lat="39.4812" lon="-0.448106">
        <ele>51</ele>
        <time>2018-11-04T07:20:55.000Z</time>
      </trkpt>
      <trkpt lat="39.481242" lon="-0.448094">
        <ele>51</ele>
        <time>2018-11-04T07:20:56.000Z</time>
      </trkpt>
      <trkpt lat="39.481277" lon="-0.448084">
        <ele>51.64</ele>
        <time>2018-11-04T07:20:57.000Z</time>
      </trkpt>
      <trkpt lat="39.481306" lon="-0.448077">
        <ele>52</ele>
        <time>2018-11-04T07:20:58.000Z</time>
      </trkpt>
      <trkpt lat="39.481335" lon="-0.448069">
        <ele>52.6237675208476</ele>
        <time>2018-11-04T07:20:59.000Z</time>
      </trkpt>
      <trkpt lat="39.481357" lon="-0.448063">
        <ele>53</ele>
        <time>2018-11-04T07:21:00.000Z</time>
      </trkpt>
      <trkpt lat="39.481387" lon="-0.448056">
        <ele>54</ele>
        <time>2018-11-04T07:21:02.000Z</time>
      </trkpt>
      <trkpt lat="39.481411" lon="-0.448052">
        <ele>54.5299156519741</ele>
        <time>2018-11-04T07:21:04.000Z</time>
      </trkpt>
      <trkpt lat="39.481432" lon="-0.448063">
        <ele>56</ele>
        <time>2018-11-04T07:21:13.000Z</time>
      </trkpt>
      <trkpt lat="39.481474" lon="-0.448047">
        <ele>56</ele>
        <time>2018-11-04T07:21:15.000Z</time>
      </trkpt>
      <trkpt lat="39.481508" lon="-0.448041">
        <ele>56</ele>
        <time>2018-11-04T07:21:16.000Z</time>
      </trkpt>
      <trkpt lat="39.48155" lon="-0.448035">
        <ele>56.6086956521739</ele>
        <time>2018-11-04T07:21:17.000Z</time>
      </trkpt>
      <trkpt lat="39.481593" lon="-0.448024">
        <ele>57</ele>
        <time>2018-11-04T07:21:18.000Z</time>
      </trkpt>
      <trkpt lat="39.481641" lon="-0.448011">
        <ele>57.5436876312617</ele>
        <time>2018-11-04T07:21:19.000Z</time>
      </trkpt>
      <trkpt lat="39.481689" lon="-0.447999">
        <ele>58</ele>
        <time>2018-11-04T07:21:20.000Z</time>
      </trkpt>
      <trkpt lat="39.481739" lon="-0.447988">
        <ele>58</ele>
        <time>2018-11-04T07:21:21.000Z</time>
      </trkpt>
      <trkpt lat="39.48179" lon="-0.447982">
        <ele>58.5609790362612</ele>
        <time>2018-11-04T07:21:22.000Z</time>
      </trkpt>
      <trkpt lat="39.48184" lon="-0.447972">
        <ele>59</ele>
        <time>2018-11-04T07:21:23.000Z</time>
      </trkpt>
      <trkpt lat="39.481884" lon="-0.447956">
        <ele>59</ele>
        <time>2018-11-04T07:21:24.000Z</time>
      </trkpt>
      <trkpt lat="39.481933" lon="-0.44794">
        <ele>59.5</ele>
        <time>2018-11-04T07:21:25.000Z</time>
      </trkpt>
      <trkpt lat="39.481978" lon="-0.447929">
        <ele>60</ele>
        <time>2018-11-04T07:21:26.000Z</time>
      </trkpt>
      <trkpt lat="39.482019" lon="-0.447917">
        <ele>60</ele>
        <time>2018-11-04T07:21:27.000Z</time>
      </trkpt>
      <trkpt lat="39.482058" lon="-0.447906">
        <ele>60.6363648117501</ele>
        <time>2018-11-04T07:21:28.000Z</time>
      </trkpt>
      <trkpt lat="39.482094" lon="-0.447902">
        <ele>61.5333333333333</ele>
        <time>2018-11-04T07:21:29.000Z</time>
      </trkpt>
      <trkpt lat="39.482131" lon="-0.447898">
        <ele>62</ele>
        <time>2018-11-04T07:21:30.000Z</time>
      </trkpt>
      <trkpt lat="39.482167" lon="-0.4479">
        <ele>62.4576241769447</ele>
        <time>2018-11-04T07:21:31.000Z</time>
      </trkpt>
      <trkpt lat="39.482203" lon="-0.447899">
        <ele>63</ele>
        <time>2018-11-04T07:21:32.000Z</time>
      </trkpt>
      <trkpt lat="39.482239" lon="-0.447904">
        <ele>63</ele>
        <time>2018-11-04T07:21:33.000Z</time>
      </trkpt>
      <trkpt lat="39.482275" lon="-0.447911">
        <ele>63</ele>
        <time>2018-11-04T07:21:34.000Z</time>
      </trkpt>
      <trkpt lat="39.482311" lon="-0.447912">
        <ele>63</ele>
        <time>2018-11-04T07:21:35.000Z</time>
      </trkpt>
      <trkpt lat="39.48235" lon="-0.447898">
        <ele>63</ele>
        <time>2018-11-04T07:21:36.000Z</time>
      </trkpt>
      <trkpt lat="39.48239" lon="-0.447885">
        <ele>63</ele>
        <time>2018-11-04T07:21:37.000Z</time>
      </trkpt>
      <trkpt lat="39.482426" lon="-0.44787">
        <ele>63.4943838000316</ele>
        <time>2018-11-04T07:21:38.000Z</time>
      </trkpt>
      <trkpt lat="39.482465" lon="-0.447858">
        <ele>64</ele>
        <time>2018-11-04T07:21:39.000Z</time>
      </trkpt>
      <trkpt lat="39.482504" lon="-0.447848">
        <ele>64</ele>
        <time>2018-11-04T07:21:40.000Z</time>
      </trkpt>
      <trkpt lat="39.482545" lon="-0.447839">
        <ele>64</ele>
        <time>2018-11-04T07:21:41.000Z</time>
      </trkpt>
      <trkpt lat="39.482588" lon="-0.447831">
        <ele>64</ele>
        <time>2018-11-04T07:21:42.000Z</time>
      </trkpt>
      <trkpt lat="39.482631" lon="-0.447822">
        <ele>64.5333333333333</ele>
        <time>2018-11-04T07:21:43.000Z</time>
      </trkpt>
      <trkpt lat="39.48267" lon="-0.447814">
        <ele>65</ele>
        <time>2018-11-04T07:21:44.000Z</time>
      </trkpt>
      <trkpt lat="39.482713" lon="-0.44781">
        <ele>64.7545439735623</ele>
        <time>2018-11-04T07:21:45.000Z</time>
      </trkpt>
      <trkpt lat="39.482759" lon="-0.447809">
        <ele>64</ele>
        <time>2018-11-04T07:21:46.000Z</time>
      </trkpt>
      <trkpt lat="39.482809" lon="-0.447808">
        <ele>64</ele>
        <time>2018-11-04T07:21:47.000Z</time>
      </trkpt>
      <trkpt lat="39.482863" lon="-0.447813">
        <ele>64</ele>
        <time>2018-11-04T07:21:48.000Z</time>
      </trkpt>
      <trkpt lat="39.482907" lon="-0.447835">
        <ele>64</ele>
        <time>2018-11-04T07:21:49.000Z</time>
      </trkpt>
      <trkpt lat="39.482947" lon="-0.447868">
        <ele>64</ele>
        <time>2018-11-04T07:21:50.000Z</time>
      </trkpt>
      <trkpt lat="39.482998" lon="-0.447899">
        <ele>64</ele>
        <time>2018-11-04T07:21:51.000Z</time>
      </trkpt>
      <trkpt lat="39.483046" lon="-0.447925">
        <ele>64</ele>
        <time>2018-11-04T07:21:52.000Z</time>
      </trkpt>
      <trkpt lat="39.483087" lon="-0.447959">
        <ele>64</ele>
        <time>2018-11-04T07:21:53.000Z</time>
      </trkpt>
      <trkpt lat="39.483137" lon="-0.447982">
        <ele>64</ele>
        <time>2018-11-04T07:21:54.000Z</time>
      </trkpt>
      <trkpt lat="39.483182" lon="-0.448004">
        <ele>64</ele>
        <time>2018-11-04T07:21:55.000Z</time>
      </trkpt>
      <trkpt lat="39.48322" lon="-0.448034">
        <ele>64</ele>
        <time>2018-11-04T07:21:56.000Z</time>
      </trkpt>
      <trkpt lat="39.483256" lon="-0.448062">
        <ele>64</ele>
        <time>2018-11-04T07:21:57.000Z</time>
      </trkpt>
      <trkpt lat="39.483313" lon="-0.448095">
        <ele>64</ele>
        <time>2018-11-04T07:21:58.000Z</time>
      </trkpt>
      <trkpt lat="39.48337" lon="-0.448132">
        <ele>64</ele>
        <time>2018-11-04T07:21:59.000Z</time>
      </trkpt>
      <trkpt lat="39.483426" lon="-0.448171">
        <ele>64</ele>
        <time>2018-11-04T07:22:00.000Z</time>
      </trkpt>
      <trkpt lat="39.48347" lon="-0.448204">
        <ele>63.5111076345432</ele>
        <time>2018-11-04T07:22:01.000Z</time>
      </trkpt>
      <trkpt lat="39.483516" lon="-0.448238">
        <ele>63</ele>
        <time>2018-11-04T07:22:02.000Z</time>
      </trkpt>
      <trkpt lat="39.483566" lon="-0.448268">
        <ele>63</ele>
        <time>2018-11-04T07:22:03.000Z</time>
      </trkpt>
      <trkpt lat="39.483603" lon="-0.44829">
        <ele>63</ele>
        <time>2018-11-04T07:22:04.000Z</time>
      </trkpt>
      <trkpt lat="39.483656" lon="-0.448325">
        <ele>62.6179744578036</ele>
        <time>2018-11-04T07:22:05.000Z</time>
      </trkpt>
      <trkpt lat="39.483713" lon="-0.448379">
        <ele>62</ele>
        <time>2018-11-04T07:22:06.000Z</time>
      </trkpt>
      <trkpt lat="39.483761" lon="-0.44842">
        <ele>62</ele>
        <time>2018-11-04T07:22:07.000Z</time>
      </trkpt>
      <trkpt lat="39.483814" lon="-0.448468">
        <ele>62</ele>
        <time>2018-11-04T07:22:08.000Z</time>
      </trkpt>
      <trkpt lat="39.483868" lon="-0.448502">
        <ele>62</ele>
        <time>2018-11-04T07:22:09.000Z</time>
      </trkpt>
      <trkpt lat="39.483963" lon="-0.448573">
        <ele>62</ele>
        <time>2018-11-04T07:22:11.000Z</time>
      </trkpt>
      <trkpt lat="39.484055" lon="-0.448695">
        <ele>62</ele>
        <time>2018-11-04T07:22:13.000Z</time>
      </trkpt>
      <trkpt lat="39.484107" lon="-0.448735">
        <ele>62</ele>
        <time>2018-11-04T07:22:14.000Z</time>
      </trkpt>
      <trkpt lat="39.484153" lon="-0.448784">
        <ele>62</ele>
        <time>2018-11-04T07:22:15.000Z</time>
      </trkpt>
      <trkpt lat="39.484204" lon="-0.448819">
        <ele>62.5344823781255</ele>
        <time>2018-11-04T07:22:16.000Z</time>
      </trkpt>
      <trkpt lat="39.484253" lon="-0.448842">
        <ele>63</ele>
        <time>2018-11-04T07:22:17.000Z</time>
      </trkpt>
      <trkpt lat="39.484293" lon="-0.448868">
        <ele>63</ele>
        <time>2018-11-04T07:22:18.000Z</time>
      </trkpt>
      <trkpt lat="39.484335" lon="-0.448892">
        <ele>63</ele>
        <time>2018-11-04T07:22:19.000Z</time>
      </trkpt>
      <trkpt lat="39.484378" lon="-0.448916">
        <ele>63</ele>
        <time>2018-11-04T07:22:20.000Z</time>
      </trkpt>
      <trkpt lat="39.484421" lon="-0.448926">
        <ele>63</ele>
        <time>2018-11-04T07:22:21.000Z</time>
      </trkpt>
      <trkpt lat="39.484454" lon="-0.448931">
        <ele>63</ele>
        <time>2018-11-04T07:22:22.000Z</time>
      </trkpt>
      <trkpt lat="39.48448" lon="-0.44892">
        <ele>62.5378136798288</ele>
        <time>2018-11-04T07:22:23.000Z</time>
      </trkpt>
      <trkpt lat="39.484504" lon="-0.448904">
        <ele>62</ele>
        <time>2018-11-04T07:22:24.000Z</time>
      </trkpt>
      <trkpt lat="39.484535" lon="-0.448914">
        <ele>62</ele>
        <time>2018-11-04T07:22:25.000Z</time>
      </trkpt>
      <trkpt lat="39.484575" lon="-0.448928">
        <ele>62</ele>
        <time>2018-11-04T07:22:26.000Z</time>
      </trkpt>
      <trkpt lat="39.484617" lon="-0.448944">
        <ele>62</ele>
        <time>2018-11-04T07:22:27.000Z</time>
      </trkpt>
      <trkpt lat="39.484661" lon="-0.448965">
        <ele>62</ele>
        <time>2018-11-04T07:22:28.000Z</time>
      </trkpt>
      <trkpt lat="39.484718" lon="-0.449001">
        <ele>62</ele>
        <time>2018-11-04T07:22:29.000Z</time>
      </trkpt>
      <trkpt lat="39.484769" lon="-0.449043">
        <ele>62</ele>
        <time>2018-11-04T07:22:30.000Z</time>
      </trkpt>
      <trkpt lat="39.48481" lon="-0.449089">
        <ele>62</ele>
        <time>2018-11-04T07:22:31.000Z</time>
      </trkpt>
      <trkpt lat="39.48484" lon="-0.44914">
        <ele>61.50781</ele>
        <time>2018-11-04T07:22:32.000Z</time>
      </trkpt>
      <trkpt lat="39.484869" lon="-0.449206">
        <ele>61</ele>
        <time>2018-11-04T07:22:33.000Z</time>
      </trkpt>
      <trkpt lat="39.484893" lon="-0.449262">
        <ele>61</ele>
        <time>2018-11-04T07:22:34.000Z</time>
      </trkpt>
      <trkpt lat="39.484922" lon="-0.449312">
        <ele>61</ele>
        <time>2018-11-04T07:22:35.000Z</time>
      </trkpt>
      <trkpt lat="39.484959" lon="-0.449351">
        <ele>61</ele>
        <time>2018-11-04T07:22:36.000Z</time>
      </trkpt>
      <trkpt lat="39.485003" lon="-0.449388">
        <ele>61</ele>
        <time>2018-11-04T07:22:37.000Z</time>
      </trkpt>
      <trkpt lat="39.485052" lon="-0.44943">
        <ele>61</ele>
        <time>2018-11-04T07:22:38.000Z</time>
      </trkpt>
      <trkpt lat="39.485103" lon="-0.449472">
        <ele>61</ele>
        <time>2018-11-04T07:22:39.000Z</time>
      </trkpt>
      <trkpt lat="39.485155" lon="-0.44951">
        <ele>61</ele>
        <time>2018-11-04T07:22:40.000Z</time>
      </trkpt>
      <trkpt lat="39.485207" lon="-0.449542">
        <ele>61</ele>
        <time>2018-11-04T07:22:41.000Z</time>
      </trkpt>
      <trkpt lat="39.485256" lon="-0.449574">
        <ele>61</ele>
        <time>2018-11-04T07:22:42.000Z</time>
      </trkpt>
      <trkpt lat="39.485305" lon="-0.449611">
        <ele>61</ele>
        <time>2018-11-04T07:22:43.000Z</time>
      </trkpt>
      <trkpt lat="39.485361" lon="-0.449654">
        <ele>60.4337332675344</ele>
        <time>2018-11-04T07:22:44.000Z</time>
      </trkpt>
      <trkpt lat="39.485411" lon="-0.44969">
        <ele>60</ele>
        <time>2018-11-04T07:22:45.000Z</time>
      </trkpt>
      <trkpt lat="39.485462" lon="-0.449719">
        <ele>59.36</ele>
        <time>2018-11-04T07:22:46.000Z</time>
      </trkpt>
      <trkpt lat="39.485504" lon="-0.449749">
        <ele>59</ele>
        <time>2018-11-04T07:22:47.000Z</time>
      </trkpt>
      <trkpt lat="39.485537" lon="-0.449773">
        <ele>59</ele>
        <time>2018-11-04T07:22:48.000Z</time>
      </trkpt>
      <trkpt lat="39.485568" lon="-0.449795">
        <ele>59</ele>
        <time>2018-11-04T07:22:49.000Z</time>
      </trkpt>
      <trkpt lat="39.4856" lon="-0.449816">
        <ele>59</ele>
        <time>2018-11-04T07:22:50.000Z</time>
      </trkpt>
      <trkpt lat="39.48563" lon="-0.449837">
        <ele>59</ele>
        <time>2018-11-04T07:22:51.000Z</time>
      </trkpt>
      <trkpt lat="39.485663" lon="-0.449859">
        <ele>59</ele>
        <time>2018-11-04T07:22:52.000Z</time>
      </trkpt>
      <trkpt lat="39.485695" lon="-0.449887">
        <ele>59</ele>
        <time>2018-11-04T07:22:53.000Z</time>
      </trkpt>
      <trkpt lat="39.485737" lon="-0.449916">
        <ele>59</ele>
        <time>2018-11-04T07:22:54.000Z</time>
      </trkpt>
      <trkpt lat="39.48578" lon="-0.449946">
        <ele>59</ele>
        <time>2018-11-04T07:22:55.000Z</time>
      </trkpt>
      <trkpt lat="39.485827" lon="-0.449974">
        <ele>58.36</ele>
        <time>2018-11-04T07:22:56.000Z</time>
      </trkpt>
      <trkpt lat="39.485874" lon="-0.449997">
        <ele>58</ele>
        <time>2018-11-04T07:22:57.000Z</time>
      </trkpt>
      <trkpt lat="39.485925" lon="-0.45003">
        <ele>58</ele>
        <time>2018-11-04T07:22:58.000Z</time>
      </trkpt>
      <trkpt lat="39.485976" lon="-0.450079">
        <ele>58</ele>
        <time>2018-11-04T07:22:59.000Z</time>
      </trkpt>
      <trkpt lat="39.486021" lon="-0.450123">
        <ele>58</ele>
        <time>2018-11-04T07:23:00.000Z</time>
      </trkpt>
      <trkpt lat="39.486071" lon="-0.450168">
        <ele>58</ele>
        <time>2018-11-04T07:23:01.000Z</time>
      </trkpt>
      <trkpt lat="39.486117" lon="-0.450213">
        <ele>58</ele>
        <time>2018-11-04T07:23:02.000Z</time>
      </trkpt>
      <trkpt lat="39.486164" lon="-0.450259">
        <ele>58</ele>
        <time>2018-11-04T07:23:03.000Z</time>
      </trkpt>
      <trkpt lat="39.486211" lon="-0.450297">
        <ele>58</ele>
        <time>2018-11-04T07:23:04.000Z</time>
      </trkpt>
      <trkpt lat="39.48626" lon="-0.450341">
        <ele>58.64</ele>
        <time>2018-11-04T07:23:05.000Z</time>
      </trkpt>
      <trkpt lat="39.486313" lon="-0.450369">
        <ele>59</ele>
        <time>2018-11-04T07:23:06.000Z</time>
      </trkpt>
      <trkpt lat="39.486357" lon="-0.450407">
        <ele>59.64</ele>
        <time>2018-11-04T07:23:07.000Z</time>
      </trkpt>
      <trkpt lat="39.486406" lon="-0.450444">
        <ele>60</ele>
        <time>2018-11-04T07:23:08.000Z</time>
      </trkpt>
      <trkpt lat="39.486456" lon="-0.450486">
        <ele>60.64</ele>
        <time>2018-11-04T07:23:09.000Z</time>
      </trkpt>
      <trkpt lat="39.486507" lon="-0.450521">
        <ele>61</ele>
        <time>2018-11-04T07:23:10.000Z</time>
      </trkpt>
      <trkpt lat="39.486558" lon="-0.450557">
        <ele>61</ele>
        <time>2018-11-04T07:23:11.000Z</time>
      </trkpt>
      <trkpt lat="39.486607" lon="-0.450592">
        <ele>61</ele>
        <time>2018-11-04T07:23:12.000Z</time>
      </trkpt>
      <trkpt lat="39.486655" lon="-0.450633">
        <ele>61</ele>
        <time>2018-11-04T07:23:13.000Z</time>
      </trkpt>
      <trkpt lat="39.486702" lon="-0.450675">
        <ele>61</ele>
        <time>2018-11-04T07:23:14.000Z</time>
      </trkpt>
      <trkpt lat="39.486749" lon="-0.45072">
        <ele>61</ele>
        <time>2018-11-04T07:23:15.000Z</time>
      </trkpt>
      <trkpt lat="39.486797" lon="-0.450763">
        <ele>61.64</ele>
        <time>2018-11-04T07:23:16.000Z</time>
      </trkpt>
      <trkpt lat="39.486848" lon="-0.450803">
        <ele>61.36</ele>
        <time>2018-11-04T07:23:17.000Z</time>
      </trkpt>
      <trkpt lat="39.486899" lon="-0.450835">
        <ele>61</ele>
        <time>2018-11-04T07:23:18.000Z</time>
      </trkpt>
      <trkpt lat="39.486949" lon="-0.450876">
        <ele>61</ele>
        <time>2018-11-04T07:23:19.000Z</time>
      </trkpt>
      <trkpt lat="39.486999" lon="-0.450919">
        <ele>61</ele>
        <time>2018-11-04T07:23:20.000Z</time>
      </trkpt>
      <trkpt lat="39.48705" lon="-0.450955">
        <ele>61</ele>
        <time>2018-11-04T07:23:21.000Z</time>
      </trkpt>
      <trkpt lat="39.487101" lon="-0.450993">
        <ele>61</ele>
        <time>2018-11-04T07:23:22.000Z</time>
      </trkpt>
      <trkpt lat="39.487151" lon="-0.451024">
        <ele>61</ele>
        <time>2018-11-04T07:23:23.000Z</time>
      </trkpt>
      <trkpt lat="39.487203" lon="-0.451057">
        <ele>61</ele>
        <time>2018-11-04T07:23:24.000Z</time>
      </trkpt>
      <trkpt lat="39.487252" lon="-0.451093">
        <ele>61</ele>
        <time>2018-11-04T07:23:25.000Z</time>
      </trkpt>
      <trkpt lat="39.4873" lon="-0.451135">
        <ele>61.64</ele>
        <time>2018-11-04T07:23:26.000Z</time>
      </trkpt>
      <trkpt lat="39.48735" lon="-0.451174">
        <ele>62</ele>
        <time>2018-11-04T07:23:27.000Z</time>
      </trkpt>
      <trkpt lat="39.487394" lon="-0.451216">
        <ele>62</ele>
        <time>2018-11-04T07:23:28.000Z</time>
      </trkpt>
      <trkpt lat="39.487437" lon="-0.451264">
        <ele>62.64</ele>
        <time>2018-11-04T07:23:29.000Z</time>
      </trkpt>
      <trkpt lat="39.487484" lon="-0.451311">
        <ele>63.64</ele>
        <time>2018-11-04T07:23:30.000Z</time>
      </trkpt>
      <trkpt lat="39.487532" lon="-0.451352">
        <ele>64</ele>
        <time>2018-11-04T07:23:31.000Z</time>
      </trkpt>
      <trkpt lat="39.487584" lon="-0.451391">
        <ele>64</ele>
        <time>2018-11-04T07:23:32.000Z</time>
      </trkpt>
      <trkpt lat="39.487638" lon="-0.451431">
        <ele>64</ele>
        <time>2018-11-04T07:23:33.000Z</time>
      </trkpt>
      <trkpt lat="39.48769" lon="-0.451464">
        <ele>64</ele>
        <time>2018-11-04T07:23:34.000Z</time>
      </trkpt>
      <trkpt lat="39.487741" lon="-0.451495">
        <ele>64</ele>
        <time>2018-11-04T07:23:35.000Z</time>
      </trkpt>
      <trkpt lat="39.487793" lon="-0.451525">
        <ele>63.5114515750801</ele>
        <time>2018-11-04T07:23:36.000Z</time>
      </trkpt>
      <trkpt lat="39.487846" lon="-0.451553">
        <ele>63</ele>
        <time>2018-11-04T07:23:37.000Z</time>
      </trkpt>
      <trkpt lat="39.487896" lon="-0.451583">
        <ele>63</ele>
        <time>2018-11-04T07:23:38.000Z</time>
      </trkpt>
      <trkpt lat="39.487946" lon="-0.451613">
        <ele>63</ele>
        <time>2018-11-04T07:23:39.000Z</time>
      </trkpt>
      <trkpt lat="39.487997" lon="-0.45164">
        <ele>63</ele>
        <time>2018-11-04T07:23:40.000Z</time>
      </trkpt>
      <trkpt lat="39.488049" lon="-0.451664">
        <ele>62.36</ele>
        <time>2018-11-04T07:23:41.000Z</time>
      </trkpt>
      <trkpt lat="39.488098" lon="-0.451692">
        <ele>62</ele>
        <time>2018-11-04T07:23:42.000Z</time>
      </trkpt>
      <trkpt lat="39.488146" lon="-0.451719">
        <ele>61.36</ele>
        <time>2018-11-04T07:23:43.000Z</time>
      </trkpt>
      <trkpt lat="39.488194" lon="-0.45175">
        <ele>61</ele>
        <time>2018-11-04T07:23:44.000Z</time>
      </trkpt>
      <trkpt lat="39.488242" lon="-0.451782">
        <ele>60.5151515151515</ele>
        <time>2018-11-04T07:23:45.000Z</time>
      </trkpt>
      <trkpt lat="39.488288" lon="-0.451818">
        <ele>60</ele>
        <time>2018-11-04T07:23:46.000Z</time>
      </trkpt>
      <trkpt lat="39.488334" lon="-0.451851">
        <ele>59.36</ele>
        <time>2018-11-04T07:23:47.000Z</time>
      </trkpt>
      <trkpt lat="39.488385" lon="-0.451885">
        <ele>59</ele>
        <time>2018-11-04T07:23:48.000Z</time>
      </trkpt>
      <trkpt lat="39.488434" lon="-0.451917">
        <ele>58.36</ele>
        <time>2018-11-04T07:23:49.000Z</time>
      </trkpt>
      <trkpt lat="39.48848" lon="-0.451949">
        <ele>58</ele>
        <time>2018-11-04T07:23:50.000Z</time>
      </trkpt>
      <trkpt lat="39.488523" lon="-0.451977">
        <ele>57.3725450826358</ele>
        <time>2018-11-04T07:23:51.000Z</time>
      </trkpt>
      <trkpt lat="39.488564" lon="-0.452003">
        <ele>57</ele>
        <time>2018-11-04T07:23:52.000Z</time>
      </trkpt>
      <trkpt lat="39.488606" lon="-0.452027">
        <ele>57</ele>
        <time>2018-11-04T07:23:53.000Z</time>
      </trkpt>
      <trkpt lat="39.488658" lon="-0.452055">
        <ele>57</ele>
        <time>2018-11-04T07:23:54.000Z</time>
      </trkpt>
      <trkpt lat="39.488703" lon="-0.452084">
        <ele>57</ele>
        <time>2018-11-04T07:23:55.000Z</time>
      </trkpt>
      <trkpt lat="39.488752" lon="-0.452114">
        <ele>56.5217415501057</ele>
        <time>2018-11-04T07:23:56.000Z</time>
      </trkpt>
      <trkpt lat="39.488808" lon="-0.452141">
        <ele>56</ele>
        <time>2018-11-04T07:23:57.000Z</time>
      </trkpt>
      <trkpt lat="39.488869" lon="-0.452173">
        <ele>56</ele>
        <time>2018-11-04T07:23:58.000Z</time>
      </trkpt>
      <trkpt lat="39.488922" lon="-0.452202">
        <ele>56</ele>
        <time>2018-11-04T07:23:59.000Z</time>
      </trkpt>
      <trkpt lat="39.488971" lon="-0.452237">
        <ele>55.36</ele>
        <time>2018-11-04T07:24:00.000Z</time>
      </trkpt>
      <trkpt lat="39.489011" lon="-0.452291">
        <ele>55</ele>
        <time>2018-11-04T07:24:01.000Z</time>
      </trkpt>
      <trkpt lat="39.489044" lon="-0.45235">
        <ele>55</ele>
        <time>2018-11-04T07:24:02.000Z</time>
      </trkpt>
      <trkpt lat="39.489069" lon="-0.452409">
        <ele>55.64</ele>
        <time>2018-11-04T07:24:03.000Z</time>
      </trkpt>
      <trkpt lat="39.489091" lon="-0.45247">
        <ele>56</ele>
        <time>2018-11-04T07:24:04.000Z</time>
      </trkpt>
      <trkpt lat="39.489116" lon="-0.452527">
        <ele>56.4782584498943</ele>
        <time>2018-11-04T07:24:05.000Z</time>
      </trkpt>
      <trkpt lat="39.489146" lon="-0.452585">
        <ele>57</ele>
        <time>2018-11-04T07:24:06.000Z</time>
      </trkpt>
      <trkpt lat="39.489179" lon="-0.452635">
        <ele>57</ele>
        <time>2018-11-04T07:24:07.000Z</time>
      </trkpt>
      <trkpt lat="39.489212" lon="-0.452679">
        <ele>57</ele>
        <time>2018-11-04T07:24:08.000Z</time>
      </trkpt>
      <trkpt lat="39.489247" lon="-0.452726">
        <ele>57.64</ele>
        <time>2018-11-04T07:24:09.000Z</time>
      </trkpt>
      <trkpt lat="39.489282" lon="-0.452774">
        <ele>58</ele>
        <time>2018-11-04T07:24:10.000Z</time>
      </trkpt>
      <trkpt lat="39.489319" lon="-0.452818">
        <ele>58.64</ele>
        <time>2018-11-04T07:24:11.000Z</time>
      </trkpt>
      <trkpt lat="39.489357" lon="-0.452861">
        <ele>59</ele>
        <time>2018-11-04T07:24:12.000Z</time>
      </trkpt>
      <trkpt lat="39.489391" lon="-0.452904">
        <ele>59</ele>
        <time>2018-11-04T07:24:13.000Z</time>
      </trkpt>
      <trkpt lat="39.48942" lon="-0.45295">
        <ele>59</ele>
        <time>2018-11-04T07:24:14.000Z</time>
      </trkpt>
      <trkpt lat="39.48945" lon="-0.452991">
        <ele>59</ele>
        <time>2018-11-04T07:24:15.000Z</time>
      </trkpt>
      <trkpt lat="39.489479" lon="-0.45303">
        <ele>59</ele>
        <time>2018-11-04T07:24:16.000Z</time>
      </trkpt>
      <trkpt lat="39.48951" lon="-0.453062">
        <ele>59</ele>
        <time>2018-11-04T07:24:17.000Z</time>
      </trkpt>
      <trkpt lat="39.48954" lon="-0.453101">
        <ele>59</ele>
        <time>2018-11-04T07:24:18.000Z</time>
      </trkpt>
      <trkpt lat="39.489564" lon="-0.453149">
        <ele>59</ele>
        <time>2018-11-04T07:24:19.000Z</time>
      </trkpt>
      <trkpt lat="39.489597" lon="-0.453189">
        <ele>59</ele>
        <time>2018-11-04T07:24:20.000Z</time>
      </trkpt>
      <trkpt lat="39.489639" lon="-0.453232">
        <ele>59.64</ele>
        <time>2018-11-04T07:24:21.000Z</time>
      </trkpt>
      <trkpt lat="39.489679" lon="-0.453277">
        <ele>60</ele>
        <time>2018-11-04T07:24:22.000Z</time>
      </trkpt>
      <trkpt lat="39.489714" lon="-0.453315">
        <ele>60</ele>
        <time>2018-11-04T07:24:23.000Z</time>
      </trkpt>
      <trkpt lat="39.489751" lon="-0.453358">
        <ele>60</ele>
        <time>2018-11-04T07:24:24.000Z</time>
      </trkpt>
      <trkpt lat="39.489787" lon="-0.453402">
        <ele>60</ele>
        <time>2018-11-04T07:24:25.000Z</time>
      </trkpt>
      <trkpt lat="39.489823" lon="-0.45344">
        <ele>60</ele>
        <time>2018-11-04T07:24:26.000Z</time>
      </trkpt>
      <trkpt lat="39.489858" lon="-0.453474">
        <ele>60</ele>
        <time>2018-11-04T07:24:27.000Z</time>
      </trkpt>
      <trkpt lat="39.48989" lon="-0.45351">
        <ele>60</ele>
        <time>2018-11-04T07:24:28.000Z</time>
      </trkpt>
      <trkpt lat="39.489923" lon="-0.453546">
        <ele>60</ele>
        <time>2018-11-04T07:24:29.000Z</time>
      </trkpt>
      <trkpt lat="39.489953" lon="-0.453599">
        <ele>60.64</ele>
        <time>2018-11-04T07:24:30.000Z</time>
      </trkpt>
      <trkpt lat="39.489982" lon="-0.453665">
        <ele>61</ele>
        <time>2018-11-04T07:24:31.000Z</time>
      </trkpt>
      <trkpt lat="39.490017" lon="-0.453725">
        <ele>61.64</ele>
        <time>2018-11-04T07:24:32.000Z</time>
      </trkpt>
      <trkpt lat="39.49005" lon="-0.453771">
        <ele>62</ele>
        <time>2018-11-04T07:24:33.000Z</time>
      </trkpt>
      <trkpt lat="39.490088" lon="-0.453818">
        <ele>62</ele>
        <time>2018-11-04T07:24:34.000Z</time>
      </trkpt>
      <trkpt lat="39.490125" lon="-0.453869">
        <ele>62</ele>
        <time>2018-11-04T07:24:35.000Z</time>
      </trkpt>
      <trkpt lat="39.49016" lon="-0.453918">
        <ele>62</ele>
        <time>2018-11-04T07:24:36.000Z</time>
      </trkpt>
      <trkpt lat="39.490196" lon="-0.453968">
        <ele>62.4929600317294</ele>
        <time>2018-11-04T07:24:37.000Z</time>
      </trkpt>
      <trkpt lat="39.490227" lon="-0.45402">
        <ele>63</ele>
        <time>2018-11-04T07:24:38.000Z</time>
      </trkpt>
      <trkpt lat="39.490259" lon="-0.454074">
        <ele>63</ele>
        <time>2018-11-04T07:24:39.000Z</time>
      </trkpt>
      <trkpt lat="39.490292" lon="-0.45412">
        <ele>63</ele>
        <time>2018-11-04T07:24:40.000Z</time>
      </trkpt>
      <trkpt lat="39.490324" lon="-0.454176">
        <ele>63</ele>
        <time>2018-11-04T07:24:41.000Z</time>
      </trkpt>
      <trkpt lat="39.490358" lon="-0.454236">
        <ele>63</ele>
        <time>2018-11-04T07:24:42.000Z</time>
      </trkpt>
      <trkpt lat="39.490393" lon="-0.454289">
        <ele>63</ele>
        <time>2018-11-04T07:24:43.000Z</time>
      </trkpt>
      <trkpt lat="39.49043" lon="-0.454345">
        <ele>63.4885484249199</ele>
        <time>2018-11-04T07:24:44.000Z</time>
      </trkpt>
      <trkpt lat="39.490464" lon="-0.454407">
        <ele>64</ele>
        <time>2018-11-04T07:24:45.000Z</time>
      </trkpt>
      <trkpt lat="39.490497" lon="-0.454466">
        <ele>64</ele>
        <time>2018-11-04T07:24:46.000Z</time>
      </trkpt>
      <trkpt lat="39.490532" lon="-0.45452">
        <ele>64</ele>
        <time>2018-11-04T07:24:47.000Z</time>
      </trkpt>
      <trkpt lat="39.490566" lon="-0.454576">
        <ele>64</ele>
        <time>2018-11-04T07:24:48.000Z</time>
      </trkpt>
      <trkpt lat="39.490601" lon="-0.454633">
        <ele>64</ele>
        <time>2018-11-04T07:24:49.000Z</time>
      </trkpt>
      <trkpt lat="39.490639" lon="-0.454693">
        <ele>64.64</ele>
        <time>2018-11-04T07:24:50.000Z</time>
      </trkpt>
      <trkpt lat="39.490673" lon="-0.45476">
        <ele>65</ele>
        <time>2018-11-04T07:24:51.000Z</time>
      </trkpt>
      <trkpt lat="39.490703" lon="-0.45483">
        <ele>65</ele>
        <time>2018-11-04T07:24:52.000Z</time>
      </trkpt>
      <trkpt lat="39.490723" lon="-0.454903">
        <ele>65</ele>
        <time>2018-11-04T07:24:53.000Z</time>
      </trkpt>
      <trkpt lat="39.490744" lon="-0.454971">
        <ele>65</ele>
        <time>2018-11-04T07:24:54.000Z</time>
      </trkpt>
      <trkpt lat="39.490765" lon="-0.455039">
        <ele>65.4961252617061</ele>
        <time>2018-11-04T07:24:55.000Z</time>
      </trkpt>
      <trkpt lat="39.490782" lon="-0.455104">
        <ele>66</ele>
        <time>2018-11-04T07:24:56.000Z</time>
      </trkpt>
      <trkpt lat="39.490803" lon="-0.455168">
        <ele>66</ele>
        <time>2018-11-04T07:24:57.000Z</time>
      </trkpt>
      <trkpt lat="39.490822" lon="-0.455224">
        <ele>66</ele>
        <time>2018-11-04T07:24:58.000Z</time>
      </trkpt>
      <trkpt lat="39.490832" lon="-0.455276">
        <ele>66</ele>
        <time>2018-11-04T07:24:59.000Z</time>
      </trkpt>
      <trkpt lat="39.490837" lon="-0.455325">
        <ele>65.36</ele>
        <time>2018-11-04T07:25:00.000Z</time>
      </trkpt>
      <trkpt lat="39.490839" lon="-0.455368">
        <ele>65</ele>
        <time>2018-11-04T07:25:01.000Z</time>
      </trkpt>
      <trkpt lat="39.49084" lon="-0.455404">
        <ele>65</ele>
        <time>2018-11-04T07:25:02.000Z</time>
      </trkpt>
      <trkpt lat="39.49084" lon="-0.455434">
        <ele>64.36</ele>
        <time>2018-11-04T07:25:03.000Z</time>
      </trkpt>
      <trkpt lat="39.49084" lon="-0.455458">
        <ele>64</ele>
        <time>2018-11-04T07:25:04.000Z</time>
      </trkpt>
      <trkpt lat="39.490837" lon="-0.455484">
        <ele>64</ele>
        <time>2018-11-04T07:25:06.000Z</time>
      </trkpt>
      <trkpt lat="39.490819" lon="-0.455507">
        <ele>63</ele>
        <time>2018-11-04T07:25:58.000Z</time>
      </trkpt>
      <trkpt lat="39.490823" lon="-0.455534">
        <ele>62.5210485249313</ele>
        <time>2018-11-04T07:25:59.000Z</time>
      </trkpt>
      <trkpt lat="39.490831" lon="-0.455565">
        <ele>62</ele>
        <time>2018-11-04T07:26:00.000Z</time>
      </trkpt>
      <trkpt lat="39.490839" lon="-0.455598">
        <ele>62</ele>
        <time>2018-11-04T07:26:01.000Z</time>
      </trkpt>
      <trkpt lat="39.490853" lon="-0.455629">
        <ele>62</ele>
        <time>2018-11-04T07:26:02.000Z</time>
      </trkpt>
      <trkpt lat="39.490874" lon="-0.455644">
        <ele>62.6409984</ele>
        <time>2018-11-04T07:26:03.000Z</time>
      </trkpt>
      <trkpt lat="39.490903" lon="-0.455636">
        <ele>63</ele>
        <time>2018-11-04T07:26:04.000Z</time>
      </trkpt>
      <trkpt lat="39.490934" lon="-0.45562">
        <ele>62.3590016</ele>
        <time>2018-11-04T07:26:05.000Z</time>
      </trkpt>
      <trkpt lat="39.490966" lon="-0.455589">
        <ele>62</ele>
        <time>2018-11-04T07:26:06.000Z</time>
      </trkpt>
      <trkpt lat="39.490998" lon="-0.455554">
        <ele>62</ele>
        <time>2018-11-04T07:26:07.000Z</time>
      </trkpt>
      <trkpt lat="39.491036" lon="-0.455517">
        <ele>61.3590016</ele>
        <time>2018-11-04T07:26:08.000Z</time>
      </trkpt>
      <trkpt lat="39.491076" lon="-0.455473">
        <ele>60.3590016</ele>
        <time>2018-11-04T07:26:09.000Z</time>
      </trkpt>
      <trkpt lat="39.491118" lon="-0.455416">
        <ele>60</ele>
        <time>2018-11-04T07:26:10.000Z</time>
      </trkpt>
      <trkpt lat="39.491158" lon="-0.455361">
        <ele>59.6045672412568</ele>
        <time>2018-11-04T07:26:11.000Z</time>
      </trkpt>
      <trkpt lat="39.491201" lon="-0.455304">
        <ele>59</ele>
        <time>2018-11-04T07:26:12.000Z</time>
      </trkpt>
      <trkpt lat="39.491244" lon="-0.455246">
        <ele>58.5135872550815</ele>
        <time>2018-11-04T07:26:13.000Z</time>
      </trkpt>
      <trkpt lat="39.491286" lon="-0.455187">
        <ele>58</ele>
        <time>2018-11-04T07:26:14.000Z</time>
      </trkpt>
      <trkpt lat="39.491329" lon="-0.455128">
        <ele>57.3590016</ele>
        <time>2018-11-04T07:26:15.000Z</time>
      </trkpt>
      <trkpt lat="39.491375" lon="-0.455068">
        <ele>57</ele>
        <time>2018-11-04T07:26:16.000Z</time>
      </trkpt>
      <trkpt lat="39.49142" lon="-0.455007">
        <ele>57</ele>
        <time>2018-11-04T07:26:17.000Z</time>
      </trkpt>
      <trkpt lat="39.491463" lon="-0.454947">
        <ele>57</ele>
        <time>2018-11-04T07:26:18.000Z</time>
      </trkpt>
      <trkpt lat="39.491507" lon="-0.454889">
        <ele>57</ele>
        <time>2018-11-04T07:26:19.000Z</time>
      </trkpt>
      <trkpt lat="39.491552" lon="-0.454831">
        <ele>57</ele>
        <time>2018-11-04T07:26:20.000Z</time>
      </trkpt>
      <trkpt lat="39.491594" lon="-0.454769">
        <ele>57</ele>
        <time>2018-11-04T07:26:21.000Z</time>
      </trkpt>
      <trkpt lat="39.491638" lon="-0.454699">
        <ele>57</ele>
        <time>2018-11-04T07:26:22.000Z</time>
      </trkpt>
      <trkpt lat="39.491683" lon="-0.454623">
        <ele>57</ele>
        <time>2018-11-04T07:26:23.000Z</time>
      </trkpt>
      <trkpt lat="39.49173" lon="-0.45455">
        <ele>57</ele>
        <time>2018-11-04T07:26:24.000Z</time>
      </trkpt>
      <trkpt lat="39.49178" lon="-0.454473">
        <ele>57</ele>
        <time>2018-11-04T07:26:25.000Z</time>
      </trkpt>
      <trkpt lat="39.49183" lon="-0.454399">
        <ele>57</ele>
        <time>2018-11-04T07:26:26.000Z</time>
      </trkpt>
      <trkpt lat="39.491873" lon="-0.454329">
        <ele>57.4705882352941</ele>
        <time>2018-11-04T07:26:27.000Z</time>
      </trkpt>
      <trkpt lat="39.491914" lon="-0.454259">
        <ele>58</ele>
        <time>2018-11-04T07:26:28.000Z</time>
      </trkpt>
      <trkpt lat="39.491957" lon="-0.454191">
        <ele>58</ele>
        <time>2018-11-04T07:26:29.000Z</time>
      </trkpt>
      <trkpt lat="39.491999" lon="-0.454121">
        <ele>58</ele>
        <time>2018-11-04T07:26:30.000Z</time>
      </trkpt>
      <trkpt lat="39.492048" lon="-0.454042">
        <ele>58</ele>
        <time>2018-11-04T07:26:31.000Z</time>
      </trkpt>
      <trkpt lat="39.492098" lon="-0.453962">
        <ele>58</ele>
        <time>2018-11-04T07:26:32.000Z</time>
      </trkpt>
      <trkpt lat="39.492151" lon="-0.453877">
        <ele>58</ele>
        <time>2018-11-04T07:26:33.000Z</time>
      </trkpt>
      <trkpt lat="39.492204" lon="-0.453792">
        <ele>58</ele>
        <time>2018-11-04T07:26:34.000Z</time>
      </trkpt>
      <trkpt lat="39.492262" lon="-0.453703">
        <ele>58</ele>
        <time>2018-11-04T07:26:35.000Z</time>
      </trkpt>
      <trkpt lat="39.49232" lon="-0.453612">
        <ele>58</ele>
        <time>2018-11-04T07:26:36.000Z</time>
      </trkpt>
      <trkpt lat="39.492379" lon="-0.453518">
        <ele>58</ele>
        <time>2018-11-04T07:26:37.000Z</time>
      </trkpt>
      <trkpt lat="39.49244" lon="-0.45342">
        <ele>58</ele>
        <time>2018-11-04T07:26:38.000Z</time>
      </trkpt>
      <trkpt lat="39.492501" lon="-0.453318">
        <ele>57.5217415501057</ele>
        <time>2018-11-04T07:26:39.000Z</time>
      </trkpt>
      <trkpt lat="39.492557" lon="-0.453212">
        <ele>57</ele>
        <time>2018-11-04T07:26:40.000Z</time>
      </trkpt>
      <trkpt lat="39.492601" lon="-0.453099">
        <ele>56.3636351882499</ele>
        <time>2018-11-04T07:26:41.000Z</time>
      </trkpt>
      <trkpt lat="39.492633" lon="-0.452986">
        <ele>56</ele>
        <time>2018-11-04T07:26:42.000Z</time>
      </trkpt>
      <trkpt lat="39.492669" lon="-0.452876">
        <ele>56</ele>
        <time>2018-11-04T07:26:43.000Z</time>
      </trkpt>
      <trkpt lat="39.492721" lon="-0.452784">
        <ele>56.4705882352941</ele>
        <time>2018-11-04T07:26:44.000Z</time>
      </trkpt>
      <trkpt lat="39.492783" lon="-0.452714">
        <ele>57</ele>
        <time>2018-11-04T07:26:45.000Z</time>
      </trkpt>
      <trkpt lat="39.492845" lon="-0.452651">
        <ele>57</ele>
        <time>2018-11-04T07:26:46.000Z</time>
      </trkpt>
      <trkpt lat="39.492904" lon="-0.452585">
        <ele>56.36</ele>
        <time>2018-11-04T07:26:47.000Z</time>
      </trkpt>
      <trkpt lat="39.492959" lon="-0.452511">
        <ele>56</ele>
        <time>2018-11-04T07:26:48.000Z</time>
      </trkpt>
      <trkpt lat="39.49301" lon="-0.452432">
        <ele>56</ele>
        <time>2018-11-04T07:26:49.000Z</time>
      </trkpt>
      <trkpt lat="39.493059" lon="-0.452353">
        <ele>56</ele>
        <time>2018-11-04T07:26:50.000Z</time>
      </trkpt>
      <trkpt lat="39.493105" lon="-0.452274">
        <ele>56</ele>
        <time>2018-11-04T07:26:51.000Z</time>
      </trkpt>
      <trkpt lat="39.493152" lon="-0.452195">
        <ele>56</ele>
        <time>2018-11-04T07:26:52.000Z</time>
      </trkpt>
      <trkpt lat="39.493198" lon="-0.452116">
        <ele>56</ele>
        <time>2018-11-04T07:26:53.000Z</time>
      </trkpt>
      <trkpt lat="39.493245" lon="-0.452037">
        <ele>56</ele>
        <time>2018-11-04T07:26:54.000Z</time>
      </trkpt>
      <trkpt lat="39.493291" lon="-0.451959">
        <ele>55.36</ele>
        <time>2018-11-04T07:26:55.000Z</time>
      </trkpt>
      <trkpt lat="39.493338" lon="-0.451881">
        <ele>55</ele>
        <time>2018-11-04T07:26:56.000Z</time>
      </trkpt>
      <trkpt lat="39.493384" lon="-0.451803">
        <ele>55</ele>
        <time>2018-11-04T07:26:57.000Z</time>
      </trkpt>
      <trkpt lat="39.493428" lon="-0.451727">
        <ele>55</ele>
        <time>2018-11-04T07:26:58.000Z</time>
      </trkpt>
      <trkpt lat="39.493473" lon="-0.451651">
        <ele>55</ele>
        <time>2018-11-04T07:26:59.000Z</time>
      </trkpt>
      <trkpt lat="39.493516" lon="-0.451579">
        <ele>54.36</ele>
        <time>2018-11-04T07:27:00.000Z</time>
      </trkpt>
      <trkpt lat="39.493562" lon="-0.451504">
        <ele>54</ele>
        <time>2018-11-04T07:27:01.000Z</time>
      </trkpt>
      <trkpt lat="39.49361" lon="-0.451428">
        <ele>54</ele>
        <time>2018-11-04T07:27:02.000Z</time>
      </trkpt>
      <trkpt lat="39.493654" lon="-0.451354">
        <ele>54</ele>
        <time>2018-11-04T07:27:03.000Z</time>
      </trkpt>
      <trkpt lat="39.493697" lon="-0.45128">
        <ele>54</ele>
        <time>2018-11-04T07:27:04.000Z</time>
      </trkpt>
      <trkpt lat="39.49374" lon="-0.451206">
        <ele>54</ele>
        <time>2018-11-04T07:27:05.000Z</time>
      </trkpt>
      <trkpt lat="39.493786" lon="-0.451132">
        <ele>54</ele>
        <time>2018-11-04T07:27:06.000Z</time>
      </trkpt>
      <trkpt lat="39.493826" lon="-0.451055">
        <ele>54</ele>
        <time>2018-11-04T07:27:07.000Z</time>
      </trkpt>
      <trkpt lat="39.493862" lon="-0.450971">
        <ele>53.5076898840117</ele>
        <time>2018-11-04T07:27:08.000Z</time>
      </trkpt>
      <trkpt lat="39.493886" lon="-0.450876">
        <ele>53.4857189877121</ele>
        <time>2018-11-04T07:27:09.000Z</time>
      </trkpt>
      <trkpt lat="39.493903" lon="-0.450781">
        <ele>54</ele>
        <time>2018-11-04T07:27:10.000Z</time>
      </trkpt>
      <trkpt lat="39.493934" lon="-0.450695">
        <ele>53.5217415501057</ele>
        <time>2018-11-04T07:27:11.000Z</time>
      </trkpt>
      <trkpt lat="39.493978" lon="-0.450625">
        <ele>53</ele>
        <time>2018-11-04T07:27:12.000Z</time>
      </trkpt>
      <trkpt lat="39.494035" lon="-0.450576">
        <ele>53</ele>
        <time>2018-11-04T07:27:13.000Z</time>
      </trkpt>
      <trkpt lat="39.494097" lon="-0.450554">
        <ele>52.36</ele>
        <time>2018-11-04T07:27:14.000Z</time>
      </trkpt>
      <trkpt lat="39.494162" lon="-0.450553">
        <ele>51.36</ele>
        <time>2018-11-04T07:27:15.000Z</time>
      </trkpt>
      <trkpt lat="39.494226" lon="-0.450554">
        <ele>50.36</ele>
        <time>2018-11-04T07:27:16.000Z</time>
      </trkpt>
      <trkpt lat="39.494291" lon="-0.450544">
        <ele>49.507694731349</ele>
        <time>2018-11-04T07:27:17.000Z</time>
      </trkpt>
      <trkpt lat="39.494355" lon="-0.450522">
        <ele>49</ele>
        <time>2018-11-04T07:27:18.000Z</time>
      </trkpt>
      <trkpt lat="39.49442" lon="-0.450492">
        <ele>48.36</ele>
        <time>2018-11-04T07:27:19.000Z</time>
      </trkpt>
      <trkpt lat="39.494482" lon="-0.450456">
        <ele>48</ele>
        <time>2018-11-04T07:27:20.000Z</time>
      </trkpt>
      <trkpt lat="39.494547" lon="-0.450418">
        <ele>48</ele>
        <time>2018-11-04T07:27:21.000Z</time>
      </trkpt>
      <trkpt lat="39.494614" lon="-0.450379">
        <ele>48</ele>
        <time>2018-11-04T07:27:22.000Z</time>
      </trkpt>
      <trkpt lat="39.49468" lon="-0.450338">
        <ele>48</ele>
        <time>2018-11-04T07:27:23.000Z</time>
      </trkpt>
      <trkpt lat="39.494742" lon="-0.450293">
        <ele>48</ele>
        <time>2018-11-04T07:27:24.000Z</time>
      </trkpt>
      <trkpt lat="39.494802" lon="-0.450254">
        <ele>48</ele>
        <time>2018-11-04T07:27:25.000Z</time>
      </trkpt>
      <trkpt lat="39.494864" lon="-0.450216">
        <ele>47.3725529565305</ele>
        <time>2018-11-04T07:27:26.000Z</time>
      </trkpt>
      <trkpt lat="39.494921" lon="-0.450182">
        <ele>47</ele>
        <time>2018-11-04T07:27:27.000Z</time>
      </trkpt>
      <trkpt lat="39.494982" lon="-0.450147">
        <ele>46.5070399682706</ele>
        <time>2018-11-04T07:27:28.000Z</time>
      </trkpt>
      <trkpt lat="39.495048" lon="-0.450105">
        <ele>46</ele>
        <time>2018-11-04T07:27:29.000Z</time>
      </trkpt>
      <trkpt lat="39.495114" lon="-0.450062">
        <ele>45.36</ele>
        <time>2018-11-04T07:27:30.000Z</time>
      </trkpt>
      <trkpt lat="39.49518" lon="-0.450022">
        <ele>45</ele>
        <time>2018-11-04T07:27:31.000Z</time>
      </trkpt>
      <trkpt lat="39.495245" lon="-0.449982">
        <ele>44.5217415501057</ele>
        <time>2018-11-04T07:27:32.000Z</time>
      </trkpt>
      <trkpt lat="39.49531" lon="-0.449937">
        <ele>44</ele>
        <time>2018-11-04T07:27:33.000Z</time>
      </trkpt>
      <trkpt lat="39.495378" lon="-0.449892">
        <ele>44</ele>
        <time>2018-11-04T07:27:34.000Z</time>
      </trkpt>
      <trkpt lat="39.495445" lon="-0.449851">
        <ele>43.36</ele>
        <time>2018-11-04T07:27:35.000Z</time>
      </trkpt>
      <trkpt lat="39.495514" lon="-0.449814">
        <ele>43</ele>
        <time>2018-11-04T07:27:36.000Z</time>
      </trkpt>
      <trkpt lat="39.495583" lon="-0.449779">
        <ele>42.3725450826358</ele>
        <time>2018-11-04T07:27:37.000Z</time>
      </trkpt>
      <trkpt lat="39.495652" lon="-0.449745">
        <ele>42</ele>
        <time>2018-11-04T07:27:38.000Z</time>
      </trkpt>
      <trkpt lat="39.495722" lon="-0.449708">
        <ele>41.5142810122879</ele>
        <time>2018-11-04T07:27:39.000Z</time>
      </trkpt>
      <trkpt lat="39.495792" lon="-0.449671">
        <ele>41</ele>
        <time>2018-11-04T07:27:40.000Z</time>
      </trkpt>
      <trkpt lat="39.495862" lon="-0.449634">
        <ele>40.36</ele>
        <time>2018-11-04T07:27:41.000Z</time>
      </trkpt>
      <trkpt lat="39.495934" lon="-0.449597">
        <ele>40</ele>
        <time>2018-11-04T07:27:42.000Z</time>
      </trkpt>
      <trkpt lat="39.496004" lon="-0.44956">
        <ele>40</ele>
        <time>2018-11-04T07:27:43.000Z</time>
      </trkpt>
      <trkpt lat="39.496074" lon="-0.449524">
        <ele>39.36</ele>
        <time>2018-11-04T07:27:44.000Z</time>
      </trkpt>
      <trkpt lat="39.496142" lon="-0.449487">
        <ele>39</ele>
        <time>2018-11-04T07:27:45.000Z</time>
      </trkpt>
      <trkpt lat="39.49621" lon="-0.44945">
        <ele>39</ele>
        <time>2018-11-04T07:27:46.000Z</time>
      </trkpt>
      <trkpt lat="39.496276" lon="-0.44941">
        <ele>39</ele>
        <time>2018-11-04T07:27:47.000Z</time>
      </trkpt>
      <trkpt lat="39.496342" lon="-0.449367">
        <ele>38.3663346260107</ele>
        <time>2018-11-04T07:27:48.000Z</time>
      </trkpt>
      <trkpt lat="39.4964" lon="-0.449313">
        <ele>38</ele>
        <time>2018-11-04T07:27:49.000Z</time>
      </trkpt>
      <trkpt lat="39.496452" lon="-0.449245">
        <ele>38</ele>
        <time>2018-11-04T07:27:50.000Z</time>
      </trkpt>
      <trkpt lat="39.496495" lon="-0.44917">
        <ele>38</ele>
        <time>2018-11-04T07:27:51.000Z</time>
      </trkpt>
      <trkpt lat="39.496536" lon="-0.449094">
        <ele>38</ele>
        <time>2018-11-04T07:27:52.000Z</time>
      </trkpt>
      <trkpt lat="39.49658" lon="-0.449023">
        <ele>38</ele>
        <time>2018-11-04T07:27:53.000Z</time>
      </trkpt>
      <trkpt lat="39.496634" lon="-0.448966">
        <ele>38</ele>
        <time>2018-11-04T07:27:54.000Z</time>
      </trkpt>
      <trkpt lat="39.496696" lon="-0.44893">
        <ele>38</ele>
        <time>2018-11-04T07:27:55.000Z</time>
      </trkpt>
      <trkpt lat="39.496764" lon="-0.448921">
        <ele>38</ele>
        <time>2018-11-04T07:27:56.000Z</time>
      </trkpt>
      <trkpt lat="39.496827" lon="-0.44894">
        <ele>38.64</ele>
        <time>2018-11-04T07:27:57.000Z</time>
      </trkpt>
      <trkpt lat="39.496876" lon="-0.448985">
        <ele>39</ele>
        <time>2018-11-04T07:27:58.000Z</time>
      </trkpt>
      <trkpt lat="39.496914" lon="-0.44905">
        <ele>39</ele>
        <time>2018-11-04T07:27:59.000Z</time>
      </trkpt>
      <trkpt lat="39.496935" lon="-0.449126">
        <ele>39.4857095836305</ele>
        <time>2018-11-04T07:28:00.000Z</time>
      </trkpt>
      <trkpt lat="39.496936" lon="-0.449206">
        <ele>40</ele>
        <time>2018-11-04T07:28:01.000Z</time>
      </trkpt>
      <trkpt lat="39.49692" lon="-0.449284">
        <ele>40</ele>
        <time>2018-11-04T07:28:02.000Z</time>
      </trkpt>
      <trkpt lat="39.496887" lon="-0.44935">
        <ele>40</ele>
        <time>2018-11-04T07:28:03.000Z</time>
      </trkpt>
      <trkpt lat="39.496839" lon="-0.449399">
        <ele>40</ele>
        <time>2018-11-04T07:28:04.000Z</time>
      </trkpt>
      <trkpt lat="39.496784" lon="-0.449429">
        <ele>40</ele>
        <time>2018-11-04T07:28:05.000Z</time>
      </trkpt>
      <trkpt lat="39.496724" lon="-0.449444">
        <ele>40</ele>
        <time>2018-11-04T07:28:06.000Z</time>
      </trkpt>
      <trkpt lat="39.496664" lon="-0.449452">
        <ele>40</ele>
        <time>2018-11-04T07:28:07.000Z</time>
      </trkpt>
      <trkpt lat="39.4966" lon="-0.449458">
        <ele>40</ele>
        <time>2018-11-04T07:28:08.000Z</time>
      </trkpt>
      <trkpt lat="39.496537" lon="-0.449469">
        <ele>40</ele>
        <time>2018-11-04T07:28:09.000Z</time>
      </trkpt>
      <trkpt lat="39.496475" lon="-0.449486">
        <ele>40</ele>
        <time>2018-11-04T07:28:10.000Z</time>
      </trkpt>
      <trkpt lat="39.496414" lon="-0.449508">
        <ele>39.36</ele>
        <time>2018-11-04T07:28:11.000Z</time>
      </trkpt>
      <trkpt lat="39.496354" lon="-0.449532">
        <ele>39.64</ele>
        <time>2018-11-04T07:28:12.000Z</time>
      </trkpt>
      <trkpt lat="39.496293" lon="-0.449556">
        <ele>40</ele>
        <time>2018-11-04T07:28:13.000Z</time>
      </trkpt>
      <trkpt lat="39.496234" lon="-0.449581">
        <ele>39.36</ele>
        <time>2018-11-04T07:28:14.000Z</time>
      </trkpt>
      <trkpt lat="39.496177" lon="-0.449607">
        <ele>39</ele>
        <time>2018-11-04T07:28:15.000Z</time>
      </trkpt>
      <trkpt lat="39.49612" lon="-0.449635">
        <ele>39</ele>
        <time>2018-11-04T07:28:16.000Z</time>
      </trkpt>
      <trkpt lat="39.496063" lon="-0.449667">
        <ele>38.3663346260107</ele>
        <time>2018-11-04T07:28:17.000Z</time>
      </trkpt>
      <trkpt lat="39.496007" lon="-0.449698">
        <ele>38</ele>
        <time>2018-11-04T07:28:18.000Z</time>
      </trkpt>
      <trkpt lat="39.49595" lon="-0.449729">
        <ele>38</ele>
        <time>2018-11-04T07:28:19.000Z</time>
      </trkpt>
      <trkpt lat="39.495895" lon="-0.449759">
        <ele>37.36</ele>
        <time>2018-11-04T07:28:20.000Z</time>
      </trkpt>
      <trkpt lat="39.49584" lon="-0.44979">
        <ele>37</ele>
        <time>2018-11-04T07:28:21.000Z</time>
      </trkpt>
      <trkpt lat="39.495784" lon="-0.449819">
        <ele>37</ele>
        <time>2018-11-04T07:28:22.000Z</time>
      </trkpt>
      <trkpt lat="39.495728" lon="-0.449849">
        <ele>37</ele>
        <time>2018-11-04T07:28:23.000Z</time>
      </trkpt>
      <trkpt lat="39.495673" lon="-0.449879">
        <ele>37</ele>
        <time>2018-11-04T07:28:24.000Z</time>
      </trkpt>
      <trkpt lat="39.495619" lon="-0.449908">
        <ele>37.4857189877121</ele>
        <time>2018-11-04T07:28:25.000Z</time>
      </trkpt>
      <trkpt lat="39.495565" lon="-0.449936">
        <ele>38</ele>
        <time>2018-11-04T07:28:26.000Z</time>
      </trkpt>
      <trkpt lat="39.495512" lon="-0.449964">
        <ele>38</ele>
        <time>2018-11-04T07:28:27.000Z</time>
      </trkpt>
      <trkpt lat="39.49546" lon="-0.449993">
        <ele>38</ele>
        <time>2018-11-04T07:28:28.000Z</time>
      </trkpt>
      <trkpt lat="39.495407" lon="-0.450022">
        <ele>38</ele>
        <time>2018-11-04T07:28:29.000Z</time>
      </trkpt>
      <trkpt lat="39.495356" lon="-0.450053">
        <ele>38</ele>
        <time>2018-11-04T07:28:30.000Z</time>
      </trkpt>
      <trkpt lat="39.495305" lon="-0.450084">
        <ele>38</ele>
        <time>2018-11-04T07:28:31.000Z</time>
      </trkpt>
      <trkpt lat="39.495254" lon="-0.450116">
        <ele>38.4848484848485</ele>
        <time>2018-11-04T07:28:32.000Z</time>
      </trkpt>
      <trkpt lat="39.495204" lon="-0.450148">
        <ele>39</ele>
        <time>2018-11-04T07:28:33.000Z</time>
      </trkpt>
      <trkpt lat="39.495154" lon="-0.450178">
        <ele>39</ele>
        <time>2018-11-04T07:28:34.000Z</time>
      </trkpt>
      <trkpt lat="39.495104" lon="-0.450205">
        <ele>39.64</ele>
        <time>2018-11-04T07:28:35.000Z</time>
      </trkpt>
      <trkpt lat="39.495054" lon="-0.450231">
        <ele>40</ele>
        <time>2018-11-04T07:28:36.000Z</time>
      </trkpt>
      <trkpt lat="39.495005" lon="-0.450259">
        <ele>40</ele>
        <time>2018-11-04T07:28:37.000Z</time>
      </trkpt>
      <trkpt lat="39.49496" lon="-0.45029">
        <ele>40</ele>
        <time>2018-11-04T07:28:38.000Z</time>
      </trkpt>
      <trkpt lat="39.494929" lon="-0.450327">
        <ele>40</ele>
        <time>2018-11-04T07:28:39.000Z</time>
      </trkpt>
      <trkpt lat="39.494921" lon="-0.450368">
        <ele>40</ele>
        <time>2018-11-04T07:28:40.000Z</time>
      </trkpt>
      <trkpt lat="39.494933" lon="-0.450403">
        <ele>40</ele>
        <time>2018-11-04T07:28:41.000Z</time>
      </trkpt>
      <trkpt lat="39.494959" lon="-0.450417">
        <ele>40</ele>
        <time>2018-11-04T07:28:42.000Z</time>
      </trkpt>
      <trkpt lat="39.494991" lon="-0.450423">
        <ele>40</ele>
        <time>2018-11-04T07:28:43.000Z</time>
      </trkpt>
      <trkpt lat="39.495027" lon="-0.450432">
        <ele>40</ele>
        <time>2018-11-04T07:28:44.000Z</time>
      </trkpt>
      <trkpt lat="39.495065" lon="-0.45044">
        <ele>40.4782584498943</ele>
        <time>2018-11-04T07:28:45.000Z</time>
      </trkpt>
      <trkpt lat="39.495104" lon="-0.450457">
        <ele>40.3725529565305</ele>
        <time>2018-11-04T07:28:46.000Z</time>
      </trkpt>
      <trkpt lat="39.495144" lon="-0.450481">
        <ele>40</ele>
        <time>2018-11-04T07:28:47.000Z</time>
      </trkpt>
      <trkpt lat="39.495185" lon="-0.450508">
        <ele>40</ele>
        <time>2018-11-04T07:28:48.000Z</time>
      </trkpt>
      <trkpt lat="39.495233" lon="-0.450542">
        <ele>40</ele>
        <time>2018-11-04T07:28:49.000Z</time>
      </trkpt>
      <trkpt lat="39.495288" lon="-0.450586">
        <ele>40</ele>
        <time>2018-11-04T07:28:50.000Z</time>
      </trkpt>
      <trkpt lat="39.495347" lon="-0.450632">
        <ele>40</ele>
        <time>2018-11-04T07:28:51.000Z</time>
      </trkpt>
      <trkpt lat="39.495408" lon="-0.450678">
        <ele>39.36</ele>
        <time>2018-11-04T07:28:52.000Z</time>
      </trkpt>
      <trkpt lat="39.495467" lon="-0.450722">
        <ele>39</ele>
        <time>2018-11-04T07:28:53.000Z</time>
      </trkpt>
      <trkpt lat="39.495526" lon="-0.450766">
        <ele>39</ele>
        <time>2018-11-04T07:28:54.000Z</time>
      </trkpt>
      <trkpt lat="39.495582" lon="-0.450811">
        <ele>39</ele>
        <time>2018-11-04T07:28:55.000Z</time>
      </trkpt>
      <trkpt lat="39.495639" lon="-0.450859">
        <ele>39</ele>
        <time>2018-11-04T07:28:56.000Z</time>
      </trkpt>
      <trkpt lat="39.495694" lon="-0.450904">
        <ele>39</ele>
        <time>2018-11-04T07:28:57.000Z</time>
      </trkpt>
      <trkpt lat="39.495749" lon="-0.450949">
        <ele>39.64</ele>
        <time>2018-11-04T07:28:58.000Z</time>
      </trkpt>
      <trkpt lat="39.495801" lon="-0.450993">
        <ele>39.36</ele>
        <time>2018-11-04T07:28:59.000Z</time>
      </trkpt>
      <trkpt lat="39.495853" lon="-0.451035">
        <ele>39</ele>
        <time>2018-11-04T07:29:00.000Z</time>
      </trkpt>
      <trkpt lat="39.495905" lon="-0.451079">
        <ele>39.4782584498943</ele>
        <time>2018-11-04T07:29:01.000Z</time>
      </trkpt>
      <trkpt lat="39.495959" lon="-0.45112">
        <ele>40</ele>
        <time>2018-11-04T07:29:02.000Z</time>
      </trkpt>
      <trkpt lat="39.496009" lon="-0.451158">
        <ele>40</ele>
        <time>2018-11-04T07:29:03.000Z</time>
      </trkpt>
      <trkpt lat="39.496058" lon="-0.451198">
        <ele>40</ele>
        <time>2018-11-04T07:29:04.000Z</time>
      </trkpt>
      <trkpt lat="39.496107" lon="-0.451236">
        <ele>40</ele>
        <time>2018-11-04T07:29:05.000Z</time>
      </trkpt>
      <trkpt lat="39.496155" lon="-0.451275">
        <ele>40</ele>
        <time>2018-11-04T07:29:06.000Z</time>
      </trkpt>
      <trkpt lat="39.496203" lon="-0.451313">
        <ele>40</ele>
        <time>2018-11-04T07:29:07.000Z</time>
      </trkpt>
      <trkpt lat="39.49625" lon="-0.451353">
        <ele>40</ele>
        <time>2018-11-04T07:29:08.000Z</time>
      </trkpt>
      <trkpt lat="39.496297" lon="-0.451392">
        <ele>40</ele>
        <time>2018-11-04T07:29:09.000Z</time>
      </trkpt>
      <trkpt lat="39.496345" lon="-0.45143">
        <ele>40</ele>
        <time>2018-11-04T07:29:10.000Z</time>
      </trkpt>
      <trkpt lat="39.496394" lon="-0.451467">
        <ele>40</ele>
        <time>2018-11-04T07:29:11.000Z</time>
      </trkpt>
      <trkpt lat="39.496442" lon="-0.451506">
        <ele>39.36</ele>
        <time>2018-11-04T07:29:12.000Z</time>
      </trkpt>
      <trkpt lat="39.49649" lon="-0.451546">
        <ele>39</ele>
        <time>2018-11-04T07:29:13.000Z</time>
      </trkpt>
      <trkpt lat="39.496538" lon="-0.451584">
        <ele>39</ele>
        <time>2018-11-04T07:29:14.000Z</time>
      </trkpt>
      <trkpt lat="39.496585" lon="-0.451623">
        <ele>39</ele>
        <time>2018-11-04T07:29:15.000Z</time>
      </trkpt>
      <trkpt lat="39.496632" lon="-0.451662">
        <ele>39</ele>
        <time>2018-11-04T07:29:16.000Z</time>
      </trkpt>
      <trkpt lat="39.496679" lon="-0.451701">
        <ele>39</ele>
        <time>2018-11-04T07:29:17.000Z</time>
      </trkpt>
      <trkpt lat="39.496724" lon="-0.451739">
        <ele>38.5187958346967</ele>
        <time>2018-11-04T07:29:18.000Z</time>
      </trkpt>
      <trkpt lat="39.496772" lon="-0.451778">
        <ele>38</ele>
        <time>2018-11-04T07:29:19.000Z</time>
      </trkpt>
      <trkpt lat="39.496821" lon="-0.451817">
        <ele>38</ele>
        <time>2018-11-04T07:29:20.000Z</time>
      </trkpt>
      <trkpt lat="39.496872" lon="-0.451855">
        <ele>38</ele>
        <time>2018-11-04T07:29:21.000Z</time>
      </trkpt>
      <trkpt lat="39.496921" lon="-0.451895">
        <ele>38</ele>
        <time>2018-11-04T07:29:22.000Z</time>
      </trkpt>
      <trkpt lat="39.496969" lon="-0.451936">
        <ele>38</ele>
        <time>2018-11-04T07:29:23.000Z</time>
      </trkpt>
      <trkpt lat="39.497018" lon="-0.451977">
        <ele>38</ele>
        <time>2018-11-04T07:29:24.000Z</time>
      </trkpt>
      <trkpt lat="39.497069" lon="-0.452017">
        <ele>38</ele>
        <time>2018-11-04T07:29:25.000Z</time>
      </trkpt>
      <trkpt lat="39.497119" lon="-0.452058">
        <ele>38</ele>
        <time>2018-11-04T07:29:26.000Z</time>
      </trkpt>
      <trkpt lat="39.497169" lon="-0.4521">
        <ele>38.4929600317294</ele>
        <time>2018-11-04T07:29:27.000Z</time>
      </trkpt>
      <trkpt lat="39.497219" lon="-0.452139">
        <ele>39</ele>
        <time>2018-11-04T07:29:28.000Z</time>
      </trkpt>
      <trkpt lat="39.49727" lon="-0.452177">
        <ele>39</ele>
        <time>2018-11-04T07:29:29.000Z</time>
      </trkpt>
      <trkpt lat="39.49732" lon="-0.452217">
        <ele>39</ele>
        <time>2018-11-04T07:29:30.000Z</time>
      </trkpt>
      <trkpt lat="39.497371" lon="-0.452256">
        <ele>39</ele>
        <time>2018-11-04T07:29:31.000Z</time>
      </trkpt>
      <trkpt lat="39.497422" lon="-0.452294">
        <ele>39</ele>
        <time>2018-11-04T07:29:32.000Z</time>
      </trkpt>
      <trkpt lat="39.497472" lon="-0.452332">
        <ele>39</ele>
        <time>2018-11-04T07:29:33.000Z</time>
      </trkpt>
      <trkpt lat="39.497522" lon="-0.452371">
        <ele>39.64</ele>
        <time>2018-11-04T07:29:34.000Z</time>
      </trkpt>
      <trkpt lat="39.497574" lon="-0.452413">
        <ele>40</ele>
        <time>2018-11-04T07:29:35.000Z</time>
      </trkpt>
      <trkpt lat="39.497626" lon="-0.452452">
        <ele>40</ele>
        <time>2018-11-04T07:29:36.000Z</time>
      </trkpt>
      <trkpt lat="39.497678" lon="-0.452491">
        <ele>40</ele>
        <time>2018-11-04T07:29:37.000Z</time>
      </trkpt>
      <trkpt lat="39.497729" lon="-0.452532">
        <ele>40</ele>
        <time>2018-11-04T07:29:38.000Z</time>
      </trkpt>
      <trkpt lat="39.497779" lon="-0.452573">
        <ele>40</ele>
        <time>2018-11-04T07:29:39.000Z</time>
      </trkpt>
      <trkpt lat="39.497827" lon="-0.452614">
        <ele>40</ele>
        <time>2018-11-04T07:29:40.000Z</time>
      </trkpt>
      <trkpt lat="39.497876" lon="-0.452656">
        <ele>40</ele>
        <time>2018-11-04T07:29:41.000Z</time>
      </trkpt>
      <trkpt lat="39.497924" lon="-0.452696">
        <ele>40</ele>
        <time>2018-11-04T07:29:42.000Z</time>
      </trkpt>
      <trkpt lat="39.497974" lon="-0.452735">
        <ele>40.5039357381147</ele>
        <time>2018-11-04T07:29:43.000Z</time>
      </trkpt>
      <trkpt lat="39.498025" lon="-0.452774">
        <ele>41</ele>
        <time>2018-11-04T07:29:44.000Z</time>
      </trkpt>
      <trkpt lat="39.498074" lon="-0.452812">
        <ele>41.64</ele>
        <time>2018-11-04T07:29:45.000Z</time>
      </trkpt>
      <trkpt lat="39.498123" lon="-0.452853">
        <ele>42</ele>
        <time>2018-11-04T07:29:46.000Z</time>
      </trkpt>
      <trkpt lat="39.498174" lon="-0.452893">
        <ele>42</ele>
        <time>2018-11-04T07:29:47.000Z</time>
      </trkpt>
      <trkpt lat="39.498225" lon="-0.452932">
        <ele>42</ele>
        <time>2018-11-04T07:29:48.000Z</time>
      </trkpt>
      <trkpt lat="39.498275" lon="-0.452969">
        <ele>42</ele>
        <time>2018-11-04T07:29:49.000Z</time>
      </trkpt>
      <trkpt lat="39.498323" lon="-0.453009">
        <ele>42</ele>
        <time>2018-11-04T07:29:50.000Z</time>
      </trkpt>
      <trkpt lat="39.498371" lon="-0.453051">
        <ele>42</ele>
        <time>2018-11-04T07:29:51.000Z</time>
      </trkpt>
      <trkpt lat="39.498419" lon="-0.453094">
        <ele>42</ele>
        <time>2018-11-04T07:29:52.000Z</time>
      </trkpt>
      <trkpt lat="39.49847" lon="-0.453133">
        <ele>42</ele>
        <time>2018-11-04T07:29:53.000Z</time>
      </trkpt>
      <trkpt lat="39.49852" lon="-0.453169">
        <ele>42</ele>
        <time>2018-11-04T07:29:54.000Z</time>
      </trkpt>
      <trkpt lat="39.49857" lon="-0.453204">
        <ele>42</ele>
        <time>2018-11-04T07:29:55.000Z</time>
      </trkpt>
      <trkpt lat="39.498618" lon="-0.453241">
        <ele>42</ele>
        <time>2018-11-04T07:29:56.000Z</time>
      </trkpt>
      <trkpt lat="39.498667" lon="-0.453279">
        <ele>42</ele>
        <time>2018-11-04T07:29:57.000Z</time>
      </trkpt>
      <trkpt lat="39.498717" lon="-0.453316">
        <ele>42.64</ele>
        <time>2018-11-04T07:29:58.000Z</time>
      </trkpt>
      <trkpt lat="39.498767" lon="-0.453353">
        <ele>43</ele>
        <time>2018-11-04T07:29:59.000Z</time>
      </trkpt>
      <trkpt lat="39.498816" lon="-0.453389">
        <ele>43</ele>
        <time>2018-11-04T07:30:00.000Z</time>
      </trkpt>
      <trkpt lat="39.498866" lon="-0.453426">
        <ele>43</ele>
        <time>2018-11-04T07:30:01.000Z</time>
      </trkpt>
      <trkpt lat="39.498914" lon="-0.453461">
        <ele>43</ele>
        <time>2018-11-04T07:30:02.000Z</time>
      </trkpt>
      <trkpt lat="39.498963" lon="-0.453496">
        <ele>43.64</ele>
        <time>2018-11-04T07:30:03.000Z</time>
      </trkpt>
      <trkpt lat="39.499011" lon="-0.453529">
        <ele>44</ele>
        <time>2018-11-04T07:30:04.000Z</time>
      </trkpt>
      <trkpt lat="39.49906" lon="-0.453561">
        <ele>44</ele>
        <time>2018-11-04T07:30:05.000Z</time>
      </trkpt>
      <trkpt lat="39.499109" lon="-0.453592">
        <ele>44</ele>
        <time>2018-11-04T07:30:06.000Z</time>
      </trkpt>
      <trkpt lat="39.499159" lon="-0.453624">
        <ele>44</ele>
        <time>2018-11-04T07:30:07.000Z</time>
      </trkpt>
      <trkpt lat="39.499206" lon="-0.453656">
        <ele>44</ele>
        <time>2018-11-04T07:30:08.000Z</time>
      </trkpt>
      <trkpt lat="39.499253" lon="-0.453689">
        <ele>44</ele>
        <time>2018-11-04T07:30:09.000Z</time>
      </trkpt>
      <trkpt lat="39.499299" lon="-0.453724">
        <ele>43.5038747382939</ele>
        <time>2018-11-04T07:30:10.000Z</time>
      </trkpt>
      <trkpt lat="39.499343" lon="-0.453763">
        <ele>43.4929600317294</ele>
        <time>2018-11-04T07:30:11.000Z</time>
      </trkpt>
      <trkpt lat="39.499387" lon="-0.453802">
        <ele>44</ele>
        <time>2018-11-04T07:30:12.000Z</time>
      </trkpt>
      <trkpt lat="39.499429" lon="-0.453844">
        <ele>44</ele>
        <time>2018-11-04T07:30:13.000Z</time>
      </trkpt>
      <trkpt lat="39.499472" lon="-0.453889">
        <ele>44</ele>
        <time>2018-11-04T07:30:14.000Z</time>
      </trkpt>
      <trkpt lat="39.499515" lon="-0.453933">
        <ele>44</ele>
        <time>2018-11-04T07:30:15.000Z</time>
      </trkpt>
      <trkpt lat="39.499557" lon="-0.453975">
        <ele>44</ele>
        <time>2018-11-04T07:30:16.000Z</time>
      </trkpt>
      <trkpt lat="39.4996" lon="-0.454015">
        <ele>44</ele>
        <time>2018-11-04T07:30:17.000Z</time>
      </trkpt>
      <trkpt lat="39.499644" lon="-0.454052">
        <ele>44</ele>
        <time>2018-11-04T07:30:18.000Z</time>
      </trkpt>
      <trkpt lat="39.499688" lon="-0.454086">
        <ele>44</ele>
        <time>2018-11-04T07:30:19.000Z</time>
      </trkpt>
      <trkpt lat="39.499732" lon="-0.45412">
        <ele>44</ele>
        <time>2018-11-04T07:30:20.000Z</time>
      </trkpt>
      <trkpt lat="39.499776" lon="-0.454153">
        <ele>44</ele>
        <time>2018-11-04T07:30:21.000Z</time>
      </trkpt>
      <trkpt lat="39.499821" lon="-0.454186">
        <ele>44</ele>
        <time>2018-11-04T07:30:22.000Z</time>
      </trkpt>
      <trkpt lat="39.499867" lon="-0.454221">
        <ele>44</ele>
        <time>2018-11-04T07:30:23.000Z</time>
      </trkpt>
      <trkpt lat="39.499912" lon="-0.454257">
        <ele>44</ele>
        <time>2018-11-04T07:30:24.000Z</time>
      </trkpt>
      <trkpt lat="39.499957" lon="-0.454293">
        <ele>44</ele>
        <time>2018-11-04T07:30:25.000Z</time>
      </trkpt>
      <trkpt lat="39.500004" lon="-0.45433">
        <ele>44</ele>
        <time>2018-11-04T07:30:26.000Z</time>
      </trkpt>
      <trkpt lat="39.50005" lon="-0.454365">
        <ele>44</ele>
        <time>2018-11-04T07:30:27.000Z</time>
      </trkpt>
      <trkpt lat="39.500095" lon="-0.4544">
        <ele>44.64</ele>
        <time>2018-11-04T07:30:28.000Z</time>
      </trkpt>
      <trkpt lat="39.500141" lon="-0.454436">
        <ele>45</ele>
        <time>2018-11-04T07:30:29.000Z</time>
      </trkpt>
      <trkpt lat="39.500187" lon="-0.454472">
        <ele>45</ele>
        <time>2018-11-04T07:30:30.000Z</time>
      </trkpt>
      <trkpt lat="39.500232" lon="-0.454506">
        <ele>45</ele>
        <time>2018-11-04T07:30:31.000Z</time>
      </trkpt>
      <trkpt lat="39.500278" lon="-0.454541">
        <ele>45</ele>
        <time>2018-11-04T07:30:32.000Z</time>
      </trkpt>
      <trkpt lat="39.500322" lon="-0.454574">
        <ele>45</ele>
        <time>2018-11-04T07:30:33.000Z</time>
      </trkpt>
      <trkpt lat="39.500365" lon="-0.454607">
        <ele>45</ele>
        <time>2018-11-04T07:30:34.000Z</time>
      </trkpt>
      <trkpt lat="39.500408" lon="-0.45464">
        <ele>45</ele>
        <time>2018-11-04T07:30:35.000Z</time>
      </trkpt>
      <trkpt lat="39.50045" lon="-0.454669">
        <ele>45</ele>
        <time>2018-11-04T07:30:36.000Z</time>
      </trkpt>
      <trkpt lat="39.500493" lon="-0.454699">
        <ele>45</ele>
        <time>2018-11-04T07:30:37.000Z</time>
      </trkpt>
      <trkpt lat="39.50054" lon="-0.454731">
        <ele>45</ele>
        <time>2018-11-04T07:30:38.000Z</time>
      </trkpt>
      <trkpt lat="39.500593" lon="-0.454765">
        <ele>45</ele>
        <time>2018-11-04T07:30:39.000Z</time>
      </trkpt>
      <trkpt lat="39.500646" lon="-0.4548">
        <ele>45</ele>
        <time>2018-11-04T07:30:40.000Z</time>
      </trkpt>
      <trkpt lat="39.5007" lon="-0.454835">
        <ele>45</ele>
        <time>2018-11-04T07:30:41.000Z</time>
      </trkpt>
      <trkpt lat="39.500755" lon="-0.454872">
        <ele>45</ele>
        <time>2018-11-04T07:30:42.000Z</time>
      </trkpt>
      <trkpt lat="39.500805" lon="-0.454909">
        <ele>45.64</ele>
        <time>2018-11-04T07:30:43.000Z</time>
      </trkpt>
      <trkpt lat="39.500856" lon="-0.454946">
        <ele>46</ele>
        <time>2018-11-04T07:30:44.000Z</time>
      </trkpt>
      <trkpt lat="39.500907" lon="-0.454981">
        <ele>46</ele>
        <time>2018-11-04T07:30:45.000Z</time>
      </trkpt>
      <trkpt lat="39.500958" lon="-0.455017">
        <ele>46</ele>
        <time>2018-11-04T07:30:46.000Z</time>
      </trkpt>
      <trkpt lat="39.501009" lon="-0.455053">
        <ele>46</ele>
        <time>2018-11-04T07:30:47.000Z</time>
      </trkpt>
      <trkpt lat="39.501059" lon="-0.455091">
        <ele>46</ele>
        <time>2018-11-04T07:30:48.000Z</time>
      </trkpt>
      <trkpt lat="39.501109" lon="-0.455127">
        <ele>46</ele>
        <time>2018-11-04T07:30:49.000Z</time>
      </trkpt>
      <trkpt lat="39.501157" lon="-0.455163">
        <ele>46</ele>
        <time>2018-11-04T07:30:50.000Z</time>
      </trkpt>
      <trkpt lat="39.501205" lon="-0.4552">
        <ele>46</ele>
        <time>2018-11-04T07:30:51.000Z</time>
      </trkpt>
      <trkpt lat="39.501253" lon="-0.455237">
        <ele>46</ele>
        <time>2018-11-04T07:30:52.000Z</time>
      </trkpt>
      <trkpt lat="39.501301" lon="-0.455274">
        <ele>46</ele>
        <time>2018-11-04T07:30:53.000Z</time>
      </trkpt>
      <trkpt lat="39.501349" lon="-0.455312">
        <ele>46</ele>
        <time>2018-11-04T07:30:54.000Z</time>
      </trkpt>
      <trkpt lat="39.501399" lon="-0.455353">
        <ele>46</ele>
        <time>2018-11-04T07:30:55.000Z</time>
      </trkpt>
      <trkpt lat="39.501449" lon="-0.455392">
        <ele>45.5187958346967</ele>
        <time>2018-11-04T07:30:56.000Z</time>
      </trkpt>
      <trkpt lat="39.501499" lon="-0.45543">
        <ele>45</ele>
        <time>2018-11-04T07:30:57.000Z</time>
      </trkpt>
      <trkpt lat="39.50155" lon="-0.455467">
        <ele>44.36</ele>
        <time>2018-11-04T07:30:58.000Z</time>
      </trkpt>
      <trkpt lat="39.501603" lon="-0.455501">
        <ele>44</ele>
        <time>2018-11-04T07:30:59.000Z</time>
      </trkpt>
      <trkpt lat="39.501654" lon="-0.455532">
        <ele>43.47107298135</ele>
        <time>2018-11-04T07:31:00.000Z</time>
      </trkpt>
      <trkpt lat="39.501702" lon="-0.455563">
        <ele>43</ele>
        <time>2018-11-04T07:31:01.000Z</time>
      </trkpt>
      <trkpt lat="39.50175" lon="-0.455601">
        <ele>43.64</ele>
        <time>2018-11-04T07:31:02.000Z</time>
      </trkpt>
      <trkpt lat="39.501795" lon="-0.455639">
        <ele>44</ele>
        <time>2018-11-04T07:31:03.000Z</time>
      </trkpt>
      <trkpt lat="39.501841" lon="-0.455679">
        <ele>44</ele>
        <time>2018-11-04T07:31:04.000Z</time>
      </trkpt>
      <trkpt lat="39.501883" lon="-0.455715">
        <ele>44.5</ele>
        <time>2018-11-04T07:31:05.000Z</time>
      </trkpt>
      <trkpt lat="39.501923" lon="-0.455746">
        <ele>45</ele>
        <time>2018-11-04T07:31:06.000Z</time>
      </trkpt>
      <trkpt lat="39.501962" lon="-0.45578">
        <ele>45</ele>
        <time>2018-11-04T07:31:07.000Z</time>
      </trkpt>
      <trkpt lat="39.502005" lon="-0.455813">
        <ele>45</ele>
        <time>2018-11-04T07:31:08.000Z</time>
      </trkpt>
      <trkpt lat="39.50205" lon="-0.455849">
        <ele>45</ele>
        <time>2018-11-04T07:31:09.000Z</time>
      </trkpt>
      <trkpt lat="39.502097" lon="-0.455885">
        <ele>45</ele>
        <time>2018-11-04T07:31:10.000Z</time>
      </trkpt>
      <trkpt lat="39.502143" lon="-0.45592">
        <ele>45</ele>
        <time>2018-11-04T07:31:11.000Z</time>
      </trkpt>
      <trkpt lat="39.502188" lon="-0.455956">
        <ele>45</ele>
        <time>2018-11-04T07:31:12.000Z</time>
      </trkpt>
      <trkpt lat="39.502233" lon="-0.455995">
        <ele>45</ele>
        <time>2018-11-04T07:31:13.000Z</time>
      </trkpt>
      <trkpt lat="39.502278" lon="-0.456034">
        <ele>45</ele>
        <time>2018-11-04T07:31:14.000Z</time>
      </trkpt>
      <trkpt lat="39.502324" lon="-0.456075">
        <ele>45</ele>
        <time>2018-11-04T07:31:15.000Z</time>
      </trkpt>
      <trkpt lat="39.502369" lon="-0.456117">
        <ele>45.5068471533026</ele>
        <time>2018-11-04T07:31:16.000Z</time>
      </trkpt>
      <trkpt lat="39.502411" lon="-0.456166">
        <ele>46</ele>
        <time>2018-11-04T07:31:17.000Z</time>
      </trkpt>
      <trkpt lat="39.502451" lon="-0.456218">
        <ele>46</ele>
        <time>2018-11-04T07:31:18.000Z</time>
      </trkpt>
      <trkpt lat="39.502491" lon="-0.456269">
        <ele>46</ele>
        <time>2018-11-04T07:31:19.000Z</time>
      </trkpt>
      <trkpt lat="39.502529" lon="-0.456313">
        <ele>46.64</ele>
        <time>2018-11-04T07:31:20.000Z</time>
      </trkpt>
      <trkpt lat="39.502563" lon="-0.456348">
        <ele>47</ele>
        <time>2018-11-04T07:31:21.000Z</time>
      </trkpt>
      <trkpt lat="39.502591" lon="-0.456379">
        <ele>47</ele>
        <time>2018-11-04T07:31:22.000Z</time>
      </trkpt>
      <trkpt lat="39.502621" lon="-0.45641">
        <ele>47.64</ele>
        <time>2018-11-04T07:31:23.000Z</time>
      </trkpt>
      <trkpt lat="39.502654" lon="-0.456439">
        <ele>48</ele>
        <time>2018-11-04T07:31:24.000Z</time>
      </trkpt>
      <trkpt lat="39.502689" lon="-0.456471">
        <ele>47.5038747382939</ele>
        <time>2018-11-04T07:31:25.000Z</time>
      </trkpt>
      <trkpt lat="39.502726" lon="-0.456505">
        <ele>47.4929600317294</ele>
        <time>2018-11-04T07:31:26.000Z</time>
      </trkpt>
      <trkpt lat="39.502763" lon="-0.456537">
        <ele>48</ele>
        <time>2018-11-04T07:31:27.000Z</time>
      </trkpt>
      <trkpt lat="39.5028" lon="-0.456574">
        <ele>48</ele>
        <time>2018-11-04T07:31:28.000Z</time>
      </trkpt>
      <trkpt lat="39.502837" lon="-0.456613">
        <ele>48</ele>
        <time>2018-11-04T07:31:29.000Z</time>
      </trkpt>
      <trkpt lat="39.502873" lon="-0.456652">
        <ele>48</ele>
        <time>2018-11-04T07:31:30.000Z</time>
      </trkpt>
      <trkpt lat="39.502908" lon="-0.456692">
        <ele>48</ele>
        <time>2018-11-04T07:31:31.000Z</time>
      </trkpt>
      <trkpt lat="39.502943" lon="-0.45673">
        <ele>48.64</ele>
        <time>2018-11-04T07:31:32.000Z</time>
      </trkpt>
      <trkpt lat="39.502979" lon="-0.456768">
        <ele>48.36</ele>
        <time>2018-11-04T07:31:33.000Z</time>
      </trkpt>
      <trkpt lat="39.503016" lon="-0.456806">
        <ele>48.5039357381147</ele>
        <time>2018-11-04T07:31:34.000Z</time>
      </trkpt>
      <trkpt lat="39.503054" lon="-0.456842">
        <ele>48.6300032</ele>
        <time>2018-11-04T07:31:35.000Z</time>
      </trkpt>
      <trkpt lat="39.503091" lon="-0.45688">
        <ele>48</ele>
        <time>2018-11-04T07:31:36.000Z</time>
      </trkpt>
      <trkpt lat="39.503131" lon="-0.456916">
        <ele>48</ele>
        <time>2018-11-04T07:31:37.000Z</time>
      </trkpt>
      <trkpt lat="39.503174" lon="-0.45695">
        <ele>48</ele>
        <time>2018-11-04T07:31:38.000Z</time>
      </trkpt>
      <trkpt lat="39.503219" lon="-0.456986">
        <ele>48</ele>
        <time>2018-11-04T07:31:39.000Z</time>
      </trkpt>
      <trkpt lat="39.503263" lon="-0.457023">
        <ele>48</ele>
        <time>2018-11-04T07:31:40.000Z</time>
      </trkpt>
      <trkpt lat="39.503306" lon="-0.457063">
        <ele>48</ele>
        <time>2018-11-04T07:31:41.000Z</time>
      </trkpt>
      <trkpt lat="39.503349" lon="-0.457102">
        <ele>48</ele>
        <time>2018-11-04T07:31:42.000Z</time>
      </trkpt>
      <trkpt lat="39.503393" lon="-0.457141">
        <ele>48</ele>
        <time>2018-11-04T07:31:43.000Z</time>
      </trkpt>
      <trkpt lat="39.503436" lon="-0.45718">
        <ele>48</ele>
        <time>2018-11-04T07:31:44.000Z</time>
      </trkpt>
      <trkpt lat="39.503478" lon="-0.457219">
        <ele>48</ele>
        <time>2018-11-04T07:31:45.000Z</time>
      </trkpt>
      <trkpt lat="39.503521" lon="-0.457261">
        <ele>48</ele>
        <time>2018-11-04T07:31:46.000Z</time>
      </trkpt>
      <trkpt lat="39.503563" lon="-0.457302">
        <ele>48</ele>
        <time>2018-11-04T07:31:47.000Z</time>
      </trkpt>
      <trkpt lat="39.503606" lon="-0.457344">
        <ele>48</ele>
        <time>2018-11-04T07:31:48.000Z</time>
      </trkpt>
      <trkpt lat="39.503648" lon="-0.457384">
        <ele>48</ele>
        <time>2018-11-04T07:31:49.000Z</time>
      </trkpt>
      <trkpt lat="39.503689" lon="-0.457427">
        <ele>48</ele>
        <time>2018-11-04T07:31:50.000Z</time>
      </trkpt>
      <trkpt lat="39.503732" lon="-0.457469">
        <ele>48</ele>
        <time>2018-11-04T07:31:51.000Z</time>
      </trkpt>
      <trkpt lat="39.503774" lon="-0.457508">
        <ele>48</ele>
        <time>2018-11-04T07:31:52.000Z</time>
      </trkpt>
      <trkpt lat="39.503815" lon="-0.457548">
        <ele>48</ele>
        <time>2018-11-04T07:31:53.000Z</time>
      </trkpt>
      <trkpt lat="39.503856" lon="-0.45759">
        <ele>48</ele>
        <time>2018-11-04T07:31:54.000Z</time>
      </trkpt>
      <trkpt lat="39.503894" lon="-0.457633">
        <ele>48</ele>
        <time>2018-11-04T07:31:55.000Z</time>
      </trkpt>
      <trkpt lat="39.503932" lon="-0.457674">
        <ele>48.4929600317294</ele>
        <time>2018-11-04T07:31:56.000Z</time>
      </trkpt>
      <trkpt lat="39.50397" lon="-0.45771">
        <ele>49</ele>
        <time>2018-11-04T07:31:57.000Z</time>
      </trkpt>
      <trkpt lat="39.504007" lon="-0.457743">
        <ele>49</ele>
        <time>2018-11-04T07:31:58.000Z</time>
      </trkpt>
      <trkpt lat="39.504047" lon="-0.457785">
        <ele>49</ele>
        <time>2018-11-04T07:31:59.000Z</time>
      </trkpt>
      <trkpt lat="39.504087" lon="-0.45783">
        <ele>49</ele>
        <time>2018-11-04T07:32:00.000Z</time>
      </trkpt>
      <trkpt lat="39.504126" lon="-0.457874">
        <ele>49</ele>
        <time>2018-11-04T07:32:01.000Z</time>
      </trkpt>
      <trkpt lat="39.504164" lon="-0.457918">
        <ele>49</ele>
        <time>2018-11-04T07:32:02.000Z</time>
      </trkpt>
      <trkpt lat="39.5042" lon="-0.457968">
        <ele>49.64</ele>
        <time>2018-11-04T07:32:03.000Z</time>
      </trkpt>
      <trkpt lat="39.504238" lon="-0.458016">
        <ele>50</ele>
        <time>2018-11-04T07:32:04.000Z</time>
      </trkpt>
      <trkpt lat="39.504279" lon="-0.458066">
        <ele>50</ele>
        <time>2018-11-04T07:32:05.000Z</time>
      </trkpt>
      <trkpt lat="39.504322" lon="-0.458115">
        <ele>50</ele>
        <time>2018-11-04T07:32:06.000Z</time>
      </trkpt>
      <trkpt lat="39.504363" lon="-0.458165">
        <ele>50.64</ele>
        <time>2018-11-04T07:32:07.000Z</time>
      </trkpt>
      <trkpt lat="39.504404" lon="-0.458218">
        <ele>51</ele>
        <time>2018-11-04T07:32:08.000Z</time>
      </trkpt>
      <trkpt lat="39.504445" lon="-0.458274">
        <ele>51</ele>
        <time>2018-11-04T07:32:09.000Z</time>
      </trkpt>
      <trkpt lat="39.504485" lon="-0.45833">
        <ele>51</ele>
        <time>2018-11-04T07:32:10.000Z</time>
      </trkpt>
      <trkpt lat="39.504526" lon="-0.458388">
        <ele>51.64</ele>
        <time>2018-11-04T07:32:11.000Z</time>
      </trkpt>
      <trkpt lat="39.504569" lon="-0.458444">
        <ele>52</ele>
        <time>2018-11-04T07:32:12.000Z</time>
      </trkpt>
      <trkpt lat="39.504616" lon="-0.4585">
        <ele>52</ele>
        <time>2018-11-04T07:32:13.000Z</time>
      </trkpt>
      <trkpt lat="39.504666" lon="-0.458548">
        <ele>52</ele>
        <time>2018-11-04T07:32:14.000Z</time>
      </trkpt>
      <trkpt lat="39.504718" lon="-0.458596">
        <ele>52</ele>
        <time>2018-11-04T07:32:15.000Z</time>
      </trkpt>
      <trkpt lat="39.504771" lon="-0.45865">
        <ele>51.3636351882499</ele>
        <time>2018-11-04T07:32:16.000Z</time>
      </trkpt>
      <trkpt lat="39.504825" lon="-0.458702">
        <ele>51.64</ele>
        <time>2018-11-04T07:32:17.000Z</time>
      </trkpt>
      <trkpt lat="39.504875" lon="-0.458751">
        <ele>52.64</ele>
        <time>2018-11-04T07:32:18.000Z</time>
      </trkpt>
      <trkpt lat="39.504918" lon="-0.458794">
        <ele>53</ele>
        <time>2018-11-04T07:32:19.000Z</time>
      </trkpt>
      <trkpt lat="39.504973" lon="-0.458827">
        <ele>53.64</ele>
        <time>2018-11-04T07:32:20.000Z</time>
      </trkpt>
      <trkpt lat="39.505027" lon="-0.458851">
        <ele>54</ele>
        <time>2018-11-04T07:32:21.000Z</time>
      </trkpt>
      <trkpt lat="39.505083" lon="-0.458874">
        <ele>54</ele>
        <time>2018-11-04T07:32:22.000Z</time>
      </trkpt>
      <trkpt lat="39.505139" lon="-0.458905">
        <ele>54.64</ele>
        <time>2018-11-04T07:32:23.000Z</time>
      </trkpt>
      <trkpt lat="39.505192" lon="-0.458939">
        <ele>55</ele>
        <time>2018-11-04T07:32:24.000Z</time>
      </trkpt>
      <trkpt lat="39.505246" lon="-0.458984">
        <ele>55.64</ele>
        <time>2018-11-04T07:32:25.000Z</time>
      </trkpt>
      <trkpt lat="39.505295" lon="-0.459032">
        <ele>56</ele>
        <time>2018-11-04T07:32:26.000Z</time>
      </trkpt>
      <trkpt lat="39.505334" lon="-0.459086">
        <ele>56</ele>
        <time>2018-11-04T07:32:27.000Z</time>
      </trkpt>
      <trkpt lat="39.505368" lon="-0.459136">
        <ele>56.64</ele>
        <time>2018-11-04T07:32:28.000Z</time>
      </trkpt>
      <trkpt lat="39.505409" lon="-0.459179">
        <ele>56.5114515750801</ele>
        <time>2018-11-04T07:32:29.000Z</time>
      </trkpt>
      <trkpt lat="39.505459" lon="-0.459209">
        <ele>56</ele>
        <time>2018-11-04T07:32:30.000Z</time>
      </trkpt>
      <trkpt lat="39.505516" lon="-0.459222">
        <ele>55.5038747382939</ele>
        <time>2018-11-04T07:32:31.000Z</time>
      </trkpt>
      <trkpt lat="39.505575" lon="-0.45922">
        <ele>54.5070399682706</ele>
        <time>2018-11-04T07:32:32.000Z</time>
      </trkpt>
      <trkpt lat="39.505635" lon="-0.459204">
        <ele>54</ele>
        <time>2018-11-04T07:32:33.000Z</time>
      </trkpt>
      <trkpt lat="39.505696" lon="-0.459192">
        <ele>53.36</ele>
        <time>2018-11-04T07:32:34.000Z</time>
      </trkpt>
      <trkpt lat="39.505755" lon="-0.45918">
        <ele>53</ele>
        <time>2018-11-04T07:32:35.000Z</time>
      </trkpt>
      <trkpt lat="39.505812" lon="-0.459173">
        <ele>52.36</ele>
        <time>2018-11-04T07:32:36.000Z</time>
      </trkpt>
      <trkpt lat="39.505869" lon="-0.459172">
        <ele>52</ele>
        <time>2018-11-04T07:32:37.000Z</time>
      </trkpt>
      <trkpt lat="39.505923" lon="-0.459178">
        <ele>52.4961252617061</ele>
        <time>2018-11-04T07:32:38.000Z</time>
      </trkpt>
      <trkpt lat="39.505976" lon="-0.45919">
        <ele>53</ele>
        <time>2018-11-04T07:32:39.000Z</time>
      </trkpt>
      <trkpt lat="39.506027" lon="-0.459209">
        <ele>53</ele>
        <time>2018-11-04T07:32:40.000Z</time>
      </trkpt>
      <trkpt lat="39.506078" lon="-0.459229">
        <ele>53.64</ele>
        <time>2018-11-04T07:32:41.000Z</time>
      </trkpt>
      <trkpt lat="39.506128" lon="-0.459252">
        <ele>54</ele>
        <time>2018-11-04T07:32:42.000Z</time>
      </trkpt>
      <trkpt lat="39.506178" lon="-0.459274">
        <ele>54</ele>
        <time>2018-11-04T07:32:43.000Z</time>
      </trkpt>
      <trkpt lat="39.506226" lon="-0.459296">
        <ele>54</ele>
        <time>2018-11-04T07:32:44.000Z</time>
      </trkpt>
      <trkpt lat="39.506275" lon="-0.459319">
        <ele>54.6336653739893</ele>
        <time>2018-11-04T07:32:45.000Z</time>
      </trkpt>
      <trkpt lat="39.506322" lon="-0.459346">
        <ele>55</ele>
        <time>2018-11-04T07:32:46.000Z</time>
      </trkpt>
      <trkpt lat="39.506374" lon="-0.459378">
        <ele>55</ele>
        <time>2018-11-04T07:32:47.000Z</time>
      </trkpt>
      <trkpt lat="39.506422" lon="-0.45941">
        <ele>55</ele>
        <time>2018-11-04T07:32:48.000Z</time>
      </trkpt>
      <trkpt lat="39.50647" lon="-0.459442">
        <ele>55.4929600317294</ele>
        <time>2018-11-04T07:32:49.000Z</time>
      </trkpt>
      <trkpt lat="39.506518" lon="-0.459474">
        <ele>56</ele>
        <time>2018-11-04T07:32:50.000Z</time>
      </trkpt>
      <trkpt lat="39.506563" lon="-0.459505">
        <ele>56</ele>
        <time>2018-11-04T07:32:51.000Z</time>
      </trkpt>
      <trkpt lat="39.506607" lon="-0.459536">
        <ele>56</ele>
        <time>2018-11-04T07:32:52.000Z</time>
      </trkpt>
      <trkpt lat="39.506644" lon="-0.459563">
        <ele>56.64</ele>
        <time>2018-11-04T07:32:53.000Z</time>
      </trkpt>
      <trkpt lat="39.506679" lon="-0.459588">
        <ele>57</ele>
        <time>2018-11-04T07:32:54.000Z</time>
      </trkpt>
      <trkpt lat="39.506715" lon="-0.459608">
        <ele>56.36</ele>
        <time>2018-11-04T07:32:55.000Z</time>
      </trkpt>
      <trkpt lat="39.506748" lon="-0.459615">
        <ele>56</ele>
        <time>2018-11-04T07:32:56.000Z</time>
      </trkpt>
      <trkpt lat="39.506772" lon="-0.459617">
        <ele>56</ele>
        <time>2018-11-04T07:32:57.000Z</time>
      </trkpt>
      <trkpt lat="39.506799" lon="-0.459617">
        <ele>56</ele>
        <time>2018-11-04T07:32:58.000Z</time>
      </trkpt>
      <trkpt lat="39.506824" lon="-0.459606">
        <ele>56</ele>
        <time>2018-11-04T07:32:59.000Z</time>
      </trkpt>
      <trkpt lat="39.506854" lon="-0.459587">
        <ele>56.4961252617061</ele>
        <time>2018-11-04T07:33:00.000Z</time>
      </trkpt>
      <trkpt lat="39.506884" lon="-0.459562">
        <ele>57</ele>
        <time>2018-11-04T07:33:01.000Z</time>
      </trkpt>
      <trkpt lat="39.50691" lon="-0.459526">
        <ele>57</ele>
        <time>2018-11-04T07:33:02.000Z</time>
      </trkpt>
      <trkpt lat="39.50693" lon="-0.459479">
        <ele>57</ele>
        <time>2018-11-04T07:33:03.000Z</time>
      </trkpt>
      <trkpt lat="39.506946" lon="-0.459422">
        <ele>56.36</ele>
        <time>2018-11-04T07:33:04.000Z</time>
      </trkpt>
      <trkpt lat="39.506962" lon="-0.459364">
        <ele>56</ele>
        <time>2018-11-04T07:33:05.000Z</time>
      </trkpt>
      <trkpt lat="39.506992" lon="-0.459322">
        <ele>56</ele>
        <time>2018-11-04T07:33:06.000Z</time>
      </trkpt>
      <trkpt lat="39.507034" lon="-0.459311">
        <ele>56</ele>
        <time>2018-11-04T07:33:07.000Z</time>
      </trkpt>
      <trkpt lat="39.507074" lon="-0.459333">
        <ele>56</ele>
        <time>2018-11-04T07:33:08.000Z</time>
      </trkpt>
      <trkpt lat="39.507109" lon="-0.459368">
        <ele>56</ele>
        <time>2018-11-04T07:33:09.000Z</time>
      </trkpt>
      <trkpt lat="39.507142" lon="-0.459407">
        <ele>56</ele>
        <time>2018-11-04T07:33:10.000Z</time>
      </trkpt>
      <trkpt lat="39.507173" lon="-0.459448">
        <ele>56</ele>
        <time>2018-11-04T07:33:11.000Z</time>
      </trkpt>
      <trkpt lat="39.5072" lon="-0.459487">
        <ele>56</ele>
        <time>2018-11-04T07:33:12.000Z</time>
      </trkpt>
      <trkpt lat="39.507226" lon="-0.459523">
        <ele>56</ele>
        <time>2018-11-04T07:33:13.000Z</time>
      </trkpt>
      <trkpt lat="39.507253" lon="-0.459561">
        <ele>56</ele>
        <time>2018-11-04T07:33:14.000Z</time>
      </trkpt>
      <trkpt lat="39.507279" lon="-0.459599">
        <ele>56</ele>
        <time>2018-11-04T07:33:15.000Z</time>
      </trkpt>
      <trkpt lat="39.507309" lon="-0.45964">
        <ele>56</ele>
        <time>2018-11-04T07:33:16.000Z</time>
      </trkpt>
      <trkpt lat="39.507409" lon="-0.459726">
        <ele>57</ele>
        <time>2018-11-04T07:33:19.000Z</time>
      </trkpt>
      <trkpt lat="39.507484" lon="-0.459794">
        <ele>58</ele>
        <time>2018-11-04T07:33:21.000Z</time>
      </trkpt>
      <trkpt lat="39.507532" lon="-0.459885">
        <ele>57.36</ele>
        <time>2018-11-04T07:33:23.000Z</time>
      </trkpt>
      <trkpt lat="39.507547" lon="-0.459938">
        <ele>57</ele>
        <time>2018-11-04T07:33:24.000Z</time>
      </trkpt>
      <trkpt lat="39.507558" lon="-0.459986">
        <ele>57</ele>
        <time>2018-11-04T07:33:25.000Z</time>
      </trkpt>
      <trkpt lat="39.50756" lon="-0.460032">
        <ele>57.64</ele>
        <time>2018-11-04T07:33:26.000Z</time>
      </trkpt>
      <trkpt lat="39.50756" lon="-0.46008">
        <ele>58</ele>
        <time>2018-11-04T07:33:27.000Z</time>
      </trkpt>
      <trkpt lat="39.507557" lon="-0.46013">
        <ele>58.5039357381147</ele>
        <time>2018-11-04T07:33:28.000Z</time>
      </trkpt>
      <trkpt lat="39.507556" lon="-0.460179">
        <ele>59</ele>
        <time>2018-11-04T07:33:29.000Z</time>
      </trkpt>
      <trkpt lat="39.50756" lon="-0.460221">
        <ele>59.64</ele>
        <time>2018-11-04T07:33:30.000Z</time>
      </trkpt>
      <trkpt lat="39.507567" lon="-0.460262">
        <ele>60</ele>
        <time>2018-11-04T07:33:31.000Z</time>
      </trkpt>
      <trkpt lat="39.507571" lon="-0.460299">
        <ele>60</ele>
        <time>2018-11-04T07:33:32.000Z</time>
      </trkpt>
      <trkpt lat="39.507571" lon="-0.460333">
        <ele>60.64</ele>
        <time>2018-11-04T07:33:33.000Z</time>
      </trkpt>
      <trkpt lat="39.507576" lon="-0.46036">
        <ele>61</ele>
        <time>2018-11-04T07:33:34.000Z</time>
      </trkpt>
      <trkpt lat="39.507589" lon="-0.460405">
        <ele>62</ele>
        <time>2018-11-04T07:33:36.000Z</time>
      </trkpt>
      <trkpt lat="39.507599" lon="-0.460431">
        <ele>62</ele>
        <time>2018-11-04T07:33:37.000Z</time>
      </trkpt>
      <trkpt lat="39.507611" lon="-0.460463">
        <ele>62</ele>
        <time>2018-11-04T07:33:38.000Z</time>
      </trkpt>
      <trkpt lat="39.507628" lon="-0.460499">
        <ele>62.64</ele>
        <time>2018-11-04T07:33:39.000Z</time>
      </trkpt>
      <trkpt lat="39.507647" lon="-0.460536">
        <ele>62.5114515750801</ele>
        <time>2018-11-04T07:33:40.000Z</time>
      </trkpt>
      <trkpt lat="39.507671" lon="-0.460572">
        <ele>62</ele>
        <time>2018-11-04T07:33:41.000Z</time>
      </trkpt>
      <trkpt lat="39.507691" lon="-0.46061">
        <ele>62</ele>
        <time>2018-11-04T07:33:42.000Z</time>
      </trkpt>
      <trkpt lat="39.507712" lon="-0.46065">
        <ele>62</ele>
        <time>2018-11-04T07:33:43.000Z</time>
      </trkpt>
      <trkpt lat="39.507733" lon="-0.460688">
        <ele>62</ele>
        <time>2018-11-04T07:33:44.000Z</time>
      </trkpt>
      <trkpt lat="39.507757" lon="-0.460726">
        <ele>62</ele>
        <time>2018-11-04T07:33:45.000Z</time>
      </trkpt>
      <trkpt lat="39.507783" lon="-0.460765">
        <ele>62</ele>
        <time>2018-11-04T07:33:46.000Z</time>
      </trkpt>
      <trkpt lat="39.507809" lon="-0.460805">
        <ele>62</ele>
        <time>2018-11-04T07:33:47.000Z</time>
      </trkpt>
      <trkpt lat="39.507835" lon="-0.460846">
        <ele>62</ele>
        <time>2018-11-04T07:33:48.000Z</time>
      </trkpt>
      <trkpt lat="39.507861" lon="-0.460888">
        <ele>62</ele>
        <time>2018-11-04T07:33:49.000Z</time>
      </trkpt>
      <trkpt lat="39.507886" lon="-0.46093">
        <ele>62</ele>
        <time>2018-11-04T07:33:50.000Z</time>
      </trkpt>
      <trkpt lat="39.507912" lon="-0.460973">
        <ele>62</ele>
        <time>2018-11-04T07:33:51.000Z</time>
      </trkpt>
      <trkpt lat="39.507936" lon="-0.461016">
        <ele>62</ele>
        <time>2018-11-04T07:33:52.000Z</time>
      </trkpt>
      <trkpt lat="39.50796" lon="-0.461058">
        <ele>62</ele>
        <time>2018-11-04T07:33:53.000Z</time>
      </trkpt>
      <trkpt lat="39.507984" lon="-0.4611">
        <ele>62</ele>
        <time>2018-11-04T07:33:54.000Z</time>
      </trkpt>
      <trkpt lat="39.508008" lon="-0.461142">
        <ele>62</ele>
        <time>2018-11-04T07:33:55.000Z</time>
      </trkpt>
      <trkpt lat="39.508035" lon="-0.461183">
        <ele>62</ele>
        <time>2018-11-04T07:33:56.000Z</time>
      </trkpt>
      <trkpt lat="39.508058" lon="-0.461226">
        <ele>62</ele>
        <time>2018-11-04T07:33:57.000Z</time>
      </trkpt>
      <trkpt lat="39.50808" lon="-0.461271">
        <ele>62.64</ele>
        <time>2018-11-04T07:33:58.000Z</time>
      </trkpt>
      <trkpt lat="39.5081" lon="-0.461316">
        <ele>63</ele>
        <time>2018-11-04T07:33:59.000Z</time>
      </trkpt>
      <trkpt lat="39.508121" lon="-0.461364">
        <ele>63</ele>
        <time>2018-11-04T07:34:00.000Z</time>
      </trkpt>
      <trkpt lat="39.508143" lon="-0.461411">
        <ele>62.36</ele>
        <time>2018-11-04T07:34:01.000Z</time>
      </trkpt>
      <trkpt lat="39.508167" lon="-0.461456">
        <ele>62</ele>
        <time>2018-11-04T07:34:02.000Z</time>
      </trkpt>
      <trkpt lat="39.508192" lon="-0.461502">
        <ele>62</ele>
        <time>2018-11-04T07:34:03.000Z</time>
      </trkpt>
      <trkpt lat="39.508217" lon="-0.461547">
        <ele>62.6274470434695</ele>
        <time>2018-11-04T07:34:04.000Z</time>
      </trkpt>
      <trkpt lat="39.508239" lon="-0.461592">
        <ele>63</ele>
        <time>2018-11-04T07:34:05.000Z</time>
      </trkpt>
      <trkpt lat="39.508263" lon="-0.461636">
        <ele>63.3699968</ele>
        <time>2018-11-04T07:34:06.000Z</time>
      </trkpt>
      <trkpt lat="39.508285" lon="-0.461681">
        <ele>64</ele>
        <time>2018-11-04T07:34:07.000Z</time>
      </trkpt>
      <trkpt lat="39.508308" lon="-0.461729">
        <ele>64</ele>
        <time>2018-11-04T07:34:08.000Z</time>
      </trkpt>
      <trkpt lat="39.508334" lon="-0.461777">
        <ele>64</ele>
        <time>2018-11-04T07:34:09.000Z</time>
      </trkpt>
      <trkpt lat="39.508359" lon="-0.461825">
        <ele>64</ele>
        <time>2018-11-04T07:34:10.000Z</time>
      </trkpt>
      <trkpt lat="39.508383" lon="-0.461875">
        <ele>64</ele>
        <time>2018-11-04T07:34:11.000Z</time>
      </trkpt>
      <trkpt lat="39.508407" lon="-0.461926">
        <ele>64</ele>
        <time>2018-11-04T07:34:12.000Z</time>
      </trkpt>
      <trkpt lat="39.508433" lon="-0.461976">
        <ele>64</ele>
        <time>2018-11-04T07:34:13.000Z</time>
      </trkpt>
      <trkpt lat="39.508459" lon="-0.462026">
        <ele>64</ele>
        <time>2018-11-04T07:34:14.000Z</time>
      </trkpt>
      <trkpt lat="39.508485" lon="-0.462078">
        <ele>64</ele>
        <time>2018-11-04T07:34:15.000Z</time>
      </trkpt>
      <trkpt lat="39.508508" lon="-0.462131">
        <ele>64</ele>
        <time>2018-11-04T07:34:16.000Z</time>
      </trkpt>
      <trkpt lat="39.508529" lon="-0.462186">
        <ele>64</ele>
        <time>2018-11-04T07:34:17.000Z</time>
      </trkpt>
      <trkpt lat="39.508551" lon="-0.46224">
        <ele>64.6274470434695</ele>
        <time>2018-11-04T07:34:18.000Z</time>
      </trkpt>
      <trkpt lat="39.508576" lon="-0.462292">
        <ele>65</ele>
        <time>2018-11-04T07:34:19.000Z</time>
      </trkpt>
      <trkpt lat="39.508601" lon="-0.462345">
        <ele>64.36</ele>
        <time>2018-11-04T07:34:20.000Z</time>
      </trkpt>
      <trkpt lat="39.508625" lon="-0.4624">
        <ele>64</ele>
        <time>2018-11-04T07:34:21.000Z</time>
      </trkpt>
      <trkpt lat="39.508647" lon="-0.462455">
        <ele>64</ele>
        <time>2018-11-04T07:34:22.000Z</time>
      </trkpt>
      <trkpt lat="39.50867" lon="-0.46251">
        <ele>64</ele>
        <time>2018-11-04T07:34:23.000Z</time>
      </trkpt>
      <trkpt lat="39.508695" lon="-0.462565">
        <ele>64</ele>
        <time>2018-11-04T07:34:24.000Z</time>
      </trkpt>
      <trkpt lat="39.50872" lon="-0.46262">
        <ele>64</ele>
        <time>2018-11-04T07:34:25.000Z</time>
      </trkpt>
      <trkpt lat="39.508744" lon="-0.462675">
        <ele>64</ele>
        <time>2018-11-04T07:34:26.000Z</time>
      </trkpt>
      <trkpt lat="39.508769" lon="-0.462731">
        <ele>64</ele>
        <time>2018-11-04T07:34:27.000Z</time>
      </trkpt>
      <trkpt lat="39.508797" lon="-0.462787">
        <ele>64</ele>
        <time>2018-11-04T07:34:28.000Z</time>
      </trkpt>
      <trkpt lat="39.508823" lon="-0.462842">
        <ele>64</ele>
        <time>2018-11-04T07:34:29.000Z</time>
      </trkpt>
      <trkpt lat="39.508848" lon="-0.462899">
        <ele>64</ele>
        <time>2018-11-04T07:34:30.000Z</time>
      </trkpt>
      <trkpt lat="39.50887" lon="-0.462958">
        <ele>64</ele>
        <time>2018-11-04T07:34:31.000Z</time>
      </trkpt>
      <trkpt lat="39.508892" lon="-0.463017">
        <ele>64</ele>
        <time>2018-11-04T07:34:32.000Z</time>
      </trkpt>
      <trkpt lat="39.508914" lon="-0.463077">
        <ele>64.6336653739893</ele>
        <time>2018-11-04T07:34:33.000Z</time>
      </trkpt>
      <trkpt lat="39.508936" lon="-0.463136">
        <ele>65</ele>
        <time>2018-11-04T07:34:34.000Z</time>
      </trkpt>
      <trkpt lat="39.508961" lon="-0.463193">
        <ele>65</ele>
        <time>2018-11-04T07:34:35.000Z</time>
      </trkpt>
      <trkpt lat="39.508986" lon="-0.463248">
        <ele>65</ele>
        <time>2018-11-04T07:34:36.000Z</time>
      </trkpt>
      <trkpt lat="39.509009" lon="-0.463304">
        <ele>65</ele>
        <time>2018-11-04T07:34:37.000Z</time>
      </trkpt>
      <trkpt lat="39.509032" lon="-0.463361">
        <ele>65</ele>
        <time>2018-11-04T07:34:38.000Z</time>
      </trkpt>
      <trkpt lat="39.509055" lon="-0.463415">
        <ele>65</ele>
        <time>2018-11-04T07:34:39.000Z</time>
      </trkpt>
      <trkpt lat="39.509081" lon="-0.463469">
        <ele>65</ele>
        <time>2018-11-04T07:34:40.000Z</time>
      </trkpt>
      <trkpt lat="39.509104" lon="-0.463523">
        <ele>65</ele>
        <time>2018-11-04T07:34:41.000Z</time>
      </trkpt>
      <trkpt lat="39.509126" lon="-0.463575">
        <ele>65.64</ele>
        <time>2018-11-04T07:34:42.000Z</time>
      </trkpt>
      <trkpt lat="39.509144" lon="-0.463628">
        <ele>65.36</ele>
        <time>2018-11-04T07:34:43.000Z</time>
      </trkpt>
      <trkpt lat="39.509156" lon="-0.463683">
        <ele>65</ele>
        <time>2018-11-04T07:34:44.000Z</time>
      </trkpt>
      <trkpt lat="39.509161" lon="-0.463742">
        <ele>65.5068471533026</ele>
        <time>2018-11-04T07:34:45.000Z</time>
      </trkpt>
      <trkpt lat="39.509164" lon="-0.463803">
        <ele>66</ele>
        <time>2018-11-04T07:34:46.000Z</time>
      </trkpt>
      <trkpt lat="39.509171" lon="-0.463863">
        <ele>66.5</ele>
        <time>2018-11-04T07:34:47.000Z</time>
      </trkpt>
      <trkpt lat="39.509177" lon="-0.463925">
        <ele>67</ele>
        <time>2018-11-04T07:34:48.000Z</time>
      </trkpt>
      <trkpt lat="39.509184" lon="-0.463986">
        <ele>67</ele>
        <time>2018-11-04T07:34:49.000Z</time>
      </trkpt>
      <trkpt lat="39.50919" lon="-0.464046">
        <ele>67.64</ele>
        <time>2018-11-04T07:34:50.000Z</time>
      </trkpt>
      <trkpt lat="39.509197" lon="-0.464108">
        <ele>68</ele>
        <time>2018-11-04T07:34:51.000Z</time>
      </trkpt>
      <trkpt lat="39.509202" lon="-0.464169">
        <ele>68.6326554602092</ele>
        <time>2018-11-04T07:34:52.000Z</time>
      </trkpt>
      <trkpt lat="39.50921" lon="-0.464229">
        <ele>69</ele>
        <time>2018-11-04T07:34:53.000Z</time>
      </trkpt>
      <trkpt lat="39.50922" lon="-0.464292">
        <ele>69</ele>
        <time>2018-11-04T07:34:54.000Z</time>
      </trkpt>
      <trkpt lat="39.509229" lon="-0.464355">
        <ele>69</ele>
        <time>2018-11-04T07:34:55.000Z</time>
      </trkpt>
      <trkpt lat="39.509234" lon="-0.464418">
        <ele>69.64</ele>
        <time>2018-11-04T07:34:56.000Z</time>
      </trkpt>
      <trkpt lat="39.50924" lon="-0.464481">
        <ele>70</ele>
        <time>2018-11-04T07:34:57.000Z</time>
      </trkpt>
      <trkpt lat="39.509246" lon="-0.464544">
        <ele>70</ele>
        <time>2018-11-04T07:34:58.000Z</time>
      </trkpt>
      <trkpt lat="39.509252" lon="-0.464607">
        <ele>70</ele>
        <time>2018-11-04T07:34:59.000Z</time>
      </trkpt>
      <trkpt lat="39.509258" lon="-0.46467">
        <ele>70</ele>
        <time>2018-11-04T07:35:00.000Z</time>
      </trkpt>
      <trkpt lat="39.509267" lon="-0.464734">
        <ele>70</ele>
        <time>2018-11-04T07:35:01.000Z</time>
      </trkpt>
      <trkpt lat="39.509274" lon="-0.464796">
        <ele>70</ele>
        <time>2018-11-04T07:35:02.000Z</time>
      </trkpt>
      <trkpt lat="39.50928" lon="-0.464855">
        <ele>70</ele>
        <time>2018-11-04T07:35:03.000Z</time>
      </trkpt>
      <trkpt lat="39.509286" lon="-0.464917">
        <ele>70</ele>
        <time>2018-11-04T07:35:04.000Z</time>
      </trkpt>
      <trkpt lat="39.509295" lon="-0.464985">
        <ele>69.36</ele>
        <time>2018-11-04T07:35:05.000Z</time>
      </trkpt>
      <trkpt lat="39.509303" lon="-0.465049">
        <ele>69</ele>
        <time>2018-11-04T07:35:06.000Z</time>
      </trkpt>
      <trkpt lat="39.509313" lon="-0.465114">
        <ele>69</ele>
        <time>2018-11-04T07:35:07.000Z</time>
      </trkpt>
      <trkpt lat="39.509325" lon="-0.465178">
        <ele>69</ele>
        <time>2018-11-04T07:35:08.000Z</time>
      </trkpt>
      <trkpt lat="39.509337" lon="-0.46524">
        <ele>68.36</ele>
        <time>2018-11-04T07:35:09.000Z</time>
      </trkpt>
      <trkpt lat="39.50935" lon="-0.465299">
        <ele>68</ele>
        <time>2018-11-04T07:35:10.000Z</time>
      </trkpt>
      <trkpt lat="39.509364" lon="-0.465357">
        <ele>68</ele>
        <time>2018-11-04T07:35:11.000Z</time>
      </trkpt>
      <trkpt lat="39.509379" lon="-0.465414">
        <ele>68</ele>
        <time>2018-11-04T07:35:12.000Z</time>
      </trkpt>
      <trkpt lat="39.509393" lon="-0.465473">
        <ele>68</ele>
        <time>2018-11-04T07:35:13.000Z</time>
      </trkpt>
      <trkpt lat="39.509414" lon="-0.465528">
        <ele>68</ele>
        <time>2018-11-04T07:35:14.000Z</time>
      </trkpt>
      <trkpt lat="39.509433" lon="-0.465582">
        <ele>68</ele>
        <time>2018-11-04T07:35:15.000Z</time>
      </trkpt>
      <trkpt lat="39.509455" lon="-0.465639">
        <ele>68.64</ele>
        <time>2018-11-04T07:35:16.000Z</time>
      </trkpt>
      <trkpt lat="39.509478" lon="-0.465694">
        <ele>69</ele>
        <time>2018-11-04T07:35:17.000Z</time>
      </trkpt>
      <trkpt lat="39.5095" lon="-0.465741">
        <ele>69</ele>
        <time>2018-11-04T07:35:18.000Z</time>
      </trkpt>
      <trkpt lat="39.509525" lon="-0.46579">
        <ele>69</ele>
        <time>2018-11-04T07:35:19.000Z</time>
      </trkpt>
      <trkpt lat="39.509549" lon="-0.465837">
        <ele>69.64</ele>
        <time>2018-11-04T07:35:20.000Z</time>
      </trkpt>
      <trkpt lat="39.509577" lon="-0.465882">
        <ele>70</ele>
        <time>2018-11-04T07:35:21.000Z</time>
      </trkpt>
      <trkpt lat="39.509604" lon="-0.465925">
        <ele>70</ele>
        <time>2018-11-04T07:35:22.000Z</time>
      </trkpt>
      <trkpt lat="39.509631" lon="-0.465967">
        <ele>70.5068471533026</ele>
        <time>2018-11-04T07:35:23.000Z</time>
      </trkpt>
      <trkpt lat="39.509655" lon="-0.466009">
        <ele>71</ele>
        <time>2018-11-04T07:35:24.000Z</time>
      </trkpt>
      <trkpt lat="39.509678" lon="-0.466053">
        <ele>71</ele>
        <time>2018-11-04T07:35:25.000Z</time>
      </trkpt>
      <trkpt lat="39.509704" lon="-0.46609">
        <ele>71</ele>
        <time>2018-11-04T07:35:26.000Z</time>
      </trkpt>
      <trkpt lat="39.509731" lon="-0.466126">
        <ele>71</ele>
        <time>2018-11-04T07:35:27.000Z</time>
      </trkpt>
      <trkpt lat="39.509756" lon="-0.466162">
        <ele>71</ele>
        <time>2018-11-04T07:35:28.000Z</time>
      </trkpt>
      <trkpt lat="39.509781" lon="-0.466195">
        <ele>71.64</ele>
        <time>2018-11-04T07:35:29.000Z</time>
      </trkpt>
      <trkpt lat="39.509805" lon="-0.466228">
        <ele>72</ele>
        <time>2018-11-04T07:35:30.000Z</time>
      </trkpt>
      <trkpt lat="39.509828" lon="-0.466261">
        <ele>72</ele>
        <time>2018-11-04T07:35:31.000Z</time>
      </trkpt>
      <trkpt lat="39.509849" lon="-0.466294">
        <ele>72</ele>
        <time>2018-11-04T07:35:32.000Z</time>
      </trkpt>
      <trkpt lat="39.50987" lon="-0.466328">
        <ele>72</ele>
        <time>2018-11-04T07:35:33.000Z</time>
      </trkpt>
      <trkpt lat="39.509889" lon="-0.466362">
        <ele>72</ele>
        <time>2018-11-04T07:35:34.000Z</time>
      </trkpt>
      <trkpt lat="39.509909" lon="-0.466395">
        <ele>72.64</ele>
        <time>2018-11-04T07:35:35.000Z</time>
      </trkpt>
      <trkpt lat="39.509929" lon="-0.466427">
        <ele>73</ele>
        <time>2018-11-04T07:35:36.000Z</time>
      </trkpt>
      <trkpt lat="39.509948" lon="-0.46646">
        <ele>73</ele>
        <time>2018-11-04T07:35:37.000Z</time>
      </trkpt>
      <trkpt lat="39.509964" lon="-0.466494">
        <ele>72.36</ele>
        <time>2018-11-04T07:35:38.000Z</time>
      </trkpt>
      <trkpt lat="39.509983" lon="-0.466526">
        <ele>72</ele>
        <time>2018-11-04T07:35:39.000Z</time>
      </trkpt>
      <trkpt lat="39.510003" lon="-0.466556">
        <ele>72</ele>
        <time>2018-11-04T07:35:40.000Z</time>
      </trkpt>
      <trkpt lat="39.510022" lon="-0.466586">
        <ele>72.5</ele>
        <time>2018-11-04T07:35:41.000Z</time>
      </trkpt>
      <trkpt lat="39.510041" lon="-0.466616">
        <ele>73</ele>
        <time>2018-11-04T07:35:42.000Z</time>
      </trkpt>
      <trkpt lat="39.51006" lon="-0.466646">
        <ele>73</ele>
        <time>2018-11-04T07:35:43.000Z</time>
      </trkpt>
      <trkpt lat="39.510079" lon="-0.466677">
        <ele>73</ele>
        <time>2018-11-04T07:35:44.000Z</time>
      </trkpt>
      <trkpt lat="39.510096" lon="-0.466711">
        <ele>73</ele>
        <time>2018-11-04T07:35:45.000Z</time>
      </trkpt>
      <trkpt lat="39.510116" lon="-0.466744">
        <ele>73</ele>
        <time>2018-11-04T07:35:46.000Z</time>
      </trkpt>
      <trkpt lat="39.510137" lon="-0.466776">
        <ele>73</ele>
        <time>2018-11-04T07:35:47.000Z</time>
      </trkpt>
      <trkpt lat="39.510157" lon="-0.466808">
        <ele>73</ele>
        <time>2018-11-04T07:35:48.000Z</time>
      </trkpt>
      <trkpt lat="39.510178" lon="-0.466841">
        <ele>73.6363648117501</ele>
        <time>2018-11-04T07:35:49.000Z</time>
      </trkpt>
      <trkpt lat="39.510198" lon="-0.466875">
        <ele>74</ele>
        <time>2018-11-04T07:35:50.000Z</time>
      </trkpt>
      <trkpt lat="39.510217" lon="-0.466908">
        <ele>74</ele>
        <time>2018-11-04T07:35:51.000Z</time>
      </trkpt>
      <trkpt lat="39.510235" lon="-0.466941">
        <ele>74</ele>
        <time>2018-11-04T07:35:52.000Z</time>
      </trkpt>
      <trkpt lat="39.510254" lon="-0.466974">
        <ele>74</ele>
        <time>2018-11-04T07:35:53.000Z</time>
      </trkpt>
      <trkpt lat="39.510273" lon="-0.467006">
        <ele>74.64</ele>
        <time>2018-11-04T07:35:54.000Z</time>
      </trkpt>
      <trkpt lat="39.510292" lon="-0.467036">
        <ele>75</ele>
        <time>2018-11-04T07:35:55.000Z</time>
      </trkpt>
      <trkpt lat="39.510313" lon="-0.467067">
        <ele>75</ele>
        <time>2018-11-04T07:35:56.000Z</time>
      </trkpt>
      <trkpt lat="39.510335" lon="-0.467097">
        <ele>75</ele>
        <time>2018-11-04T07:35:57.000Z</time>
      </trkpt>
      <trkpt lat="39.510356" lon="-0.467129">
        <ele>74.3673445397908</ele>
        <time>2018-11-04T07:35:58.000Z</time>
      </trkpt>
      <trkpt lat="39.510376" lon="-0.467158">
        <ele>74.64</ele>
        <time>2018-11-04T07:35:59.000Z</time>
      </trkpt>
      <trkpt lat="39.510395" lon="-0.467185">
        <ele>75</ele>
        <time>2018-11-04T07:36:00.000Z</time>
      </trkpt>
      <trkpt lat="39.510415" lon="-0.467215">
        <ele>75</ele>
        <time>2018-11-04T07:36:01.000Z</time>
      </trkpt>
      <trkpt lat="39.510436" lon="-0.467245">
        <ele>75</ele>
        <time>2018-11-04T07:36:02.000Z</time>
      </trkpt>
      <trkpt lat="39.510458" lon="-0.467278">
        <ele>75</ele>
        <time>2018-11-04T07:36:03.000Z</time>
      </trkpt>
      <trkpt lat="39.510477" lon="-0.467313">
        <ele>75</ele>
        <time>2018-11-04T07:36:04.000Z</time>
      </trkpt>
      <trkpt lat="39.510495" lon="-0.467347">
        <ele>75.64</ele>
        <time>2018-11-04T07:36:05.000Z</time>
      </trkpt>
      <trkpt lat="39.510515" lon="-0.467381">
        <ele>76</ele>
        <time>2018-11-04T07:36:06.000Z</time>
      </trkpt>
      <trkpt lat="39.510535" lon="-0.467414">
        <ele>76</ele>
        <time>2018-11-04T07:36:07.000Z</time>
      </trkpt>
      <trkpt lat="39.510556" lon="-0.467449">
        <ele>76.64</ele>
        <time>2018-11-04T07:36:08.000Z</time>
      </trkpt>
      <trkpt lat="39.510577" lon="-0.467481">
        <ele>77</ele>
        <time>2018-11-04T07:36:09.000Z</time>
      </trkpt>
      <trkpt lat="39.510599" lon="-0.467514">
        <ele>77</ele>
        <time>2018-11-04T07:36:10.000Z</time>
      </trkpt>
      <trkpt lat="39.510622" lon="-0.467546">
        <ele>77</ele>
        <time>2018-11-04T07:36:11.000Z</time>
      </trkpt>
      <trkpt lat="39.510644" lon="-0.467577">
        <ele>77.64</ele>
        <time>2018-11-04T07:36:12.000Z</time>
      </trkpt>
      <trkpt lat="39.510665" lon="-0.467608">
        <ele>78</ele>
        <time>2018-11-04T07:36:13.000Z</time>
      </trkpt>
      <trkpt lat="39.510688" lon="-0.467639">
        <ele>78</ele>
        <time>2018-11-04T07:36:14.000Z</time>
      </trkpt>
      <trkpt lat="39.510711" lon="-0.467673">
        <ele>78</ele>
        <time>2018-11-04T07:36:15.000Z</time>
      </trkpt>
      <trkpt lat="39.510732" lon="-0.467701">
        <ele>78</ele>
        <time>2018-11-04T07:36:16.000Z</time>
      </trkpt>
      <trkpt lat="39.510753" lon="-0.467729">
        <ele>78</ele>
        <time>2018-11-04T07:36:17.000Z</time>
      </trkpt>
      <trkpt lat="39.510776" lon="-0.467757">
        <ele>78</ele>
        <time>2018-11-04T07:36:18.000Z</time>
      </trkpt>
      <trkpt lat="39.510804" lon="-0.467794">
        <ele>78</ele>
        <time>2018-11-04T07:36:19.000Z</time>
      </trkpt>
      <trkpt lat="39.510831" lon="-0.467831">
        <ele>78</ele>
        <time>2018-11-04T07:36:20.000Z</time>
      </trkpt>
      <trkpt lat="39.510858" lon="-0.467867">
        <ele>78</ele>
        <time>2018-11-04T07:36:21.000Z</time>
      </trkpt>
      <trkpt lat="39.510884" lon="-0.467905">
        <ele>78</ele>
        <time>2018-11-04T07:36:22.000Z</time>
      </trkpt>
      <trkpt lat="39.510906" lon="-0.467942">
        <ele>78</ele>
        <time>2018-11-04T07:36:23.000Z</time>
      </trkpt>
      <trkpt lat="39.510927" lon="-0.467975">
        <ele>78</ele>
        <time>2018-11-04T07:36:24.000Z</time>
      </trkpt>
      <trkpt lat="39.510948" lon="-0.468005">
        <ele>78</ele>
        <time>2018-11-04T07:36:25.000Z</time>
      </trkpt>
      <trkpt lat="39.510971" lon="-0.468032">
        <ele>78</ele>
        <time>2018-11-04T07:36:26.000Z</time>
      </trkpt>
      <trkpt lat="39.510993" lon="-0.468057">
        <ele>78</ele>
        <time>2018-11-04T07:36:27.000Z</time>
      </trkpt>
      <trkpt lat="39.511016" lon="-0.46808">
        <ele>78.64</ele>
        <time>2018-11-04T07:36:28.000Z</time>
      </trkpt>
      <trkpt lat="39.511041" lon="-0.468103">
        <ele>79</ele>
        <time>2018-11-04T07:36:29.000Z</time>
      </trkpt>
      <trkpt lat="39.511069" lon="-0.468135">
        <ele>79</ele>
        <time>2018-11-04T07:36:30.000Z</time>
      </trkpt>
      <trkpt lat="39.511095" lon="-0.468165">
        <ele>79</ele>
        <time>2018-11-04T07:36:31.000Z</time>
      </trkpt>
      <trkpt lat="39.511121" lon="-0.468197">
        <ele>79</ele>
        <time>2018-11-04T07:36:32.000Z</time>
      </trkpt>
      <trkpt lat="39.511144" lon="-0.468224">
        <ele>79</ele>
        <time>2018-11-04T07:36:33.000Z</time>
      </trkpt>
      <trkpt lat="39.511169" lon="-0.468249">
        <ele>79</ele>
        <time>2018-11-04T07:36:34.000Z</time>
      </trkpt>
      <trkpt lat="39.511199" lon="-0.468278">
        <ele>79</ele>
        <time>2018-11-04T07:36:35.000Z</time>
      </trkpt>
      <trkpt lat="39.511223" lon="-0.468305">
        <ele>79</ele>
        <time>2018-11-04T07:36:36.000Z</time>
      </trkpt>
      <trkpt lat="39.511246" lon="-0.468328">
        <ele>79</ele>
        <time>2018-11-04T07:36:37.000Z</time>
      </trkpt>
      <trkpt lat="39.511273" lon="-0.468349">
        <ele>79</ele>
        <time>2018-11-04T07:36:38.000Z</time>
      </trkpt>
      <trkpt lat="39.5113" lon="-0.468371">
        <ele>79</ele>
        <time>2018-11-04T07:36:39.000Z</time>
      </trkpt>
      <trkpt lat="39.511331" lon="-0.468395">
        <ele>78.36</ele>
        <time>2018-11-04T07:36:40.000Z</time>
      </trkpt>
      <trkpt lat="39.511359" lon="-0.468425">
        <ele>78</ele>
        <time>2018-11-04T07:36:41.000Z</time>
      </trkpt>
      <trkpt lat="39.511384" lon="-0.468458">
        <ele>78</ele>
        <time>2018-11-04T07:36:42.000Z</time>
      </trkpt>
      <trkpt lat="39.511406" lon="-0.468487">
        <ele>78</ele>
        <time>2018-11-04T07:36:43.000Z</time>
      </trkpt>
      <trkpt lat="39.511427" lon="-0.468515">
        <ele>78.64</ele>
        <time>2018-11-04T07:36:44.000Z</time>
      </trkpt>
      <trkpt lat="39.51145" lon="-0.468542">
        <ele>79</ele>
        <time>2018-11-04T07:36:45.000Z</time>
      </trkpt>
      <trkpt lat="39.511475" lon="-0.46857">
        <ele>79</ele>
        <time>2018-11-04T07:36:46.000Z</time>
      </trkpt>
      <trkpt lat="39.511499" lon="-0.468594">
        <ele>79</ele>
        <time>2018-11-04T07:36:47.000Z</time>
      </trkpt>
      <trkpt lat="39.511523" lon="-0.468613">
        <ele>79</ele>
        <time>2018-11-04T07:36:48.000Z</time>
      </trkpt>
      <trkpt lat="39.511549" lon="-0.468627">
        <ele>79.64</ele>
        <time>2018-11-04T07:36:49.000Z</time>
      </trkpt>
      <trkpt lat="39.511573" lon="-0.468652">
        <ele>80</ele>
        <time>2018-11-04T07:36:50.000Z</time>
      </trkpt>
      <trkpt lat="39.511598" lon="-0.468674">
        <ele>80</ele>
        <time>2018-11-04T07:36:51.000Z</time>
      </trkpt>
      <trkpt lat="39.511624" lon="-0.468691">
        <ele>80</ele>
        <time>2018-11-04T07:36:52.000Z</time>
      </trkpt>
      <trkpt lat="39.511649" lon="-0.468708">
        <ele>80</ele>
        <time>2018-11-04T07:36:53.000Z</time>
      </trkpt>
      <trkpt lat="39.511673" lon="-0.468731">
        <ele>80</ele>
        <time>2018-11-04T07:36:54.000Z</time>
      </trkpt>
      <trkpt lat="39.511699" lon="-0.468748">
        <ele>80</ele>
        <time>2018-11-04T07:36:55.000Z</time>
      </trkpt>
      <trkpt lat="39.511727" lon="-0.468765">
        <ele>80</ele>
        <time>2018-11-04T07:36:56.000Z</time>
      </trkpt>
      <trkpt lat="39.511755" lon="-0.468792">
        <ele>80</ele>
        <time>2018-11-04T07:36:57.000Z</time>
      </trkpt>
      <trkpt lat="39.51178" lon="-0.468816">
        <ele>80</ele>
        <time>2018-11-04T07:36:58.000Z</time>
      </trkpt>
      <trkpt lat="39.511806" lon="-0.468841">
        <ele>80</ele>
        <time>2018-11-04T07:36:59.000Z</time>
      </trkpt>
      <trkpt lat="39.511829" lon="-0.468863">
        <ele>80</ele>
        <time>2018-11-04T07:37:00.000Z</time>
      </trkpt>
      <trkpt lat="39.511853" lon="-0.468883">
        <ele>80</ele>
        <time>2018-11-04T07:37:01.000Z</time>
      </trkpt>
      <trkpt lat="39.511878" lon="-0.468902">
        <ele>80</ele>
        <time>2018-11-04T07:37:02.000Z</time>
      </trkpt>
      <trkpt lat="39.511904" lon="-0.468919">
        <ele>80</ele>
        <time>2018-11-04T07:37:03.000Z</time>
      </trkpt>
      <trkpt lat="39.51193" lon="-0.468939">
        <ele>80</ele>
        <time>2018-11-04T07:37:04.000Z</time>
      </trkpt>
      <trkpt lat="39.511953" lon="-0.468957">
        <ele>80</ele>
        <time>2018-11-04T07:37:05.000Z</time>
      </trkpt>
      <trkpt lat="39.511977" lon="-0.468975">
        <ele>80.6274470434695</ele>
        <time>2018-11-04T07:37:06.000Z</time>
      </trkpt>
      <trkpt lat="39.511999" lon="-0.468995">
        <ele>81</ele>
        <time>2018-11-04T07:37:07.000Z</time>
      </trkpt>
      <trkpt lat="39.512023" lon="-0.469016">
        <ele>81</ele>
        <time>2018-11-04T07:37:08.000Z</time>
      </trkpt>
      <trkpt lat="39.512049" lon="-0.469036">
        <ele>81</ele>
        <time>2018-11-04T07:37:09.000Z</time>
      </trkpt>
      <trkpt lat="39.512074" lon="-0.469057">
        <ele>81</ele>
        <time>2018-11-04T07:37:10.000Z</time>
      </trkpt>
      <trkpt lat="39.5121" lon="-0.469076">
        <ele>81</ele>
        <time>2018-11-04T07:37:11.000Z</time>
      </trkpt>
      <trkpt lat="39.512125" lon="-0.469095">
        <ele>81</ele>
        <time>2018-11-04T07:37:12.000Z</time>
      </trkpt>
      <trkpt lat="39.512151" lon="-0.469113">
        <ele>81</ele>
        <time>2018-11-04T07:37:13.000Z</time>
      </trkpt>
      <trkpt lat="39.512179" lon="-0.469129">
        <ele>81</ele>
        <time>2018-11-04T07:37:14.000Z</time>
      </trkpt>
      <trkpt lat="39.512208" lon="-0.469144">
        <ele>81</ele>
        <time>2018-11-04T07:37:15.000Z</time>
      </trkpt>
      <trkpt lat="39.512238" lon="-0.469153">
        <ele>81</ele>
        <time>2018-11-04T07:37:16.000Z</time>
      </trkpt>
      <trkpt lat="39.512269" lon="-0.469157">
        <ele>81</ele>
        <time>2018-11-04T07:37:17.000Z</time>
      </trkpt>
      <trkpt lat="39.5123" lon="-0.469159">
        <ele>81</ele>
        <time>2018-11-04T07:37:18.000Z</time>
      </trkpt>
      <trkpt lat="39.512326" lon="-0.469157">
        <ele>81</ele>
        <time>2018-11-04T07:37:19.000Z</time>
      </trkpt>
      <trkpt lat="39.512352" lon="-0.469147">
        <ele>81</ele>
        <time>2018-11-04T07:37:20.000Z</time>
      </trkpt>
      <trkpt lat="39.512377" lon="-0.469127">
        <ele>81</ele>
        <time>2018-11-04T07:37:21.000Z</time>
      </trkpt>
      <trkpt lat="39.512409" lon="-0.469092">
        <ele>80.4931528466974</ele>
        <time>2018-11-04T07:37:22.000Z</time>
      </trkpt>
      <trkpt lat="39.512451" lon="-0.469045">
        <ele>80</ele>
        <time>2018-11-04T07:37:23.000Z</time>
      </trkpt>
      <trkpt lat="39.51249" lon="-0.468991">
        <ele>79.36</ele>
        <time>2018-11-04T07:37:24.000Z</time>
      </trkpt>
      <trkpt lat="39.512532" lon="-0.468932">
        <ele>79</ele>
        <time>2018-11-04T07:37:25.000Z</time>
      </trkpt>
      <trkpt lat="39.51257" lon="-0.468874">
        <ele>79</ele>
        <time>2018-11-04T07:37:26.000Z</time>
      </trkpt>
      <trkpt lat="39.512602" lon="-0.468815">
        <ele>79</ele>
        <time>2018-11-04T07:37:27.000Z</time>
      </trkpt>
      <trkpt lat="39.512635" lon="-0.468755">
        <ele>79</ele>
        <time>2018-11-04T07:37:28.000Z</time>
      </trkpt>
      <trkpt lat="39.512669" lon="-0.468692">
        <ele>79</ele>
        <time>2018-11-04T07:37:29.000Z</time>
      </trkpt>
      <trkpt lat="39.512705" lon="-0.468628">
        <ele>78.5114515750801</ele>
        <time>2018-11-04T07:37:30.000Z</time>
      </trkpt>
      <trkpt lat="39.512742" lon="-0.468565">
        <ele>78</ele>
        <time>2018-11-04T07:37:31.000Z</time>
      </trkpt>
      <trkpt lat="39.512777" lon="-0.468498">
        <ele>78</ele>
        <time>2018-11-04T07:37:32.000Z</time>
      </trkpt>
      <trkpt lat="39.512813" lon="-0.468426">
        <ele>78</ele>
        <time>2018-11-04T07:37:33.000Z</time>
      </trkpt>
      <trkpt lat="39.512848" lon="-0.46835">
        <ele>78</ele>
        <time>2018-11-04T07:37:34.000Z</time>
      </trkpt>
      <trkpt lat="39.512885" lon="-0.46827">
        <ele>78</ele>
        <time>2018-11-04T07:37:35.000Z</time>
      </trkpt>
      <trkpt lat="39.512921" lon="-0.468186">
        <ele>77.5</ele>
        <time>2018-11-04T07:37:36.000Z</time>
      </trkpt>
      <trkpt lat="39.512958" lon="-0.468099">
        <ele>76.507694731349</ele>
        <time>2018-11-04T07:37:37.000Z</time>
      </trkpt>
      <trkpt lat="39.512996" lon="-0.46801">
        <ele>76</ele>
        <time>2018-11-04T07:37:38.000Z</time>
      </trkpt>
      <trkpt lat="39.513035" lon="-0.46792">
        <ele>75.36</ele>
        <time>2018-11-04T07:37:39.000Z</time>
      </trkpt>
      <trkpt lat="39.513075" lon="-0.467826">
        <ele>74.36</ele>
        <time>2018-11-04T07:37:40.000Z</time>
      </trkpt>
      <trkpt lat="39.513115" lon="-0.467729">
        <ele>74</ele>
        <time>2018-11-04T07:37:41.000Z</time>
      </trkpt>
      <trkpt lat="39.513155" lon="-0.467632">
        <ele>73.36</ele>
        <time>2018-11-04T07:37:42.000Z</time>
      </trkpt>
      <trkpt lat="39.513197" lon="-0.467532">
        <ele>72.5038747382939</ele>
        <time>2018-11-04T07:37:43.000Z</time>
      </trkpt>
      <trkpt lat="39.51324" lon="-0.467431">
        <ele>72</ele>
        <time>2018-11-04T07:37:44.000Z</time>
      </trkpt>
      <trkpt lat="39.513282" lon="-0.467329">
        <ele>71.36</ele>
        <time>2018-11-04T07:37:45.000Z</time>
      </trkpt>
      <trkpt lat="39.513324" lon="-0.467225">
        <ele>71</ele>
        <time>2018-11-04T07:37:46.000Z</time>
      </trkpt>
      <trkpt lat="39.513367" lon="-0.46712">
        <ele>71</ele>
        <time>2018-11-04T07:37:47.000Z</time>
      </trkpt>
      <trkpt lat="39.513418" lon="-0.467017">
        <ele>70.5038747382939</ele>
        <time>2018-11-04T07:37:48.000Z</time>
      </trkpt>
      <trkpt lat="39.51347" lon="-0.46691">
        <ele>70</ele>
        <time>2018-11-04T07:37:49.000Z</time>
      </trkpt>
      <trkpt lat="39.51352" lon="-0.466798">
        <ele>70</ele>
        <time>2018-11-04T07:37:50.000Z</time>
      </trkpt>
      <trkpt lat="39.513568" lon="-0.466682">
        <ele>70</ele>
        <time>2018-11-04T07:37:51.000Z</time>
      </trkpt>
      <trkpt lat="39.513618" lon="-0.466565">
        <ele>69.36</ele>
        <time>2018-11-04T07:37:52.000Z</time>
      </trkpt>
      <trkpt lat="39.513668" lon="-0.466451">
        <ele>68.5114515750801</ele>
        <time>2018-11-04T07:37:53.000Z</time>
      </trkpt>
      <trkpt lat="39.513714" lon="-0.466337">
        <ele>67.6597959910796</ele>
        <time>2018-11-04T07:37:54.000Z</time>
      </trkpt>
      <trkpt lat="39.513765" lon="-0.466226">
        <ele>67</ele>
        <time>2018-11-04T07:37:55.000Z</time>
      </trkpt>
      <trkpt lat="39.513813" lon="-0.466113">
        <ele>66.36</ele>
        <time>2018-11-04T07:37:56.000Z</time>
      </trkpt>
      <trkpt lat="39.513857" lon="-0.466001">
        <ele>66</ele>
        <time>2018-11-04T07:37:57.000Z</time>
      </trkpt>
      <trkpt lat="39.513896" lon="-0.465894">
        <ele>66</ele>
        <time>2018-11-04T07:37:58.000Z</time>
      </trkpt>
      <trkpt lat="39.513934" lon="-0.465796">
        <ele>65.507694731349</ele>
        <time>2018-11-04T07:37:59.000Z</time>
      </trkpt>
      <trkpt lat="39.513971" lon="-0.465709">
        <ele>65</ele>
        <time>2018-11-04T07:38:00.000Z</time>
      </trkpt>
      <trkpt lat="39.514002" lon="-0.465619">
        <ele>65</ele>
        <time>2018-11-04T07:38:01.000Z</time>
      </trkpt>
      <trkpt lat="39.514033" lon="-0.465536">
        <ele>65</ele>
        <time>2018-11-04T07:38:02.000Z</time>
      </trkpt>
      <trkpt lat="39.514062" lon="-0.465458">
        <ele>65</ele>
        <time>2018-11-04T07:38:03.000Z</time>
      </trkpt>
      <trkpt lat="39.514092" lon="-0.465381">
        <ele>65</ele>
        <time>2018-11-04T07:38:04.000Z</time>
      </trkpt>
      <trkpt lat="39.51412" lon="-0.465307">
        <ele>65</ele>
        <time>2018-11-04T07:38:05.000Z</time>
      </trkpt>
      <trkpt lat="39.514149" lon="-0.465232">
        <ele>65.4885484249199</ele>
        <time>2018-11-04T07:38:06.000Z</time>
      </trkpt>
      <trkpt lat="39.514181" lon="-0.465161">
        <ele>66</ele>
        <time>2018-11-04T07:38:07.000Z</time>
      </trkpt>
      <trkpt lat="39.514214" lon="-0.465093">
        <ele>66.6274470434695</ele>
        <time>2018-11-04T07:38:08.000Z</time>
      </trkpt>
      <trkpt lat="39.514241" lon="-0.465026">
        <ele>67</ele>
        <time>2018-11-04T07:38:09.000Z</time>
      </trkpt>
      <trkpt lat="39.514266" lon="-0.46496">
        <ele>67</ele>
        <time>2018-11-04T07:38:10.000Z</time>
      </trkpt>
      <trkpt lat="39.51429" lon="-0.464894">
        <ele>67.64</ele>
        <time>2018-11-04T07:38:11.000Z</time>
      </trkpt>
      <trkpt lat="39.514313" lon="-0.46483">
        <ele>68</ele>
        <time>2018-11-04T07:38:12.000Z</time>
      </trkpt>
      <trkpt lat="39.514338" lon="-0.464766">
        <ele>68.5039357381147</ele>
        <time>2018-11-04T07:38:13.000Z</time>
      </trkpt>
      <trkpt lat="39.514363" lon="-0.464704">
        <ele>69</ele>
        <time>2018-11-04T07:38:14.000Z</time>
      </trkpt>
      <trkpt lat="39.514387" lon="-0.464646">
        <ele>68.5038747382939</ele>
        <time>2018-11-04T07:38:15.000Z</time>
      </trkpt>
      <trkpt lat="39.514414" lon="-0.46459">
        <ele>68</ele>
        <time>2018-11-04T07:38:16.000Z</time>
      </trkpt>
      <trkpt lat="39.514439" lon="-0.464529">
        <ele>68.64</ele>
        <time>2018-11-04T07:38:17.000Z</time>
      </trkpt>
      <trkpt lat="39.514467" lon="-0.464458">
        <ele>69</ele>
        <time>2018-11-04T07:38:18.000Z</time>
      </trkpt>
      <trkpt lat="39.514487" lon="-0.464389">
        <ele>69</ele>
        <time>2018-11-04T07:38:19.000Z</time>
      </trkpt>
      <trkpt lat="39.514491" lon="-0.464313">
        <ele>69.64</ele>
        <time>2018-11-04T07:38:20.000Z</time>
      </trkpt>
      <trkpt lat="39.514485" lon="-0.464242">
        <ele>70</ele>
        <time>2018-11-04T07:38:21.000Z</time>
      </trkpt>
      <trkpt lat="39.514472" lon="-0.464166">
        <ele>70</ele>
        <time>2018-11-04T07:38:22.000Z</time>
      </trkpt>
      <trkpt lat="39.514466" lon="-0.464092">
        <ele>70</ele>
        <time>2018-11-04T07:38:23.000Z</time>
      </trkpt>
      <trkpt lat="39.514471" lon="-0.464027">
        <ele>70</ele>
        <time>2018-11-04T07:38:24.000Z</time>
      </trkpt>
      <trkpt lat="39.514507" lon="-0.463965">
        <ele>70</ele>
        <time>2018-11-04T07:38:25.000Z</time>
      </trkpt>
      <trkpt lat="39.514552" lon="-0.463922">
        <ele>70</ele>
        <time>2018-11-04T07:38:26.000Z</time>
      </trkpt>
      <trkpt lat="39.514606" lon="-0.463906">
        <ele>70</ele>
        <time>2018-11-04T07:38:27.000Z</time>
      </trkpt>
      <trkpt lat="39.514661" lon="-0.463916">
        <ele>70</ele>
        <time>2018-11-04T07:38:28.000Z</time>
      </trkpt>
      <trkpt lat="39.514709" lon="-0.463951">
        <ele>70</ele>
        <time>2018-11-04T07:38:29.000Z</time>
      </trkpt>
      <trkpt lat="39.51474" lon="-0.464006">
        <ele>70</ele>
        <time>2018-11-04T07:38:30.000Z</time>
      </trkpt>
      <trkpt lat="39.514758" lon="-0.464068">
        <ele>70</ele>
        <time>2018-11-04T07:38:31.000Z</time>
      </trkpt>
      <trkpt lat="39.514756" lon="-0.464134">
        <ele>69.4960642618853</ele>
        <time>2018-11-04T07:38:32.000Z</time>
      </trkpt>
      <trkpt lat="39.514737" lon="-0.464195">
        <ele>69</ele>
        <time>2018-11-04T07:38:33.000Z</time>
      </trkpt>
      <trkpt lat="39.514707" lon="-0.464248">
        <ele>69</ele>
        <time>2018-11-04T07:38:34.000Z</time>
      </trkpt>
      <trkpt lat="39.514667" lon="-0.464298">
        <ele>69</ele>
        <time>2018-11-04T07:38:35.000Z</time>
      </trkpt>
      <trkpt lat="39.514632" lon="-0.464346">
        <ele>69</ele>
        <time>2018-11-04T07:38:36.000Z</time>
      </trkpt>
      <trkpt lat="39.514601" lon="-0.464397">
        <ele>69</ele>
        <time>2018-11-04T07:38:37.000Z</time>
      </trkpt>
      <trkpt lat="39.514575" lon="-0.464462">
        <ele>69</ele>
        <time>2018-11-04T07:38:38.000Z</time>
      </trkpt>
      <trkpt lat="39.514547" lon="-0.464527">
        <ele>69.64</ele>
        <time>2018-11-04T07:38:39.000Z</time>
      </trkpt>
      <trkpt lat="39.514523" lon="-0.464592">
        <ele>70</ele>
        <time>2018-11-04T07:38:40.000Z</time>
      </trkpt>
      <trkpt lat="39.514499" lon="-0.46465">
        <ele>70</ele>
        <time>2018-11-04T07:38:41.000Z</time>
      </trkpt>
      <trkpt lat="39.514478" lon="-0.464705">
        <ele>70.4923101159883</ele>
        <time>2018-11-04T07:38:42.000Z</time>
      </trkpt>
      <trkpt lat="39.514456" lon="-0.464759">
        <ele>71</ele>
        <time>2018-11-04T07:38:43.000Z</time>
      </trkpt>
      <trkpt lat="39.514432" lon="-0.46481">
        <ele>71.6274470434695</ele>
        <time>2018-11-04T07:38:44.000Z</time>
      </trkpt>
      <trkpt lat="39.514407" lon="-0.46486">
        <ele>72</ele>
        <time>2018-11-04T07:38:45.000Z</time>
      </trkpt>
      <trkpt lat="39.514383" lon="-0.46491">
        <ele>72</ele>
        <time>2018-11-04T07:38:46.000Z</time>
      </trkpt>
      <trkpt lat="39.514358" lon="-0.464958">
        <ele>72</ele>
        <time>2018-11-04T07:38:47.000Z</time>
      </trkpt>
      <trkpt lat="39.514335" lon="-0.465009">
        <ele>72.64</ele>
        <time>2018-11-04T07:38:48.000Z</time>
      </trkpt>
      <trkpt lat="39.514314" lon="-0.465057">
        <ele>73.64</ele>
        <time>2018-11-04T07:38:49.000Z</time>
      </trkpt>
      <trkpt lat="39.514288" lon="-0.46511">
        <ele>74</ele>
        <time>2018-11-04T07:38:50.000Z</time>
      </trkpt>
      <trkpt lat="39.514267" lon="-0.465159">
        <ele>74.5</ele>
        <time>2018-11-04T07:38:51.000Z</time>
      </trkpt>
      <trkpt lat="39.514249" lon="-0.465208">
        <ele>75</ele>
        <time>2018-11-04T07:38:52.000Z</time>
      </trkpt>
      <trkpt lat="39.514231" lon="-0.465251">
        <ele>75</ele>
        <time>2018-11-04T07:38:53.000Z</time>
      </trkpt>
      <trkpt lat="39.514211" lon="-0.4653">
        <ele>75.4885484249199</ele>
        <time>2018-11-04T07:38:54.000Z</time>
      </trkpt>
      <trkpt lat="39.514193" lon="-0.465349">
        <ele>76</ele>
        <time>2018-11-04T07:38:55.000Z</time>
      </trkpt>
      <trkpt lat="39.514176" lon="-0.465393">
        <ele>76</ele>
        <time>2018-11-04T07:38:56.000Z</time>
      </trkpt>
      <trkpt lat="39.514159" lon="-0.465435">
        <ele>76</ele>
        <time>2018-11-04T07:38:57.000Z</time>
      </trkpt>
      <trkpt lat="39.514144" lon="-0.465478">
        <ele>76</ele>
        <time>2018-11-04T07:38:58.000Z</time>
      </trkpt>
      <trkpt lat="39.514131" lon="-0.465523">
        <ele>76</ele>
        <time>2018-11-04T07:38:59.000Z</time>
      </trkpt>
      <trkpt lat="39.514116" lon="-0.465566">
        <ele>75.36</ele>
        <time>2018-11-04T07:39:00.000Z</time>
      </trkpt>
      <trkpt lat="39.514099" lon="-0.465608">
        <ele>75</ele>
        <time>2018-11-04T07:39:01.000Z</time>
      </trkpt>
      <trkpt lat="39.514081" lon="-0.465652">
        <ele>75</ele>
        <time>2018-11-04T07:39:02.000Z</time>
      </trkpt>
      <trkpt lat="39.514064" lon="-0.465694">
        <ele>75.64</ele>
        <time>2018-11-04T07:39:03.000Z</time>
      </trkpt>
      <trkpt lat="39.514047" lon="-0.465735">
        <ele>76</ele>
        <time>2018-11-04T07:39:04.000Z</time>
      </trkpt>
      <trkpt lat="39.51403" lon="-0.46578">
        <ele>76</ele>
        <time>2018-11-04T07:39:05.000Z</time>
      </trkpt>
      <trkpt lat="39.514011" lon="-0.465821">
        <ele>76</ele>
        <time>2018-11-04T07:39:06.000Z</time>
      </trkpt>
      <trkpt lat="39.513993" lon="-0.465862">
        <ele>76.5</ele>
        <time>2018-11-04T07:39:07.000Z</time>
      </trkpt>
      <trkpt lat="39.513978" lon="-0.465906">
        <ele>77</ele>
        <time>2018-11-04T07:39:08.000Z</time>
      </trkpt>
      <trkpt lat="39.513961" lon="-0.465947">
        <ele>77</ele>
        <time>2018-11-04T07:39:09.000Z</time>
      </trkpt>
      <trkpt lat="39.513948" lon="-0.465987">
        <ele>77</ele>
        <time>2018-11-04T07:39:10.000Z</time>
      </trkpt>
      <trkpt lat="39.513935" lon="-0.466028">
        <ele>77</ele>
        <time>2018-11-04T07:39:11.000Z</time>
      </trkpt>
      <trkpt lat="39.513925" lon="-0.466073">
        <ele>77</ele>
        <time>2018-11-04T07:39:12.000Z</time>
      </trkpt>
      <trkpt lat="39.513925" lon="-0.466122">
        <ele>77</ele>
        <time>2018-11-04T07:39:13.000Z</time>
      </trkpt>
      <trkpt lat="39.513927" lon="-0.46617">
        <ele>77</ele>
        <time>2018-11-04T07:39:14.000Z</time>
      </trkpt>
      <trkpt lat="39.513934" lon="-0.466212">
        <ele>77.64</ele>
        <time>2018-11-04T07:39:15.000Z</time>
      </trkpt>
      <trkpt lat="39.513954" lon="-0.466241">
        <ele>78</ele>
        <time>2018-11-04T07:39:16.000Z</time>
      </trkpt>
      <trkpt lat="39.513977" lon="-0.466266">
        <ele>78</ele>
        <time>2018-11-04T07:39:17.000Z</time>
      </trkpt>
      <trkpt lat="39.514004" lon="-0.466292">
        <ele>78</ele>
        <time>2018-11-04T07:39:18.000Z</time>
      </trkpt>
      <trkpt lat="39.514028" lon="-0.466326">
        <ele>78</ele>
        <time>2018-11-04T07:39:19.000Z</time>
      </trkpt>
      <trkpt lat="39.514053" lon="-0.466365">
        <ele>78</ele>
        <time>2018-11-04T07:39:20.000Z</time>
      </trkpt>
      <trkpt lat="39.514079" lon="-0.466401">
        <ele>78</ele>
        <time>2018-11-04T07:39:21.000Z</time>
      </trkpt>
      <trkpt lat="39.51411" lon="-0.466442">
        <ele>78</ele>
        <time>2018-11-04T07:39:22.000Z</time>
      </trkpt>
      <trkpt lat="39.514143" lon="-0.466487">
        <ele>78</ele>
        <time>2018-11-04T07:39:23.000Z</time>
      </trkpt>
      <trkpt lat="39.514175" lon="-0.466543">
        <ele>78</ele>
        <time>2018-11-04T07:39:24.000Z</time>
      </trkpt>
      <trkpt lat="39.514206" lon="-0.466595">
        <ele>78</ele>
        <time>2018-11-04T07:39:25.000Z</time>
      </trkpt>
      <trkpt lat="39.514234" lon="-0.466648">
        <ele>78</ele>
        <time>2018-11-04T07:39:26.000Z</time>
      </trkpt>
      <trkpt lat="39.514266" lon="-0.466696">
        <ele>78</ele>
        <time>2018-11-04T07:39:27.000Z</time>
      </trkpt>
      <trkpt lat="39.514298" lon="-0.466742">
        <ele>78</ele>
        <time>2018-11-04T07:39:28.000Z</time>
      </trkpt>
      <trkpt lat="39.514331" lon="-0.466783">
        <ele>78</ele>
        <time>2018-11-04T07:39:29.000Z</time>
      </trkpt>
      <trkpt lat="39.514363" lon="-0.46682">
        <ele>78</ele>
        <time>2018-11-04T07:39:30.000Z</time>
      </trkpt>
      <trkpt lat="39.514398" lon="-0.466854">
        <ele>78</ele>
        <time>2018-11-04T07:39:31.000Z</time>
      </trkpt>
      <trkpt lat="39.514431" lon="-0.466883">
        <ele>78</ele>
        <time>2018-11-04T07:39:32.000Z</time>
      </trkpt>
      <trkpt lat="39.514463" lon="-0.46691">
        <ele>78</ele>
        <time>2018-11-04T07:39:33.000Z</time>
      </trkpt>
      <trkpt lat="39.514493" lon="-0.466939">
        <ele>78</ele>
        <time>2018-11-04T07:39:34.000Z</time>
      </trkpt>
      <trkpt lat="39.514527" lon="-0.466967">
        <ele>77.3673493377916</ele>
        <time>2018-11-04T07:39:35.000Z</time>
      </trkpt>
      <trkpt lat="39.514559" lon="-0.466992">
        <ele>77</ele>
        <time>2018-11-04T07:39:36.000Z</time>
      </trkpt>
      <trkpt lat="39.514592" lon="-0.467017">
        <ele>77</ele>
        <time>2018-11-04T07:39:37.000Z</time>
      </trkpt>
      <trkpt lat="39.514625" lon="-0.467044">
        <ele>77</ele>
        <time>2018-11-04T07:39:38.000Z</time>
      </trkpt>
      <trkpt lat="39.514657" lon="-0.467071">
        <ele>76.36</ele>
        <time>2018-11-04T07:39:39.000Z</time>
      </trkpt>
      <trkpt lat="39.51469" lon="-0.467096">
        <ele>76</ele>
        <time>2018-11-04T07:39:40.000Z</time>
      </trkpt>
      <trkpt lat="39.514721" lon="-0.467123">
        <ele>76</ele>
        <time>2018-11-04T07:39:41.000Z</time>
      </trkpt>
      <trkpt lat="39.514754" lon="-0.467147">
        <ele>76</ele>
        <time>2018-11-04T07:39:42.000Z</time>
      </trkpt>
      <trkpt lat="39.514788" lon="-0.467172">
        <ele>76</ele>
        <time>2018-11-04T07:39:43.000Z</time>
      </trkpt>
      <trkpt lat="39.514822" lon="-0.467196">
        <ele>75.36</ele>
        <time>2018-11-04T07:39:44.000Z</time>
      </trkpt>
      <trkpt lat="39.514856" lon="-0.46722">
        <ele>75</ele>
        <time>2018-11-04T07:39:45.000Z</time>
      </trkpt>
      <trkpt lat="39.514888" lon="-0.467243">
        <ele>75</ele>
        <time>2018-11-04T07:39:46.000Z</time>
      </trkpt>
      <trkpt lat="39.514921" lon="-0.467266">
        <ele>75</ele>
        <time>2018-11-04T07:39:47.000Z</time>
      </trkpt>
      <trkpt lat="39.514954" lon="-0.467292">
        <ele>75</ele>
        <time>2018-11-04T07:39:48.000Z</time>
      </trkpt>
      <trkpt lat="39.514987" lon="-0.467315">
        <ele>75</ele>
        <time>2018-11-04T07:39:49.000Z</time>
      </trkpt>
      <trkpt lat="39.515019" lon="-0.467338">
        <ele>74.36</ele>
        <time>2018-11-04T07:39:50.000Z</time>
      </trkpt>
      <trkpt lat="39.515049" lon="-0.467361">
        <ele>74.64</ele>
        <time>2018-11-04T07:39:51.000Z</time>
      </trkpt>
      <trkpt lat="39.515079" lon="-0.467382">
        <ele>75</ele>
        <time>2018-11-04T07:39:52.000Z</time>
      </trkpt>
      <trkpt lat="39.515109" lon="-0.467402">
        <ele>75</ele>
        <time>2018-11-04T07:39:53.000Z</time>
      </trkpt>
      <trkpt lat="39.51514" lon="-0.467422">
        <ele>75</ele>
        <time>2018-11-04T07:39:54.000Z</time>
      </trkpt>
      <trkpt lat="39.515174" lon="-0.467447">
        <ele>75.64</ele>
        <time>2018-11-04T07:39:55.000Z</time>
      </trkpt>
      <trkpt lat="39.515211" lon="-0.467472">
        <ele>76.6336653739893</ele>
        <time>2018-11-04T07:39:56.000Z</time>
      </trkpt>
      <trkpt lat="39.515251" lon="-0.467492">
        <ele>77.6363648117501</ele>
        <time>2018-11-04T07:39:57.000Z</time>
      </trkpt>
      <trkpt lat="39.515287" lon="-0.467509">
        <ele>78.4961252617061</ele>
        <time>2018-11-04T07:39:58.000Z</time>
      </trkpt>
      <trkpt lat="39.515318" lon="-0.467532">
        <ele>79</ele>
        <time>2018-11-04T07:39:59.000Z</time>
      </trkpt>
      <trkpt lat="39.51535" lon="-0.467554">
        <ele>79.64</ele>
        <time>2018-11-04T07:40:00.000Z</time>
      </trkpt>
      <trkpt lat="39.515379" lon="-0.467575">
        <ele>80</ele>
        <time>2018-11-04T07:40:01.000Z</time>
      </trkpt>
      <trkpt lat="39.515415" lon="-0.467599">
        <ele>80</ele>
        <time>2018-11-04T07:40:02.000Z</time>
      </trkpt>
      <trkpt lat="39.515455" lon="-0.467619">
        <ele>80</ele>
        <time>2018-11-04T07:40:03.000Z</time>
      </trkpt>
      <trkpt lat="39.515492" lon="-0.467638">
        <ele>80.64</ele>
        <time>2018-11-04T07:40:04.000Z</time>
      </trkpt>
      <trkpt lat="39.515531" lon="-0.467657">
        <ele>81</ele>
        <time>2018-11-04T07:40:05.000Z</time>
      </trkpt>
      <trkpt lat="39.515567" lon="-0.467673">
        <ele>81</ele>
        <time>2018-11-04T07:40:06.000Z</time>
      </trkpt>
      <trkpt lat="39.515602" lon="-0.46769">
        <ele>81.5039357381147</ele>
        <time>2018-11-04T07:40:07.000Z</time>
      </trkpt>
      <trkpt lat="39.515636" lon="-0.467706">
        <ele>82</ele>
        <time>2018-11-04T07:40:08.000Z</time>
      </trkpt>
      <trkpt lat="39.515671" lon="-0.46772">
        <ele>82.6363648117501</ele>
        <time>2018-11-04T07:40:09.000Z</time>
      </trkpt>
      <trkpt lat="39.515704" lon="-0.467747">
        <ele>83</ele>
        <time>2018-11-04T07:40:10.000Z</time>
      </trkpt>
      <trkpt lat="39.515737" lon="-0.467775">
        <ele>83</ele>
        <time>2018-11-04T07:40:11.000Z</time>
      </trkpt>
      <trkpt lat="39.515771" lon="-0.467803">
        <ele>83</ele>
        <time>2018-11-04T07:40:12.000Z</time>
      </trkpt>
      <trkpt lat="39.515805" lon="-0.467828">
        <ele>83.64</ele>
        <time>2018-11-04T07:40:13.000Z</time>
      </trkpt>
      <trkpt lat="39.515838" lon="-0.467852">
        <ele>84</ele>
        <time>2018-11-04T07:40:14.000Z</time>
      </trkpt>
      <trkpt lat="39.515868" lon="-0.467873">
        <ele>84</ele>
        <time>2018-11-04T07:40:15.000Z</time>
      </trkpt>
      <trkpt lat="39.515898" lon="-0.467894">
        <ele>84</ele>
        <time>2018-11-04T07:40:16.000Z</time>
      </trkpt>
      <trkpt lat="39.515929" lon="-0.467913">
        <ele>84</ele>
        <time>2018-11-04T07:40:17.000Z</time>
      </trkpt>
      <trkpt lat="39.515961" lon="-0.467936">
        <ele>84</ele>
        <time>2018-11-04T07:40:18.000Z</time>
      </trkpt>
      <trkpt lat="39.515995" lon="-0.467955">
        <ele>84</ele>
        <time>2018-11-04T07:40:19.000Z</time>
      </trkpt>
      <trkpt lat="39.516029" lon="-0.467974">
        <ele>84.64</ele>
        <time>2018-11-04T07:40:20.000Z</time>
      </trkpt>
      <trkpt lat="39.516063" lon="-0.467997">
        <ele>85</ele>
        <time>2018-11-04T07:40:21.000Z</time>
      </trkpt>
      <trkpt lat="39.516096" lon="-0.468018">
        <ele>85</ele>
        <time>2018-11-04T07:40:22.000Z</time>
      </trkpt>
      <trkpt lat="39.516127" lon="-0.468039">
        <ele>85</ele>
        <time>2018-11-04T07:40:23.000Z</time>
      </trkpt>
      <trkpt lat="39.51616" lon="-0.468058">
        <ele>85</ele>
        <time>2018-11-04T07:40:24.000Z</time>
      </trkpt>
      <trkpt lat="39.516187" lon="-0.468075">
        <ele>85.64</ele>
        <time>2018-11-04T07:40:25.000Z</time>
      </trkpt>
      <trkpt lat="39.516208" lon="-0.468082">
        <ele>86</ele>
        <time>2018-11-04T07:40:26.000Z</time>
      </trkpt>
      <trkpt lat="39.516238" lon="-0.468105">
        <ele>86</ele>
        <time>2018-11-04T07:40:27.000Z</time>
      </trkpt>
      <trkpt lat="39.51627" lon="-0.468138">
        <ele>86</ele>
        <time>2018-11-04T07:40:28.000Z</time>
      </trkpt>
      <trkpt lat="39.516303" lon="-0.46817">
        <ele>86</ele>
        <time>2018-11-04T07:40:29.000Z</time>
      </trkpt>
      <trkpt lat="39.516336" lon="-0.468199">
        <ele>86</ele>
        <time>2018-11-04T07:40:30.000Z</time>
      </trkpt>
      <trkpt lat="39.516367" lon="-0.468233">
        <ele>86</ele>
        <time>2018-11-04T07:40:31.000Z</time>
      </trkpt>
      <trkpt lat="39.516399" lon="-0.468263">
        <ele>86</ele>
        <time>2018-11-04T07:40:32.000Z</time>
      </trkpt>
      <trkpt lat="39.51643" lon="-0.468292">
        <ele>86</ele>
        <time>2018-11-04T07:40:33.000Z</time>
      </trkpt>
      <trkpt lat="39.516462" lon="-0.468319">
        <ele>86</ele>
        <time>2018-11-04T07:40:34.000Z</time>
      </trkpt>
      <trkpt lat="39.516495" lon="-0.468343">
        <ele>86</ele>
        <time>2018-11-04T07:40:35.000Z</time>
      </trkpt>
      <trkpt lat="39.516531" lon="-0.468371">
        <ele>86</ele>
        <time>2018-11-04T07:40:36.000Z</time>
      </trkpt>
      <trkpt lat="39.516566" lon="-0.468398">
        <ele>86</ele>
        <time>2018-11-04T07:40:37.000Z</time>
      </trkpt>
      <trkpt lat="39.516599" lon="-0.468425">
        <ele>86</ele>
        <time>2018-11-04T07:40:38.000Z</time>
      </trkpt>
      <trkpt lat="39.516633" lon="-0.468451">
        <ele>86</ele>
        <time>2018-11-04T07:40:39.000Z</time>
      </trkpt>
      <trkpt lat="39.516667" lon="-0.468477">
        <ele>86</ele>
        <time>2018-11-04T07:40:40.000Z</time>
      </trkpt>
      <trkpt lat="39.516702" lon="-0.468503">
        <ele>85.36</ele>
        <time>2018-11-04T07:40:41.000Z</time>
      </trkpt>
      <trkpt lat="39.516738" lon="-0.468527">
        <ele>85</ele>
        <time>2018-11-04T07:40:42.000Z</time>
      </trkpt>
      <trkpt lat="39.516775" lon="-0.468553">
        <ele>85</ele>
        <time>2018-11-04T07:40:43.000Z</time>
      </trkpt>
      <trkpt lat="39.51681" lon="-0.46858">
        <ele>85</ele>
        <time>2018-11-04T07:40:44.000Z</time>
      </trkpt>
      <trkpt lat="39.516844" lon="-0.468608">
        <ele>85</ele>
        <time>2018-11-04T07:40:45.000Z</time>
      </trkpt>
      <trkpt lat="39.516878" lon="-0.468634">
        <ele>85</ele>
        <time>2018-11-04T07:40:46.000Z</time>
      </trkpt>
      <trkpt lat="39.516913" lon="-0.468659">
        <ele>85</ele>
        <time>2018-11-04T07:40:47.000Z</time>
      </trkpt>
      <trkpt lat="39.516946" lon="-0.468682">
        <ele>84.36</ele>
        <time>2018-11-04T07:40:48.000Z</time>
      </trkpt>
      <trkpt lat="39.516981" lon="-0.468706">
        <ele>84</ele>
        <time>2018-11-04T07:40:49.000Z</time>
      </trkpt>
      <trkpt lat="39.517015" lon="-0.468732">
        <ele>84</ele>
        <time>2018-11-04T07:40:50.000Z</time>
      </trkpt>
      <trkpt lat="39.517049" lon="-0.468756">
        <ele>84</ele>
        <time>2018-11-04T07:40:51.000Z</time>
      </trkpt>
      <trkpt lat="39.517085" lon="-0.468776">
        <ele>84</ele>
        <time>2018-11-04T07:40:52.000Z</time>
      </trkpt>
      <trkpt lat="39.51712" lon="-0.468798">
        <ele>84</ele>
        <time>2018-11-04T07:40:53.000Z</time>
      </trkpt>
      <trkpt lat="39.517155" lon="-0.468821">
        <ele>84</ele>
        <time>2018-11-04T07:40:54.000Z</time>
      </trkpt>
      <trkpt lat="39.51719" lon="-0.468844">
        <ele>84</ele>
        <time>2018-11-04T07:40:55.000Z</time>
      </trkpt>
      <trkpt lat="39.517226" lon="-0.468866">
        <ele>84</ele>
        <time>2018-11-04T07:40:56.000Z</time>
      </trkpt>
      <trkpt lat="39.517261" lon="-0.468889">
        <ele>84</ele>
        <time>2018-11-04T07:40:57.000Z</time>
      </trkpt>
      <trkpt lat="39.517297" lon="-0.468912">
        <ele>83.36</ele>
        <time>2018-11-04T07:40:58.000Z</time>
      </trkpt>
      <trkpt lat="39.517332" lon="-0.468937">
        <ele>83</ele>
        <time>2018-11-04T07:40:59.000Z</time>
      </trkpt>
      <trkpt lat="39.517366" lon="-0.468963">
        <ele>83</ele>
        <time>2018-11-04T07:41:00.000Z</time>
      </trkpt>
      <trkpt lat="39.517399" lon="-0.468988">
        <ele>83</ele>
        <time>2018-11-04T07:41:01.000Z</time>
      </trkpt>
      <trkpt lat="39.517432" lon="-0.469012">
        <ele>83</ele>
        <time>2018-11-04T07:41:02.000Z</time>
      </trkpt>
      <trkpt lat="39.517467" lon="-0.469036">
        <ele>83</ele>
        <time>2018-11-04T07:41:03.000Z</time>
      </trkpt>
      <trkpt lat="39.517503" lon="-0.469058">
        <ele>83</ele>
        <time>2018-11-04T07:41:04.000Z</time>
      </trkpt>
      <trkpt lat="39.51754" lon="-0.469081">
        <ele>83</ele>
        <time>2018-11-04T07:41:05.000Z</time>
      </trkpt>
      <trkpt lat="39.517577" lon="-0.469105">
        <ele>83</ele>
        <time>2018-11-04T07:41:06.000Z</time>
      </trkpt>
      <trkpt lat="39.517612" lon="-0.46913">
        <ele>83</ele>
        <time>2018-11-04T07:41:07.000Z</time>
      </trkpt>
      <trkpt lat="39.517646" lon="-0.469154">
        <ele>83</ele>
        <time>2018-11-04T07:41:08.000Z</time>
      </trkpt>
      <trkpt lat="39.51768" lon="-0.469177">
        <ele>83</ele>
        <time>2018-11-04T07:41:09.000Z</time>
      </trkpt>
      <trkpt lat="39.517715" lon="-0.469202">
        <ele>83</ele>
        <time>2018-11-04T07:41:10.000Z</time>
      </trkpt>
      <trkpt lat="39.517748" lon="-0.469225">
        <ele>83</ele>
        <time>2018-11-04T07:41:11.000Z</time>
      </trkpt>
      <trkpt lat="39.517782" lon="-0.469247">
        <ele>83</ele>
        <time>2018-11-04T07:41:12.000Z</time>
      </trkpt>
      <trkpt lat="39.517817" lon="-0.46927">
        <ele>83</ele>
        <time>2018-11-04T07:41:13.000Z</time>
      </trkpt>
      <trkpt lat="39.517851" lon="-0.469293">
        <ele>83</ele>
        <time>2018-11-04T07:41:14.000Z</time>
      </trkpt>
      <trkpt lat="39.517885" lon="-0.469317">
        <ele>83</ele>
        <time>2018-11-04T07:41:15.000Z</time>
      </trkpt>
      <trkpt lat="39.517918" lon="-0.469341">
        <ele>83</ele>
        <time>2018-11-04T07:41:16.000Z</time>
      </trkpt>
      <trkpt lat="39.517953" lon="-0.469368">
        <ele>83</ele>
        <time>2018-11-04T07:41:17.000Z</time>
      </trkpt>
      <trkpt lat="39.517988" lon="-0.469394">
        <ele>83</ele>
        <time>2018-11-04T07:41:18.000Z</time>
      </trkpt>
      <trkpt lat="39.518023" lon="-0.469418">
        <ele>83</ele>
        <time>2018-11-04T07:41:19.000Z</time>
      </trkpt>
      <trkpt lat="39.518058" lon="-0.469442">
        <ele>83</ele>
        <time>2018-11-04T07:41:20.000Z</time>
      </trkpt>
      <trkpt lat="39.518092" lon="-0.469468">
        <ele>83</ele>
        <time>2018-11-04T07:41:21.000Z</time>
      </trkpt>
      <trkpt lat="39.518126" lon="-0.469493">
        <ele>83</ele>
        <time>2018-11-04T07:41:22.000Z</time>
      </trkpt>
      <trkpt lat="39.518161" lon="-0.46952">
        <ele>82.4960642618853</ele>
        <time>2018-11-04T07:41:23.000Z</time>
      </trkpt>
      <trkpt lat="39.518199" lon="-0.469548">
        <ele>82</ele>
        <time>2018-11-04T07:41:24.000Z</time>
      </trkpt>
      <trkpt lat="39.518235" lon="-0.469572">
        <ele>82</ele>
        <time>2018-11-04T07:41:25.000Z</time>
      </trkpt>
      <trkpt lat="39.51827" lon="-0.469599">
        <ele>81.4675344105326</ele>
        <time>2018-11-04T07:41:26.000Z</time>
      </trkpt>
      <trkpt lat="39.518305" lon="-0.469625">
        <ele>81</ele>
        <time>2018-11-04T07:41:27.000Z</time>
      </trkpt>
      <trkpt lat="39.518338" lon="-0.469653">
        <ele>81</ele>
        <time>2018-11-04T07:41:28.000Z</time>
      </trkpt>
      <trkpt lat="39.518372" lon="-0.46968">
        <ele>81</ele>
        <time>2018-11-04T07:41:29.000Z</time>
      </trkpt>
      <trkpt lat="39.518408" lon="-0.469704">
        <ele>81</ele>
        <time>2018-11-04T07:41:30.000Z</time>
      </trkpt>
      <trkpt lat="39.518442" lon="-0.469729">
        <ele>81</ele>
        <time>2018-11-04T07:41:31.000Z</time>
      </trkpt>
      <trkpt lat="39.518477" lon="-0.469756">
        <ele>81</ele>
        <time>2018-11-04T07:41:32.000Z</time>
      </trkpt>
      <trkpt lat="39.518512" lon="-0.469782">
        <ele>81</ele>
        <time>2018-11-04T07:41:33.000Z</time>
      </trkpt>
      <trkpt lat="39.518548" lon="-0.46981">
        <ele>81</ele>
        <time>2018-11-04T07:41:34.000Z</time>
      </trkpt>
      <trkpt lat="39.518584" lon="-0.469834">
        <ele>81</ele>
        <time>2018-11-04T07:41:35.000Z</time>
      </trkpt>
      <trkpt lat="39.518618" lon="-0.469858">
        <ele>81</ele>
        <time>2018-11-04T07:41:36.000Z</time>
      </trkpt>
      <trkpt lat="39.518653" lon="-0.469884">
        <ele>81</ele>
        <time>2018-11-04T07:41:37.000Z</time>
      </trkpt>
      <trkpt lat="39.518687" lon="-0.469916">
        <ele>81</ele>
        <time>2018-11-04T07:41:38.000Z</time>
      </trkpt>
      <trkpt lat="39.51872" lon="-0.469944">
        <ele>81</ele>
        <time>2018-11-04T07:41:39.000Z</time>
      </trkpt>
      <trkpt lat="39.518756" lon="-0.469971">
        <ele>81</ele>
        <time>2018-11-04T07:41:40.000Z</time>
      </trkpt>
      <trkpt lat="39.518792" lon="-0.469996">
        <ele>81</ele>
        <time>2018-11-04T07:41:41.000Z</time>
      </trkpt>
      <trkpt lat="39.518829" lon="-0.47002">
        <ele>81</ele>
        <time>2018-11-04T07:41:42.000Z</time>
      </trkpt>
      <trkpt lat="39.518866" lon="-0.470044">
        <ele>81</ele>
        <time>2018-11-04T07:41:43.000Z</time>
      </trkpt>
      <trkpt lat="39.518903" lon="-0.470068">
        <ele>81</ele>
        <time>2018-11-04T07:41:44.000Z</time>
      </trkpt>
      <trkpt lat="39.518939" lon="-0.470092">
        <ele>81</ele>
        <time>2018-11-04T07:41:45.000Z</time>
      </trkpt>
      <trkpt lat="39.518976" lon="-0.470117">
        <ele>81</ele>
        <time>2018-11-04T07:41:46.000Z</time>
      </trkpt>
      <trkpt lat="39.519011" lon="-0.470145">
        <ele>81.64</ele>
        <time>2018-11-04T07:41:47.000Z</time>
      </trkpt>
      <trkpt lat="39.519045" lon="-0.470169">
        <ele>82</ele>
        <time>2018-11-04T07:41:48.000Z</time>
      </trkpt>
      <trkpt lat="39.51908" lon="-0.47019">
        <ele>82</ele>
        <time>2018-11-04T07:41:49.000Z</time>
      </trkpt>
      <trkpt lat="39.519114" lon="-0.47021">
        <ele>82</ele>
        <time>2018-11-04T07:41:50.000Z</time>
      </trkpt>
      <trkpt lat="39.519148" lon="-0.470232">
        <ele>81.36</ele>
        <time>2018-11-04T07:41:51.000Z</time>
      </trkpt>
      <trkpt lat="39.51918" lon="-0.470258">
        <ele>81.64</ele>
        <time>2018-11-04T07:41:52.000Z</time>
      </trkpt>
      <trkpt lat="39.519213" lon="-0.470284">
        <ele>81.36</ele>
        <time>2018-11-04T07:41:53.000Z</time>
      </trkpt>
      <trkpt lat="39.519247" lon="-0.470312">
        <ele>81.4961252617061</ele>
        <time>2018-11-04T07:41:54.000Z</time>
      </trkpt>
      <trkpt lat="39.519279" lon="-0.470341">
        <ele>82</ele>
        <time>2018-11-04T07:41:55.000Z</time>
      </trkpt>
      <trkpt lat="39.519313" lon="-0.470368">
        <ele>82</ele>
        <time>2018-11-04T07:41:56.000Z</time>
      </trkpt>
      <trkpt lat="39.519347" lon="-0.47039">
        <ele>82</ele>
        <time>2018-11-04T07:41:57.000Z</time>
      </trkpt>
      <trkpt lat="39.519379" lon="-0.470418">
        <ele>82</ele>
        <time>2018-11-04T07:41:58.000Z</time>
      </trkpt>
      <trkpt lat="39.519411" lon="-0.470445">
        <ele>82</ele>
        <time>2018-11-04T07:41:59.000Z</time>
      </trkpt>
      <trkpt lat="39.519446" lon="-0.470475">
        <ele>82</ele>
        <time>2018-11-04T07:42:00.000Z</time>
      </trkpt>
      <trkpt lat="39.519481" lon="-0.470506">
        <ele>82</ele>
        <time>2018-11-04T07:42:01.000Z</time>
      </trkpt>
      <trkpt lat="39.519514" lon="-0.470539">
        <ele>82</ele>
        <time>2018-11-04T07:42:02.000Z</time>
      </trkpt>
      <trkpt lat="39.519547" lon="-0.470569">
        <ele>82</ele>
        <time>2018-11-04T07:42:03.000Z</time>
      </trkpt>
      <trkpt lat="39.519581" lon="-0.470601">
        <ele>82</ele>
        <time>2018-11-04T07:42:04.000Z</time>
      </trkpt>
      <trkpt lat="39.519616" lon="-0.470634">
        <ele>82</ele>
        <time>2018-11-04T07:42:05.000Z</time>
      </trkpt>
      <trkpt lat="39.519648" lon="-0.47067">
        <ele>82</ele>
        <time>2018-11-04T07:42:06.000Z</time>
      </trkpt>
      <trkpt lat="39.519678" lon="-0.470707">
        <ele>82</ele>
        <time>2018-11-04T07:42:07.000Z</time>
      </trkpt>
      <trkpt lat="39.519709" lon="-0.470744">
        <ele>82</ele>
        <time>2018-11-04T07:42:08.000Z</time>
      </trkpt>
      <trkpt lat="39.51974" lon="-0.470783">
        <ele>82</ele>
        <time>2018-11-04T07:42:09.000Z</time>
      </trkpt>
      <trkpt lat="39.519771" lon="-0.470821">
        <ele>82</ele>
        <time>2018-11-04T07:42:10.000Z</time>
      </trkpt>
      <trkpt lat="39.519803" lon="-0.47086">
        <ele>82</ele>
        <time>2018-11-04T07:42:11.000Z</time>
      </trkpt>
      <trkpt lat="39.519836" lon="-0.470898">
        <ele>82</ele>
        <time>2018-11-04T07:42:12.000Z</time>
      </trkpt>
      <trkpt lat="39.519867" lon="-0.470937">
        <ele>82</ele>
        <time>2018-11-04T07:42:13.000Z</time>
      </trkpt>
      <trkpt lat="39.519898" lon="-0.470977">
        <ele>82</ele>
        <time>2018-11-04T07:42:14.000Z</time>
      </trkpt>
      <trkpt lat="39.51993" lon="-0.471017">
        <ele>82</ele>
        <time>2018-11-04T07:42:15.000Z</time>
      </trkpt>
      <trkpt lat="39.519962" lon="-0.471056">
        <ele>82</ele>
        <time>2018-11-04T07:42:16.000Z</time>
      </trkpt>
      <trkpt lat="39.519991" lon="-0.471095">
        <ele>82</ele>
        <time>2018-11-04T07:42:17.000Z</time>
      </trkpt>
      <trkpt lat="39.520018" lon="-0.471134">
        <ele>82</ele>
        <time>2018-11-04T07:42:18.000Z</time>
      </trkpt>
      <trkpt lat="39.520045" lon="-0.471173">
        <ele>82</ele>
        <time>2018-11-04T07:42:19.000Z</time>
      </trkpt>
      <trkpt lat="39.520074" lon="-0.471212">
        <ele>82</ele>
        <time>2018-11-04T07:42:20.000Z</time>
      </trkpt>
      <trkpt lat="39.520101" lon="-0.471252">
        <ele>82</ele>
        <time>2018-11-04T07:42:21.000Z</time>
      </trkpt>
      <trkpt lat="39.520127" lon="-0.471293">
        <ele>82</ele>
        <time>2018-11-04T07:42:22.000Z</time>
      </trkpt>
      <trkpt lat="39.520154" lon="-0.471335">
        <ele>82</ele>
        <time>2018-11-04T07:42:23.000Z</time>
      </trkpt>
      <trkpt lat="39.52018" lon="-0.471376">
        <ele>82.64</ele>
        <time>2018-11-04T07:42:24.000Z</time>
      </trkpt>
      <trkpt lat="39.520205" lon="-0.471418">
        <ele>83</ele>
        <time>2018-11-04T07:42:25.000Z</time>
      </trkpt>
      <trkpt lat="39.520232" lon="-0.471463">
        <ele>82.36</ele>
        <time>2018-11-04T07:42:26.000Z</time>
      </trkpt>
      <trkpt lat="39.520258" lon="-0.471508">
        <ele>82.64</ele>
        <time>2018-11-04T07:42:27.000Z</time>
      </trkpt>
      <trkpt lat="39.520284" lon="-0.471553">
        <ele>83</ele>
        <time>2018-11-04T07:42:28.000Z</time>
      </trkpt>
      <trkpt lat="39.520309" lon="-0.471599">
        <ele>83</ele>
        <time>2018-11-04T07:42:29.000Z</time>
      </trkpt>
      <trkpt lat="39.520333" lon="-0.471645">
        <ele>83</ele>
        <time>2018-11-04T07:42:30.000Z</time>
      </trkpt>
      <trkpt lat="39.520355" lon="-0.471693">
        <ele>83</ele>
        <time>2018-11-04T07:42:31.000Z</time>
      </trkpt>
      <trkpt lat="39.520376" lon="-0.471739">
        <ele>83</ele>
        <time>2018-11-04T07:42:32.000Z</time>
      </trkpt>
      <trkpt lat="39.5204" lon="-0.471784">
        <ele>83</ele>
        <time>2018-11-04T07:42:33.000Z</time>
      </trkpt>
      <trkpt lat="39.520424" lon="-0.471829">
        <ele>83</ele>
        <time>2018-11-04T07:42:34.000Z</time>
      </trkpt>
      <trkpt lat="39.520448" lon="-0.471876">
        <ele>83</ele>
        <time>2018-11-04T07:42:35.000Z</time>
      </trkpt>
      <trkpt lat="39.520473" lon="-0.471923">
        <ele>82.36</ele>
        <time>2018-11-04T07:42:36.000Z</time>
      </trkpt>
      <trkpt lat="39.520497" lon="-0.471969">
        <ele>82.64</ele>
        <time>2018-11-04T07:42:37.000Z</time>
      </trkpt>
      <trkpt lat="39.520523" lon="-0.472012">
        <ele>83</ele>
        <time>2018-11-04T07:42:38.000Z</time>
      </trkpt>
      <trkpt lat="39.520547" lon="-0.472055">
        <ele>83</ele>
        <time>2018-11-04T07:42:39.000Z</time>
      </trkpt>
      <trkpt lat="39.52057" lon="-0.472098">
        <ele>83</ele>
        <time>2018-11-04T07:42:40.000Z</time>
      </trkpt>
      <trkpt lat="39.520592" lon="-0.472141">
        <ele>83</ele>
        <time>2018-11-04T07:42:41.000Z</time>
      </trkpt>
      <trkpt lat="39.520617" lon="-0.472184">
        <ele>83.5135177209278</ele>
        <time>2018-11-04T07:42:42.000Z</time>
      </trkpt>
      <trkpt lat="39.520643" lon="-0.472225">
        <ele>84</ele>
        <time>2018-11-04T07:42:43.000Z</time>
      </trkpt>
      <trkpt lat="39.520668" lon="-0.472265">
        <ele>84</ele>
        <time>2018-11-04T07:42:44.000Z</time>
      </trkpt>
      <trkpt lat="39.520694" lon="-0.472306">
        <ele>84.64</ele>
        <time>2018-11-04T07:42:45.000Z</time>
      </trkpt>
      <trkpt lat="39.520721" lon="-0.472347">
        <ele>85</ele>
        <time>2018-11-04T07:42:46.000Z</time>
      </trkpt>
      <trkpt lat="39.520745" lon="-0.472387">
        <ele>85</ele>
        <time>2018-11-04T07:42:47.000Z</time>
      </trkpt>
      <trkpt lat="39.520773" lon="-0.472429">
        <ele>85</ele>
        <time>2018-11-04T07:42:48.000Z</time>
      </trkpt>
      <trkpt lat="39.520802" lon="-0.472468">
        <ele>85</ele>
        <time>2018-11-04T07:42:49.000Z</time>
      </trkpt>
      <trkpt lat="39.520832" lon="-0.472497">
        <ele>85.64</ele>
        <time>2018-11-04T07:42:50.000Z</time>
      </trkpt>
      <trkpt lat="39.520862" lon="-0.472523">
        <ele>86</ele>
        <time>2018-11-04T07:42:51.000Z</time>
      </trkpt>
      <trkpt lat="39.520895" lon="-0.472544">
        <ele>86</ele>
        <time>2018-11-04T07:42:52.000Z</time>
      </trkpt>
      <trkpt lat="39.52093" lon="-0.472551">
        <ele>86</ele>
        <time>2018-11-04T07:42:53.000Z</time>
      </trkpt>
      <trkpt lat="39.520962" lon="-0.472542">
        <ele>86</ele>
        <time>2018-11-04T07:42:54.000Z</time>
      </trkpt>
      <trkpt lat="39.520992" lon="-0.472529">
        <ele>86</ele>
        <time>2018-11-04T07:42:55.000Z</time>
      </trkpt>
      <trkpt lat="39.521015" lon="-0.472513">
        <ele>86</ele>
        <time>2018-11-04T07:42:56.000Z</time>
      </trkpt>
      <trkpt lat="39.521049" lon="-0.472495">
        <ele>86</ele>
        <time>2018-11-04T07:42:57.000Z</time>
      </trkpt>
      <trkpt lat="39.521082" lon="-0.472469">
        <ele>86</ele>
        <time>2018-11-04T07:42:58.000Z</time>
      </trkpt>
      <trkpt lat="39.521123" lon="-0.472432">
        <ele>86</ele>
        <time>2018-11-04T07:42:59.000Z</time>
      </trkpt>
      <trkpt lat="39.521166" lon="-0.472387">
        <ele>86.64</ele>
        <time>2018-11-04T07:43:00.000Z</time>
      </trkpt>
      <trkpt lat="39.521206" lon="-0.472342">
        <ele>87</ele>
        <time>2018-11-04T07:43:01.000Z</time>
      </trkpt>
      <trkpt lat="39.52125" lon="-0.472307">
        <ele>87</ele>
        <time>2018-11-04T07:43:02.000Z</time>
      </trkpt>
      <trkpt lat="39.521293" lon="-0.472266">
        <ele>87</ele>
        <time>2018-11-04T07:43:03.000Z</time>
      </trkpt>
      <trkpt lat="39.52134" lon="-0.472219">
        <ele>87</ele>
        <time>2018-11-04T07:43:04.000Z</time>
      </trkpt>
      <trkpt lat="39.521393" lon="-0.472168">
        <ele>87</ele>
        <time>2018-11-04T07:43:05.000Z</time>
      </trkpt>
      <trkpt lat="39.521454" lon="-0.472119">
        <ele>87</ele>
        <time>2018-11-04T07:43:06.000Z</time>
      </trkpt>
      <trkpt lat="39.521587" lon="-0.471993">
        <ele>86.36</ele>
        <time>2018-11-04T07:43:08.000Z</time>
      </trkpt>
      <trkpt lat="39.521655" lon="-0.471923">
        <ele>86.6274549173642</ele>
        <time>2018-11-04T07:43:09.000Z</time>
      </trkpt>
      <trkpt lat="39.521726" lon="-0.471857">
        <ele>87</ele>
        <time>2018-11-04T07:43:10.000Z</time>
      </trkpt>
      <trkpt lat="39.521795" lon="-0.471789">
        <ele>86.5038747382939</ele>
        <time>2018-11-04T07:43:11.000Z</time>
      </trkpt>
      <trkpt lat="39.521857" lon="-0.471724">
        <ele>86</ele>
        <time>2018-11-04T07:43:12.000Z</time>
      </trkpt>
      <trkpt lat="39.521917" lon="-0.471672">
        <ele>86</ele>
        <time>2018-11-04T07:43:13.000Z</time>
      </trkpt>
      <trkpt lat="39.52197" lon="-0.471622">
        <ele>85.36</ele>
        <time>2018-11-04T07:43:14.000Z</time>
      </trkpt>
      <trkpt lat="39.522015" lon="-0.471579">
        <ele>85</ele>
        <time>2018-11-04T07:43:15.000Z</time>
      </trkpt>
      <trkpt lat="39.522053" lon="-0.471541">
        <ele>85</ele>
        <time>2018-11-04T07:43:16.000Z</time>
      </trkpt>
      <trkpt lat="39.522085" lon="-0.471518">
        <ele>84.4960642618853</ele>
        <time>2018-11-04T07:43:17.000Z</time>
      </trkpt>
      <trkpt lat="39.52212" lon="-0.471516">
        <ele>83.4931528466974</ele>
        <time>2018-11-04T07:43:18.000Z</time>
      </trkpt>
      <trkpt lat="39.52216" lon="-0.471534">
        <ele>83</ele>
        <time>2018-11-04T07:43:19.000Z</time>
      </trkpt>
      <trkpt lat="39.522199" lon="-0.471563">
        <ele>83.4961252617061</ele>
        <time>2018-11-04T07:43:20.000Z</time>
      </trkpt>
      <trkpt lat="39.522226" lon="-0.471596">
        <ele>84</ele>
        <time>2018-11-04T07:43:21.000Z</time>
      </trkpt>
      <trkpt lat="39.522248" lon="-0.471632">
        <ele>84</ele>
        <time>2018-11-04T07:43:22.000Z</time>
      </trkpt>
      <trkpt lat="39.522271" lon="-0.471667">
        <ele>84</ele>
        <time>2018-11-04T07:43:23.000Z</time>
      </trkpt>
      <trkpt lat="39.522293" lon="-0.471699">
        <ele>84.64</ele>
        <time>2018-11-04T07:43:24.000Z</time>
      </trkpt>
      <trkpt lat="39.522315" lon="-0.471728">
        <ele>85</ele>
        <time>2018-11-04T07:43:25.000Z</time>
      </trkpt>
      <trkpt lat="39.522338" lon="-0.47176">
        <ele>85</ele>
        <time>2018-11-04T07:43:26.000Z</time>
      </trkpt>
      <trkpt lat="39.522355" lon="-0.4718">
        <ele>85.64</ele>
        <time>2018-11-04T07:43:27.000Z</time>
      </trkpt>
      <trkpt lat="39.522371" lon="-0.471831">
        <ele>86</ele>
        <time>2018-11-04T07:43:28.000Z</time>
      </trkpt>
      <trkpt lat="39.522391" lon="-0.471859">
        <ele>86.64</ele>
        <time>2018-11-04T07:43:29.000Z</time>
      </trkpt>
      <trkpt lat="39.522414" lon="-0.47189">
        <ele>87</ele>
        <time>2018-11-04T07:43:30.000Z</time>
      </trkpt>
      <trkpt lat="39.522437" lon="-0.471923">
        <ele>87</ele>
        <time>2018-11-04T07:43:31.000Z</time>
      </trkpt>
      <trkpt lat="39.522454" lon="-0.471958">
        <ele>87</ele>
        <time>2018-11-04T07:43:32.000Z</time>
      </trkpt>
      <trkpt lat="39.522473" lon="-0.471992">
        <ele>86.36</ele>
        <time>2018-11-04T07:43:33.000Z</time>
      </trkpt>
      <trkpt lat="39.522496" lon="-0.472023">
        <ele>86</ele>
        <time>2018-11-04T07:43:34.000Z</time>
      </trkpt>
      <trkpt lat="39.522519" lon="-0.472056">
        <ele>86</ele>
        <time>2018-11-04T07:43:35.000Z</time>
      </trkpt>
      <trkpt lat="39.522543" lon="-0.472089">
        <ele>86</ele>
        <time>2018-11-04T07:43:36.000Z</time>
      </trkpt>
      <trkpt lat="39.52257" lon="-0.47212">
        <ele>86</ele>
        <time>2018-11-04T07:43:37.000Z</time>
      </trkpt>
      <trkpt lat="39.522596" lon="-0.472154">
        <ele>86</ele>
        <time>2018-11-04T07:43:38.000Z</time>
      </trkpt>
      <trkpt lat="39.522621" lon="-0.472193">
        <ele>86</ele>
        <time>2018-11-04T07:43:39.000Z</time>
      </trkpt>
      <trkpt lat="39.522647" lon="-0.472231">
        <ele>86</ele>
        <time>2018-11-04T07:43:40.000Z</time>
      </trkpt>
      <trkpt lat="39.522672" lon="-0.472271">
        <ele>85.36</ele>
        <time>2018-11-04T07:43:41.000Z</time>
      </trkpt>
      <trkpt lat="39.522695" lon="-0.47231">
        <ele>85</ele>
        <time>2018-11-04T07:43:42.000Z</time>
      </trkpt>
      <trkpt lat="39.522718" lon="-0.472351">
        <ele>85</ele>
        <time>2018-11-04T07:43:43.000Z</time>
      </trkpt>
      <trkpt lat="39.522741" lon="-0.472391">
        <ele>85</ele>
        <time>2018-11-04T07:43:44.000Z</time>
      </trkpt>
      <trkpt lat="39.522765" lon="-0.472429">
        <ele>85</ele>
        <time>2018-11-04T07:43:45.000Z</time>
      </trkpt>
      <trkpt lat="39.522788" lon="-0.472469">
        <ele>85</ele>
        <time>2018-11-04T07:43:46.000Z</time>
      </trkpt>
      <trkpt lat="39.522808" lon="-0.472509">
        <ele>85</ele>
        <time>2018-11-04T07:43:47.000Z</time>
      </trkpt>
      <trkpt lat="39.522828" lon="-0.472553">
        <ele>84.5076898840117</ele>
        <time>2018-11-04T07:43:48.000Z</time>
      </trkpt>
      <trkpt lat="39.522846" lon="-0.472601">
        <ele>84</ele>
        <time>2018-11-04T07:43:49.000Z</time>
      </trkpt>
      <trkpt lat="39.522864" lon="-0.47265">
        <ele>84</ele>
        <time>2018-11-04T07:43:50.000Z</time>
      </trkpt>
      <trkpt lat="39.522884" lon="-0.472702">
        <ele>84</ele>
        <time>2018-11-04T07:43:51.000Z</time>
      </trkpt>
      <trkpt lat="39.52291" lon="-0.472762">
        <ele>83.36</ele>
        <time>2018-11-04T07:43:52.000Z</time>
      </trkpt>
      <trkpt lat="39.522942" lon="-0.472831">
        <ele>83</ele>
        <time>2018-11-04T07:43:53.000Z</time>
      </trkpt>
      <trkpt lat="39.52298" lon="-0.472905">
        <ele>83</ele>
        <time>2018-11-04T07:43:54.000Z</time>
      </trkpt>
      <trkpt lat="39.523026" lon="-0.472983">
        <ele>82.4960642618853</ele>
        <time>2018-11-04T07:43:55.000Z</time>
      </trkpt>
      <trkpt lat="39.523073" lon="-0.473063">
        <ele>82</ele>
        <time>2018-11-04T07:43:56.000Z</time>
      </trkpt>
      <trkpt lat="39.523125" lon="-0.473145">
        <ele>82</ele>
        <time>2018-11-04T07:43:57.000Z</time>
      </trkpt>
      <trkpt lat="39.523261" lon="-0.473361">
        <ele>82</ele>
        <time>2018-11-04T07:44:00.000Z</time>
      </trkpt>
      <trkpt lat="39.523337" lon="-0.473464">
        <ele>82.6363648117501</ele>
        <time>2018-11-04T07:44:02.000Z</time>
      </trkpt>
      <trkpt lat="39.523399" lon="-0.473606">
        <ele>83.64</ele>
        <time>2018-11-04T07:44:05.000Z</time>
      </trkpt>
      <trkpt lat="39.523438" lon="-0.473679">
        <ele>84.4857189877121</ele>
        <time>2018-11-04T07:44:07.000Z</time>
      </trkpt>
      <trkpt lat="39.523459" lon="-0.473708">
        <ele>85</ele>
        <time>2018-11-04T07:44:08.000Z</time>
      </trkpt>
      <trkpt lat="39.523472" lon="-0.473731">
        <ele>85</ele>
        <time>2018-11-04T07:44:09.000Z</time>
      </trkpt>
      <trkpt lat="39.523486" lon="-0.473758">
        <ele>84.36</ele>
        <time>2018-11-04T07:44:10.000Z</time>
      </trkpt>
      <trkpt lat="39.523505" lon="-0.473782">
        <ele>84</ele>
        <time>2018-11-04T07:44:11.000Z</time>
      </trkpt>
      <trkpt lat="39.523527" lon="-0.473808">
        <ele>84</ele>
        <time>2018-11-04T07:44:12.000Z</time>
      </trkpt>
      <trkpt lat="39.523559" lon="-0.473838">
        <ele>84</ele>
        <time>2018-11-04T07:44:13.000Z</time>
      </trkpt>
      <trkpt lat="39.523593" lon="-0.473874">
        <ele>84</ele>
        <time>2018-11-04T07:44:14.000Z</time>
      </trkpt>
      <trkpt lat="39.523624" lon="-0.473909">
        <ele>84</ele>
        <time>2018-11-04T07:44:15.000Z</time>
      </trkpt>
      <trkpt lat="39.523653" lon="-0.473948">
        <ele>84</ele>
        <time>2018-11-04T07:44:16.000Z</time>
      </trkpt>
      <trkpt lat="39.52368" lon="-0.473986">
        <ele>84</ele>
        <time>2018-11-04T07:44:17.000Z</time>
      </trkpt>
      <trkpt lat="39.523705" lon="-0.474023">
        <ele>84</ele>
        <time>2018-11-04T07:44:18.000Z</time>
      </trkpt>
      <trkpt lat="39.523734" lon="-0.47406">
        <ele>84</ele>
        <time>2018-11-04T07:44:19.000Z</time>
      </trkpt>
      <trkpt lat="39.52376" lon="-0.474099">
        <ele>84</ele>
        <time>2018-11-04T07:44:20.000Z</time>
      </trkpt>
      <trkpt lat="39.523788" lon="-0.47414">
        <ele>84</ele>
        <time>2018-11-04T07:44:21.000Z</time>
      </trkpt>
      <trkpt lat="39.523815" lon="-0.474182">
        <ele>84.6336653739893</ele>
        <time>2018-11-04T07:44:22.000Z</time>
      </trkpt>
      <trkpt lat="39.52384" lon="-0.474226">
        <ele>84.3636351882499</ele>
        <time>2018-11-04T07:44:23.000Z</time>
      </trkpt>
      <trkpt lat="39.523867" lon="-0.474269">
        <ele>84</ele>
        <time>2018-11-04T07:44:24.000Z</time>
      </trkpt>
      <trkpt lat="39.523897" lon="-0.474309">
        <ele>84</ele>
        <time>2018-11-04T07:44:25.000Z</time>
      </trkpt>
      <trkpt lat="39.523927" lon="-0.474347">
        <ele>84</ele>
        <time>2018-11-04T07:44:26.000Z</time>
      </trkpt>
      <trkpt lat="39.523955" lon="-0.474386">
        <ele>84</ele>
        <time>2018-11-04T07:44:27.000Z</time>
      </trkpt>
      <trkpt lat="39.523982" lon="-0.474426">
        <ele>84</ele>
        <time>2018-11-04T07:44:28.000Z</time>
      </trkpt>
      <trkpt lat="39.524005" lon="-0.474468">
        <ele>84</ele>
        <time>2018-11-04T07:44:29.000Z</time>
      </trkpt>
      <trkpt lat="39.524029" lon="-0.474512">
        <ele>83.36</ele>
        <time>2018-11-04T07:44:30.000Z</time>
      </trkpt>
      <trkpt lat="39.524051" lon="-0.474558">
        <ele>83</ele>
        <time>2018-11-04T07:44:31.000Z</time>
      </trkpt>
      <trkpt lat="39.524066" lon="-0.474607">
        <ele>83</ele>
        <time>2018-11-04T07:44:32.000Z</time>
      </trkpt>
      <trkpt lat="39.52408" lon="-0.474657">
        <ele>83</ele>
        <time>2018-11-04T07:44:33.000Z</time>
      </trkpt>
      <trkpt lat="39.524089" lon="-0.474708">
        <ele>83</ele>
        <time>2018-11-04T07:44:34.000Z</time>
      </trkpt>
      <trkpt lat="39.524095" lon="-0.474756">
        <ele>83</ele>
        <time>2018-11-04T07:44:35.000Z</time>
      </trkpt>
      <trkpt lat="39.524104" lon="-0.474804">
        <ele>83</ele>
        <time>2018-11-04T07:44:36.000Z</time>
      </trkpt>
      <trkpt lat="39.524117" lon="-0.474851">
        <ele>83</ele>
        <time>2018-11-04T07:44:37.000Z</time>
      </trkpt>
      <trkpt lat="39.524135" lon="-0.474894">
        <ele>83</ele>
        <time>2018-11-04T07:44:38.000Z</time>
      </trkpt>
      <trkpt lat="39.524155" lon="-0.474935">
        <ele>82.36</ele>
        <time>2018-11-04T07:44:39.000Z</time>
      </trkpt>
      <trkpt lat="39.524174" lon="-0.474975">
        <ele>82</ele>
        <time>2018-11-04T07:44:40.000Z</time>
      </trkpt>
      <trkpt lat="39.524189" lon="-0.475018">
        <ele>82</ele>
        <time>2018-11-04T07:44:41.000Z</time>
      </trkpt>
      <trkpt lat="39.524205" lon="-0.475062">
        <ele>82</ele>
        <time>2018-11-04T07:44:42.000Z</time>
      </trkpt>
      <trkpt lat="39.524223" lon="-0.475108">
        <ele>82</ele>
        <time>2018-11-04T07:44:43.000Z</time>
      </trkpt>
      <trkpt lat="39.52424" lon="-0.475158">
        <ele>81.511807214344</ele>
        <time>2018-11-04T07:44:44.000Z</time>
      </trkpt>
      <trkpt lat="39.524259" lon="-0.47521">
        <ele>81</ele>
        <time>2018-11-04T07:44:45.000Z</time>
      </trkpt>
      <trkpt lat="39.524285" lon="-0.475259">
        <ele>81</ele>
        <time>2018-11-04T07:44:46.000Z</time>
      </trkpt>
      <trkpt lat="39.524313" lon="-0.475306">
        <ele>81</ele>
        <time>2018-11-04T07:44:47.000Z</time>
      </trkpt>
      <trkpt lat="39.524341" lon="-0.475354">
        <ele>81</ele>
        <time>2018-11-04T07:44:48.000Z</time>
      </trkpt>
      <trkpt lat="39.524368" lon="-0.475403">
        <ele>81</ele>
        <time>2018-11-04T07:44:49.000Z</time>
      </trkpt>
      <trkpt lat="39.524397" lon="-0.475449">
        <ele>81</ele>
        <time>2018-11-04T07:44:50.000Z</time>
      </trkpt>
      <trkpt lat="39.524428" lon="-0.475491">
        <ele>81</ele>
        <time>2018-11-04T07:44:51.000Z</time>
      </trkpt>
      <trkpt lat="39.524458" lon="-0.475533">
        <ele>81</ele>
        <time>2018-11-04T07:44:52.000Z</time>
      </trkpt>
      <trkpt lat="39.524488" lon="-0.475576">
        <ele>81</ele>
        <time>2018-11-04T07:44:53.000Z</time>
      </trkpt>
      <trkpt lat="39.524516" lon="-0.47562">
        <ele>81</ele>
        <time>2018-11-04T07:44:54.000Z</time>
      </trkpt>
      <trkpt lat="39.524545" lon="-0.475665">
        <ele>81</ele>
        <time>2018-11-04T07:44:55.000Z</time>
      </trkpt>
      <trkpt lat="39.524574" lon="-0.47571">
        <ele>81</ele>
        <time>2018-11-04T07:44:56.000Z</time>
      </trkpt>
      <trkpt lat="39.524605" lon="-0.475752">
        <ele>81</ele>
        <time>2018-11-04T07:44:57.000Z</time>
      </trkpt>
      <trkpt lat="39.524634" lon="-0.475793">
        <ele>81.64</ele>
        <time>2018-11-04T07:44:58.000Z</time>
      </trkpt>
      <trkpt lat="39.524662" lon="-0.475834">
        <ele>82</ele>
        <time>2018-11-04T07:44:59.000Z</time>
      </trkpt>
      <trkpt lat="39.524689" lon="-0.475875">
        <ele>82</ele>
        <time>2018-11-04T07:45:00.000Z</time>
      </trkpt>
      <trkpt lat="39.524712" lon="-0.475915">
        <ele>82</ele>
        <time>2018-11-04T07:45:01.000Z</time>
      </trkpt>
      <trkpt lat="39.524733" lon="-0.475954">
        <ele>82</ele>
        <time>2018-11-04T07:45:02.000Z</time>
      </trkpt>
      <trkpt lat="39.524753" lon="-0.475992">
        <ele>82</ele>
        <time>2018-11-04T07:45:03.000Z</time>
      </trkpt>
      <trkpt lat="39.524776" lon="-0.476029">
        <ele>82</ele>
        <time>2018-11-04T07:45:04.000Z</time>
      </trkpt>
      <trkpt lat="39.524803" lon="-0.476066">
        <ele>82</ele>
        <time>2018-11-04T07:45:05.000Z</time>
      </trkpt>
      <trkpt lat="39.52483" lon="-0.476106">
        <ele>81.36</ele>
        <time>2018-11-04T07:45:06.000Z</time>
      </trkpt>
      <trkpt lat="39.524856" lon="-0.476149">
        <ele>81</ele>
        <time>2018-11-04T07:45:07.000Z</time>
      </trkpt>
      <trkpt lat="39.524881" lon="-0.476193">
        <ele>81</ele>
        <time>2018-11-04T07:45:08.000Z</time>
      </trkpt>
      <trkpt lat="39.524905" lon="-0.476241">
        <ele>80.5217415501057</ele>
        <time>2018-11-04T07:45:09.000Z</time>
      </trkpt>
      <trkpt lat="39.52493" lon="-0.476288">
        <ele>80</ele>
        <time>2018-11-04T07:45:10.000Z</time>
      </trkpt>
      <trkpt lat="39.524955" lon="-0.476333">
        <ele>80</ele>
        <time>2018-11-04T07:45:11.000Z</time>
      </trkpt>
      <trkpt lat="39.52498" lon="-0.476376">
        <ele>80</ele>
        <time>2018-11-04T07:45:12.000Z</time>
      </trkpt>
      <trkpt lat="39.525004" lon="-0.47642">
        <ele>80</ele>
        <time>2018-11-04T07:45:13.000Z</time>
      </trkpt>
      <trkpt lat="39.525028" lon="-0.476466">
        <ele>80</ele>
        <time>2018-11-04T07:45:14.000Z</time>
      </trkpt>
      <trkpt lat="39.525054" lon="-0.476511">
        <ele>80</ele>
        <time>2018-11-04T07:45:15.000Z</time>
      </trkpt>
      <trkpt lat="39.525082" lon="-0.476553">
        <ele>80</ele>
        <time>2018-11-04T07:45:16.000Z</time>
      </trkpt>
      <trkpt lat="39.525114" lon="-0.47659">
        <ele>80</ele>
        <time>2018-11-04T07:45:17.000Z</time>
      </trkpt>
      <trkpt lat="39.52515" lon="-0.476621">
        <ele>80</ele>
        <time>2018-11-04T07:45:18.000Z</time>
      </trkpt>
      <trkpt lat="39.525191" lon="-0.476648">
        <ele>80.5</ele>
        <time>2018-11-04T07:45:19.000Z</time>
      </trkpt>
      <trkpt lat="39.525229" lon="-0.476676">
        <ele>81</ele>
        <time>2018-11-04T07:45:20.000Z</time>
      </trkpt>
      <trkpt lat="39.52526" lon="-0.476707">
        <ele>81</ele>
        <time>2018-11-04T07:45:21.000Z</time>
      </trkpt>
      <trkpt lat="39.525289" lon="-0.476747">
        <ele>81</ele>
        <time>2018-11-04T07:45:22.000Z</time>
      </trkpt>
      <trkpt lat="39.525319" lon="-0.476787">
        <ele>81</ele>
        <time>2018-11-04T07:45:23.000Z</time>
      </trkpt>
      <trkpt lat="39.525348" lon="-0.476823">
        <ele>81</ele>
        <time>2018-11-04T07:45:24.000Z</time>
      </trkpt>
      <trkpt lat="39.525374" lon="-0.476865">
        <ele>81</ele>
        <time>2018-11-04T07:45:25.000Z</time>
      </trkpt>
      <trkpt lat="39.5254" lon="-0.476906">
        <ele>81</ele>
        <time>2018-11-04T07:45:26.000Z</time>
      </trkpt>
      <trkpt lat="39.525426" lon="-0.47695">
        <ele>81.64</ele>
        <time>2018-11-04T07:45:27.000Z</time>
      </trkpt>
      <trkpt lat="39.525449" lon="-0.476995">
        <ele>82</ele>
        <time>2018-11-04T07:45:28.000Z</time>
      </trkpt>
      <trkpt lat="39.525472" lon="-0.477042">
        <ele>82</ele>
        <time>2018-11-04T07:45:29.000Z</time>
      </trkpt>
      <trkpt lat="39.525499" lon="-0.47709">
        <ele>82</ele>
        <time>2018-11-04T07:45:30.000Z</time>
      </trkpt>
      <trkpt lat="39.52553" lon="-0.477131">
        <ele>82</ele>
        <time>2018-11-04T07:45:31.000Z</time>
      </trkpt>
      <trkpt lat="39.525558" lon="-0.477176">
        <ele>82</ele>
        <time>2018-11-04T07:45:32.000Z</time>
      </trkpt>
      <trkpt lat="39.525585" lon="-0.477223">
        <ele>82</ele>
        <time>2018-11-04T07:45:33.000Z</time>
      </trkpt>
      <trkpt lat="39.525613" lon="-0.477271">
        <ele>82</ele>
        <time>2018-11-04T07:45:34.000Z</time>
      </trkpt>
      <trkpt lat="39.52564" lon="-0.477318">
        <ele>81.36</ele>
        <time>2018-11-04T07:45:35.000Z</time>
      </trkpt>
      <trkpt lat="39.525667" lon="-0.477366">
        <ele>81.64</ele>
        <time>2018-11-04T07:45:36.000Z</time>
      </trkpt>
      <trkpt lat="39.525696" lon="-0.477413">
        <ele>82</ele>
        <time>2018-11-04T07:45:37.000Z</time>
      </trkpt>
      <trkpt lat="39.525724" lon="-0.47746">
        <ele>82</ele>
        <time>2018-11-04T07:45:38.000Z</time>
      </trkpt>
      <trkpt lat="39.525753" lon="-0.477508">
        <ele>82</ele>
        <time>2018-11-04T07:45:39.000Z</time>
      </trkpt>
      <trkpt lat="39.525782" lon="-0.477557">
        <ele>82</ele>
        <time>2018-11-04T07:45:40.000Z</time>
      </trkpt>
      <trkpt lat="39.525811" lon="-0.477604">
        <ele>82</ele>
        <time>2018-11-04T07:45:41.000Z</time>
      </trkpt>
      <trkpt lat="39.52584" lon="-0.47765">
        <ele>82</ele>
        <time>2018-11-04T07:45:42.000Z</time>
      </trkpt>
      <trkpt lat="39.525869" lon="-0.477694">
        <ele>82</ele>
        <time>2018-11-04T07:45:43.000Z</time>
      </trkpt>
      <trkpt lat="39.525895" lon="-0.47774">
        <ele>82</ele>
        <time>2018-11-04T07:45:44.000Z</time>
      </trkpt>
      <trkpt lat="39.525922" lon="-0.477789">
        <ele>82</ele>
        <time>2018-11-04T07:45:45.000Z</time>
      </trkpt>
      <trkpt lat="39.525949" lon="-0.477835">
        <ele>82</ele>
        <time>2018-11-04T07:45:46.000Z</time>
      </trkpt>
      <trkpt lat="39.525977" lon="-0.477881">
        <ele>82</ele>
        <time>2018-11-04T07:45:47.000Z</time>
      </trkpt>
      <trkpt lat="39.526006" lon="-0.477926">
        <ele>82</ele>
        <time>2018-11-04T07:45:48.000Z</time>
      </trkpt>
      <trkpt lat="39.526036" lon="-0.477965">
        <ele>82</ele>
        <time>2018-11-04T07:45:49.000Z</time>
      </trkpt>
      <trkpt lat="39.526065" lon="-0.477999">
        <ele>82</ele>
        <time>2018-11-04T07:45:50.000Z</time>
      </trkpt>
      <trkpt lat="39.526093" lon="-0.478035">
        <ele>82.64</ele>
        <time>2018-11-04T07:45:51.000Z</time>
      </trkpt>
      <trkpt lat="39.526121" lon="-0.478075">
        <ele>83</ele>
        <time>2018-11-04T07:45:52.000Z</time>
      </trkpt>
      <trkpt lat="39.52615" lon="-0.478115">
        <ele>83</ele>
        <time>2018-11-04T07:45:53.000Z</time>
      </trkpt>
      <trkpt lat="39.526178" lon="-0.478153">
        <ele>83</ele>
        <time>2018-11-04T07:45:54.000Z</time>
      </trkpt>
      <trkpt lat="39.526204" lon="-0.478194">
        <ele>83</ele>
        <time>2018-11-04T07:45:55.000Z</time>
      </trkpt>
      <trkpt lat="39.526232" lon="-0.478232">
        <ele>83</ele>
        <time>2018-11-04T07:45:56.000Z</time>
      </trkpt>
      <trkpt lat="39.526262" lon="-0.478271">
        <ele>83</ele>
        <time>2018-11-04T07:45:57.000Z</time>
      </trkpt>
      <trkpt lat="39.526287" lon="-0.478314">
        <ele>83</ele>
        <time>2018-11-04T07:45:58.000Z</time>
      </trkpt>
      <trkpt lat="39.526311" lon="-0.478354">
        <ele>83</ele>
        <time>2018-11-04T07:45:59.000Z</time>
      </trkpt>
      <trkpt lat="39.526335" lon="-0.478396">
        <ele>83</ele>
        <time>2018-11-04T07:46:00.000Z</time>
      </trkpt>
      <trkpt lat="39.526358" lon="-0.478436">
        <ele>83</ele>
        <time>2018-11-04T07:46:01.000Z</time>
      </trkpt>
      <trkpt lat="39.526382" lon="-0.47848">
        <ele>82.36</ele>
        <time>2018-11-04T07:46:02.000Z</time>
      </trkpt>
      <trkpt lat="39.526408" lon="-0.478522">
        <ele>82</ele>
        <time>2018-11-04T07:46:03.000Z</time>
      </trkpt>
      <trkpt lat="39.52643" lon="-0.478566">
        <ele>82</ele>
        <time>2018-11-04T07:46:04.000Z</time>
      </trkpt>
      <trkpt lat="39.526457" lon="-0.478613">
        <ele>82</ele>
        <time>2018-11-04T07:46:05.000Z</time>
      </trkpt>
      <trkpt lat="39.526486" lon="-0.478653">
        <ele>82</ele>
        <time>2018-11-04T07:46:06.000Z</time>
      </trkpt>
      <trkpt lat="39.526521" lon="-0.47869">
        <ele>82</ele>
        <time>2018-11-04T07:46:07.000Z</time>
      </trkpt>
      <trkpt lat="39.526556" lon="-0.478726">
        <ele>82</ele>
        <time>2018-11-04T07:46:08.000Z</time>
      </trkpt>
      <trkpt lat="39.526591" lon="-0.47876">
        <ele>82.5</ele>
        <time>2018-11-04T07:46:09.000Z</time>
      </trkpt>
      <trkpt lat="39.52663" lon="-0.47879">
        <ele>83</ele>
        <time>2018-11-04T07:46:10.000Z</time>
      </trkpt>
      <trkpt lat="39.526672" lon="-0.478818">
        <ele>83</ele>
        <time>2018-11-04T07:46:11.000Z</time>
      </trkpt>
      <trkpt lat="39.526714" lon="-0.478844">
        <ele>83</ele>
        <time>2018-11-04T07:46:12.000Z</time>
      </trkpt>
      <trkpt lat="39.526755" lon="-0.478874">
        <ele>83.64</ele>
        <time>2018-11-04T07:46:13.000Z</time>
      </trkpt>
      <trkpt lat="39.526793" lon="-0.478908">
        <ele>84</ele>
        <time>2018-11-04T07:46:14.000Z</time>
      </trkpt>
      <trkpt lat="39.526829" lon="-0.478944">
        <ele>84</ele>
        <time>2018-11-04T07:46:15.000Z</time>
      </trkpt>
      <trkpt lat="39.526867" lon="-0.47898">
        <ele>84.6336653739893</ele>
        <time>2018-11-04T07:46:16.000Z</time>
      </trkpt>
      <trkpt lat="39.526905" lon="-0.479016">
        <ele>85</ele>
        <time>2018-11-04T07:46:17.000Z</time>
      </trkpt>
      <trkpt lat="39.526946" lon="-0.479053">
        <ele>85</ele>
        <time>2018-11-04T07:46:18.000Z</time>
      </trkpt>
      <trkpt lat="39.526986" lon="-0.479087">
        <ele>85.64</ele>
        <time>2018-11-04T07:46:19.000Z</time>
      </trkpt>
      <trkpt lat="39.527027" lon="-0.47912">
        <ele>86</ele>
        <time>2018-11-04T07:46:20.000Z</time>
      </trkpt>
      <trkpt lat="39.527067" lon="-0.479151">
        <ele>86</ele>
        <time>2018-11-04T07:46:21.000Z</time>
      </trkpt>
      <trkpt lat="39.527108" lon="-0.47918">
        <ele>86</ele>
        <time>2018-11-04T07:46:22.000Z</time>
      </trkpt>
      <trkpt lat="39.52715" lon="-0.479212">
        <ele>86</ele>
        <time>2018-11-04T07:46:23.000Z</time>
      </trkpt>
      <trkpt lat="39.527189" lon="-0.479248">
        <ele>86</ele>
        <time>2018-11-04T07:46:24.000Z</time>
      </trkpt>
      <trkpt lat="39.52723" lon="-0.47928">
        <ele>86</ele>
        <time>2018-11-04T07:46:25.000Z</time>
      </trkpt>
      <trkpt lat="39.52727" lon="-0.479312">
        <ele>86</ele>
        <time>2018-11-04T07:46:26.000Z</time>
      </trkpt>
      <trkpt lat="39.527304" lon="-0.479335">
        <ele>86</ele>
        <time>2018-11-04T07:46:27.000Z</time>
      </trkpt>
      <trkpt lat="39.527343" lon="-0.47937">
        <ele>86</ele>
        <time>2018-11-04T07:46:28.000Z</time>
      </trkpt>
      <trkpt lat="39.527385" lon="-0.479406">
        <ele>86</ele>
        <time>2018-11-04T07:46:29.000Z</time>
      </trkpt>
      <trkpt lat="39.527428" lon="-0.479441">
        <ele>86</ele>
        <time>2018-11-04T07:46:30.000Z</time>
      </trkpt>
      <trkpt lat="39.527471" lon="-0.479478">
        <ele>86</ele>
        <time>2018-11-04T07:46:31.000Z</time>
      </trkpt>
      <trkpt lat="39.527514" lon="-0.479514">
        <ele>86</ele>
        <time>2018-11-04T07:46:32.000Z</time>
      </trkpt>
      <trkpt lat="39.527557" lon="-0.479548">
        <ele>86</ele>
        <time>2018-11-04T07:46:33.000Z</time>
      </trkpt>
      <trkpt lat="39.5276" lon="-0.479579">
        <ele>86</ele>
        <time>2018-11-04T07:46:34.000Z</time>
      </trkpt>
      <trkpt lat="39.527645" lon="-0.479618">
        <ele>86</ele>
        <time>2018-11-04T07:46:35.000Z</time>
      </trkpt>
      <trkpt lat="39.527687" lon="-0.479653">
        <ele>86</ele>
        <time>2018-11-04T07:46:36.000Z</time>
      </trkpt>
      <trkpt lat="39.527729" lon="-0.479692">
        <ele>86.492305268651</ele>
        <time>2018-11-04T07:46:37.000Z</time>
      </trkpt>
      <trkpt lat="39.52777" lon="-0.47973">
        <ele>87</ele>
        <time>2018-11-04T07:46:38.000Z</time>
      </trkpt>
      <trkpt lat="39.527808" lon="-0.479764">
        <ele>87</ele>
        <time>2018-11-04T07:46:39.000Z</time>
      </trkpt>
      <trkpt lat="39.527887" lon="-0.479837">
        <ele>87</ele>
        <time>2018-11-04T07:46:41.000Z</time>
      </trkpt>
      <trkpt lat="39.527926" lon="-0.479874">
        <ele>87</ele>
        <time>2018-11-04T07:46:42.000Z</time>
      </trkpt>
      <trkpt lat="39.528002" lon="-0.47995">
        <ele>87</ele>
        <time>2018-11-04T07:46:44.000Z</time>
      </trkpt>
      <trkpt lat="39.528036" lon="-0.479989">
        <ele>87</ele>
        <time>2018-11-04T07:46:45.000Z</time>
      </trkpt>
      <trkpt lat="39.528068" lon="-0.48003">
        <ele>87</ele>
        <time>2018-11-04T07:46:46.000Z</time>
      </trkpt>
      <trkpt lat="39.5281" lon="-0.48006">
        <ele>87</ele>
        <time>2018-11-04T07:46:47.000Z</time>
      </trkpt>
      <trkpt lat="39.528145" lon="-0.480088">
        <ele>87</ele>
        <time>2018-11-04T07:46:48.000Z</time>
      </trkpt>
      <trkpt lat="39.528188" lon="-0.480101">
        <ele>87.4782584498943</ele>
        <time>2018-11-04T07:46:49.000Z</time>
      </trkpt>
      <trkpt lat="39.528238" lon="-0.480088">
        <ele>88</ele>
        <time>2018-11-04T07:46:50.000Z</time>
      </trkpt>
      <trkpt lat="39.528284" lon="-0.480043">
        <ele>88</ele>
        <time>2018-11-04T07:46:51.000Z</time>
      </trkpt>
      <trkpt lat="39.528319" lon="-0.479972">
        <ele>88</ele>
        <time>2018-11-04T07:46:52.000Z</time>
      </trkpt>
      <trkpt lat="39.528344" lon="-0.479885">
        <ele>88</ele>
        <time>2018-11-04T07:46:53.000Z</time>
      </trkpt>
      <trkpt lat="39.528369" lon="-0.479804">
        <ele>87.36</ele>
        <time>2018-11-04T07:46:54.000Z</time>
      </trkpt>
      <trkpt lat="39.528416" lon="-0.479728">
        <ele>87</ele>
        <time>2018-11-04T07:46:55.000Z</time>
      </trkpt>
      <trkpt lat="39.528483" lon="-0.479694">
        <ele>87</ele>
        <time>2018-11-04T07:46:56.000Z</time>
      </trkpt>
      <trkpt lat="39.528547" lon="-0.479674">
        <ele>87</ele>
        <time>2018-11-04T07:46:57.000Z</time>
      </trkpt>
      <trkpt lat="39.528608" lon="-0.479665">
        <ele>86.36</ele>
        <time>2018-11-04T07:46:58.000Z</time>
      </trkpt>
      <trkpt lat="39.528667" lon="-0.479661">
        <ele>86</ele>
        <time>2018-11-04T07:46:59.000Z</time>
      </trkpt>
      <trkpt lat="39.528726" lon="-0.479661">
        <ele>86</ele>
        <time>2018-11-04T07:47:00.000Z</time>
      </trkpt>
      <trkpt lat="39.528785" lon="-0.479668">
        <ele>86</ele>
        <time>2018-11-04T07:47:01.000Z</time>
      </trkpt>
      <trkpt lat="39.528843" lon="-0.479679">
        <ele>86</ele>
        <time>2018-11-04T07:47:02.000Z</time>
      </trkpt>
      <trkpt lat="39.528898" lon="-0.479695">
        <ele>86</ele>
        <time>2018-11-04T07:47:03.000Z</time>
      </trkpt>
      <trkpt lat="39.528953" lon="-0.479715">
        <ele>86</ele>
        <time>2018-11-04T07:47:04.000Z</time>
      </trkpt>
      <trkpt lat="39.529008" lon="-0.479734">
        <ele>86</ele>
        <time>2018-11-04T07:47:05.000Z</time>
      </trkpt>
      <trkpt lat="39.529063" lon="-0.479754">
        <ele>86</ele>
        <time>2018-11-04T07:47:06.000Z</time>
      </trkpt>
      <trkpt lat="39.529115" lon="-0.479779">
        <ele>86</ele>
        <time>2018-11-04T07:47:07.000Z</time>
      </trkpt>
      <trkpt lat="39.529165" lon="-0.479804">
        <ele>86</ele>
        <time>2018-11-04T07:47:08.000Z</time>
      </trkpt>
      <trkpt lat="39.529214" lon="-0.479832">
        <ele>86.64</ele>
        <time>2018-11-04T07:47:09.000Z</time>
      </trkpt>
      <trkpt lat="39.529262" lon="-0.479861">
        <ele>87</ele>
        <time>2018-11-04T07:47:10.000Z</time>
      </trkpt>
      <trkpt lat="39.529308" lon="-0.479892">
        <ele>87</ele>
        <time>2018-11-04T07:47:11.000Z</time>
      </trkpt>
      <trkpt lat="39.529353" lon="-0.47993">
        <ele>87.64</ele>
        <time>2018-11-04T07:47:12.000Z</time>
      </trkpt>
      <trkpt lat="39.529393" lon="-0.479968">
        <ele>88</ele>
        <time>2018-11-04T07:47:13.000Z</time>
      </trkpt>
      <trkpt lat="39.529431" lon="-0.480011">
        <ele>88</ele>
        <time>2018-11-04T07:47:14.000Z</time>
      </trkpt>
      <trkpt lat="39.529464" lon="-0.48006">
        <ele>87.36</ele>
        <time>2018-11-04T07:47:15.000Z</time>
      </trkpt>
      <trkpt lat="39.529491" lon="-0.480113">
        <ele>87</ele>
        <time>2018-11-04T07:47:16.000Z</time>
      </trkpt>
      <trkpt lat="39.529519" lon="-0.480165">
        <ele>87</ele>
        <time>2018-11-04T07:47:17.000Z</time>
      </trkpt>
      <trkpt lat="39.529545" lon="-0.480221">
        <ele>87</ele>
        <time>2018-11-04T07:47:18.000Z</time>
      </trkpt>
      <trkpt lat="39.52957" lon="-0.480275">
        <ele>87.64</ele>
        <time>2018-11-04T07:47:19.000Z</time>
      </trkpt>
      <trkpt lat="39.529593" lon="-0.480327">
        <ele>88</ele>
        <time>2018-11-04T07:47:20.000Z</time>
      </trkpt>
      <trkpt lat="39.529617" lon="-0.48038">
        <ele>87.36</ele>
        <time>2018-11-04T07:47:21.000Z</time>
      </trkpt>
      <trkpt lat="39.52964" lon="-0.480434">
        <ele>87</ele>
        <time>2018-11-04T07:47:22.000Z</time>
      </trkpt>
      <trkpt lat="39.529658" lon="-0.480488">
        <ele>87.6326506622084</ele>
        <time>2018-11-04T07:47:23.000Z</time>
      </trkpt>
      <trkpt lat="39.529678" lon="-0.480541">
        <ele>88</ele>
        <time>2018-11-04T07:47:24.000Z</time>
      </trkpt>
      <trkpt lat="39.529696" lon="-0.480591">
        <ele>88</ele>
        <time>2018-11-04T07:47:25.000Z</time>
      </trkpt>
      <trkpt lat="39.529716" lon="-0.480636">
        <ele>88</ele>
        <time>2018-11-04T07:47:26.000Z</time>
      </trkpt>
      <trkpt lat="39.529731" lon="-0.480689">
        <ele>88</ele>
        <time>2018-11-04T07:47:27.000Z</time>
      </trkpt>
      <trkpt lat="39.529742" lon="-0.480747">
        <ele>88</ele>
        <time>2018-11-04T07:47:28.000Z</time>
      </trkpt>
      <trkpt lat="39.529755" lon="-0.480799">
        <ele>88</ele>
        <time>2018-11-04T07:47:29.000Z</time>
      </trkpt>
      <trkpt lat="39.529769" lon="-0.480851">
        <ele>88</ele>
        <time>2018-11-04T07:47:30.000Z</time>
      </trkpt>
      <trkpt lat="39.529786" lon="-0.480901">
        <ele>88.64</ele>
        <time>2018-11-04T07:47:31.000Z</time>
      </trkpt>
      <trkpt lat="39.529805" lon="-0.480946">
        <ele>89</ele>
        <time>2018-11-04T07:47:32.000Z</time>
      </trkpt>
      <trkpt lat="39.52982" lon="-0.480991">
        <ele>89</ele>
        <time>2018-11-04T07:47:33.000Z</time>
      </trkpt>
      <trkpt lat="39.529835" lon="-0.481033">
        <ele>89</ele>
        <time>2018-11-04T07:47:34.000Z</time>
      </trkpt>
      <trkpt lat="39.529847" lon="-0.481079">
        <ele>89</ele>
        <time>2018-11-04T07:47:35.000Z</time>
      </trkpt>
      <trkpt lat="39.529858" lon="-0.481122">
        <ele>89</ele>
        <time>2018-11-04T07:47:36.000Z</time>
      </trkpt>
      <trkpt lat="39.529865" lon="-0.481164">
        <ele>89</ele>
        <time>2018-11-04T07:47:37.000Z</time>
      </trkpt>
      <trkpt lat="39.529871" lon="-0.481208">
        <ele>89</ele>
        <time>2018-11-04T07:47:38.000Z</time>
      </trkpt>
      <trkpt lat="39.529879" lon="-0.481253">
        <ele>89</ele>
        <time>2018-11-04T07:47:39.000Z</time>
      </trkpt>
      <trkpt lat="39.529884" lon="-0.481299">
        <ele>89</ele>
        <time>2018-11-04T07:47:40.000Z</time>
      </trkpt>
      <trkpt lat="39.52989" lon="-0.481343">
        <ele>89</ele>
        <time>2018-11-04T07:47:41.000Z</time>
      </trkpt>
      <trkpt lat="39.529897" lon="-0.481384">
        <ele>89</ele>
        <time>2018-11-04T07:47:42.000Z</time>
      </trkpt>
      <trkpt lat="39.529912" lon="-0.481424">
        <ele>89</ele>
        <time>2018-11-04T07:47:43.000Z</time>
      </trkpt>
      <trkpt lat="39.529932" lon="-0.481458">
        <ele>89</ele>
        <time>2018-11-04T07:47:44.000Z</time>
      </trkpt>
      <trkpt lat="39.529956" lon="-0.481485">
        <ele>89</ele>
        <time>2018-11-04T07:47:45.000Z</time>
      </trkpt>
      <trkpt lat="39.529983" lon="-0.481502">
        <ele>89</ele>
        <time>2018-11-04T07:47:46.000Z</time>
      </trkpt>
      <trkpt lat="39.530009" lon="-0.481514">
        <ele>89</ele>
        <time>2018-11-04T07:47:47.000Z</time>
      </trkpt>
      <trkpt lat="39.530033" lon="-0.481522">
        <ele>89.64</ele>
        <time>2018-11-04T07:47:48.000Z</time>
      </trkpt>
      <trkpt lat="39.53006" lon="-0.481489">
        <ele>90</ele>
        <time>2018-11-04T07:47:50.000Z</time>
      </trkpt>
      <trkpt lat="39.530074" lon="-0.48146">
        <ele>90</ele>
        <time>2018-11-04T07:47:51.000Z</time>
      </trkpt>
      <trkpt lat="39.530091" lon="-0.481427">
        <ele>90</ele>
        <time>2018-11-04T07:47:52.000Z</time>
      </trkpt>
      <trkpt lat="39.530107" lon="-0.481387">
        <ele>90</ele>
        <time>2018-11-04T07:47:53.000Z</time>
      </trkpt>
      <trkpt lat="39.530127" lon="-0.481341">
        <ele>90</ele>
        <time>2018-11-04T07:47:54.000Z</time>
      </trkpt>
      <trkpt lat="39.530144" lon="-0.481289">
        <ele>90</ele>
        <time>2018-11-04T07:47:55.000Z</time>
      </trkpt>
      <trkpt lat="39.530171" lon="-0.481188">
        <ele>90</ele>
        <time>2018-11-04T07:47:57.000Z</time>
      </trkpt>
      <trkpt lat="39.530189" lon="-0.481138">
        <ele>90</ele>
        <time>2018-11-04T07:47:58.000Z</time>
      </trkpt>
      <trkpt lat="39.530199" lon="-0.481096">
        <ele>89.36</ele>
        <time>2018-11-04T07:47:59.000Z</time>
      </trkpt>
      <trkpt lat="39.530203" lon="-0.481059">
        <ele>89</ele>
        <time>2018-11-04T07:48:00.000Z</time>
      </trkpt>
      <trkpt lat="39.530208" lon="-0.48103">
        <ele>89</ele>
        <time>2018-11-04T07:48:01.000Z</time>
      </trkpt>
      <trkpt lat="39.530206" lon="-0.481003">
        <ele>89</ele>
        <time>2018-11-04T07:48:02.000Z</time>
      </trkpt>
      <trkpt lat="39.530215" lon="-0.48098">
        <ele>90</ele>
        <time>2018-11-04T07:48:04.000Z</time>
      </trkpt>
      <trkpt lat="39.53023" lon="-0.480994">
        <ele>90</ele>
        <time>2018-11-04T07:48:23.000Z</time>
      </trkpt>
      <trkpt lat="39.530234" lon="-0.480957">
        <ele>88</ele>
        <time>2018-11-04T07:48:34.000Z</time>
      </trkpt>
      <trkpt lat="39.530249" lon="-0.480904">
        <ele>88.64</ele>
        <time>2018-11-04T07:48:36.000Z</time>
      </trkpt>
      <trkpt lat="39.530261" lon="-0.480865">
        <ele>89</ele>
        <time>2018-11-04T07:48:37.000Z</time>
      </trkpt>
      <trkpt lat="39.530276" lon="-0.480819">
        <ele>89</ele>
        <time>2018-11-04T07:48:38.000Z</time>
      </trkpt>
      <trkpt lat="39.530294" lon="-0.480775">
        <ele>89</ele>
        <time>2018-11-04T07:48:39.000Z</time>
      </trkpt>
      <trkpt lat="39.530311" lon="-0.480727">
        <ele>89.5039357381147</ele>
        <time>2018-11-04T07:48:40.000Z</time>
      </trkpt>
      <trkpt lat="39.530329" lon="-0.480673">
        <ele>90</ele>
        <time>2018-11-04T07:48:41.000Z</time>
      </trkpt>
      <trkpt lat="39.53035" lon="-0.480621">
        <ele>90</ele>
        <time>2018-11-04T07:48:42.000Z</time>
      </trkpt>
      <trkpt lat="39.530372" lon="-0.480559">
        <ele>90.5068471533026</ele>
        <time>2018-11-04T07:48:43.000Z</time>
      </trkpt>
      <trkpt lat="39.530395" lon="-0.480495">
        <ele>91</ele>
        <time>2018-11-04T07:48:44.000Z</time>
      </trkpt>
      <trkpt lat="39.530409" lon="-0.480436">
        <ele>91</ele>
        <time>2018-11-04T07:48:45.000Z</time>
      </trkpt>
      <trkpt lat="39.530428" lon="-0.480374">
        <ele>90.36</ele>
        <time>2018-11-04T07:48:46.000Z</time>
      </trkpt>
      <trkpt lat="39.530447" lon="-0.480306">
        <ele>90</ele>
        <time>2018-11-04T07:48:47.000Z</time>
      </trkpt>
      <trkpt lat="39.530467" lon="-0.48023">
        <ele>90</ele>
        <time>2018-11-04T07:48:48.000Z</time>
      </trkpt>
      <trkpt lat="39.530494" lon="-0.48015">
        <ele>90</ele>
        <time>2018-11-04T07:48:49.000Z</time>
      </trkpt>
      <trkpt lat="39.53052" lon="-0.480075">
        <ele>90</ele>
        <time>2018-11-04T07:48:50.000Z</time>
      </trkpt>
      <trkpt lat="39.530545" lon="-0.480002">
        <ele>90</ele>
        <time>2018-11-04T07:48:51.000Z</time>
      </trkpt>
      <trkpt lat="39.53056" lon="-0.479937">
        <ele>90</ele>
        <time>2018-11-04T07:48:52.000Z</time>
      </trkpt>
      <trkpt lat="39.53058" lon="-0.479865">
        <ele>90</ele>
        <time>2018-11-04T07:48:53.000Z</time>
      </trkpt>
      <trkpt lat="39.5306" lon="-0.479793">
        <ele>90</ele>
        <time>2018-11-04T07:48:54.000Z</time>
      </trkpt>
      <trkpt lat="39.53062" lon="-0.479716">
        <ele>90</ele>
        <time>2018-11-04T07:48:55.000Z</time>
      </trkpt>
      <trkpt lat="39.530635" lon="-0.479633">
        <ele>90</ele>
        <time>2018-11-04T07:48:56.000Z</time>
      </trkpt>
      <trkpt lat="39.530646" lon="-0.479546">
        <ele>89.5142810122879</ele>
        <time>2018-11-04T07:48:57.000Z</time>
      </trkpt>
      <trkpt lat="39.530649" lon="-0.479453">
        <ele>89.64</ele>
        <time>2018-11-04T07:48:58.000Z</time>
      </trkpt>
      <trkpt lat="39.530643" lon="-0.479357">
        <ele>90</ele>
        <time>2018-11-04T07:48:59.000Z</time>
      </trkpt>
      <trkpt lat="39.53062" lon="-0.479272">
        <ele>90</ele>
        <time>2018-11-04T07:49:00.000Z</time>
      </trkpt>
      <trkpt lat="39.530587" lon="-0.479198">
        <ele>90</ele>
        <time>2018-11-04T07:49:01.000Z</time>
      </trkpt>
      <trkpt lat="39.530556" lon="-0.47912">
        <ele>89.36</ele>
        <time>2018-11-04T07:49:02.000Z</time>
      </trkpt>
      <trkpt lat="39.530539" lon="-0.479032">
        <ele>89</ele>
        <time>2018-11-04T07:49:03.000Z</time>
      </trkpt>
      <trkpt lat="39.530537" lon="-0.478941">
        <ele>88.5142904163695</ele>
        <time>2018-11-04T07:49:04.000Z</time>
      </trkpt>
      <trkpt lat="39.530548" lon="-0.478854">
        <ele>88</ele>
        <time>2018-11-04T07:49:05.000Z</time>
      </trkpt>
      <trkpt lat="39.530569" lon="-0.478774">
        <ele>88</ele>
        <time>2018-11-04T07:49:06.000Z</time>
      </trkpt>
      <trkpt lat="39.530594" lon="-0.478698">
        <ele>88.64</ele>
        <time>2018-11-04T07:49:07.000Z</time>
      </trkpt>
      <trkpt lat="39.530612" lon="-0.478622">
        <ele>89</ele>
        <time>2018-11-04T07:49:08.000Z</time>
      </trkpt>
      <trkpt lat="39.530619" lon="-0.478547">
        <ele>89</ele>
        <time>2018-11-04T07:49:09.000Z</time>
      </trkpt>
      <trkpt lat="39.530617" lon="-0.478474">
        <ele>89</ele>
        <time>2018-11-04T07:49:10.000Z</time>
      </trkpt>
      <trkpt lat="39.530607" lon="-0.478404">
        <ele>89.4961252617061</ele>
        <time>2018-11-04T07:49:11.000Z</time>
      </trkpt>
      <trkpt lat="39.530596" lon="-0.478338">
        <ele>90</ele>
        <time>2018-11-04T07:49:12.000Z</time>
      </trkpt>
      <trkpt lat="39.530594" lon="-0.478268">
        <ele>90</ele>
        <time>2018-11-04T07:49:13.000Z</time>
      </trkpt>
      <trkpt lat="39.530595" lon="-0.478198">
        <ele>90.64</ele>
        <time>2018-11-04T07:49:14.000Z</time>
      </trkpt>
      <trkpt lat="39.530596" lon="-0.47813">
        <ele>91</ele>
        <time>2018-11-04T07:49:15.000Z</time>
      </trkpt>
      <trkpt lat="39.530595" lon="-0.478068">
        <ele>91.64</ele>
        <time>2018-11-04T07:49:16.000Z</time>
      </trkpt>
      <trkpt lat="39.530592" lon="-0.478005">
        <ele>92</ele>
        <time>2018-11-04T07:49:17.000Z</time>
      </trkpt>
      <trkpt lat="39.530584" lon="-0.477944">
        <ele>92</ele>
        <time>2018-11-04T07:49:18.000Z</time>
      </trkpt>
      <trkpt lat="39.53058" lon="-0.477885">
        <ele>92</ele>
        <time>2018-11-04T07:49:19.000Z</time>
      </trkpt>
      <trkpt lat="39.530577" lon="-0.477826">
        <ele>92.64</ele>
        <time>2018-11-04T07:49:20.000Z</time>
      </trkpt>
      <trkpt lat="39.530578" lon="-0.477766">
        <ele>93</ele>
        <time>2018-11-04T07:49:21.000Z</time>
      </trkpt>
      <trkpt lat="39.530573" lon="-0.477706">
        <ele>93</ele>
        <time>2018-11-04T07:49:22.000Z</time>
      </trkpt>
      <trkpt lat="39.530568" lon="-0.477648">
        <ele>93</ele>
        <time>2018-11-04T07:49:23.000Z</time>
      </trkpt>
      <trkpt lat="39.53057" lon="-0.47759">
        <ele>93</ele>
        <time>2018-11-04T07:49:24.000Z</time>
      </trkpt>
      <trkpt lat="39.53057" lon="-0.477531">
        <ele>93</ele>
        <time>2018-11-04T07:49:25.000Z</time>
      </trkpt>
      <trkpt lat="39.53057" lon="-0.477472">
        <ele>93.64</ele>
        <time>2018-11-04T07:49:26.000Z</time>
      </trkpt>
      <trkpt lat="39.53057" lon="-0.477416">
        <ele>94</ele>
        <time>2018-11-04T07:49:27.000Z</time>
      </trkpt>
      <trkpt lat="39.53057" lon="-0.477358">
        <ele>94.64</ele>
        <time>2018-11-04T07:49:28.000Z</time>
      </trkpt>
      <trkpt lat="39.530565" lon="-0.477304">
        <ele>95</ele>
        <time>2018-11-04T07:49:29.000Z</time>
      </trkpt>
      <trkpt lat="39.530556" lon="-0.47725">
        <ele>95</ele>
        <time>2018-11-04T07:49:30.000Z</time>
      </trkpt>
      <trkpt lat="39.530547" lon="-0.4772">
        <ele>95.64</ele>
        <time>2018-11-04T07:49:31.000Z</time>
      </trkpt>
      <trkpt lat="39.530542" lon="-0.477153">
        <ele>96</ele>
        <time>2018-11-04T07:49:32.000Z</time>
      </trkpt>
      <trkpt lat="39.530533" lon="-0.477108">
        <ele>96</ele>
        <time>2018-11-04T07:49:33.000Z</time>
      </trkpt>
      <trkpt lat="39.530531" lon="-0.477062">
        <ele>96</ele>
        <time>2018-11-04T07:49:34.000Z</time>
      </trkpt>
      <trkpt lat="39.530529" lon="-0.477014">
        <ele>96</ele>
        <time>2018-11-04T07:49:35.000Z</time>
      </trkpt>
      <trkpt lat="39.530527" lon="-0.476974">
        <ele>96</ele>
        <time>2018-11-04T07:49:36.000Z</time>
      </trkpt>
      <trkpt lat="39.530523" lon="-0.476929">
        <ele>96</ele>
        <time>2018-11-04T07:49:37.000Z</time>
      </trkpt>
      <trkpt lat="39.530521" lon="-0.476884">
        <ele>96</ele>
        <time>2018-11-04T07:49:38.000Z</time>
      </trkpt>
      <trkpt lat="39.530516" lon="-0.476838">
        <ele>96</ele>
        <time>2018-11-04T07:49:39.000Z</time>
      </trkpt>
      <trkpt lat="39.530509" lon="-0.476793">
        <ele>96.64</ele>
        <time>2018-11-04T07:49:40.000Z</time>
      </trkpt>
      <trkpt lat="39.530503" lon="-0.476756">
        <ele>97</ele>
        <time>2018-11-04T07:49:41.000Z</time>
      </trkpt>
      <trkpt lat="39.530492" lon="-0.476721">
        <ele>97</ele>
        <time>2018-11-04T07:49:42.000Z</time>
      </trkpt>
      <trkpt lat="39.530481" lon="-0.476688">
        <ele>97</ele>
        <time>2018-11-04T07:49:43.000Z</time>
      </trkpt>
      <trkpt lat="39.530476" lon="-0.476648">
        <ele>97</ele>
        <time>2018-11-04T07:49:44.000Z</time>
      </trkpt>
      <trkpt lat="39.530474" lon="-0.476608">
        <ele>97</ele>
        <time>2018-11-04T07:49:45.000Z</time>
      </trkpt>
      <trkpt lat="39.530474" lon="-0.476562">
        <ele>97.64</ele>
        <time>2018-11-04T07:49:46.000Z</time>
      </trkpt>
      <trkpt lat="39.530478" lon="-0.47651">
        <ele>98</ele>
        <time>2018-11-04T07:49:47.000Z</time>
      </trkpt>
      <trkpt lat="39.530478" lon="-0.476457">
        <ele>98</ele>
        <time>2018-11-04T07:49:48.000Z</time>
      </trkpt>
      <trkpt lat="39.530474" lon="-0.47641">
        <ele>98</ele>
        <time>2018-11-04T07:49:49.000Z</time>
      </trkpt>
      <trkpt lat="39.530473" lon="-0.476362">
        <ele>98</ele>
        <time>2018-11-04T07:49:50.000Z</time>
      </trkpt>
      <trkpt lat="39.530472" lon="-0.476312">
        <ele>98.64</ele>
        <time>2018-11-04T07:49:51.000Z</time>
      </trkpt>
      <trkpt lat="39.530473" lon="-0.476264">
        <ele>99</ele>
        <time>2018-11-04T07:49:52.000Z</time>
      </trkpt>
      <trkpt lat="39.530473" lon="-0.476218">
        <ele>99</ele>
        <time>2018-11-04T07:49:53.000Z</time>
      </trkpt>
      <trkpt lat="39.530477" lon="-0.476172">
        <ele>99.64</ele>
        <time>2018-11-04T07:49:54.000Z</time>
      </trkpt>
      <trkpt lat="39.530482" lon="-0.476124">
        <ele>100</ele>
        <time>2018-11-04T07:49:55.000Z</time>
      </trkpt>
      <trkpt lat="39.530484" lon="-0.47608">
        <ele>100.503935738115</ele>
        <time>2018-11-04T07:49:56.000Z</time>
      </trkpt>
      <trkpt lat="39.530487" lon="-0.476033">
        <ele>101</ele>
        <time>2018-11-04T07:49:57.000Z</time>
      </trkpt>
      <trkpt lat="39.530492" lon="-0.475993">
        <ele>101</ele>
        <time>2018-11-04T07:49:58.000Z</time>
      </trkpt>
      <trkpt lat="39.530494" lon="-0.475952">
        <ele>101</ele>
        <time>2018-11-04T07:49:59.000Z</time>
      </trkpt>
      <trkpt lat="39.5305" lon="-0.475908">
        <ele>101</ele>
        <time>2018-11-04T07:50:00.000Z</time>
      </trkpt>
      <trkpt lat="39.53051" lon="-0.475864">
        <ele>101</ele>
        <time>2018-11-04T07:50:01.000Z</time>
      </trkpt>
      <trkpt lat="39.530517" lon="-0.475821">
        <ele>101</ele>
        <time>2018-11-04T07:50:02.000Z</time>
      </trkpt>
      <trkpt lat="39.530528" lon="-0.475778">
        <ele>101</ele>
        <time>2018-11-04T07:50:03.000Z</time>
      </trkpt>
      <trkpt lat="39.530538" lon="-0.475738">
        <ele>101</ele>
        <time>2018-11-04T07:50:04.000Z</time>
      </trkpt>
      <trkpt lat="39.530543" lon="-0.475701">
        <ele>101</ele>
        <time>2018-11-04T07:50:05.000Z</time>
      </trkpt>
      <trkpt lat="39.530552" lon="-0.475663">
        <ele>101</ele>
        <time>2018-11-04T07:50:06.000Z</time>
      </trkpt>
      <trkpt lat="39.530561" lon="-0.475621">
        <ele>101</ele>
        <time>2018-11-04T07:50:07.000Z</time>
      </trkpt>
      <trkpt lat="39.530565" lon="-0.475583">
        <ele>101</ele>
        <time>2018-11-04T07:50:08.000Z</time>
      </trkpt>
      <trkpt lat="39.530569" lon="-0.475542">
        <ele>101.64</ele>
        <time>2018-11-04T07:50:09.000Z</time>
      </trkpt>
      <trkpt lat="39.530581" lon="-0.475499">
        <ele>102</ele>
        <time>2018-11-04T07:50:10.000Z</time>
      </trkpt>
      <trkpt lat="39.530586" lon="-0.475459">
        <ele>102</ele>
        <time>2018-11-04T07:50:11.000Z</time>
      </trkpt>
      <trkpt lat="39.530605" lon="-0.475416">
        <ele>102</ele>
        <time>2018-11-04T07:50:12.000Z</time>
      </trkpt>
      <trkpt lat="39.530619" lon="-0.475369">
        <ele>102</ele>
        <time>2018-11-04T07:50:13.000Z</time>
      </trkpt>
      <trkpt lat="39.530629" lon="-0.475321">
        <ele>102</ele>
        <time>2018-11-04T07:50:14.000Z</time>
      </trkpt>
      <trkpt lat="39.530642" lon="-0.475275">
        <ele>102</ele>
        <time>2018-11-04T07:50:15.000Z</time>
      </trkpt>
      <trkpt lat="39.530654" lon="-0.475227">
        <ele>102</ele>
        <time>2018-11-04T07:50:16.000Z</time>
      </trkpt>
      <trkpt lat="39.530669" lon="-0.475177">
        <ele>102</ele>
        <time>2018-11-04T07:50:17.000Z</time>
      </trkpt>
      <trkpt lat="39.530684" lon="-0.475129">
        <ele>102</ele>
        <time>2018-11-04T07:50:18.000Z</time>
      </trkpt>
      <trkpt lat="39.530688" lon="-0.475077">
        <ele>102</ele>
        <time>2018-11-04T07:50:19.000Z</time>
      </trkpt>
      <trkpt lat="39.530699" lon="-0.475023">
        <ele>102</ele>
        <time>2018-11-04T07:50:20.000Z</time>
      </trkpt>
      <trkpt lat="39.530718" lon="-0.474966">
        <ele>102.64</ele>
        <time>2018-11-04T07:50:21.000Z</time>
      </trkpt>
      <trkpt lat="39.530736" lon="-0.474911">
        <ele>103</ele>
        <time>2018-11-04T07:50:22.000Z</time>
      </trkpt>
      <trkpt lat="39.530751" lon="-0.474853">
        <ele>103</ele>
        <time>2018-11-04T07:50:23.000Z</time>
      </trkpt>
      <trkpt lat="39.530763" lon="-0.474792">
        <ele>103.64</ele>
        <time>2018-11-04T07:50:24.000Z</time>
      </trkpt>
      <trkpt lat="39.530769" lon="-0.474726">
        <ele>104</ele>
        <time>2018-11-04T07:50:25.000Z</time>
      </trkpt>
      <trkpt lat="39.530778" lon="-0.474661">
        <ele>104</ele>
        <time>2018-11-04T07:50:26.000Z</time>
      </trkpt>
      <trkpt lat="39.530779" lon="-0.474594">
        <ele>103.507694731349</ele>
        <time>2018-11-04T07:50:27.000Z</time>
      </trkpt>
      <trkpt lat="39.530782" lon="-0.474526">
        <ele>103</ele>
        <time>2018-11-04T07:50:28.000Z</time>
      </trkpt>
      <trkpt lat="39.530792" lon="-0.47446">
        <ele>103</ele>
        <time>2018-11-04T07:50:29.000Z</time>
      </trkpt>
      <trkpt lat="39.530807" lon="-0.474392">
        <ele>103.64</ele>
        <time>2018-11-04T07:50:30.000Z</time>
      </trkpt>
      <trkpt lat="39.530824" lon="-0.474319">
        <ele>104</ele>
        <time>2018-11-04T07:50:31.000Z</time>
      </trkpt>
      <trkpt lat="39.530843" lon="-0.474244">
        <ele>104</ele>
        <time>2018-11-04T07:50:32.000Z</time>
      </trkpt>
      <trkpt lat="39.53086" lon="-0.474171">
        <ele>104</ele>
        <time>2018-11-04T07:50:33.000Z</time>
      </trkpt>
      <trkpt lat="39.530877" lon="-0.474093">
        <ele>104</ele>
        <time>2018-11-04T07:50:34.000Z</time>
      </trkpt>
      <trkpt lat="39.530888" lon="-0.474016">
        <ele>104</ele>
        <time>2018-11-04T07:50:35.000Z</time>
      </trkpt>
      <trkpt lat="39.530901" lon="-0.473935">
        <ele>104.496125261706</ele>
        <time>2018-11-04T07:50:36.000Z</time>
      </trkpt>
      <trkpt lat="39.530917" lon="-0.473851">
        <ele>105</ele>
        <time>2018-11-04T07:50:37.000Z</time>
      </trkpt>
      <trkpt lat="39.530938" lon="-0.473759">
        <ele>105</ele>
        <time>2018-11-04T07:50:38.000Z</time>
      </trkpt>
      <trkpt lat="39.530961" lon="-0.473662">
        <ele>105</ele>
        <time>2018-11-04T07:50:39.000Z</time>
      </trkpt>
      <trkpt lat="39.530984" lon="-0.473565">
        <ele>105</ele>
        <time>2018-11-04T07:50:40.000Z</time>
      </trkpt>
      <trkpt lat="39.531005" lon="-0.473474">
        <ele>105</ele>
        <time>2018-11-04T07:50:41.000Z</time>
      </trkpt>
      <trkpt lat="39.531025" lon="-0.473384">
        <ele>105.64</ele>
        <time>2018-11-04T07:50:42.000Z</time>
      </trkpt>
      <trkpt lat="39.531047" lon="-0.473295">
        <ele>106</ele>
        <time>2018-11-04T07:50:43.000Z</time>
      </trkpt>
      <trkpt lat="39.531065" lon="-0.47321">
        <ele>106</ele>
        <time>2018-11-04T07:50:44.000Z</time>
      </trkpt>
      <trkpt lat="39.53107" lon="-0.473135">
        <ele>106</ele>
        <time>2018-11-04T07:50:45.000Z</time>
      </trkpt>
      <trkpt lat="39.53107" lon="-0.473049">
        <ele>106.63636481175</ele>
        <time>2018-11-04T07:50:46.000Z</time>
      </trkpt>
      <trkpt lat="39.531056" lon="-0.47296">
        <ele>106.36</ele>
        <time>2018-11-04T07:50:47.000Z</time>
      </trkpt>
      <trkpt lat="39.531044" lon="-0.472867">
        <ele>106</ele>
        <time>2018-11-04T07:50:48.000Z</time>
      </trkpt>
      <trkpt lat="39.531042" lon="-0.472781">
        <ele>105.36</ele>
        <time>2018-11-04T07:50:49.000Z</time>
      </trkpt>
      <trkpt lat="39.531066" lon="-0.472698">
        <ele>104.507689884012</ele>
        <time>2018-11-04T07:50:50.000Z</time>
      </trkpt>
      <trkpt lat="39.53111" lon="-0.47264">
        <ele>104</ele>
        <time>2018-11-04T07:50:51.000Z</time>
      </trkpt>
      <trkpt lat="39.531166" lon="-0.472612">
        <ele>103.36</ele>
        <time>2018-11-04T07:50:52.000Z</time>
      </trkpt>
      <trkpt lat="39.531221" lon="-0.472613">
        <ele>103</ele>
        <time>2018-11-04T07:50:53.000Z</time>
      </trkpt>
      <trkpt lat="39.531271" lon="-0.472635">
        <ele>103</ele>
        <time>2018-11-04T07:50:54.000Z</time>
      </trkpt>
      <trkpt lat="39.531318" lon="-0.472684">
        <ele>103</ele>
        <time>2018-11-04T07:50:55.000Z</time>
      </trkpt>
      <trkpt lat="39.531359" lon="-0.47275">
        <ele>102.36</ele>
        <time>2018-11-04T07:50:56.000Z</time>
      </trkpt>
      <trkpt lat="39.531394" lon="-0.472821">
        <ele>102</ele>
        <time>2018-11-04T07:50:57.000Z</time>
      </trkpt>
      <trkpt lat="39.531431" lon="-0.472893">
        <ele>102</ele>
        <time>2018-11-04T07:50:58.000Z</time>
      </trkpt>
      <trkpt lat="39.531474" lon="-0.472956">
        <ele>101.514281012288</ele>
        <time>2018-11-04T07:50:59.000Z</time>
      </trkpt>
      <trkpt lat="39.53152" lon="-0.473014">
        <ele>101</ele>
        <time>2018-11-04T07:51:00.000Z</time>
      </trkpt>
      <trkpt lat="39.531568" lon="-0.473065">
        <ele>101.64</ele>
        <time>2018-11-04T07:51:01.000Z</time>
      </trkpt>
      <trkpt lat="39.531616" lon="-0.473111">
        <ele>102</ele>
        <time>2018-11-04T07:51:02.000Z</time>
      </trkpt>
      <trkpt lat="39.531663" lon="-0.473153">
        <ele>102</ele>
        <time>2018-11-04T07:51:03.000Z</time>
      </trkpt>
      <trkpt lat="39.531712" lon="-0.473196">
        <ele>102</ele>
        <time>2018-11-04T07:51:04.000Z</time>
      </trkpt>
      <trkpt lat="39.531761" lon="-0.473239">
        <ele>102</ele>
        <time>2018-11-04T07:51:05.000Z</time>
      </trkpt>
      <trkpt lat="39.531812" lon="-0.47328">
        <ele>102.496125261706</ele>
        <time>2018-11-04T07:51:06.000Z</time>
      </trkpt>
      <trkpt lat="39.53186" lon="-0.473321">
        <ele>103</ele>
        <time>2018-11-04T07:51:07.000Z</time>
      </trkpt>
      <trkpt lat="39.53191" lon="-0.473359">
        <ele>103</ele>
        <time>2018-11-04T07:51:08.000Z</time>
      </trkpt>
      <trkpt lat="39.53196" lon="-0.473398">
        <ele>103</ele>
        <time>2018-11-04T07:51:09.000Z</time>
      </trkpt>
      <trkpt lat="39.53201" lon="-0.473434">
        <ele>103</ele>
        <time>2018-11-04T07:51:10.000Z</time>
      </trkpt>
      <trkpt lat="39.532061" lon="-0.473466">
        <ele>103</ele>
        <time>2018-11-04T07:51:11.000Z</time>
      </trkpt>
      <trkpt lat="39.532112" lon="-0.473498">
        <ele>103</ele>
        <time>2018-11-04T07:51:12.000Z</time>
      </trkpt>
      <trkpt lat="39.532163" lon="-0.473529">
        <ele>103</ele>
        <time>2018-11-04T07:51:13.000Z</time>
      </trkpt>
      <trkpt lat="39.532214" lon="-0.47356">
        <ele>103</ele>
        <time>2018-11-04T07:51:14.000Z</time>
      </trkpt>
      <trkpt lat="39.532264" lon="-0.47359">
        <ele>103</ele>
        <time>2018-11-04T07:51:15.000Z</time>
      </trkpt>
      <trkpt lat="39.532314" lon="-0.473618">
        <ele>103</ele>
        <time>2018-11-04T07:51:16.000Z</time>
      </trkpt>
      <trkpt lat="39.532368" lon="-0.473648">
        <ele>103</ele>
        <time>2018-11-04T07:51:17.000Z</time>
      </trkpt>
      <trkpt lat="39.532424" lon="-0.473677">
        <ele>103</ele>
        <time>2018-11-04T07:51:18.000Z</time>
      </trkpt>
      <trkpt lat="39.532477" lon="-0.473704">
        <ele>103</ele>
        <time>2018-11-04T07:51:19.000Z</time>
      </trkpt>
      <trkpt lat="39.532532" lon="-0.473732">
        <ele>103</ele>
        <time>2018-11-04T07:51:20.000Z</time>
      </trkpt>
      <trkpt lat="39.532585" lon="-0.47376">
        <ele>103</ele>
        <time>2018-11-04T07:51:21.000Z</time>
      </trkpt>
      <trkpt lat="39.532638" lon="-0.473784">
        <ele>103</ele>
        <time>2018-11-04T07:51:22.000Z</time>
      </trkpt>
      <trkpt lat="39.532692" lon="-0.473807">
        <ele>103</ele>
        <time>2018-11-04T07:51:23.000Z</time>
      </trkpt>
      <trkpt lat="39.532745" lon="-0.473833">
        <ele>103</ele>
        <time>2018-11-04T07:51:24.000Z</time>
      </trkpt>
      <trkpt lat="39.532798" lon="-0.47386">
        <ele>103</ele>
        <time>2018-11-04T07:51:25.000Z</time>
      </trkpt>
      <trkpt lat="39.532852" lon="-0.473887">
        <ele>103</ele>
        <time>2018-11-04T07:51:26.000Z</time>
      </trkpt>
      <trkpt lat="39.532903" lon="-0.473913">
        <ele>103</ele>
        <time>2018-11-04T07:51:27.000Z</time>
      </trkpt>
      <trkpt lat="39.532957" lon="-0.473937">
        <ele>103</ele>
        <time>2018-11-04T07:51:28.000Z</time>
      </trkpt>
      <trkpt lat="39.533009" lon="-0.473962">
        <ele>103</ele>
        <time>2018-11-04T07:51:29.000Z</time>
      </trkpt>
      <trkpt lat="39.533062" lon="-0.473987">
        <ele>102.36</ele>
        <time>2018-11-04T07:51:30.000Z</time>
      </trkpt>
      <trkpt lat="39.533116" lon="-0.474013">
        <ele>102</ele>
        <time>2018-11-04T07:51:31.000Z</time>
      </trkpt>
      <trkpt lat="39.533168" lon="-0.474039">
        <ele>102</ele>
        <time>2018-11-04T07:51:32.000Z</time>
      </trkpt>
      <trkpt lat="39.53322" lon="-0.474064">
        <ele>102</ele>
        <time>2018-11-04T07:51:33.000Z</time>
      </trkpt>
      <trkpt lat="39.533269" lon="-0.474088">
        <ele>102</ele>
        <time>2018-11-04T07:51:34.000Z</time>
      </trkpt>
      <trkpt lat="39.53332" lon="-0.474111">
        <ele>102</ele>
        <time>2018-11-04T07:51:35.000Z</time>
      </trkpt>
      <trkpt lat="39.533368" lon="-0.474134">
        <ele>102</ele>
        <time>2018-11-04T07:51:36.000Z</time>
      </trkpt>
      <trkpt lat="39.533418" lon="-0.474157">
        <ele>102</ele>
        <time>2018-11-04T07:51:37.000Z</time>
      </trkpt>
      <trkpt lat="39.533468" lon="-0.47418">
        <ele>102</ele>
        <time>2018-11-04T07:51:38.000Z</time>
      </trkpt>
      <trkpt lat="39.533516" lon="-0.474204">
        <ele>102</ele>
        <time>2018-11-04T07:51:39.000Z</time>
      </trkpt>
      <trkpt lat="39.533566" lon="-0.474227">
        <ele>102</ele>
        <time>2018-11-04T07:51:40.000Z</time>
      </trkpt>
      <trkpt lat="39.533614" lon="-0.47425">
        <ele>102</ele>
        <time>2018-11-04T07:51:41.000Z</time>
      </trkpt>
      <trkpt lat="39.533662" lon="-0.474273">
        <ele>102</ele>
        <time>2018-11-04T07:51:42.000Z</time>
      </trkpt>
      <trkpt lat="39.53371" lon="-0.474294">
        <ele>102</ele>
        <time>2018-11-04T07:51:43.000Z</time>
      </trkpt>
      <trkpt lat="39.533758" lon="-0.474314">
        <ele>102</ele>
        <time>2018-11-04T07:51:44.000Z</time>
      </trkpt>
      <trkpt lat="39.533806" lon="-0.474332">
        <ele>102</ele>
        <time>2018-11-04T07:51:45.000Z</time>
      </trkpt>
      <trkpt lat="39.533854" lon="-0.47435">
        <ele>102</ele>
        <time>2018-11-04T07:51:46.000Z</time>
      </trkpt>
      <trkpt lat="39.533903" lon="-0.474367">
        <ele>102</ele>
        <time>2018-11-04T07:51:47.000Z</time>
      </trkpt>
      <trkpt lat="39.533952" lon="-0.474387">
        <ele>102</ele>
        <time>2018-11-04T07:51:48.000Z</time>
      </trkpt>
      <trkpt lat="39.534" lon="-0.474407">
        <ele>101.36</ele>
        <time>2018-11-04T07:51:49.000Z</time>
      </trkpt>
      <trkpt lat="39.534049" lon="-0.474429">
        <ele>101</ele>
        <time>2018-11-04T07:51:50.000Z</time>
      </trkpt>
      <trkpt lat="39.5341" lon="-0.47445">
        <ele>101</ele>
        <time>2018-11-04T07:51:51.000Z</time>
      </trkpt>
      <trkpt lat="39.53415" lon="-0.474473">
        <ele>101</ele>
        <time>2018-11-04T07:51:52.000Z</time>
      </trkpt>
      <trkpt lat="39.5342" lon="-0.474496">
        <ele>101</ele>
        <time>2018-11-04T07:51:53.000Z</time>
      </trkpt>
      <trkpt lat="39.534252" lon="-0.474517">
        <ele>100.36</ele>
        <time>2018-11-04T07:51:54.000Z</time>
      </trkpt>
      <trkpt lat="39.534304" lon="-0.474537">
        <ele>100</ele>
        <time>2018-11-04T07:51:55.000Z</time>
      </trkpt>
      <trkpt lat="39.534354" lon="-0.47456">
        <ele>100</ele>
        <time>2018-11-04T07:51:56.000Z</time>
      </trkpt>
      <trkpt lat="39.534406" lon="-0.474584">
        <ele>100</ele>
        <time>2018-11-04T07:51:57.000Z</time>
      </trkpt>
      <trkpt lat="39.534454" lon="-0.474609">
        <ele>100</ele>
        <time>2018-11-04T07:51:58.000Z</time>
      </trkpt>
      <trkpt lat="39.534506" lon="-0.474631">
        <ele>100</ele>
        <time>2018-11-04T07:51:59.000Z</time>
      </trkpt>
      <trkpt lat="39.534558" lon="-0.474653">
        <ele>100</ele>
        <time>2018-11-04T07:52:00.000Z</time>
      </trkpt>
      <trkpt lat="39.534611" lon="-0.474676">
        <ele>100</ele>
        <time>2018-11-04T07:52:01.000Z</time>
      </trkpt>
      <trkpt lat="39.534664" lon="-0.474698">
        <ele>100</ele>
        <time>2018-11-04T07:52:02.000Z</time>
      </trkpt>
      <trkpt lat="39.534717" lon="-0.47472">
        <ele>100</ele>
        <time>2018-11-04T07:52:03.000Z</time>
      </trkpt>
      <trkpt lat="39.534771" lon="-0.474742">
        <ele>100</ele>
        <time>2018-11-04T07:52:04.000Z</time>
      </trkpt>
      <trkpt lat="39.534825" lon="-0.474764">
        <ele>100</ele>
        <time>2018-11-04T07:52:05.000Z</time>
      </trkpt>
      <trkpt lat="39.53488" lon="-0.474788">
        <ele>100</ele>
        <time>2018-11-04T07:52:06.000Z</time>
      </trkpt>
      <trkpt lat="39.534936" lon="-0.474812">
        <ele>100</ele>
        <time>2018-11-04T07:52:07.000Z</time>
      </trkpt>
      <trkpt lat="39.534992" lon="-0.474837">
        <ele>100</ele>
        <time>2018-11-04T07:52:08.000Z</time>
      </trkpt>
      <trkpt lat="39.535048" lon="-0.474863">
        <ele>100</ele>
        <time>2018-11-04T07:52:09.000Z</time>
      </trkpt>
      <trkpt lat="39.535105" lon="-0.47489">
        <ele>100</ele>
        <time>2018-11-04T07:52:10.000Z</time>
      </trkpt>
      <trkpt lat="39.535161" lon="-0.474917">
        <ele>100</ele>
        <time>2018-11-04T07:52:11.000Z</time>
      </trkpt>
      <trkpt lat="39.535218" lon="-0.474941">
        <ele>99.36</ele>
        <time>2018-11-04T07:52:12.000Z</time>
      </trkpt>
      <trkpt lat="39.535274" lon="-0.474963">
        <ele>99</ele>
        <time>2018-11-04T07:52:13.000Z</time>
      </trkpt>
      <trkpt lat="39.535329" lon="-0.474986">
        <ele>99</ele>
        <time>2018-11-04T07:52:14.000Z</time>
      </trkpt>
      <trkpt lat="39.535385" lon="-0.475011">
        <ele>99</ele>
        <time>2018-11-04T07:52:15.000Z</time>
      </trkpt>
      <trkpt lat="39.535439" lon="-0.475034">
        <ele>99.64</ele>
        <time>2018-11-04T07:52:16.000Z</time>
      </trkpt>
      <trkpt lat="39.535494" lon="-0.475056">
        <ele>99.36</ele>
        <time>2018-11-04T07:52:17.000Z</time>
      </trkpt>
      <trkpt lat="39.535549" lon="-0.475076">
        <ele>99</ele>
        <time>2018-11-04T07:52:18.000Z</time>
      </trkpt>
      <trkpt lat="39.535605" lon="-0.475096">
        <ele>99</ele>
        <time>2018-11-04T07:52:19.000Z</time>
      </trkpt>
      <trkpt lat="39.535663" lon="-0.475115">
        <ele>99</ele>
        <time>2018-11-04T07:52:20.000Z</time>
      </trkpt>
      <trkpt lat="39.53572" lon="-0.475131">
        <ele>99</ele>
        <time>2018-11-04T07:52:21.000Z</time>
      </trkpt>
      <trkpt lat="39.535779" lon="-0.475149">
        <ele>99</ele>
        <time>2018-11-04T07:52:22.000Z</time>
      </trkpt>
      <trkpt lat="39.535837" lon="-0.475168">
        <ele>99</ele>
        <time>2018-11-04T07:52:23.000Z</time>
      </trkpt>
      <trkpt lat="39.535896" lon="-0.475184">
        <ele>99</ele>
        <time>2018-11-04T07:52:24.000Z</time>
      </trkpt>
      <trkpt lat="39.535954" lon="-0.475195">
        <ele>99</ele>
        <time>2018-11-04T07:52:25.000Z</time>
      </trkpt>
      <trkpt lat="39.536013" lon="-0.475207">
        <ele>99</ele>
        <time>2018-11-04T07:52:26.000Z</time>
      </trkpt>
      <trkpt lat="39.536071" lon="-0.47522">
        <ele>99</ele>
        <time>2018-11-04T07:52:27.000Z</time>
      </trkpt>
      <trkpt lat="39.53613" lon="-0.475232">
        <ele>98.6428562099186</ele>
        <time>2018-11-04T07:52:28.000Z</time>
      </trkpt>
      <trkpt lat="39.536185" lon="-0.475247">
        <ele>98</ele>
        <time>2018-11-04T07:52:29.000Z</time>
      </trkpt>
      <trkpt lat="39.536241" lon="-0.475258">
        <ele>98</ele>
        <time>2018-11-04T07:52:30.000Z</time>
      </trkpt>
      <trkpt lat="39.5363" lon="-0.47527">
        <ele>98</ele>
        <time>2018-11-04T07:52:31.000Z</time>
      </trkpt>
      <trkpt lat="39.536358" lon="-0.475285">
        <ele>98</ele>
        <time>2018-11-04T07:52:32.000Z</time>
      </trkpt>
      <trkpt lat="39.536418" lon="-0.475301">
        <ele>98</ele>
        <time>2018-11-04T07:52:33.000Z</time>
      </trkpt>
      <trkpt lat="39.536473" lon="-0.475314">
        <ele>98.64</ele>
        <time>2018-11-04T07:52:34.000Z</time>
      </trkpt>
      <trkpt lat="39.536532" lon="-0.475324">
        <ele>99</ele>
        <time>2018-11-04T07:52:35.000Z</time>
      </trkpt>
      <trkpt lat="39.536592" lon="-0.475336">
        <ele>99</ele>
        <time>2018-11-04T07:52:36.000Z</time>
      </trkpt>
      <trkpt lat="39.536652" lon="-0.475352">
        <ele>98.36</ele>
        <time>2018-11-04T07:52:37.000Z</time>
      </trkpt>
      <trkpt lat="39.536711" lon="-0.47537">
        <ele>98.64</ele>
        <time>2018-11-04T07:52:38.000Z</time>
      </trkpt>
      <trkpt lat="39.536772" lon="-0.475386">
        <ele>98.36</ele>
        <time>2018-11-04T07:52:39.000Z</time>
      </trkpt>
      <trkpt lat="39.536831" lon="-0.4754">
        <ele>98</ele>
        <time>2018-11-04T07:52:40.000Z</time>
      </trkpt>
      <trkpt lat="39.536892" lon="-0.475415">
        <ele>98</ele>
        <time>2018-11-04T07:52:41.000Z</time>
      </trkpt>
      <trkpt lat="39.536953" lon="-0.475427">
        <ele>98.64</ele>
        <time>2018-11-04T07:52:42.000Z</time>
      </trkpt>
      <trkpt lat="39.537017" lon="-0.475439">
        <ele>99</ele>
        <time>2018-11-04T07:52:43.000Z</time>
      </trkpt>
      <trkpt lat="39.53708" lon="-0.475455">
        <ele>99</ele>
        <time>2018-11-04T07:52:44.000Z</time>
      </trkpt>
      <trkpt lat="39.537146" lon="-0.475475">
        <ele>98.36</ele>
        <time>2018-11-04T07:52:45.000Z</time>
      </trkpt>
      <trkpt lat="39.53721" lon="-0.475495">
        <ele>98</ele>
        <time>2018-11-04T07:52:46.000Z</time>
      </trkpt>
      <trkpt lat="39.537273" lon="-0.475513">
        <ele>97.5</ele>
        <time>2018-11-04T07:52:47.000Z</time>
      </trkpt>
      <trkpt lat="39.537334" lon="-0.475533">
        <ele>97</ele>
        <time>2018-11-04T07:52:48.000Z</time>
      </trkpt>
      <trkpt lat="39.537397" lon="-0.475549">
        <ele>97</ele>
        <time>2018-11-04T07:52:49.000Z</time>
      </trkpt>
      <trkpt lat="39.537461" lon="-0.475565">
        <ele>97</ele>
        <time>2018-11-04T07:52:50.000Z</time>
      </trkpt>
      <trkpt lat="39.537522" lon="-0.475579">
        <ele>97</ele>
        <time>2018-11-04T07:52:51.000Z</time>
      </trkpt>
      <trkpt lat="39.537583" lon="-0.475595">
        <ele>96.5070399682706</ele>
        <time>2018-11-04T07:52:52.000Z</time>
      </trkpt>
      <trkpt lat="39.537644" lon="-0.47561">
        <ele>96</ele>
        <time>2018-11-04T07:52:53.000Z</time>
      </trkpt>
      <trkpt lat="39.537706" lon="-0.475624">
        <ele>96</ele>
        <time>2018-11-04T07:52:54.000Z</time>
      </trkpt>
      <trkpt lat="39.537768" lon="-0.475638">
        <ele>96</ele>
        <time>2018-11-04T07:52:55.000Z</time>
      </trkpt>
      <trkpt lat="39.537828" lon="-0.475656">
        <ele>96</ele>
        <time>2018-11-04T07:52:56.000Z</time>
      </trkpt>
      <trkpt lat="39.537891" lon="-0.475672">
        <ele>96</ele>
        <time>2018-11-04T07:52:57.000Z</time>
      </trkpt>
      <trkpt lat="39.537954" lon="-0.475686">
        <ele>96</ele>
        <time>2018-11-04T07:52:58.000Z</time>
      </trkpt>
      <trkpt lat="39.538016" lon="-0.475701">
        <ele>96</ele>
        <time>2018-11-04T07:52:59.000Z</time>
      </trkpt>
      <trkpt lat="39.538079" lon="-0.475719">
        <ele>96</ele>
        <time>2018-11-04T07:53:00.000Z</time>
      </trkpt>
      <trkpt lat="39.538142" lon="-0.475735">
        <ele>96.64</ele>
        <time>2018-11-04T07:53:01.000Z</time>
      </trkpt>
      <trkpt lat="39.538203" lon="-0.475749">
        <ele>97</ele>
        <time>2018-11-04T07:53:02.000Z</time>
      </trkpt>
      <trkpt lat="39.538264" lon="-0.475761">
        <ele>97</ele>
        <time>2018-11-04T07:53:03.000Z</time>
      </trkpt>
      <trkpt lat="39.538326" lon="-0.47577">
        <ele>97</ele>
        <time>2018-11-04T07:53:04.000Z</time>
      </trkpt>
      <trkpt lat="39.538385" lon="-0.475779">
        <ele>97.64</ele>
        <time>2018-11-04T07:53:05.000Z</time>
      </trkpt>
      <trkpt lat="39.538448" lon="-0.475791">
        <ele>98</ele>
        <time>2018-11-04T07:53:06.000Z</time>
      </trkpt>
      <trkpt lat="39.538512" lon="-0.475799">
        <ele>98</ele>
        <time>2018-11-04T07:53:07.000Z</time>
      </trkpt>
      <trkpt lat="39.538573" lon="-0.475808">
        <ele>98</ele>
        <time>2018-11-04T07:53:08.000Z</time>
      </trkpt>
      <trkpt lat="39.538636" lon="-0.47582">
        <ele>98.64</ele>
        <time>2018-11-04T07:53:09.000Z</time>
      </trkpt>
      <trkpt lat="39.538699" lon="-0.47583">
        <ele>99</ele>
        <time>2018-11-04T07:53:10.000Z</time>
      </trkpt>
      <trkpt lat="39.538758" lon="-0.475837">
        <ele>99</ele>
        <time>2018-11-04T07:53:11.000Z</time>
      </trkpt>
      <trkpt lat="39.538819" lon="-0.475844">
        <ele>98.36</ele>
        <time>2018-11-04T07:53:12.000Z</time>
      </trkpt>
      <trkpt lat="39.538876" lon="-0.475851">
        <ele>98</ele>
        <time>2018-11-04T07:53:13.000Z</time>
      </trkpt>
      <trkpt lat="39.538934" lon="-0.475858">
        <ele>98.64</ele>
        <time>2018-11-04T07:53:14.000Z</time>
      </trkpt>
      <trkpt lat="39.53899" lon="-0.475864">
        <ele>99</ele>
        <time>2018-11-04T07:53:15.000Z</time>
      </trkpt>
      <trkpt lat="39.539049" lon="-0.475872">
        <ele>99</ele>
        <time>2018-11-04T07:53:16.000Z</time>
      </trkpt>
      <trkpt lat="39.539109" lon="-0.475881">
        <ele>99</ele>
        <time>2018-11-04T07:53:17.000Z</time>
      </trkpt>
      <trkpt lat="39.539166" lon="-0.475887">
        <ele>99</ele>
        <time>2018-11-04T07:53:18.000Z</time>
      </trkpt>
      <trkpt lat="39.539226" lon="-0.475895">
        <ele>99</ele>
        <time>2018-11-04T07:53:19.000Z</time>
      </trkpt>
      <trkpt lat="39.539285" lon="-0.475903">
        <ele>99</ele>
        <time>2018-11-04T07:53:20.000Z</time>
      </trkpt>
      <trkpt lat="39.539342" lon="-0.475912">
        <ele>99</ele>
        <time>2018-11-04T07:53:21.000Z</time>
      </trkpt>
      <trkpt lat="39.539399" lon="-0.475922">
        <ele>99</ele>
        <time>2018-11-04T07:53:22.000Z</time>
      </trkpt>
      <trkpt lat="39.539457" lon="-0.47593">
        <ele>99</ele>
        <time>2018-11-04T07:53:23.000Z</time>
      </trkpt>
      <trkpt lat="39.539514" lon="-0.475938">
        <ele>99</ele>
        <time>2018-11-04T07:53:24.000Z</time>
      </trkpt>
      <trkpt lat="39.539572" lon="-0.475947">
        <ele>99</ele>
        <time>2018-11-04T07:53:25.000Z</time>
      </trkpt>
      <trkpt lat="39.539629" lon="-0.475955">
        <ele>99</ele>
        <time>2018-11-04T07:53:26.000Z</time>
      </trkpt>
      <trkpt lat="39.539686" lon="-0.475961">
        <ele>99</ele>
        <time>2018-11-04T07:53:27.000Z</time>
      </trkpt>
      <trkpt lat="39.539744" lon="-0.475969">
        <ele>99</ele>
        <time>2018-11-04T07:53:28.000Z</time>
      </trkpt>
      <trkpt lat="39.539802" lon="-0.475974">
        <ele>99</ele>
        <time>2018-11-04T07:53:29.000Z</time>
      </trkpt>
      <trkpt lat="39.539858" lon="-0.475984">
        <ele>99.64</ele>
        <time>2018-11-04T07:53:30.000Z</time>
      </trkpt>
      <trkpt lat="39.539914" lon="-0.475994">
        <ele>100</ele>
        <time>2018-11-04T07:53:31.000Z</time>
      </trkpt>
      <trkpt lat="39.539966" lon="-0.476002">
        <ele>100</ele>
        <time>2018-11-04T07:53:32.000Z</time>
      </trkpt>
      <trkpt lat="39.540018" lon="-0.476007">
        <ele>100</ele>
        <time>2018-11-04T07:53:33.000Z</time>
      </trkpt>
      <trkpt lat="39.540069" lon="-0.476012">
        <ele>100</ele>
        <time>2018-11-04T07:53:34.000Z</time>
      </trkpt>
      <trkpt lat="39.540119" lon="-0.476022">
        <ele>100</ele>
        <time>2018-11-04T07:53:35.000Z</time>
      </trkpt>
      <trkpt lat="39.540169" lon="-0.476032">
        <ele>100</ele>
        <time>2018-11-04T07:53:36.000Z</time>
      </trkpt>
      <trkpt lat="39.540219" lon="-0.476041">
        <ele>100</ele>
        <time>2018-11-04T07:53:37.000Z</time>
      </trkpt>
      <trkpt lat="39.540271" lon="-0.476046">
        <ele>100</ele>
        <time>2018-11-04T07:53:38.000Z</time>
      </trkpt>
      <trkpt lat="39.540322" lon="-0.476052">
        <ele>100</ele>
        <time>2018-11-04T07:53:39.000Z</time>
      </trkpt>
      <trkpt lat="39.540372" lon="-0.476057">
        <ele>100</ele>
        <time>2018-11-04T07:53:40.000Z</time>
      </trkpt>
      <trkpt lat="39.540422" lon="-0.47606">
        <ele>100.64</ele>
        <time>2018-11-04T07:53:41.000Z</time>
      </trkpt>
      <trkpt lat="39.540472" lon="-0.476062">
        <ele>101</ele>
        <time>2018-11-04T07:53:42.000Z</time>
      </trkpt>
      <trkpt lat="39.540521" lon="-0.476066">
        <ele>101</ele>
        <time>2018-11-04T07:53:43.000Z</time>
      </trkpt>
      <trkpt lat="39.540569" lon="-0.476072">
        <ele>101</ele>
        <time>2018-11-04T07:53:44.000Z</time>
      </trkpt>
      <trkpt lat="39.540617" lon="-0.476079">
        <ele>101</ele>
        <time>2018-11-04T07:53:45.000Z</time>
      </trkpt>
      <trkpt lat="39.540664" lon="-0.476085">
        <ele>101</ele>
        <time>2018-11-04T07:53:46.000Z</time>
      </trkpt>
      <trkpt lat="39.540711" lon="-0.476093">
        <ele>100.36</ele>
        <time>2018-11-04T07:53:47.000Z</time>
      </trkpt>
      <trkpt lat="39.540756" lon="-0.476102">
        <ele>100</ele>
        <time>2018-11-04T07:53:48.000Z</time>
      </trkpt>
      <trkpt lat="39.540802" lon="-0.476111">
        <ele>99.36</ele>
        <time>2018-11-04T07:53:49.000Z</time>
      </trkpt>
      <trkpt lat="39.540846" lon="-0.476122">
        <ele>99</ele>
        <time>2018-11-04T07:53:50.000Z</time>
      </trkpt>
      <trkpt lat="39.54089" lon="-0.476137">
        <ele>99</ele>
        <time>2018-11-04T07:53:51.000Z</time>
      </trkpt>
      <trkpt lat="39.540935" lon="-0.476155">
        <ele>99</ele>
        <time>2018-11-04T07:53:52.000Z</time>
      </trkpt>
      <trkpt lat="39.54098" lon="-0.47617">
        <ele>99</ele>
        <time>2018-11-04T07:53:53.000Z</time>
      </trkpt>
      <trkpt lat="39.541024" lon="-0.476185">
        <ele>99</ele>
        <time>2018-11-04T07:53:54.000Z</time>
      </trkpt>
      <trkpt lat="39.541069" lon="-0.4762">
        <ele>99</ele>
        <time>2018-11-04T07:53:55.000Z</time>
      </trkpt>
      <trkpt lat="39.541114" lon="-0.476215">
        <ele>99</ele>
        <time>2018-11-04T07:53:56.000Z</time>
      </trkpt>
      <trkpt lat="39.541159" lon="-0.476227">
        <ele>99.64</ele>
        <time>2018-11-04T07:53:57.000Z</time>
      </trkpt>
      <trkpt lat="39.541206" lon="-0.476233">
        <ele>100</ele>
        <time>2018-11-04T07:53:58.000Z</time>
      </trkpt>
      <trkpt lat="39.541252" lon="-0.476229">
        <ele>100</ele>
        <time>2018-11-04T07:53:59.000Z</time>
      </trkpt>
      <trkpt lat="39.541298" lon="-0.476218">
        <ele>100</ele>
        <time>2018-11-04T07:54:00.000Z</time>
      </trkpt>
      <trkpt lat="39.541343" lon="-0.476199">
        <ele>100</ele>
        <time>2018-11-04T07:54:01.000Z</time>
      </trkpt>
      <trkpt lat="39.541381" lon="-0.476173">
        <ele>100.64</ele>
        <time>2018-11-04T07:54:02.000Z</time>
      </trkpt>
      <trkpt lat="39.541413" lon="-0.476142">
        <ele>101</ele>
        <time>2018-11-04T07:54:03.000Z</time>
      </trkpt>
      <trkpt lat="39.541438" lon="-0.476109">
        <ele>100.513517720928</ele>
        <time>2018-11-04T07:54:04.000Z</time>
      </trkpt>
      <trkpt lat="39.541457" lon="-0.476084">
        <ele>100</ele>
        <time>2018-11-04T07:54:05.000Z</time>
      </trkpt>
      <trkpt lat="39.541474" lon="-0.476073">
        <ele>100</ele>
        <time>2018-11-04T07:54:06.000Z</time>
      </trkpt>
      <trkpt lat="39.541494" lon="-0.476076">
        <ele>100</ele>
        <time>2018-11-04T07:54:07.000Z</time>
      </trkpt>
      <trkpt lat="39.541514" lon="-0.47608">
        <ele>100</ele>
        <time>2018-11-04T07:54:08.000Z</time>
      </trkpt>
      <trkpt lat="39.541537" lon="-0.476087">
        <ele>100</ele>
        <time>2018-11-04T07:54:09.000Z</time>
      </trkpt>
      <trkpt lat="39.54156" lon="-0.476093">
        <ele>100.64</ele>
        <time>2018-11-04T07:54:10.000Z</time>
      </trkpt>
      <trkpt lat="39.541587" lon="-0.476098">
        <ele>101</ele>
        <time>2018-11-04T07:54:11.000Z</time>
      </trkpt>
      <trkpt lat="39.541616" lon="-0.476109">
        <ele>101</ele>
        <time>2018-11-04T07:54:12.000Z</time>
      </trkpt>
      <trkpt lat="39.541636" lon="-0.476133">
        <ele>100.36</ele>
        <time>2018-11-04T07:54:13.000Z</time>
      </trkpt>
      <trkpt lat="39.541651" lon="-0.476167">
        <ele>100</ele>
        <time>2018-11-04T07:54:14.000Z</time>
      </trkpt>
      <trkpt lat="39.541666" lon="-0.476202">
        <ele>100</ele>
        <time>2018-11-04T07:54:15.000Z</time>
      </trkpt>
      <trkpt lat="39.541692" lon="-0.476242">
        <ele>100</ele>
        <time>2018-11-04T07:54:16.000Z</time>
      </trkpt>
      <trkpt lat="39.541723" lon="-0.476281">
        <ele>100</ele>
        <time>2018-11-04T07:54:17.000Z</time>
      </trkpt>
      <trkpt lat="39.541757" lon="-0.476324">
        <ele>100</ele>
        <time>2018-11-04T07:54:18.000Z</time>
      </trkpt>
      <trkpt lat="39.541795" lon="-0.476368">
        <ele>99.36</ele>
        <time>2018-11-04T07:54:19.000Z</time>
      </trkpt>
      <trkpt lat="39.541836" lon="-0.476407">
        <ele>99</ele>
        <time>2018-11-04T07:54:20.000Z</time>
      </trkpt>
      <trkpt lat="39.541878" lon="-0.476441">
        <ele>99</ele>
        <time>2018-11-04T07:54:21.000Z</time>
      </trkpt>
      <trkpt lat="39.541923" lon="-0.476471">
        <ele>99</ele>
        <time>2018-11-04T07:54:22.000Z</time>
      </trkpt>
      <trkpt lat="39.541969" lon="-0.476498">
        <ele>99</ele>
        <time>2018-11-04T07:54:23.000Z</time>
      </trkpt>
      <trkpt lat="39.542019" lon="-0.476528">
        <ele>99</ele>
        <time>2018-11-04T07:54:24.000Z</time>
      </trkpt>
      <trkpt lat="39.542071" lon="-0.476557">
        <ele>99</ele>
        <time>2018-11-04T07:54:25.000Z</time>
      </trkpt>
      <trkpt lat="39.542122" lon="-0.47659">
        <ele>99</ele>
        <time>2018-11-04T07:54:26.000Z</time>
      </trkpt>
      <trkpt lat="39.542174" lon="-0.476618">
        <ele>99</ele>
        <time>2018-11-04T07:54:27.000Z</time>
      </trkpt>
      <trkpt lat="39.542228" lon="-0.476644">
        <ele>99</ele>
        <time>2018-11-04T07:54:28.000Z</time>
      </trkpt>
      <trkpt lat="39.542282" lon="-0.47667">
        <ele>99</ele>
        <time>2018-11-04T07:54:29.000Z</time>
      </trkpt>
      <trkpt lat="39.542335" lon="-0.476695">
        <ele>99</ele>
        <time>2018-11-04T07:54:30.000Z</time>
      </trkpt>
      <trkpt lat="39.54239" lon="-0.476719">
        <ele>99</ele>
        <time>2018-11-04T07:54:31.000Z</time>
      </trkpt>
      <trkpt lat="39.542444" lon="-0.476742">
        <ele>99</ele>
        <time>2018-11-04T07:54:32.000Z</time>
      </trkpt>
      <trkpt lat="39.542501" lon="-0.476765">
        <ele>99</ele>
        <time>2018-11-04T07:54:33.000Z</time>
      </trkpt>
      <trkpt lat="39.542556" lon="-0.476789">
        <ele>99</ele>
        <time>2018-11-04T07:54:34.000Z</time>
      </trkpt>
      <trkpt lat="39.54261" lon="-0.476813">
        <ele>98.36</ele>
        <time>2018-11-04T07:54:35.000Z</time>
      </trkpt>
      <trkpt lat="39.542666" lon="-0.476835">
        <ele>98</ele>
        <time>2018-11-04T07:54:36.000Z</time>
      </trkpt>
      <trkpt lat="39.542723" lon="-0.47686">
        <ele>98</ele>
        <time>2018-11-04T07:54:37.000Z</time>
      </trkpt>
      <trkpt lat="39.542781" lon="-0.476886">
        <ele>98</ele>
        <time>2018-11-04T07:54:38.000Z</time>
      </trkpt>
      <trkpt lat="39.54284" lon="-0.476909">
        <ele>98</ele>
        <time>2018-11-04T07:54:39.000Z</time>
      </trkpt>
      <trkpt lat="39.542898" lon="-0.476932">
        <ele>98</ele>
        <time>2018-11-04T07:54:40.000Z</time>
      </trkpt>
      <trkpt lat="39.542956" lon="-0.476955">
        <ele>98</ele>
        <time>2018-11-04T07:54:41.000Z</time>
      </trkpt>
      <trkpt lat="39.543013" lon="-0.476981">
        <ele>98</ele>
        <time>2018-11-04T07:54:42.000Z</time>
      </trkpt>
      <trkpt lat="39.543069" lon="-0.477004">
        <ele>98</ele>
        <time>2018-11-04T07:54:43.000Z</time>
      </trkpt>
      <trkpt lat="39.543125" lon="-0.477026">
        <ele>98</ele>
        <time>2018-11-04T07:54:44.000Z</time>
      </trkpt>
      <trkpt lat="39.54318" lon="-0.477049">
        <ele>98</ele>
        <time>2018-11-04T07:54:45.000Z</time>
      </trkpt>
      <trkpt lat="39.543234" lon="-0.477071">
        <ele>98</ele>
        <time>2018-11-04T07:54:46.000Z</time>
      </trkpt>
      <trkpt lat="39.543289" lon="-0.477091">
        <ele>98</ele>
        <time>2018-11-04T07:54:47.000Z</time>
      </trkpt>
      <trkpt lat="39.543341" lon="-0.477112">
        <ele>98</ele>
        <time>2018-11-04T07:54:48.000Z</time>
      </trkpt>
      <trkpt lat="39.543394" lon="-0.47713">
        <ele>98</ele>
        <time>2018-11-04T07:54:49.000Z</time>
      </trkpt>
      <trkpt lat="39.543448" lon="-0.477149">
        <ele>98</ele>
        <time>2018-11-04T07:54:50.000Z</time>
      </trkpt>
      <trkpt lat="39.543507" lon="-0.477174">
        <ele>98.64</ele>
        <time>2018-11-04T07:54:51.000Z</time>
      </trkpt>
      <trkpt lat="39.543562" lon="-0.4772">
        <ele>99</ele>
        <time>2018-11-04T07:54:52.000Z</time>
      </trkpt>
      <trkpt lat="39.543615" lon="-0.47722">
        <ele>99</ele>
        <time>2018-11-04T07:54:53.000Z</time>
      </trkpt>
      <trkpt lat="39.543669" lon="-0.477242">
        <ele>99</ele>
        <time>2018-11-04T07:54:54.000Z</time>
      </trkpt>
      <trkpt lat="39.543722" lon="-0.477264">
        <ele>99</ele>
        <time>2018-11-04T07:54:55.000Z</time>
      </trkpt>
      <trkpt lat="39.543775" lon="-0.477286">
        <ele>99</ele>
        <time>2018-11-04T07:54:56.000Z</time>
      </trkpt>
      <trkpt lat="39.543826" lon="-0.477306">
        <ele>99</ele>
        <time>2018-11-04T07:54:57.000Z</time>
      </trkpt>
      <trkpt lat="39.543878" lon="-0.477327">
        <ele>99.6326554602092</ele>
        <time>2018-11-04T07:54:58.000Z</time>
      </trkpt>
      <trkpt lat="39.543928" lon="-0.477347">
        <ele>100</ele>
        <time>2018-11-04T07:54:59.000Z</time>
      </trkpt>
      <trkpt lat="39.543976" lon="-0.477368">
        <ele>100</ele>
        <time>2018-11-04T07:55:00.000Z</time>
      </trkpt>
      <trkpt lat="39.544022" lon="-0.477386">
        <ele>100</ele>
        <time>2018-11-04T07:55:01.000Z</time>
      </trkpt>
      <trkpt lat="39.54407" lon="-0.477405">
        <ele>100.64</ele>
        <time>2018-11-04T07:55:02.000Z</time>
      </trkpt>
      <trkpt lat="39.544118" lon="-0.477423">
        <ele>101</ele>
        <time>2018-11-04T07:55:03.000Z</time>
      </trkpt>
      <trkpt lat="39.544162" lon="-0.477439">
        <ele>101.64</ele>
        <time>2018-11-04T07:55:04.000Z</time>
      </trkpt>
      <trkpt lat="39.544206" lon="-0.477457">
        <ele>102</ele>
        <time>2018-11-04T07:55:05.000Z</time>
      </trkpt>
      <trkpt lat="39.54425" lon="-0.477478">
        <ele>102.48570958363</ele>
        <time>2018-11-04T07:55:06.000Z</time>
      </trkpt>
      <trkpt lat="39.544294" lon="-0.477497">
        <ele>103</ele>
        <time>2018-11-04T07:55:07.000Z</time>
      </trkpt>
      <trkpt lat="39.544338" lon="-0.477515">
        <ele>103.64</ele>
        <time>2018-11-04T07:55:08.000Z</time>
      </trkpt>
      <trkpt lat="39.54438" lon="-0.477531">
        <ele>104</ele>
        <time>2018-11-04T07:55:09.000Z</time>
      </trkpt>
      <trkpt lat="39.54442" lon="-0.477546">
        <ele>103.36</ele>
        <time>2018-11-04T07:55:10.000Z</time>
      </trkpt>
      <trkpt lat="39.54446" lon="-0.477562">
        <ele>103.64</ele>
        <time>2018-11-04T07:55:11.000Z</time>
      </trkpt>
      <trkpt lat="39.5445" lon="-0.477581">
        <ele>104</ele>
        <time>2018-11-04T07:55:12.000Z</time>
      </trkpt>
      <trkpt lat="39.544539" lon="-0.477601">
        <ele>104.64</ele>
        <time>2018-11-04T07:55:13.000Z</time>
      </trkpt>
      <trkpt lat="39.544576" lon="-0.477624">
        <ele>105.64</ele>
        <time>2018-11-04T07:55:14.000Z</time>
      </trkpt>
      <trkpt lat="39.544616" lon="-0.47765">
        <ele>106</ele>
        <time>2018-11-04T07:55:15.000Z</time>
      </trkpt>
      <trkpt lat="39.544653" lon="-0.477674">
        <ele>106.633665373989</ele>
        <time>2018-11-04T07:55:16.000Z</time>
      </trkpt>
      <trkpt lat="39.544692" lon="-0.477698">
        <ele>107</ele>
        <time>2018-11-04T07:55:17.000Z</time>
      </trkpt>
      <trkpt lat="39.544728" lon="-0.47772">
        <ele>107.492960031729</ele>
        <time>2018-11-04T07:55:18.000Z</time>
      </trkpt>
      <trkpt lat="39.544762" lon="-0.477737">
        <ele>108</ele>
        <time>2018-11-04T07:55:19.000Z</time>
      </trkpt>
      <trkpt lat="39.544796" lon="-0.477756">
        <ele>108</ele>
        <time>2018-11-04T07:55:20.000Z</time>
      </trkpt>
      <trkpt lat="39.544832" lon="-0.477777">
        <ele>108.64</ele>
        <time>2018-11-04T07:55:21.000Z</time>
      </trkpt>
      <trkpt lat="39.544866" lon="-0.4778">
        <ele>109</ele>
        <time>2018-11-04T07:55:22.000Z</time>
      </trkpt>
      <trkpt lat="39.544902" lon="-0.477826">
        <ele>109</ele>
        <time>2018-11-04T07:55:23.000Z</time>
      </trkpt>
      <trkpt lat="39.544936" lon="-0.47785">
        <ele>108.36</ele>
        <time>2018-11-04T07:55:24.000Z</time>
      </trkpt>
      <trkpt lat="39.544974" lon="-0.477874">
        <ele>108</ele>
        <time>2018-11-04T07:55:25.000Z</time>
      </trkpt>
      <trkpt lat="39.545013" lon="-0.477903">
        <ele>108</ele>
        <time>2018-11-04T07:55:26.000Z</time>
      </trkpt>
      <trkpt lat="39.545054" lon="-0.477934">
        <ele>108</ele>
        <time>2018-11-04T07:55:27.000Z</time>
      </trkpt>
      <trkpt lat="39.545094" lon="-0.477967">
        <ele>108</ele>
        <time>2018-11-04T07:55:28.000Z</time>
      </trkpt>
      <trkpt lat="39.54513" lon="-0.477994">
        <ele>108</ele>
        <time>2018-11-04T07:55:29.000Z</time>
      </trkpt>
      <trkpt lat="39.545165" lon="-0.478019">
        <ele>108</ele>
        <time>2018-11-04T07:55:30.000Z</time>
      </trkpt>
      <trkpt lat="39.545202" lon="-0.478043">
        <ele>108</ele>
        <time>2018-11-04T07:55:31.000Z</time>
      </trkpt>
      <trkpt lat="39.545238" lon="-0.478063">
        <ele>108</ele>
        <time>2018-11-04T07:55:32.000Z</time>
      </trkpt>
      <trkpt lat="39.545274" lon="-0.478092">
        <ele>108</ele>
        <time>2018-11-04T07:55:33.000Z</time>
      </trkpt>
      <trkpt lat="39.545318" lon="-0.478128">
        <ele>108</ele>
        <time>2018-11-04T07:55:34.000Z</time>
      </trkpt>
      <trkpt lat="39.545364" lon="-0.478168">
        <ele>108</ele>
        <time>2018-11-04T07:55:35.000Z</time>
      </trkpt>
      <trkpt lat="39.545406" lon="-0.478204">
        <ele>108</ele>
        <time>2018-11-04T07:55:36.000Z</time>
      </trkpt>
      <trkpt lat="39.54545" lon="-0.478238">
        <ele>108</ele>
        <time>2018-11-04T07:55:37.000Z</time>
      </trkpt>
      <trkpt lat="39.545488" lon="-0.478268">
        <ele>108</ele>
        <time>2018-11-04T07:55:38.000Z</time>
      </trkpt>
      <trkpt lat="39.545526" lon="-0.478299">
        <ele>108</ele>
        <time>2018-11-04T07:55:39.000Z</time>
      </trkpt>
      <trkpt lat="39.54557" lon="-0.478334">
        <ele>108</ele>
        <time>2018-11-04T07:55:40.000Z</time>
      </trkpt>
      <trkpt lat="39.545616" lon="-0.478372">
        <ele>108</ele>
        <time>2018-11-04T07:55:41.000Z</time>
      </trkpt>
      <trkpt lat="39.545662" lon="-0.478411">
        <ele>108</ele>
        <time>2018-11-04T07:55:42.000Z</time>
      </trkpt>
      <trkpt lat="39.545711" lon="-0.478453">
        <ele>108</ele>
        <time>2018-11-04T07:55:43.000Z</time>
      </trkpt>
      <trkpt lat="39.545758" lon="-0.478493">
        <ele>107.36</ele>
        <time>2018-11-04T07:55:44.000Z</time>
      </trkpt>
      <trkpt lat="39.545806" lon="-0.478537">
        <ele>107.64</ele>
        <time>2018-11-04T07:55:45.000Z</time>
      </trkpt>
      <trkpt lat="39.545852" lon="-0.478573">
        <ele>108</ele>
        <time>2018-11-04T07:55:46.000Z</time>
      </trkpt>
      <trkpt lat="39.545902" lon="-0.478613">
        <ele>108</ele>
        <time>2018-11-04T07:55:47.000Z</time>
      </trkpt>
      <trkpt lat="39.54595" lon="-0.478652">
        <ele>108</ele>
        <time>2018-11-04T07:55:48.000Z</time>
      </trkpt>
      <trkpt lat="39.545997" lon="-0.478693">
        <ele>108</ele>
        <time>2018-11-04T07:55:49.000Z</time>
      </trkpt>
      <trkpt lat="39.546046" lon="-0.478736">
        <ele>108</ele>
        <time>2018-11-04T07:55:50.000Z</time>
      </trkpt>
      <trkpt lat="39.546096" lon="-0.478782">
        <ele>108</ele>
        <time>2018-11-04T07:55:51.000Z</time>
      </trkpt>
      <trkpt lat="39.546146" lon="-0.478826">
        <ele>107.988039498193</ele>
        <time>2018-11-04T07:55:52.000Z</time>
      </trkpt>
      <trkpt lat="39.546352" lon="-0.47898">
        <ele>105</ele>
        <time>2018-11-04T07:59:00.000Z</time>
      </trkpt>
      <trkpt lat="39.546368" lon="-0.479004">
        <ele>105</ele>
        <time>2018-11-04T07:59:03.000Z</time>
      </trkpt>
      <trkpt lat="39.546399" lon="-0.479038">
        <ele>105</ele>
        <time>2018-11-04T07:59:05.000Z</time>
      </trkpt>
      <trkpt lat="39.546421" lon="-0.479061">
        <ele>105.64</ele>
        <time>2018-11-04T07:59:06.000Z</time>
      </trkpt>
      <trkpt lat="39.546449" lon="-0.479085">
        <ele>106</ele>
        <time>2018-11-04T07:59:07.000Z</time>
      </trkpt>
      <trkpt lat="39.546478" lon="-0.479112">
        <ele>106</ele>
        <time>2018-11-04T07:59:08.000Z</time>
      </trkpt>
      <trkpt lat="39.546512" lon="-0.479138">
        <ele>106</ele>
        <time>2018-11-04T07:59:09.000Z</time>
      </trkpt>
      <trkpt lat="39.54655" lon="-0.479162">
        <ele>106</ele>
        <time>2018-11-04T07:59:10.000Z</time>
      </trkpt>
      <trkpt lat="39.546589" lon="-0.479187">
        <ele>106</ele>
        <time>2018-11-04T07:59:11.000Z</time>
      </trkpt>
      <trkpt lat="39.546627" lon="-0.479215">
        <ele>106</ele>
        <time>2018-11-04T07:59:12.000Z</time>
      </trkpt>
      <trkpt lat="39.546665" lon="-0.479244">
        <ele>106.64</ele>
        <time>2018-11-04T07:59:13.000Z</time>
      </trkpt>
      <trkpt lat="39.546702" lon="-0.479275">
        <ele>107</ele>
        <time>2018-11-04T07:59:14.000Z</time>
      </trkpt>
      <trkpt lat="39.546741" lon="-0.479303">
        <ele>107</ele>
        <time>2018-11-04T07:59:15.000Z</time>
      </trkpt>
      <trkpt lat="39.546778" lon="-0.479332">
        <ele>107</ele>
        <time>2018-11-04T07:59:16.000Z</time>
      </trkpt>
      <trkpt lat="39.546815" lon="-0.47936">
        <ele>107</ele>
        <time>2018-11-04T07:59:17.000Z</time>
      </trkpt>
      <trkpt lat="39.546852" lon="-0.47939">
        <ele>107</ele>
        <time>2018-11-04T07:59:18.000Z</time>
      </trkpt>
      <trkpt lat="39.54689" lon="-0.479419">
        <ele>107</ele>
        <time>2018-11-04T07:59:19.000Z</time>
      </trkpt>
      <trkpt lat="39.546928" lon="-0.479448">
        <ele>107</ele>
        <time>2018-11-04T07:59:20.000Z</time>
      </trkpt>
      <trkpt lat="39.546965" lon="-0.479479">
        <ele>107.64</ele>
        <time>2018-11-04T07:59:21.000Z</time>
      </trkpt>
      <trkpt lat="39.547001" lon="-0.479513">
        <ele>108</ele>
        <time>2018-11-04T07:59:22.000Z</time>
      </trkpt>
      <trkpt lat="39.547037" lon="-0.479545">
        <ele>108</ele>
        <time>2018-11-04T07:59:23.000Z</time>
      </trkpt>
      <trkpt lat="39.547076" lon="-0.479575">
        <ele>108</ele>
        <time>2018-11-04T07:59:24.000Z</time>
      </trkpt>
      <trkpt lat="39.547114" lon="-0.479607">
        <ele>108</ele>
        <time>2018-11-04T07:59:25.000Z</time>
      </trkpt>
      <trkpt lat="39.54715" lon="-0.479641">
        <ele>108</ele>
        <time>2018-11-04T07:59:26.000Z</time>
      </trkpt>
      <trkpt lat="39.547189" lon="-0.479674">
        <ele>108</ele>
        <time>2018-11-04T07:59:27.000Z</time>
      </trkpt>
      <trkpt lat="39.547228" lon="-0.479706">
        <ele>108</ele>
        <time>2018-11-04T07:59:28.000Z</time>
      </trkpt>
      <trkpt lat="39.547265" lon="-0.479741">
        <ele>108.64</ele>
        <time>2018-11-04T07:59:29.000Z</time>
      </trkpt>
      <trkpt lat="39.547304" lon="-0.479775">
        <ele>109</ele>
        <time>2018-11-04T07:59:30.000Z</time>
      </trkpt>
      <trkpt lat="39.547342" lon="-0.479811">
        <ele>109</ele>
        <time>2018-11-04T07:59:31.000Z</time>
      </trkpt>
      <trkpt lat="39.54738" lon="-0.479846">
        <ele>109</ele>
        <time>2018-11-04T07:59:32.000Z</time>
      </trkpt>
      <trkpt lat="39.54742" lon="-0.479879">
        <ele>109.492305268651</ele>
        <time>2018-11-04T07:59:33.000Z</time>
      </trkpt>
      <trkpt lat="39.547459" lon="-0.479911">
        <ele>110</ele>
        <time>2018-11-04T07:59:34.000Z</time>
      </trkpt>
      <trkpt lat="39.547498" lon="-0.479942">
        <ele>110</ele>
        <time>2018-11-04T07:59:35.000Z</time>
      </trkpt>
      <trkpt lat="39.547535" lon="-0.479971">
        <ele>110</ele>
        <time>2018-11-04T07:59:36.000Z</time>
      </trkpt>
      <trkpt lat="39.547571" lon="-0.480001">
        <ele>110.503935738115</ele>
        <time>2018-11-04T07:59:37.000Z</time>
      </trkpt>
      <trkpt lat="39.547606" lon="-0.480031">
        <ele>111</ele>
        <time>2018-11-04T07:59:38.000Z</time>
      </trkpt>
      <trkpt lat="39.54764" lon="-0.480058">
        <ele>111</ele>
        <time>2018-11-04T07:59:39.000Z</time>
      </trkpt>
      <trkpt lat="39.547674" lon="-0.480085">
        <ele>111</ele>
        <time>2018-11-04T07:59:40.000Z</time>
      </trkpt>
      <trkpt lat="39.547708" lon="-0.480113">
        <ele>111.64</ele>
        <time>2018-11-04T07:59:41.000Z</time>
      </trkpt>
      <trkpt lat="39.547742" lon="-0.480142">
        <ele>112</ele>
        <time>2018-11-04T07:59:42.000Z</time>
      </trkpt>
      <trkpt lat="39.547775" lon="-0.480171">
        <ele>112</ele>
        <time>2018-11-04T07:59:43.000Z</time>
      </trkpt>
      <trkpt lat="39.547808" lon="-0.480202">
        <ele>112</ele>
        <time>2018-11-04T07:59:44.000Z</time>
      </trkpt>
      <trkpt lat="39.547841" lon="-0.480235">
        <ele>112</ele>
        <time>2018-11-04T07:59:45.000Z</time>
      </trkpt>
      <trkpt lat="39.547874" lon="-0.480269">
        <ele>112</ele>
        <time>2018-11-04T07:59:46.000Z</time>
      </trkpt>
      <trkpt lat="39.547907" lon="-0.480302">
        <ele>112</ele>
        <time>2018-11-04T07:59:47.000Z</time>
      </trkpt>
      <trkpt lat="39.54794" lon="-0.480335">
        <ele>112</ele>
        <time>2018-11-04T07:59:48.000Z</time>
      </trkpt>
      <trkpt lat="39.547972" lon="-0.480369">
        <ele>112</ele>
        <time>2018-11-04T07:59:49.000Z</time>
      </trkpt>
      <trkpt lat="39.548002" lon="-0.480406">
        <ele>112</ele>
        <time>2018-11-04T07:59:50.000Z</time>
      </trkpt>
      <trkpt lat="39.548033" lon="-0.480443">
        <ele>112.64</ele>
        <time>2018-11-04T07:59:51.000Z</time>
      </trkpt>
      <trkpt lat="39.548063" lon="-0.480481">
        <ele>113</ele>
        <time>2018-11-04T07:59:52.000Z</time>
      </trkpt>
      <trkpt lat="39.548093" lon="-0.480519">
        <ele>113</ele>
        <time>2018-11-04T07:59:53.000Z</time>
      </trkpt>
      <trkpt lat="39.548123" lon="-0.480559">
        <ele>113</ele>
        <time>2018-11-04T07:59:54.000Z</time>
      </trkpt>
      <trkpt lat="39.548154" lon="-0.480601">
        <ele>113</ele>
        <time>2018-11-04T07:59:55.000Z</time>
      </trkpt>
      <trkpt lat="39.548183" lon="-0.480645">
        <ele>113</ele>
        <time>2018-11-04T07:59:56.000Z</time>
      </trkpt>
      <trkpt lat="39.548214" lon="-0.480691">
        <ele>113</ele>
        <time>2018-11-04T07:59:57.000Z</time>
      </trkpt>
      <trkpt lat="39.548245" lon="-0.480739">
        <ele>113</ele>
        <time>2018-11-04T07:59:58.000Z</time>
      </trkpt>
      <trkpt lat="39.548276" lon="-0.480786">
        <ele>112.36</ele>
        <time>2018-11-04T07:59:59.000Z</time>
      </trkpt>
      <trkpt lat="39.548305" lon="-0.480834">
        <ele>112</ele>
        <time>2018-11-04T08:00:00.000Z</time>
      </trkpt>
      <trkpt lat="39.548335" lon="-0.480882">
        <ele>112</ele>
        <time>2018-11-04T08:00:01.000Z</time>
      </trkpt>
      <trkpt lat="39.548364" lon="-0.480932">
        <ele>112</ele>
        <time>2018-11-04T08:00:02.000Z</time>
      </trkpt>
      <trkpt lat="39.548393" lon="-0.480983">
        <ele>112</ele>
        <time>2018-11-04T08:00:03.000Z</time>
      </trkpt>
      <trkpt lat="39.548422" lon="-0.481032">
        <ele>112</ele>
        <time>2018-11-04T08:00:04.000Z</time>
      </trkpt>
      <trkpt lat="39.548451" lon="-0.481083">
        <ele>112</ele>
        <time>2018-11-04T08:00:05.000Z</time>
      </trkpt>
      <trkpt lat="39.548481" lon="-0.481133">
        <ele>112</ele>
        <time>2018-11-04T08:00:06.000Z</time>
      </trkpt>
      <trkpt lat="39.548513" lon="-0.481183">
        <ele>111.496064261885</ele>
        <time>2018-11-04T08:00:07.000Z</time>
      </trkpt>
      <trkpt lat="39.548545" lon="-0.481233">
        <ele>111</ele>
        <time>2018-11-04T08:00:08.000Z</time>
      </trkpt>
      <trkpt lat="39.548575" lon="-0.481286">
        <ele>111</ele>
        <time>2018-11-04T08:00:09.000Z</time>
      </trkpt>
      <trkpt lat="39.548606" lon="-0.48134">
        <ele>111</ele>
        <time>2018-11-04T08:00:10.000Z</time>
      </trkpt>
      <trkpt lat="39.548638" lon="-0.481392">
        <ele>111</ele>
        <time>2018-11-04T08:00:11.000Z</time>
      </trkpt>
      <trkpt lat="39.54867" lon="-0.481445">
        <ele>110.36363518825</ele>
        <time>2018-11-04T08:00:12.000Z</time>
      </trkpt>
      <trkpt lat="39.5487" lon="-0.4815">
        <ele>110</ele>
        <time>2018-11-04T08:00:13.000Z</time>
      </trkpt>
      <trkpt lat="39.548731" lon="-0.481555">
        <ele>110</ele>
        <time>2018-11-04T08:00:14.000Z</time>
      </trkpt>
      <trkpt lat="39.548763" lon="-0.481608">
        <ele>110</ele>
        <time>2018-11-04T08:00:15.000Z</time>
      </trkpt>
      <trkpt lat="39.548796" lon="-0.481663">
        <ele>110</ele>
        <time>2018-11-04T08:00:16.000Z</time>
      </trkpt>
      <trkpt lat="39.548826" lon="-0.481718">
        <ele>110</ele>
        <time>2018-11-04T08:00:17.000Z</time>
      </trkpt>
      <trkpt lat="39.548858" lon="-0.481772">
        <ele>109.51429041637</ele>
        <time>2018-11-04T08:00:18.000Z</time>
      </trkpt>
      <trkpt lat="39.54889" lon="-0.481824">
        <ele>109</ele>
        <time>2018-11-04T08:00:19.000Z</time>
      </trkpt>
      <trkpt lat="39.548922" lon="-0.481877">
        <ele>109</ele>
        <time>2018-11-04T08:00:20.000Z</time>
      </trkpt>
      <trkpt lat="39.548953" lon="-0.481929">
        <ele>109</ele>
        <time>2018-11-04T08:00:21.000Z</time>
      </trkpt>
      <trkpt lat="39.548983" lon="-0.481983">
        <ele>109</ele>
        <time>2018-11-04T08:00:22.000Z</time>
      </trkpt>
      <trkpt lat="39.549012" lon="-0.482036">
        <ele>109</ele>
        <time>2018-11-04T08:00:23.000Z</time>
      </trkpt>
      <trkpt lat="39.549043" lon="-0.482088">
        <ele>109</ele>
        <time>2018-11-04T08:00:24.000Z</time>
      </trkpt>
      <trkpt lat="39.549074" lon="-0.482139">
        <ele>109</ele>
        <time>2018-11-04T08:00:25.000Z</time>
      </trkpt>
      <trkpt lat="39.549105" lon="-0.482191">
        <ele>108.36</ele>
        <time>2018-11-04T08:00:26.000Z</time>
      </trkpt>
      <trkpt lat="39.549135" lon="-0.482243">
        <ele>108</ele>
        <time>2018-11-04T08:00:27.000Z</time>
      </trkpt>
      <trkpt lat="39.549165" lon="-0.482294">
        <ele>108</ele>
        <time>2018-11-04T08:00:28.000Z</time>
      </trkpt>
      <trkpt lat="39.549194" lon="-0.482345">
        <ele>108</ele>
        <time>2018-11-04T08:00:29.000Z</time>
      </trkpt>
      <trkpt lat="39.549224" lon="-0.482395">
        <ele>108</ele>
        <time>2018-11-04T08:00:30.000Z</time>
      </trkpt>
      <trkpt lat="39.549256" lon="-0.482442">
        <ele>108</ele>
        <time>2018-11-04T08:00:31.000Z</time>
      </trkpt>
      <trkpt lat="39.549286" lon="-0.482491">
        <ele>108</ele>
        <time>2018-11-04T08:00:32.000Z</time>
      </trkpt>
      <trkpt lat="39.549315" lon="-0.482541">
        <ele>108</ele>
        <time>2018-11-04T08:00:33.000Z</time>
      </trkpt>
      <trkpt lat="39.549345" lon="-0.48259">
        <ele>108</ele>
        <time>2018-11-04T08:00:34.000Z</time>
      </trkpt>
      <trkpt lat="39.549374" lon="-0.482639">
        <ele>107.493152846697</ele>
        <time>2018-11-04T08:00:35.000Z</time>
      </trkpt>
      <trkpt lat="39.549404" lon="-0.482688">
        <ele>107</ele>
        <time>2018-11-04T08:00:36.000Z</time>
      </trkpt>
      <trkpt lat="39.549431" lon="-0.482739">
        <ele>107</ele>
        <time>2018-11-04T08:00:37.000Z</time>
      </trkpt>
      <trkpt lat="39.54946" lon="-0.48279">
        <ele>107</ele>
        <time>2018-11-04T08:00:38.000Z</time>
      </trkpt>
      <trkpt lat="39.549489" lon="-0.48284">
        <ele>107</ele>
        <time>2018-11-04T08:00:39.000Z</time>
      </trkpt>
      <trkpt lat="39.549518" lon="-0.482889">
        <ele>107</ele>
        <time>2018-11-04T08:00:40.000Z</time>
      </trkpt>
      <trkpt lat="39.549548" lon="-0.482938">
        <ele>107</ele>
        <time>2018-11-04T08:00:41.000Z</time>
      </trkpt>
      <trkpt lat="39.549577" lon="-0.482986">
        <ele>107</ele>
        <time>2018-11-04T08:00:42.000Z</time>
      </trkpt>
      <trkpt lat="39.549605" lon="-0.483036">
        <ele>107</ele>
        <time>2018-11-04T08:00:43.000Z</time>
      </trkpt>
      <trkpt lat="39.549634" lon="-0.483086">
        <ele>107</ele>
        <time>2018-11-04T08:00:44.000Z</time>
      </trkpt>
      <trkpt lat="39.549662" lon="-0.483136">
        <ele>107</ele>
        <time>2018-11-04T08:00:45.000Z</time>
      </trkpt>
      <trkpt lat="39.54969" lon="-0.483184">
        <ele>107</ele>
        <time>2018-11-04T08:00:46.000Z</time>
      </trkpt>
      <trkpt lat="39.54972" lon="-0.483232">
        <ele>107</ele>
        <time>2018-11-04T08:00:47.000Z</time>
      </trkpt>
      <trkpt lat="39.54975" lon="-0.483281">
        <ele>107</ele>
        <time>2018-11-04T08:00:48.000Z</time>
      </trkpt>
      <trkpt lat="39.549778" lon="-0.483331">
        <ele>107</ele>
        <time>2018-11-04T08:00:49.000Z</time>
      </trkpt>
      <trkpt lat="39.549808" lon="-0.48338">
        <ele>107</ele>
        <time>2018-11-04T08:00:50.000Z</time>
      </trkpt>
      <trkpt lat="39.549838" lon="-0.48343">
        <ele>107</ele>
        <time>2018-11-04T08:00:51.000Z</time>
      </trkpt>
      <trkpt lat="39.549869" lon="-0.48348">
        <ele>107</ele>
        <time>2018-11-04T08:00:52.000Z</time>
      </trkpt>
      <trkpt lat="39.549899" lon="-0.483531">
        <ele>106.496064261885</ele>
        <time>2018-11-04T08:00:53.000Z</time>
      </trkpt>
      <trkpt lat="39.549931" lon="-0.48358">
        <ele>106.5</ele>
        <time>2018-11-04T08:00:54.000Z</time>
      </trkpt>
      <trkpt lat="39.549966" lon="-0.483628">
        <ele>107</ele>
        <time>2018-11-04T08:00:55.000Z</time>
      </trkpt>
      <trkpt lat="39.550002" lon="-0.483676">
        <ele>107</ele>
        <time>2018-11-04T08:00:56.000Z</time>
      </trkpt>
      <trkpt lat="39.550039" lon="-0.483726">
        <ele>107</ele>
        <time>2018-11-04T08:00:57.000Z</time>
      </trkpt>
      <trkpt lat="39.550076" lon="-0.483773">
        <ele>107</ele>
        <time>2018-11-04T08:00:58.000Z</time>
      </trkpt>
      <trkpt lat="39.550115" lon="-0.483819">
        <ele>107</ele>
        <time>2018-11-04T08:00:59.000Z</time>
      </trkpt>
      <trkpt lat="39.550154" lon="-0.483865">
        <ele>107</ele>
        <time>2018-11-04T08:01:00.000Z</time>
      </trkpt>
      <trkpt lat="39.550194" lon="-0.48391">
        <ele>107</ele>
        <time>2018-11-04T08:01:01.000Z</time>
      </trkpt>
      <trkpt lat="39.550236" lon="-0.483955">
        <ele>107</ele>
        <time>2018-11-04T08:01:02.000Z</time>
      </trkpt>
      <trkpt lat="39.550276" lon="-0.484003">
        <ele>107</ele>
        <time>2018-11-04T08:01:03.000Z</time>
      </trkpt>
      <trkpt lat="39.550316" lon="-0.484052">
        <ele>107</ele>
        <time>2018-11-04T08:01:04.000Z</time>
      </trkpt>
      <trkpt lat="39.550356" lon="-0.484102">
        <ele>107</ele>
        <time>2018-11-04T08:01:05.000Z</time>
      </trkpt>
      <trkpt lat="39.550397" lon="-0.484151">
        <ele>107</ele>
        <time>2018-11-04T08:01:06.000Z</time>
      </trkpt>
      <trkpt lat="39.550438" lon="-0.4842">
        <ele>106.503874738294</ele>
        <time>2018-11-04T08:01:07.000Z</time>
      </trkpt>
      <trkpt lat="39.550478" lon="-0.484249">
        <ele>106</ele>
        <time>2018-11-04T08:01:08.000Z</time>
      </trkpt>
      <trkpt lat="39.550518" lon="-0.484295">
        <ele>106</ele>
        <time>2018-11-04T08:01:09.000Z</time>
      </trkpt>
      <trkpt lat="39.550559" lon="-0.484342">
        <ele>106</ele>
        <time>2018-11-04T08:01:10.000Z</time>
      </trkpt>
      <trkpt lat="39.550597" lon="-0.484391">
        <ele>106</ele>
        <time>2018-11-04T08:01:11.000Z</time>
      </trkpt>
      <trkpt lat="39.550638" lon="-0.484439">
        <ele>106</ele>
        <time>2018-11-04T08:01:12.000Z</time>
      </trkpt>
      <trkpt lat="39.550677" lon="-0.484484">
        <ele>106</ele>
        <time>2018-11-04T08:01:13.000Z</time>
      </trkpt>
      <trkpt lat="39.550718" lon="-0.48453">
        <ele>106</ele>
        <time>2018-11-04T08:01:14.000Z</time>
      </trkpt>
      <trkpt lat="39.550759" lon="-0.484576">
        <ele>106</ele>
        <time>2018-11-04T08:01:15.000Z</time>
      </trkpt>
      <trkpt lat="39.5508" lon="-0.484622">
        <ele>106</ele>
        <time>2018-11-04T08:01:16.000Z</time>
      </trkpt>
      <trkpt lat="39.550842" lon="-0.484667">
        <ele>106</ele>
        <time>2018-11-04T08:01:17.000Z</time>
      </trkpt>
      <trkpt lat="39.550886" lon="-0.484712">
        <ele>106</ele>
        <time>2018-11-04T08:01:18.000Z</time>
      </trkpt>
      <trkpt lat="39.550928" lon="-0.484759">
        <ele>106</ele>
        <time>2018-11-04T08:01:19.000Z</time>
      </trkpt>
      <trkpt lat="39.550968" lon="-0.484807">
        <ele>106</ele>
        <time>2018-11-04T08:01:20.000Z</time>
      </trkpt>
      <trkpt lat="39.551008" lon="-0.484854">
        <ele>106</ele>
        <time>2018-11-04T08:01:21.000Z</time>
      </trkpt>
      <trkpt lat="39.551047" lon="-0.484902">
        <ele>106</ele>
        <time>2018-11-04T08:01:22.000Z</time>
      </trkpt>
      <trkpt lat="39.551088" lon="-0.48495">
        <ele>106</ele>
        <time>2018-11-04T08:01:23.000Z</time>
      </trkpt>
      <trkpt lat="39.551128" lon="-0.484997">
        <ele>106</ele>
        <time>2018-11-04T08:01:24.000Z</time>
      </trkpt>
      <trkpt lat="39.55117" lon="-0.485044">
        <ele>105.496064261885</ele>
        <time>2018-11-04T08:01:25.000Z</time>
      </trkpt>
      <trkpt lat="39.551209" lon="-0.485092">
        <ele>105</ele>
        <time>2018-11-04T08:01:26.000Z</time>
      </trkpt>
      <trkpt lat="39.55125" lon="-0.485139">
        <ele>105</ele>
        <time>2018-11-04T08:01:27.000Z</time>
      </trkpt>
      <trkpt lat="39.551289" lon="-0.485185">
        <ele>105</ele>
        <time>2018-11-04T08:01:28.000Z</time>
      </trkpt>
      <trkpt lat="39.55133" lon="-0.485229">
        <ele>105</ele>
        <time>2018-11-04T08:01:29.000Z</time>
      </trkpt>
      <trkpt lat="39.55137" lon="-0.485273">
        <ele>105</ele>
        <time>2018-11-04T08:01:30.000Z</time>
      </trkpt>
      <trkpt lat="39.551408" lon="-0.485318">
        <ele>105.503935738115</ele>
        <time>2018-11-04T08:01:31.000Z</time>
      </trkpt>
      <trkpt lat="39.551447" lon="-0.485362">
        <ele>106</ele>
        <time>2018-11-04T08:01:32.000Z</time>
      </trkpt>
      <trkpt lat="39.551486" lon="-0.485406">
        <ele>106</ele>
        <time>2018-11-04T08:01:33.000Z</time>
      </trkpt>
      <trkpt lat="39.551524" lon="-0.48545">
        <ele>106</ele>
        <time>2018-11-04T08:01:34.000Z</time>
      </trkpt>
      <trkpt lat="39.551564" lon="-0.485492">
        <ele>106</ele>
        <time>2018-11-04T08:01:35.000Z</time>
      </trkpt>
      <trkpt lat="39.5516" lon="-0.485535">
        <ele>106</ele>
        <time>2018-11-04T08:01:36.000Z</time>
      </trkpt>
      <trkpt lat="39.551639" lon="-0.485577">
        <ele>106</ele>
        <time>2018-11-04T08:01:37.000Z</time>
      </trkpt>
      <trkpt lat="39.551678" lon="-0.485618">
        <ele>106</ele>
        <time>2018-11-04T08:01:38.000Z</time>
      </trkpt>
      <trkpt lat="39.551716" lon="-0.485658">
        <ele>106</ele>
        <time>2018-11-04T08:01:39.000Z</time>
      </trkpt>
      <trkpt lat="39.551754" lon="-0.485697">
        <ele>106</ele>
        <time>2018-11-04T08:01:40.000Z</time>
      </trkpt>
      <trkpt lat="39.551793" lon="-0.485733">
        <ele>106.64</ele>
        <time>2018-11-04T08:01:41.000Z</time>
      </trkpt>
      <trkpt lat="39.551835" lon="-0.485762">
        <ele>107</ele>
        <time>2018-11-04T08:01:42.000Z</time>
      </trkpt>
      <trkpt lat="39.551876" lon="-0.485785">
        <ele>107</ele>
        <time>2018-11-04T08:01:43.000Z</time>
      </trkpt>
      <trkpt lat="39.551918" lon="-0.485803">
        <ele>107</ele>
        <time>2018-11-04T08:01:44.000Z</time>
      </trkpt>
      <trkpt lat="39.551964" lon="-0.485808">
        <ele>107.48854842492</ele>
        <time>2018-11-04T08:01:45.000Z</time>
      </trkpt>
      <trkpt lat="39.552006" lon="-0.485803">
        <ele>108</ele>
        <time>2018-11-04T08:01:46.000Z</time>
      </trkpt>
      <trkpt lat="39.55205" lon="-0.485793">
        <ele>108</ele>
        <time>2018-11-04T08:01:47.000Z</time>
      </trkpt>
      <trkpt lat="39.552091" lon="-0.485777">
        <ele>108.64</ele>
        <time>2018-11-04T08:01:48.000Z</time>
      </trkpt>
      <trkpt lat="39.552126" lon="-0.485746">
        <ele>109</ele>
        <time>2018-11-04T08:01:49.000Z</time>
      </trkpt>
      <trkpt lat="39.552158" lon="-0.485707">
        <ele>109</ele>
        <time>2018-11-04T08:01:50.000Z</time>
      </trkpt>
      <trkpt lat="39.552187" lon="-0.485662">
        <ele>109</ele>
        <time>2018-11-04T08:01:51.000Z</time>
      </trkpt>
      <trkpt lat="39.552222" lon="-0.485622">
        <ele>109</ele>
        <time>2018-11-04T08:01:52.000Z</time>
      </trkpt>
      <trkpt lat="39.552258" lon="-0.485584">
        <ele>109</ele>
        <time>2018-11-04T08:01:53.000Z</time>
      </trkpt>
      <trkpt lat="39.552298" lon="-0.485551">
        <ele>109</ele>
        <time>2018-11-04T08:01:54.000Z</time>
      </trkpt>
      <trkpt lat="39.55234" lon="-0.485528">
        <ele>109</ele>
        <time>2018-11-04T08:01:55.000Z</time>
      </trkpt>
      <trkpt lat="39.552386" lon="-0.485515">
        <ele>109</ele>
        <time>2018-11-04T08:01:56.000Z</time>
      </trkpt>
      <trkpt lat="39.55243" lon="-0.485509">
        <ele>109</ele>
        <time>2018-11-04T08:01:57.000Z</time>
      </trkpt>
      <trkpt lat="39.552478" lon="-0.485515">
        <ele>109</ele>
        <time>2018-11-04T08:01:58.000Z</time>
      </trkpt>
      <trkpt lat="39.552526" lon="-0.485529">
        <ele>109</ele>
        <time>2018-11-04T08:01:59.000Z</time>
      </trkpt>
      <trkpt lat="39.552572" lon="-0.485549">
        <ele>109</ele>
        <time>2018-11-04T08:02:00.000Z</time>
      </trkpt>
      <trkpt lat="39.552614" lon="-0.48558">
        <ele>109</ele>
        <time>2018-11-04T08:02:01.000Z</time>
      </trkpt>
      <trkpt lat="39.552649" lon="-0.485622">
        <ele>109</ele>
        <time>2018-11-04T08:02:02.000Z</time>
      </trkpt>
      <trkpt lat="39.552677" lon="-0.485674">
        <ele>109</ele>
        <time>2018-11-04T08:02:03.000Z</time>
      </trkpt>
      <trkpt lat="39.552701" lon="-0.485726">
        <ele>109</ele>
        <time>2018-11-04T08:02:04.000Z</time>
      </trkpt>
      <trkpt lat="39.55272" lon="-0.485784">
        <ele>109</ele>
        <time>2018-11-04T08:02:05.000Z</time>
      </trkpt>
      <trkpt lat="39.552733" lon="-0.48584">
        <ele>109</ele>
        <time>2018-11-04T08:02:06.000Z</time>
      </trkpt>
      <trkpt lat="39.552738" lon="-0.485898">
        <ele>109</ele>
        <time>2018-11-04T08:02:07.000Z</time>
      </trkpt>
      <trkpt lat="39.552737" lon="-0.485958">
        <ele>109</ele>
        <time>2018-11-04T08:02:08.000Z</time>
      </trkpt>
      <trkpt lat="39.552729" lon="-0.486018">
        <ele>109</ele>
        <time>2018-11-04T08:02:09.000Z</time>
      </trkpt>
      <trkpt lat="39.552713" lon="-0.48608">
        <ele>109.5</ele>
        <time>2018-11-04T08:02:10.000Z</time>
      </trkpt>
      <trkpt lat="39.552685" lon="-0.48614">
        <ele>110</ele>
        <time>2018-11-04T08:02:11.000Z</time>
      </trkpt>
      <trkpt lat="39.552651" lon="-0.486192">
        <ele>109.36</ele>
        <time>2018-11-04T08:02:12.000Z</time>
      </trkpt>
      <trkpt lat="39.552608" lon="-0.486232">
        <ele>109</ele>
        <time>2018-11-04T08:02:13.000Z</time>
      </trkpt>
      <trkpt lat="39.552557" lon="-0.48626">
        <ele>109</ele>
        <time>2018-11-04T08:02:14.000Z</time>
      </trkpt>
      <trkpt lat="39.552502" lon="-0.48628">
        <ele>109.64</ele>
        <time>2018-11-04T08:02:15.000Z</time>
      </trkpt>
      <trkpt lat="39.552445" lon="-0.486297">
        <ele>110</ele>
        <time>2018-11-04T08:02:16.000Z</time>
      </trkpt>
      <trkpt lat="39.552391" lon="-0.486324">
        <ele>110</ele>
        <time>2018-11-04T08:02:17.000Z</time>
      </trkpt>
      <trkpt lat="39.552348" lon="-0.486369">
        <ele>110</ele>
        <time>2018-11-04T08:02:18.000Z</time>
      </trkpt>
      <trkpt lat="39.552329" lon="-0.486425">
        <ele>110.632650662208</ele>
        <time>2018-11-04T08:02:19.000Z</time>
      </trkpt>
      <trkpt lat="39.552337" lon="-0.48648">
        <ele>111</ele>
        <time>2018-11-04T08:02:20.000Z</time>
      </trkpt>
      <trkpt lat="39.552365" lon="-0.486518">
        <ele>111</ele>
        <time>2018-11-04T08:02:21.000Z</time>
      </trkpt>
      <trkpt lat="39.552398" lon="-0.486541">
        <ele>111</ele>
        <time>2018-11-04T08:02:22.000Z</time>
      </trkpt>
      <trkpt lat="39.552437" lon="-0.486556">
        <ele>111</ele>
        <time>2018-11-04T08:02:23.000Z</time>
      </trkpt>
      <trkpt lat="39.552481" lon="-0.486554">
        <ele>111.64</ele>
        <time>2018-11-04T08:02:24.000Z</time>
      </trkpt>
      <trkpt lat="39.552527" lon="-0.486539">
        <ele>112</ele>
        <time>2018-11-04T08:02:25.000Z</time>
      </trkpt>
      <trkpt lat="39.552578" lon="-0.486529">
        <ele>112</ele>
        <time>2018-11-04T08:02:26.000Z</time>
      </trkpt>
      <trkpt lat="39.552632" lon="-0.48652">
        <ele>111.515151515152</ele>
        <time>2018-11-04T08:02:27.000Z</time>
      </trkpt>
      <trkpt lat="39.552687" lon="-0.486518">
        <ele>111</ele>
        <time>2018-11-04T08:02:28.000Z</time>
      </trkpt>
      <trkpt lat="39.55274" lon="-0.486522">
        <ele>111.5</ele>
        <time>2018-11-04T08:02:29.000Z</time>
      </trkpt>
      <trkpt lat="39.552792" lon="-0.486526">
        <ele>112</ele>
        <time>2018-11-04T08:02:30.000Z</time>
      </trkpt>
      <trkpt lat="39.552844" lon="-0.486533">
        <ele>112</ele>
        <time>2018-11-04T08:02:31.000Z</time>
      </trkpt>
      <trkpt lat="39.552896" lon="-0.486544">
        <ele>112</ele>
        <time>2018-11-04T08:02:32.000Z</time>
      </trkpt>
      <trkpt lat="39.552945" lon="-0.486556">
        <ele>112</ele>
        <time>2018-11-04T08:02:33.000Z</time>
      </trkpt>
      <trkpt lat="39.552995" lon="-0.486568">
        <ele>112.64</ele>
        <time>2018-11-04T08:02:34.000Z</time>
      </trkpt>
      <trkpt lat="39.553043" lon="-0.48658">
        <ele>112.36</ele>
        <time>2018-11-04T08:02:35.000Z</time>
      </trkpt>
      <trkpt lat="39.553089" lon="-0.486591">
        <ele>112</ele>
        <time>2018-11-04T08:02:36.000Z</time>
      </trkpt>
      <trkpt lat="39.553134" lon="-0.486605">
        <ele>112</ele>
        <time>2018-11-04T08:02:37.000Z</time>
      </trkpt>
      <trkpt lat="39.553178" lon="-0.486617">
        <ele>112</ele>
        <time>2018-11-04T08:02:38.000Z</time>
      </trkpt>
      <trkpt lat="39.55322" lon="-0.48663">
        <ele>112</ele>
        <time>2018-11-04T08:02:39.000Z</time>
      </trkpt>
      <trkpt lat="39.553258" lon="-0.48664">
        <ele>112.64</ele>
        <time>2018-11-04T08:02:40.000Z</time>
      </trkpt>
      <trkpt lat="39.553296" lon="-0.486652">
        <ele>113</ele>
        <time>2018-11-04T08:02:41.000Z</time>
      </trkpt>
      <trkpt lat="39.553334" lon="-0.486662">
        <ele>113</ele>
        <time>2018-11-04T08:02:42.000Z</time>
      </trkpt>
      <trkpt lat="39.553373" lon="-0.486676">
        <ele>113</ele>
        <time>2018-11-04T08:02:43.000Z</time>
      </trkpt>
      <trkpt lat="39.553412" lon="-0.486699">
        <ele>113</ele>
        <time>2018-11-04T08:02:44.000Z</time>
      </trkpt>
      <trkpt lat="39.553453" lon="-0.486722">
        <ele>113</ele>
        <time>2018-11-04T08:02:45.000Z</time>
      </trkpt>
      <trkpt lat="39.553496" lon="-0.486746">
        <ele>112.36</ele>
        <time>2018-11-04T08:02:46.000Z</time>
      </trkpt>
      <trkpt lat="39.553539" lon="-0.48677">
        <ele>112</ele>
        <time>2018-11-04T08:02:47.000Z</time>
      </trkpt>
      <trkpt lat="39.553583" lon="-0.486798">
        <ele>112</ele>
        <time>2018-11-04T08:02:48.000Z</time>
      </trkpt>
      <trkpt lat="39.553626" lon="-0.48683">
        <ele>111.507039968271</ele>
        <time>2018-11-04T08:02:49.000Z</time>
      </trkpt>
      <trkpt lat="39.553669" lon="-0.486865">
        <ele>111</ele>
        <time>2018-11-04T08:02:50.000Z</time>
      </trkpt>
      <trkpt lat="39.55371" lon="-0.486906">
        <ele>111</ele>
        <time>2018-11-04T08:02:51.000Z</time>
      </trkpt>
      <trkpt lat="39.553748" lon="-0.486954">
        <ele>111</ele>
        <time>2018-11-04T08:02:52.000Z</time>
      </trkpt>
      <trkpt lat="39.553782" lon="-0.487006">
        <ele>111</ele>
        <time>2018-11-04T08:02:53.000Z</time>
      </trkpt>
      <trkpt lat="39.55381" lon="-0.487064">
        <ele>111</ele>
        <time>2018-11-04T08:02:54.000Z</time>
      </trkpt>
      <trkpt lat="39.553829" lon="-0.487126">
        <ele>111</ele>
        <time>2018-11-04T08:02:55.000Z</time>
      </trkpt>
      <trkpt lat="39.553835" lon="-0.48719">
        <ele>111</ele>
        <time>2018-11-04T08:02:56.000Z</time>
      </trkpt>
      <trkpt lat="39.553834" lon="-0.487257">
        <ele>111</ele>
        <time>2018-11-04T08:02:57.000Z</time>
      </trkpt>
      <trkpt lat="39.553825" lon="-0.487323">
        <ele>111</ele>
        <time>2018-11-04T08:02:58.000Z</time>
      </trkpt>
      <trkpt lat="39.553814" lon="-0.487392">
        <ele>111</ele>
        <time>2018-11-04T08:02:59.000Z</time>
      </trkpt>
      <trkpt lat="39.553808" lon="-0.487459">
        <ele>111.64</ele>
        <time>2018-11-04T08:03:00.000Z</time>
      </trkpt>
      <trkpt lat="39.553801" lon="-0.487522">
        <ele>112</ele>
        <time>2018-11-04T08:03:01.000Z</time>
      </trkpt>
      <trkpt lat="39.553793" lon="-0.487582">
        <ele>112</ele>
        <time>2018-11-04T08:03:02.000Z</time>
      </trkpt>
      <trkpt lat="39.553785" lon="-0.48764">
        <ele>112</ele>
        <time>2018-11-04T08:03:03.000Z</time>
      </trkpt>
      <trkpt lat="39.553775" lon="-0.487698">
        <ele>112</ele>
        <time>2018-11-04T08:03:04.000Z</time>
      </trkpt>
      <trkpt lat="39.553763" lon="-0.487754">
        <ele>111.36</ele>
        <time>2018-11-04T08:03:05.000Z</time>
      </trkpt>
      <trkpt lat="39.553754" lon="-0.487811">
        <ele>111</ele>
        <time>2018-11-04T08:03:06.000Z</time>
      </trkpt>
      <trkpt lat="39.553744" lon="-0.487865">
        <ele>110.5</ele>
        <time>2018-11-04T08:03:07.000Z</time>
      </trkpt>
      <trkpt lat="39.55373" lon="-0.487921">
        <ele>110</ele>
        <time>2018-11-04T08:03:08.000Z</time>
      </trkpt>
      <trkpt lat="39.55372" lon="-0.487975">
        <ele>110</ele>
        <time>2018-11-04T08:03:09.000Z</time>
      </trkpt>
      <trkpt lat="39.553711" lon="-0.488028">
        <ele>110</ele>
        <time>2018-11-04T08:03:10.000Z</time>
      </trkpt>
      <trkpt lat="39.553701" lon="-0.48808">
        <ele>110</ele>
        <time>2018-11-04T08:03:11.000Z</time>
      </trkpt>
      <trkpt lat="39.553691" lon="-0.488132">
        <ele>110</ele>
        <time>2018-11-04T08:03:12.000Z</time>
      </trkpt>
      <trkpt lat="39.553687" lon="-0.488184">
        <ele>110</ele>
        <time>2018-11-04T08:03:13.000Z</time>
      </trkpt>
      <trkpt lat="39.553693" lon="-0.488236">
        <ele>110</ele>
        <time>2018-11-04T08:03:14.000Z</time>
      </trkpt>
      <trkpt lat="39.553699" lon="-0.488288">
        <ele>109.36</ele>
        <time>2018-11-04T08:03:15.000Z</time>
      </trkpt>
      <trkpt lat="39.5537" lon="-0.488337">
        <ele>109</ele>
        <time>2018-11-04T08:03:16.000Z</time>
      </trkpt>
      <trkpt lat="39.5537" lon="-0.488386">
        <ele>109</ele>
        <time>2018-11-04T08:03:17.000Z</time>
      </trkpt>
      <trkpt lat="39.553696" lon="-0.488436">
        <ele>108.36</ele>
        <time>2018-11-04T08:03:18.000Z</time>
      </trkpt>
      <trkpt lat="39.553689" lon="-0.488486">
        <ele>108</ele>
        <time>2018-11-04T08:03:19.000Z</time>
      </trkpt>
      <trkpt lat="39.553682" lon="-0.488533">
        <ele>108</ele>
        <time>2018-11-04T08:03:20.000Z</time>
      </trkpt>
      <trkpt lat="39.553673" lon="-0.48858">
        <ele>108</ele>
        <time>2018-11-04T08:03:21.000Z</time>
      </trkpt>
      <trkpt lat="39.553663" lon="-0.488626">
        <ele>108</ele>
        <time>2018-11-04T08:03:22.000Z</time>
      </trkpt>
      <trkpt lat="39.553653" lon="-0.488672">
        <ele>108.64</ele>
        <time>2018-11-04T08:03:23.000Z</time>
      </trkpt>
      <trkpt lat="39.553647" lon="-0.48872">
        <ele>109</ele>
        <time>2018-11-04T08:03:24.000Z</time>
      </trkpt>
      <trkpt lat="39.55364" lon="-0.488766">
        <ele>109</ele>
        <time>2018-11-04T08:03:25.000Z</time>
      </trkpt>
      <trkpt lat="39.553637" lon="-0.488812">
        <ele>109</ele>
        <time>2018-11-04T08:03:26.000Z</time>
      </trkpt>
      <trkpt lat="39.553645" lon="-0.488858">
        <ele>109</ele>
        <time>2018-11-04T08:03:27.000Z</time>
      </trkpt>
      <trkpt lat="39.553671" lon="-0.488892">
        <ele>109</ele>
        <time>2018-11-04T08:03:28.000Z</time>
      </trkpt>
      <trkpt lat="39.553709" lon="-0.488908">
        <ele>109.64</ele>
        <time>2018-11-04T08:03:29.000Z</time>
      </trkpt>
      <trkpt lat="39.553752" lon="-0.488916">
        <ele>110</ele>
        <time>2018-11-04T08:03:30.000Z</time>
      </trkpt>
      <trkpt lat="39.553794" lon="-0.488926">
        <ele>110</ele>
        <time>2018-11-04T08:03:31.000Z</time>
      </trkpt>
      <trkpt lat="39.553838" lon="-0.488943">
        <ele>110</ele>
        <time>2018-11-04T08:03:32.000Z</time>
      </trkpt>
      <trkpt lat="39.553883" lon="-0.488962">
        <ele>110</ele>
        <time>2018-11-04T08:03:33.000Z</time>
      </trkpt>
      <trkpt lat="39.553931" lon="-0.488978">
        <ele>110</ele>
        <time>2018-11-04T08:03:34.000Z</time>
      </trkpt>
      <trkpt lat="39.553978" lon="-0.488996">
        <ele>110.64</ele>
        <time>2018-11-04T08:03:35.000Z</time>
      </trkpt>
      <trkpt lat="39.554026" lon="-0.489015">
        <ele>111</ele>
        <time>2018-11-04T08:03:36.000Z</time>
      </trkpt>
      <trkpt lat="39.554076" lon="-0.48903">
        <ele>111</ele>
        <time>2018-11-04T08:03:37.000Z</time>
      </trkpt>
      <trkpt lat="39.554127" lon="-0.489044">
        <ele>111.64</ele>
        <time>2018-11-04T08:03:38.000Z</time>
      </trkpt>
      <trkpt lat="39.554176" lon="-0.48906">
        <ele>112</ele>
        <time>2018-11-04T08:03:39.000Z</time>
      </trkpt>
      <trkpt lat="39.554228" lon="-0.489076">
        <ele>112</ele>
        <time>2018-11-04T08:03:40.000Z</time>
      </trkpt>
      <trkpt lat="39.55428" lon="-0.489091">
        <ele>112</ele>
        <time>2018-11-04T08:03:41.000Z</time>
      </trkpt>
      <trkpt lat="39.554332" lon="-0.489108">
        <ele>112</ele>
        <time>2018-11-04T08:03:42.000Z</time>
      </trkpt>
      <trkpt lat="39.554384" lon="-0.489128">
        <ele>112.352938961952</ele>
        <time>2018-11-04T08:03:43.000Z</time>
      </trkpt>
      <trkpt lat="39.554436" lon="-0.489149">
        <ele>113</ele>
        <time>2018-11-04T08:03:44.000Z</time>
      </trkpt>
      <trkpt lat="39.554488" lon="-0.489168">
        <ele>113</ele>
        <time>2018-11-04T08:03:45.000Z</time>
      </trkpt>
      <trkpt lat="39.554538" lon="-0.489184">
        <ele>113</ele>
        <time>2018-11-04T08:03:46.000Z</time>
      </trkpt>
      <trkpt lat="39.554583" lon="-0.489194">
        <ele>113</ele>
        <time>2018-11-04T08:03:47.000Z</time>
      </trkpt>
      <trkpt lat="39.554625" lon="-0.489186">
        <ele>113</ele>
        <time>2018-11-04T08:03:48.000Z</time>
      </trkpt>
      <trkpt lat="39.55466" lon="-0.489152">
        <ele>112.36</ele>
        <time>2018-11-04T08:03:49.000Z</time>
      </trkpt>
      <trkpt lat="39.554689" lon="-0.489108">
        <ele>112</ele>
        <time>2018-11-04T08:03:50.000Z</time>
      </trkpt>
      <trkpt lat="39.554714" lon="-0.489058">
        <ele>112</ele>
        <time>2018-11-04T08:03:51.000Z</time>
      </trkpt>
      <trkpt lat="39.55474" lon="-0.489004">
        <ele>112</ele>
        <time>2018-11-04T08:03:52.000Z</time>
      </trkpt>
      <trkpt lat="39.554767" lon="-0.488946">
        <ele>112</ele>
        <time>2018-11-04T08:03:53.000Z</time>
      </trkpt>
      <trkpt lat="39.554795" lon="-0.488886">
        <ele>111.5</ele>
        <time>2018-11-04T08:03:54.000Z</time>
      </trkpt>
      <trkpt lat="39.554826" lon="-0.488825">
        <ele>111</ele>
        <time>2018-11-04T08:03:55.000Z</time>
      </trkpt>
      <trkpt lat="39.554857" lon="-0.488762">
        <ele>111</ele>
        <time>2018-11-04T08:03:56.000Z</time>
      </trkpt>
      <trkpt lat="39.554888" lon="-0.488696">
        <ele>111</ele>
        <time>2018-11-04T08:03:57.000Z</time>
      </trkpt>
      <trkpt lat="39.554923" lon="-0.488636">
        <ele>111</ele>
        <time>2018-11-04T08:03:58.000Z</time>
      </trkpt>
      <trkpt lat="39.554956" lon="-0.488587">
        <ele>111</ele>
        <time>2018-11-04T08:03:59.000Z</time>
      </trkpt>
      <trkpt lat="39.554984" lon="-0.488562">
        <ele>111</ele>
        <time>2018-11-04T08:04:00.000Z</time>
      </trkpt>
      <trkpt lat="39.555008" lon="-0.488561">
        <ele>111</ele>
        <time>2018-11-04T08:04:01.000Z</time>
      </trkpt>
      <trkpt lat="39.555032" lon="-0.48857">
        <ele>111</ele>
        <time>2018-11-04T08:04:02.000Z</time>
      </trkpt>
      <trkpt lat="39.555061" lon="-0.488582">
        <ele>111</ele>
        <time>2018-11-04T08:04:03.000Z</time>
      </trkpt>
      <trkpt lat="39.555092" lon="-0.488597">
        <ele>111</ele>
        <time>2018-11-04T08:04:04.000Z</time>
      </trkpt>
      <trkpt lat="39.55512" lon="-0.488629">
        <ele>111.48854842492</ele>
        <time>2018-11-04T08:04:05.000Z</time>
      </trkpt>
      <trkpt lat="39.555148" lon="-0.488673">
        <ele>112</ele>
        <time>2018-11-04T08:04:06.000Z</time>
      </trkpt>
      <trkpt lat="39.555173" lon="-0.488717">
        <ele>112</ele>
        <time>2018-11-04T08:04:07.000Z</time>
      </trkpt>
      <trkpt lat="39.555198" lon="-0.488763">
        <ele>112</ele>
        <time>2018-11-04T08:04:08.000Z</time>
      </trkpt>
      <trkpt lat="39.555227" lon="-0.488814">
        <ele>111.36</ele>
        <time>2018-11-04T08:04:09.000Z</time>
      </trkpt>
      <trkpt lat="39.555257" lon="-0.488865">
        <ele>111</ele>
        <time>2018-11-04T08:04:10.000Z</time>
      </trkpt>
      <trkpt lat="39.555286" lon="-0.488916">
        <ele>111</ele>
        <time>2018-11-04T08:04:11.000Z</time>
      </trkpt>
      <trkpt lat="39.555315" lon="-0.488966">
        <ele>111</ele>
        <time>2018-11-04T08:04:12.000Z</time>
      </trkpt>
      <trkpt lat="39.555344" lon="-0.489016">
        <ele>110.36</ele>
        <time>2018-11-04T08:04:13.000Z</time>
      </trkpt>
      <trkpt lat="39.555375" lon="-0.489065">
        <ele>110</ele>
        <time>2018-11-04T08:04:14.000Z</time>
      </trkpt>
      <trkpt lat="39.555406" lon="-0.489113">
        <ele>110</ele>
        <time>2018-11-04T08:04:15.000Z</time>
      </trkpt>
      <trkpt lat="39.555435" lon="-0.489163">
        <ele>110</ele>
        <time>2018-11-04T08:04:16.000Z</time>
      </trkpt>
      <trkpt lat="39.555464" lon="-0.489212">
        <ele>110</ele>
        <time>2018-11-04T08:04:17.000Z</time>
      </trkpt>
      <trkpt lat="39.555492" lon="-0.489263">
        <ele>110</ele>
        <time>2018-11-04T08:04:18.000Z</time>
      </trkpt>
      <trkpt lat="39.555521" lon="-0.489313">
        <ele>110</ele>
        <time>2018-11-04T08:04:19.000Z</time>
      </trkpt>
      <trkpt lat="39.555549" lon="-0.489363">
        <ele>109.36</ele>
        <time>2018-11-04T08:04:20.000Z</time>
      </trkpt>
      <trkpt lat="39.555577" lon="-0.489415">
        <ele>109</ele>
        <time>2018-11-04T08:04:21.000Z</time>
      </trkpt>
      <trkpt lat="39.555606" lon="-0.489466">
        <ele>109</ele>
        <time>2018-11-04T08:04:22.000Z</time>
      </trkpt>
      <trkpt lat="39.555635" lon="-0.489514">
        <ele>109</ele>
        <time>2018-11-04T08:04:23.000Z</time>
      </trkpt>
      <trkpt lat="39.555663" lon="-0.489561">
        <ele>109</ele>
        <time>2018-11-04T08:04:24.000Z</time>
      </trkpt>
      <trkpt lat="39.555692" lon="-0.489608">
        <ele>108.36</ele>
        <time>2018-11-04T08:04:25.000Z</time>
      </trkpt>
      <trkpt lat="39.555721" lon="-0.489654">
        <ele>108</ele>
        <time>2018-11-04T08:04:26.000Z</time>
      </trkpt>
      <trkpt lat="39.555749" lon="-0.489701">
        <ele>108</ele>
        <time>2018-11-04T08:04:27.000Z</time>
      </trkpt>
      <trkpt lat="39.555776" lon="-0.48975">
        <ele>108</ele>
        <time>2018-11-04T08:04:28.000Z</time>
      </trkpt>
      <trkpt lat="39.555804" lon="-0.489797">
        <ele>108</ele>
        <time>2018-11-04T08:04:29.000Z</time>
      </trkpt>
      <trkpt lat="39.555834" lon="-0.489841">
        <ele>108</ele>
        <time>2018-11-04T08:04:30.000Z</time>
      </trkpt>
      <trkpt lat="39.555865" lon="-0.489886">
        <ele>107.367349337792</ele>
        <time>2018-11-04T08:04:31.000Z</time>
      </trkpt>
      <trkpt lat="39.555895" lon="-0.489931">
        <ele>107</ele>
        <time>2018-11-04T08:04:32.000Z</time>
      </trkpt>
      <trkpt lat="39.555924" lon="-0.489978">
        <ele>107</ele>
        <time>2018-11-04T08:04:33.000Z</time>
      </trkpt>
      <trkpt lat="39.555953" lon="-0.490027">
        <ele>107</ele>
        <time>2018-11-04T08:04:34.000Z</time>
      </trkpt>
      <trkpt lat="39.555982" lon="-0.490077">
        <ele>107</ele>
        <time>2018-11-04T08:04:35.000Z</time>
      </trkpt>
      <trkpt lat="39.556011" lon="-0.490127">
        <ele>107</ele>
        <time>2018-11-04T08:04:36.000Z</time>
      </trkpt>
      <trkpt lat="39.556041" lon="-0.490176">
        <ele>107</ele>
        <time>2018-11-04T08:04:37.000Z</time>
      </trkpt>
      <trkpt lat="39.55607" lon="-0.490225">
        <ele>107</ele>
        <time>2018-11-04T08:04:38.000Z</time>
      </trkpt>
      <trkpt lat="39.556097" lon="-0.490275">
        <ele>107</ele>
        <time>2018-11-04T08:04:39.000Z</time>
      </trkpt>
      <trkpt lat="39.556126" lon="-0.490326">
        <ele>107</ele>
        <time>2018-11-04T08:04:40.000Z</time>
      </trkpt>
      <trkpt lat="39.556157" lon="-0.490373">
        <ele>107</ele>
        <time>2018-11-04T08:04:41.000Z</time>
      </trkpt>
      <trkpt lat="39.556188" lon="-0.490421">
        <ele>107</ele>
        <time>2018-11-04T08:04:42.000Z</time>
      </trkpt>
      <trkpt lat="39.556218" lon="-0.49047">
        <ele>107</ele>
        <time>2018-11-04T08:04:43.000Z</time>
      </trkpt>
      <trkpt lat="39.556247" lon="-0.490518">
        <ele>107</ele>
        <time>2018-11-04T08:04:44.000Z</time>
      </trkpt>
      <trkpt lat="39.556277" lon="-0.490566">
        <ele>107</ele>
        <time>2018-11-04T08:04:45.000Z</time>
      </trkpt>
      <trkpt lat="39.556307" lon="-0.490613">
        <ele>107</ele>
        <time>2018-11-04T08:04:46.000Z</time>
      </trkpt>
      <trkpt lat="39.556338" lon="-0.490661">
        <ele>107</ele>
        <time>2018-11-04T08:04:47.000Z</time>
      </trkpt>
      <trkpt lat="39.556367" lon="-0.490712">
        <ele>107</ele>
        <time>2018-11-04T08:04:48.000Z</time>
      </trkpt>
      <trkpt lat="39.556397" lon="-0.490761">
        <ele>107</ele>
        <time>2018-11-04T08:04:49.000Z</time>
      </trkpt>
      <trkpt lat="39.556426" lon="-0.490811">
        <ele>106.36363518825</ele>
        <time>2018-11-04T08:04:50.000Z</time>
      </trkpt>
      <trkpt lat="39.556454" lon="-0.49086">
        <ele>106</ele>
        <time>2018-11-04T08:04:51.000Z</time>
      </trkpt>
      <trkpt lat="39.556483" lon="-0.490907">
        <ele>106</ele>
        <time>2018-11-04T08:04:52.000Z</time>
      </trkpt>
      <trkpt lat="39.556512" lon="-0.490954">
        <ele>106</ele>
        <time>2018-11-04T08:04:53.000Z</time>
      </trkpt>
      <trkpt lat="39.55654" lon="-0.491001">
        <ele>106</ele>
        <time>2018-11-04T08:04:54.000Z</time>
      </trkpt>
      <trkpt lat="39.556569" lon="-0.491048">
        <ele>106</ele>
        <time>2018-11-04T08:04:55.000Z</time>
      </trkpt>
      <trkpt lat="39.556598" lon="-0.491095">
        <ele>106</ele>
        <time>2018-11-04T08:04:56.000Z</time>
      </trkpt>
      <trkpt lat="39.556625" lon="-0.491145">
        <ele>106</ele>
        <time>2018-11-04T08:04:57.000Z</time>
      </trkpt>
      <trkpt lat="39.556653" lon="-0.491194">
        <ele>106</ele>
        <time>2018-11-04T08:04:58.000Z</time>
      </trkpt>
      <trkpt lat="39.556679" lon="-0.491242">
        <ele>106</ele>
        <time>2018-11-04T08:04:59.000Z</time>
      </trkpt>
      <trkpt lat="39.556708" lon="-0.49129">
        <ele>106</ele>
        <time>2018-11-04T08:05:00.000Z</time>
      </trkpt>
      <trkpt lat="39.556736" lon="-0.491337">
        <ele>106</ele>
        <time>2018-11-04T08:05:01.000Z</time>
      </trkpt>
      <trkpt lat="39.556766" lon="-0.491385">
        <ele>106</ele>
        <time>2018-11-04T08:05:02.000Z</time>
      </trkpt>
      <trkpt lat="39.556796" lon="-0.491433">
        <ele>106</ele>
        <time>2018-11-04T08:05:03.000Z</time>
      </trkpt>
      <trkpt lat="39.556826" lon="-0.491484">
        <ele>105.36</ele>
        <time>2018-11-04T08:05:04.000Z</time>
      </trkpt>
      <trkpt lat="39.55686" lon="-0.491532">
        <ele>105</ele>
        <time>2018-11-04T08:05:05.000Z</time>
      </trkpt>
      <trkpt lat="39.556894" lon="-0.491579">
        <ele>105</ele>
        <time>2018-11-04T08:05:06.000Z</time>
      </trkpt>
      <trkpt lat="39.556926" lon="-0.491629">
        <ele>105</ele>
        <time>2018-11-04T08:05:07.000Z</time>
      </trkpt>
      <trkpt lat="39.55696" lon="-0.491677">
        <ele>105</ele>
        <time>2018-11-04T08:05:08.000Z</time>
      </trkpt>
      <trkpt lat="39.556993" lon="-0.491724">
        <ele>105</ele>
        <time>2018-11-04T08:05:09.000Z</time>
      </trkpt>
      <trkpt lat="39.557024" lon="-0.491774">
        <ele>105</ele>
        <time>2018-11-04T08:05:10.000Z</time>
      </trkpt>
      <trkpt lat="39.557056" lon="-0.491823">
        <ele>105</ele>
        <time>2018-11-04T08:05:11.000Z</time>
      </trkpt>
      <trkpt lat="39.557088" lon="-0.491871">
        <ele>105</ele>
        <time>2018-11-04T08:05:12.000Z</time>
      </trkpt>
      <trkpt lat="39.557118" lon="-0.491918">
        <ele>105</ele>
        <time>2018-11-04T08:05:13.000Z</time>
      </trkpt>
      <trkpt lat="39.55715" lon="-0.491965">
        <ele>105</ele>
        <time>2018-11-04T08:05:14.000Z</time>
      </trkpt>
      <trkpt lat="39.55718" lon="-0.492014">
        <ele>105</ele>
        <time>2018-11-04T08:05:15.000Z</time>
      </trkpt>
      <trkpt lat="39.557213" lon="-0.492062">
        <ele>105</ele>
        <time>2018-11-04T08:05:16.000Z</time>
      </trkpt>
      <trkpt lat="39.557244" lon="-0.49211">
        <ele>104.36</ele>
        <time>2018-11-04T08:05:17.000Z</time>
      </trkpt>
      <trkpt lat="39.557274" lon="-0.492156">
        <ele>104</ele>
        <time>2018-11-04T08:05:18.000Z</time>
      </trkpt>
      <trkpt lat="39.557308" lon="-0.4922">
        <ele>104</ele>
        <time>2018-11-04T08:05:19.000Z</time>
      </trkpt>
      <trkpt lat="39.55734" lon="-0.492245">
        <ele>104.142870203883</ele>
        <time>2018-11-04T08:05:20.000Z</time>
      </trkpt>
      <trkpt lat="39.55737" lon="-0.492291">
        <ele>105</ele>
        <time>2018-11-04T08:05:21.000Z</time>
      </trkpt>
      <trkpt lat="39.557398" lon="-0.492337">
        <ele>105</ele>
        <time>2018-11-04T08:05:22.000Z</time>
      </trkpt>
      <trkpt lat="39.557429" lon="-0.492383">
        <ele>105</ele>
        <time>2018-11-04T08:05:23.000Z</time>
      </trkpt>
      <trkpt lat="39.557458" lon="-0.492428">
        <ele>105</ele>
        <time>2018-11-04T08:05:24.000Z</time>
      </trkpt>
      <trkpt lat="39.557486" lon="-0.492475">
        <ele>105</ele>
        <time>2018-11-04T08:05:25.000Z</time>
      </trkpt>
      <trkpt lat="39.557516" lon="-0.492521">
        <ele>105</ele>
        <time>2018-11-04T08:05:26.000Z</time>
      </trkpt>
      <trkpt lat="39.557544" lon="-0.492566">
        <ele>105</ele>
        <time>2018-11-04T08:05:27.000Z</time>
      </trkpt>
      <trkpt lat="39.557572" lon="-0.492609">
        <ele>105</ele>
        <time>2018-11-04T08:05:28.000Z</time>
      </trkpt>
      <trkpt lat="39.557602" lon="-0.492654">
        <ele>105</ele>
        <time>2018-11-04T08:05:29.000Z</time>
      </trkpt>
      <trkpt lat="39.55763" lon="-0.492698">
        <ele>105</ele>
        <time>2018-11-04T08:05:30.000Z</time>
      </trkpt>
      <trkpt lat="39.557661" lon="-0.49274">
        <ele>105</ele>
        <time>2018-11-04T08:05:31.000Z</time>
      </trkpt>
      <trkpt lat="39.557689" lon="-0.492783">
        <ele>105</ele>
        <time>2018-11-04T08:05:32.000Z</time>
      </trkpt>
      <trkpt lat="39.55772" lon="-0.492824">
        <ele>105</ele>
        <time>2018-11-04T08:05:33.000Z</time>
      </trkpt>
      <trkpt lat="39.557748" lon="-0.492871">
        <ele>105</ele>
        <time>2018-11-04T08:05:34.000Z</time>
      </trkpt>
      <trkpt lat="39.55778" lon="-0.492915">
        <ele>105</ele>
        <time>2018-11-04T08:05:35.000Z</time>
      </trkpt>
      <trkpt lat="39.55781" lon="-0.492957">
        <ele>105</ele>
        <time>2018-11-04T08:05:36.000Z</time>
      </trkpt>
      <trkpt lat="39.557842" lon="-0.492998">
        <ele>105</ele>
        <time>2018-11-04T08:05:37.000Z</time>
      </trkpt>
      <trkpt lat="39.557875" lon="-0.493038">
        <ele>105</ele>
        <time>2018-11-04T08:05:38.000Z</time>
      </trkpt>
      <trkpt lat="39.557908" lon="-0.493081">
        <ele>105</ele>
        <time>2018-11-04T08:05:39.000Z</time>
      </trkpt>
      <trkpt lat="39.557938" lon="-0.493127">
        <ele>105</ele>
        <time>2018-11-04T08:05:40.000Z</time>
      </trkpt>
      <trkpt lat="39.55797" lon="-0.49317">
        <ele>105</ele>
        <time>2018-11-04T08:05:41.000Z</time>
      </trkpt>
      <trkpt lat="39.558001" lon="-0.493213">
        <ele>105</ele>
        <time>2018-11-04T08:05:42.000Z</time>
      </trkpt>
      <trkpt lat="39.55803" lon="-0.493257">
        <ele>105</ele>
        <time>2018-11-04T08:05:43.000Z</time>
      </trkpt>
      <trkpt lat="39.55806" lon="-0.4933">
        <ele>105.64</ele>
        <time>2018-11-04T08:05:44.000Z</time>
      </trkpt>
      <trkpt lat="39.558088" lon="-0.493339">
        <ele>106</ele>
        <time>2018-11-04T08:05:45.000Z</time>
      </trkpt>
      <trkpt lat="39.558116" lon="-0.493384">
        <ele>106</ele>
        <time>2018-11-04T08:05:46.000Z</time>
      </trkpt>
      <trkpt lat="39.558145" lon="-0.493428">
        <ele>105.36</ele>
        <time>2018-11-04T08:05:47.000Z</time>
      </trkpt>
      <trkpt lat="39.558175" lon="-0.49347">
        <ele>105</ele>
        <time>2018-11-04T08:05:48.000Z</time>
      </trkpt>
      <trkpt lat="39.558207" lon="-0.493512">
        <ele>105</ele>
        <time>2018-11-04T08:05:49.000Z</time>
      </trkpt>
      <trkpt lat="39.558238" lon="-0.493554">
        <ele>105.64</ele>
        <time>2018-11-04T08:05:50.000Z</time>
      </trkpt>
      <trkpt lat="39.558272" lon="-0.493598">
        <ele>106</ele>
        <time>2018-11-04T08:05:51.000Z</time>
      </trkpt>
      <trkpt lat="39.558304" lon="-0.493641">
        <ele>106</ele>
        <time>2018-11-04T08:05:52.000Z</time>
      </trkpt>
      <trkpt lat="39.558332" lon="-0.49369">
        <ele>105.5</ele>
        <time>2018-11-04T08:05:53.000Z</time>
      </trkpt>
      <trkpt lat="39.558356" lon="-0.493741">
        <ele>105.64</ele>
        <time>2018-11-04T08:05:54.000Z</time>
      </trkpt>
      <trkpt lat="39.558374" lon="-0.493794">
        <ele>106</ele>
        <time>2018-11-04T08:05:55.000Z</time>
      </trkpt>
      <trkpt lat="39.558398" lon="-0.493842">
        <ele>106</ele>
        <time>2018-11-04T08:05:56.000Z</time>
      </trkpt>
      <trkpt lat="39.558432" lon="-0.493878">
        <ele>106.503935738115</ele>
        <time>2018-11-04T08:05:57.000Z</time>
      </trkpt>
      <trkpt lat="39.558464" lon="-0.493912">
        <ele>107</ele>
        <time>2018-11-04T08:05:58.000Z</time>
      </trkpt>
      <trkpt lat="39.558496" lon="-0.493951">
        <ele>107</ele>
        <time>2018-11-04T08:05:59.000Z</time>
      </trkpt>
      <trkpt lat="39.558524" lon="-0.493994">
        <ele>107</ele>
        <time>2018-11-04T08:06:00.000Z</time>
      </trkpt>
      <trkpt lat="39.558553" lon="-0.494038">
        <ele>107</ele>
        <time>2018-11-04T08:06:01.000Z</time>
      </trkpt>
      <trkpt lat="39.558581" lon="-0.494083">
        <ele>107</ele>
        <time>2018-11-04T08:06:02.000Z</time>
      </trkpt>
      <trkpt lat="39.558609" lon="-0.494126">
        <ele>107.48854842492</ele>
        <time>2018-11-04T08:06:03.000Z</time>
      </trkpt>
      <trkpt lat="39.558625" lon="-0.494155">
        <ele>108</ele>
        <time>2018-11-04T08:06:04.000Z</time>
      </trkpt>
      <trkpt lat="39.558633" lon="-0.494186">
        <ele>108</ele>
        <time>2018-11-04T08:06:05.000Z</time>
      </trkpt>
      <trkpt lat="39.558641" lon="-0.494237">
        <ele>108</ele>
        <time>2018-11-04T08:06:06.000Z</time>
      </trkpt>
      <trkpt lat="39.558649" lon="-0.494288">
        <ele>108</ele>
        <time>2018-11-04T08:06:07.000Z</time>
      </trkpt>
      <trkpt lat="39.558666" lon="-0.494342">
        <ele>108</ele>
        <time>2018-11-04T08:06:08.000Z</time>
      </trkpt>
      <trkpt lat="39.558688" lon="-0.494389">
        <ele>108</ele>
        <time>2018-11-04T08:06:09.000Z</time>
      </trkpt>
      <trkpt lat="39.558711" lon="-0.49443">
        <ele>108</ele>
        <time>2018-11-04T08:06:10.000Z</time>
      </trkpt>
      <trkpt lat="39.558733" lon="-0.494472">
        <ele>108</ele>
        <time>2018-11-04T08:06:11.000Z</time>
      </trkpt>
      <trkpt lat="39.558758" lon="-0.494518">
        <ele>107.37255295653</ele>
        <time>2018-11-04T08:06:12.000Z</time>
      </trkpt>
      <trkpt lat="39.558783" lon="-0.494563">
        <ele>107</ele>
        <time>2018-11-04T08:06:13.000Z</time>
      </trkpt>
      <trkpt lat="39.558807" lon="-0.494606">
        <ele>107</ele>
        <time>2018-11-04T08:06:14.000Z</time>
      </trkpt>
      <trkpt lat="39.558832" lon="-0.494648">
        <ele>107</ele>
        <time>2018-11-04T08:06:15.000Z</time>
      </trkpt>
      <trkpt lat="39.558856" lon="-0.494692">
        <ele>106.597485086822</ele>
        <time>2018-11-04T08:06:16.000Z</time>
      </trkpt>
      <trkpt lat="39.55888" lon="-0.494735">
        <ele>106</ele>
        <time>2018-11-04T08:06:17.000Z</time>
      </trkpt>
      <trkpt lat="39.558904" lon="-0.49478">
        <ele>106</ele>
        <time>2018-11-04T08:06:18.000Z</time>
      </trkpt>
      <trkpt lat="39.558928" lon="-0.494822">
        <ele>106.64</ele>
        <time>2018-11-04T08:06:19.000Z</time>
      </trkpt>
      <trkpt lat="39.558955" lon="-0.494859">
        <ele>107</ele>
        <time>2018-11-04T08:06:20.000Z</time>
      </trkpt>
      <trkpt lat="39.558986" lon="-0.49489">
        <ele>107.64</ele>
        <time>2018-11-04T08:06:21.000Z</time>
      </trkpt>
      <trkpt lat="39.559017" lon="-0.494906">
        <ele>108</ele>
        <time>2018-11-04T08:06:22.000Z</time>
      </trkpt>
      <trkpt lat="39.55905" lon="-0.494903">
        <ele>108.64</ele>
        <time>2018-11-04T08:06:23.000Z</time>
      </trkpt>
      <trkpt lat="39.55908" lon="-0.494916">
        <ele>109</ele>
        <time>2018-11-04T08:06:24.000Z</time>
      </trkpt>
      <trkpt lat="39.559103" lon="-0.494943">
        <ele>109</ele>
        <time>2018-11-04T08:06:25.000Z</time>
      </trkpt>
      <trkpt lat="39.55912" lon="-0.49498">
        <ele>109</ele>
        <time>2018-11-04T08:06:26.000Z</time>
      </trkpt>
      <trkpt lat="39.559134" lon="-0.495028">
        <ele>108.36</ele>
        <time>2018-11-04T08:06:27.000Z</time>
      </trkpt>
      <trkpt lat="39.559149" lon="-0.495071">
        <ele>108</ele>
        <time>2018-11-04T08:06:28.000Z</time>
      </trkpt>
      <trkpt lat="39.559168" lon="-0.495114">
        <ele>108</ele>
        <time>2018-11-04T08:06:29.000Z</time>
      </trkpt>
      <trkpt lat="39.559187" lon="-0.495155">
        <ele>108</ele>
        <time>2018-11-04T08:06:30.000Z</time>
      </trkpt>
      <trkpt lat="39.559205" lon="-0.495196">
        <ele>108</ele>
        <time>2018-11-04T08:06:31.000Z</time>
      </trkpt>
      <trkpt lat="39.559227" lon="-0.495234">
        <ele>108</ele>
        <time>2018-11-04T08:06:32.000Z</time>
      </trkpt>
      <trkpt lat="39.55925" lon="-0.495272">
        <ele>108</ele>
        <time>2018-11-04T08:06:33.000Z</time>
      </trkpt>
      <trkpt lat="39.559271" lon="-0.495313">
        <ele>108</ele>
        <time>2018-11-04T08:06:34.000Z</time>
      </trkpt>
      <trkpt lat="39.559291" lon="-0.495354">
        <ele>108</ele>
        <time>2018-11-04T08:06:35.000Z</time>
      </trkpt>
      <trkpt lat="39.559312" lon="-0.495394">
        <ele>108</ele>
        <time>2018-11-04T08:06:36.000Z</time>
      </trkpt>
      <trkpt lat="39.559337" lon="-0.495433">
        <ele>108</ele>
        <time>2018-11-04T08:06:37.000Z</time>
      </trkpt>
      <trkpt lat="39.55936" lon="-0.495477">
        <ele>108</ele>
        <time>2018-11-04T08:06:38.000Z</time>
      </trkpt>
      <trkpt lat="39.559381" lon="-0.495519">
        <ele>108</ele>
        <time>2018-11-04T08:06:39.000Z</time>
      </trkpt>
      <trkpt lat="39.559404" lon="-0.495557">
        <ele>108</ele>
        <time>2018-11-04T08:06:40.000Z</time>
      </trkpt>
      <trkpt lat="39.559425" lon="-0.495592">
        <ele>108</ele>
        <time>2018-11-04T08:06:41.000Z</time>
      </trkpt>
      <trkpt lat="39.559448" lon="-0.495625">
        <ele>108</ele>
        <time>2018-11-04T08:06:42.000Z</time>
      </trkpt>
      <trkpt lat="39.559474" lon="-0.495638">
        <ele>108</ele>
        <time>2018-11-04T08:06:43.000Z</time>
      </trkpt>
      <trkpt lat="39.559504" lon="-0.49564">
        <ele>108.48570958363</ele>
        <time>2018-11-04T08:06:44.000Z</time>
      </trkpt>
      <trkpt lat="39.559533" lon="-0.495653">
        <ele>109</ele>
        <time>2018-11-04T08:06:45.000Z</time>
      </trkpt>
      <trkpt lat="39.559562" lon="-0.495674">
        <ele>109</ele>
        <time>2018-11-04T08:06:46.000Z</time>
      </trkpt>
      <trkpt lat="39.559591" lon="-0.495701">
        <ele>109</ele>
        <time>2018-11-04T08:06:47.000Z</time>
      </trkpt>
      <trkpt lat="39.559611" lon="-0.495739">
        <ele>109</ele>
        <time>2018-11-04T08:06:48.000Z</time>
      </trkpt>
      <trkpt lat="39.559624" lon="-0.495779">
        <ele>109</ele>
        <time>2018-11-04T08:06:49.000Z</time>
      </trkpt>
      <trkpt lat="39.559637" lon="-0.495827">
        <ele>109</ele>
        <time>2018-11-04T08:06:50.000Z</time>
      </trkpt>
      <trkpt lat="39.559653" lon="-0.495867">
        <ele>109</ele>
        <time>2018-11-04T08:06:51.000Z</time>
      </trkpt>
      <trkpt lat="39.559678" lon="-0.495898">
        <ele>109</ele>
        <time>2018-11-04T08:06:52.000Z</time>
      </trkpt>
      <trkpt lat="39.559702" lon="-0.495928">
        <ele>109</ele>
        <time>2018-11-04T08:06:53.000Z</time>
      </trkpt>
      <trkpt lat="39.559724" lon="-0.495963">
        <ele>109</ele>
        <time>2018-11-04T08:06:54.000Z</time>
      </trkpt>
      <trkpt lat="39.559745" lon="-0.496002">
        <ele>109</ele>
        <time>2018-11-04T08:06:55.000Z</time>
      </trkpt>
      <trkpt lat="39.559771" lon="-0.49604">
        <ele>109.628864755018</ele>
        <time>2018-11-04T08:06:56.000Z</time>
      </trkpt>
      <trkpt lat="39.559801" lon="-0.496074">
        <ele>110</ele>
        <time>2018-11-04T08:06:57.000Z</time>
      </trkpt>
      <trkpt lat="39.559833" lon="-0.496116">
        <ele>110</ele>
        <time>2018-11-04T08:06:58.000Z</time>
      </trkpt>
      <trkpt lat="39.559864" lon="-0.496157">
        <ele>110</ele>
        <time>2018-11-04T08:06:59.000Z</time>
      </trkpt>
      <trkpt lat="39.559897" lon="-0.496195">
        <ele>110</ele>
        <time>2018-11-04T08:07:00.000Z</time>
      </trkpt>
      <trkpt lat="39.559928" lon="-0.496232">
        <ele>110</ele>
        <time>2018-11-04T08:07:01.000Z</time>
      </trkpt>
      <trkpt lat="39.55996" lon="-0.496267">
        <ele>110</ele>
        <time>2018-11-04T08:07:02.000Z</time>
      </trkpt>
      <trkpt lat="39.559994" lon="-0.496304">
        <ele>110</ele>
        <time>2018-11-04T08:07:03.000Z</time>
      </trkpt>
      <trkpt lat="39.560026" lon="-0.496344">
        <ele>110</ele>
        <time>2018-11-04T08:07:04.000Z</time>
      </trkpt>
      <trkpt lat="39.560056" lon="-0.496383">
        <ele>110</ele>
        <time>2018-11-04T08:07:05.000Z</time>
      </trkpt>
      <trkpt lat="39.560084" lon="-0.496424">
        <ele>110.64</ele>
        <time>2018-11-04T08:07:06.000Z</time>
      </trkpt>
      <trkpt lat="39.560112" lon="-0.496463">
        <ele>111</ele>
        <time>2018-11-04T08:07:07.000Z</time>
      </trkpt>
      <trkpt lat="39.560146" lon="-0.496497">
        <ele>111</ele>
        <time>2018-11-04T08:07:08.000Z</time>
      </trkpt>
      <trkpt lat="39.560177" lon="-0.496532">
        <ele>111</ele>
        <time>2018-11-04T08:07:09.000Z</time>
      </trkpt>
      <trkpt lat="39.560212" lon="-0.496567">
        <ele>111</ele>
        <time>2018-11-04T08:07:10.000Z</time>
      </trkpt>
      <trkpt lat="39.560246" lon="-0.496605">
        <ele>111</ele>
        <time>2018-11-04T08:07:11.000Z</time>
      </trkpt>
      <trkpt lat="39.560278" lon="-0.49664">
        <ele>111</ele>
        <time>2018-11-04T08:07:12.000Z</time>
      </trkpt>
      <trkpt lat="39.560308" lon="-0.496677">
        <ele>111</ele>
        <time>2018-11-04T08:07:13.000Z</time>
      </trkpt>
      <trkpt lat="39.560337" lon="-0.496708">
        <ele>111</ele>
        <time>2018-11-04T08:07:14.000Z</time>
      </trkpt>
      <trkpt lat="39.560362" lon="-0.496739">
        <ele>111</ele>
        <time>2018-11-04T08:07:15.000Z</time>
      </trkpt>
      <trkpt lat="39.560388" lon="-0.496771">
        <ele>111</ele>
        <time>2018-11-04T08:07:16.000Z</time>
      </trkpt>
      <trkpt lat="39.56042" lon="-0.496803">
        <ele>111</ele>
        <time>2018-11-04T08:07:17.000Z</time>
      </trkpt>
      <trkpt lat="39.560447" lon="-0.496844">
        <ele>111</ele>
        <time>2018-11-04T08:07:18.000Z</time>
      </trkpt>
      <trkpt lat="39.560482" lon="-0.496882">
        <ele>111</ele>
        <time>2018-11-04T08:07:19.000Z</time>
      </trkpt>
      <trkpt lat="39.560518" lon="-0.496923">
        <ele>111</ele>
        <time>2018-11-04T08:07:20.000Z</time>
      </trkpt>
      <trkpt lat="39.560556" lon="-0.496965">
        <ele>111</ele>
        <time>2018-11-04T08:07:21.000Z</time>
      </trkpt>
      <trkpt lat="39.56059" lon="-0.497005">
        <ele>111</ele>
        <time>2018-11-04T08:07:22.000Z</time>
      </trkpt>
      <trkpt lat="39.560624" lon="-0.497048">
        <ele>111</ele>
        <time>2018-11-04T08:07:23.000Z</time>
      </trkpt>
      <trkpt lat="39.560654" lon="-0.49709">
        <ele>111</ele>
        <time>2018-11-04T08:07:24.000Z</time>
      </trkpt>
      <trkpt lat="39.560683" lon="-0.497136">
        <ele>111</ele>
        <time>2018-11-04T08:07:25.000Z</time>
      </trkpt>
      <trkpt lat="39.56071" lon="-0.497179">
        <ele>111</ele>
        <time>2018-11-04T08:07:26.000Z</time>
      </trkpt>
      <trkpt lat="39.560736" lon="-0.49722">
        <ele>111</ele>
        <time>2018-11-04T08:07:27.000Z</time>
      </trkpt>
      <trkpt lat="39.560766" lon="-0.497252">
        <ele>111</ele>
        <time>2018-11-04T08:07:28.000Z</time>
      </trkpt>
      <trkpt lat="39.560796" lon="-0.497285">
        <ele>111</ele>
        <time>2018-11-04T08:07:29.000Z</time>
      </trkpt>
      <trkpt lat="39.56082" lon="-0.497321">
        <ele>111.64</ele>
        <time>2018-11-04T08:07:30.000Z</time>
      </trkpt>
      <trkpt lat="39.560846" lon="-0.497349">
        <ele>112</ele>
        <time>2018-11-04T08:07:31.000Z</time>
      </trkpt>
      <trkpt lat="39.56087" lon="-0.497375">
        <ele>112</ele>
        <time>2018-11-04T08:07:32.000Z</time>
      </trkpt>
      <trkpt lat="39.560892" lon="-0.497397">
        <ele>112</ele>
        <time>2018-11-04T08:07:33.000Z</time>
      </trkpt>
      <trkpt lat="39.56091" lon="-0.497421">
        <ele>112</ele>
        <time>2018-11-04T08:07:34.000Z</time>
      </trkpt>
      <trkpt lat="39.560924" lon="-0.497454">
        <ele>112</ele>
        <time>2018-11-04T08:07:35.000Z</time>
      </trkpt>
      <trkpt lat="39.560942" lon="-0.497479">
        <ele>112</ele>
        <time>2018-11-04T08:07:36.000Z</time>
      </trkpt>
      <trkpt lat="39.560958" lon="-0.49751">
        <ele>112</ele>
        <time>2018-11-04T08:07:37.000Z</time>
      </trkpt>
      <trkpt lat="39.560974" lon="-0.497541">
        <ele>112</ele>
        <time>2018-11-04T08:07:38.000Z</time>
      </trkpt>
      <trkpt lat="39.560996" lon="-0.497577">
        <ele>112</ele>
        <time>2018-11-04T08:07:39.000Z</time>
      </trkpt>
      <trkpt lat="39.561022" lon="-0.497614">
        <ele>111.36</ele>
        <time>2018-11-04T08:07:40.000Z</time>
      </trkpt>
      <trkpt lat="39.561058" lon="-0.497652">
        <ele>111</ele>
        <time>2018-11-04T08:07:41.000Z</time>
      </trkpt>
      <trkpt lat="39.561094" lon="-0.497698">
        <ele>111</ele>
        <time>2018-11-04T08:07:42.000Z</time>
      </trkpt>
      <trkpt lat="39.561128" lon="-0.497746">
        <ele>111.64</ele>
        <time>2018-11-04T08:07:43.000Z</time>
      </trkpt>
      <trkpt lat="39.561198" lon="-0.49784">
        <ele>112</ele>
        <time>2018-11-04T08:07:45.000Z</time>
      </trkpt>
      <trkpt lat="39.56128" lon="-0.497912">
        <ele>112</ele>
        <time>2018-11-04T08:07:47.000Z</time>
      </trkpt>
      <trkpt lat="39.561376" lon="-0.498009">
        <ele>112.64</ele>
        <time>2018-11-04T08:07:49.000Z</time>
      </trkpt>
      <trkpt lat="39.561516" lon="-0.498066">
        <ele>113</ele>
        <time>2018-11-04T08:07:51.000Z</time>
      </trkpt>
      <trkpt lat="39.561615" lon="-0.498103">
        <ele>114</ele>
        <time>2018-11-04T08:07:53.000Z</time>
      </trkpt>
      <trkpt lat="39.56165" lon="-0.498141">
        <ele>114</ele>
        <time>2018-11-04T08:07:54.000Z</time>
      </trkpt>
      <trkpt lat="39.561668" lon="-0.498181">
        <ele>114</ele>
        <time>2018-11-04T08:07:55.000Z</time>
      </trkpt>
      <trkpt lat="39.561672" lon="-0.49822">
        <ele>114</ele>
        <time>2018-11-04T08:07:56.000Z</time>
      </trkpt>
      <trkpt lat="39.561664" lon="-0.49826">
        <ele>114</ele>
        <time>2018-11-04T08:07:57.000Z</time>
      </trkpt>
      <trkpt lat="39.561654" lon="-0.498297">
        <ele>114</ele>
        <time>2018-11-04T08:07:58.000Z</time>
      </trkpt>
      <trkpt lat="39.561644" lon="-0.498331">
        <ele>114</ele>
        <time>2018-11-04T08:07:59.000Z</time>
      </trkpt>
      <trkpt lat="39.561627" lon="-0.498365">
        <ele>114</ele>
        <time>2018-11-04T08:08:00.000Z</time>
      </trkpt>
      <trkpt lat="39.561606" lon="-0.498399">
        <ele>114</ele>
        <time>2018-11-04T08:08:01.000Z</time>
      </trkpt>
      <trkpt lat="39.561583" lon="-0.498434">
        <ele>114.64</ele>
        <time>2018-11-04T08:08:02.000Z</time>
      </trkpt>
      <trkpt lat="39.561558" lon="-0.498464">
        <ele>115</ele>
        <time>2018-11-04T08:08:03.000Z</time>
      </trkpt>
      <trkpt lat="39.561531" lon="-0.498497">
        <ele>115.64</ele>
        <time>2018-11-04T08:08:04.000Z</time>
      </trkpt>
      <trkpt lat="39.561501" lon="-0.498527">
        <ele>116</ele>
        <time>2018-11-04T08:08:05.000Z</time>
      </trkpt>
      <trkpt lat="39.561472" lon="-0.498562">
        <ele>116.64</ele>
        <time>2018-11-04T08:08:06.000Z</time>
      </trkpt>
      <trkpt lat="39.561445" lon="-0.498597">
        <ele>117</ele>
        <time>2018-11-04T08:08:07.000Z</time>
      </trkpt>
      <trkpt lat="39.561422" lon="-0.498633">
        <ele>117</ele>
        <time>2018-11-04T08:08:08.000Z</time>
      </trkpt>
      <trkpt lat="39.561401" lon="-0.498665">
        <ele>117</ele>
        <time>2018-11-04T08:08:09.000Z</time>
      </trkpt>
      <trkpt lat="39.561383" lon="-0.498694">
        <ele>117</ele>
        <time>2018-11-04T08:08:10.000Z</time>
      </trkpt>
      <trkpt lat="39.561362" lon="-0.498723">
        <ele>117.162796928023</ele>
        <time>2018-11-04T08:08:11.000Z</time>
      </trkpt>
      <trkpt lat="39.561342" lon="-0.49875">
        <ele>118</ele>
        <time>2018-11-04T08:08:12.000Z</time>
      </trkpt>
      <trkpt lat="39.561321" lon="-0.498774">
        <ele>118</ele>
        <time>2018-11-04T08:08:13.000Z</time>
      </trkpt>
      <trkpt lat="39.561305" lon="-0.498799">
        <ele>118</ele>
        <time>2018-11-04T08:08:14.000Z</time>
      </trkpt>
      <trkpt lat="39.56129" lon="-0.498826">
        <ele>118</ele>
        <time>2018-11-04T08:08:15.000Z</time>
      </trkpt>
      <trkpt lat="39.56127" lon="-0.498848">
        <ele>118</ele>
        <time>2018-11-04T08:08:16.000Z</time>
      </trkpt>
      <trkpt lat="39.561251" lon="-0.498867">
        <ele>118.64</ele>
        <time>2018-11-04T08:08:17.000Z</time>
      </trkpt>
      <trkpt lat="39.561229" lon="-0.498884">
        <ele>119</ele>
        <time>2018-11-04T08:08:18.000Z</time>
      </trkpt>
      <trkpt lat="39.561213" lon="-0.498901">
        <ele>119</ele>
        <time>2018-11-04T08:08:19.000Z</time>
      </trkpt>
      <trkpt lat="39.561195" lon="-0.498919">
        <ele>119</ele>
        <time>2018-11-04T08:08:20.000Z</time>
      </trkpt>
      <trkpt lat="39.561182" lon="-0.498942">
        <ele>119</ele>
        <time>2018-11-04T08:08:21.000Z</time>
      </trkpt>
      <trkpt lat="39.561169" lon="-0.498968">
        <ele>119</ele>
        <time>2018-11-04T08:08:22.000Z</time>
      </trkpt>
      <trkpt lat="39.561158" lon="-0.498996">
        <ele>119</ele>
        <time>2018-11-04T08:08:23.000Z</time>
      </trkpt>
      <trkpt lat="39.561147" lon="-0.499027">
        <ele>119</ele>
        <time>2018-11-04T08:08:24.000Z</time>
      </trkpt>
      <trkpt lat="39.561141" lon="-0.499058">
        <ele>119</ele>
        <time>2018-11-04T08:08:25.000Z</time>
      </trkpt>
      <trkpt lat="39.56114" lon="-0.499089">
        <ele>119</ele>
        <time>2018-11-04T08:08:26.000Z</time>
      </trkpt>
      <trkpt lat="39.56115" lon="-0.499123">
        <ele>119</ele>
        <time>2018-11-04T08:08:27.000Z</time>
      </trkpt>
      <trkpt lat="39.561164" lon="-0.499158">
        <ele>119</ele>
        <time>2018-11-04T08:08:28.000Z</time>
      </trkpt>
      <trkpt lat="39.561177" lon="-0.49919">
        <ele>119</ele>
        <time>2018-11-04T08:08:29.000Z</time>
      </trkpt>
      <trkpt lat="39.561184" lon="-0.49923">
        <ele>119</ele>
        <time>2018-11-04T08:08:30.000Z</time>
      </trkpt>
      <trkpt lat="39.56119" lon="-0.499278">
        <ele>119</ele>
        <time>2018-11-04T08:08:31.000Z</time>
      </trkpt>
      <trkpt lat="39.561196" lon="-0.499322">
        <ele>119</ele>
        <time>2018-11-04T08:08:32.000Z</time>
      </trkpt>
      <trkpt lat="39.561199" lon="-0.49937">
        <ele>119</ele>
        <time>2018-11-04T08:08:33.000Z</time>
      </trkpt>
      <trkpt lat="39.561204" lon="-0.499417">
        <ele>119</ele>
        <time>2018-11-04T08:08:34.000Z</time>
      </trkpt>
      <trkpt lat="39.561211" lon="-0.499461">
        <ele>119</ele>
        <time>2018-11-04T08:08:35.000Z</time>
      </trkpt>
      <trkpt lat="39.561219" lon="-0.499505">
        <ele>118.36</ele>
        <time>2018-11-04T08:08:36.000Z</time>
      </trkpt>
      <trkpt lat="39.561222" lon="-0.499551">
        <ele>118.64</ele>
        <time>2018-11-04T08:08:37.000Z</time>
      </trkpt>
      <trkpt lat="39.561221" lon="-0.499597">
        <ele>118.36</ele>
        <time>2018-11-04T08:08:38.000Z</time>
      </trkpt>
      <trkpt lat="39.561226" lon="-0.499646">
        <ele>118</ele>
        <time>2018-11-04T08:08:39.000Z</time>
      </trkpt>
      <trkpt lat="39.561229" lon="-0.499686">
        <ele>118</ele>
        <time>2018-11-04T08:08:40.000Z</time>
      </trkpt>
      <trkpt lat="39.561223" lon="-0.499709">
        <ele>118</ele>
        <time>2018-11-04T08:08:42.000Z</time>
      </trkpt>
      <trkpt lat="39.561205" lon="-0.499706">
        <ele>118</ele>
        <time>2018-11-04T08:09:27.000Z</time>
      </trkpt>
      <trkpt lat="39.561196" lon="-0.499737">
        <ele>120</ele>
        <time>2018-11-04T08:09:36.000Z</time>
      </trkpt>
      <trkpt lat="39.561197" lon="-0.499762">
        <ele>120.64</ele>
        <time>2018-11-04T08:09:37.000Z</time>
      </trkpt>
      <trkpt lat="39.561198" lon="-0.499793">
        <ele>121</ele>
        <time>2018-11-04T08:09:38.000Z</time>
      </trkpt>
      <trkpt lat="39.5612" lon="-0.499829">
        <ele>121.496125261706</ele>
        <time>2018-11-04T08:09:39.000Z</time>
      </trkpt>
      <trkpt lat="39.561206" lon="-0.499872">
        <ele>122</ele>
        <time>2018-11-04T08:09:40.000Z</time>
      </trkpt>
      <trkpt lat="39.561214" lon="-0.499917">
        <ele>122.64</ele>
        <time>2018-11-04T08:09:41.000Z</time>
      </trkpt>
      <trkpt lat="39.561224" lon="-0.499966">
        <ele>123</ele>
        <time>2018-11-04T08:09:42.000Z</time>
      </trkpt>
      <trkpt lat="39.561236" lon="-0.500016">
        <ele>123</ele>
        <time>2018-11-04T08:09:43.000Z</time>
      </trkpt>
      <trkpt lat="39.561251" lon="-0.500069">
        <ele>122.36</ele>
        <time>2018-11-04T08:09:44.000Z</time>
      </trkpt>
      <trkpt lat="39.561265" lon="-0.500122">
        <ele>122.503935738115</ele>
        <time>2018-11-04T08:09:45.000Z</time>
      </trkpt>
      <trkpt lat="39.561278" lon="-0.500179">
        <ele>123</ele>
        <time>2018-11-04T08:09:46.000Z</time>
      </trkpt>
      <trkpt lat="39.561291" lon="-0.500237">
        <ele>123</ele>
        <time>2018-11-04T08:09:47.000Z</time>
      </trkpt>
      <trkpt lat="39.561302" lon="-0.500294">
        <ele>123</ele>
        <time>2018-11-04T08:09:48.000Z</time>
      </trkpt>
      <trkpt lat="39.561314" lon="-0.500351">
        <ele>123</ele>
        <time>2018-11-04T08:09:49.000Z</time>
      </trkpt>
      <trkpt lat="39.561324" lon="-0.500407">
        <ele>123</ele>
        <time>2018-11-04T08:09:50.000Z</time>
      </trkpt>
      <trkpt lat="39.561331" lon="-0.500462">
        <ele>123</ele>
        <time>2018-11-04T08:09:51.000Z</time>
      </trkpt>
      <trkpt lat="39.56134" lon="-0.500516">
        <ele>123</ele>
        <time>2018-11-04T08:09:52.000Z</time>
      </trkpt>
      <trkpt lat="39.561354" lon="-0.500563">
        <ele>123</ele>
        <time>2018-11-04T08:09:53.000Z</time>
      </trkpt>
      <trkpt lat="39.561369" lon="-0.500603">
        <ele>123.62744704347</ele>
        <time>2018-11-04T08:09:54.000Z</time>
      </trkpt>
      <trkpt lat="39.561387" lon="-0.500645">
        <ele>124</ele>
        <time>2018-11-04T08:09:55.000Z</time>
      </trkpt>
      <trkpt lat="39.561406" lon="-0.500683">
        <ele>124</ele>
        <time>2018-11-04T08:09:56.000Z</time>
      </trkpt>
      <trkpt lat="39.561419" lon="-0.500722">
        <ele>124</ele>
        <time>2018-11-04T08:09:57.000Z</time>
      </trkpt>
      <trkpt lat="39.561429" lon="-0.500768">
        <ele>124</ele>
        <time>2018-11-04T08:09:58.000Z</time>
      </trkpt>
      <trkpt lat="39.561441" lon="-0.500814">
        <ele>124</ele>
        <time>2018-11-04T08:09:59.000Z</time>
      </trkpt>
      <trkpt lat="39.561456" lon="-0.500863">
        <ele>124</ele>
        <time>2018-11-04T08:10:00.000Z</time>
      </trkpt>
      <trkpt lat="39.561464" lon="-0.500919">
        <ele>124</ele>
        <time>2018-11-04T08:10:01.000Z</time>
      </trkpt>
      <trkpt lat="39.561473" lon="-0.500973">
        <ele>124</ele>
        <time>2018-11-04T08:10:02.000Z</time>
      </trkpt>
      <trkpt lat="39.561481" lon="-0.501028">
        <ele>124</ele>
        <time>2018-11-04T08:10:03.000Z</time>
      </trkpt>
      <trkpt lat="39.561486" lon="-0.501081">
        <ele>124</ele>
        <time>2018-11-04T08:10:04.000Z</time>
      </trkpt>
      <trkpt lat="39.561498" lon="-0.501133">
        <ele>124</ele>
        <time>2018-11-04T08:10:05.000Z</time>
      </trkpt>
      <trkpt lat="39.56152" lon="-0.501183">
        <ele>123.36</ele>
        <time>2018-11-04T08:10:06.000Z</time>
      </trkpt>
      <trkpt lat="39.561536" lon="-0.501231">
        <ele>123</ele>
        <time>2018-11-04T08:10:07.000Z</time>
      </trkpt>
      <trkpt lat="39.56155" lon="-0.501272">
        <ele>123</ele>
        <time>2018-11-04T08:10:08.000Z</time>
      </trkpt>
      <trkpt lat="39.56157" lon="-0.501306">
        <ele>123</ele>
        <time>2018-11-04T08:10:09.000Z</time>
      </trkpt>
      <trkpt lat="39.561599" lon="-0.501324">
        <ele>123</ele>
        <time>2018-11-04T08:10:10.000Z</time>
      </trkpt>
      <trkpt lat="39.561635" lon="-0.501323">
        <ele>123</ele>
        <time>2018-11-04T08:10:11.000Z</time>
      </trkpt>
      <trkpt lat="39.561676" lon="-0.501317">
        <ele>123.64</ele>
        <time>2018-11-04T08:10:12.000Z</time>
      </trkpt>
      <trkpt lat="39.56172" lon="-0.501305">
        <ele>124</ele>
        <time>2018-11-04T08:10:13.000Z</time>
      </trkpt>
      <trkpt lat="39.561767" lon="-0.501294">
        <ele>124</ele>
        <time>2018-11-04T08:10:14.000Z</time>
      </trkpt>
      <trkpt lat="39.561817" lon="-0.50128">
        <ele>124.48854842492</ele>
        <time>2018-11-04T08:10:15.000Z</time>
      </trkpt>
      <trkpt lat="39.561869" lon="-0.501271">
        <ele>125</ele>
        <time>2018-11-04T08:10:16.000Z</time>
      </trkpt>
      <trkpt lat="39.561918" lon="-0.50126">
        <ele>125</ele>
        <time>2018-11-04T08:10:17.000Z</time>
      </trkpt>
      <trkpt lat="39.561969" lon="-0.501244">
        <ele>125</ele>
        <time>2018-11-04T08:10:18.000Z</time>
      </trkpt>
      <trkpt lat="39.56202" lon="-0.501229">
        <ele>125</ele>
        <time>2018-11-04T08:10:19.000Z</time>
      </trkpt>
      <trkpt lat="39.562069" lon="-0.501212">
        <ele>125</ele>
        <time>2018-11-04T08:10:20.000Z</time>
      </trkpt>
      <trkpt lat="39.562118" lon="-0.5012">
        <ele>125</ele>
        <time>2018-11-04T08:10:21.000Z</time>
      </trkpt>
      <trkpt lat="39.562168" lon="-0.501185">
        <ele>125</ele>
        <time>2018-11-04T08:10:22.000Z</time>
      </trkpt>
      <trkpt lat="39.562216" lon="-0.50117">
        <ele>125</ele>
        <time>2018-11-04T08:10:23.000Z</time>
      </trkpt>
      <trkpt lat="39.562264" lon="-0.501155">
        <ele>125.5</ele>
        <time>2018-11-04T08:10:24.000Z</time>
      </trkpt>
      <trkpt lat="39.562309" lon="-0.501135">
        <ele>126</ele>
        <time>2018-11-04T08:10:25.000Z</time>
      </trkpt>
      <trkpt lat="39.562355" lon="-0.501119">
        <ele>126</ele>
        <time>2018-11-04T08:10:26.000Z</time>
      </trkpt>
      <trkpt lat="39.562403" lon="-0.501109">
        <ele>126.64</ele>
        <time>2018-11-04T08:10:27.000Z</time>
      </trkpt>
      <trkpt lat="39.56245" lon="-0.501097">
        <ele>127</ele>
        <time>2018-11-04T08:10:28.000Z</time>
      </trkpt>
      <trkpt lat="39.562498" lon="-0.501087">
        <ele>127</ele>
        <time>2018-11-04T08:10:29.000Z</time>
      </trkpt>
      <trkpt lat="39.562542" lon="-0.501069">
        <ele>127</ele>
        <time>2018-11-04T08:10:30.000Z</time>
      </trkpt>
      <trkpt lat="39.562582" lon="-0.501042">
        <ele>127</ele>
        <time>2018-11-04T08:10:31.000Z</time>
      </trkpt>
      <trkpt lat="39.562622" lon="-0.501006">
        <ele>127</ele>
        <time>2018-11-04T08:10:32.000Z</time>
      </trkpt>
      <trkpt lat="39.562665" lon="-0.50097">
        <ele>126.36</ele>
        <time>2018-11-04T08:10:33.000Z</time>
      </trkpt>
      <trkpt lat="39.562715" lon="-0.500948">
        <ele>126</ele>
        <time>2018-11-04T08:10:34.000Z</time>
      </trkpt>
      <trkpt lat="39.562768" lon="-0.500941">
        <ele>126.64</ele>
        <time>2018-11-04T08:10:35.000Z</time>
      </trkpt>
      <trkpt lat="39.562818" lon="-0.500938">
        <ele>127</ele>
        <time>2018-11-04T08:10:36.000Z</time>
      </trkpt>
      <trkpt lat="39.562869" lon="-0.500938">
        <ele>127</ele>
        <time>2018-11-04T08:10:37.000Z</time>
      </trkpt>
      <trkpt lat="39.562921" lon="-0.500937">
        <ele>127</ele>
        <time>2018-11-04T08:10:38.000Z</time>
      </trkpt>
      <trkpt lat="39.562976" lon="-0.500926">
        <ele>127</ele>
        <time>2018-11-04T08:10:39.000Z</time>
      </trkpt>
      <trkpt lat="39.563029" lon="-0.500906">
        <ele>127.64</ele>
        <time>2018-11-04T08:10:40.000Z</time>
      </trkpt>
      <trkpt lat="39.563078" lon="-0.500873">
        <ele>128</ele>
        <time>2018-11-04T08:10:41.000Z</time>
      </trkpt>
      <trkpt lat="39.563129" lon="-0.500843">
        <ele>128</ele>
        <time>2018-11-04T08:10:42.000Z</time>
      </trkpt>
      <trkpt lat="39.56318" lon="-0.500811">
        <ele>128</ele>
        <time>2018-11-04T08:10:43.000Z</time>
      </trkpt>
      <trkpt lat="39.563234" lon="-0.500781">
        <ele>128</ele>
        <time>2018-11-04T08:10:44.000Z</time>
      </trkpt>
      <trkpt lat="39.563289" lon="-0.500747">
        <ele>128</ele>
        <time>2018-11-04T08:10:45.000Z</time>
      </trkpt>
      <trkpt lat="39.563341" lon="-0.500709">
        <ele>127.36</ele>
        <time>2018-11-04T08:10:46.000Z</time>
      </trkpt>
      <trkpt lat="39.563394" lon="-0.500665">
        <ele>127</ele>
        <time>2018-11-04T08:10:47.000Z</time>
      </trkpt>
      <trkpt lat="39.563447" lon="-0.500623">
        <ele>126.36</ele>
        <time>2018-11-04T08:10:48.000Z</time>
      </trkpt>
      <trkpt lat="39.563501" lon="-0.500582">
        <ele>125.36</ele>
        <time>2018-11-04T08:10:49.000Z</time>
      </trkpt>
      <trkpt lat="39.563551" lon="-0.500538">
        <ele>125</ele>
        <time>2018-11-04T08:10:50.000Z</time>
      </trkpt>
      <trkpt lat="39.5636" lon="-0.500494">
        <ele>125</ele>
        <time>2018-11-04T08:10:51.000Z</time>
      </trkpt>
      <trkpt lat="39.563648" lon="-0.500446">
        <ele>124.36</ele>
        <time>2018-11-04T08:10:52.000Z</time>
      </trkpt>
      <trkpt lat="39.563694" lon="-0.500396">
        <ele>124</ele>
        <time>2018-11-04T08:10:53.000Z</time>
      </trkpt>
      <trkpt lat="39.563738" lon="-0.500346">
        <ele>123.507039968271</ele>
        <time>2018-11-04T08:10:54.000Z</time>
      </trkpt>
      <trkpt lat="39.563782" lon="-0.500293">
        <ele>123</ele>
        <time>2018-11-04T08:10:55.000Z</time>
      </trkpt>
      <trkpt lat="39.563823" lon="-0.500236">
        <ele>123</ele>
        <time>2018-11-04T08:10:56.000Z</time>
      </trkpt>
      <trkpt lat="39.563864" lon="-0.500175">
        <ele>123</ele>
        <time>2018-11-04T08:10:57.000Z</time>
      </trkpt>
      <trkpt lat="39.563901" lon="-0.500111">
        <ele>122.36</ele>
        <time>2018-11-04T08:10:58.000Z</time>
      </trkpt>
      <trkpt lat="39.563938" lon="-0.500046">
        <ele>122</ele>
        <time>2018-11-04T08:10:59.000Z</time>
      </trkpt>
      <trkpt lat="39.563971" lon="-0.499976">
        <ele>122</ele>
        <time>2018-11-04T08:11:00.000Z</time>
      </trkpt>
      <trkpt lat="39.564002" lon="-0.499904">
        <ele>121.597485086822</ele>
        <time>2018-11-04T08:11:01.000Z</time>
      </trkpt>
      <trkpt lat="39.56403" lon="-0.499829">
        <ele>121</ele>
        <time>2018-11-04T08:11:02.000Z</time>
      </trkpt>
      <trkpt lat="39.564059" lon="-0.499752">
        <ele>121</ele>
        <time>2018-11-04T08:11:03.000Z</time>
      </trkpt>
      <trkpt lat="39.564086" lon="-0.499672">
        <ele>120.36</ele>
        <time>2018-11-04T08:11:04.000Z</time>
      </trkpt>
      <trkpt lat="39.56411" lon="-0.499589">
        <ele>119.36</ele>
        <time>2018-11-04T08:11:05.000Z</time>
      </trkpt>
      <trkpt lat="39.56413" lon="-0.499502">
        <ele>119</ele>
        <time>2018-11-04T08:11:06.000Z</time>
      </trkpt>
      <trkpt lat="39.564153" lon="-0.499415">
        <ele>118.36</ele>
        <time>2018-11-04T08:11:07.000Z</time>
      </trkpt>
      <trkpt lat="39.564174" lon="-0.499326">
        <ele>118</ele>
        <time>2018-11-04T08:11:08.000Z</time>
      </trkpt>
      <trkpt lat="39.564194" lon="-0.499235">
        <ele>117.507039968271</ele>
        <time>2018-11-04T08:11:09.000Z</time>
      </trkpt>
      <trkpt lat="39.564215" lon="-0.499143">
        <ele>117</ele>
        <time>2018-11-04T08:11:10.000Z</time>
      </trkpt>
      <trkpt lat="39.564237" lon="-0.49905">
        <ele>117</ele>
        <time>2018-11-04T08:11:11.000Z</time>
      </trkpt>
      <trkpt lat="39.564261" lon="-0.498958">
        <ele>116.5</ele>
        <time>2018-11-04T08:11:12.000Z</time>
      </trkpt>
      <trkpt lat="39.564283" lon="-0.498864">
        <ele>116</ele>
        <time>2018-11-04T08:11:13.000Z</time>
      </trkpt>
      <trkpt lat="39.564307" lon="-0.49877">
        <ele>116</ele>
        <time>2018-11-04T08:11:14.000Z</time>
      </trkpt>
      <trkpt lat="39.564331" lon="-0.498675">
        <ele>115.51145157508</ele>
        <time>2018-11-04T08:11:15.000Z</time>
      </trkpt>
      <trkpt lat="39.564353" lon="-0.498578">
        <ele>115</ele>
        <time>2018-11-04T08:11:16.000Z</time>
      </trkpt>
      <trkpt lat="39.564367" lon="-0.498478">
        <ele>114.36</ele>
        <time>2018-11-04T08:11:17.000Z</time>
      </trkpt>
      <trkpt lat="39.564374" lon="-0.498378">
        <ele>114</ele>
        <time>2018-11-04T08:11:18.000Z</time>
      </trkpt>
      <trkpt lat="39.564386" lon="-0.498279">
        <ele>113.36</ele>
        <time>2018-11-04T08:11:19.000Z</time>
      </trkpt>
      <trkpt lat="39.564409" lon="-0.498186">
        <ele>112.496064261885</ele>
        <time>2018-11-04T08:11:20.000Z</time>
      </trkpt>
      <trkpt lat="39.564444" lon="-0.498098">
        <ele>112</ele>
        <time>2018-11-04T08:11:21.000Z</time>
      </trkpt>
      <trkpt lat="39.564491" lon="-0.498015">
        <ele>112</ele>
        <time>2018-11-04T08:11:22.000Z</time>
      </trkpt>
      <trkpt lat="39.564548" lon="-0.497944">
        <ele>111.36</ele>
        <time>2018-11-04T08:11:23.000Z</time>
      </trkpt>
      <trkpt lat="39.564614" lon="-0.497886">
        <ele>111</ele>
        <time>2018-11-04T08:11:24.000Z</time>
      </trkpt>
      <trkpt lat="39.564679" lon="-0.497826">
        <ele>111</ele>
        <time>2018-11-04T08:11:25.000Z</time>
      </trkpt>
      <trkpt lat="39.564738" lon="-0.497752">
        <ele>111</ele>
        <time>2018-11-04T08:11:26.000Z</time>
      </trkpt>
      <trkpt lat="39.564783" lon="-0.49766">
        <ele>110.507694731349</ele>
        <time>2018-11-04T08:11:27.000Z</time>
      </trkpt>
      <trkpt lat="39.564812" lon="-0.497556">
        <ele>110</ele>
        <time>2018-11-04T08:11:28.000Z</time>
      </trkpt>
      <trkpt lat="39.564837" lon="-0.49745">
        <ele>109.366334626011</ele>
        <time>2018-11-04T08:11:29.000Z</time>
      </trkpt>
      <trkpt lat="39.564867" lon="-0.497345">
        <ele>109</ele>
        <time>2018-11-04T08:11:30.000Z</time>
      </trkpt>
      <trkpt lat="39.564906" lon="-0.497246">
        <ele>109</ele>
        <time>2018-11-04T08:11:31.000Z</time>
      </trkpt>
      <trkpt lat="39.564949" lon="-0.49715">
        <ele>109</ele>
        <time>2018-11-04T08:11:32.000Z</time>
      </trkpt>
      <trkpt lat="39.564991" lon="-0.497055">
        <ele>108.503874738294</ele>
        <time>2018-11-04T08:11:33.000Z</time>
      </trkpt>
      <trkpt lat="39.565029" lon="-0.496961">
        <ele>108</ele>
        <time>2018-11-04T08:11:34.000Z</time>
      </trkpt>
      <trkpt lat="39.565067" lon="-0.496868">
        <ele>108</ele>
        <time>2018-11-04T08:11:35.000Z</time>
      </trkpt>
      <trkpt lat="39.565102" lon="-0.496774">
        <ele>107.36</ele>
        <time>2018-11-04T08:11:36.000Z</time>
      </trkpt>
      <trkpt lat="39.565133" lon="-0.49668">
        <ele>107</ele>
        <time>2018-11-04T08:11:37.000Z</time>
      </trkpt>
      <trkpt lat="39.565161" lon="-0.496588">
        <ele>107</ele>
        <time>2018-11-04T08:11:38.000Z</time>
      </trkpt>
      <trkpt lat="39.565192" lon="-0.4965">
        <ele>107</ele>
        <time>2018-11-04T08:11:39.000Z</time>
      </trkpt>
      <trkpt lat="39.565227" lon="-0.496415">
        <ele>107</ele>
        <time>2018-11-04T08:11:40.000Z</time>
      </trkpt>
      <trkpt lat="39.565262" lon="-0.496331">
        <ele>107</ele>
        <time>2018-11-04T08:11:41.000Z</time>
      </trkpt>
      <trkpt lat="39.565297" lon="-0.49625">
        <ele>107</ele>
        <time>2018-11-04T08:11:42.000Z</time>
      </trkpt>
      <trkpt lat="39.56533" lon="-0.496168">
        <ele>107</ele>
        <time>2018-11-04T08:11:43.000Z</time>
      </trkpt>
      <trkpt lat="39.56536" lon="-0.496083">
        <ele>106.36</ele>
        <time>2018-11-04T08:11:44.000Z</time>
      </trkpt>
      <trkpt lat="39.565386" lon="-0.495996">
        <ele>106</ele>
        <time>2018-11-04T08:11:45.000Z</time>
      </trkpt>
      <trkpt lat="39.565406" lon="-0.495909">
        <ele>106</ele>
        <time>2018-11-04T08:11:46.000Z</time>
      </trkpt>
      <trkpt lat="39.565414" lon="-0.495819">
        <ele>106</ele>
        <time>2018-11-04T08:11:47.000Z</time>
      </trkpt>
      <trkpt lat="39.565414" lon="-0.495728">
        <ele>106</ele>
        <time>2018-11-04T08:11:48.000Z</time>
      </trkpt>
      <trkpt lat="39.565425" lon="-0.495637">
        <ele>106</ele>
        <time>2018-11-04T08:11:49.000Z</time>
      </trkpt>
      <trkpt lat="39.56545" lon="-0.495553">
        <ele>106</ele>
        <time>2018-11-04T08:11:50.000Z</time>
      </trkpt>
      <trkpt lat="39.565488" lon="-0.495479">
        <ele>106</ele>
        <time>2018-11-04T08:11:51.000Z</time>
      </trkpt>
      <trkpt lat="39.565539" lon="-0.495418">
        <ele>106</ele>
        <time>2018-11-04T08:11:52.000Z</time>
      </trkpt>
      <trkpt lat="39.565593" lon="-0.49536">
        <ele>106</ele>
        <time>2018-11-04T08:11:53.000Z</time>
      </trkpt>
      <trkpt lat="39.565644" lon="-0.495299">
        <ele>105.503874738294</ele>
        <time>2018-11-04T08:11:54.000Z</time>
      </trkpt>
      <trkpt lat="39.565691" lon="-0.495233">
        <ele>105</ele>
        <time>2018-11-04T08:11:55.000Z</time>
      </trkpt>
      <trkpt lat="39.565735" lon="-0.495163">
        <ele>105</ele>
        <time>2018-11-04T08:11:56.000Z</time>
      </trkpt>
      <trkpt lat="39.565774" lon="-0.495093">
        <ele>105</ele>
        <time>2018-11-04T08:11:57.000Z</time>
      </trkpt>
      <trkpt lat="39.565813" lon="-0.495021">
        <ele>104.496064261885</ele>
        <time>2018-11-04T08:11:58.000Z</time>
      </trkpt>
      <trkpt lat="39.56585" lon="-0.494951">
        <ele>104</ele>
        <time>2018-11-04T08:11:59.000Z</time>
      </trkpt>
      <trkpt lat="39.565886" lon="-0.49488">
        <ele>104</ele>
        <time>2018-11-04T08:12:00.000Z</time>
      </trkpt>
      <trkpt lat="39.565921" lon="-0.494807">
        <ele>104</ele>
        <time>2018-11-04T08:12:01.000Z</time>
      </trkpt>
      <trkpt lat="39.565955" lon="-0.494732">
        <ele>104</ele>
        <time>2018-11-04T08:12:02.000Z</time>
      </trkpt>
      <trkpt lat="39.56599" lon="-0.494658">
        <ele>104</ele>
        <time>2018-11-04T08:12:03.000Z</time>
      </trkpt>
      <trkpt lat="39.566025" lon="-0.494583">
        <ele>104</ele>
        <time>2018-11-04T08:12:04.000Z</time>
      </trkpt>
      <trkpt lat="39.566057" lon="-0.49451">
        <ele>104</ele>
        <time>2018-11-04T08:12:05.000Z</time>
      </trkpt>
      <trkpt lat="39.566089" lon="-0.494437">
        <ele>104</ele>
        <time>2018-11-04T08:12:06.000Z</time>
      </trkpt>
      <trkpt lat="39.56612" lon="-0.494364">
        <ele>104</ele>
        <time>2018-11-04T08:12:07.000Z</time>
      </trkpt>
      <trkpt lat="39.566151" lon="-0.494292">
        <ele>104</ele>
        <time>2018-11-04T08:12:08.000Z</time>
      </trkpt>
      <trkpt lat="39.566183" lon="-0.49422">
        <ele>104</ele>
        <time>2018-11-04T08:12:09.000Z</time>
      </trkpt>
      <trkpt lat="39.566213" lon="-0.49415">
        <ele>104</ele>
        <time>2018-11-04T08:12:10.000Z</time>
      </trkpt>
      <trkpt lat="39.566244" lon="-0.494081">
        <ele>104</ele>
        <time>2018-11-04T08:12:11.000Z</time>
      </trkpt>
      <trkpt lat="39.566273" lon="-0.494012">
        <ele>104</ele>
        <time>2018-11-04T08:12:12.000Z</time>
      </trkpt>
      <trkpt lat="39.566302" lon="-0.493943">
        <ele>104</ele>
        <time>2018-11-04T08:12:13.000Z</time>
      </trkpt>
      <trkpt lat="39.566332" lon="-0.493875">
        <ele>104</ele>
        <time>2018-11-04T08:12:14.000Z</time>
      </trkpt>
      <trkpt lat="39.56636" lon="-0.493806">
        <ele>104</ele>
        <time>2018-11-04T08:12:15.000Z</time>
      </trkpt>
      <trkpt lat="39.566387" lon="-0.493738">
        <ele>104</ele>
        <time>2018-11-04T08:12:16.000Z</time>
      </trkpt>
      <trkpt lat="39.566417" lon="-0.49367">
        <ele>104</ele>
        <time>2018-11-04T08:12:17.000Z</time>
      </trkpt>
      <trkpt lat="39.566447" lon="-0.493603">
        <ele>104</ele>
        <time>2018-11-04T08:12:18.000Z</time>
      </trkpt>
      <trkpt lat="39.566476" lon="-0.493537">
        <ele>104</ele>
        <time>2018-11-04T08:12:19.000Z</time>
      </trkpt>
      <trkpt lat="39.566504" lon="-0.493471">
        <ele>104.64</ele>
        <time>2018-11-04T08:12:20.000Z</time>
      </trkpt>
      <trkpt lat="39.566532" lon="-0.493406">
        <ele>105</ele>
        <time>2018-11-04T08:12:21.000Z</time>
      </trkpt>
      <trkpt lat="39.56656" lon="-0.493342">
        <ele>105</ele>
        <time>2018-11-04T08:12:22.000Z</time>
      </trkpt>
      <trkpt lat="39.566587" lon="-0.493279">
        <ele>105</ele>
        <time>2018-11-04T08:12:23.000Z</time>
      </trkpt>
      <trkpt lat="39.566615" lon="-0.493218">
        <ele>105</ele>
        <time>2018-11-04T08:12:24.000Z</time>
      </trkpt>
      <trkpt lat="39.566641" lon="-0.493158">
        <ele>105</ele>
        <time>2018-11-04T08:12:25.000Z</time>
      </trkpt>
      <trkpt lat="39.566668" lon="-0.493097">
        <ele>105</ele>
        <time>2018-11-04T08:12:26.000Z</time>
      </trkpt>
      <trkpt lat="39.566696" lon="-0.493038">
        <ele>105</ele>
        <time>2018-11-04T08:12:27.000Z</time>
      </trkpt>
      <trkpt lat="39.566724" lon="-0.492979">
        <ele>105</ele>
        <time>2018-11-04T08:12:28.000Z</time>
      </trkpt>
      <trkpt lat="39.566752" lon="-0.492918">
        <ele>105</ele>
        <time>2018-11-04T08:12:29.000Z</time>
      </trkpt>
      <trkpt lat="39.566777" lon="-0.492857">
        <ele>105</ele>
        <time>2018-11-04T08:12:30.000Z</time>
      </trkpt>
      <trkpt lat="39.566801" lon="-0.492796">
        <ele>105</ele>
        <time>2018-11-04T08:12:31.000Z</time>
      </trkpt>
      <trkpt lat="39.566827" lon="-0.492735">
        <ele>105</ele>
        <time>2018-11-04T08:12:32.000Z</time>
      </trkpt>
      <trkpt lat="39.566854" lon="-0.492674">
        <ele>105.64</ele>
        <time>2018-11-04T08:12:33.000Z</time>
      </trkpt>
      <trkpt lat="39.566881" lon="-0.492612">
        <ele>106</ele>
        <time>2018-11-04T08:12:34.000Z</time>
      </trkpt>
      <trkpt lat="39.566906" lon="-0.492551">
        <ele>106</ele>
        <time>2018-11-04T08:12:35.000Z</time>
      </trkpt>
      <trkpt lat="39.566931" lon="-0.492489">
        <ele>106</ele>
        <time>2018-11-04T08:12:36.000Z</time>
      </trkpt>
      <trkpt lat="39.566959" lon="-0.492427">
        <ele>106</ele>
        <time>2018-11-04T08:12:37.000Z</time>
      </trkpt>
      <trkpt lat="39.566987" lon="-0.492365">
        <ele>106</ele>
        <time>2018-11-04T08:12:38.000Z</time>
      </trkpt>
      <trkpt lat="39.567014" lon="-0.492307">
        <ele>106.64</ele>
        <time>2018-11-04T08:12:39.000Z</time>
      </trkpt>
      <trkpt lat="39.567044" lon="-0.492249">
        <ele>107</ele>
        <time>2018-11-04T08:12:40.000Z</time>
      </trkpt>
      <trkpt lat="39.56707" lon="-0.492188">
        <ele>107.64</ele>
        <time>2018-11-04T08:12:41.000Z</time>
      </trkpt>
      <trkpt lat="39.567096" lon="-0.492129">
        <ele>108</ele>
        <time>2018-11-04T08:12:42.000Z</time>
      </trkpt>
      <trkpt lat="39.567122" lon="-0.49207">
        <ele>108</ele>
        <time>2018-11-04T08:12:43.000Z</time>
      </trkpt>
      <trkpt lat="39.567148" lon="-0.49201">
        <ele>108</ele>
        <time>2018-11-04T08:12:44.000Z</time>
      </trkpt>
      <trkpt lat="39.567175" lon="-0.49195">
        <ele>108.49219</ele>
        <time>2018-11-04T08:12:45.000Z</time>
      </trkpt>
      <trkpt lat="39.567201" lon="-0.491891">
        <ele>109</ele>
        <time>2018-11-04T08:12:46.000Z</time>
      </trkpt>
      <trkpt lat="39.567228" lon="-0.491829">
        <ele>109</ele>
        <time>2018-11-04T08:12:47.000Z</time>
      </trkpt>
      <trkpt lat="39.567255" lon="-0.49177">
        <ele>109</ele>
        <time>2018-11-04T08:12:48.000Z</time>
      </trkpt>
      <trkpt lat="39.567283" lon="-0.491711">
        <ele>109</ele>
        <time>2018-11-04T08:12:49.000Z</time>
      </trkpt>
      <trkpt lat="39.567312" lon="-0.491652">
        <ele>109</ele>
        <time>2018-11-04T08:12:50.000Z</time>
      </trkpt>
      <trkpt lat="39.567341" lon="-0.491593">
        <ele>109.64</ele>
        <time>2018-11-04T08:12:51.000Z</time>
      </trkpt>
      <trkpt lat="39.567369" lon="-0.491533">
        <ele>110</ele>
        <time>2018-11-04T08:12:52.000Z</time>
      </trkpt>
      <trkpt lat="39.567396" lon="-0.491474">
        <ele>110</ele>
        <time>2018-11-04T08:12:53.000Z</time>
      </trkpt>
      <trkpt lat="39.567423" lon="-0.491414">
        <ele>110.496125261706</ele>
        <time>2018-11-04T08:12:54.000Z</time>
      </trkpt>
      <trkpt lat="39.567451" lon="-0.491355">
        <ele>111</ele>
        <time>2018-11-04T08:12:55.000Z</time>
      </trkpt>
      <trkpt lat="39.56748" lon="-0.491296">
        <ele>111</ele>
        <time>2018-11-04T08:12:56.000Z</time>
      </trkpt>
      <trkpt lat="39.56751" lon="-0.491238">
        <ele>111.64</ele>
        <time>2018-11-04T08:12:57.000Z</time>
      </trkpt>
      <trkpt lat="39.567538" lon="-0.491182">
        <ele>112</ele>
        <time>2018-11-04T08:12:58.000Z</time>
      </trkpt>
      <trkpt lat="39.567567" lon="-0.491126">
        <ele>112</ele>
        <time>2018-11-04T08:12:59.000Z</time>
      </trkpt>
      <trkpt lat="39.567595" lon="-0.491072">
        <ele>112</ele>
        <time>2018-11-04T08:13:00.000Z</time>
      </trkpt>
      <trkpt lat="39.567625" lon="-0.491018">
        <ele>112.64</ele>
        <time>2018-11-04T08:13:01.000Z</time>
      </trkpt>
      <trkpt lat="39.567654" lon="-0.490963">
        <ele>113</ele>
        <time>2018-11-04T08:13:02.000Z</time>
      </trkpt>
      <trkpt lat="39.567683" lon="-0.490907">
        <ele>113</ele>
        <time>2018-11-04T08:13:03.000Z</time>
      </trkpt>
      <trkpt lat="39.567712" lon="-0.490851">
        <ele>113.470588235294</ele>
        <time>2018-11-04T08:13:04.000Z</time>
      </trkpt>
      <trkpt lat="39.567741" lon="-0.490796">
        <ele>114</ele>
        <time>2018-11-04T08:13:05.000Z</time>
      </trkpt>
      <trkpt lat="39.56777" lon="-0.490741">
        <ele>114</ele>
        <time>2018-11-04T08:13:06.000Z</time>
      </trkpt>
      <trkpt lat="39.567799" lon="-0.490687">
        <ele>114.64</ele>
        <time>2018-11-04T08:13:07.000Z</time>
      </trkpt>
      <trkpt lat="39.567828" lon="-0.490632">
        <ele>115</ele>
        <time>2018-11-04T08:13:08.000Z</time>
      </trkpt>
      <trkpt lat="39.567857" lon="-0.490577">
        <ele>115</ele>
        <time>2018-11-04T08:13:09.000Z</time>
      </trkpt>
      <trkpt lat="39.567887" lon="-0.490523">
        <ele>115.64</ele>
        <time>2018-11-04T08:13:10.000Z</time>
      </trkpt>
      <trkpt lat="39.567917" lon="-0.49047">
        <ele>116</ele>
        <time>2018-11-04T08:13:11.000Z</time>
      </trkpt>
      <trkpt lat="39.567947" lon="-0.490417">
        <ele>116</ele>
        <time>2018-11-04T08:13:12.000Z</time>
      </trkpt>
      <trkpt lat="39.567978" lon="-0.490364">
        <ele>116</ele>
        <time>2018-11-04T08:13:13.000Z</time>
      </trkpt>
      <trkpt lat="39.56801" lon="-0.490312">
        <ele>116</ele>
        <time>2018-11-04T08:13:14.000Z</time>
      </trkpt>
      <trkpt lat="39.56804" lon="-0.49026">
        <ele>116</ele>
        <time>2018-11-04T08:13:15.000Z</time>
      </trkpt>
      <trkpt lat="39.568069" lon="-0.490208">
        <ele>116.64</ele>
        <time>2018-11-04T08:13:16.000Z</time>
      </trkpt>
      <trkpt lat="39.568098" lon="-0.490156">
        <ele>117</ele>
        <time>2018-11-04T08:13:17.000Z</time>
      </trkpt>
      <trkpt lat="39.568126" lon="-0.490106">
        <ele>117</ele>
        <time>2018-11-04T08:13:18.000Z</time>
      </trkpt>
      <trkpt lat="39.568155" lon="-0.490058">
        <ele>117</ele>
        <time>2018-11-04T08:13:19.000Z</time>
      </trkpt>
      <trkpt lat="39.568184" lon="-0.490011">
        <ele>117</ele>
        <time>2018-11-04T08:13:20.000Z</time>
      </trkpt>
      <trkpt lat="39.568213" lon="-0.489966">
        <ele>117.64</ele>
        <time>2018-11-04T08:13:21.000Z</time>
      </trkpt>
      <trkpt lat="39.568242" lon="-0.48992">
        <ele>118</ele>
        <time>2018-11-04T08:13:22.000Z</time>
      </trkpt>
      <trkpt lat="39.56827" lon="-0.489875">
        <ele>118</ele>
        <time>2018-11-04T08:13:23.000Z</time>
      </trkpt>
      <trkpt lat="39.5683" lon="-0.489833">
        <ele>118</ele>
        <time>2018-11-04T08:13:24.000Z</time>
      </trkpt>
      <trkpt lat="39.568329" lon="-0.489791">
        <ele>118</ele>
        <time>2018-11-04T08:13:25.000Z</time>
      </trkpt>
      <trkpt lat="39.568357" lon="-0.489747">
        <ele>118</ele>
        <time>2018-11-04T08:13:26.000Z</time>
      </trkpt>
      <trkpt lat="39.568384" lon="-0.489705">
        <ele>118</ele>
        <time>2018-11-04T08:13:27.000Z</time>
      </trkpt>
      <trkpt lat="39.568411" lon="-0.489664">
        <ele>118.64</ele>
        <time>2018-11-04T08:13:28.000Z</time>
      </trkpt>
      <trkpt lat="39.568438" lon="-0.489624">
        <ele>119</ele>
        <time>2018-11-04T08:13:29.000Z</time>
      </trkpt>
      <trkpt lat="39.568464" lon="-0.489582">
        <ele>119</ele>
        <time>2018-11-04T08:13:30.000Z</time>
      </trkpt>
      <trkpt lat="39.56849" lon="-0.48954">
        <ele>119</ele>
        <time>2018-11-04T08:13:31.000Z</time>
      </trkpt>
      <trkpt lat="39.568516" lon="-0.4895">
        <ele>119</ele>
        <time>2018-11-04T08:13:32.000Z</time>
      </trkpt>
      <trkpt lat="39.568543" lon="-0.48946">
        <ele>119</ele>
        <time>2018-11-04T08:13:33.000Z</time>
      </trkpt>
      <trkpt lat="39.568571" lon="-0.489421">
        <ele>119</ele>
        <time>2018-11-04T08:13:34.000Z</time>
      </trkpt>
      <trkpt lat="39.568599" lon="-0.489383">
        <ele>119</ele>
        <time>2018-11-04T08:13:35.000Z</time>
      </trkpt>
      <trkpt lat="39.568627" lon="-0.489343">
        <ele>119</ele>
        <time>2018-11-04T08:13:36.000Z</time>
      </trkpt>
      <trkpt lat="39.568653" lon="-0.489303">
        <ele>119.485718987712</ele>
        <time>2018-11-04T08:13:37.000Z</time>
      </trkpt>
      <trkpt lat="39.56868" lon="-0.489263">
        <ele>120</ele>
        <time>2018-11-04T08:13:38.000Z</time>
      </trkpt>
      <trkpt lat="39.56871" lon="-0.489225">
        <ele>120</ele>
        <time>2018-11-04T08:13:39.000Z</time>
      </trkpt>
      <trkpt lat="39.568739" lon="-0.489186">
        <ele>120</ele>
        <time>2018-11-04T08:13:40.000Z</time>
      </trkpt>
      <trkpt lat="39.568768" lon="-0.489148">
        <ele>120</ele>
        <time>2018-11-04T08:13:41.000Z</time>
      </trkpt>
      <trkpt lat="39.568796" lon="-0.48911">
        <ele>120.64</ele>
        <time>2018-11-04T08:13:42.000Z</time>
      </trkpt>
      <trkpt lat="39.568825" lon="-0.489072">
        <ele>121</ele>
        <time>2018-11-04T08:13:43.000Z</time>
      </trkpt>
      <trkpt lat="39.568854" lon="-0.489033">
        <ele>121</ele>
        <time>2018-11-04T08:13:44.000Z</time>
      </trkpt>
      <trkpt lat="39.56888" lon="-0.488993">
        <ele>121</ele>
        <time>2018-11-04T08:13:45.000Z</time>
      </trkpt>
      <trkpt lat="39.568907" lon="-0.488954">
        <ele>121</ele>
        <time>2018-11-04T08:13:46.000Z</time>
      </trkpt>
      <trkpt lat="39.568934" lon="-0.488917">
        <ele>121</ele>
        <time>2018-11-04T08:13:47.000Z</time>
      </trkpt>
      <trkpt lat="39.56896" lon="-0.48888">
        <ele>121</ele>
        <time>2018-11-04T08:13:48.000Z</time>
      </trkpt>
      <trkpt lat="39.568985" lon="-0.488842">
        <ele>121</ele>
        <time>2018-11-04T08:13:49.000Z</time>
      </trkpt>
      <trkpt lat="39.56901" lon="-0.488805">
        <ele>121</ele>
        <time>2018-11-04T08:13:50.000Z</time>
      </trkpt>
      <trkpt lat="39.569036" lon="-0.488769">
        <ele>121</ele>
        <time>2018-11-04T08:13:51.000Z</time>
      </trkpt>
      <trkpt lat="39.569062" lon="-0.488732">
        <ele>121</ele>
        <time>2018-11-04T08:13:52.000Z</time>
      </trkpt>
      <trkpt lat="39.569086" lon="-0.488691">
        <ele>121</ele>
        <time>2018-11-04T08:13:53.000Z</time>
      </trkpt>
      <trkpt lat="39.569112" lon="-0.488651">
        <ele>121.64</ele>
        <time>2018-11-04T08:13:54.000Z</time>
      </trkpt>
      <trkpt lat="39.569139" lon="-0.488612">
        <ele>122</ele>
        <time>2018-11-04T08:13:55.000Z</time>
      </trkpt>
      <trkpt lat="39.569166" lon="-0.48857">
        <ele>122</ele>
        <time>2018-11-04T08:13:56.000Z</time>
      </trkpt>
      <trkpt lat="39.569192" lon="-0.488526">
        <ele>122</ele>
        <time>2018-11-04T08:13:57.000Z</time>
      </trkpt>
      <trkpt lat="39.56921" lon="-0.488474">
        <ele>122</ele>
        <time>2018-11-04T08:13:58.000Z</time>
      </trkpt>
      <trkpt lat="39.56922" lon="-0.488419">
        <ele>122</ele>
        <time>2018-11-04T08:13:59.000Z</time>
      </trkpt>
      <trkpt lat="39.569224" lon="-0.488361">
        <ele>122</ele>
        <time>2018-11-04T08:14:00.000Z</time>
      </trkpt>
      <trkpt lat="39.569233" lon="-0.488301">
        <ele>122</ele>
        <time>2018-11-04T08:14:01.000Z</time>
      </trkpt>
      <trkpt lat="39.569252" lon="-0.488246">
        <ele>122</ele>
        <time>2018-11-04T08:14:02.000Z</time>
      </trkpt>
      <trkpt lat="39.569274" lon="-0.488197">
        <ele>122</ele>
        <time>2018-11-04T08:14:03.000Z</time>
      </trkpt>
      <trkpt lat="39.569304" lon="-0.488153">
        <ele>122</ele>
        <time>2018-11-04T08:14:04.000Z</time>
      </trkpt>
      <trkpt lat="39.569334" lon="-0.488117">
        <ele>122</ele>
        <time>2018-11-04T08:14:05.000Z</time>
      </trkpt>
      <trkpt lat="39.569368" lon="-0.488087">
        <ele>122</ele>
        <time>2018-11-04T08:14:06.000Z</time>
      </trkpt>
      <trkpt lat="39.569404" lon="-0.488064">
        <ele>122</ele>
        <time>2018-11-04T08:14:07.000Z</time>
      </trkpt>
      <trkpt lat="39.569441" lon="-0.488046">
        <ele>122</ele>
        <time>2018-11-04T08:14:08.000Z</time>
      </trkpt>
      <trkpt lat="39.56948" lon="-0.488038">
        <ele>122</ele>
        <time>2018-11-04T08:14:09.000Z</time>
      </trkpt>
      <trkpt lat="39.569518" lon="-0.488038">
        <ele>122</ele>
        <time>2018-11-04T08:14:10.000Z</time>
      </trkpt>
      <trkpt lat="39.569556" lon="-0.488039">
        <ele>122</ele>
        <time>2018-11-04T08:14:11.000Z</time>
      </trkpt>
      <trkpt lat="39.569594" lon="-0.488038">
        <ele>122</ele>
        <time>2018-11-04T08:14:12.000Z</time>
      </trkpt>
      <trkpt lat="39.569633" lon="-0.488032">
        <ele>122.496125261706</ele>
        <time>2018-11-04T08:14:13.000Z</time>
      </trkpt>
      <trkpt lat="39.569668" lon="-0.488015">
        <ele>123</ele>
        <time>2018-11-04T08:14:14.000Z</time>
      </trkpt>
      <trkpt lat="39.569704" lon="-0.487986">
        <ele>123</ele>
        <time>2018-11-04T08:14:15.000Z</time>
      </trkpt>
      <trkpt lat="39.569736" lon="-0.487952">
        <ele>123</ele>
        <time>2018-11-04T08:14:16.000Z</time>
      </trkpt>
      <trkpt lat="39.569762" lon="-0.487912">
        <ele>123</ele>
        <time>2018-11-04T08:14:17.000Z</time>
      </trkpt>
      <trkpt lat="39.569792" lon="-0.487873">
        <ele>122.36</ele>
        <time>2018-11-04T08:14:18.000Z</time>
      </trkpt>
      <trkpt lat="39.569819" lon="-0.487834">
        <ele>122</ele>
        <time>2018-11-04T08:14:19.000Z</time>
      </trkpt>
      <trkpt lat="39.569846" lon="-0.487793">
        <ele>122.64</ele>
        <time>2018-11-04T08:14:20.000Z</time>
      </trkpt>
      <trkpt lat="39.569871" lon="-0.487749">
        <ele>123</ele>
        <time>2018-11-04T08:14:21.000Z</time>
      </trkpt>
      <trkpt lat="39.569897" lon="-0.487705">
        <ele>123</ele>
        <time>2018-11-04T08:14:22.000Z</time>
      </trkpt>
      <trkpt lat="39.569922" lon="-0.48766">
        <ele>123</ele>
        <time>2018-11-04T08:14:23.000Z</time>
      </trkpt>
      <trkpt lat="39.569948" lon="-0.487619">
        <ele>123</ele>
        <time>2018-11-04T08:14:24.000Z</time>
      </trkpt>
      <trkpt lat="39.569972" lon="-0.487577">
        <ele>123.496125261706</ele>
        <time>2018-11-04T08:14:25.000Z</time>
      </trkpt>
      <trkpt lat="39.569998" lon="-0.487535">
        <ele>124</ele>
        <time>2018-11-04T08:14:26.000Z</time>
      </trkpt>
      <trkpt lat="39.570022" lon="-0.487493">
        <ele>124.64</ele>
        <time>2018-11-04T08:14:27.000Z</time>
      </trkpt>
      <trkpt lat="39.570046" lon="-0.487451">
        <ele>125</ele>
        <time>2018-11-04T08:14:28.000Z</time>
      </trkpt>
      <trkpt lat="39.570069" lon="-0.487409">
        <ele>125.64</ele>
        <time>2018-11-04T08:14:29.000Z</time>
      </trkpt>
      <trkpt lat="39.570094" lon="-0.487366">
        <ele>126</ele>
        <time>2018-11-04T08:14:30.000Z</time>
      </trkpt>
      <trkpt lat="39.570116" lon="-0.487326">
        <ele>126</ele>
        <time>2018-11-04T08:14:31.000Z</time>
      </trkpt>
      <trkpt lat="39.57014" lon="-0.487286">
        <ele>126.64</ele>
        <time>2018-11-04T08:14:32.000Z</time>
      </trkpt>
      <trkpt lat="39.570164" lon="-0.487241">
        <ele>127</ele>
        <time>2018-11-04T08:14:33.000Z</time>
      </trkpt>
      <trkpt lat="39.570188" lon="-0.487197">
        <ele>127.64</ele>
        <time>2018-11-04T08:14:34.000Z</time>
      </trkpt>
      <trkpt lat="39.570214" lon="-0.487155">
        <ele>128</ele>
        <time>2018-11-04T08:14:35.000Z</time>
      </trkpt>
      <trkpt lat="39.570238" lon="-0.487112">
        <ele>128</ele>
        <time>2018-11-04T08:14:36.000Z</time>
      </trkpt>
      <trkpt lat="39.570262" lon="-0.48707">
        <ele>128.503935738115</ele>
        <time>2018-11-04T08:14:37.000Z</time>
      </trkpt>
      <trkpt lat="39.57029" lon="-0.487027">
        <ele>129</ele>
        <time>2018-11-04T08:14:38.000Z</time>
      </trkpt>
      <trkpt lat="39.570314" lon="-0.486984">
        <ele>129</ele>
        <time>2018-11-04T08:14:39.000Z</time>
      </trkpt>
      <trkpt lat="39.570336" lon="-0.48694">
        <ele>129</ele>
        <time>2018-11-04T08:14:40.000Z</time>
      </trkpt>
      <trkpt lat="39.570356" lon="-0.486897">
        <ele>129.64</ele>
        <time>2018-11-04T08:14:41.000Z</time>
      </trkpt>
      <trkpt lat="39.570378" lon="-0.486854">
        <ele>130</ele>
        <time>2018-11-04T08:14:42.000Z</time>
      </trkpt>
      <trkpt lat="39.570401" lon="-0.486811">
        <ele>130</ele>
        <time>2018-11-04T08:14:43.000Z</time>
      </trkpt>
      <trkpt lat="39.570424" lon="-0.486768">
        <ele>130</ele>
        <time>2018-11-04T08:14:44.000Z</time>
      </trkpt>
      <trkpt lat="39.570446" lon="-0.486724">
        <ele>130</ele>
        <time>2018-11-04T08:14:45.000Z</time>
      </trkpt>
      <trkpt lat="39.570466" lon="-0.486682">
        <ele>130.632655460209</ele>
        <time>2018-11-04T08:14:46.000Z</time>
      </trkpt>
      <trkpt lat="39.570486" lon="-0.486639">
        <ele>131</ele>
        <time>2018-11-04T08:14:47.000Z</time>
      </trkpt>
      <trkpt lat="39.570505" lon="-0.486596">
        <ele>131</ele>
        <time>2018-11-04T08:14:48.000Z</time>
      </trkpt>
      <trkpt lat="39.570525" lon="-0.486552">
        <ele>131</ele>
        <time>2018-11-04T08:14:49.000Z</time>
      </trkpt>
      <trkpt lat="39.570548" lon="-0.486507">
        <ele>131</ele>
        <time>2018-11-04T08:14:50.000Z</time>
      </trkpt>
      <trkpt lat="39.570568" lon="-0.486466">
        <ele>131</ele>
        <time>2018-11-04T08:14:51.000Z</time>
      </trkpt>
      <trkpt lat="39.57059" lon="-0.486425">
        <ele>131</ele>
        <time>2018-11-04T08:14:52.000Z</time>
      </trkpt>
      <trkpt lat="39.570612" lon="-0.486384">
        <ele>131.64</ele>
        <time>2018-11-04T08:14:53.000Z</time>
      </trkpt>
      <trkpt lat="39.570634" lon="-0.486343">
        <ele>132</ele>
        <time>2018-11-04T08:14:54.000Z</time>
      </trkpt>
      <trkpt lat="39.570654" lon="-0.486299">
        <ele>132</ele>
        <time>2018-11-04T08:14:55.000Z</time>
      </trkpt>
      <trkpt lat="39.570672" lon="-0.486254">
        <ele>132</ele>
        <time>2018-11-04T08:14:56.000Z</time>
      </trkpt>
      <trkpt lat="39.570688" lon="-0.486207">
        <ele>132</ele>
        <time>2018-11-04T08:14:57.000Z</time>
      </trkpt>
      <trkpt lat="39.570708" lon="-0.486163">
        <ele>132</ele>
        <time>2018-11-04T08:14:58.000Z</time>
      </trkpt>
      <trkpt lat="39.570726" lon="-0.486119">
        <ele>132</ele>
        <time>2018-11-04T08:14:59.000Z</time>
      </trkpt>
      <trkpt lat="39.570745" lon="-0.486074">
        <ele>132.64</ele>
        <time>2018-11-04T08:15:00.000Z</time>
      </trkpt>
      <trkpt lat="39.570765" lon="-0.48603">
        <ele>133</ele>
        <time>2018-11-04T08:15:01.000Z</time>
      </trkpt>
      <trkpt lat="39.570785" lon="-0.485987">
        <ele>133</ele>
        <time>2018-11-04T08:15:02.000Z</time>
      </trkpt>
      <trkpt lat="39.570806" lon="-0.485941">
        <ele>133</ele>
        <time>2018-11-04T08:15:03.000Z</time>
      </trkpt>
      <trkpt lat="39.570825" lon="-0.485896">
        <ele>133</ele>
        <time>2018-11-04T08:15:04.000Z</time>
      </trkpt>
      <trkpt lat="39.570846" lon="-0.485851">
        <ele>133</ele>
        <time>2018-11-04T08:15:05.000Z</time>
      </trkpt>
      <trkpt lat="39.570867" lon="-0.485804">
        <ele>133</ele>
        <time>2018-11-04T08:15:06.000Z</time>
      </trkpt>
      <trkpt lat="39.570888" lon="-0.485756">
        <ele>133</ele>
        <time>2018-11-04T08:15:07.000Z</time>
      </trkpt>
      <trkpt lat="39.570909" lon="-0.485709">
        <ele>133</ele>
        <time>2018-11-04T08:15:08.000Z</time>
      </trkpt>
      <trkpt lat="39.57093" lon="-0.485663">
        <ele>133</ele>
        <time>2018-11-04T08:15:09.000Z</time>
      </trkpt>
      <trkpt lat="39.57095" lon="-0.485617">
        <ele>133</ele>
        <time>2018-11-04T08:15:10.000Z</time>
      </trkpt>
      <trkpt lat="39.57097" lon="-0.48557">
        <ele>133</ele>
        <time>2018-11-04T08:15:11.000Z</time>
      </trkpt>
      <trkpt lat="39.570991" lon="-0.485522">
        <ele>133</ele>
        <time>2018-11-04T08:15:12.000Z</time>
      </trkpt>
      <trkpt lat="39.571012" lon="-0.485474">
        <ele>133.64</ele>
        <time>2018-11-04T08:15:13.000Z</time>
      </trkpt>
      <trkpt lat="39.571033" lon="-0.485426">
        <ele>134</ele>
        <time>2018-11-04T08:15:14.000Z</time>
      </trkpt>
      <trkpt lat="39.571055" lon="-0.485377">
        <ele>134.478258449894</ele>
        <time>2018-11-04T08:15:15.000Z</time>
      </trkpt>
      <trkpt lat="39.57108" lon="-0.485328">
        <ele>135</ele>
        <time>2018-11-04T08:15:16.000Z</time>
      </trkpt>
      <trkpt lat="39.571101" lon="-0.485278">
        <ele>135</ele>
        <time>2018-11-04T08:15:17.000Z</time>
      </trkpt>
      <trkpt lat="39.571122" lon="-0.485229">
        <ele>135</ele>
        <time>2018-11-04T08:15:18.000Z</time>
      </trkpt>
      <trkpt lat="39.571143" lon="-0.485179">
        <ele>135</ele>
        <time>2018-11-04T08:15:19.000Z</time>
      </trkpt>
      <trkpt lat="39.571167" lon="-0.48513">
        <ele>135.64</ele>
        <time>2018-11-04T08:15:20.000Z</time>
      </trkpt>
      <trkpt lat="39.571193" lon="-0.485082">
        <ele>136</ele>
        <time>2018-11-04T08:15:21.000Z</time>
      </trkpt>
      <trkpt lat="39.571218" lon="-0.485032">
        <ele>136</ele>
        <time>2018-11-04T08:15:22.000Z</time>
      </trkpt>
      <trkpt lat="39.571242" lon="-0.484984">
        <ele>136</ele>
        <time>2018-11-04T08:15:23.000Z</time>
      </trkpt>
      <trkpt lat="39.571268" lon="-0.484937">
        <ele>136</ele>
        <time>2018-11-04T08:15:24.000Z</time>
      </trkpt>
      <trkpt lat="39.571295" lon="-0.484888">
        <ele>136</ele>
        <time>2018-11-04T08:15:25.000Z</time>
      </trkpt>
      <trkpt lat="39.571321" lon="-0.484839">
        <ele>136</ele>
        <time>2018-11-04T08:15:26.000Z</time>
      </trkpt>
      <trkpt lat="39.57135" lon="-0.484792">
        <ele>136</ele>
        <time>2018-11-04T08:15:27.000Z</time>
      </trkpt>
      <trkpt lat="39.571376" lon="-0.484744">
        <ele>136</ele>
        <time>2018-11-04T08:15:28.000Z</time>
      </trkpt>
      <trkpt lat="39.571402" lon="-0.484695">
        <ele>136</ele>
        <time>2018-11-04T08:15:29.000Z</time>
      </trkpt>
      <trkpt lat="39.571426" lon="-0.484645">
        <ele>136</ele>
        <time>2018-11-04T08:15:30.000Z</time>
      </trkpt>
      <trkpt lat="39.571452" lon="-0.484596">
        <ele>136</ele>
        <time>2018-11-04T08:15:31.000Z</time>
      </trkpt>
      <trkpt lat="39.571479" lon="-0.484547">
        <ele>136</ele>
        <time>2018-11-04T08:15:32.000Z</time>
      </trkpt>
      <trkpt lat="39.571505" lon="-0.4845">
        <ele>136</ele>
        <time>2018-11-04T08:15:33.000Z</time>
      </trkpt>
      <trkpt lat="39.571533" lon="-0.484452">
        <ele>136</ele>
        <time>2018-11-04T08:15:34.000Z</time>
      </trkpt>
      <trkpt lat="39.57156" lon="-0.484402">
        <ele>136</ele>
        <time>2018-11-04T08:15:35.000Z</time>
      </trkpt>
      <trkpt lat="39.571586" lon="-0.484352">
        <ele>136</ele>
        <time>2018-11-04T08:15:36.000Z</time>
      </trkpt>
      <trkpt lat="39.571612" lon="-0.484302">
        <ele>136</ele>
        <time>2018-11-04T08:15:37.000Z</time>
      </trkpt>
      <trkpt lat="39.571637" lon="-0.484251">
        <ele>136</ele>
        <time>2018-11-04T08:15:38.000Z</time>
      </trkpt>
      <trkpt lat="39.57166" lon="-0.484197">
        <ele>136</ele>
        <time>2018-11-04T08:15:39.000Z</time>
      </trkpt>
      <trkpt lat="39.571683" lon="-0.484142">
        <ele>136</ele>
        <time>2018-11-04T08:15:40.000Z</time>
      </trkpt>
      <trkpt lat="39.571705" lon="-0.484087">
        <ele>136</ele>
        <time>2018-11-04T08:15:41.000Z</time>
      </trkpt>
      <trkpt lat="39.571718" lon="-0.484026">
        <ele>136</ele>
        <time>2018-11-04T08:15:42.000Z</time>
      </trkpt>
      <trkpt lat="39.57172" lon="-0.483961">
        <ele>136</ele>
        <time>2018-11-04T08:15:43.000Z</time>
      </trkpt>
      <trkpt lat="39.571719" lon="-0.483895">
        <ele>136</ele>
        <time>2018-11-04T08:15:44.000Z</time>
      </trkpt>
      <trkpt lat="39.571723" lon="-0.483826">
        <ele>136</ele>
        <time>2018-11-04T08:15:45.000Z</time>
      </trkpt>
      <trkpt lat="39.571739" lon="-0.483755">
        <ele>136</ele>
        <time>2018-11-04T08:15:46.000Z</time>
      </trkpt>
      <trkpt lat="39.571762" lon="-0.483689">
        <ele>135.923069349175</ele>
        <time>2018-11-04T08:15:47.000Z</time>
      </trkpt>
      <trkpt lat="39.571794" lon="-0.483632">
        <ele>135</ele>
        <time>2018-11-04T08:15:48.000Z</time>
      </trkpt>
      <trkpt lat="39.571837" lon="-0.483587">
        <ele>135</ele>
        <time>2018-11-04T08:15:49.000Z</time>
      </trkpt>
      <trkpt lat="39.571885" lon="-0.483557">
        <ele>135</ele>
        <time>2018-11-04T08:15:50.000Z</time>
      </trkpt>
      <trkpt lat="39.571936" lon="-0.483542">
        <ele>135</ele>
        <time>2018-11-04T08:15:51.000Z</time>
      </trkpt>
      <trkpt lat="39.571988" lon="-0.483542">
        <ele>135.64</ele>
        <time>2018-11-04T08:15:52.000Z</time>
      </trkpt>
      <trkpt lat="39.572037" lon="-0.483547">
        <ele>136</ele>
        <time>2018-11-04T08:15:53.000Z</time>
      </trkpt>
      <trkpt lat="39.572088" lon="-0.483547">
        <ele>136</ele>
        <time>2018-11-04T08:15:54.000Z</time>
      </trkpt>
      <trkpt lat="39.57214" lon="-0.483539">
        <ele>136</ele>
        <time>2018-11-04T08:15:55.000Z</time>
      </trkpt>
      <trkpt lat="39.572192" lon="-0.483531">
        <ele>136</ele>
        <time>2018-11-04T08:15:56.000Z</time>
      </trkpt>
      <trkpt lat="39.572246" lon="-0.483519">
        <ele>136</ele>
        <time>2018-11-04T08:15:57.000Z</time>
      </trkpt>
      <trkpt lat="39.572301" lon="-0.483506">
        <ele>136</ele>
        <time>2018-11-04T08:15:58.000Z</time>
      </trkpt>
      <trkpt lat="39.572358" lon="-0.483493">
        <ele>136</ele>
        <time>2018-11-04T08:15:59.000Z</time>
      </trkpt>
      <trkpt lat="39.572416" lon="-0.483481">
        <ele>136</ele>
        <time>2018-11-04T08:16:00.000Z</time>
      </trkpt>
      <trkpt lat="39.572476" lon="-0.483461">
        <ele>136</ele>
        <time>2018-11-04T08:16:01.000Z</time>
      </trkpt>
      <trkpt lat="39.572537" lon="-0.483441">
        <ele>136</ele>
        <time>2018-11-04T08:16:02.000Z</time>
      </trkpt>
      <trkpt lat="39.572598" lon="-0.483421">
        <ele>136</ele>
        <time>2018-11-04T08:16:03.000Z</time>
      </trkpt>
      <trkpt lat="39.57266" lon="-0.483401">
        <ele>135.507689884012</ele>
        <time>2018-11-04T08:16:04.000Z</time>
      </trkpt>
      <trkpt lat="39.572723" lon="-0.483382">
        <ele>135</ele>
        <time>2018-11-04T08:16:05.000Z</time>
      </trkpt>
      <trkpt lat="39.572788" lon="-0.483363">
        <ele>135</ele>
        <time>2018-11-04T08:16:06.000Z</time>
      </trkpt>
      <trkpt lat="39.572855" lon="-0.483347">
        <ele>135</ele>
        <time>2018-11-04T08:16:07.000Z</time>
      </trkpt>
      <trkpt lat="39.572922" lon="-0.483336">
        <ele>134.36</ele>
        <time>2018-11-04T08:16:08.000Z</time>
      </trkpt>
      <trkpt lat="39.572991" lon="-0.483324">
        <ele>134</ele>
        <time>2018-11-04T08:16:09.000Z</time>
      </trkpt>
      <trkpt lat="39.57306" lon="-0.483316">
        <ele>134</ele>
        <time>2018-11-04T08:16:10.000Z</time>
      </trkpt>
      <trkpt lat="39.573129" lon="-0.483306">
        <ele>134</ele>
        <time>2018-11-04T08:16:11.000Z</time>
      </trkpt>
      <trkpt lat="39.5732" lon="-0.4833">
        <ele>134</ele>
        <time>2018-11-04T08:16:12.000Z</time>
      </trkpt>
      <trkpt lat="39.573272" lon="-0.483293">
        <ele>134</ele>
        <time>2018-11-04T08:16:13.000Z</time>
      </trkpt>
      <trkpt lat="39.573344" lon="-0.483289">
        <ele>134</ele>
        <time>2018-11-04T08:16:14.000Z</time>
      </trkpt>
      <trkpt lat="39.573417" lon="-0.483286">
        <ele>133.36</ele>
        <time>2018-11-04T08:16:15.000Z</time>
      </trkpt>
      <trkpt lat="39.57349" lon="-0.483282">
        <ele>133</ele>
        <time>2018-11-04T08:16:16.000Z</time>
      </trkpt>
      <trkpt lat="39.573567" lon="-0.483271">
        <ele>133</ele>
        <time>2018-11-04T08:16:17.000Z</time>
      </trkpt>
      <trkpt lat="39.573642" lon="-0.483259">
        <ele>132.503874738294</ele>
        <time>2018-11-04T08:16:18.000Z</time>
      </trkpt>
      <trkpt lat="39.573716" lon="-0.483243">
        <ele>132</ele>
        <time>2018-11-04T08:16:19.000Z</time>
      </trkpt>
      <trkpt lat="39.573791" lon="-0.483228">
        <ele>132</ele>
        <time>2018-11-04T08:16:20.000Z</time>
      </trkpt>
      <trkpt lat="39.573865" lon="-0.483207">
        <ele>132</ele>
        <time>2018-11-04T08:16:21.000Z</time>
      </trkpt>
      <trkpt lat="39.573939" lon="-0.483181">
        <ele>131.36</ele>
        <time>2018-11-04T08:16:22.000Z</time>
      </trkpt>
      <trkpt lat="39.574012" lon="-0.483148">
        <ele>131</ele>
        <time>2018-11-04T08:16:23.000Z</time>
      </trkpt>
      <trkpt lat="39.574081" lon="-0.483097">
        <ele>131</ele>
        <time>2018-11-04T08:16:24.000Z</time>
      </trkpt>
      <trkpt lat="39.574144" lon="-0.483032">
        <ele>131</ele>
        <time>2018-11-04T08:16:25.000Z</time>
      </trkpt>
      <trkpt lat="39.57421" lon="-0.482974">
        <ele>131</ele>
        <time>2018-11-04T08:16:26.000Z</time>
      </trkpt>
      <trkpt lat="39.574286" lon="-0.482937">
        <ele>131</ele>
        <time>2018-11-04T08:16:27.000Z</time>
      </trkpt>
      <trkpt lat="39.574364" lon="-0.482913">
        <ele>131</ele>
        <time>2018-11-04T08:16:28.000Z</time>
      </trkpt>
      <trkpt lat="39.574438" lon="-0.482883">
        <ele>131</ele>
        <time>2018-11-04T08:16:29.000Z</time>
      </trkpt>
      <trkpt lat="39.574507" lon="-0.482837">
        <ele>131</ele>
        <time>2018-11-04T08:16:30.000Z</time>
      </trkpt>
      <trkpt lat="39.574573" lon="-0.482781">
        <ele>131</ele>
        <time>2018-11-04T08:16:31.000Z</time>
      </trkpt>
      <trkpt lat="39.574638" lon="-0.482721">
        <ele>131</ele>
        <time>2018-11-04T08:16:32.000Z</time>
      </trkpt>
      <trkpt lat="39.574696" lon="-0.482654">
        <ele>131</ele>
        <time>2018-11-04T08:16:33.000Z</time>
      </trkpt>
      <trkpt lat="39.574757" lon="-0.482587">
        <ele>131</ele>
        <time>2018-11-04T08:16:34.000Z</time>
      </trkpt>
      <trkpt lat="39.574816" lon="-0.482517">
        <ele>130.36</ele>
        <time>2018-11-04T08:16:35.000Z</time>
      </trkpt>
      <trkpt lat="39.574877" lon="-0.482447">
        <ele>130</ele>
        <time>2018-11-04T08:16:36.000Z</time>
      </trkpt>
      <trkpt lat="39.574939" lon="-0.482375">
        <ele>130</ele>
        <time>2018-11-04T08:16:37.000Z</time>
      </trkpt>
      <trkpt lat="39.575006" lon="-0.482305">
        <ele>130</ele>
        <time>2018-11-04T08:16:38.000Z</time>
      </trkpt>
      <trkpt lat="39.575074" lon="-0.482233">
        <ele>129.36</ele>
        <time>2018-11-04T08:16:39.000Z</time>
      </trkpt>
      <trkpt lat="39.575139" lon="-0.482156">
        <ele>129</ele>
        <time>2018-11-04T08:16:40.000Z</time>
      </trkpt>
      <trkpt lat="39.575205" lon="-0.482079">
        <ele>129</ele>
        <time>2018-11-04T08:16:41.000Z</time>
      </trkpt>
      <trkpt lat="39.575273" lon="-0.482003">
        <ele>129</ele>
        <time>2018-11-04T08:16:42.000Z</time>
      </trkpt>
      <trkpt lat="39.575344" lon="-0.481926">
        <ele>129</ele>
        <time>2018-11-04T08:16:43.000Z</time>
      </trkpt>
      <trkpt lat="39.575417" lon="-0.481849">
        <ele>129</ele>
        <time>2018-11-04T08:16:44.000Z</time>
      </trkpt>
      <trkpt lat="39.575488" lon="-0.481771">
        <ele>129</ele>
        <time>2018-11-04T08:16:45.000Z</time>
      </trkpt>
      <trkpt lat="39.575562" lon="-0.481697">
        <ele>129</ele>
        <time>2018-11-04T08:16:46.000Z</time>
      </trkpt>
      <trkpt lat="39.575632" lon="-0.48162">
        <ele>129</ele>
        <time>2018-11-04T08:16:47.000Z</time>
      </trkpt>
      <trkpt lat="39.575702" lon="-0.481542">
        <ele>129</ele>
        <time>2018-11-04T08:16:48.000Z</time>
      </trkpt>
      <trkpt lat="39.575772" lon="-0.481464">
        <ele>129</ele>
        <time>2018-11-04T08:16:49.000Z</time>
      </trkpt>
      <trkpt lat="39.575842" lon="-0.481387">
        <ele>128.36</ele>
        <time>2018-11-04T08:16:50.000Z</time>
      </trkpt>
      <trkpt lat="39.575911" lon="-0.481307">
        <ele>128</ele>
        <time>2018-11-04T08:16:51.000Z</time>
      </trkpt>
      <trkpt lat="39.57598" lon="-0.481226">
        <ele>128</ele>
        <time>2018-11-04T08:16:52.000Z</time>
      </trkpt>
      <trkpt lat="39.57605" lon="-0.481147">
        <ele>128</ele>
        <time>2018-11-04T08:16:53.000Z</time>
      </trkpt>
      <trkpt lat="39.576121" lon="-0.481071">
        <ele>128</ele>
        <time>2018-11-04T08:16:54.000Z</time>
      </trkpt>
      <trkpt lat="39.576191" lon="-0.480996">
        <ele>128</ele>
        <time>2018-11-04T08:16:55.000Z</time>
      </trkpt>
      <trkpt lat="39.57626" lon="-0.480921">
        <ele>128</ele>
        <time>2018-11-04T08:16:56.000Z</time>
      </trkpt>
      <trkpt lat="39.576327" lon="-0.480847">
        <ele>128</ele>
        <time>2018-11-04T08:16:57.000Z</time>
      </trkpt>
      <trkpt lat="39.576394" lon="-0.480774">
        <ele>127.36</ele>
        <time>2018-11-04T08:16:58.000Z</time>
      </trkpt>
      <trkpt lat="39.576461" lon="-0.4807">
        <ele>127.48854842492</ele>
        <time>2018-11-04T08:16:59.000Z</time>
      </trkpt>
      <trkpt lat="39.576528" lon="-0.480626">
        <ele>128</ele>
        <time>2018-11-04T08:17:00.000Z</time>
      </trkpt>
      <trkpt lat="39.576592" lon="-0.480552">
        <ele>127.36</ele>
        <time>2018-11-04T08:17:01.000Z</time>
      </trkpt>
      <trkpt lat="39.576656" lon="-0.48048">
        <ele>127</ele>
        <time>2018-11-04T08:17:02.000Z</time>
      </trkpt>
      <trkpt lat="39.576721" lon="-0.480409">
        <ele>127</ele>
        <time>2018-11-04T08:17:03.000Z</time>
      </trkpt>
      <trkpt lat="39.576784" lon="-0.480336">
        <ele>127.6409984</ele>
        <time>2018-11-04T08:17:04.000Z</time>
      </trkpt>
      <trkpt lat="39.576847" lon="-0.480263">
        <ele>128</ele>
        <time>2018-11-04T08:17:05.000Z</time>
      </trkpt>
      <trkpt lat="39.576909" lon="-0.480188">
        <ele>128</ele>
        <time>2018-11-04T08:17:06.000Z</time>
      </trkpt>
      <trkpt lat="39.57697" lon="-0.480113">
        <ele>128</ele>
        <time>2018-11-04T08:17:07.000Z</time>
      </trkpt>
      <trkpt lat="39.577032" lon="-0.480038">
        <ele>128</ele>
        <time>2018-11-04T08:17:08.000Z</time>
      </trkpt>
      <trkpt lat="39.577091" lon="-0.479962">
        <ele>128</ele>
        <time>2018-11-04T08:17:09.000Z</time>
      </trkpt>
      <trkpt lat="39.577149" lon="-0.479881">
        <ele>128</ele>
        <time>2018-11-04T08:17:10.000Z</time>
      </trkpt>
      <trkpt lat="39.577201" lon="-0.479796">
        <ele>128</ele>
        <time>2018-11-04T08:17:11.000Z</time>
      </trkpt>
      <trkpt lat="39.577251" lon="-0.47971">
        <ele>127.505633777425</ele>
        <time>2018-11-04T08:17:12.000Z</time>
      </trkpt>
      <trkpt lat="39.577297" lon="-0.47962">
        <ele>127</ele>
        <time>2018-11-04T08:17:13.000Z</time>
      </trkpt>
      <trkpt lat="39.57734" lon="-0.479529">
        <ele>127</ele>
        <time>2018-11-04T08:17:14.000Z</time>
      </trkpt>
      <trkpt lat="39.577378" lon="-0.479436">
        <ele>126.3590016</ele>
        <time>2018-11-04T08:17:15.000Z</time>
      </trkpt>
      <trkpt lat="39.577414" lon="-0.479344">
        <ele>126</ele>
        <time>2018-11-04T08:17:16.000Z</time>
      </trkpt>
      <trkpt lat="39.577446" lon="-0.479248">
        <ele>126</ele>
        <time>2018-11-04T08:17:17.000Z</time>
      </trkpt>
      <trkpt lat="39.577474" lon="-0.479151">
        <ele>126</ele>
        <time>2018-11-04T08:17:18.000Z</time>
      </trkpt>
      <trkpt lat="39.5775" lon="-0.479055">
        <ele>126</ele>
        <time>2018-11-04T08:17:19.000Z</time>
      </trkpt>
      <trkpt lat="39.577528" lon="-0.47896">
        <ele>125.3590016</ele>
        <time>2018-11-04T08:17:20.000Z</time>
      </trkpt>
      <trkpt lat="39.577557" lon="-0.478864">
        <ele>125</ele>
        <time>2018-11-04T08:17:21.000Z</time>
      </trkpt>
      <trkpt lat="39.577587" lon="-0.478768">
        <ele>125</ele>
        <time>2018-11-04T08:17:22.000Z</time>
      </trkpt>
      <trkpt lat="39.577617" lon="-0.478672">
        <ele>124.503100782886</ele>
        <time>2018-11-04T08:17:23.000Z</time>
      </trkpt>
      <trkpt lat="39.577648" lon="-0.478574">
        <ele>124</ele>
        <time>2018-11-04T08:17:24.000Z</time>
      </trkpt>
      <trkpt lat="39.577677" lon="-0.478476">
        <ele>123.3590016</ele>
        <time>2018-11-04T08:17:25.000Z</time>
      </trkpt>
      <trkpt lat="39.577705" lon="-0.478377">
        <ele>122.3590016</ele>
        <time>2018-11-04T08:17:26.000Z</time>
      </trkpt>
      <trkpt lat="39.577732" lon="-0.478277">
        <ele>122</ele>
        <time>2018-11-04T08:17:27.000Z</time>
      </trkpt>
      <trkpt lat="39.577758" lon="-0.478178">
        <ele>121.3590016</ele>
        <time>2018-11-04T08:17:28.000Z</time>
      </trkpt>
      <trkpt lat="39.577786" lon="-0.478082">
        <ele>121</ele>
        <time>2018-11-04T08:17:29.000Z</time>
      </trkpt>
      <trkpt lat="39.577815" lon="-0.477985">
        <ele>121</ele>
        <time>2018-11-04T08:17:30.000Z</time>
      </trkpt>
      <trkpt lat="39.577844" lon="-0.477888">
        <ele>121</ele>
        <time>2018-11-04T08:17:31.000Z</time>
      </trkpt>
      <trkpt lat="39.577874" lon="-0.477792">
        <ele>120.3590016</ele>
        <time>2018-11-04T08:17:32.000Z</time>
      </trkpt>
      <trkpt lat="39.577903" lon="-0.477694">
        <ele>120</ele>
        <time>2018-11-04T08:17:33.000Z</time>
      </trkpt>
      <trkpt lat="39.577932" lon="-0.477595">
        <ele>120</ele>
        <time>2018-11-04T08:17:34.000Z</time>
      </trkpt>
      <trkpt lat="39.57796" lon="-0.477497">
        <ele>120</ele>
        <time>2018-11-04T08:17:35.000Z</time>
      </trkpt>
      <trkpt lat="39.577987" lon="-0.477398">
        <ele>119.505633777425</ele>
        <time>2018-11-04T08:17:36.000Z</time>
      </trkpt>
      <trkpt lat="39.578013" lon="-0.4773">
        <ele>119</ele>
        <time>2018-11-04T08:17:37.000Z</time>
      </trkpt>
      <trkpt lat="39.578041" lon="-0.477201">
        <ele>118.3590016</ele>
        <time>2018-11-04T08:17:38.000Z</time>
      </trkpt>
      <trkpt lat="39.578067" lon="-0.477103">
        <ele>118</ele>
        <time>2018-11-04T08:17:39.000Z</time>
      </trkpt>
      <trkpt lat="39.578097" lon="-0.477004">
        <ele>118</ele>
        <time>2018-11-04T08:17:40.000Z</time>
      </trkpt>
      <trkpt lat="39.578123" lon="-0.476906">
        <ele>117.492458694011</ele>
        <time>2018-11-04T08:17:41.000Z</time>
      </trkpt>
      <trkpt lat="39.578151" lon="-0.476807">
        <ele>117</ele>
        <time>2018-11-04T08:17:42.000Z</time>
      </trkpt>
      <trkpt lat="39.578179" lon="-0.476709">
        <ele>117</ele>
        <time>2018-11-04T08:17:43.000Z</time>
      </trkpt>
      <trkpt lat="39.578208" lon="-0.476612">
        <ele>117</ele>
        <time>2018-11-04T08:17:44.000Z</time>
      </trkpt>
      <trkpt lat="39.578239" lon="-0.47651">
        <ele>116.3590016</ele>
        <time>2018-11-04T08:17:45.000Z</time>
      </trkpt>
      <trkpt lat="39.578267" lon="-0.47641">
        <ele>116</ele>
        <time>2018-11-04T08:17:46.000Z</time>
      </trkpt>
      <trkpt lat="39.578296" lon="-0.476308">
        <ele>115.366704147273</ele>
        <time>2018-11-04T08:17:47.000Z</time>
      </trkpt>
      <trkpt lat="39.578326" lon="-0.476206">
        <ele>115</ele>
        <time>2018-11-04T08:17:48.000Z</time>
      </trkpt>
      <trkpt lat="39.578354" lon="-0.476104">
        <ele>115</ele>
        <time>2018-11-04T08:17:49.000Z</time>
      </trkpt>
      <trkpt lat="39.578381" lon="-0.476003">
        <ele>115</ele>
        <time>2018-11-04T08:17:50.000Z</time>
      </trkpt>
      <trkpt lat="39.57841" lon="-0.475903">
        <ele>114.3590016</ele>
        <time>2018-11-04T08:17:51.000Z</time>
      </trkpt>
      <trkpt lat="39.57844" lon="-0.475802">
        <ele>114</ele>
        <time>2018-11-04T08:17:52.000Z</time>
      </trkpt>
      <trkpt lat="39.57847" lon="-0.475702">
        <ele>114</ele>
        <time>2018-11-04T08:17:53.000Z</time>
      </trkpt>
      <trkpt lat="39.578501" lon="-0.475601">
        <ele>114</ele>
        <time>2018-11-04T08:17:54.000Z</time>
      </trkpt>
      <trkpt lat="39.578531" lon="-0.475501">
        <ele>114</ele>
        <time>2018-11-04T08:17:55.000Z</time>
      </trkpt>
      <trkpt lat="39.578561" lon="-0.4754">
        <ele>114</ele>
        <time>2018-11-04T08:17:56.000Z</time>
      </trkpt>
      <trkpt lat="39.578592" lon="-0.4753">
        <ele>114</ele>
        <time>2018-11-04T08:17:57.000Z</time>
      </trkpt>
      <trkpt lat="39.578625" lon="-0.4752">
        <ele>114</ele>
        <time>2018-11-04T08:17:58.000Z</time>
      </trkpt>
      <trkpt lat="39.578658" lon="-0.475101">
        <ele>113.495674592384</ele>
        <time>2018-11-04T08:17:59.000Z</time>
      </trkpt>
      <trkpt lat="39.578692" lon="-0.475002">
        <ele>113</ele>
        <time>2018-11-04T08:18:00.000Z</time>
      </trkpt>
      <trkpt lat="39.578726" lon="-0.474902">
        <ele>113</ele>
        <time>2018-11-04T08:18:01.000Z</time>
      </trkpt>
      <trkpt lat="39.578759" lon="-0.474803">
        <ele>113</ele>
        <time>2018-11-04T08:18:02.000Z</time>
      </trkpt>
      <trkpt lat="39.578794" lon="-0.474706">
        <ele>113</ele>
        <time>2018-11-04T08:18:03.000Z</time>
      </trkpt>
      <trkpt lat="39.578828" lon="-0.47461">
        <ele>113</ele>
        <time>2018-11-04T08:18:04.000Z</time>
      </trkpt>
      <trkpt lat="39.578863" lon="-0.474515">
        <ele>113.6409984</ele>
        <time>2018-11-04T08:18:05.000Z</time>
      </trkpt>
      <trkpt lat="39.578899" lon="-0.474422">
        <ele>114</ele>
        <time>2018-11-04T08:18:06.000Z</time>
      </trkpt>
      <trkpt lat="39.578935" lon="-0.474332">
        <ele>114</ele>
        <time>2018-11-04T08:18:07.000Z</time>
      </trkpt>
      <trkpt lat="39.57897" lon="-0.474243">
        <ele>114</ele>
        <time>2018-11-04T08:18:08.000Z</time>
      </trkpt>
      <trkpt lat="39.579005" lon="-0.474156">
        <ele>114</ele>
        <time>2018-11-04T08:18:09.000Z</time>
      </trkpt>
      <trkpt lat="39.579039" lon="-0.474071">
        <ele>114</ele>
        <time>2018-11-04T08:18:10.000Z</time>
      </trkpt>
      <trkpt lat="39.579074" lon="-0.473988">
        <ele>114</ele>
        <time>2018-11-04T08:18:11.000Z</time>
      </trkpt>
      <trkpt lat="39.57911" lon="-0.473909">
        <ele>114</ele>
        <time>2018-11-04T08:18:12.000Z</time>
      </trkpt>
      <trkpt lat="39.579146" lon="-0.473831">
        <ele>114.496899217114</ele>
        <time>2018-11-04T08:18:13.000Z</time>
      </trkpt>
      <trkpt lat="39.579181" lon="-0.473754">
        <ele>115</ele>
        <time>2018-11-04T08:18:14.000Z</time>
      </trkpt>
      <trkpt lat="39.579215" lon="-0.473678">
        <ele>115</ele>
        <time>2018-11-04T08:18:15.000Z</time>
      </trkpt>
      <trkpt lat="39.579251" lon="-0.473605">
        <ele>115</ele>
        <time>2018-11-04T08:18:16.000Z</time>
      </trkpt>
      <trkpt lat="39.579287" lon="-0.473534">
        <ele>115.6409984</ele>
        <time>2018-11-04T08:18:17.000Z</time>
      </trkpt>
      <trkpt lat="39.579323" lon="-0.473463">
        <ele>116</ele>
        <time>2018-11-04T08:18:18.000Z</time>
      </trkpt>
      <trkpt lat="39.579358" lon="-0.473395">
        <ele>116</ele>
        <time>2018-11-04T08:18:19.000Z</time>
      </trkpt>
      <trkpt lat="39.57939" lon="-0.473327">
        <ele>116</ele>
        <time>2018-11-04T08:18:20.000Z</time>
      </trkpt>
      <trkpt lat="39.579421" lon="-0.47326">
        <ele>116.494366222575</ele>
        <time>2018-11-04T08:18:21.000Z</time>
      </trkpt>
      <trkpt lat="39.579454" lon="-0.473195">
        <ele>117</ele>
        <time>2018-11-04T08:18:22.000Z</time>
      </trkpt>
      <trkpt lat="39.579488" lon="-0.473132">
        <ele>117</ele>
        <time>2018-11-04T08:18:23.000Z</time>
      </trkpt>
      <trkpt lat="39.579522" lon="-0.47307">
        <ele>117</ele>
        <time>2018-11-04T08:18:24.000Z</time>
      </trkpt>
      <trkpt lat="39.579555" lon="-0.473008">
        <ele>117</ele>
        <time>2018-11-04T08:18:25.000Z</time>
      </trkpt>
      <trkpt lat="39.57959" lon="-0.472947">
        <ele>117</ele>
        <time>2018-11-04T08:18:26.000Z</time>
      </trkpt>
      <trkpt lat="39.579624" lon="-0.472887">
        <ele>117.6409984</ele>
        <time>2018-11-04T08:18:27.000Z</time>
      </trkpt>
      <trkpt lat="39.579659" lon="-0.472827">
        <ele>118</ele>
        <time>2018-11-04T08:18:28.000Z</time>
      </trkpt>
      <trkpt lat="39.579693" lon="-0.472767">
        <ele>118</ele>
        <time>2018-11-04T08:18:29.000Z</time>
      </trkpt>
      <trkpt lat="39.579729" lon="-0.472709">
        <ele>118</ele>
        <time>2018-11-04T08:18:30.000Z</time>
      </trkpt>
      <trkpt lat="39.579764" lon="-0.47265">
        <ele>118</ele>
        <time>2018-11-04T08:18:31.000Z</time>
      </trkpt>
      <trkpt lat="39.5798" lon="-0.472593">
        <ele>118</ele>
        <time>2018-11-04T08:18:32.000Z</time>
      </trkpt>
      <trkpt lat="39.579834" lon="-0.472536">
        <ele>118.6409984</ele>
        <time>2018-11-04T08:18:33.000Z</time>
      </trkpt>
      <trkpt lat="39.579867" lon="-0.472479">
        <ele>119</ele>
        <time>2018-11-04T08:18:34.000Z</time>
      </trkpt>
      <trkpt lat="39.579901" lon="-0.472422">
        <ele>119</ele>
        <time>2018-11-04T08:18:35.000Z</time>
      </trkpt>
      <trkpt lat="39.579935" lon="-0.472367">
        <ele>119</ele>
        <time>2018-11-04T08:18:36.000Z</time>
      </trkpt>
      <trkpt lat="39.57997" lon="-0.47231">
        <ele>119</ele>
        <time>2018-11-04T08:18:37.000Z</time>
      </trkpt>
      <trkpt lat="39.580003" lon="-0.472254">
        <ele>119</ele>
        <time>2018-11-04T08:18:38.000Z</time>
      </trkpt>
      <trkpt lat="39.580035" lon="-0.472199">
        <ele>119</ele>
        <time>2018-11-04T08:18:39.000Z</time>
      </trkpt>
      <trkpt lat="39.58007" lon="-0.472145">
        <ele>119</ele>
        <time>2018-11-04T08:18:40.000Z</time>
      </trkpt>
      <trkpt lat="39.580101" lon="-0.472089">
        <ele>119</ele>
        <time>2018-11-04T08:18:41.000Z</time>
      </trkpt>
      <trkpt lat="39.58013" lon="-0.472032">
        <ele>119</ele>
        <time>2018-11-04T08:18:42.000Z</time>
      </trkpt>
      <trkpt lat="39.580158" lon="-0.471976">
        <ele>119</ele>
        <time>2018-11-04T08:18:43.000Z</time>
      </trkpt>
      <trkpt lat="39.580179" lon="-0.471925">
        <ele>119</ele>
        <time>2018-11-04T08:18:44.000Z</time>
      </trkpt>
      <trkpt lat="39.580194" lon="-0.471884">
        <ele>119</ele>
        <time>2018-11-04T08:18:45.000Z</time>
      </trkpt>
      <trkpt lat="39.580207" lon="-0.471848">
        <ele>119</ele>
        <time>2018-11-04T08:18:46.000Z</time>
      </trkpt>
      <trkpt lat="39.580215" lon="-0.471807">
        <ele>119</ele>
        <time>2018-11-04T08:18:47.000Z</time>
      </trkpt>
      <trkpt lat="39.580223" lon="-0.471763">
        <ele>119</ele>
        <time>2018-11-04T08:18:48.000Z</time>
      </trkpt>
      <trkpt lat="39.580232" lon="-0.471717">
        <ele>119</ele>
        <time>2018-11-04T08:18:49.000Z</time>
      </trkpt>
      <trkpt lat="39.580242" lon="-0.471668">
        <ele>119</ele>
        <time>2018-11-04T08:18:50.000Z</time>
      </trkpt>
      <trkpt lat="39.580258" lon="-0.47162">
        <ele>119</ele>
        <time>2018-11-04T08:18:51.000Z</time>
      </trkpt>
      <trkpt lat="39.58028" lon="-0.471577">
        <ele>119</ele>
        <time>2018-11-04T08:18:52.000Z</time>
      </trkpt>
      <trkpt lat="39.580308" lon="-0.471538">
        <ele>119.64</ele>
        <time>2018-11-04T08:18:53.000Z</time>
      </trkpt>
      <trkpt lat="39.580341" lon="-0.471504">
        <ele>120</ele>
        <time>2018-11-04T08:18:54.000Z</time>
      </trkpt>
      <trkpt lat="39.580377" lon="-0.47148">
        <ele>120</ele>
        <time>2018-11-04T08:18:55.000Z</time>
      </trkpt>
      <trkpt lat="39.580417" lon="-0.471462">
        <ele>120</ele>
        <time>2018-11-04T08:18:56.000Z</time>
      </trkpt>
      <trkpt lat="39.580455" lon="-0.471445">
        <ele>120.506847153303</ele>
        <time>2018-11-04T08:18:57.000Z</time>
      </trkpt>
      <trkpt lat="39.580492" lon="-0.471431">
        <ele>121</ele>
        <time>2018-11-04T08:18:58.000Z</time>
      </trkpt>
      <trkpt lat="39.580528" lon="-0.471412">
        <ele>121</ele>
        <time>2018-11-04T08:18:59.000Z</time>
      </trkpt>
      <trkpt lat="39.580563" lon="-0.471391">
        <ele>121</ele>
        <time>2018-11-04T08:19:00.000Z</time>
      </trkpt>
      <trkpt lat="39.5806" lon="-0.471368">
        <ele>121</ele>
        <time>2018-11-04T08:19:01.000Z</time>
      </trkpt>
      <trkpt lat="39.580638" lon="-0.471343">
        <ele>121</ele>
        <time>2018-11-04T08:19:02.000Z</time>
      </trkpt>
      <trkpt lat="39.580679" lon="-0.471317">
        <ele>121</ele>
        <time>2018-11-04T08:19:03.000Z</time>
      </trkpt>
      <trkpt lat="39.580724" lon="-0.47129">
        <ele>121</ele>
        <time>2018-11-04T08:19:04.000Z</time>
      </trkpt>
      <trkpt lat="39.58077" lon="-0.471259">
        <ele>121.632650662208</ele>
        <time>2018-11-04T08:19:05.000Z</time>
      </trkpt>
      <trkpt lat="39.58082" lon="-0.471224">
        <ele>122</ele>
        <time>2018-11-04T08:19:06.000Z</time>
      </trkpt>
      <trkpt lat="39.580873" lon="-0.471187">
        <ele>122</ele>
        <time>2018-11-04T08:19:07.000Z</time>
      </trkpt>
      <trkpt lat="39.580929" lon="-0.471144">
        <ele>121.36</ele>
        <time>2018-11-04T08:19:08.000Z</time>
      </trkpt>
      <trkpt lat="39.58099" lon="-0.471097">
        <ele>121</ele>
        <time>2018-11-04T08:19:09.000Z</time>
      </trkpt>
      <trkpt lat="39.581055" lon="-0.471044">
        <ele>121</ele>
        <time>2018-11-04T08:19:10.000Z</time>
      </trkpt>
      <trkpt lat="39.581124" lon="-0.470989">
        <ele>121</ele>
        <time>2018-11-04T08:19:11.000Z</time>
      </trkpt>
      <trkpt lat="39.581198" lon="-0.470931">
        <ele>120.366334626011</ele>
        <time>2018-11-04T08:19:12.000Z</time>
      </trkpt>
      <trkpt lat="39.581274" lon="-0.470871">
        <ele>120</ele>
        <time>2018-11-04T08:19:13.000Z</time>
      </trkpt>
      <trkpt lat="39.581354" lon="-0.470809">
        <ele>120</ele>
        <time>2018-11-04T08:19:14.000Z</time>
      </trkpt>
      <trkpt lat="39.581438" lon="-0.470748">
        <ele>119.602483681955</ele>
        <time>2018-11-04T08:19:15.000Z</time>
      </trkpt>
      <trkpt lat="39.581527" lon="-0.470688">
        <ele>119</ele>
        <time>2018-11-04T08:19:16.000Z</time>
      </trkpt>
      <trkpt lat="39.58162" lon="-0.470627">
        <ele>118.36</ele>
        <time>2018-11-04T08:19:17.000Z</time>
      </trkpt>
      <trkpt lat="39.581718" lon="-0.470565">
        <ele>117.36</ele>
        <time>2018-11-04T08:19:18.000Z</time>
      </trkpt>
      <trkpt lat="39.58182" lon="-0.470503">
        <ele>117</ele>
        <time>2018-11-04T08:19:19.000Z</time>
      </trkpt>
      <trkpt lat="39.581927" lon="-0.470443">
        <ele>116.503874738294</ele>
        <time>2018-11-04T08:19:20.000Z</time>
      </trkpt>
      <trkpt lat="39.582035" lon="-0.470384">
        <ele>115.507039968271</ele>
        <time>2018-11-04T08:19:21.000Z</time>
      </trkpt>
      <trkpt lat="39.582143" lon="-0.470326">
        <ele>115</ele>
        <time>2018-11-04T08:19:22.000Z</time>
      </trkpt>
      <trkpt lat="39.582251" lon="-0.470269">
        <ele>114.36</ele>
        <time>2018-11-04T08:19:23.000Z</time>
      </trkpt>
      <trkpt lat="39.582357" lon="-0.470214">
        <ele>113.515151515152</ele>
        <time>2018-11-04T08:19:24.000Z</time>
      </trkpt>
      <trkpt lat="39.582462" lon="-0.470159">
        <ele>113</ele>
        <time>2018-11-04T08:19:25.000Z</time>
      </trkpt>
      <trkpt lat="39.582568" lon="-0.470105">
        <ele>112.36</ele>
        <time>2018-11-04T08:19:26.000Z</time>
      </trkpt>
      <trkpt lat="39.582671" lon="-0.47005">
        <ele>112</ele>
        <time>2018-11-04T08:19:27.000Z</time>
      </trkpt>
      <trkpt lat="39.582771" lon="-0.469996">
        <ele>112</ele>
        <time>2018-11-04T08:19:28.000Z</time>
      </trkpt>
      <trkpt lat="39.582869" lon="-0.469943">
        <ele>112</ele>
        <time>2018-11-04T08:19:29.000Z</time>
      </trkpt>
      <trkpt lat="39.582966" lon="-0.469893">
        <ele>111.507039968271</ele>
        <time>2018-11-04T08:19:30.000Z</time>
      </trkpt>
      <trkpt lat="39.58306" lon="-0.469845">
        <ele>111</ele>
        <time>2018-11-04T08:19:31.000Z</time>
      </trkpt>
      <trkpt lat="39.583152" lon="-0.469796">
        <ele>111</ele>
        <time>2018-11-04T08:19:32.000Z</time>
      </trkpt>
      <trkpt lat="39.583245" lon="-0.469748">
        <ele>111</ele>
        <time>2018-11-04T08:19:33.000Z</time>
      </trkpt>
      <trkpt lat="39.58334" lon="-0.469703">
        <ele>111</ele>
        <time>2018-11-04T08:19:34.000Z</time>
      </trkpt>
      <trkpt lat="39.583432" lon="-0.469659">
        <ele>110.923069349175</ele>
        <time>2018-11-04T08:19:35.000Z</time>
      </trkpt>
      <trkpt lat="39.58352" lon="-0.469612">
        <ele>110</ele>
        <time>2018-11-04T08:19:36.000Z</time>
      </trkpt>
      <trkpt lat="39.583607" lon="-0.469565">
        <ele>110</ele>
        <time>2018-11-04T08:19:37.000Z</time>
      </trkpt>
      <trkpt lat="39.583695" lon="-0.469518">
        <ele>110</ele>
        <time>2018-11-04T08:19:38.000Z</time>
      </trkpt>
      <trkpt lat="39.583783" lon="-0.469473">
        <ele>109.503874738294</ele>
        <time>2018-11-04T08:19:39.000Z</time>
      </trkpt>
      <trkpt lat="39.58387" lon="-0.469427">
        <ele>109</ele>
        <time>2018-11-04T08:19:40.000Z</time>
      </trkpt>
      <trkpt lat="39.583953" lon="-0.469379">
        <ele>108.36</ele>
        <time>2018-11-04T08:19:41.000Z</time>
      </trkpt>
      <trkpt lat="39.584035" lon="-0.469333">
        <ele>108</ele>
        <time>2018-11-04T08:19:42.000Z</time>
      </trkpt>
      <trkpt lat="39.584118" lon="-0.469288">
        <ele>108</ele>
        <time>2018-11-04T08:19:43.000Z</time>
      </trkpt>
      <trkpt lat="39.584202" lon="-0.469243">
        <ele>107.51145157508</ele>
        <time>2018-11-04T08:19:44.000Z</time>
      </trkpt>
      <trkpt lat="39.584284" lon="-0.469198">
        <ele>107</ele>
        <time>2018-11-04T08:19:45.000Z</time>
      </trkpt>
      <trkpt lat="39.584365" lon="-0.469154">
        <ele>107</ele>
        <time>2018-11-04T08:19:46.000Z</time>
      </trkpt>
      <trkpt lat="39.584446" lon="-0.469108">
        <ele>106.367349337792</ele>
        <time>2018-11-04T08:19:47.000Z</time>
      </trkpt>
      <trkpt lat="39.584527" lon="-0.469062">
        <ele>106</ele>
        <time>2018-11-04T08:19:48.000Z</time>
      </trkpt>
      <trkpt lat="39.584604" lon="-0.469017">
        <ele>105.36</ele>
        <time>2018-11-04T08:19:49.000Z</time>
      </trkpt>
      <trkpt lat="39.584683" lon="-0.46897">
        <ele>105</ele>
        <time>2018-11-04T08:19:50.000Z</time>
      </trkpt>
      <trkpt lat="39.584759" lon="-0.468924">
        <ele>104.514281012288</ele>
        <time>2018-11-04T08:19:51.000Z</time>
      </trkpt>
      <trkpt lat="39.584834" lon="-0.468881">
        <ele>104</ele>
        <time>2018-11-04T08:19:52.000Z</time>
      </trkpt>
      <trkpt lat="39.584908" lon="-0.46884">
        <ele>104</ele>
        <time>2018-11-04T08:19:53.000Z</time>
      </trkpt>
      <trkpt lat="39.584983" lon="-0.468802">
        <ele>104</ele>
        <time>2018-11-04T08:19:54.000Z</time>
      </trkpt>
      <trkpt lat="39.585054" lon="-0.468762">
        <ele>104</ele>
        <time>2018-11-04T08:19:55.000Z</time>
      </trkpt>
      <trkpt lat="39.585123" lon="-0.468722">
        <ele>104</ele>
        <time>2018-11-04T08:19:56.000Z</time>
      </trkpt>
      <trkpt lat="39.585192" lon="-0.468683">
        <ele>103.518795834697</ele>
        <time>2018-11-04T08:19:57.000Z</time>
      </trkpt>
      <trkpt lat="39.585261" lon="-0.468643">
        <ele>103</ele>
        <time>2018-11-04T08:19:58.000Z</time>
      </trkpt>
      <trkpt lat="39.585329" lon="-0.468604">
        <ele>103</ele>
        <time>2018-11-04T08:19:59.000Z</time>
      </trkpt>
      <trkpt lat="39.585396" lon="-0.468566">
        <ele>103</ele>
        <time>2018-11-04T08:20:00.000Z</time>
      </trkpt>
      <trkpt lat="39.585461" lon="-0.468525">
        <ele>103</ele>
        <time>2018-11-04T08:20:01.000Z</time>
      </trkpt>
      <trkpt lat="39.585524" lon="-0.468484">
        <ele>103</ele>
        <time>2018-11-04T08:20:02.000Z</time>
      </trkpt>
      <trkpt lat="39.585588" lon="-0.468444">
        <ele>103</ele>
        <time>2018-11-04T08:20:03.000Z</time>
      </trkpt>
      <trkpt lat="39.585652" lon="-0.468407">
        <ele>103</ele>
        <time>2018-11-04T08:20:04.000Z</time>
      </trkpt>
      <trkpt lat="39.585716" lon="-0.468367">
        <ele>103</ele>
        <time>2018-11-04T08:20:05.000Z</time>
      </trkpt>
      <trkpt lat="39.585779" lon="-0.468329">
        <ele>103</ele>
        <time>2018-11-04T08:20:06.000Z</time>
      </trkpt>
      <trkpt lat="39.585842" lon="-0.468291">
        <ele>102.36</ele>
        <time>2018-11-04T08:20:07.000Z</time>
      </trkpt>
      <trkpt lat="39.585904" lon="-0.468254">
        <ele>102</ele>
        <time>2018-11-04T08:20:08.000Z</time>
      </trkpt>
      <trkpt lat="39.585967" lon="-0.468217">
        <ele>102</ele>
        <time>2018-11-04T08:20:09.000Z</time>
      </trkpt>
      <trkpt lat="39.586032" lon="-0.468182">
        <ele>102</ele>
        <time>2018-11-04T08:20:10.000Z</time>
      </trkpt>
      <trkpt lat="39.586097" lon="-0.468145">
        <ele>102</ele>
        <time>2018-11-04T08:20:11.000Z</time>
      </trkpt>
      <trkpt lat="39.58616" lon="-0.468107">
        <ele>102</ele>
        <time>2018-11-04T08:20:12.000Z</time>
      </trkpt>
      <trkpt lat="39.586223" lon="-0.468066">
        <ele>102</ele>
        <time>2018-11-04T08:20:13.000Z</time>
      </trkpt>
      <trkpt lat="39.586285" lon="-0.468026">
        <ele>101.36</ele>
        <time>2018-11-04T08:20:14.000Z</time>
      </trkpt>
      <trkpt lat="39.586346" lon="-0.467987">
        <ele>101</ele>
        <time>2018-11-04T08:20:15.000Z</time>
      </trkpt>
      <trkpt lat="39.586406" lon="-0.467947">
        <ele>101</ele>
        <time>2018-11-04T08:20:16.000Z</time>
      </trkpt>
      <trkpt lat="39.586466" lon="-0.467906">
        <ele>101</ele>
        <time>2018-11-04T08:20:17.000Z</time>
      </trkpt>
      <trkpt lat="39.586527" lon="-0.467865">
        <ele>101</ele>
        <time>2018-11-04T08:20:18.000Z</time>
      </trkpt>
      <trkpt lat="39.586588" lon="-0.467824">
        <ele>101</ele>
        <time>2018-11-04T08:20:19.000Z</time>
      </trkpt>
      <trkpt lat="39.586648" lon="-0.467781">
        <ele>101</ele>
        <time>2018-11-04T08:20:20.000Z</time>
      </trkpt>
      <trkpt lat="39.586706" lon="-0.467737">
        <ele>101</ele>
        <time>2018-11-04T08:20:21.000Z</time>
      </trkpt>
      <trkpt lat="39.586764" lon="-0.467694">
        <ele>101</ele>
        <time>2018-11-04T08:20:22.000Z</time>
      </trkpt>
      <trkpt lat="39.586822" lon="-0.467649">
        <ele>101</ele>
        <time>2018-11-04T08:20:23.000Z</time>
      </trkpt>
      <trkpt lat="39.58688" lon="-0.467605">
        <ele>101</ele>
        <time>2018-11-04T08:20:24.000Z</time>
      </trkpt>
      <trkpt lat="39.586937" lon="-0.467561">
        <ele>101</ele>
        <time>2018-11-04T08:20:25.000Z</time>
      </trkpt>
      <trkpt lat="39.586994" lon="-0.467516">
        <ele>101</ele>
        <time>2018-11-04T08:20:26.000Z</time>
      </trkpt>
      <trkpt lat="39.58705" lon="-0.467471">
        <ele>101</ele>
        <time>2018-11-04T08:20:27.000Z</time>
      </trkpt>
      <trkpt lat="39.587104" lon="-0.467423">
        <ele>101</ele>
        <time>2018-11-04T08:20:28.000Z</time>
      </trkpt>
      <trkpt lat="39.587158" lon="-0.467374">
        <ele>101</ele>
        <time>2018-11-04T08:20:29.000Z</time>
      </trkpt>
      <trkpt lat="39.587211" lon="-0.467326">
        <ele>101</ele>
        <time>2018-11-04T08:20:30.000Z</time>
      </trkpt>
      <trkpt lat="39.587262" lon="-0.467276">
        <ele>101</ele>
        <time>2018-11-04T08:20:31.000Z</time>
      </trkpt>
      <trkpt lat="39.587311" lon="-0.467227">
        <ele>101</ele>
        <time>2018-11-04T08:20:32.000Z</time>
      </trkpt>
      <trkpt lat="39.58736" lon="-0.467182">
        <ele>101</ele>
        <time>2018-11-04T08:20:33.000Z</time>
      </trkpt>
      <trkpt lat="39.587407" lon="-0.467135">
        <ele>101</ele>
        <time>2018-11-04T08:20:34.000Z</time>
      </trkpt>
      <trkpt lat="39.587452" lon="-0.467089">
        <ele>101</ele>
        <time>2018-11-04T08:20:35.000Z</time>
      </trkpt>
      <trkpt lat="39.587493" lon="-0.467034">
        <ele>101</ele>
        <time>2018-11-04T08:20:36.000Z</time>
      </trkpt>
      <trkpt lat="39.587523" lon="-0.466971">
        <ele>101</ele>
        <time>2018-11-04T08:20:37.000Z</time>
      </trkpt>
      <trkpt lat="39.587539" lon="-0.466901">
        <ele>101</ele>
        <time>2018-11-04T08:20:38.000Z</time>
      </trkpt>
      <trkpt lat="39.587546" lon="-0.466828">
        <ele>101</ele>
        <time>2018-11-04T08:20:39.000Z</time>
      </trkpt>
      <trkpt lat="39.587558" lon="-0.466753">
        <ele>101</ele>
        <time>2018-11-04T08:20:40.000Z</time>
      </trkpt>
      <trkpt lat="39.587581" lon="-0.466683">
        <ele>100.36</ele>
        <time>2018-11-04T08:20:41.000Z</time>
      </trkpt>
      <trkpt lat="39.587618" lon="-0.466623">
        <ele>100</ele>
        <time>2018-11-04T08:20:42.000Z</time>
      </trkpt>
      <trkpt lat="39.587662" lon="-0.466578">
        <ele>100</ele>
        <time>2018-11-04T08:20:43.000Z</time>
      </trkpt>
      <trkpt lat="39.587712" lon="-0.466548">
        <ele>100</ele>
        <time>2018-11-04T08:20:44.000Z</time>
      </trkpt>
      <trkpt lat="39.587767" lon="-0.466533">
        <ele>100</ele>
        <time>2018-11-04T08:20:45.000Z</time>
      </trkpt>
      <trkpt lat="39.587822" lon="-0.466533">
        <ele>100</ele>
        <time>2018-11-04T08:20:46.000Z</time>
      </trkpt>
      <trkpt lat="39.587879" lon="-0.466547">
        <ele>100</ele>
        <time>2018-11-04T08:20:47.000Z</time>
      </trkpt>
      <trkpt lat="39.587933" lon="-0.466563">
        <ele>100</ele>
        <time>2018-11-04T08:20:48.000Z</time>
      </trkpt>
      <trkpt lat="39.587988" lon="-0.466575">
        <ele>100</ele>
        <time>2018-11-04T08:20:49.000Z</time>
      </trkpt>
      <trkpt lat="39.588044" lon="-0.466577">
        <ele>100</ele>
        <time>2018-11-04T08:20:50.000Z</time>
      </trkpt>
      <trkpt lat="39.588098" lon="-0.466558">
        <ele>100</ele>
        <time>2018-11-04T08:20:51.000Z</time>
      </trkpt>
      <trkpt lat="39.588147" lon="-0.466519">
        <ele>100</ele>
        <time>2018-11-04T08:20:52.000Z</time>
      </trkpt>
      <trkpt lat="39.588194" lon="-0.466477">
        <ele>100</ele>
        <time>2018-11-04T08:20:53.000Z</time>
      </trkpt>
      <trkpt lat="39.588245" lon="-0.466438">
        <ele>100</ele>
        <time>2018-11-04T08:20:54.000Z</time>
      </trkpt>
      <trkpt lat="39.588293" lon="-0.466396">
        <ele>100</ele>
        <time>2018-11-04T08:20:55.000Z</time>
      </trkpt>
      <trkpt lat="39.588339" lon="-0.466352">
        <ele>100</ele>
        <time>2018-11-04T08:20:56.000Z</time>
      </trkpt>
      <trkpt lat="39.588385" lon="-0.466311">
        <ele>100</ele>
        <time>2018-11-04T08:20:57.000Z</time>
      </trkpt>
      <trkpt lat="39.588433" lon="-0.466269">
        <ele>100</ele>
        <time>2018-11-04T08:20:58.000Z</time>
      </trkpt>
      <trkpt lat="39.588481" lon="-0.46623">
        <ele>100.496125261706</ele>
        <time>2018-11-04T08:20:59.000Z</time>
      </trkpt>
      <trkpt lat="39.588526" lon="-0.466189">
        <ele>101</ele>
        <time>2018-11-04T08:21:00.000Z</time>
      </trkpt>
      <trkpt lat="39.588571" lon="-0.466148">
        <ele>101</ele>
        <time>2018-11-04T08:21:01.000Z</time>
      </trkpt>
      <trkpt lat="39.588615" lon="-0.466106">
        <ele>101</ele>
        <time>2018-11-04T08:21:02.000Z</time>
      </trkpt>
      <trkpt lat="39.588658" lon="-0.466062">
        <ele>101</ele>
        <time>2018-11-04T08:21:03.000Z</time>
      </trkpt>
      <trkpt lat="39.588702" lon="-0.466018">
        <ele>101</ele>
        <time>2018-11-04T08:21:04.000Z</time>
      </trkpt>
      <trkpt lat="39.588747" lon="-0.465969">
        <ele>101</ele>
        <time>2018-11-04T08:21:05.000Z</time>
      </trkpt>
      <trkpt lat="39.588794" lon="-0.465923">
        <ele>101</ele>
        <time>2018-11-04T08:21:06.000Z</time>
      </trkpt>
      <trkpt lat="39.588841" lon="-0.465878">
        <ele>101</ele>
        <time>2018-11-04T08:21:07.000Z</time>
      </trkpt>
      <trkpt lat="39.588891" lon="-0.465834">
        <ele>101</ele>
        <time>2018-11-04T08:21:08.000Z</time>
      </trkpt>
      <trkpt lat="39.58894" lon="-0.465789">
        <ele>101</ele>
        <time>2018-11-04T08:21:09.000Z</time>
      </trkpt>
      <trkpt lat="39.588989" lon="-0.465743">
        <ele>101</ele>
        <time>2018-11-04T08:21:10.000Z</time>
      </trkpt>
      <trkpt lat="39.58904" lon="-0.465701">
        <ele>101</ele>
        <time>2018-11-04T08:21:11.000Z</time>
      </trkpt>
      <trkpt lat="39.589089" lon="-0.465656">
        <ele>101</ele>
        <time>2018-11-04T08:21:12.000Z</time>
      </trkpt>
      <trkpt lat="39.589138" lon="-0.46561">
        <ele>101</ele>
        <time>2018-11-04T08:21:13.000Z</time>
      </trkpt>
      <trkpt lat="39.589185" lon="-0.465563">
        <ele>100.36</ele>
        <time>2018-11-04T08:21:14.000Z</time>
      </trkpt>
      <trkpt lat="39.589236" lon="-0.465525">
        <ele>100</ele>
        <time>2018-11-04T08:21:15.000Z</time>
      </trkpt>
      <trkpt lat="39.589287" lon="-0.465485">
        <ele>100</ele>
        <time>2018-11-04T08:21:16.000Z</time>
      </trkpt>
      <trkpt lat="39.589337" lon="-0.465446">
        <ele>100</ele>
        <time>2018-11-04T08:21:17.000Z</time>
      </trkpt>
      <trkpt lat="39.589388" lon="-0.465411">
        <ele>100</ele>
        <time>2018-11-04T08:21:18.000Z</time>
      </trkpt>
      <trkpt lat="39.589436" lon="-0.465371">
        <ele>100</ele>
        <time>2018-11-04T08:21:19.000Z</time>
      </trkpt>
      <trkpt lat="39.589486" lon="-0.465332">
        <ele>100</ele>
        <time>2018-11-04T08:21:20.000Z</time>
      </trkpt>
      <trkpt lat="39.589538" lon="-0.465298">
        <ele>100</ele>
        <time>2018-11-04T08:21:21.000Z</time>
      </trkpt>
      <trkpt lat="39.58959" lon="-0.465264">
        <ele>100</ele>
        <time>2018-11-04T08:21:22.000Z</time>
      </trkpt>
      <trkpt lat="39.589641" lon="-0.46523">
        <ele>100</ele>
        <time>2018-11-04T08:21:23.000Z</time>
      </trkpt>
      <trkpt lat="39.589687" lon="-0.465194">
        <ele>100</ele>
        <time>2018-11-04T08:21:24.000Z</time>
      </trkpt>
      <trkpt lat="39.589732" lon="-0.465154">
        <ele>100</ele>
        <time>2018-11-04T08:21:25.000Z</time>
      </trkpt>
      <trkpt lat="39.589777" lon="-0.465112">
        <ele>100</ele>
        <time>2018-11-04T08:21:26.000Z</time>
      </trkpt>
      <trkpt lat="39.589822" lon="-0.465073">
        <ele>100</ele>
        <time>2018-11-04T08:21:27.000Z</time>
      </trkpt>
      <trkpt lat="39.589866" lon="-0.465033">
        <ele>100.503935738115</ele>
        <time>2018-11-04T08:21:28.000Z</time>
      </trkpt>
      <trkpt lat="39.589911" lon="-0.464993">
        <ele>101</ele>
        <time>2018-11-04T08:21:29.000Z</time>
      </trkpt>
      <trkpt lat="39.589952" lon="-0.464953">
        <ele>101</ele>
        <time>2018-11-04T08:21:30.000Z</time>
      </trkpt>
      <trkpt lat="39.589993" lon="-0.464914">
        <ele>101</ele>
        <time>2018-11-04T08:21:31.000Z</time>
      </trkpt>
      <trkpt lat="39.590034" lon="-0.464876">
        <ele>101</ele>
        <time>2018-11-04T08:21:32.000Z</time>
      </trkpt>
      <trkpt lat="39.590075" lon="-0.464844">
        <ele>101</ele>
        <time>2018-11-04T08:21:33.000Z</time>
      </trkpt>
      <trkpt lat="39.590117" lon="-0.464815">
        <ele>101.64</ele>
        <time>2018-11-04T08:21:34.000Z</time>
      </trkpt>
      <trkpt lat="39.590155" lon="-0.464785">
        <ele>102</ele>
        <time>2018-11-04T08:21:35.000Z</time>
      </trkpt>
      <trkpt lat="39.59019" lon="-0.464755">
        <ele>102.492960031729</ele>
        <time>2018-11-04T08:21:36.000Z</time>
      </trkpt>
      <trkpt lat="39.590224" lon="-0.464727">
        <ele>103.64</ele>
        <time>2018-11-04T08:21:37.000Z</time>
      </trkpt>
      <trkpt lat="39.590258" lon="-0.464702">
        <ele>104</ele>
        <time>2018-11-04T08:21:38.000Z</time>
      </trkpt>
      <trkpt lat="39.590288" lon="-0.46468">
        <ele>104</ele>
        <time>2018-11-04T08:21:39.000Z</time>
      </trkpt>
      <trkpt lat="39.590311" lon="-0.46466">
        <ele>104</ele>
        <time>2018-11-04T08:21:40.000Z</time>
      </trkpt>
      <trkpt lat="39.590329" lon="-0.464647">
        <ele>104</ele>
        <time>2018-11-04T08:21:41.000Z</time>
      </trkpt>
      <trkpt lat="39.590357" lon="-0.464636">
        <ele>105</ele>
        <time>2018-11-04T08:22:19.000Z</time>
      </trkpt>
      <trkpt lat="39.590373" lon="-0.46462">
        <ele>105</ele>
        <time>2018-11-04T08:22:20.000Z</time>
      </trkpt>
      <trkpt lat="39.590392" lon="-0.464598">
        <ele>105</ele>
        <time>2018-11-04T08:22:21.000Z</time>
      </trkpt>
      <trkpt lat="39.590414" lon="-0.464572">
        <ele>105.64</ele>
        <time>2018-11-04T08:22:22.000Z</time>
      </trkpt>
      <trkpt lat="39.590442" lon="-0.464549">
        <ele>106</ele>
        <time>2018-11-04T08:22:23.000Z</time>
      </trkpt>
      <trkpt lat="39.590476" lon="-0.46453">
        <ele>106</ele>
        <time>2018-11-04T08:22:24.000Z</time>
      </trkpt>
      <trkpt lat="39.590521" lon="-0.464527">
        <ele>106</ele>
        <time>2018-11-04T08:22:25.000Z</time>
      </trkpt>
      <trkpt lat="39.590568" lon="-0.46454">
        <ele>106.506847153303</ele>
        <time>2018-11-04T08:22:26.000Z</time>
      </trkpt>
      <trkpt lat="39.590609" lon="-0.464568">
        <ele>107</ele>
        <time>2018-11-04T08:22:27.000Z</time>
      </trkpt>
      <trkpt lat="39.590649" lon="-0.46461">
        <ele>107</ele>
        <time>2018-11-04T08:22:28.000Z</time>
      </trkpt>
      <trkpt lat="39.590689" lon="-0.464658">
        <ele>106.36</ele>
        <time>2018-11-04T08:22:29.000Z</time>
      </trkpt>
      <trkpt lat="39.590727" lon="-0.464711">
        <ele>106</ele>
        <time>2018-11-04T08:22:30.000Z</time>
      </trkpt>
      <trkpt lat="39.590761" lon="-0.464761">
        <ele>106</ele>
        <time>2018-11-04T08:22:31.000Z</time>
      </trkpt>
      <trkpt lat="39.590793" lon="-0.464808">
        <ele>105.36</ele>
        <time>2018-11-04T08:22:32.000Z</time>
      </trkpt>
      <trkpt lat="39.590828" lon="-0.464861">
        <ele>105</ele>
        <time>2018-11-04T08:22:33.000Z</time>
      </trkpt>
      <trkpt lat="39.590866" lon="-0.464909">
        <ele>105</ele>
        <time>2018-11-04T08:22:34.000Z</time>
      </trkpt>
      <trkpt lat="39.590907" lon="-0.464961">
        <ele>105</ele>
        <time>2018-11-04T08:22:35.000Z</time>
      </trkpt>
      <trkpt lat="39.590942" lon="-0.465023">
        <ele>105</ele>
        <time>2018-11-04T08:22:36.000Z</time>
      </trkpt>
      <trkpt lat="39.590979" lon="-0.465083">
        <ele>105</ele>
        <time>2018-11-04T08:22:37.000Z</time>
      </trkpt>
      <trkpt lat="39.59102" lon="-0.465135">
        <ele>105</ele>
        <time>2018-11-04T08:22:38.000Z</time>
      </trkpt>
      <trkpt lat="39.591062" lon="-0.465179">
        <ele>105</ele>
        <time>2018-11-04T08:22:39.000Z</time>
      </trkpt>
      <trkpt lat="39.591104" lon="-0.465228">
        <ele>105</ele>
        <time>2018-11-04T08:22:40.000Z</time>
      </trkpt>
      <trkpt lat="39.591145" lon="-0.465285">
        <ele>105</ele>
        <time>2018-11-04T08:22:41.000Z</time>
      </trkpt>
      <trkpt lat="39.591185" lon="-0.465345">
        <ele>104.36</ele>
        <time>2018-11-04T08:22:42.000Z</time>
      </trkpt>
      <trkpt lat="39.591224" lon="-0.465411">
        <ele>104</ele>
        <time>2018-11-04T08:22:43.000Z</time>
      </trkpt>
      <trkpt lat="39.591267" lon="-0.465473">
        <ele>104</ele>
        <time>2018-11-04T08:22:44.000Z</time>
      </trkpt>
      <trkpt lat="39.591309" lon="-0.465527">
        <ele>103.878055633605</ele>
        <time>2018-11-04T08:22:45.000Z</time>
      </trkpt>
      <trkpt lat="39.591352" lon="-0.465582">
        <ele>103</ele>
        <time>2018-11-04T08:22:46.000Z</time>
      </trkpt>
      <trkpt lat="39.591395" lon="-0.465637">
        <ele>103</ele>
        <time>2018-11-04T08:22:47.000Z</time>
      </trkpt>
      <trkpt lat="39.59144" lon="-0.465691">
        <ele>102.36</ele>
        <time>2018-11-04T08:22:48.000Z</time>
      </trkpt>
      <trkpt lat="39.591491" lon="-0.46574">
        <ele>102</ele>
        <time>2018-11-04T08:22:49.000Z</time>
      </trkpt>
      <trkpt lat="39.591542" lon="-0.46579">
        <ele>102</ele>
        <time>2018-11-04T08:22:50.000Z</time>
      </trkpt>
      <trkpt lat="39.591595" lon="-0.465831">
        <ele>102</ele>
        <time>2018-11-04T08:22:51.000Z</time>
      </trkpt>
      <trkpt lat="39.591656" lon="-0.465851">
        <ele>102</ele>
        <time>2018-11-04T08:22:52.000Z</time>
      </trkpt>
      <trkpt lat="39.591718" lon="-0.465863">
        <ele>102</ele>
        <time>2018-11-04T08:22:53.000Z</time>
      </trkpt>
      <trkpt lat="39.591783" lon="-0.465851">
        <ele>102</ele>
        <time>2018-11-04T08:22:54.000Z</time>
      </trkpt>
      <trkpt lat="39.591852" lon="-0.465826">
        <ele>101.36363518825</ele>
        <time>2018-11-04T08:22:55.000Z</time>
      </trkpt>
      <trkpt lat="39.591925" lon="-0.465792">
        <ele>101</ele>
        <time>2018-11-04T08:22:56.000Z</time>
      </trkpt>
      <trkpt lat="39.592001" lon="-0.465762">
        <ele>101</ele>
        <time>2018-11-04T08:22:57.000Z</time>
      </trkpt>
      <trkpt lat="39.592071" lon="-0.465732">
        <ele>101</ele>
        <time>2018-11-04T08:22:58.000Z</time>
      </trkpt>
      <trkpt lat="39.592145" lon="-0.465693">
        <ele>101</ele>
        <time>2018-11-04T08:22:59.000Z</time>
      </trkpt>
      <trkpt lat="39.592214" lon="-0.465643">
        <ele>101</ele>
        <time>2018-11-04T08:23:00.000Z</time>
      </trkpt>
      <trkpt lat="39.592274" lon="-0.465583">
        <ele>101</ele>
        <time>2018-11-04T08:23:01.000Z</time>
      </trkpt>
      <trkpt lat="39.592333" lon="-0.465523">
        <ele>101</ele>
        <time>2018-11-04T08:23:02.000Z</time>
      </trkpt>
      <trkpt lat="39.59239" lon="-0.46546">
        <ele>101</ele>
        <time>2018-11-04T08:23:03.000Z</time>
      </trkpt>
      <trkpt lat="39.592454" lon="-0.465401">
        <ele>101</ele>
        <time>2018-11-04T08:23:04.000Z</time>
      </trkpt>
      <trkpt lat="39.592516" lon="-0.46534">
        <ele>101</ele>
        <time>2018-11-04T08:23:05.000Z</time>
      </trkpt>
      <trkpt lat="39.59257" lon="-0.465273">
        <ele>101</ele>
        <time>2018-11-04T08:23:06.000Z</time>
      </trkpt>
      <trkpt lat="39.59262" lon="-0.465203">
        <ele>101</ele>
        <time>2018-11-04T08:23:07.000Z</time>
      </trkpt>
      <trkpt lat="39.592667" lon="-0.465133">
        <ele>101</ele>
        <time>2018-11-04T08:23:08.000Z</time>
      </trkpt>
      <trkpt lat="39.59271" lon="-0.46506">
        <ele>101</ele>
        <time>2018-11-04T08:23:09.000Z</time>
      </trkpt>
      <trkpt lat="39.592752" lon="-0.464987">
        <ele>101</ele>
        <time>2018-11-04T08:23:10.000Z</time>
      </trkpt>
      <trkpt lat="39.592789" lon="-0.46491">
        <ele>101</ele>
        <time>2018-11-04T08:23:11.000Z</time>
      </trkpt>
      <trkpt lat="39.592828" lon="-0.464834">
        <ele>100.36</ele>
        <time>2018-11-04T08:23:12.000Z</time>
      </trkpt>
      <trkpt lat="39.592865" lon="-0.464759">
        <ele>100.496125261706</ele>
        <time>2018-11-04T08:23:13.000Z</time>
      </trkpt>
      <trkpt lat="39.59291" lon="-0.464697">
        <ele>100.507039968271</ele>
        <time>2018-11-04T08:23:14.000Z</time>
      </trkpt>
      <trkpt lat="39.592966" lon="-0.464645">
        <ele>100</ele>
        <time>2018-11-04T08:23:15.000Z</time>
      </trkpt>
      <trkpt lat="39.593024" lon="-0.464596">
        <ele>100</ele>
        <time>2018-11-04T08:23:16.000Z</time>
      </trkpt>
      <trkpt lat="39.593082" lon="-0.464549">
        <ele>100</ele>
        <time>2018-11-04T08:23:17.000Z</time>
      </trkpt>
      <trkpt lat="39.593142" lon="-0.464509">
        <ele>99.36</ele>
        <time>2018-11-04T08:23:18.000Z</time>
      </trkpt>
      <trkpt lat="39.593208" lon="-0.464475">
        <ele>99</ele>
        <time>2018-11-04T08:23:19.000Z</time>
      </trkpt>
      <trkpt lat="39.593267" lon="-0.46444">
        <ele>99</ele>
        <time>2018-11-04T08:23:20.000Z</time>
      </trkpt>
      <trkpt lat="39.593329" lon="-0.464405">
        <ele>99</ele>
        <time>2018-11-04T08:23:21.000Z</time>
      </trkpt>
      <trkpt lat="39.593391" lon="-0.464372">
        <ele>99</ele>
        <time>2018-11-04T08:23:22.000Z</time>
      </trkpt>
      <trkpt lat="39.593452" lon="-0.464335">
        <ele>99</ele>
        <time>2018-11-04T08:23:23.000Z</time>
      </trkpt>
      <trkpt lat="39.593516" lon="-0.464296">
        <ele>99</ele>
        <time>2018-11-04T08:23:24.000Z</time>
      </trkpt>
      <trkpt lat="39.593572" lon="-0.464247">
        <ele>99</ele>
        <time>2018-11-04T08:23:25.000Z</time>
      </trkpt>
      <trkpt lat="39.593616" lon="-0.464189">
        <ele>99</ele>
        <time>2018-11-04T08:23:26.000Z</time>
      </trkpt>
      <trkpt lat="39.59365" lon="-0.464124">
        <ele>99.64</ele>
        <time>2018-11-04T08:23:27.000Z</time>
      </trkpt>
      <trkpt lat="39.593674" lon="-0.464056">
        <ele>100</ele>
        <time>2018-11-04T08:23:28.000Z</time>
      </trkpt>
      <trkpt lat="39.593702" lon="-0.464002">
        <ele>99.5</ele>
        <time>2018-11-04T08:23:29.000Z</time>
      </trkpt>
      <trkpt lat="39.59373" lon="-0.463957">
        <ele>99</ele>
        <time>2018-11-04T08:23:30.000Z</time>
      </trkpt>
      <trkpt lat="39.59376" lon="-0.463922">
        <ele>99</ele>
        <time>2018-11-04T08:23:31.000Z</time>
      </trkpt>
      <trkpt lat="39.593778" lon="-0.463889">
        <ele>99</ele>
        <time>2018-11-04T08:23:32.000Z</time>
      </trkpt>
      <trkpt lat="39.593794" lon="-0.463863">
        <ele>99</ele>
        <time>2018-11-04T08:23:33.000Z</time>
      </trkpt>
      <trkpt lat="39.593806" lon="-0.463832">
        <ele>99</ele>
        <time>2018-11-04T08:23:35.000Z</time>
      </trkpt>
      <trkpt lat="39.593819" lon="-0.463815">
        <ele>98</ele>
        <time>2018-11-04T08:23:43.000Z</time>
      </trkpt>
      <trkpt lat="39.593832" lon="-0.463774">
        <ele>98</ele>
        <time>2018-11-04T08:23:45.000Z</time>
      </trkpt>
      <trkpt lat="39.593834" lon="-0.463747">
        <ele>98</ele>
        <time>2018-11-04T08:23:46.000Z</time>
      </trkpt>
      <trkpt lat="39.593841" lon="-0.463712">
        <ele>98</ele>
        <time>2018-11-04T08:23:47.000Z</time>
      </trkpt>
      <trkpt lat="39.593852" lon="-0.463677">
        <ele>98.64</ele>
        <time>2018-11-04T08:23:48.000Z</time>
      </trkpt>
      <trkpt lat="39.593866" lon="-0.463639">
        <ele>98.36</ele>
        <time>2018-11-04T08:23:49.000Z</time>
      </trkpt>
      <trkpt lat="39.593882" lon="-0.463598">
        <ele>98</ele>
        <time>2018-11-04T08:23:50.000Z</time>
      </trkpt>
      <trkpt lat="39.593898" lon="-0.463554">
        <ele>98</ele>
        <time>2018-11-04T08:23:51.000Z</time>
      </trkpt>
      <trkpt lat="39.593916" lon="-0.463504">
        <ele>98.4961252617061</ele>
        <time>2018-11-04T08:23:52.000Z</time>
      </trkpt>
      <trkpt lat="39.593932" lon="-0.463452">
        <ele>99</ele>
        <time>2018-11-04T08:23:53.000Z</time>
      </trkpt>
      <trkpt lat="39.593946" lon="-0.463398">
        <ele>99</ele>
        <time>2018-11-04T08:23:54.000Z</time>
      </trkpt>
      <trkpt lat="39.593962" lon="-0.463342">
        <ele>99</ele>
        <time>2018-11-04T08:23:55.000Z</time>
      </trkpt>
      <trkpt lat="39.593982" lon="-0.463287">
        <ele>99</ele>
        <time>2018-11-04T08:23:56.000Z</time>
      </trkpt>
      <trkpt lat="39.593999" lon="-0.463232">
        <ele>99</ele>
        <time>2018-11-04T08:23:57.000Z</time>
      </trkpt>
      <trkpt lat="39.594013" lon="-0.463173">
        <ele>99</ele>
        <time>2018-11-04T08:23:58.000Z</time>
      </trkpt>
      <trkpt lat="39.594024" lon="-0.463113">
        <ele>99</ele>
        <time>2018-11-04T08:23:59.000Z</time>
      </trkpt>
      <trkpt lat="39.594037" lon="-0.463052">
        <ele>99</ele>
        <time>2018-11-04T08:24:00.000Z</time>
      </trkpt>
      <trkpt lat="39.594049" lon="-0.462994">
        <ele>99</ele>
        <time>2018-11-04T08:24:01.000Z</time>
      </trkpt>
      <trkpt lat="39.59406" lon="-0.462933">
        <ele>98.36</ele>
        <time>2018-11-04T08:24:02.000Z</time>
      </trkpt>
      <trkpt lat="39.594066" lon="-0.46287">
        <ele>98</ele>
        <time>2018-11-04T08:24:03.000Z</time>
      </trkpt>
      <trkpt lat="39.594081" lon="-0.462804">
        <ele>98</ele>
        <time>2018-11-04T08:24:04.000Z</time>
      </trkpt>
      <trkpt lat="39.594099" lon="-0.462739">
        <ele>98</ele>
        <time>2018-11-04T08:24:05.000Z</time>
      </trkpt>
      <trkpt lat="39.594112" lon="-0.462677">
        <ele>98</ele>
        <time>2018-11-04T08:24:06.000Z</time>
      </trkpt>
      <trkpt lat="39.594125" lon="-0.462613">
        <ele>98</ele>
        <time>2018-11-04T08:24:07.000Z</time>
      </trkpt>
      <trkpt lat="39.594136" lon="-0.462547">
        <ele>98</ele>
        <time>2018-11-04T08:24:08.000Z</time>
      </trkpt>
      <trkpt lat="39.594147" lon="-0.462484">
        <ele>98</ele>
        <time>2018-11-04T08:24:09.000Z</time>
      </trkpt>
      <trkpt lat="39.594153" lon="-0.462419">
        <ele>98.64</ele>
        <time>2018-11-04T08:24:10.000Z</time>
      </trkpt>
      <trkpt lat="39.594155" lon="-0.462355">
        <ele>99</ele>
        <time>2018-11-04T08:24:11.000Z</time>
      </trkpt>
      <trkpt lat="39.594149" lon="-0.462291">
        <ele>99</ele>
        <time>2018-11-04T08:24:12.000Z</time>
      </trkpt>
      <trkpt lat="39.594139" lon="-0.462222">
        <ele>98.5070399682706</ele>
        <time>2018-11-04T08:24:13.000Z</time>
      </trkpt>
      <trkpt lat="39.594128" lon="-0.462156">
        <ele>98</ele>
        <time>2018-11-04T08:24:14.000Z</time>
      </trkpt>
      <trkpt lat="39.594111" lon="-0.462088">
        <ele>98</ele>
        <time>2018-11-04T08:24:15.000Z</time>
      </trkpt>
      <trkpt lat="39.594095" lon="-0.462022">
        <ele>98</ele>
        <time>2018-11-04T08:24:16.000Z</time>
      </trkpt>
      <trkpt lat="39.594082" lon="-0.461956">
        <ele>98</ele>
        <time>2018-11-04T08:24:17.000Z</time>
      </trkpt>
      <trkpt lat="39.594071" lon="-0.461886">
        <ele>98</ele>
        <time>2018-11-04T08:24:18.000Z</time>
      </trkpt>
      <trkpt lat="39.594055" lon="-0.461809">
        <ele>97.5</ele>
        <time>2018-11-04T08:24:19.000Z</time>
      </trkpt>
      <trkpt lat="39.594042" lon="-0.461733">
        <ele>97</ele>
        <time>2018-11-04T08:24:20.000Z</time>
      </trkpt>
      <trkpt lat="39.594029" lon="-0.461659">
        <ele>97</ele>
        <time>2018-11-04T08:24:21.000Z</time>
      </trkpt>
      <trkpt lat="39.59401" lon="-0.461585">
        <ele>96.5070399682706</ele>
        <time>2018-11-04T08:24:22.000Z</time>
      </trkpt>
      <trkpt lat="39.593995" lon="-0.461511">
        <ele>96</ele>
        <time>2018-11-04T08:24:23.000Z</time>
      </trkpt>
      <trkpt lat="39.593982" lon="-0.46144">
        <ele>96</ele>
        <time>2018-11-04T08:24:24.000Z</time>
      </trkpt>
      <trkpt lat="39.593968" lon="-0.461368">
        <ele>95.36</ele>
        <time>2018-11-04T08:24:25.000Z</time>
      </trkpt>
      <trkpt lat="39.593952" lon="-0.461298">
        <ele>95</ele>
        <time>2018-11-04T08:24:26.000Z</time>
      </trkpt>
      <trkpt lat="39.593937" lon="-0.461228">
        <ele>95</ele>
        <time>2018-11-04T08:24:27.000Z</time>
      </trkpt>
      <trkpt lat="39.593919" lon="-0.461159">
        <ele>94.36</ele>
        <time>2018-11-04T08:24:28.000Z</time>
      </trkpt>
      <trkpt lat="39.5939" lon="-0.46109">
        <ele>94</ele>
        <time>2018-11-04T08:24:29.000Z</time>
      </trkpt>
      <trkpt lat="39.593879" lon="-0.461019">
        <ele>94</ele>
        <time>2018-11-04T08:24:30.000Z</time>
      </trkpt>
      <trkpt lat="39.593858" lon="-0.460947">
        <ele>94</ele>
        <time>2018-11-04T08:24:31.000Z</time>
      </trkpt>
      <trkpt lat="39.593836" lon="-0.460877">
        <ele>93.36</ele>
        <time>2018-11-04T08:24:32.000Z</time>
      </trkpt>
      <trkpt lat="39.593813" lon="-0.460807">
        <ele>93</ele>
        <time>2018-11-04T08:24:33.000Z</time>
      </trkpt>
      <trkpt lat="39.593792" lon="-0.460737">
        <ele>93</ele>
        <time>2018-11-04T08:24:34.000Z</time>
      </trkpt>
      <trkpt lat="39.593771" lon="-0.460666">
        <ele>93</ele>
        <time>2018-11-04T08:24:35.000Z</time>
      </trkpt>
      <trkpt lat="39.593746" lon="-0.460596">
        <ele>93</ele>
        <time>2018-11-04T08:24:36.000Z</time>
      </trkpt>
      <trkpt lat="39.59372" lon="-0.460529">
        <ele>93</ele>
        <time>2018-11-04T08:24:37.000Z</time>
      </trkpt>
      <trkpt lat="39.593694" lon="-0.460462">
        <ele>93</ele>
        <time>2018-11-04T08:24:38.000Z</time>
      </trkpt>
      <trkpt lat="39.593668" lon="-0.460395">
        <ele>93</ele>
        <time>2018-11-04T08:24:39.000Z</time>
      </trkpt>
      <trkpt lat="39.593643" lon="-0.460326">
        <ele>93</ele>
        <time>2018-11-04T08:24:40.000Z</time>
      </trkpt>
      <trkpt lat="39.593618" lon="-0.460257">
        <ele>93</ele>
        <time>2018-11-04T08:24:41.000Z</time>
      </trkpt>
      <trkpt lat="39.593592" lon="-0.460188">
        <ele>93</ele>
        <time>2018-11-04T08:24:42.000Z</time>
      </trkpt>
      <trkpt lat="39.593567" lon="-0.460117">
        <ele>93</ele>
        <time>2018-11-04T08:24:43.000Z</time>
      </trkpt>
      <trkpt lat="39.593541" lon="-0.46005">
        <ele>93.64</ele>
        <time>2018-11-04T08:24:44.000Z</time>
      </trkpt>
      <trkpt lat="39.593514" lon="-0.45998">
        <ele>94</ele>
        <time>2018-11-04T08:24:45.000Z</time>
      </trkpt>
      <trkpt lat="39.593487" lon="-0.459907">
        <ele>94</ele>
        <time>2018-11-04T08:24:46.000Z</time>
      </trkpt>
      <trkpt lat="39.59346" lon="-0.459838">
        <ele>94.5</ele>
        <time>2018-11-04T08:24:47.000Z</time>
      </trkpt>
      <trkpt lat="39.593431" lon="-0.45977">
        <ele>95</ele>
        <time>2018-11-04T08:24:48.000Z</time>
      </trkpt>
      <trkpt lat="39.593404" lon="-0.459698">
        <ele>95.64</ele>
        <time>2018-11-04T08:24:49.000Z</time>
      </trkpt>
      <trkpt lat="39.593377" lon="-0.459624">
        <ele>96</ele>
        <time>2018-11-04T08:24:50.000Z</time>
      </trkpt>
      <trkpt lat="39.593349" lon="-0.459555">
        <ele>96.64</ele>
        <time>2018-11-04T08:24:51.000Z</time>
      </trkpt>
      <trkpt lat="39.593321" lon="-0.459491">
        <ele>97</ele>
        <time>2018-11-04T08:24:52.000Z</time>
      </trkpt>
      <trkpt lat="39.593297" lon="-0.45942">
        <ele>97</ele>
        <time>2018-11-04T08:24:53.000Z</time>
      </trkpt>
      <trkpt lat="39.593273" lon="-0.459354">
        <ele>97</ele>
        <time>2018-11-04T08:24:54.000Z</time>
      </trkpt>
      <trkpt lat="39.593249" lon="-0.45929">
        <ele>97.4961252617061</ele>
        <time>2018-11-04T08:24:55.000Z</time>
      </trkpt>
      <trkpt lat="39.593226" lon="-0.459226">
        <ele>98</ele>
        <time>2018-11-04T08:24:56.000Z</time>
      </trkpt>
      <trkpt lat="39.593203" lon="-0.459163">
        <ele>98</ele>
        <time>2018-11-04T08:24:57.000Z</time>
      </trkpt>
      <trkpt lat="39.59318" lon="-0.459102">
        <ele>98.5068471533026</ele>
        <time>2018-11-04T08:24:58.000Z</time>
      </trkpt>
      <trkpt lat="39.593157" lon="-0.459042">
        <ele>99</ele>
        <time>2018-11-04T08:24:59.000Z</time>
      </trkpt>
      <trkpt lat="39.593135" lon="-0.45898">
        <ele>99</ele>
        <time>2018-11-04T08:25:00.000Z</time>
      </trkpt>
      <trkpt lat="39.593117" lon="-0.458921">
        <ele>99</ele>
        <time>2018-11-04T08:25:01.000Z</time>
      </trkpt>
      <trkpt lat="39.593098" lon="-0.458868">
        <ele>99</ele>
        <time>2018-11-04T08:25:02.000Z</time>
      </trkpt>
      <trkpt lat="39.593083" lon="-0.458827">
        <ele>99.64</ele>
        <time>2018-11-04T08:25:03.000Z</time>
      </trkpt>
      <trkpt lat="39.593073" lon="-0.458798">
        <ele>100</ele>
        <time>2018-11-04T08:25:04.000Z</time>
      </trkpt>
      <trkpt lat="39.593061" lon="-0.458759">
        <ele>100</ele>
        <time>2018-11-04T08:25:06.000Z</time>
      </trkpt>
      <trkpt lat="39.593066" lon="-0.458732">
        <ele>101</ele>
        <time>2018-11-04T08:25:10.000Z</time>
      </trkpt>
      <trkpt lat="39.593062" lon="-0.458695">
        <ele>102</ele>
        <time>2018-11-04T08:25:14.000Z</time>
      </trkpt>
      <trkpt lat="39.593051" lon="-0.458654">
        <ele>102.503935738115</ele>
        <time>2018-11-04T08:25:16.000Z</time>
      </trkpt>
      <trkpt lat="39.593044" lon="-0.45863">
        <ele>103</ele>
        <time>2018-11-04T08:25:17.000Z</time>
      </trkpt>
      <trkpt lat="39.59304" lon="-0.458605">
        <ele>103</ele>
        <time>2018-11-04T08:25:18.000Z</time>
      </trkpt>
      <trkpt lat="39.593036" lon="-0.458577">
        <ele>103</ele>
        <time>2018-11-04T08:25:19.000Z</time>
      </trkpt>
      <trkpt lat="39.593029" lon="-0.458545">
        <ele>103.64</ele>
        <time>2018-11-04T08:25:20.000Z</time>
      </trkpt>
      <trkpt lat="39.593027" lon="-0.458507">
        <ele>103.36</ele>
        <time>2018-11-04T08:25:21.000Z</time>
      </trkpt>
      <trkpt lat="39.593027" lon="-0.458469">
        <ele>103.64</ele>
        <time>2018-11-04T08:25:22.000Z</time>
      </trkpt>
      <trkpt lat="39.593031" lon="-0.458434">
        <ele>104</ele>
        <time>2018-11-04T08:25:23.000Z</time>
      </trkpt>
      <trkpt lat="39.593043" lon="-0.458404">
        <ele>104</ele>
        <time>2018-11-04T08:25:24.000Z</time>
      </trkpt>
      <trkpt lat="39.593064" lon="-0.45838">
        <ele>104</ele>
        <time>2018-11-04T08:25:25.000Z</time>
      </trkpt>
      <trkpt lat="39.59309" lon="-0.458361">
        <ele>103.37255295653</ele>
        <time>2018-11-04T08:25:26.000Z</time>
      </trkpt>
      <trkpt lat="39.593123" lon="-0.458345">
        <ele>103</ele>
        <time>2018-11-04T08:25:27.000Z</time>
      </trkpt>
      <trkpt lat="39.59316" lon="-0.458329">
        <ele>103</ele>
        <time>2018-11-04T08:25:28.000Z</time>
      </trkpt>
      <trkpt lat="39.593196" lon="-0.458312">
        <ele>103</ele>
        <time>2018-11-04T08:25:29.000Z</time>
      </trkpt>
      <trkpt lat="39.593237" lon="-0.458299">
        <ele>103</ele>
        <time>2018-11-04T08:25:30.000Z</time>
      </trkpt>
      <trkpt lat="39.593277" lon="-0.458286">
        <ele>103</ele>
        <time>2018-11-04T08:25:31.000Z</time>
      </trkpt>
      <trkpt lat="39.593319" lon="-0.458274">
        <ele>103</ele>
        <time>2018-11-04T08:25:32.000Z</time>
      </trkpt>
      <trkpt lat="39.593362" lon="-0.45826">
        <ele>103</ele>
        <time>2018-11-04T08:25:33.000Z</time>
      </trkpt>
      <trkpt lat="39.593405" lon="-0.458243">
        <ele>103</ele>
        <time>2018-11-04T08:25:34.000Z</time>
      </trkpt>
      <trkpt lat="39.593449" lon="-0.458226">
        <ele>102.496064261885</ele>
        <time>2018-11-04T08:25:35.000Z</time>
      </trkpt>
      <trkpt lat="39.593494" lon="-0.458208">
        <ele>102</ele>
        <time>2018-11-04T08:25:36.000Z</time>
      </trkpt>
      <trkpt lat="39.593542" lon="-0.458193">
        <ele>102</ele>
        <time>2018-11-04T08:25:37.000Z</time>
      </trkpt>
      <trkpt lat="39.59359" lon="-0.458178">
        <ele>102</ele>
        <time>2018-11-04T08:25:38.000Z</time>
      </trkpt>
      <trkpt lat="39.59364" lon="-0.458167">
        <ele>102</ele>
        <time>2018-11-04T08:25:39.000Z</time>
      </trkpt>
      <trkpt lat="39.593689" lon="-0.45816">
        <ele>102</ele>
        <time>2018-11-04T08:25:40.000Z</time>
      </trkpt>
      <trkpt lat="39.593736" lon="-0.458148">
        <ele>102.64</ele>
        <time>2018-11-04T08:25:41.000Z</time>
      </trkpt>
      <trkpt lat="39.59379" lon="-0.458142">
        <ele>103</ele>
        <time>2018-11-04T08:25:42.000Z</time>
      </trkpt>
      <trkpt lat="39.593842" lon="-0.45814">
        <ele>103</ele>
        <time>2018-11-04T08:25:43.000Z</time>
      </trkpt>
      <trkpt lat="39.593895" lon="-0.458134">
        <ele>103</ele>
        <time>2018-11-04T08:25:44.000Z</time>
      </trkpt>
      <trkpt lat="39.59395" lon="-0.458125">
        <ele>103</ele>
        <time>2018-11-04T08:25:45.000Z</time>
      </trkpt>
      <trkpt lat="39.594003" lon="-0.458116">
        <ele>104.28</ele>
        <time>2018-11-04T08:25:46.000Z</time>
      </trkpt>
      <trkpt lat="39.594068" lon="-0.458113">
        <ele>105</ele>
        <time>2018-11-04T08:25:47.000Z</time>
      </trkpt>
      <trkpt lat="39.594124" lon="-0.458108">
        <ele>105</ele>
        <time>2018-11-04T08:25:48.000Z</time>
      </trkpt>
      <trkpt lat="39.594174" lon="-0.458101">
        <ele>105</ele>
        <time>2018-11-04T08:25:49.000Z</time>
      </trkpt>
      <trkpt lat="39.594219" lon="-0.458087">
        <ele>105</ele>
        <time>2018-11-04T08:25:50.000Z</time>
      </trkpt>
      <trkpt lat="39.59426" lon="-0.458067">
        <ele>105</ele>
        <time>2018-11-04T08:25:51.000Z</time>
      </trkpt>
      <trkpt lat="39.594306" lon="-0.458051">
        <ele>105</ele>
        <time>2018-11-04T08:25:52.000Z</time>
      </trkpt>
      <trkpt lat="39.594353" lon="-0.458037">
        <ele>105</ele>
        <time>2018-11-04T08:25:53.000Z</time>
      </trkpt>
      <trkpt lat="39.594402" lon="-0.458028">
        <ele>105</ele>
        <time>2018-11-04T08:25:54.000Z</time>
      </trkpt>
      <trkpt lat="39.594447" lon="-0.458014">
        <ele>105</ele>
        <time>2018-11-04T08:25:55.000Z</time>
      </trkpt>
      <trkpt lat="39.594497" lon="-0.458002">
        <ele>105</ele>
        <time>2018-11-04T08:25:56.000Z</time>
      </trkpt>
      <trkpt lat="39.594546" lon="-0.457991">
        <ele>105.64</ele>
        <time>2018-11-04T08:25:57.000Z</time>
      </trkpt>
      <trkpt lat="39.594595" lon="-0.457976">
        <ele>106</ele>
        <time>2018-11-04T08:25:58.000Z</time>
      </trkpt>
      <trkpt lat="39.594646" lon="-0.457963">
        <ele>106</ele>
        <time>2018-11-04T08:25:59.000Z</time>
      </trkpt>
      <trkpt lat="39.594695" lon="-0.457949">
        <ele>106</ele>
        <time>2018-11-04T08:26:00.000Z</time>
      </trkpt>
      <trkpt lat="39.594745" lon="-0.457938">
        <ele>105.36</ele>
        <time>2018-11-04T08:26:01.000Z</time>
      </trkpt>
      <trkpt lat="39.594801" lon="-0.457933">
        <ele>105.484848484848</ele>
        <time>2018-11-04T08:26:02.000Z</time>
      </trkpt>
      <trkpt lat="39.594852" lon="-0.457916">
        <ele>106</ele>
        <time>2018-11-04T08:26:03.000Z</time>
      </trkpt>
      <trkpt lat="39.594901" lon="-0.457897">
        <ele>105.36</ele>
        <time>2018-11-04T08:26:04.000Z</time>
      </trkpt>
      <trkpt lat="39.594951" lon="-0.457871">
        <ele>105</ele>
        <time>2018-11-04T08:26:05.000Z</time>
      </trkpt>
      <trkpt lat="39.595002" lon="-0.45785">
        <ele>105</ele>
        <time>2018-11-04T08:26:06.000Z</time>
      </trkpt>
      <trkpt lat="39.595053" lon="-0.457834">
        <ele>105</ele>
        <time>2018-11-04T08:26:07.000Z</time>
      </trkpt>
      <trkpt lat="39.595104" lon="-0.457817">
        <ele>105</ele>
        <time>2018-11-04T08:26:08.000Z</time>
      </trkpt>
      <trkpt lat="39.595156" lon="-0.457798">
        <ele>104.36</ele>
        <time>2018-11-04T08:26:09.000Z</time>
      </trkpt>
      <trkpt lat="39.595209" lon="-0.457784">
        <ele>104</ele>
        <time>2018-11-04T08:26:10.000Z</time>
      </trkpt>
      <trkpt lat="39.595267" lon="-0.457773">
        <ele>104</ele>
        <time>2018-11-04T08:26:11.000Z</time>
      </trkpt>
      <trkpt lat="39.595321" lon="-0.457758">
        <ele>103.656253333333</ele>
        <time>2018-11-04T08:26:12.000Z</time>
      </trkpt>
      <trkpt lat="39.595377" lon="-0.457751">
        <ele>103</ele>
        <time>2018-11-04T08:26:13.000Z</time>
      </trkpt>
      <trkpt lat="39.595434" lon="-0.457746">
        <ele>102.493152846697</ele>
        <time>2018-11-04T08:26:14.000Z</time>
      </trkpt>
      <trkpt lat="39.595494" lon="-0.457743">
        <ele>102</ele>
        <time>2018-11-04T08:26:15.000Z</time>
      </trkpt>
      <trkpt lat="39.595549" lon="-0.457733">
        <ele>101.36</ele>
        <time>2018-11-04T08:26:16.000Z</time>
      </trkpt>
      <trkpt lat="39.5956" lon="-0.457721">
        <ele>101</ele>
        <time>2018-11-04T08:26:17.000Z</time>
      </trkpt>
      <trkpt lat="39.59565" lon="-0.457706">
        <ele>101</ele>
        <time>2018-11-04T08:26:18.000Z</time>
      </trkpt>
      <trkpt lat="39.595704" lon="-0.457692">
        <ele>101</ele>
        <time>2018-11-04T08:26:19.000Z</time>
      </trkpt>
      <trkpt lat="39.595756" lon="-0.457678">
        <ele>100.5</ele>
        <time>2018-11-04T08:26:20.000Z</time>
      </trkpt>
      <trkpt lat="39.59581" lon="-0.457662">
        <ele>100</ele>
        <time>2018-11-04T08:26:21.000Z</time>
      </trkpt>
      <trkpt lat="39.595862" lon="-0.457639">
        <ele>100</ele>
        <time>2018-11-04T08:26:22.000Z</time>
      </trkpt>
      <trkpt lat="39.595913" lon="-0.457608">
        <ele>100</ele>
        <time>2018-11-04T08:26:23.000Z</time>
      </trkpt>
      <trkpt lat="39.59596" lon="-0.457569">
        <ele>99.36</ele>
        <time>2018-11-04T08:26:24.000Z</time>
      </trkpt>
      <trkpt lat="39.596007" lon="-0.45753">
        <ele>99</ele>
        <time>2018-11-04T08:26:25.000Z</time>
      </trkpt>
      <trkpt lat="39.596061" lon="-0.457517">
        <ele>99</ele>
        <time>2018-11-04T08:26:26.000Z</time>
      </trkpt>
      <trkpt lat="39.596112" lon="-0.457518">
        <ele>99</ele>
        <time>2018-11-04T08:26:27.000Z</time>
      </trkpt>
      <trkpt lat="39.596163" lon="-0.45752">
        <ele>98.36</ele>
        <time>2018-11-04T08:26:28.000Z</time>
      </trkpt>
      <trkpt lat="39.596217" lon="-0.457519">
        <ele>97.507694731349</ele>
        <time>2018-11-04T08:26:29.000Z</time>
      </trkpt>
      <trkpt lat="39.596271" lon="-0.45751">
        <ele>97</ele>
        <time>2018-11-04T08:26:30.000Z</time>
      </trkpt>
      <trkpt lat="39.596331" lon="-0.457497">
        <ele>96.36</ele>
        <time>2018-11-04T08:26:31.000Z</time>
      </trkpt>
      <trkpt lat="39.596387" lon="-0.457484">
        <ele>96</ele>
        <time>2018-11-04T08:26:32.000Z</time>
      </trkpt>
      <trkpt lat="39.596442" lon="-0.457472">
        <ele>96</ele>
        <time>2018-11-04T08:26:33.000Z</time>
      </trkpt>
      <trkpt lat="39.596497" lon="-0.457458">
        <ele>96</ele>
        <time>2018-11-04T08:26:34.000Z</time>
      </trkpt>
      <trkpt lat="39.596553" lon="-0.457445">
        <ele>95.36</ele>
        <time>2018-11-04T08:26:35.000Z</time>
      </trkpt>
      <trkpt lat="39.596608" lon="-0.457433">
        <ele>95</ele>
        <time>2018-11-04T08:26:36.000Z</time>
      </trkpt>
      <trkpt lat="39.596662" lon="-0.457419">
        <ele>95</ele>
        <time>2018-11-04T08:26:37.000Z</time>
      </trkpt>
      <trkpt lat="39.596718" lon="-0.457402">
        <ele>94.5</ele>
        <time>2018-11-04T08:26:38.000Z</time>
      </trkpt>
      <trkpt lat="39.596773" lon="-0.457387">
        <ele>94</ele>
        <time>2018-11-04T08:26:39.000Z</time>
      </trkpt>
      <trkpt lat="39.596825" lon="-0.45737">
        <ele>93.36</ele>
        <time>2018-11-04T08:26:40.000Z</time>
      </trkpt>
      <trkpt lat="39.596878" lon="-0.457352">
        <ele>93</ele>
        <time>2018-11-04T08:26:41.000Z</time>
      </trkpt>
      <trkpt lat="39.59693" lon="-0.457335">
        <ele>93</ele>
        <time>2018-11-04T08:26:42.000Z</time>
      </trkpt>
      <trkpt lat="39.596982" lon="-0.457319">
        <ele>93</ele>
        <time>2018-11-04T08:26:43.000Z</time>
      </trkpt>
      <trkpt lat="39.597033" lon="-0.457304">
        <ele>93</ele>
        <time>2018-11-04T08:26:44.000Z</time>
      </trkpt>
      <trkpt lat="39.597083" lon="-0.457289">
        <ele>92.36</ele>
        <time>2018-11-04T08:26:45.000Z</time>
      </trkpt>
      <trkpt lat="39.597133" lon="-0.457276">
        <ele>92</ele>
        <time>2018-11-04T08:26:46.000Z</time>
      </trkpt>
      <trkpt lat="39.597182" lon="-0.457261">
        <ele>92</ele>
        <time>2018-11-04T08:26:47.000Z</time>
      </trkpt>
      <trkpt lat="39.597232" lon="-0.457247">
        <ele>92</ele>
        <time>2018-11-04T08:26:48.000Z</time>
      </trkpt>
      <trkpt lat="39.597282" lon="-0.457231">
        <ele>92</ele>
        <time>2018-11-04T08:26:49.000Z</time>
      </trkpt>
      <trkpt lat="39.597332" lon="-0.457217">
        <ele>92</ele>
        <time>2018-11-04T08:26:50.000Z</time>
      </trkpt>
      <trkpt lat="39.597382" lon="-0.457202">
        <ele>92</ele>
        <time>2018-11-04T08:26:51.000Z</time>
      </trkpt>
      <trkpt lat="39.597433" lon="-0.457188">
        <ele>91.5</ele>
        <time>2018-11-04T08:26:52.000Z</time>
      </trkpt>
      <trkpt lat="39.597484" lon="-0.457174">
        <ele>91</ele>
        <time>2018-11-04T08:26:53.000Z</time>
      </trkpt>
      <trkpt lat="39.597535" lon="-0.457161">
        <ele>91</ele>
        <time>2018-11-04T08:26:54.000Z</time>
      </trkpt>
      <trkpt lat="39.597585" lon="-0.457146">
        <ele>91</ele>
        <time>2018-11-04T08:26:55.000Z</time>
      </trkpt>
      <trkpt lat="39.597636" lon="-0.457128">
        <ele>91</ele>
        <time>2018-11-04T08:26:56.000Z</time>
      </trkpt>
      <trkpt lat="39.597688" lon="-0.457111">
        <ele>91</ele>
        <time>2018-11-04T08:26:57.000Z</time>
      </trkpt>
      <trkpt lat="39.597739" lon="-0.457096">
        <ele>91</ele>
        <time>2018-11-04T08:26:58.000Z</time>
      </trkpt>
      <trkpt lat="39.59779" lon="-0.45708">
        <ele>91</ele>
        <time>2018-11-04T08:26:59.000Z</time>
      </trkpt>
      <trkpt lat="39.59784" lon="-0.457067">
        <ele>91</ele>
        <time>2018-11-04T08:27:00.000Z</time>
      </trkpt>
      <trkpt lat="39.59789" lon="-0.457055">
        <ele>91.64</ele>
        <time>2018-11-04T08:27:01.000Z</time>
      </trkpt>
      <trkpt lat="39.597938" lon="-0.457046">
        <ele>92</ele>
        <time>2018-11-04T08:27:02.000Z</time>
      </trkpt>
      <trkpt lat="39.597985" lon="-0.457032">
        <ele>92</ele>
        <time>2018-11-04T08:27:03.000Z</time>
      </trkpt>
      <trkpt lat="39.598033" lon="-0.457021">
        <ele>92</ele>
        <time>2018-11-04T08:27:04.000Z</time>
      </trkpt>
      <trkpt lat="39.598079" lon="-0.457009">
        <ele>92</ele>
        <time>2018-11-04T08:27:05.000Z</time>
      </trkpt>
      <trkpt lat="39.598126" lon="-0.456997">
        <ele>92</ele>
        <time>2018-11-04T08:27:06.000Z</time>
      </trkpt>
      <trkpt lat="39.598172" lon="-0.456982">
        <ele>92</ele>
        <time>2018-11-04T08:27:07.000Z</time>
      </trkpt>
      <trkpt lat="39.598218" lon="-0.456969">
        <ele>92</ele>
        <time>2018-11-04T08:27:08.000Z</time>
      </trkpt>
      <trkpt lat="39.598266" lon="-0.456957">
        <ele>92</ele>
        <time>2018-11-04T08:27:09.000Z</time>
      </trkpt>
      <trkpt lat="39.598314" lon="-0.456943">
        <ele>92</ele>
        <time>2018-11-04T08:27:10.000Z</time>
      </trkpt>
      <trkpt lat="39.598362" lon="-0.45693">
        <ele>92</ele>
        <time>2018-11-04T08:27:11.000Z</time>
      </trkpt>
      <trkpt lat="39.59841" lon="-0.456916">
        <ele>92</ele>
        <time>2018-11-04T08:27:12.000Z</time>
      </trkpt>
      <trkpt lat="39.598457" lon="-0.456901">
        <ele>92</ele>
        <time>2018-11-04T08:27:13.000Z</time>
      </trkpt>
      <trkpt lat="39.598505" lon="-0.456885">
        <ele>92</ele>
        <time>2018-11-04T08:27:14.000Z</time>
      </trkpt>
      <trkpt lat="39.598553" lon="-0.45687">
        <ele>92</ele>
        <time>2018-11-04T08:27:15.000Z</time>
      </trkpt>
      <trkpt lat="39.598601" lon="-0.456857">
        <ele>92</ele>
        <time>2018-11-04T08:27:16.000Z</time>
      </trkpt>
      <trkpt lat="39.598648" lon="-0.456842">
        <ele>92</ele>
        <time>2018-11-04T08:27:17.000Z</time>
      </trkpt>
      <trkpt lat="39.598695" lon="-0.456828">
        <ele>92</ele>
        <time>2018-11-04T08:27:18.000Z</time>
      </trkpt>
      <trkpt lat="39.598741" lon="-0.456817">
        <ele>92</ele>
        <time>2018-11-04T08:27:19.000Z</time>
      </trkpt>
      <trkpt lat="39.59879" lon="-0.456806">
        <ele>92</ele>
        <time>2018-11-04T08:27:20.000Z</time>
      </trkpt>
      <trkpt lat="39.598839" lon="-0.456792">
        <ele>92</ele>
        <time>2018-11-04T08:27:21.000Z</time>
      </trkpt>
      <trkpt lat="39.598887" lon="-0.456778">
        <ele>92</ele>
        <time>2018-11-04T08:27:22.000Z</time>
      </trkpt>
      <trkpt lat="39.598934" lon="-0.456765">
        <ele>92</ele>
        <time>2018-11-04T08:27:23.000Z</time>
      </trkpt>
      <trkpt lat="39.598982" lon="-0.456752">
        <ele>92</ele>
        <time>2018-11-04T08:27:24.000Z</time>
      </trkpt>
      <trkpt lat="39.599029" lon="-0.456741">
        <ele>92</ele>
        <time>2018-11-04T08:27:25.000Z</time>
      </trkpt>
      <trkpt lat="39.599076" lon="-0.456728">
        <ele>92</ele>
        <time>2018-11-04T08:27:26.000Z</time>
      </trkpt>
      <trkpt lat="39.599123" lon="-0.456715">
        <ele>92</ele>
        <time>2018-11-04T08:27:27.000Z</time>
      </trkpt>
      <trkpt lat="39.599168" lon="-0.456699">
        <ele>92</ele>
        <time>2018-11-04T08:27:28.000Z</time>
      </trkpt>
      <trkpt lat="39.599213" lon="-0.456684">
        <ele>92</ele>
        <time>2018-11-04T08:27:29.000Z</time>
      </trkpt>
      <trkpt lat="39.599258" lon="-0.45667">
        <ele>92</ele>
        <time>2018-11-04T08:27:30.000Z</time>
      </trkpt>
      <trkpt lat="39.599303" lon="-0.456656">
        <ele>92</ele>
        <time>2018-11-04T08:27:31.000Z</time>
      </trkpt>
      <trkpt lat="39.599348" lon="-0.456643">
        <ele>92</ele>
        <time>2018-11-04T08:27:32.000Z</time>
      </trkpt>
      <trkpt lat="39.599394" lon="-0.456629">
        <ele>92.64</ele>
        <time>2018-11-04T08:27:33.000Z</time>
      </trkpt>
      <trkpt lat="39.599439" lon="-0.456618">
        <ele>93</ele>
        <time>2018-11-04T08:27:34.000Z</time>
      </trkpt>
      <trkpt lat="39.599483" lon="-0.456606">
        <ele>93</ele>
        <time>2018-11-04T08:27:35.000Z</time>
      </trkpt>
      <trkpt lat="39.599528" lon="-0.456594">
        <ele>93</ele>
        <time>2018-11-04T08:27:36.000Z</time>
      </trkpt>
      <trkpt lat="39.599572" lon="-0.456582">
        <ele>93</ele>
        <time>2018-11-04T08:27:37.000Z</time>
      </trkpt>
      <trkpt lat="39.599616" lon="-0.456569">
        <ele>93</ele>
        <time>2018-11-04T08:27:38.000Z</time>
      </trkpt>
      <trkpt lat="39.59966" lon="-0.456555">
        <ele>93.492305268651</ele>
        <time>2018-11-04T08:27:39.000Z</time>
      </trkpt>
      <trkpt lat="39.599705" lon="-0.456542">
        <ele>94</ele>
        <time>2018-11-04T08:27:40.000Z</time>
      </trkpt>
      <trkpt lat="39.599751" lon="-0.456528">
        <ele>94</ele>
        <time>2018-11-04T08:27:41.000Z</time>
      </trkpt>
      <trkpt lat="39.599796" lon="-0.456515">
        <ele>94</ele>
        <time>2018-11-04T08:27:42.000Z</time>
      </trkpt>
      <trkpt lat="39.599842" lon="-0.456502">
        <ele>94</ele>
        <time>2018-11-04T08:27:43.000Z</time>
      </trkpt>
      <trkpt lat="39.599887" lon="-0.456489">
        <ele>94</ele>
        <time>2018-11-04T08:27:44.000Z</time>
      </trkpt>
      <trkpt lat="39.599932" lon="-0.456475">
        <ele>94</ele>
        <time>2018-11-04T08:27:45.000Z</time>
      </trkpt>
      <trkpt lat="39.599977" lon="-0.456461">
        <ele>94.64</ele>
        <time>2018-11-04T08:27:46.000Z</time>
      </trkpt>
      <trkpt lat="39.600022" lon="-0.456447">
        <ele>95</ele>
        <time>2018-11-04T08:27:47.000Z</time>
      </trkpt>
      <trkpt lat="39.600066" lon="-0.456433">
        <ele>95</ele>
        <time>2018-11-04T08:27:48.000Z</time>
      </trkpt>
      <trkpt lat="39.600109" lon="-0.45642">
        <ele>95</ele>
        <time>2018-11-04T08:27:49.000Z</time>
      </trkpt>
      <trkpt lat="39.600153" lon="-0.456407">
        <ele>95</ele>
        <time>2018-11-04T08:27:50.000Z</time>
      </trkpt>
      <trkpt lat="39.600196" lon="-0.456394">
        <ele>95</ele>
        <time>2018-11-04T08:27:51.000Z</time>
      </trkpt>
      <trkpt lat="39.60024" lon="-0.456383">
        <ele>95</ele>
        <time>2018-11-04T08:27:52.000Z</time>
      </trkpt>
      <trkpt lat="39.600283" lon="-0.456375">
        <ele>95.64</ele>
        <time>2018-11-04T08:27:53.000Z</time>
      </trkpt>
      <trkpt lat="39.600326" lon="-0.456368">
        <ele>96</ele>
        <time>2018-11-04T08:27:54.000Z</time>
      </trkpt>
      <trkpt lat="39.600369" lon="-0.456358">
        <ele>96</ele>
        <time>2018-11-04T08:27:55.000Z</time>
      </trkpt>
      <trkpt lat="39.600414" lon="-0.456348">
        <ele>96</ele>
        <time>2018-11-04T08:27:56.000Z</time>
      </trkpt>
      <trkpt lat="39.600459" lon="-0.456337">
        <ele>96.64</ele>
        <time>2018-11-04T08:27:57.000Z</time>
      </trkpt>
      <trkpt lat="39.600505" lon="-0.456326">
        <ele>97</ele>
        <time>2018-11-04T08:27:58.000Z</time>
      </trkpt>
      <trkpt lat="39.600552" lon="-0.456315">
        <ele>97</ele>
        <time>2018-11-04T08:27:59.000Z</time>
      </trkpt>
      <trkpt lat="39.600598" lon="-0.456305">
        <ele>97</ele>
        <time>2018-11-04T08:28:00.000Z</time>
      </trkpt>
      <trkpt lat="39.600645" lon="-0.456293">
        <ele>97.5</ele>
        <time>2018-11-04T08:28:01.000Z</time>
      </trkpt>
      <trkpt lat="39.600691" lon="-0.456279">
        <ele>98</ele>
        <time>2018-11-04T08:28:02.000Z</time>
      </trkpt>
      <trkpt lat="39.600735" lon="-0.456263">
        <ele>98</ele>
        <time>2018-11-04T08:28:03.000Z</time>
      </trkpt>
      <trkpt lat="39.600777" lon="-0.456242">
        <ele>98</ele>
        <time>2018-11-04T08:28:04.000Z</time>
      </trkpt>
      <trkpt lat="39.60082" lon="-0.456217">
        <ele>98.64</ele>
        <time>2018-11-04T08:28:05.000Z</time>
      </trkpt>
      <trkpt lat="39.600863" lon="-0.456192">
        <ele>99</ele>
        <time>2018-11-04T08:28:06.000Z</time>
      </trkpt>
      <trkpt lat="39.600907" lon="-0.456167">
        <ele>99</ele>
        <time>2018-11-04T08:28:07.000Z</time>
      </trkpt>
      <trkpt lat="39.60095" lon="-0.456141">
        <ele>99</ele>
        <time>2018-11-04T08:28:08.000Z</time>
      </trkpt>
      <trkpt lat="39.600994" lon="-0.456115">
        <ele>99</ele>
        <time>2018-11-04T08:28:09.000Z</time>
      </trkpt>
      <trkpt lat="39.601037" lon="-0.456089">
        <ele>99</ele>
        <time>2018-11-04T08:28:10.000Z</time>
      </trkpt>
      <trkpt lat="39.601082" lon="-0.456064">
        <ele>99.5039357381147</ele>
        <time>2018-11-04T08:28:11.000Z</time>
      </trkpt>
      <trkpt lat="39.601126" lon="-0.456039">
        <ele>100</ele>
        <time>2018-11-04T08:28:12.000Z</time>
      </trkpt>
      <trkpt lat="39.601171" lon="-0.456013">
        <ele>100</ele>
        <time>2018-11-04T08:28:13.000Z</time>
      </trkpt>
      <trkpt lat="39.601216" lon="-0.455984">
        <ele>100</ele>
        <time>2018-11-04T08:28:14.000Z</time>
      </trkpt>
      <trkpt lat="39.601262" lon="-0.455953">
        <ele>100</ele>
        <time>2018-11-04T08:28:15.000Z</time>
      </trkpt>
      <trkpt lat="39.601309" lon="-0.455925">
        <ele>100</ele>
        <time>2018-11-04T08:28:16.000Z</time>
      </trkpt>
      <trkpt lat="39.601356" lon="-0.455897">
        <ele>100</ele>
        <time>2018-11-04T08:28:17.000Z</time>
      </trkpt>
      <trkpt lat="39.601403" lon="-0.455867">
        <ele>100</ele>
        <time>2018-11-04T08:28:18.000Z</time>
      </trkpt>
      <trkpt lat="39.601451" lon="-0.455835">
        <ele>100</ele>
        <time>2018-11-04T08:28:19.000Z</time>
      </trkpt>
      <trkpt lat="39.601498" lon="-0.455805">
        <ele>100</ele>
        <time>2018-11-04T08:28:20.000Z</time>
      </trkpt>
      <trkpt lat="39.601544" lon="-0.455776">
        <ele>100</ele>
        <time>2018-11-04T08:28:21.000Z</time>
      </trkpt>
      <trkpt lat="39.601589" lon="-0.455746">
        <ele>100</ele>
        <time>2018-11-04T08:28:22.000Z</time>
      </trkpt>
      <trkpt lat="39.601635" lon="-0.455715">
        <ele>100</ele>
        <time>2018-11-04T08:28:23.000Z</time>
      </trkpt>
      <trkpt lat="39.601681" lon="-0.455685">
        <ele>100</ele>
        <time>2018-11-04T08:28:24.000Z</time>
      </trkpt>
      <trkpt lat="39.601729" lon="-0.455656">
        <ele>100</ele>
        <time>2018-11-04T08:28:25.000Z</time>
      </trkpt>
      <trkpt lat="39.601776" lon="-0.455626">
        <ele>100</ele>
        <time>2018-11-04T08:28:26.000Z</time>
      </trkpt>
      <trkpt lat="39.601821" lon="-0.455595">
        <ele>100</ele>
        <time>2018-11-04T08:28:27.000Z</time>
      </trkpt>
      <trkpt lat="39.601865" lon="-0.455566">
        <ele>100</ele>
        <time>2018-11-04T08:28:28.000Z</time>
      </trkpt>
      <trkpt lat="39.601909" lon="-0.455538">
        <ele>100</ele>
        <time>2018-11-04T08:28:29.000Z</time>
      </trkpt>
      <trkpt lat="39.601953" lon="-0.45551">
        <ele>100</ele>
        <time>2018-11-04T08:28:30.000Z</time>
      </trkpt>
      <trkpt lat="39.601998" lon="-0.455482">
        <ele>100</ele>
        <time>2018-11-04T08:28:31.000Z</time>
      </trkpt>
      <trkpt lat="39.602042" lon="-0.455453">
        <ele>100</ele>
        <time>2018-11-04T08:28:32.000Z</time>
      </trkpt>
      <trkpt lat="39.602087" lon="-0.455424">
        <ele>100</ele>
        <time>2018-11-04T08:28:33.000Z</time>
      </trkpt>
      <trkpt lat="39.602132" lon="-0.455396">
        <ele>100</ele>
        <time>2018-11-04T08:28:34.000Z</time>
      </trkpt>
      <trkpt lat="39.602176" lon="-0.455368">
        <ele>100</ele>
        <time>2018-11-04T08:28:35.000Z</time>
      </trkpt>
      <trkpt lat="39.602221" lon="-0.45534">
        <ele>100.64</ele>
        <time>2018-11-04T08:28:36.000Z</time>
      </trkpt>
      <trkpt lat="39.602266" lon="-0.455311">
        <ele>101</ele>
        <time>2018-11-04T08:28:37.000Z</time>
      </trkpt>
      <trkpt lat="39.60231" lon="-0.455283">
        <ele>101</ele>
        <time>2018-11-04T08:28:38.000Z</time>
      </trkpt>
      <trkpt lat="39.602354" lon="-0.455254">
        <ele>101</ele>
        <time>2018-11-04T08:28:39.000Z</time>
      </trkpt>
      <trkpt lat="39.602397" lon="-0.455224">
        <ele>101</ele>
        <time>2018-11-04T08:28:40.000Z</time>
      </trkpt>
      <trkpt lat="39.602441" lon="-0.455195">
        <ele>101</ele>
        <time>2018-11-04T08:28:41.000Z</time>
      </trkpt>
      <trkpt lat="39.602487" lon="-0.455169">
        <ele>101</ele>
        <time>2018-11-04T08:28:42.000Z</time>
      </trkpt>
      <trkpt lat="39.602534" lon="-0.455142">
        <ele>101</ele>
        <time>2018-11-04T08:28:43.000Z</time>
      </trkpt>
      <trkpt lat="39.602579" lon="-0.455114">
        <ele>101</ele>
        <time>2018-11-04T08:28:44.000Z</time>
      </trkpt>
      <trkpt lat="39.602622" lon="-0.455086">
        <ele>101</ele>
        <time>2018-11-04T08:28:45.000Z</time>
      </trkpt>
      <trkpt lat="39.602666" lon="-0.455058">
        <ele>101</ele>
        <time>2018-11-04T08:28:46.000Z</time>
      </trkpt>
      <trkpt lat="39.602709" lon="-0.455029">
        <ele>101</ele>
        <time>2018-11-04T08:28:47.000Z</time>
      </trkpt>
      <trkpt lat="39.602752" lon="-0.454999">
        <ele>101</ele>
        <time>2018-11-04T08:28:48.000Z</time>
      </trkpt>
      <trkpt lat="39.602796" lon="-0.45497">
        <ele>101</ele>
        <time>2018-11-04T08:28:49.000Z</time>
      </trkpt>
      <trkpt lat="39.60284" lon="-0.454942">
        <ele>101</ele>
        <time>2018-11-04T08:28:50.000Z</time>
      </trkpt>
      <trkpt lat="39.602884" lon="-0.454913">
        <ele>101</ele>
        <time>2018-11-04T08:28:51.000Z</time>
      </trkpt>
      <trkpt lat="39.602927" lon="-0.454883">
        <ele>101</ele>
        <time>2018-11-04T08:28:52.000Z</time>
      </trkpt>
      <trkpt lat="39.60297" lon="-0.454854">
        <ele>101</ele>
        <time>2018-11-04T08:28:53.000Z</time>
      </trkpt>
      <trkpt lat="39.603013" lon="-0.454826">
        <ele>101</ele>
        <time>2018-11-04T08:28:54.000Z</time>
      </trkpt>
      <trkpt lat="39.603058" lon="-0.454797">
        <ele>101</ele>
        <time>2018-11-04T08:28:55.000Z</time>
      </trkpt>
      <trkpt lat="39.603102" lon="-0.454769">
        <ele>101</ele>
        <time>2018-11-04T08:28:56.000Z</time>
      </trkpt>
      <trkpt lat="39.603146" lon="-0.45474">
        <ele>101</ele>
        <time>2018-11-04T08:28:57.000Z</time>
      </trkpt>
      <trkpt lat="39.60319" lon="-0.454712">
        <ele>101</ele>
        <time>2018-11-04T08:28:58.000Z</time>
      </trkpt>
      <trkpt lat="39.603234" lon="-0.454684">
        <ele>101</ele>
        <time>2018-11-04T08:28:59.000Z</time>
      </trkpt>
      <trkpt lat="39.603278" lon="-0.454657">
        <ele>101</ele>
        <time>2018-11-04T08:29:00.000Z</time>
      </trkpt>
      <trkpt lat="39.603323" lon="-0.45463">
        <ele>101</ele>
        <time>2018-11-04T08:29:01.000Z</time>
      </trkpt>
      <trkpt lat="39.603367" lon="-0.454602">
        <ele>101</ele>
        <time>2018-11-04T08:29:02.000Z</time>
      </trkpt>
      <trkpt lat="39.603413" lon="-0.454573">
        <ele>101</ele>
        <time>2018-11-04T08:29:03.000Z</time>
      </trkpt>
      <trkpt lat="39.603459" lon="-0.454543">
        <ele>101</ele>
        <time>2018-11-04T08:29:04.000Z</time>
      </trkpt>
      <trkpt lat="39.603505" lon="-0.454513">
        <ele>101</ele>
        <time>2018-11-04T08:29:05.000Z</time>
      </trkpt>
      <trkpt lat="39.60355" lon="-0.454482">
        <ele>101</ele>
        <time>2018-11-04T08:29:06.000Z</time>
      </trkpt>
      <trkpt lat="39.603597" lon="-0.454454">
        <ele>101.64</ele>
        <time>2018-11-04T08:29:07.000Z</time>
      </trkpt>
      <trkpt lat="39.603641" lon="-0.454423">
        <ele>102</ele>
        <time>2018-11-04T08:29:08.000Z</time>
      </trkpt>
      <trkpt lat="39.603685" lon="-0.454393">
        <ele>101.36</ele>
        <time>2018-11-04T08:29:09.000Z</time>
      </trkpt>
      <trkpt lat="39.60373" lon="-0.454364">
        <ele>101</ele>
        <time>2018-11-04T08:29:10.000Z</time>
      </trkpt>
      <trkpt lat="39.603773" lon="-0.454336">
        <ele>101</ele>
        <time>2018-11-04T08:29:11.000Z</time>
      </trkpt>
      <trkpt lat="39.603817" lon="-0.45431">
        <ele>101</ele>
        <time>2018-11-04T08:29:12.000Z</time>
      </trkpt>
      <trkpt lat="39.603862" lon="-0.454282">
        <ele>101</ele>
        <time>2018-11-04T08:29:13.000Z</time>
      </trkpt>
      <trkpt lat="39.603906" lon="-0.454251">
        <ele>101</ele>
        <time>2018-11-04T08:29:14.000Z</time>
      </trkpt>
      <trkpt lat="39.60395" lon="-0.454222">
        <ele>101.633665373989</ele>
        <time>2018-11-04T08:29:15.000Z</time>
      </trkpt>
      <trkpt lat="39.603994" lon="-0.454195">
        <ele>102</ele>
        <time>2018-11-04T08:29:16.000Z</time>
      </trkpt>
      <trkpt lat="39.604039" lon="-0.454169">
        <ele>101.36</ele>
        <time>2018-11-04T08:29:17.000Z</time>
      </trkpt>
      <trkpt lat="39.604083" lon="-0.454142">
        <ele>101</ele>
        <time>2018-11-04T08:29:18.000Z</time>
      </trkpt>
      <trkpt lat="39.604129" lon="-0.454115">
        <ele>101</ele>
        <time>2018-11-04T08:29:19.000Z</time>
      </trkpt>
      <trkpt lat="39.604172" lon="-0.454087">
        <ele>101</ele>
        <time>2018-11-04T08:29:20.000Z</time>
      </trkpt>
      <trkpt lat="39.604214" lon="-0.454058">
        <ele>101</ele>
        <time>2018-11-04T08:29:21.000Z</time>
      </trkpt>
      <trkpt lat="39.604258" lon="-0.45403">
        <ele>101</ele>
        <time>2018-11-04T08:29:22.000Z</time>
      </trkpt>
      <trkpt lat="39.604302" lon="-0.454002">
        <ele>101</ele>
        <time>2018-11-04T08:29:23.000Z</time>
      </trkpt>
      <trkpt lat="39.604346" lon="-0.453974">
        <ele>101</ele>
        <time>2018-11-04T08:29:24.000Z</time>
      </trkpt>
      <trkpt lat="39.604389" lon="-0.453947">
        <ele>101</ele>
        <time>2018-11-04T08:29:25.000Z</time>
      </trkpt>
      <trkpt lat="39.604434" lon="-0.453921">
        <ele>101</ele>
        <time>2018-11-04T08:29:26.000Z</time>
      </trkpt>
      <trkpt lat="39.60448" lon="-0.453895">
        <ele>101</ele>
        <time>2018-11-04T08:29:27.000Z</time>
      </trkpt>
      <trkpt lat="39.604523" lon="-0.453869">
        <ele>101</ele>
        <time>2018-11-04T08:29:28.000Z</time>
      </trkpt>
      <trkpt lat="39.604564" lon="-0.453842">
        <ele>101</ele>
        <time>2018-11-04T08:29:29.000Z</time>
      </trkpt>
      <trkpt lat="39.604604" lon="-0.453814">
        <ele>101</ele>
        <time>2018-11-04T08:29:30.000Z</time>
      </trkpt>
      <trkpt lat="39.604645" lon="-0.453787">
        <ele>101</ele>
        <time>2018-11-04T08:29:31.000Z</time>
      </trkpt>
      <trkpt lat="39.604687" lon="-0.45376">
        <ele>101</ele>
        <time>2018-11-04T08:29:32.000Z</time>
      </trkpt>
      <trkpt lat="39.604728" lon="-0.453733">
        <ele>101</ele>
        <time>2018-11-04T08:29:33.000Z</time>
      </trkpt>
      <trkpt lat="39.604769" lon="-0.453705">
        <ele>101</ele>
        <time>2018-11-04T08:29:34.000Z</time>
      </trkpt>
      <trkpt lat="39.60481" lon="-0.45368">
        <ele>101</ele>
        <time>2018-11-04T08:29:35.000Z</time>
      </trkpt>
      <trkpt lat="39.604853" lon="-0.453656">
        <ele>101</ele>
        <time>2018-11-04T08:29:36.000Z</time>
      </trkpt>
      <trkpt lat="39.604897" lon="-0.45363">
        <ele>101</ele>
        <time>2018-11-04T08:29:37.000Z</time>
      </trkpt>
      <trkpt lat="39.60494" lon="-0.453604">
        <ele>101</ele>
        <time>2018-11-04T08:29:38.000Z</time>
      </trkpt>
      <trkpt lat="39.604983" lon="-0.453578">
        <ele>101</ele>
        <time>2018-11-04T08:29:39.000Z</time>
      </trkpt>
      <trkpt lat="39.605025" lon="-0.453549">
        <ele>101</ele>
        <time>2018-11-04T08:29:40.000Z</time>
      </trkpt>
      <trkpt lat="39.605068" lon="-0.453519">
        <ele>101</ele>
        <time>2018-11-04T08:29:41.000Z</time>
      </trkpt>
      <trkpt lat="39.60511" lon="-0.453489">
        <ele>101</ele>
        <time>2018-11-04T08:29:42.000Z</time>
      </trkpt>
      <trkpt lat="39.605151" lon="-0.453461">
        <ele>101</ele>
        <time>2018-11-04T08:29:43.000Z</time>
      </trkpt>
      <trkpt lat="39.605196" lon="-0.453434">
        <ele>101</ele>
        <time>2018-11-04T08:29:44.000Z</time>
      </trkpt>
      <trkpt lat="39.605242" lon="-0.45341">
        <ele>101</ele>
        <time>2018-11-04T08:29:45.000Z</time>
      </trkpt>
      <trkpt lat="39.605287" lon="-0.453384">
        <ele>101</ele>
        <time>2018-11-04T08:29:46.000Z</time>
      </trkpt>
      <trkpt lat="39.605331" lon="-0.453358">
        <ele>101</ele>
        <time>2018-11-04T08:29:47.000Z</time>
      </trkpt>
      <trkpt lat="39.605372" lon="-0.453332">
        <ele>101.64</ele>
        <time>2018-11-04T08:29:48.000Z</time>
      </trkpt>
      <trkpt lat="39.605411" lon="-0.453305">
        <ele>102</ele>
        <time>2018-11-04T08:29:49.000Z</time>
      </trkpt>
      <trkpt lat="39.605451" lon="-0.453279">
        <ele>101.36</ele>
        <time>2018-11-04T08:29:50.000Z</time>
      </trkpt>
      <trkpt lat="39.605493" lon="-0.453252">
        <ele>101</ele>
        <time>2018-11-04T08:29:51.000Z</time>
      </trkpt>
      <trkpt lat="39.605534" lon="-0.453226">
        <ele>101</ele>
        <time>2018-11-04T08:29:52.000Z</time>
      </trkpt>
      <trkpt lat="39.605577" lon="-0.453202">
        <ele>101</ele>
        <time>2018-11-04T08:29:53.000Z</time>
      </trkpt>
      <trkpt lat="39.605619" lon="-0.453177">
        <ele>101</ele>
        <time>2018-11-04T08:29:54.000Z</time>
      </trkpt>
      <trkpt lat="39.605661" lon="-0.453152">
        <ele>101</ele>
        <time>2018-11-04T08:29:55.000Z</time>
      </trkpt>
      <trkpt lat="39.605703" lon="-0.453126">
        <ele>101</ele>
        <time>2018-11-04T08:29:56.000Z</time>
      </trkpt>
      <trkpt lat="39.605745" lon="-0.453099">
        <ele>101.64</ele>
        <time>2018-11-04T08:29:57.000Z</time>
      </trkpt>
      <trkpt lat="39.605788" lon="-0.453073">
        <ele>101.36</ele>
        <time>2018-11-04T08:29:58.000Z</time>
      </trkpt>
      <trkpt lat="39.605831" lon="-0.453048">
        <ele>101</ele>
        <time>2018-11-04T08:29:59.000Z</time>
      </trkpt>
      <trkpt lat="39.605875" lon="-0.453023">
        <ele>101</ele>
        <time>2018-11-04T08:30:00.000Z</time>
      </trkpt>
      <trkpt lat="39.605917" lon="-0.452997">
        <ele>101.483870967742</ele>
        <time>2018-11-04T08:30:01.000Z</time>
      </trkpt>
      <trkpt lat="39.605961" lon="-0.452972">
        <ele>102</ele>
        <time>2018-11-04T08:30:02.000Z</time>
      </trkpt>
      <trkpt lat="39.606004" lon="-0.452947">
        <ele>101.36</ele>
        <time>2018-11-04T08:30:03.000Z</time>
      </trkpt>
      <trkpt lat="39.606046" lon="-0.452921">
        <ele>101</ele>
        <time>2018-11-04T08:30:04.000Z</time>
      </trkpt>
      <trkpt lat="39.606087" lon="-0.452893">
        <ele>101</ele>
        <time>2018-11-04T08:30:05.000Z</time>
      </trkpt>
      <trkpt lat="39.606129" lon="-0.452864">
        <ele>101.64</ele>
        <time>2018-11-04T08:30:06.000Z</time>
      </trkpt>
      <trkpt lat="39.606177" lon="-0.452838">
        <ele>102</ele>
        <time>2018-11-04T08:30:07.000Z</time>
      </trkpt>
      <trkpt lat="39.606221" lon="-0.452812">
        <ele>102</ele>
        <time>2018-11-04T08:30:08.000Z</time>
      </trkpt>
      <trkpt lat="39.606265" lon="-0.452784">
        <ele>102</ele>
        <time>2018-11-04T08:30:09.000Z</time>
      </trkpt>
      <trkpt lat="39.606312" lon="-0.452758">
        <ele>102.64</ele>
        <time>2018-11-04T08:30:10.000Z</time>
      </trkpt>
      <trkpt lat="39.606358" lon="-0.452732">
        <ele>103</ele>
        <time>2018-11-04T08:30:11.000Z</time>
      </trkpt>
      <trkpt lat="39.606405" lon="-0.452706">
        <ele>103</ele>
        <time>2018-11-04T08:30:12.000Z</time>
      </trkpt>
      <trkpt lat="39.606451" lon="-0.452678">
        <ele>103.64</ele>
        <time>2018-11-04T08:30:13.000Z</time>
      </trkpt>
      <trkpt lat="39.606497" lon="-0.452651">
        <ele>104</ele>
        <time>2018-11-04T08:30:14.000Z</time>
      </trkpt>
      <trkpt lat="39.606541" lon="-0.452624">
        <ele>104</ele>
        <time>2018-11-04T08:30:15.000Z</time>
      </trkpt>
      <trkpt lat="39.606587" lon="-0.452596">
        <ele>104</ele>
        <time>2018-11-04T08:30:16.000Z</time>
      </trkpt>
      <trkpt lat="39.606631" lon="-0.452569">
        <ele>104</ele>
        <time>2018-11-04T08:30:17.000Z</time>
      </trkpt>
      <trkpt lat="39.606673" lon="-0.452542">
        <ele>104</ele>
        <time>2018-11-04T08:30:18.000Z</time>
      </trkpt>
      <trkpt lat="39.606715" lon="-0.452514">
        <ele>104</ele>
        <time>2018-11-04T08:30:19.000Z</time>
      </trkpt>
      <trkpt lat="39.606759" lon="-0.452489">
        <ele>104</ele>
        <time>2018-11-04T08:30:20.000Z</time>
      </trkpt>
      <trkpt lat="39.606803" lon="-0.452463">
        <ele>104</ele>
        <time>2018-11-04T08:30:21.000Z</time>
      </trkpt>
      <trkpt lat="39.606847" lon="-0.452435">
        <ele>104</ele>
        <time>2018-11-04T08:30:22.000Z</time>
      </trkpt>
      <trkpt lat="39.60689" lon="-0.452407">
        <ele>104</ele>
        <time>2018-11-04T08:30:23.000Z</time>
      </trkpt>
      <trkpt lat="39.606933" lon="-0.452377">
        <ele>104.5</ele>
        <time>2018-11-04T08:30:24.000Z</time>
      </trkpt>
      <trkpt lat="39.606977" lon="-0.452349">
        <ele>105</ele>
        <time>2018-11-04T08:30:25.000Z</time>
      </trkpt>
      <trkpt lat="39.60702" lon="-0.452321">
        <ele>105</ele>
        <time>2018-11-04T08:30:26.000Z</time>
      </trkpt>
      <trkpt lat="39.607064" lon="-0.452293">
        <ele>105</ele>
        <time>2018-11-04T08:30:27.000Z</time>
      </trkpt>
      <trkpt lat="39.607109" lon="-0.452267">
        <ele>105</ele>
        <time>2018-11-04T08:30:28.000Z</time>
      </trkpt>
      <trkpt lat="39.607155" lon="-0.45224">
        <ele>105</ele>
        <time>2018-11-04T08:30:29.000Z</time>
      </trkpt>
      <trkpt lat="39.607201" lon="-0.45221">
        <ele>105</ele>
        <time>2018-11-04T08:30:30.000Z</time>
      </trkpt>
      <trkpt lat="39.607247" lon="-0.452181">
        <ele>105.64</ele>
        <time>2018-11-04T08:30:31.000Z</time>
      </trkpt>
      <trkpt lat="39.607292" lon="-0.452153">
        <ele>106</ele>
        <time>2018-11-04T08:30:32.000Z</time>
      </trkpt>
      <trkpt lat="39.607336" lon="-0.452125">
        <ele>106</ele>
        <time>2018-11-04T08:30:33.000Z</time>
      </trkpt>
      <trkpt lat="39.60738" lon="-0.452098">
        <ele>106</ele>
        <time>2018-11-04T08:30:34.000Z</time>
      </trkpt>
      <trkpt lat="39.607423" lon="-0.45207">
        <ele>106</ele>
        <time>2018-11-04T08:30:35.000Z</time>
      </trkpt>
      <trkpt lat="39.607466" lon="-0.452042">
        <ele>106</ele>
        <time>2018-11-04T08:30:36.000Z</time>
      </trkpt>
      <trkpt lat="39.60751" lon="-0.452016">
        <ele>106</ele>
        <time>2018-11-04T08:30:37.000Z</time>
      </trkpt>
      <trkpt lat="39.607555" lon="-0.451989">
        <ele>106</ele>
        <time>2018-11-04T08:30:38.000Z</time>
      </trkpt>
      <trkpt lat="39.6076" lon="-0.451961">
        <ele>106.49599614975</ele>
        <time>2018-11-04T08:30:39.000Z</time>
      </trkpt>
      <trkpt lat="39.607645" lon="-0.451933">
        <ele>107</ele>
        <time>2018-11-04T08:30:40.000Z</time>
      </trkpt>
      <trkpt lat="39.607691" lon="-0.451906">
        <ele>107</ele>
        <time>2018-11-04T08:30:41.000Z</time>
      </trkpt>
      <trkpt lat="39.607737" lon="-0.45188">
        <ele>107</ele>
        <time>2018-11-04T08:30:42.000Z</time>
      </trkpt>
      <trkpt lat="39.607784" lon="-0.451853">
        <ele>107</ele>
        <time>2018-11-04T08:30:43.000Z</time>
      </trkpt>
      <trkpt lat="39.607829" lon="-0.451826">
        <ele>107</ele>
        <time>2018-11-04T08:30:44.000Z</time>
      </trkpt>
      <trkpt lat="39.607873" lon="-0.451797">
        <ele>107</ele>
        <time>2018-11-04T08:30:45.000Z</time>
      </trkpt>
      <trkpt lat="39.607918" lon="-0.45177">
        <ele>107</ele>
        <time>2018-11-04T08:30:46.000Z</time>
      </trkpt>
      <trkpt lat="39.607964" lon="-0.451744">
        <ele>107</ele>
        <time>2018-11-04T08:30:47.000Z</time>
      </trkpt>
      <trkpt lat="39.608008" lon="-0.451716">
        <ele>107</ele>
        <time>2018-11-04T08:30:48.000Z</time>
      </trkpt>
      <trkpt lat="39.608052" lon="-0.451688">
        <ele>107</ele>
        <time>2018-11-04T08:30:49.000Z</time>
      </trkpt>
      <trkpt lat="39.608099" lon="-0.451661">
        <ele>107</ele>
        <time>2018-11-04T08:30:50.000Z</time>
      </trkpt>
      <trkpt lat="39.608145" lon="-0.451635">
        <ele>107</ele>
        <time>2018-11-04T08:30:51.000Z</time>
      </trkpt>
      <trkpt lat="39.608191" lon="-0.451607">
        <ele>107</ele>
        <time>2018-11-04T08:30:52.000Z</time>
      </trkpt>
      <trkpt lat="39.608237" lon="-0.451579">
        <ele>107.64</ele>
        <time>2018-11-04T08:30:53.000Z</time>
      </trkpt>
      <trkpt lat="39.608284" lon="-0.451549">
        <ele>108</ele>
        <time>2018-11-04T08:30:54.000Z</time>
      </trkpt>
      <trkpt lat="39.608332" lon="-0.451519">
        <ele>108</ele>
        <time>2018-11-04T08:30:55.000Z</time>
      </trkpt>
      <trkpt lat="39.60838" lon="-0.45149">
        <ele>108</ele>
        <time>2018-11-04T08:30:56.000Z</time>
      </trkpt>
      <trkpt lat="39.608428" lon="-0.45146">
        <ele>108</ele>
        <time>2018-11-04T08:30:57.000Z</time>
      </trkpt>
      <trkpt lat="39.608475" lon="-0.451431">
        <ele>108</ele>
        <time>2018-11-04T08:30:58.000Z</time>
      </trkpt>
      <trkpt lat="39.608522" lon="-0.451403">
        <ele>108</ele>
        <time>2018-11-04T08:30:59.000Z</time>
      </trkpt>
      <trkpt lat="39.608568" lon="-0.451375">
        <ele>108</ele>
        <time>2018-11-04T08:31:00.000Z</time>
      </trkpt>
      <trkpt lat="39.608615" lon="-0.451348">
        <ele>108</ele>
        <time>2018-11-04T08:31:01.000Z</time>
      </trkpt>
      <trkpt lat="39.608661" lon="-0.45132">
        <ele>108</ele>
        <time>2018-11-04T08:31:02.000Z</time>
      </trkpt>
      <trkpt lat="39.608705" lon="-0.451292">
        <ele>108.64</ele>
        <time>2018-11-04T08:31:03.000Z</time>
      </trkpt>
      <trkpt lat="39.608751" lon="-0.451264">
        <ele>109</ele>
        <time>2018-11-04T08:31:04.000Z</time>
      </trkpt>
      <trkpt lat="39.608796" lon="-0.451235">
        <ele>109</ele>
        <time>2018-11-04T08:31:05.000Z</time>
      </trkpt>
      <trkpt lat="39.60884" lon="-0.451206">
        <ele>109</ele>
        <time>2018-11-04T08:31:06.000Z</time>
      </trkpt>
      <trkpt lat="39.608885" lon="-0.451177">
        <ele>109</ele>
        <time>2018-11-04T08:31:07.000Z</time>
      </trkpt>
      <trkpt lat="39.608929" lon="-0.451149">
        <ele>109</ele>
        <time>2018-11-04T08:31:08.000Z</time>
      </trkpt>
      <trkpt lat="39.608971" lon="-0.451122">
        <ele>109</ele>
        <time>2018-11-04T08:31:09.000Z</time>
      </trkpt>
      <trkpt lat="39.609016" lon="-0.451095">
        <ele>109</ele>
        <time>2018-11-04T08:31:10.000Z</time>
      </trkpt>
      <trkpt lat="39.609059" lon="-0.451066">
        <ele>109</ele>
        <time>2018-11-04T08:31:11.000Z</time>
      </trkpt>
      <trkpt lat="39.609101" lon="-0.451035">
        <ele>109</ele>
        <time>2018-11-04T08:31:12.000Z</time>
      </trkpt>
      <trkpt lat="39.609143" lon="-0.451007">
        <ele>109</ele>
        <time>2018-11-04T08:31:13.000Z</time>
      </trkpt>
      <trkpt lat="39.609186" lon="-0.45098">
        <ele>109</ele>
        <time>2018-11-04T08:31:14.000Z</time>
      </trkpt>
      <trkpt lat="39.609229" lon="-0.450951">
        <ele>109</ele>
        <time>2018-11-04T08:31:15.000Z</time>
      </trkpt>
      <trkpt lat="39.609271" lon="-0.450923">
        <ele>109</ele>
        <time>2018-11-04T08:31:16.000Z</time>
      </trkpt>
      <trkpt lat="39.609314" lon="-0.450895">
        <ele>109</ele>
        <time>2018-11-04T08:31:17.000Z</time>
      </trkpt>
      <trkpt lat="39.609359" lon="-0.450866">
        <ele>109</ele>
        <time>2018-11-04T08:31:18.000Z</time>
      </trkpt>
      <trkpt lat="39.609404" lon="-0.450839">
        <ele>109</ele>
        <time>2018-11-04T08:31:19.000Z</time>
      </trkpt>
      <trkpt lat="39.609449" lon="-0.450813">
        <ele>109</ele>
        <time>2018-11-04T08:31:20.000Z</time>
      </trkpt>
      <trkpt lat="39.609493" lon="-0.450786">
        <ele>109</ele>
        <time>2018-11-04T08:31:21.000Z</time>
      </trkpt>
      <trkpt lat="39.609537" lon="-0.450756">
        <ele>109</ele>
        <time>2018-11-04T08:31:22.000Z</time>
      </trkpt>
      <trkpt lat="39.60958" lon="-0.450729">
        <ele>109</ele>
        <time>2018-11-04T08:31:23.000Z</time>
      </trkpt>
      <trkpt lat="39.609622" lon="-0.4507">
        <ele>109.5</ele>
        <time>2018-11-04T08:31:24.000Z</time>
      </trkpt>
      <trkpt lat="39.609666" lon="-0.450669">
        <ele>110</ele>
        <time>2018-11-04T08:31:25.000Z</time>
      </trkpt>
      <trkpt lat="39.609709" lon="-0.450639">
        <ele>110</ele>
        <time>2018-11-04T08:31:26.000Z</time>
      </trkpt>
      <trkpt lat="39.609753" lon="-0.450609">
        <ele>110</ele>
        <time>2018-11-04T08:31:27.000Z</time>
      </trkpt>
      <trkpt lat="39.609795" lon="-0.450578">
        <ele>110</ele>
        <time>2018-11-04T08:31:28.000Z</time>
      </trkpt>
      <trkpt lat="39.609836" lon="-0.450547">
        <ele>110</ele>
        <time>2018-11-04T08:31:29.000Z</time>
      </trkpt>
      <trkpt lat="39.609879" lon="-0.450521">
        <ele>110</ele>
        <time>2018-11-04T08:31:30.000Z</time>
      </trkpt>
      <trkpt lat="39.609922" lon="-0.450496">
        <ele>110</ele>
        <time>2018-11-04T08:31:31.000Z</time>
      </trkpt>
      <trkpt lat="39.609966" lon="-0.45047">
        <ele>110</ele>
        <time>2018-11-04T08:31:32.000Z</time>
      </trkpt>
      <trkpt lat="39.610011" lon="-0.450444">
        <ele>110</ele>
        <time>2018-11-04T08:31:33.000Z</time>
      </trkpt>
      <trkpt lat="39.610058" lon="-0.45042">
        <ele>109.5</ele>
        <time>2018-11-04T08:31:34.000Z</time>
      </trkpt>
      <trkpt lat="39.610104" lon="-0.450395">
        <ele>109</ele>
        <time>2018-11-04T08:31:35.000Z</time>
      </trkpt>
      <trkpt lat="39.61015" lon="-0.450369">
        <ele>109</ele>
        <time>2018-11-04T08:31:36.000Z</time>
      </trkpt>
      <trkpt lat="39.610196" lon="-0.450343">
        <ele>109</ele>
        <time>2018-11-04T08:31:37.000Z</time>
      </trkpt>
      <trkpt lat="39.610243" lon="-0.450314">
        <ele>109.64</ele>
        <time>2018-11-04T08:31:38.000Z</time>
      </trkpt>
      <trkpt lat="39.610291" lon="-0.450283">
        <ele>110</ele>
        <time>2018-11-04T08:31:39.000Z</time>
      </trkpt>
      <trkpt lat="39.610338" lon="-0.450253">
        <ele>110</ele>
        <time>2018-11-04T08:31:40.000Z</time>
      </trkpt>
      <trkpt lat="39.610387" lon="-0.450226">
        <ele>110</ele>
        <time>2018-11-04T08:31:41.000Z</time>
      </trkpt>
      <trkpt lat="39.610436" lon="-0.450197">
        <ele>110</ele>
        <time>2018-11-04T08:31:42.000Z</time>
      </trkpt>
      <trkpt lat="39.610486" lon="-0.450166">
        <ele>110</ele>
        <time>2018-11-04T08:31:43.000Z</time>
      </trkpt>
      <trkpt lat="39.610537" lon="-0.450134">
        <ele>110</ele>
        <time>2018-11-04T08:31:44.000Z</time>
      </trkpt>
      <trkpt lat="39.610589" lon="-0.450103">
        <ele>110</ele>
        <time>2018-11-04T08:31:45.000Z</time>
      </trkpt>
      <trkpt lat="39.610641" lon="-0.450072">
        <ele>110</ele>
        <time>2018-11-04T08:31:46.000Z</time>
      </trkpt>
      <trkpt lat="39.610694" lon="-0.45004">
        <ele>110</ele>
        <time>2018-11-04T08:31:47.000Z</time>
      </trkpt>
      <trkpt lat="39.610747" lon="-0.45001">
        <ele>110</ele>
        <time>2018-11-04T08:31:48.000Z</time>
      </trkpt>
      <trkpt lat="39.610799" lon="-0.449978">
        <ele>110</ele>
        <time>2018-11-04T08:31:49.000Z</time>
      </trkpt>
      <trkpt lat="39.61085" lon="-0.449945">
        <ele>110</ele>
        <time>2018-11-04T08:31:50.000Z</time>
      </trkpt>
      <trkpt lat="39.610901" lon="-0.449912">
        <ele>110</ele>
        <time>2018-11-04T08:31:51.000Z</time>
      </trkpt>
      <trkpt lat="39.610952" lon="-0.449879">
        <ele>110</ele>
        <time>2018-11-04T08:31:52.000Z</time>
      </trkpt>
      <trkpt lat="39.611006" lon="-0.449848">
        <ele>110</ele>
        <time>2018-11-04T08:31:53.000Z</time>
      </trkpt>
      <trkpt lat="39.611058" lon="-0.449817">
        <ele>110</ele>
        <time>2018-11-04T08:31:54.000Z</time>
      </trkpt>
      <trkpt lat="39.611109" lon="-0.449785">
        <ele>110</ele>
        <time>2018-11-04T08:31:55.000Z</time>
      </trkpt>
      <trkpt lat="39.611161" lon="-0.449752">
        <ele>110</ele>
        <time>2018-11-04T08:31:56.000Z</time>
      </trkpt>
      <trkpt lat="39.611212" lon="-0.449721">
        <ele>110</ele>
        <time>2018-11-04T08:31:57.000Z</time>
      </trkpt>
      <trkpt lat="39.611261" lon="-0.44969">
        <ele>110</ele>
        <time>2018-11-04T08:31:58.000Z</time>
      </trkpt>
      <trkpt lat="39.61131" lon="-0.449658">
        <ele>110</ele>
        <time>2018-11-04T08:31:59.000Z</time>
      </trkpt>
      <trkpt lat="39.611357" lon="-0.449628">
        <ele>110</ele>
        <time>2018-11-04T08:32:00.000Z</time>
      </trkpt>
      <trkpt lat="39.611404" lon="-0.449599">
        <ele>110</ele>
        <time>2018-11-04T08:32:01.000Z</time>
      </trkpt>
      <trkpt lat="39.611448" lon="-0.449571">
        <ele>110</ele>
        <time>2018-11-04T08:32:02.000Z</time>
      </trkpt>
      <trkpt lat="39.611491" lon="-0.449541">
        <ele>110</ele>
        <time>2018-11-04T08:32:03.000Z</time>
      </trkpt>
      <trkpt lat="39.611534" lon="-0.44951">
        <ele>110</ele>
        <time>2018-11-04T08:32:04.000Z</time>
      </trkpt>
      <trkpt lat="39.611578" lon="-0.449479">
        <ele>110</ele>
        <time>2018-11-04T08:32:05.000Z</time>
      </trkpt>
      <trkpt lat="39.611622" lon="-0.449447">
        <ele>110</ele>
        <time>2018-11-04T08:32:06.000Z</time>
      </trkpt>
      <trkpt lat="39.611671" lon="-0.449417">
        <ele>109.36</ele>
        <time>2018-11-04T08:32:07.000Z</time>
      </trkpt>
      <trkpt lat="39.611717" lon="-0.449387">
        <ele>109.64</ele>
        <time>2018-11-04T08:32:08.000Z</time>
      </trkpt>
      <trkpt lat="39.611766" lon="-0.449358">
        <ele>110</ele>
        <time>2018-11-04T08:32:09.000Z</time>
      </trkpt>
      <trkpt lat="39.611815" lon="-0.449327">
        <ele>110</ele>
        <time>2018-11-04T08:32:10.000Z</time>
      </trkpt>
      <trkpt lat="39.611861" lon="-0.449296">
        <ele>110</ele>
        <time>2018-11-04T08:32:11.000Z</time>
      </trkpt>
      <trkpt lat="39.611911" lon="-0.449266">
        <ele>110</ele>
        <time>2018-11-04T08:32:12.000Z</time>
      </trkpt>
      <trkpt lat="39.611958" lon="-0.449235">
        <ele>110.633665373989</ele>
        <time>2018-11-04T08:32:13.000Z</time>
      </trkpt>
      <trkpt lat="39.612012" lon="-0.449208">
        <ele>111.496064261885</ele>
        <time>2018-11-04T08:32:14.000Z</time>
      </trkpt>
      <trkpt lat="39.612067" lon="-0.44918">
        <ele>112</ele>
        <time>2018-11-04T08:32:15.000Z</time>
      </trkpt>
      <trkpt lat="39.612115" lon="-0.449148">
        <ele>112.64</ele>
        <time>2018-11-04T08:32:16.000Z</time>
      </trkpt>
      <trkpt lat="39.612162" lon="-0.449114">
        <ele>113</ele>
        <time>2018-11-04T08:32:17.000Z</time>
      </trkpt>
      <trkpt lat="39.612208" lon="-0.449081">
        <ele>113</ele>
        <time>2018-11-04T08:32:18.000Z</time>
      </trkpt>
      <trkpt lat="39.612252" lon="-0.449047">
        <ele>113</ele>
        <time>2018-11-04T08:32:19.000Z</time>
      </trkpt>
      <trkpt lat="39.612296" lon="-0.449009">
        <ele>113</ele>
        <time>2018-11-04T08:32:20.000Z</time>
      </trkpt>
      <trkpt lat="39.612339" lon="-0.448971">
        <ele>113</ele>
        <time>2018-11-04T08:32:21.000Z</time>
      </trkpt>
      <trkpt lat="39.61238" lon="-0.448931">
        <ele>113</ele>
        <time>2018-11-04T08:32:22.000Z</time>
      </trkpt>
      <trkpt lat="39.612419" lon="-0.448889">
        <ele>113</ele>
        <time>2018-11-04T08:32:23.000Z</time>
      </trkpt>
      <trkpt lat="39.612457" lon="-0.448841">
        <ele>113</ele>
        <time>2018-11-04T08:32:24.000Z</time>
      </trkpt>
      <trkpt lat="39.612492" lon="-0.44879">
        <ele>113</ele>
        <time>2018-11-04T08:32:25.000Z</time>
      </trkpt>
      <trkpt lat="39.612525" lon="-0.448739">
        <ele>113</ele>
        <time>2018-11-04T08:32:26.000Z</time>
      </trkpt>
      <trkpt lat="39.612556" lon="-0.448688">
        <ele>113</ele>
        <time>2018-11-04T08:32:27.000Z</time>
      </trkpt>
      <trkpt lat="39.612582" lon="-0.448635">
        <ele>113</ele>
        <time>2018-11-04T08:32:28.000Z</time>
      </trkpt>
      <trkpt lat="39.612607" lon="-0.448583">
        <ele>112.36</ele>
        <time>2018-11-04T08:32:29.000Z</time>
      </trkpt>
      <trkpt lat="39.612634" lon="-0.448532">
        <ele>112</ele>
        <time>2018-11-04T08:32:30.000Z</time>
      </trkpt>
      <trkpt lat="39.61266" lon="-0.448482">
        <ele>112</ele>
        <time>2018-11-04T08:32:31.000Z</time>
      </trkpt>
      <trkpt lat="39.612685" lon="-0.448432">
        <ele>112</ele>
        <time>2018-11-04T08:32:32.000Z</time>
      </trkpt>
      <trkpt lat="39.612709" lon="-0.448382">
        <ele>112</ele>
        <time>2018-11-04T08:32:33.000Z</time>
      </trkpt>
      <trkpt lat="39.612734" lon="-0.448333">
        <ele>112</ele>
        <time>2018-11-04T08:32:34.000Z</time>
      </trkpt>
      <trkpt lat="39.612761" lon="-0.448284">
        <ele>112</ele>
        <time>2018-11-04T08:32:35.000Z</time>
      </trkpt>
      <trkpt lat="39.612787" lon="-0.448235">
        <ele>112.542369939688</ele>
        <time>2018-11-04T08:32:36.000Z</time>
      </trkpt>
      <trkpt lat="39.612812" lon="-0.448185">
        <ele>113</ele>
        <time>2018-11-04T08:32:37.000Z</time>
      </trkpt>
      <trkpt lat="39.612838" lon="-0.448137">
        <ele>113</ele>
        <time>2018-11-04T08:32:38.000Z</time>
      </trkpt>
      <trkpt lat="39.612865" lon="-0.448089">
        <ele>113</ele>
        <time>2018-11-04T08:32:39.000Z</time>
      </trkpt>
      <trkpt lat="39.612891" lon="-0.44804">
        <ele>113</ele>
        <time>2018-11-04T08:32:40.000Z</time>
      </trkpt>
      <trkpt lat="39.612917" lon="-0.447991">
        <ele>113</ele>
        <time>2018-11-04T08:32:41.000Z</time>
      </trkpt>
      <trkpt lat="39.61294" lon="-0.447944">
        <ele>113</ele>
        <time>2018-11-04T08:32:42.000Z</time>
      </trkpt>
      <trkpt lat="39.612965" lon="-0.447898">
        <ele>113</ele>
        <time>2018-11-04T08:32:43.000Z</time>
      </trkpt>
      <trkpt lat="39.61299" lon="-0.447852">
        <ele>113</ele>
        <time>2018-11-04T08:32:44.000Z</time>
      </trkpt>
      <trkpt lat="39.613017" lon="-0.447807">
        <ele>113</ele>
        <time>2018-11-04T08:32:45.000Z</time>
      </trkpt>
      <trkpt lat="39.613046" lon="-0.447761">
        <ele>113</ele>
        <time>2018-11-04T08:32:46.000Z</time>
      </trkpt>
      <trkpt lat="39.613073" lon="-0.447715">
        <ele>113</ele>
        <time>2018-11-04T08:32:47.000Z</time>
      </trkpt>
      <trkpt lat="39.6131" lon="-0.447668">
        <ele>113</ele>
        <time>2018-11-04T08:32:48.000Z</time>
      </trkpt>
      <trkpt lat="39.613129" lon="-0.447622">
        <ele>113</ele>
        <time>2018-11-04T08:32:49.000Z</time>
      </trkpt>
      <trkpt lat="39.613156" lon="-0.447576">
        <ele>113</ele>
        <time>2018-11-04T08:32:50.000Z</time>
      </trkpt>
      <trkpt lat="39.613183" lon="-0.44753">
        <ele>113</ele>
        <time>2018-11-04T08:32:51.000Z</time>
      </trkpt>
      <trkpt lat="39.613211" lon="-0.447485">
        <ele>113</ele>
        <time>2018-11-04T08:32:52.000Z</time>
      </trkpt>
      <trkpt lat="39.61324" lon="-0.447439">
        <ele>113</ele>
        <time>2018-11-04T08:32:53.000Z</time>
      </trkpt>
      <trkpt lat="39.613265" lon="-0.447394">
        <ele>113</ele>
        <time>2018-11-04T08:32:54.000Z</time>
      </trkpt>
      <trkpt lat="39.613289" lon="-0.447351">
        <ele>113</ele>
        <time>2018-11-04T08:32:55.000Z</time>
      </trkpt>
      <trkpt lat="39.613313" lon="-0.447308">
        <ele>113</ele>
        <time>2018-11-04T08:32:56.000Z</time>
      </trkpt>
      <trkpt lat="39.613338" lon="-0.447265">
        <ele>113</ele>
        <time>2018-11-04T08:32:57.000Z</time>
      </trkpt>
      <trkpt lat="39.613362" lon="-0.447222">
        <ele>113</ele>
        <time>2018-11-04T08:32:58.000Z</time>
      </trkpt>
      <trkpt lat="39.613385" lon="-0.447179">
        <ele>113</ele>
        <time>2018-11-04T08:32:59.000Z</time>
      </trkpt>
      <trkpt lat="39.61341" lon="-0.447136">
        <ele>113</ele>
        <time>2018-11-04T08:33:00.000Z</time>
      </trkpt>
      <trkpt lat="39.613434" lon="-0.447091">
        <ele>113.64</ele>
        <time>2018-11-04T08:33:01.000Z</time>
      </trkpt>
      <trkpt lat="39.613456" lon="-0.447047">
        <ele>114</ele>
        <time>2018-11-04T08:33:02.000Z</time>
      </trkpt>
      <trkpt lat="39.613479" lon="-0.447003">
        <ele>114</ele>
        <time>2018-11-04T08:33:03.000Z</time>
      </trkpt>
      <trkpt lat="39.613501" lon="-0.446962">
        <ele>114</ele>
        <time>2018-11-04T08:33:04.000Z</time>
      </trkpt>
      <trkpt lat="39.613522" lon="-0.446922">
        <ele>114</ele>
        <time>2018-11-04T08:33:05.000Z</time>
      </trkpt>
      <trkpt lat="39.613543" lon="-0.446881">
        <ele>114</ele>
        <time>2018-11-04T08:33:06.000Z</time>
      </trkpt>
      <trkpt lat="39.613565" lon="-0.44684">
        <ele>114</ele>
        <time>2018-11-04T08:33:07.000Z</time>
      </trkpt>
      <trkpt lat="39.613588" lon="-0.446799">
        <ele>114</ele>
        <time>2018-11-04T08:33:08.000Z</time>
      </trkpt>
      <trkpt lat="39.613611" lon="-0.446758">
        <ele>114</ele>
        <time>2018-11-04T08:33:09.000Z</time>
      </trkpt>
      <trkpt lat="39.613636" lon="-0.446717">
        <ele>114.64</ele>
        <time>2018-11-04T08:33:10.000Z</time>
      </trkpt>
      <trkpt lat="39.613659" lon="-0.446675">
        <ele>115</ele>
        <time>2018-11-04T08:33:11.000Z</time>
      </trkpt>
      <trkpt lat="39.613682" lon="-0.446633">
        <ele>115</ele>
        <time>2018-11-04T08:33:12.000Z</time>
      </trkpt>
      <trkpt lat="39.613701" lon="-0.446589">
        <ele>115</ele>
        <time>2018-11-04T08:33:13.000Z</time>
      </trkpt>
      <trkpt lat="39.61372" lon="-0.446544">
        <ele>115</ele>
        <time>2018-11-04T08:33:14.000Z</time>
      </trkpt>
      <trkpt lat="39.613739" lon="-0.446501">
        <ele>115</ele>
        <time>2018-11-04T08:33:15.000Z</time>
      </trkpt>
      <trkpt lat="39.61376" lon="-0.44646">
        <ele>115</ele>
        <time>2018-11-04T08:33:16.000Z</time>
      </trkpt>
      <trkpt lat="39.61378" lon="-0.446417">
        <ele>115</ele>
        <time>2018-11-04T08:33:17.000Z</time>
      </trkpt>
      <trkpt lat="39.613801" lon="-0.446377">
        <ele>115</ele>
        <time>2018-11-04T08:33:18.000Z</time>
      </trkpt>
      <trkpt lat="39.613824" lon="-0.446337">
        <ele>115</ele>
        <time>2018-11-04T08:33:19.000Z</time>
      </trkpt>
      <trkpt lat="39.613846" lon="-0.446295">
        <ele>115</ele>
        <time>2018-11-04T08:33:20.000Z</time>
      </trkpt>
      <trkpt lat="39.613872" lon="-0.446254">
        <ele>115</ele>
        <time>2018-11-04T08:33:21.000Z</time>
      </trkpt>
      <trkpt lat="39.613895" lon="-0.446212">
        <ele>115</ele>
        <time>2018-11-04T08:33:22.000Z</time>
      </trkpt>
      <trkpt lat="39.613917" lon="-0.446168">
        <ele>115</ele>
        <time>2018-11-04T08:33:23.000Z</time>
      </trkpt>
      <trkpt lat="39.613939" lon="-0.446124">
        <ele>115</ele>
        <time>2018-11-04T08:33:24.000Z</time>
      </trkpt>
      <trkpt lat="39.613959" lon="-0.446083">
        <ele>115.64</ele>
        <time>2018-11-04T08:33:25.000Z</time>
      </trkpt>
      <trkpt lat="39.613979" lon="-0.446042">
        <ele>116</ele>
        <time>2018-11-04T08:33:26.000Z</time>
      </trkpt>
      <trkpt lat="39.614" lon="-0.446001">
        <ele>116</ele>
        <time>2018-11-04T08:33:27.000Z</time>
      </trkpt>
      <trkpt lat="39.61402" lon="-0.445959">
        <ele>116</ele>
        <time>2018-11-04T08:33:28.000Z</time>
      </trkpt>
      <trkpt lat="39.614042" lon="-0.445918">
        <ele>116</ele>
        <time>2018-11-04T08:33:29.000Z</time>
      </trkpt>
      <trkpt lat="39.614063" lon="-0.44588">
        <ele>116</ele>
        <time>2018-11-04T08:33:30.000Z</time>
      </trkpt>
      <trkpt lat="39.614085" lon="-0.445841">
        <ele>116</ele>
        <time>2018-11-04T08:33:31.000Z</time>
      </trkpt>
      <trkpt lat="39.614108" lon="-0.445801">
        <ele>116</ele>
        <time>2018-11-04T08:33:32.000Z</time>
      </trkpt>
      <trkpt lat="39.614131" lon="-0.445762">
        <ele>116</ele>
        <time>2018-11-04T08:33:33.000Z</time>
      </trkpt>
      <trkpt lat="39.614151" lon="-0.445719">
        <ele>116</ele>
        <time>2018-11-04T08:33:34.000Z</time>
      </trkpt>
      <trkpt lat="39.614172" lon="-0.44568">
        <ele>116</ele>
        <time>2018-11-04T08:33:35.000Z</time>
      </trkpt>
      <trkpt lat="39.614191" lon="-0.445642">
        <ele>116</ele>
        <time>2018-11-04T08:33:36.000Z</time>
      </trkpt>
      <trkpt lat="39.614212" lon="-0.445605">
        <ele>116</ele>
        <time>2018-11-04T08:33:37.000Z</time>
      </trkpt>
      <trkpt lat="39.61423" lon="-0.445567">
        <ele>116</ele>
        <time>2018-11-04T08:33:38.000Z</time>
      </trkpt>
      <trkpt lat="39.614247" lon="-0.445532">
        <ele>116.64</ele>
        <time>2018-11-04T08:33:39.000Z</time>
      </trkpt>
      <trkpt lat="39.614263" lon="-0.445487">
        <ele>117</ele>
        <time>2018-11-04T08:33:40.000Z</time>
      </trkpt>
      <trkpt lat="39.614282" lon="-0.445442">
        <ele>117</ele>
        <time>2018-11-04T08:33:41.000Z</time>
      </trkpt>
      <trkpt lat="39.614303" lon="-0.445401">
        <ele>117</ele>
        <time>2018-11-04T08:33:42.000Z</time>
      </trkpt>
      <trkpt lat="39.614324" lon="-0.445362">
        <ele>117</ele>
        <time>2018-11-04T08:33:43.000Z</time>
      </trkpt>
      <trkpt lat="39.614346" lon="-0.445318">
        <ele>117</ele>
        <time>2018-11-04T08:33:44.000Z</time>
      </trkpt>
      <trkpt lat="39.61437" lon="-0.445278">
        <ele>117</ele>
        <time>2018-11-04T08:33:45.000Z</time>
      </trkpt>
      <trkpt lat="39.614394" lon="-0.445238">
        <ele>117</ele>
        <time>2018-11-04T08:33:46.000Z</time>
      </trkpt>
      <trkpt lat="39.614419" lon="-0.445192">
        <ele>117</ele>
        <time>2018-11-04T08:33:47.000Z</time>
      </trkpt>
      <trkpt lat="39.614444" lon="-0.445146">
        <ele>117.64</ele>
        <time>2018-11-04T08:33:48.000Z</time>
      </trkpt>
      <trkpt lat="39.614474" lon="-0.445101">
        <ele>118</ele>
        <time>2018-11-04T08:33:49.000Z</time>
      </trkpt>
      <trkpt lat="39.614503" lon="-0.44506">
        <ele>118</ele>
        <time>2018-11-04T08:33:50.000Z</time>
      </trkpt>
      <trkpt lat="39.614527" lon="-0.445022">
        <ele>118</ele>
        <time>2018-11-04T08:33:51.000Z</time>
      </trkpt>
      <trkpt lat="39.61455" lon="-0.444978">
        <ele>118</ele>
        <time>2018-11-04T08:33:52.000Z</time>
      </trkpt>
      <trkpt lat="39.614575" lon="-0.444931">
        <ele>118.64</ele>
        <time>2018-11-04T08:33:53.000Z</time>
      </trkpt>
      <trkpt lat="39.614598" lon="-0.444886">
        <ele>119</ele>
        <time>2018-11-04T08:33:54.000Z</time>
      </trkpt>
      <trkpt lat="39.614621" lon="-0.444841">
        <ele>119</ele>
        <time>2018-11-04T08:33:55.000Z</time>
      </trkpt>
      <trkpt lat="39.614642" lon="-0.444796">
        <ele>119</ele>
        <time>2018-11-04T08:33:56.000Z</time>
      </trkpt>
      <trkpt lat="39.614667" lon="-0.444752">
        <ele>119.492960031729</ele>
        <time>2018-11-04T08:33:57.000Z</time>
      </trkpt>
      <trkpt lat="39.61469" lon="-0.444706">
        <ele>120</ele>
        <time>2018-11-04T08:33:58.000Z</time>
      </trkpt>
      <trkpt lat="39.614714" lon="-0.444662">
        <ele>120.64</ele>
        <time>2018-11-04T08:33:59.000Z</time>
      </trkpt>
      <trkpt lat="39.61474" lon="-0.444618">
        <ele>121</ele>
        <time>2018-11-04T08:34:00.000Z</time>
      </trkpt>
      <trkpt lat="39.614766" lon="-0.444572">
        <ele>121</ele>
        <time>2018-11-04T08:34:01.000Z</time>
      </trkpt>
      <trkpt lat="39.614794" lon="-0.444527">
        <ele>121</ele>
        <time>2018-11-04T08:34:02.000Z</time>
      </trkpt>
      <trkpt lat="39.614818" lon="-0.444486">
        <ele>121</ele>
        <time>2018-11-04T08:34:03.000Z</time>
      </trkpt>
      <trkpt lat="39.614842" lon="-0.444443">
        <ele>121.64</ele>
        <time>2018-11-04T08:34:04.000Z</time>
      </trkpt>
      <trkpt lat="39.614864" lon="-0.444399">
        <ele>122</ele>
        <time>2018-11-04T08:34:05.000Z</time>
      </trkpt>
      <trkpt lat="39.614895" lon="-0.444357">
        <ele>122</ele>
        <time>2018-11-04T08:34:06.000Z</time>
      </trkpt>
      <trkpt lat="39.61492" lon="-0.444317">
        <ele>122.633665373989</ele>
        <time>2018-11-04T08:34:07.000Z</time>
      </trkpt>
      <trkpt lat="39.614944" lon="-0.444277">
        <ele>123</ele>
        <time>2018-11-04T08:34:08.000Z</time>
      </trkpt>
      <trkpt lat="39.614968" lon="-0.444234">
        <ele>123.1</ele>
        <time>2018-11-04T08:34:09.000Z</time>
      </trkpt>
      <trkpt lat="39.614996" lon="-0.444193">
        <ele>124</ele>
        <time>2018-11-04T08:34:10.000Z</time>
      </trkpt>
      <trkpt lat="39.615022" lon="-0.444152">
        <ele>124.64</ele>
        <time>2018-11-04T08:34:11.000Z</time>
      </trkpt>
      <trkpt lat="39.615047" lon="-0.444112">
        <ele>125</ele>
        <time>2018-11-04T08:34:12.000Z</time>
      </trkpt>
      <trkpt lat="39.615074" lon="-0.44407">
        <ele>125.64</ele>
        <time>2018-11-04T08:34:13.000Z</time>
      </trkpt>
      <trkpt lat="39.615096" lon="-0.444029">
        <ele>126</ele>
        <time>2018-11-04T08:34:14.000Z</time>
      </trkpt>
      <trkpt lat="39.615118" lon="-0.443989">
        <ele>126</ele>
        <time>2018-11-04T08:34:15.000Z</time>
      </trkpt>
      <trkpt lat="39.615136" lon="-0.44395">
        <ele>126</ele>
        <time>2018-11-04T08:34:16.000Z</time>
      </trkpt>
      <trkpt lat="39.615157" lon="-0.443909">
        <ele>126</ele>
        <time>2018-11-04T08:34:17.000Z</time>
      </trkpt>
      <trkpt lat="39.61518" lon="-0.443868">
        <ele>126</ele>
        <time>2018-11-04T08:34:18.000Z</time>
      </trkpt>
      <trkpt lat="39.615202" lon="-0.443828">
        <ele>126</ele>
        <time>2018-11-04T08:34:19.000Z</time>
      </trkpt>
      <trkpt lat="39.615224" lon="-0.44379">
        <ele>126</ele>
        <time>2018-11-04T08:34:20.000Z</time>
      </trkpt>
      <trkpt lat="39.615244" lon="-0.443752">
        <ele>126</ele>
        <time>2018-11-04T08:34:21.000Z</time>
      </trkpt>
      <trkpt lat="39.615266" lon="-0.443714">
        <ele>126</ele>
        <time>2018-11-04T08:34:22.000Z</time>
      </trkpt>
      <trkpt lat="39.615288" lon="-0.443672">
        <ele>126.633665373989</ele>
        <time>2018-11-04T08:34:23.000Z</time>
      </trkpt>
      <trkpt lat="39.61531" lon="-0.44363">
        <ele>127</ele>
        <time>2018-11-04T08:34:24.000Z</time>
      </trkpt>
      <trkpt lat="39.615336" lon="-0.443586">
        <ele>127</ele>
        <time>2018-11-04T08:34:25.000Z</time>
      </trkpt>
      <trkpt lat="39.615358" lon="-0.44354">
        <ele>127</ele>
        <time>2018-11-04T08:34:26.000Z</time>
      </trkpt>
      <trkpt lat="39.61538" lon="-0.443493">
        <ele>126.496064261885</ele>
        <time>2018-11-04T08:34:27.000Z</time>
      </trkpt>
      <trkpt lat="39.615402" lon="-0.443444">
        <ele>126</ele>
        <time>2018-11-04T08:34:28.000Z</time>
      </trkpt>
      <trkpt lat="39.615424" lon="-0.443395">
        <ele>126</ele>
        <time>2018-11-04T08:34:29.000Z</time>
      </trkpt>
      <trkpt lat="39.61545" lon="-0.443346">
        <ele>126</ele>
        <time>2018-11-04T08:34:30.000Z</time>
      </trkpt>
      <trkpt lat="39.615474" lon="-0.443297">
        <ele>126.64</ele>
        <time>2018-11-04T08:34:31.000Z</time>
      </trkpt>
      <trkpt lat="39.6155" lon="-0.443248">
        <ele>126.36</ele>
        <time>2018-11-04T08:34:32.000Z</time>
      </trkpt>
      <trkpt lat="39.615526" lon="-0.443198">
        <ele>126</ele>
        <time>2018-11-04T08:34:33.000Z</time>
      </trkpt>
      <trkpt lat="39.615552" lon="-0.44315">
        <ele>126.506847153303</ele>
        <time>2018-11-04T08:34:34.000Z</time>
      </trkpt>
      <trkpt lat="39.615579" lon="-0.443102">
        <ele>127</ele>
        <time>2018-11-04T08:34:35.000Z</time>
      </trkpt>
      <trkpt lat="39.615604" lon="-0.443058">
        <ele>127</ele>
        <time>2018-11-04T08:34:36.000Z</time>
      </trkpt>
      <trkpt lat="39.615628" lon="-0.443014">
        <ele>127.627454917364</ele>
        <time>2018-11-04T08:34:37.000Z</time>
      </trkpt>
      <trkpt lat="39.615655" lon="-0.442973">
        <ele>128</ele>
        <time>2018-11-04T08:34:38.000Z</time>
      </trkpt>
      <trkpt lat="39.61568" lon="-0.442934">
        <ele>128</ele>
        <time>2018-11-04T08:34:39.000Z</time>
      </trkpt>
      <trkpt lat="39.615705" lon="-0.442896">
        <ele>128.64</ele>
        <time>2018-11-04T08:34:40.000Z</time>
      </trkpt>
      <trkpt lat="39.615726" lon="-0.442857">
        <ele>129</ele>
        <time>2018-11-04T08:34:41.000Z</time>
      </trkpt>
      <trkpt lat="39.61575" lon="-0.442814">
        <ele>129</ele>
        <time>2018-11-04T08:34:42.000Z</time>
      </trkpt>
      <trkpt lat="39.615776" lon="-0.442771">
        <ele>129.64</ele>
        <time>2018-11-04T08:34:43.000Z</time>
      </trkpt>
      <trkpt lat="39.6158" lon="-0.442726">
        <ele>130</ele>
        <time>2018-11-04T08:34:44.000Z</time>
      </trkpt>
      <trkpt lat="39.615826" lon="-0.442681">
        <ele>130</ele>
        <time>2018-11-04T08:34:45.000Z</time>
      </trkpt>
      <trkpt lat="39.615854" lon="-0.442638">
        <ele>130</ele>
        <time>2018-11-04T08:34:46.000Z</time>
      </trkpt>
      <trkpt lat="39.615884" lon="-0.442595">
        <ele>130.506847153303</ele>
        <time>2018-11-04T08:34:47.000Z</time>
      </trkpt>
      <trkpt lat="39.615917" lon="-0.442554">
        <ele>131</ele>
        <time>2018-11-04T08:34:48.000Z</time>
      </trkpt>
      <trkpt lat="39.615952" lon="-0.442512">
        <ele>131</ele>
        <time>2018-11-04T08:34:49.000Z</time>
      </trkpt>
      <trkpt lat="39.61599" lon="-0.442471">
        <ele>131</ele>
        <time>2018-11-04T08:34:50.000Z</time>
      </trkpt>
      <trkpt lat="39.616028" lon="-0.442431">
        <ele>131.64</ele>
        <time>2018-11-04T08:34:51.000Z</time>
      </trkpt>
      <trkpt lat="39.616068" lon="-0.442393">
        <ele>132</ele>
        <time>2018-11-04T08:34:52.000Z</time>
      </trkpt>
      <trkpt lat="39.61611" lon="-0.442355">
        <ele>132</ele>
        <time>2018-11-04T08:34:53.000Z</time>
      </trkpt>
      <trkpt lat="39.61615" lon="-0.442316">
        <ele>132</ele>
        <time>2018-11-04T08:34:54.000Z</time>
      </trkpt>
      <trkpt lat="39.616192" lon="-0.442277">
        <ele>132</ele>
        <time>2018-11-04T08:34:55.000Z</time>
      </trkpt>
      <trkpt lat="39.616237" lon="-0.442241">
        <ele>132</ele>
        <time>2018-11-04T08:34:56.000Z</time>
      </trkpt>
      <trkpt lat="39.61628" lon="-0.442205">
        <ele>132.64</ele>
        <time>2018-11-04T08:34:57.000Z</time>
      </trkpt>
      <trkpt lat="39.616326" lon="-0.442172">
        <ele>133</ele>
        <time>2018-11-04T08:34:58.000Z</time>
      </trkpt>
      <trkpt lat="39.616374" lon="-0.442138">
        <ele>133</ele>
        <time>2018-11-04T08:34:59.000Z</time>
      </trkpt>
      <trkpt lat="39.616421" lon="-0.442104">
        <ele>133</ele>
        <time>2018-11-04T08:35:00.000Z</time>
      </trkpt>
      <trkpt lat="39.616469" lon="-0.442071">
        <ele>133</ele>
        <time>2018-11-04T08:35:01.000Z</time>
      </trkpt>
      <trkpt lat="39.616518" lon="-0.442039">
        <ele>133</ele>
        <time>2018-11-04T08:35:02.000Z</time>
      </trkpt>
      <trkpt lat="39.616568" lon="-0.442008">
        <ele>133</ele>
        <time>2018-11-04T08:35:03.000Z</time>
      </trkpt>
      <trkpt lat="39.616618" lon="-0.441979">
        <ele>133</ele>
        <time>2018-11-04T08:35:04.000Z</time>
      </trkpt>
      <trkpt lat="39.616668" lon="-0.441948">
        <ele>133</ele>
        <time>2018-11-04T08:35:05.000Z</time>
      </trkpt>
      <trkpt lat="39.616717" lon="-0.441917">
        <ele>133</ele>
        <time>2018-11-04T08:35:06.000Z</time>
      </trkpt>
      <trkpt lat="39.616769" lon="-0.441887">
        <ele>133</ele>
        <time>2018-11-04T08:35:07.000Z</time>
      </trkpt>
      <trkpt lat="39.616822" lon="-0.441857">
        <ele>133</ele>
        <time>2018-11-04T08:35:08.000Z</time>
      </trkpt>
      <trkpt lat="39.616874" lon="-0.441825">
        <ele>133</ele>
        <time>2018-11-04T08:35:09.000Z</time>
      </trkpt>
      <trkpt lat="39.616927" lon="-0.441793">
        <ele>133</ele>
        <time>2018-11-04T08:35:10.000Z</time>
      </trkpt>
      <trkpt lat="39.616979" lon="-0.441762">
        <ele>133</ele>
        <time>2018-11-04T08:35:11.000Z</time>
      </trkpt>
      <trkpt lat="39.617031" lon="-0.441731">
        <ele>133</ele>
        <time>2018-11-04T08:35:12.000Z</time>
      </trkpt>
      <trkpt lat="39.617082" lon="-0.4417">
        <ele>133</ele>
        <time>2018-11-04T08:35:13.000Z</time>
      </trkpt>
      <trkpt lat="39.617132" lon="-0.441668">
        <ele>133</ele>
        <time>2018-11-04T08:35:14.000Z</time>
      </trkpt>
      <trkpt lat="39.617183" lon="-0.441636">
        <ele>133.64</ele>
        <time>2018-11-04T08:35:15.000Z</time>
      </trkpt>
      <trkpt lat="39.617233" lon="-0.441604">
        <ele>133.36</ele>
        <time>2018-11-04T08:35:16.000Z</time>
      </trkpt>
      <trkpt lat="39.617281" lon="-0.441573">
        <ele>133.64</ele>
        <time>2018-11-04T08:35:17.000Z</time>
      </trkpt>
      <trkpt lat="39.61733" lon="-0.441543">
        <ele>134</ele>
        <time>2018-11-04T08:35:18.000Z</time>
      </trkpt>
      <trkpt lat="39.617376" lon="-0.441511">
        <ele>134</ele>
        <time>2018-11-04T08:35:19.000Z</time>
      </trkpt>
      <trkpt lat="39.617423" lon="-0.44148">
        <ele>134</ele>
        <time>2018-11-04T08:35:20.000Z</time>
      </trkpt>
      <trkpt lat="39.617472" lon="-0.44145">
        <ele>134</ele>
        <time>2018-11-04T08:35:21.000Z</time>
      </trkpt>
      <trkpt lat="39.61752" lon="-0.44142">
        <ele>134</ele>
        <time>2018-11-04T08:35:22.000Z</time>
      </trkpt>
      <trkpt lat="39.617568" lon="-0.44139">
        <ele>133.5</ele>
        <time>2018-11-04T08:35:23.000Z</time>
      </trkpt>
      <trkpt lat="39.617614" lon="-0.441359">
        <ele>133</ele>
        <time>2018-11-04T08:35:24.000Z</time>
      </trkpt>
      <trkpt lat="39.617661" lon="-0.441328">
        <ele>133.506847153303</ele>
        <time>2018-11-04T08:35:25.000Z</time>
      </trkpt>
      <trkpt lat="39.617708" lon="-0.441299">
        <ele>134</ele>
        <time>2018-11-04T08:35:26.000Z</time>
      </trkpt>
      <trkpt lat="39.617755" lon="-0.44127">
        <ele>134</ele>
        <time>2018-11-04T08:35:27.000Z</time>
      </trkpt>
      <trkpt lat="39.617802" lon="-0.441239">
        <ele>133.36</ele>
        <time>2018-11-04T08:35:28.000Z</time>
      </trkpt>
      <trkpt lat="39.617848" lon="-0.441206">
        <ele>133</ele>
        <time>2018-11-04T08:35:29.000Z</time>
      </trkpt>
      <trkpt lat="39.617894" lon="-0.441174">
        <ele>133.64</ele>
        <time>2018-11-04T08:35:30.000Z</time>
      </trkpt>
      <trkpt lat="39.617944" lon="-0.441145">
        <ele>134</ele>
        <time>2018-11-04T08:35:31.000Z</time>
      </trkpt>
      <trkpt lat="39.617989" lon="-0.441113">
        <ele>134</ele>
        <time>2018-11-04T08:35:32.000Z</time>
      </trkpt>
      <trkpt lat="39.618034" lon="-0.441083">
        <ele>134</ele>
        <time>2018-11-04T08:35:33.000Z</time>
      </trkpt>
      <trkpt lat="39.618078" lon="-0.441054">
        <ele>134</ele>
        <time>2018-11-04T08:35:34.000Z</time>
      </trkpt>
      <trkpt lat="39.61812" lon="-0.441026">
        <ele>134</ele>
        <time>2018-11-04T08:35:35.000Z</time>
      </trkpt>
      <trkpt lat="39.618159" lon="-0.440998">
        <ele>134</ele>
        <time>2018-11-04T08:35:36.000Z</time>
      </trkpt>
      <trkpt lat="39.618199" lon="-0.440971">
        <ele>134</ele>
        <time>2018-11-04T08:35:37.000Z</time>
      </trkpt>
      <trkpt lat="39.618241" lon="-0.440945">
        <ele>134</ele>
        <time>2018-11-04T08:35:38.000Z</time>
      </trkpt>
      <trkpt lat="39.618284" lon="-0.440916">
        <ele>134</ele>
        <time>2018-11-04T08:35:39.000Z</time>
      </trkpt>
      <trkpt lat="39.618326" lon="-0.440887">
        <ele>134</ele>
        <time>2018-11-04T08:35:40.000Z</time>
      </trkpt>
      <trkpt lat="39.618368" lon="-0.440855">
        <ele>134</ele>
        <time>2018-11-04T08:35:41.000Z</time>
      </trkpt>
      <trkpt lat="39.61841" lon="-0.440822">
        <ele>134</ele>
        <time>2018-11-04T08:35:42.000Z</time>
      </trkpt>
      <trkpt lat="39.618452" lon="-0.440795">
        <ele>133.6300032</ele>
        <time>2018-11-04T08:35:43.000Z</time>
      </trkpt>
      <trkpt lat="39.618497" lon="-0.44077">
        <ele>133</ele>
        <time>2018-11-04T08:35:44.000Z</time>
      </trkpt>
      <trkpt lat="39.618537" lon="-0.440743">
        <ele>133</ele>
        <time>2018-11-04T08:35:45.000Z</time>
      </trkpt>
      <trkpt lat="39.618578" lon="-0.440717">
        <ele>133</ele>
        <time>2018-11-04T08:35:46.000Z</time>
      </trkpt>
      <trkpt lat="39.618619" lon="-0.44069">
        <ele>133</ele>
        <time>2018-11-04T08:35:47.000Z</time>
      </trkpt>
      <trkpt lat="39.618658" lon="-0.440662">
        <ele>133</ele>
        <time>2018-11-04T08:35:48.000Z</time>
      </trkpt>
      <trkpt lat="39.618698" lon="-0.440636">
        <ele>133</ele>
        <time>2018-11-04T08:35:49.000Z</time>
      </trkpt>
      <trkpt lat="39.618737" lon="-0.440604">
        <ele>132.36</ele>
        <time>2018-11-04T08:35:50.000Z</time>
      </trkpt>
      <trkpt lat="39.618777" lon="-0.440573">
        <ele>132</ele>
        <time>2018-11-04T08:35:51.000Z</time>
      </trkpt>
      <trkpt lat="39.618819" lon="-0.440545">
        <ele>132</ele>
        <time>2018-11-04T08:35:52.000Z</time>
      </trkpt>
      <trkpt lat="39.618861" lon="-0.440521">
        <ele>132</ele>
        <time>2018-11-04T08:35:53.000Z</time>
      </trkpt>
      <trkpt lat="39.618904" lon="-0.440494">
        <ele>132</ele>
        <time>2018-11-04T08:35:54.000Z</time>
      </trkpt>
      <trkpt lat="39.618942" lon="-0.440464">
        <ele>132</ele>
        <time>2018-11-04T08:35:55.000Z</time>
      </trkpt>
      <trkpt lat="39.618984" lon="-0.44044">
        <ele>132</ele>
        <time>2018-11-04T08:35:56.000Z</time>
      </trkpt>
      <trkpt lat="39.619028" lon="-0.440415">
        <ele>132</ele>
        <time>2018-11-04T08:35:57.000Z</time>
      </trkpt>
      <trkpt lat="39.619074" lon="-0.440391">
        <ele>132</ele>
        <time>2018-11-04T08:35:58.000Z</time>
      </trkpt>
      <trkpt lat="39.619116" lon="-0.440365">
        <ele>132</ele>
        <time>2018-11-04T08:35:59.000Z</time>
      </trkpt>
      <trkpt lat="39.619157" lon="-0.440333">
        <ele>132</ele>
        <time>2018-11-04T08:36:00.000Z</time>
      </trkpt>
      <trkpt lat="39.619208" lon="-0.44031">
        <ele>132</ele>
        <time>2018-11-04T08:36:01.000Z</time>
      </trkpt>
      <trkpt lat="39.619253" lon="-0.440286">
        <ele>132</ele>
        <time>2018-11-04T08:36:02.000Z</time>
      </trkpt>
      <trkpt lat="39.619299" lon="-0.440259">
        <ele>131.507039968271</ele>
        <time>2018-11-04T08:36:03.000Z</time>
      </trkpt>
      <trkpt lat="39.619343" lon="-0.440232">
        <ele>131</ele>
        <time>2018-11-04T08:36:04.000Z</time>
      </trkpt>
      <trkpt lat="39.619389" lon="-0.440198">
        <ele>131</ele>
        <time>2018-11-04T08:36:05.000Z</time>
      </trkpt>
      <trkpt lat="39.619435" lon="-0.440168">
        <ele>131</ele>
        <time>2018-11-04T08:36:06.000Z</time>
      </trkpt>
      <trkpt lat="39.619481" lon="-0.44014">
        <ele>131</ele>
        <time>2018-11-04T08:36:07.000Z</time>
      </trkpt>
      <trkpt lat="39.61953" lon="-0.440113">
        <ele>131</ele>
        <time>2018-11-04T08:36:08.000Z</time>
      </trkpt>
      <trkpt lat="39.619576" lon="-0.440085">
        <ele>131</ele>
        <time>2018-11-04T08:36:09.000Z</time>
      </trkpt>
      <trkpt lat="39.619623" lon="-0.440053">
        <ele>131</ele>
        <time>2018-11-04T08:36:10.000Z</time>
      </trkpt>
      <trkpt lat="39.619671" lon="-0.440025">
        <ele>131</ele>
        <time>2018-11-04T08:36:11.000Z</time>
      </trkpt>
      <trkpt lat="39.619716" lon="-0.439996">
        <ele>130.36</ele>
        <time>2018-11-04T08:36:12.000Z</time>
      </trkpt>
      <trkpt lat="39.619763" lon="-0.439961">
        <ele>130</ele>
        <time>2018-11-04T08:36:13.000Z</time>
      </trkpt>
      <trkpt lat="39.619811" lon="-0.439924">
        <ele>130.48570958363</ele>
        <time>2018-11-04T08:36:14.000Z</time>
      </trkpt>
      <trkpt lat="39.619858" lon="-0.439893">
        <ele>131</ele>
        <time>2018-11-04T08:36:15.000Z</time>
      </trkpt>
      <trkpt lat="39.619908" lon="-0.439866">
        <ele>131</ele>
        <time>2018-11-04T08:36:16.000Z</time>
      </trkpt>
      <trkpt lat="39.619957" lon="-0.439836">
        <ele>131</ele>
        <time>2018-11-04T08:36:17.000Z</time>
      </trkpt>
      <trkpt lat="39.620004" lon="-0.439806">
        <ele>131</ele>
        <time>2018-11-04T08:36:18.000Z</time>
      </trkpt>
      <trkpt lat="39.62005" lon="-0.439778">
        <ele>131</ele>
        <time>2018-11-04T08:36:19.000Z</time>
      </trkpt>
      <trkpt lat="39.620091" lon="-0.439748">
        <ele>131</ele>
        <time>2018-11-04T08:36:20.000Z</time>
      </trkpt>
      <trkpt lat="39.62013" lon="-0.439718">
        <ele>131</ele>
        <time>2018-11-04T08:36:21.000Z</time>
      </trkpt>
      <trkpt lat="39.620171" lon="-0.43969">
        <ele>131</ele>
        <time>2018-11-04T08:36:22.000Z</time>
      </trkpt>
      <trkpt lat="39.620211" lon="-0.439661">
        <ele>131</ele>
        <time>2018-11-04T08:36:23.000Z</time>
      </trkpt>
      <trkpt lat="39.620254" lon="-0.439631">
        <ele>131</ele>
        <time>2018-11-04T08:36:24.000Z</time>
      </trkpt>
      <trkpt lat="39.620298" lon="-0.4396">
        <ele>131</ele>
        <time>2018-11-04T08:36:25.000Z</time>
      </trkpt>
      <trkpt lat="39.620344" lon="-0.439571">
        <ele>131</ele>
        <time>2018-11-04T08:36:26.000Z</time>
      </trkpt>
      <trkpt lat="39.620391" lon="-0.439543">
        <ele>131</ele>
        <time>2018-11-04T08:36:27.000Z</time>
      </trkpt>
      <trkpt lat="39.620433" lon="-0.439514">
        <ele>131</ele>
        <time>2018-11-04T08:36:28.000Z</time>
      </trkpt>
      <trkpt lat="39.620477" lon="-0.439485">
        <ele>131</ele>
        <time>2018-11-04T08:36:29.000Z</time>
      </trkpt>
      <trkpt lat="39.62052" lon="-0.439456">
        <ele>131</ele>
        <time>2018-11-04T08:36:30.000Z</time>
      </trkpt>
      <trkpt lat="39.620564" lon="-0.439428">
        <ele>131</ele>
        <time>2018-11-04T08:36:31.000Z</time>
      </trkpt>
      <trkpt lat="39.620608" lon="-0.4394">
        <ele>131</ele>
        <time>2018-11-04T08:36:32.000Z</time>
      </trkpt>
      <trkpt lat="39.62065" lon="-0.439371">
        <ele>131</ele>
        <time>2018-11-04T08:36:33.000Z</time>
      </trkpt>
      <trkpt lat="39.620691" lon="-0.439341">
        <ele>131</ele>
        <time>2018-11-04T08:36:34.000Z</time>
      </trkpt>
      <trkpt lat="39.620732" lon="-0.439311">
        <ele>131</ele>
        <time>2018-11-04T08:36:35.000Z</time>
      </trkpt>
      <trkpt lat="39.620772" lon="-0.439282">
        <ele>131</ele>
        <time>2018-11-04T08:36:36.000Z</time>
      </trkpt>
      <trkpt lat="39.620813" lon="-0.439252">
        <ele>131</ele>
        <time>2018-11-04T08:36:37.000Z</time>
      </trkpt>
      <trkpt lat="39.620857" lon="-0.439223">
        <ele>131</ele>
        <time>2018-11-04T08:36:38.000Z</time>
      </trkpt>
      <trkpt lat="39.620901" lon="-0.439196">
        <ele>131</ele>
        <time>2018-11-04T08:36:39.000Z</time>
      </trkpt>
      <trkpt lat="39.620943" lon="-0.43917">
        <ele>131</ele>
        <time>2018-11-04T08:36:40.000Z</time>
      </trkpt>
      <trkpt lat="39.620989" lon="-0.439143">
        <ele>131.506847153303</ele>
        <time>2018-11-04T08:36:41.000Z</time>
      </trkpt>
      <trkpt lat="39.621035" lon="-0.439115">
        <ele>132</ele>
        <time>2018-11-04T08:36:42.000Z</time>
      </trkpt>
      <trkpt lat="39.621081" lon="-0.439087">
        <ele>132</ele>
        <time>2018-11-04T08:36:43.000Z</time>
      </trkpt>
      <trkpt lat="39.621129" lon="-0.439059">
        <ele>132</ele>
        <time>2018-11-04T08:36:44.000Z</time>
      </trkpt>
      <trkpt lat="39.621178" lon="-0.439029">
        <ele>132.64</ele>
        <time>2018-11-04T08:36:45.000Z</time>
      </trkpt>
      <trkpt lat="39.621225" lon="-0.439">
        <ele>133</ele>
        <time>2018-11-04T08:36:46.000Z</time>
      </trkpt>
      <trkpt lat="39.62127" lon="-0.438972">
        <ele>133</ele>
        <time>2018-11-04T08:36:47.000Z</time>
      </trkpt>
      <trkpt lat="39.621318" lon="-0.438945">
        <ele>133.64</ele>
        <time>2018-11-04T08:36:48.000Z</time>
      </trkpt>
      <trkpt lat="39.621365" lon="-0.438917">
        <ele>134</ele>
        <time>2018-11-04T08:36:49.000Z</time>
      </trkpt>
      <trkpt lat="39.621419" lon="-0.43889">
        <ele>134.64</ele>
        <time>2018-11-04T08:36:50.000Z</time>
      </trkpt>
      <trkpt lat="39.621466" lon="-0.438862">
        <ele>135</ele>
        <time>2018-11-04T08:36:51.000Z</time>
      </trkpt>
      <trkpt lat="39.62151" lon="-0.438832">
        <ele>135</ele>
        <time>2018-11-04T08:36:52.000Z</time>
      </trkpt>
      <trkpt lat="39.621553" lon="-0.438802">
        <ele>135</ele>
        <time>2018-11-04T08:36:53.000Z</time>
      </trkpt>
      <trkpt lat="39.621596" lon="-0.438773">
        <ele>135</ele>
        <time>2018-11-04T08:36:54.000Z</time>
      </trkpt>
      <trkpt lat="39.621639" lon="-0.438744">
        <ele>135.64</ele>
        <time>2018-11-04T08:36:55.000Z</time>
      </trkpt>
      <trkpt lat="39.621683" lon="-0.438715">
        <ele>136</ele>
        <time>2018-11-04T08:36:56.000Z</time>
      </trkpt>
      <trkpt lat="39.621727" lon="-0.438686">
        <ele>136</ele>
        <time>2018-11-04T08:36:57.000Z</time>
      </trkpt>
      <trkpt lat="39.621769" lon="-0.438656">
        <ele>136</ele>
        <time>2018-11-04T08:36:58.000Z</time>
      </trkpt>
      <trkpt lat="39.621813" lon="-0.438627">
        <ele>136</ele>
        <time>2018-11-04T08:36:59.000Z</time>
      </trkpt>
      <trkpt lat="39.621855" lon="-0.438599">
        <ele>136</ele>
        <time>2018-11-04T08:37:00.000Z</time>
      </trkpt>
      <trkpt lat="39.621902" lon="-0.438573">
        <ele>136.64</ele>
        <time>2018-11-04T08:37:01.000Z</time>
      </trkpt>
      <trkpt lat="39.621945" lon="-0.438545">
        <ele>137</ele>
        <time>2018-11-04T08:37:02.000Z</time>
      </trkpt>
      <trkpt lat="39.621988" lon="-0.438517">
        <ele>137</ele>
        <time>2018-11-04T08:37:03.000Z</time>
      </trkpt>
      <trkpt lat="39.62203" lon="-0.438488">
        <ele>137</ele>
        <time>2018-11-04T08:37:04.000Z</time>
      </trkpt>
      <trkpt lat="39.622071" lon="-0.438459">
        <ele>137</ele>
        <time>2018-11-04T08:37:05.000Z</time>
      </trkpt>
      <trkpt lat="39.622113" lon="-0.43843">
        <ele>137</ele>
        <time>2018-11-04T08:37:06.000Z</time>
      </trkpt>
      <trkpt lat="39.622155" lon="-0.438402">
        <ele>137</ele>
        <time>2018-11-04T08:37:07.000Z</time>
      </trkpt>
      <trkpt lat="39.622196" lon="-0.438374">
        <ele>137</ele>
        <time>2018-11-04T08:37:08.000Z</time>
      </trkpt>
      <trkpt lat="39.622237" lon="-0.438346">
        <ele>137</ele>
        <time>2018-11-04T08:37:09.000Z</time>
      </trkpt>
      <trkpt lat="39.622277" lon="-0.438319">
        <ele>137</ele>
        <time>2018-11-04T08:37:10.000Z</time>
      </trkpt>
      <trkpt lat="39.622316" lon="-0.438291">
        <ele>137</ele>
        <time>2018-11-04T08:37:11.000Z</time>
      </trkpt>
      <trkpt lat="39.622357" lon="-0.438265">
        <ele>137</ele>
        <time>2018-11-04T08:37:12.000Z</time>
      </trkpt>
      <trkpt lat="39.622398" lon="-0.438238">
        <ele>137</ele>
        <time>2018-11-04T08:37:13.000Z</time>
      </trkpt>
      <trkpt lat="39.622439" lon="-0.438211">
        <ele>137</ele>
        <time>2018-11-04T08:37:14.000Z</time>
      </trkpt>
      <trkpt lat="39.622482" lon="-0.438185">
        <ele>137</ele>
        <time>2018-11-04T08:37:15.000Z</time>
      </trkpt>
      <trkpt lat="39.622523" lon="-0.438158">
        <ele>137</ele>
        <time>2018-11-04T08:37:16.000Z</time>
      </trkpt>
      <trkpt lat="39.622565" lon="-0.438131">
        <ele>137</ele>
        <time>2018-11-04T08:37:17.000Z</time>
      </trkpt>
      <trkpt lat="39.622606" lon="-0.438103">
        <ele>137</ele>
        <time>2018-11-04T08:37:18.000Z</time>
      </trkpt>
      <trkpt lat="39.622649" lon="-0.438076">
        <ele>137</ele>
        <time>2018-11-04T08:37:19.000Z</time>
      </trkpt>
      <trkpt lat="39.622694" lon="-0.43805">
        <ele>136.36</ele>
        <time>2018-11-04T08:37:20.000Z</time>
      </trkpt>
      <trkpt lat="39.62274" lon="-0.438022">
        <ele>136</ele>
        <time>2018-11-04T08:37:21.000Z</time>
      </trkpt>
      <trkpt lat="39.622786" lon="-0.437993">
        <ele>136</ele>
        <time>2018-11-04T08:37:22.000Z</time>
      </trkpt>
      <trkpt lat="39.622831" lon="-0.437963">
        <ele>136</ele>
        <time>2018-11-04T08:37:23.000Z</time>
      </trkpt>
      <trkpt lat="39.622875" lon="-0.437932">
        <ele>136</ele>
        <time>2018-11-04T08:37:24.000Z</time>
      </trkpt>
      <trkpt lat="39.62292" lon="-0.437901">
        <ele>136</ele>
        <time>2018-11-04T08:37:25.000Z</time>
      </trkpt>
      <trkpt lat="39.622964" lon="-0.437871">
        <ele>136</ele>
        <time>2018-11-04T08:37:26.000Z</time>
      </trkpt>
      <trkpt lat="39.623012" lon="-0.437839">
        <ele>135.36</ele>
        <time>2018-11-04T08:37:27.000Z</time>
      </trkpt>
      <trkpt lat="39.62306" lon="-0.437807">
        <ele>135</ele>
        <time>2018-11-04T08:37:28.000Z</time>
      </trkpt>
      <trkpt lat="39.623109" lon="-0.437777">
        <ele>135</ele>
        <time>2018-11-04T08:37:29.000Z</time>
      </trkpt>
      <trkpt lat="39.623157" lon="-0.437746">
        <ele>135</ele>
        <time>2018-11-04T08:37:30.000Z</time>
      </trkpt>
      <trkpt lat="39.623203" lon="-0.437716">
        <ele>135</ele>
        <time>2018-11-04T08:37:31.000Z</time>
      </trkpt>
      <trkpt lat="39.62325" lon="-0.437685">
        <ele>135</ele>
        <time>2018-11-04T08:37:32.000Z</time>
      </trkpt>
      <trkpt lat="39.623297" lon="-0.437654">
        <ele>135</ele>
        <time>2018-11-04T08:37:33.000Z</time>
      </trkpt>
      <trkpt lat="39.623342" lon="-0.437624">
        <ele>135</ele>
        <time>2018-11-04T08:37:34.000Z</time>
      </trkpt>
      <trkpt lat="39.623386" lon="-0.437595">
        <ele>135</ele>
        <time>2018-11-04T08:37:35.000Z</time>
      </trkpt>
      <trkpt lat="39.623433" lon="-0.437567">
        <ele>135</ele>
        <time>2018-11-04T08:37:36.000Z</time>
      </trkpt>
      <trkpt lat="39.623479" lon="-0.437538">
        <ele>135</ele>
        <time>2018-11-04T08:37:37.000Z</time>
      </trkpt>
      <trkpt lat="39.623524" lon="-0.437507">
        <ele>135</ele>
        <time>2018-11-04T08:37:38.000Z</time>
      </trkpt>
      <trkpt lat="39.623569" lon="-0.437476">
        <ele>134.36</ele>
        <time>2018-11-04T08:37:39.000Z</time>
      </trkpt>
      <trkpt lat="39.623613" lon="-0.437444">
        <ele>134</ele>
        <time>2018-11-04T08:37:40.000Z</time>
      </trkpt>
      <trkpt lat="39.623662" lon="-0.437412">
        <ele>134</ele>
        <time>2018-11-04T08:37:41.000Z</time>
      </trkpt>
      <trkpt lat="39.623711" lon="-0.437381">
        <ele>134</ele>
        <time>2018-11-04T08:37:42.000Z</time>
      </trkpt>
      <trkpt lat="39.62376" lon="-0.437352">
        <ele>134</ele>
        <time>2018-11-04T08:37:43.000Z</time>
      </trkpt>
      <trkpt lat="39.623809" lon="-0.437323">
        <ele>134.492310115988</ele>
        <time>2018-11-04T08:37:44.000Z</time>
      </trkpt>
      <trkpt lat="39.623858" lon="-0.437294">
        <ele>135</ele>
        <time>2018-11-04T08:37:45.000Z</time>
      </trkpt>
      <trkpt lat="39.623906" lon="-0.437264">
        <ele>135</ele>
        <time>2018-11-04T08:37:46.000Z</time>
      </trkpt>
      <trkpt lat="39.623953" lon="-0.437235">
        <ele>135</ele>
        <time>2018-11-04T08:37:47.000Z</time>
      </trkpt>
      <trkpt lat="39.623999" lon="-0.437207">
        <ele>135</ele>
        <time>2018-11-04T08:37:48.000Z</time>
      </trkpt>
      <trkpt lat="39.624047" lon="-0.437179">
        <ele>135</ele>
        <time>2018-11-04T08:37:49.000Z</time>
      </trkpt>
      <trkpt lat="39.624095" lon="-0.437151">
        <ele>135</ele>
        <time>2018-11-04T08:37:50.000Z</time>
      </trkpt>
      <trkpt lat="39.624142" lon="-0.437122">
        <ele>135</ele>
        <time>2018-11-04T08:37:51.000Z</time>
      </trkpt>
      <trkpt lat="39.62419" lon="-0.437094">
        <ele>135</ele>
        <time>2018-11-04T08:37:52.000Z</time>
      </trkpt>
      <trkpt lat="39.624235" lon="-0.437063">
        <ele>135.5</ele>
        <time>2018-11-04T08:37:53.000Z</time>
      </trkpt>
      <trkpt lat="39.624282" lon="-0.437034">
        <ele>136</ele>
        <time>2018-11-04T08:37:54.000Z</time>
      </trkpt>
      <trkpt lat="39.624328" lon="-0.437005">
        <ele>136</ele>
        <time>2018-11-04T08:37:55.000Z</time>
      </trkpt>
      <trkpt lat="39.624376" lon="-0.436975">
        <ele>136</ele>
        <time>2018-11-04T08:37:56.000Z</time>
      </trkpt>
      <trkpt lat="39.624423" lon="-0.436946">
        <ele>136</ele>
        <time>2018-11-04T08:37:57.000Z</time>
      </trkpt>
      <trkpt lat="39.624465" lon="-0.436915">
        <ele>136</ele>
        <time>2018-11-04T08:37:58.000Z</time>
      </trkpt>
      <trkpt lat="39.624512" lon="-0.436885">
        <ele>136.64</ele>
        <time>2018-11-04T08:37:59.000Z</time>
      </trkpt>
      <trkpt lat="39.624559" lon="-0.436857">
        <ele>137</ele>
        <time>2018-11-04T08:38:00.000Z</time>
      </trkpt>
      <trkpt lat="39.624606" lon="-0.436831">
        <ele>137</ele>
        <time>2018-11-04T08:38:01.000Z</time>
      </trkpt>
      <trkpt lat="39.62465" lon="-0.436803">
        <ele>137</ele>
        <time>2018-11-04T08:38:02.000Z</time>
      </trkpt>
      <trkpt lat="39.624694" lon="-0.436773">
        <ele>137</ele>
        <time>2018-11-04T08:38:03.000Z</time>
      </trkpt>
      <trkpt lat="39.624741" lon="-0.436743">
        <ele>137</ele>
        <time>2018-11-04T08:38:04.000Z</time>
      </trkpt>
      <trkpt lat="39.62479" lon="-0.436714">
        <ele>137</ele>
        <time>2018-11-04T08:38:05.000Z</time>
      </trkpt>
      <trkpt lat="39.624837" lon="-0.436682">
        <ele>137</ele>
        <time>2018-11-04T08:38:06.000Z</time>
      </trkpt>
      <trkpt lat="39.624885" lon="-0.436653">
        <ele>137</ele>
        <time>2018-11-04T08:38:07.000Z</time>
      </trkpt>
      <trkpt lat="39.624932" lon="-0.436624">
        <ele>137</ele>
        <time>2018-11-04T08:38:08.000Z</time>
      </trkpt>
      <trkpt lat="39.624981" lon="-0.436597">
        <ele>137</ele>
        <time>2018-11-04T08:38:09.000Z</time>
      </trkpt>
      <trkpt lat="39.625028" lon="-0.43657">
        <ele>137.64</ele>
        <time>2018-11-04T08:38:10.000Z</time>
      </trkpt>
      <trkpt lat="39.625075" lon="-0.436542">
        <ele>138</ele>
        <time>2018-11-04T08:38:11.000Z</time>
      </trkpt>
      <trkpt lat="39.625123" lon="-0.436515">
        <ele>138</ele>
        <time>2018-11-04T08:38:12.000Z</time>
      </trkpt>
      <trkpt lat="39.625173" lon="-0.436488">
        <ele>138.492960031729</ele>
        <time>2018-11-04T08:38:13.000Z</time>
      </trkpt>
      <trkpt lat="39.625228" lon="-0.436465">
        <ele>139</ele>
        <time>2018-11-04T08:38:14.000Z</time>
      </trkpt>
      <trkpt lat="39.625278" lon="-0.43644">
        <ele>139</ele>
        <time>2018-11-04T08:38:15.000Z</time>
      </trkpt>
      <trkpt lat="39.625322" lon="-0.436412">
        <ele>139</ele>
        <time>2018-11-04T08:38:16.000Z</time>
      </trkpt>
      <trkpt lat="39.625362" lon="-0.436383">
        <ele>139</ele>
        <time>2018-11-04T08:38:17.000Z</time>
      </trkpt>
      <trkpt lat="39.625402" lon="-0.436352">
        <ele>139</ele>
        <time>2018-11-04T08:38:18.000Z</time>
      </trkpt>
      <trkpt lat="39.62544" lon="-0.436322">
        <ele>138.36</ele>
        <time>2018-11-04T08:38:19.000Z</time>
      </trkpt>
      <trkpt lat="39.625479" lon="-0.436293">
        <ele>138</ele>
        <time>2018-11-04T08:38:20.000Z</time>
      </trkpt>
      <trkpt lat="39.62552" lon="-0.436267">
        <ele>138</ele>
        <time>2018-11-04T08:38:21.000Z</time>
      </trkpt>
      <trkpt lat="39.625561" lon="-0.436241">
        <ele>138</ele>
        <time>2018-11-04T08:38:22.000Z</time>
      </trkpt>
      <trkpt lat="39.6256" lon="-0.436217">
        <ele>138</ele>
        <time>2018-11-04T08:38:23.000Z</time>
      </trkpt>
      <trkpt lat="39.62564" lon="-0.436196">
        <ele>138</ele>
        <time>2018-11-04T08:38:24.000Z</time>
      </trkpt>
      <trkpt lat="39.625681" lon="-0.436178">
        <ele>138</ele>
        <time>2018-11-04T08:38:25.000Z</time>
      </trkpt>
      <trkpt lat="39.625724" lon="-0.436158">
        <ele>138</ele>
        <time>2018-11-04T08:38:26.000Z</time>
      </trkpt>
      <trkpt lat="39.625767" lon="-0.436136">
        <ele>138</ele>
        <time>2018-11-04T08:38:27.000Z</time>
      </trkpt>
      <trkpt lat="39.625808" lon="-0.436114">
        <ele>138</ele>
        <time>2018-11-04T08:38:28.000Z</time>
      </trkpt>
      <trkpt lat="39.62585" lon="-0.436092">
        <ele>138</ele>
        <time>2018-11-04T08:38:29.000Z</time>
      </trkpt>
      <trkpt lat="39.625893" lon="-0.436071">
        <ele>138</ele>
        <time>2018-11-04T08:38:30.000Z</time>
      </trkpt>
      <trkpt lat="39.625934" lon="-0.436053">
        <ele>138</ele>
        <time>2018-11-04T08:38:31.000Z</time>
      </trkpt>
      <trkpt lat="39.625974" lon="-0.436036">
        <ele>138.633665373989</ele>
        <time>2018-11-04T08:38:32.000Z</time>
      </trkpt>
      <trkpt lat="39.626016" lon="-0.436023">
        <ele>139</ele>
        <time>2018-11-04T08:38:33.000Z</time>
      </trkpt>
      <trkpt lat="39.626059" lon="-0.436013">
        <ele>139</ele>
        <time>2018-11-04T08:38:34.000Z</time>
      </trkpt>
      <trkpt lat="39.626103" lon="-0.436007">
        <ele>139</ele>
        <time>2018-11-04T08:38:35.000Z</time>
      </trkpt>
      <trkpt lat="39.626147" lon="-0.435999">
        <ele>139</ele>
        <time>2018-11-04T08:38:36.000Z</time>
      </trkpt>
      <trkpt lat="39.626193" lon="-0.43599">
        <ele>139</ele>
        <time>2018-11-04T08:38:37.000Z</time>
      </trkpt>
      <trkpt lat="39.626241" lon="-0.435983">
        <ele>139.64</ele>
        <time>2018-11-04T08:38:38.000Z</time>
      </trkpt>
      <trkpt lat="39.626288" lon="-0.435978">
        <ele>140</ele>
        <time>2018-11-04T08:38:39.000Z</time>
      </trkpt>
      <trkpt lat="39.626335" lon="-0.435973">
        <ele>140</ele>
        <time>2018-11-04T08:38:40.000Z</time>
      </trkpt>
      <trkpt lat="39.626381" lon="-0.435969">
        <ele>140</ele>
        <time>2018-11-04T08:38:41.000Z</time>
      </trkpt>
      <trkpt lat="39.626427" lon="-0.435965">
        <ele>140</ele>
        <time>2018-11-04T08:38:42.000Z</time>
      </trkpt>
      <trkpt lat="39.626474" lon="-0.43596">
        <ele>140</ele>
        <time>2018-11-04T08:38:43.000Z</time>
      </trkpt>
      <trkpt lat="39.626524" lon="-0.435954">
        <ele>140</ele>
        <time>2018-11-04T08:38:44.000Z</time>
      </trkpt>
      <trkpt lat="39.626574" lon="-0.435949">
        <ele>140</ele>
        <time>2018-11-04T08:38:45.000Z</time>
      </trkpt>
      <trkpt lat="39.626626" lon="-0.435948">
        <ele>140</ele>
        <time>2018-11-04T08:38:46.000Z</time>
      </trkpt>
      <trkpt lat="39.62668" lon="-0.435947">
        <ele>140</ele>
        <time>2018-11-04T08:38:47.000Z</time>
      </trkpt>
      <trkpt lat="39.626732" lon="-0.435941">
        <ele>140</ele>
        <time>2018-11-04T08:38:48.000Z</time>
      </trkpt>
      <trkpt lat="39.626785" lon="-0.435935">
        <ele>140</ele>
        <time>2018-11-04T08:38:49.000Z</time>
      </trkpt>
      <trkpt lat="39.626838" lon="-0.435929">
        <ele>140</ele>
        <time>2018-11-04T08:38:50.000Z</time>
      </trkpt>
      <trkpt lat="39.62689" lon="-0.435924">
        <ele>140</ele>
        <time>2018-11-04T08:38:51.000Z</time>
      </trkpt>
      <trkpt lat="39.62694" lon="-0.43592">
        <ele>140</ele>
        <time>2018-11-04T08:38:52.000Z</time>
      </trkpt>
      <trkpt lat="39.62699" lon="-0.435918">
        <ele>140</ele>
        <time>2018-11-04T08:38:53.000Z</time>
      </trkpt>
      <trkpt lat="39.627039" lon="-0.435918">
        <ele>140</ele>
        <time>2018-11-04T08:38:54.000Z</time>
      </trkpt>
      <trkpt lat="39.627086" lon="-0.43592">
        <ele>140</ele>
        <time>2018-11-04T08:38:55.000Z</time>
      </trkpt>
      <trkpt lat="39.627133" lon="-0.435919">
        <ele>140</ele>
        <time>2018-11-04T08:38:56.000Z</time>
      </trkpt>
      <trkpt lat="39.627179" lon="-0.435919">
        <ele>140</ele>
        <time>2018-11-04T08:38:57.000Z</time>
      </trkpt>
      <trkpt lat="39.627224" lon="-0.435919">
        <ele>140</ele>
        <time>2018-11-04T08:38:58.000Z</time>
      </trkpt>
      <trkpt lat="39.627269" lon="-0.435917">
        <ele>140</ele>
        <time>2018-11-04T08:38:59.000Z</time>
      </trkpt>
      <trkpt lat="39.627315" lon="-0.435914">
        <ele>140</ele>
        <time>2018-11-04T08:39:00.000Z</time>
      </trkpt>
      <trkpt lat="39.627361" lon="-0.43591">
        <ele>140</ele>
        <time>2018-11-04T08:39:01.000Z</time>
      </trkpt>
      <trkpt lat="39.627408" lon="-0.435907">
        <ele>140</ele>
        <time>2018-11-04T08:39:02.000Z</time>
      </trkpt>
      <trkpt lat="39.627455" lon="-0.435905">
        <ele>140</ele>
        <time>2018-11-04T08:39:03.000Z</time>
      </trkpt>
      <trkpt lat="39.627501" lon="-0.435902">
        <ele>140</ele>
        <time>2018-11-04T08:39:04.000Z</time>
      </trkpt>
      <trkpt lat="39.627547" lon="-0.4359">
        <ele>140</ele>
        <time>2018-11-04T08:39:05.000Z</time>
      </trkpt>
      <trkpt lat="39.627593" lon="-0.435896">
        <ele>140</ele>
        <time>2018-11-04T08:39:06.000Z</time>
      </trkpt>
      <trkpt lat="39.627641" lon="-0.435892">
        <ele>140</ele>
        <time>2018-11-04T08:39:07.000Z</time>
      </trkpt>
      <trkpt lat="39.62769" lon="-0.435887">
        <ele>140</ele>
        <time>2018-11-04T08:39:08.000Z</time>
      </trkpt>
      <trkpt lat="39.62774" lon="-0.435884">
        <ele>140</ele>
        <time>2018-11-04T08:39:09.000Z</time>
      </trkpt>
      <trkpt lat="39.627788" lon="-0.435881">
        <ele>140</ele>
        <time>2018-11-04T08:39:10.000Z</time>
      </trkpt>
      <trkpt lat="39.627837" lon="-0.435878">
        <ele>140</ele>
        <time>2018-11-04T08:39:11.000Z</time>
      </trkpt>
      <trkpt lat="39.627885" lon="-0.435877">
        <ele>140</ele>
        <time>2018-11-04T08:39:12.000Z</time>
      </trkpt>
      <trkpt lat="39.627933" lon="-0.435875">
        <ele>140</ele>
        <time>2018-11-04T08:39:13.000Z</time>
      </trkpt>
      <trkpt lat="39.62798" lon="-0.43587">
        <ele>140</ele>
        <time>2018-11-04T08:39:14.000Z</time>
      </trkpt>
      <trkpt lat="39.628026" lon="-0.435864">
        <ele>140</ele>
        <time>2018-11-04T08:39:15.000Z</time>
      </trkpt>
      <trkpt lat="39.628071" lon="-0.435862">
        <ele>140</ele>
        <time>2018-11-04T08:39:16.000Z</time>
      </trkpt>
      <trkpt lat="39.628115" lon="-0.435861">
        <ele>140</ele>
        <time>2018-11-04T08:39:17.000Z</time>
      </trkpt>
      <trkpt lat="39.628158" lon="-0.435858">
        <ele>140</ele>
        <time>2018-11-04T08:39:18.000Z</time>
      </trkpt>
      <trkpt lat="39.628201" lon="-0.435854">
        <ele>139.36</ele>
        <time>2018-11-04T08:39:19.000Z</time>
      </trkpt>
      <trkpt lat="39.628243" lon="-0.435851">
        <ele>139.64</ele>
        <time>2018-11-04T08:39:20.000Z</time>
      </trkpt>
      <trkpt lat="39.628285" lon="-0.435848">
        <ele>139.36</ele>
        <time>2018-11-04T08:39:21.000Z</time>
      </trkpt>
      <trkpt lat="39.628328" lon="-0.435845">
        <ele>139</ele>
        <time>2018-11-04T08:39:22.000Z</time>
      </trkpt>
      <trkpt lat="39.628371" lon="-0.435844">
        <ele>139</ele>
        <time>2018-11-04T08:39:23.000Z</time>
      </trkpt>
      <trkpt lat="39.628414" lon="-0.435843">
        <ele>139</ele>
        <time>2018-11-04T08:39:24.000Z</time>
      </trkpt>
      <trkpt lat="39.628457" lon="-0.43584">
        <ele>139</ele>
        <time>2018-11-04T08:39:25.000Z</time>
      </trkpt>
      <trkpt lat="39.6285" lon="-0.435835">
        <ele>139</ele>
        <time>2018-11-04T08:39:26.000Z</time>
      </trkpt>
      <trkpt lat="39.628544" lon="-0.43583">
        <ele>139</ele>
        <time>2018-11-04T08:39:27.000Z</time>
      </trkpt>
      <trkpt lat="39.628588" lon="-0.435823">
        <ele>139</ele>
        <time>2018-11-04T08:39:28.000Z</time>
      </trkpt>
      <trkpt lat="39.628632" lon="-0.435816">
        <ele>139</ele>
        <time>2018-11-04T08:39:29.000Z</time>
      </trkpt>
      <trkpt lat="39.628676" lon="-0.435813">
        <ele>139</ele>
        <time>2018-11-04T08:39:30.000Z</time>
      </trkpt>
      <trkpt lat="39.628719" lon="-0.43581">
        <ele>139</ele>
        <time>2018-11-04T08:39:31.000Z</time>
      </trkpt>
      <trkpt lat="39.62876" lon="-0.435809">
        <ele>139</ele>
        <time>2018-11-04T08:39:32.000Z</time>
      </trkpt>
      <trkpt lat="39.628803" lon="-0.435806">
        <ele>139</ele>
        <time>2018-11-04T08:39:33.000Z</time>
      </trkpt>
      <trkpt lat="39.628846" lon="-0.435805">
        <ele>139</ele>
        <time>2018-11-04T08:39:34.000Z</time>
      </trkpt>
      <trkpt lat="39.628889" lon="-0.435804">
        <ele>139</ele>
        <time>2018-11-04T08:39:35.000Z</time>
      </trkpt>
      <trkpt lat="39.628933" lon="-0.435804">
        <ele>139</ele>
        <time>2018-11-04T08:39:36.000Z</time>
      </trkpt>
      <trkpt lat="39.628977" lon="-0.435801">
        <ele>139</ele>
        <time>2018-11-04T08:39:37.000Z</time>
      </trkpt>
      <trkpt lat="39.629019" lon="-0.435797">
        <ele>139</ele>
        <time>2018-11-04T08:39:38.000Z</time>
      </trkpt>
      <trkpt lat="39.629061" lon="-0.435793">
        <ele>139</ele>
        <time>2018-11-04T08:39:39.000Z</time>
      </trkpt>
      <trkpt lat="39.629103" lon="-0.435792">
        <ele>139</ele>
        <time>2018-11-04T08:39:40.000Z</time>
      </trkpt>
      <trkpt lat="39.629146" lon="-0.43579">
        <ele>139</ele>
        <time>2018-11-04T08:39:41.000Z</time>
      </trkpt>
      <trkpt lat="39.629188" lon="-0.435787">
        <ele>139.64</ele>
        <time>2018-11-04T08:39:42.000Z</time>
      </trkpt>
      <trkpt lat="39.629229" lon="-0.435785">
        <ele>140</ele>
        <time>2018-11-04T08:39:43.000Z</time>
      </trkpt>
      <trkpt lat="39.629271" lon="-0.435785">
        <ele>140</ele>
        <time>2018-11-04T08:39:44.000Z</time>
      </trkpt>
      <trkpt lat="39.629313" lon="-0.435786">
        <ele>140</ele>
        <time>2018-11-04T08:39:45.000Z</time>
      </trkpt>
      <trkpt lat="39.629355" lon="-0.435784">
        <ele>140</ele>
        <time>2018-11-04T08:39:46.000Z</time>
      </trkpt>
      <trkpt lat="39.629397" lon="-0.435781">
        <ele>140</ele>
        <time>2018-11-04T08:39:47.000Z</time>
      </trkpt>
      <trkpt lat="39.629437" lon="-0.43578">
        <ele>140</ele>
        <time>2018-11-04T08:39:48.000Z</time>
      </trkpt>
      <trkpt lat="39.629478" lon="-0.435779">
        <ele>140.64</ele>
        <time>2018-11-04T08:39:49.000Z</time>
      </trkpt>
      <trkpt lat="39.629518" lon="-0.435778">
        <ele>141</ele>
        <time>2018-11-04T08:39:50.000Z</time>
      </trkpt>
      <trkpt lat="39.629558" lon="-0.435776">
        <ele>141</ele>
        <time>2018-11-04T08:39:51.000Z</time>
      </trkpt>
      <trkpt lat="39.629597" lon="-0.435774">
        <ele>141</ele>
        <time>2018-11-04T08:39:52.000Z</time>
      </trkpt>
      <trkpt lat="39.629637" lon="-0.435772">
        <ele>141</ele>
        <time>2018-11-04T08:39:53.000Z</time>
      </trkpt>
      <trkpt lat="39.629679" lon="-0.435769">
        <ele>141</ele>
        <time>2018-11-04T08:39:54.000Z</time>
      </trkpt>
      <trkpt lat="39.629721" lon="-0.435765">
        <ele>141</ele>
        <time>2018-11-04T08:39:55.000Z</time>
      </trkpt>
      <trkpt lat="39.629761" lon="-0.435762">
        <ele>141</ele>
        <time>2018-11-04T08:39:56.000Z</time>
      </trkpt>
      <trkpt lat="39.629802" lon="-0.435758">
        <ele>141</ele>
        <time>2018-11-04T08:39:57.000Z</time>
      </trkpt>
      <trkpt lat="39.629842" lon="-0.435754">
        <ele>141</ele>
        <time>2018-11-04T08:39:58.000Z</time>
      </trkpt>
      <trkpt lat="39.629882" lon="-0.435751">
        <ele>141</ele>
        <time>2018-11-04T08:39:59.000Z</time>
      </trkpt>
      <trkpt lat="39.629922" lon="-0.43575">
        <ele>141</ele>
        <time>2018-11-04T08:40:00.000Z</time>
      </trkpt>
      <trkpt lat="39.629962" lon="-0.435748">
        <ele>141</ele>
        <time>2018-11-04T08:40:01.000Z</time>
      </trkpt>
      <trkpt lat="39.630002" lon="-0.435747">
        <ele>141</ele>
        <time>2018-11-04T08:40:02.000Z</time>
      </trkpt>
      <trkpt lat="39.630042" lon="-0.435745">
        <ele>141</ele>
        <time>2018-11-04T08:40:03.000Z</time>
      </trkpt>
      <trkpt lat="39.630083" lon="-0.435742">
        <ele>141.492960031729</ele>
        <time>2018-11-04T08:40:04.000Z</time>
      </trkpt>
      <trkpt lat="39.630122" lon="-0.435741">
        <ele>142</ele>
        <time>2018-11-04T08:40:05.000Z</time>
      </trkpt>
      <trkpt lat="39.630161" lon="-0.435743">
        <ele>142</ele>
        <time>2018-11-04T08:40:06.000Z</time>
      </trkpt>
      <trkpt lat="39.630201" lon="-0.435741">
        <ele>142</ele>
        <time>2018-11-04T08:40:07.000Z</time>
      </trkpt>
      <trkpt lat="39.630239" lon="-0.43574">
        <ele>142</ele>
        <time>2018-11-04T08:40:08.000Z</time>
      </trkpt>
      <trkpt lat="39.630278" lon="-0.435738">
        <ele>142</ele>
        <time>2018-11-04T08:40:09.000Z</time>
      </trkpt>
      <trkpt lat="39.630317" lon="-0.435733">
        <ele>142</ele>
        <time>2018-11-04T08:40:10.000Z</time>
      </trkpt>
      <trkpt lat="39.630356" lon="-0.435728">
        <ele>142</ele>
        <time>2018-11-04T08:40:11.000Z</time>
      </trkpt>
      <trkpt lat="39.630396" lon="-0.435721">
        <ele>142</ele>
        <time>2018-11-04T08:40:12.000Z</time>
      </trkpt>
      <trkpt lat="39.630434" lon="-0.435719">
        <ele>142</ele>
        <time>2018-11-04T08:40:13.000Z</time>
      </trkpt>
      <trkpt lat="39.630473" lon="-0.435718">
        <ele>142</ele>
        <time>2018-11-04T08:40:14.000Z</time>
      </trkpt>
      <trkpt lat="39.630513" lon="-0.435717">
        <ele>142</ele>
        <time>2018-11-04T08:40:15.000Z</time>
      </trkpt>
      <trkpt lat="39.630552" lon="-0.435716">
        <ele>142</ele>
        <time>2018-11-04T08:40:16.000Z</time>
      </trkpt>
      <trkpt lat="39.630592" lon="-0.435713">
        <ele>142</ele>
        <time>2018-11-04T08:40:17.000Z</time>
      </trkpt>
      <trkpt lat="39.630631" lon="-0.435711">
        <ele>142</ele>
        <time>2018-11-04T08:40:18.000Z</time>
      </trkpt>
      <trkpt lat="39.630671" lon="-0.435708">
        <ele>142</ele>
        <time>2018-11-04T08:40:19.000Z</time>
      </trkpt>
      <trkpt lat="39.63071" lon="-0.435706">
        <ele>142</ele>
        <time>2018-11-04T08:40:20.000Z</time>
      </trkpt>
      <trkpt lat="39.630748" lon="-0.435704">
        <ele>142</ele>
        <time>2018-11-04T08:40:21.000Z</time>
      </trkpt>
      <trkpt lat="39.630787" lon="-0.435703">
        <ele>142</ele>
        <time>2018-11-04T08:40:22.000Z</time>
      </trkpt>
      <trkpt lat="39.630825" lon="-0.435702">
        <ele>142.64</ele>
        <time>2018-11-04T08:40:23.000Z</time>
      </trkpt>
      <trkpt lat="39.630864" lon="-0.4357">
        <ele>143</ele>
        <time>2018-11-04T08:40:24.000Z</time>
      </trkpt>
      <trkpt lat="39.630904" lon="-0.435698">
        <ele>143</ele>
        <time>2018-11-04T08:40:25.000Z</time>
      </trkpt>
      <trkpt lat="39.630945" lon="-0.435694">
        <ele>143</ele>
        <time>2018-11-04T08:40:26.000Z</time>
      </trkpt>
      <trkpt lat="39.630986" lon="-0.43569">
        <ele>143</ele>
        <time>2018-11-04T08:40:27.000Z</time>
      </trkpt>
      <trkpt lat="39.631028" lon="-0.435685">
        <ele>143</ele>
        <time>2018-11-04T08:40:28.000Z</time>
      </trkpt>
      <trkpt lat="39.631071" lon="-0.43568">
        <ele>143</ele>
        <time>2018-11-04T08:40:29.000Z</time>
      </trkpt>
      <trkpt lat="39.631115" lon="-0.435678">
        <ele>143</ele>
        <time>2018-11-04T08:40:30.000Z</time>
      </trkpt>
      <trkpt lat="39.63116" lon="-0.435676">
        <ele>143</ele>
        <time>2018-11-04T08:40:31.000Z</time>
      </trkpt>
      <trkpt lat="39.631206" lon="-0.435674">
        <ele>143</ele>
        <time>2018-11-04T08:40:32.000Z</time>
      </trkpt>
      <trkpt lat="39.631254" lon="-0.435669">
        <ele>143</ele>
        <time>2018-11-04T08:40:33.000Z</time>
      </trkpt>
      <trkpt lat="39.631304" lon="-0.435662">
        <ele>143</ele>
        <time>2018-11-04T08:40:34.000Z</time>
      </trkpt>
      <trkpt lat="39.631354" lon="-0.435653">
        <ele>143.64</ele>
        <time>2018-11-04T08:40:35.000Z</time>
      </trkpt>
      <trkpt lat="39.631403" lon="-0.435642">
        <ele>144</ele>
        <time>2018-11-04T08:40:36.000Z</time>
      </trkpt>
      <trkpt lat="39.631453" lon="-0.435629">
        <ele>144</ele>
        <time>2018-11-04T08:40:37.000Z</time>
      </trkpt>
      <trkpt lat="39.631503" lon="-0.435614">
        <ele>144</ele>
        <time>2018-11-04T08:40:38.000Z</time>
      </trkpt>
      <trkpt lat="39.631552" lon="-0.435598">
        <ele>144</ele>
        <time>2018-11-04T08:40:39.000Z</time>
      </trkpt>
      <trkpt lat="39.6316" lon="-0.435577">
        <ele>144</ele>
        <time>2018-11-04T08:40:40.000Z</time>
      </trkpt>
      <trkpt lat="39.631647" lon="-0.435558">
        <ele>144</ele>
        <time>2018-11-04T08:40:41.000Z</time>
      </trkpt>
      <trkpt lat="39.631694" lon="-0.435539">
        <ele>144.64</ele>
        <time>2018-11-04T08:40:42.000Z</time>
      </trkpt>
      <trkpt lat="39.631739" lon="-0.435524">
        <ele>145</ele>
        <time>2018-11-04T08:40:43.000Z</time>
      </trkpt>
      <trkpt lat="39.631783" lon="-0.435508">
        <ele>145</ele>
        <time>2018-11-04T08:40:44.000Z</time>
      </trkpt>
      <trkpt lat="39.631826" lon="-0.43549">
        <ele>145</ele>
        <time>2018-11-04T08:40:45.000Z</time>
      </trkpt>
      <trkpt lat="39.631868" lon="-0.435474">
        <ele>145.64</ele>
        <time>2018-11-04T08:40:46.000Z</time>
      </trkpt>
      <trkpt lat="39.631913" lon="-0.435456">
        <ele>146</ele>
        <time>2018-11-04T08:40:47.000Z</time>
      </trkpt>
      <trkpt lat="39.63196" lon="-0.435438">
        <ele>146</ele>
        <time>2018-11-04T08:40:48.000Z</time>
      </trkpt>
      <trkpt lat="39.632009" lon="-0.435423">
        <ele>146</ele>
        <time>2018-11-04T08:40:49.000Z</time>
      </trkpt>
      <trkpt lat="39.63206" lon="-0.435404">
        <ele>146</ele>
        <time>2018-11-04T08:40:50.000Z</time>
      </trkpt>
      <trkpt lat="39.632112" lon="-0.435383">
        <ele>146</ele>
        <time>2018-11-04T08:40:51.000Z</time>
      </trkpt>
      <trkpt lat="39.632161" lon="-0.435362">
        <ele>146</ele>
        <time>2018-11-04T08:40:52.000Z</time>
      </trkpt>
      <trkpt lat="39.632212" lon="-0.435341">
        <ele>146</ele>
        <time>2018-11-04T08:40:53.000Z</time>
      </trkpt>
      <trkpt lat="39.632265" lon="-0.43532">
        <ele>146</ele>
        <time>2018-11-04T08:40:54.000Z</time>
      </trkpt>
      <trkpt lat="39.632316" lon="-0.435299">
        <ele>146</ele>
        <time>2018-11-04T08:40:55.000Z</time>
      </trkpt>
      <trkpt lat="39.632366" lon="-0.435279">
        <ele>146</ele>
        <time>2018-11-04T08:40:56.000Z</time>
      </trkpt>
      <trkpt lat="39.632416" lon="-0.435259">
        <ele>146</ele>
        <time>2018-11-04T08:40:57.000Z</time>
      </trkpt>
      <trkpt lat="39.632467" lon="-0.435239">
        <ele>146</ele>
        <time>2018-11-04T08:40:58.000Z</time>
      </trkpt>
      <trkpt lat="39.632516" lon="-0.435218">
        <ele>146</ele>
        <time>2018-11-04T08:40:59.000Z</time>
      </trkpt>
      <trkpt lat="39.632565" lon="-0.435198">
        <ele>146</ele>
        <time>2018-11-04T08:41:00.000Z</time>
      </trkpt>
      <trkpt lat="39.632615" lon="-0.435177">
        <ele>146</ele>
        <time>2018-11-04T08:41:01.000Z</time>
      </trkpt>
      <trkpt lat="39.632666" lon="-0.435154">
        <ele>146</ele>
        <time>2018-11-04T08:41:02.000Z</time>
      </trkpt>
      <trkpt lat="39.632716" lon="-0.43513">
        <ele>146</ele>
        <time>2018-11-04T08:41:03.000Z</time>
      </trkpt>
      <trkpt lat="39.632766" lon="-0.435108">
        <ele>146.64</ele>
        <time>2018-11-04T08:41:04.000Z</time>
      </trkpt>
      <trkpt lat="39.632815" lon="-0.435087">
        <ele>147</ele>
        <time>2018-11-04T08:41:05.000Z</time>
      </trkpt>
      <trkpt lat="39.632864" lon="-0.435067">
        <ele>147</ele>
        <time>2018-11-04T08:41:06.000Z</time>
      </trkpt>
      <trkpt lat="39.632916" lon="-0.435049">
        <ele>147.506847153303</ele>
        <time>2018-11-04T08:41:07.000Z</time>
      </trkpt>
      <trkpt lat="39.632967" lon="-0.435032">
        <ele>148</ele>
        <time>2018-11-04T08:41:08.000Z</time>
      </trkpt>
      <trkpt lat="39.633017" lon="-0.435017">
        <ele>148</ele>
        <time>2018-11-04T08:41:09.000Z</time>
      </trkpt>
      <trkpt lat="39.633066" lon="-0.435002">
        <ele>148.64</ele>
        <time>2018-11-04T08:41:10.000Z</time>
      </trkpt>
      <trkpt lat="39.633114" lon="-0.434986">
        <ele>149</ele>
        <time>2018-11-04T08:41:11.000Z</time>
      </trkpt>
      <trkpt lat="39.633162" lon="-0.434968">
        <ele>149.496125261706</ele>
        <time>2018-11-04T08:41:12.000Z</time>
      </trkpt>
      <trkpt lat="39.633208" lon="-0.434952">
        <ele>150</ele>
        <time>2018-11-04T08:41:13.000Z</time>
      </trkpt>
      <trkpt lat="39.633251" lon="-0.434937">
        <ele>150.64</ele>
        <time>2018-11-04T08:41:14.000Z</time>
      </trkpt>
      <trkpt lat="39.633291" lon="-0.434921">
        <ele>151</ele>
        <time>2018-11-04T08:41:15.000Z</time>
      </trkpt>
      <trkpt lat="39.633332" lon="-0.434903">
        <ele>151</ele>
        <time>2018-11-04T08:41:16.000Z</time>
      </trkpt>
      <trkpt lat="39.633372" lon="-0.434885">
        <ele>151</ele>
        <time>2018-11-04T08:41:17.000Z</time>
      </trkpt>
      <trkpt lat="39.63341" lon="-0.434868">
        <ele>151</ele>
        <time>2018-11-04T08:41:18.000Z</time>
      </trkpt>
      <trkpt lat="39.633449" lon="-0.434852">
        <ele>151</ele>
        <time>2018-11-04T08:41:19.000Z</time>
      </trkpt>
      <trkpt lat="39.633487" lon="-0.434835">
        <ele>151</ele>
        <time>2018-11-04T08:41:20.000Z</time>
      </trkpt>
      <trkpt lat="39.633527" lon="-0.434816">
        <ele>151.64</ele>
        <time>2018-11-04T08:41:21.000Z</time>
      </trkpt>
      <trkpt lat="39.633568" lon="-0.434799">
        <ele>152</ele>
        <time>2018-11-04T08:41:22.000Z</time>
      </trkpt>
      <trkpt lat="39.63361" lon="-0.434784">
        <ele>152</ele>
        <time>2018-11-04T08:41:23.000Z</time>
      </trkpt>
      <trkpt lat="39.63365" lon="-0.434767">
        <ele>152.64</ele>
        <time>2018-11-04T08:41:24.000Z</time>
      </trkpt>
      <trkpt lat="39.633692" lon="-0.43475">
        <ele>153</ele>
        <time>2018-11-04T08:41:25.000Z</time>
      </trkpt>
      <trkpt lat="39.63373" lon="-0.434733">
        <ele>153</ele>
        <time>2018-11-04T08:41:26.000Z</time>
      </trkpt>
      <trkpt lat="39.633767" lon="-0.434718">
        <ele>153</ele>
        <time>2018-11-04T08:41:27.000Z</time>
      </trkpt>
      <trkpt lat="39.633803" lon="-0.434704">
        <ele>153</ele>
        <time>2018-11-04T08:41:28.000Z</time>
      </trkpt>
      <trkpt lat="39.633837" lon="-0.434689">
        <ele>153</ele>
        <time>2018-11-04T08:41:29.000Z</time>
      </trkpt>
      <trkpt lat="39.633869" lon="-0.434674">
        <ele>153</ele>
        <time>2018-11-04T08:41:30.000Z</time>
      </trkpt>
      <trkpt lat="39.633901" lon="-0.43466">
        <ele>153</ele>
        <time>2018-11-04T08:41:31.000Z</time>
      </trkpt>
      <trkpt lat="39.633932" lon="-0.434645">
        <ele>153.496125261706</ele>
        <time>2018-11-04T08:41:32.000Z</time>
      </trkpt>
      <trkpt lat="39.633963" lon="-0.434629">
        <ele>154</ele>
        <time>2018-11-04T08:41:33.000Z</time>
      </trkpt>
      <trkpt lat="39.633995" lon="-0.434616">
        <ele>154</ele>
        <time>2018-11-04T08:41:34.000Z</time>
      </trkpt>
      <trkpt lat="39.634026" lon="-0.434602">
        <ele>154</ele>
        <time>2018-11-04T08:41:35.000Z</time>
      </trkpt>
      <trkpt lat="39.634058" lon="-0.434588">
        <ele>154</ele>
        <time>2018-11-04T08:41:36.000Z</time>
      </trkpt>
      <trkpt lat="39.634089" lon="-0.434574">
        <ele>154</ele>
        <time>2018-11-04T08:41:37.000Z</time>
      </trkpt>
      <trkpt lat="39.634122" lon="-0.434561">
        <ele>154</ele>
        <time>2018-11-04T08:41:38.000Z</time>
      </trkpt>
      <trkpt lat="39.634154" lon="-0.434546">
        <ele>154</ele>
        <time>2018-11-04T08:41:39.000Z</time>
      </trkpt>
      <trkpt lat="39.634186" lon="-0.43453">
        <ele>154</ele>
        <time>2018-11-04T08:41:40.000Z</time>
      </trkpt>
      <trkpt lat="39.634217" lon="-0.434516">
        <ele>154</ele>
        <time>2018-11-04T08:41:41.000Z</time>
      </trkpt>
      <trkpt lat="39.634249" lon="-0.434503">
        <ele>154</ele>
        <time>2018-11-04T08:41:42.000Z</time>
      </trkpt>
      <trkpt lat="39.634281" lon="-0.434489">
        <ele>154</ele>
        <time>2018-11-04T08:41:43.000Z</time>
      </trkpt>
      <trkpt lat="39.634314" lon="-0.434477">
        <ele>154</ele>
        <time>2018-11-04T08:41:44.000Z</time>
      </trkpt>
      <trkpt lat="39.634346" lon="-0.434465">
        <ele>154.5</ele>
        <time>2018-11-04T08:41:45.000Z</time>
      </trkpt>
      <trkpt lat="39.634377" lon="-0.434452">
        <ele>155</ele>
        <time>2018-11-04T08:41:46.000Z</time>
      </trkpt>
      <trkpt lat="39.634407" lon="-0.43444">
        <ele>155</ele>
        <time>2018-11-04T08:41:47.000Z</time>
      </trkpt>
      <trkpt lat="39.634438" lon="-0.434427">
        <ele>155</ele>
        <time>2018-11-04T08:41:48.000Z</time>
      </trkpt>
      <trkpt lat="39.63447" lon="-0.434415">
        <ele>155</ele>
        <time>2018-11-04T08:41:49.000Z</time>
      </trkpt>
      <trkpt lat="39.634503" lon="-0.434402">
        <ele>155</ele>
        <time>2018-11-04T08:41:50.000Z</time>
      </trkpt>
      <trkpt lat="39.634533" lon="-0.43439">
        <ele>155</ele>
        <time>2018-11-04T08:41:51.000Z</time>
      </trkpt>
      <trkpt lat="39.634566" lon="-0.434381">
        <ele>155</ele>
        <time>2018-11-04T08:41:52.000Z</time>
      </trkpt>
      <trkpt lat="39.634599" lon="-0.434369">
        <ele>155</ele>
        <time>2018-11-04T08:41:53.000Z</time>
      </trkpt>
      <trkpt lat="39.63463" lon="-0.434356">
        <ele>155</ele>
        <time>2018-11-04T08:41:54.000Z</time>
      </trkpt>
      <trkpt lat="39.634661" lon="-0.434343">
        <ele>155.64</ele>
        <time>2018-11-04T08:41:55.000Z</time>
      </trkpt>
      <trkpt lat="39.634692" lon="-0.43433">
        <ele>156</ele>
        <time>2018-11-04T08:41:56.000Z</time>
      </trkpt>
      <trkpt lat="39.634725" lon="-0.43432">
        <ele>156</ele>
        <time>2018-11-04T08:41:57.000Z</time>
      </trkpt>
      <trkpt lat="39.634755" lon="-0.434309">
        <ele>156.64</ele>
        <time>2018-11-04T08:41:58.000Z</time>
      </trkpt>
      <trkpt lat="39.634783" lon="-0.434296">
        <ele>157</ele>
        <time>2018-11-04T08:41:59.000Z</time>
      </trkpt>
      <trkpt lat="39.63481" lon="-0.434282">
        <ele>157</ele>
        <time>2018-11-04T08:42:00.000Z</time>
      </trkpt>
      <trkpt lat="39.634837" lon="-0.434268">
        <ele>157</ele>
        <time>2018-11-04T08:42:01.000Z</time>
      </trkpt>
      <trkpt lat="39.634862" lon="-0.434254">
        <ele>157</ele>
        <time>2018-11-04T08:42:02.000Z</time>
      </trkpt>
      <trkpt lat="39.63489" lon="-0.434239">
        <ele>157</ele>
        <time>2018-11-04T08:42:03.000Z</time>
      </trkpt>
      <trkpt lat="39.634918" lon="-0.434225">
        <ele>157</ele>
        <time>2018-11-04T08:42:04.000Z</time>
      </trkpt>
      <trkpt lat="39.634946" lon="-0.434207">
        <ele>157</ele>
        <time>2018-11-04T08:42:05.000Z</time>
      </trkpt>
      <trkpt lat="39.634974" lon="-0.434186">
        <ele>157</ele>
        <time>2018-11-04T08:42:06.000Z</time>
      </trkpt>
      <trkpt lat="39.635007" lon="-0.434175">
        <ele>157</ele>
        <time>2018-11-04T08:42:07.000Z</time>
      </trkpt>
      <trkpt lat="39.63504" lon="-0.434164">
        <ele>157</ele>
        <time>2018-11-04T08:42:08.000Z</time>
      </trkpt>
      <trkpt lat="39.635068" lon="-0.434152">
        <ele>157</ele>
        <time>2018-11-04T08:42:09.000Z</time>
      </trkpt>
      <trkpt lat="39.635099" lon="-0.434138">
        <ele>157</ele>
        <time>2018-11-04T08:42:10.000Z</time>
      </trkpt>
      <trkpt lat="39.635129" lon="-0.434125">
        <ele>157</ele>
        <time>2018-11-04T08:42:11.000Z</time>
      </trkpt>
      <trkpt lat="39.635161" lon="-0.434111">
        <ele>157</ele>
        <time>2018-11-04T08:42:12.000Z</time>
      </trkpt>
      <trkpt lat="39.635191" lon="-0.434099">
        <ele>157</ele>
        <time>2018-11-04T08:42:13.000Z</time>
      </trkpt>
      <trkpt lat="39.635223" lon="-0.434087">
        <ele>157</ele>
        <time>2018-11-04T08:42:14.000Z</time>
      </trkpt>
      <trkpt lat="39.635256" lon="-0.434075">
        <ele>157</ele>
        <time>2018-11-04T08:42:15.000Z</time>
      </trkpt>
      <trkpt lat="39.635288" lon="-0.434062">
        <ele>157</ele>
        <time>2018-11-04T08:42:16.000Z</time>
      </trkpt>
      <trkpt lat="39.63532" lon="-0.434046">
        <ele>157</ele>
        <time>2018-11-04T08:42:17.000Z</time>
      </trkpt>
      <trkpt lat="39.63535" lon="-0.434034">
        <ele>157</ele>
        <time>2018-11-04T08:42:18.000Z</time>
      </trkpt>
      <trkpt lat="39.63538" lon="-0.434024">
        <ele>157</ele>
        <time>2018-11-04T08:42:19.000Z</time>
      </trkpt>
      <trkpt lat="39.635411" lon="-0.434013">
        <ele>157.64</ele>
        <time>2018-11-04T08:42:20.000Z</time>
      </trkpt>
      <trkpt lat="39.635443" lon="-0.434001">
        <ele>158</ele>
        <time>2018-11-04T08:42:21.000Z</time>
      </trkpt>
      <trkpt lat="39.635475" lon="-0.433986">
        <ele>158</ele>
        <time>2018-11-04T08:42:22.000Z</time>
      </trkpt>
      <trkpt lat="39.635508" lon="-0.433971">
        <ele>158</ele>
        <time>2018-11-04T08:42:23.000Z</time>
      </trkpt>
      <trkpt lat="39.635541" lon="-0.433955">
        <ele>158</ele>
        <time>2018-11-04T08:42:24.000Z</time>
      </trkpt>
      <trkpt lat="39.635574" lon="-0.433941">
        <ele>158</ele>
        <time>2018-11-04T08:42:25.000Z</time>
      </trkpt>
      <trkpt lat="39.63561" lon="-0.433929">
        <ele>158</ele>
        <time>2018-11-04T08:42:26.000Z</time>
      </trkpt>
      <trkpt lat="39.635642" lon="-0.433916">
        <ele>158</ele>
        <time>2018-11-04T08:42:27.000Z</time>
      </trkpt>
      <trkpt lat="39.635672" lon="-0.433902">
        <ele>158</ele>
        <time>2018-11-04T08:42:28.000Z</time>
      </trkpt>
      <trkpt lat="39.635703" lon="-0.433889">
        <ele>158</ele>
        <time>2018-11-04T08:42:29.000Z</time>
      </trkpt>
      <trkpt lat="39.635737" lon="-0.433877">
        <ele>158</ele>
        <time>2018-11-04T08:42:30.000Z</time>
      </trkpt>
      <trkpt lat="39.635769" lon="-0.433865">
        <ele>158</ele>
        <time>2018-11-04T08:42:31.000Z</time>
      </trkpt>
      <trkpt lat="39.635805" lon="-0.433855">
        <ele>158.64</ele>
        <time>2018-11-04T08:42:32.000Z</time>
      </trkpt>
      <trkpt lat="39.635839" lon="-0.433843">
        <ele>159</ele>
        <time>2018-11-04T08:42:33.000Z</time>
      </trkpt>
      <trkpt lat="39.635872" lon="-0.43383">
        <ele>159</ele>
        <time>2018-11-04T08:42:34.000Z</time>
      </trkpt>
      <trkpt lat="39.635903" lon="-0.433815">
        <ele>159</ele>
        <time>2018-11-04T08:42:35.000Z</time>
      </trkpt>
      <trkpt lat="39.635935" lon="-0.433799">
        <ele>159</ele>
        <time>2018-11-04T08:42:36.000Z</time>
      </trkpt>
      <trkpt lat="39.635964" lon="-0.433785">
        <ele>159</ele>
        <time>2018-11-04T08:42:37.000Z</time>
      </trkpt>
      <trkpt lat="39.635997" lon="-0.433771">
        <ele>159</ele>
        <time>2018-11-04T08:42:38.000Z</time>
      </trkpt>
      <trkpt lat="39.636027" lon="-0.433757">
        <ele>159</ele>
        <time>2018-11-04T08:42:39.000Z</time>
      </trkpt>
      <trkpt lat="39.63606" lon="-0.433744">
        <ele>159</ele>
        <time>2018-11-04T08:42:40.000Z</time>
      </trkpt>
      <trkpt lat="39.636092" lon="-0.43373">
        <ele>159.503935738115</ele>
        <time>2018-11-04T08:42:41.000Z</time>
      </trkpt>
      <trkpt lat="39.636123" lon="-0.433715">
        <ele>160</ele>
        <time>2018-11-04T08:42:42.000Z</time>
      </trkpt>
      <trkpt lat="39.636153" lon="-0.433699">
        <ele>160</ele>
        <time>2018-11-04T08:42:43.000Z</time>
      </trkpt>
      <trkpt lat="39.636184" lon="-0.433685">
        <ele>160</ele>
        <time>2018-11-04T08:42:44.000Z</time>
      </trkpt>
      <trkpt lat="39.636213" lon="-0.433675">
        <ele>160</ele>
        <time>2018-11-04T08:42:45.000Z</time>
      </trkpt>
      <trkpt lat="39.636243" lon="-0.433662">
        <ele>160</ele>
        <time>2018-11-04T08:42:46.000Z</time>
      </trkpt>
      <trkpt lat="39.636272" lon="-0.433649">
        <ele>160</ele>
        <time>2018-11-04T08:42:47.000Z</time>
      </trkpt>
      <trkpt lat="39.636302" lon="-0.433638">
        <ele>160</ele>
        <time>2018-11-04T08:42:48.000Z</time>
      </trkpt>
      <trkpt lat="39.636333" lon="-0.433624">
        <ele>160</ele>
        <time>2018-11-04T08:42:49.000Z</time>
      </trkpt>
      <trkpt lat="39.636362" lon="-0.433611">
        <ele>160.64</ele>
        <time>2018-11-04T08:42:50.000Z</time>
      </trkpt>
      <trkpt lat="39.636391" lon="-0.433598">
        <ele>161</ele>
        <time>2018-11-04T08:42:51.000Z</time>
      </trkpt>
      <trkpt lat="39.636419" lon="-0.433586">
        <ele>161</ele>
        <time>2018-11-04T08:42:52.000Z</time>
      </trkpt>
      <trkpt lat="39.63645" lon="-0.433573">
        <ele>161</ele>
        <time>2018-11-04T08:42:53.000Z</time>
      </trkpt>
      <trkpt lat="39.636482" lon="-0.433559">
        <ele>161</ele>
        <time>2018-11-04T08:42:54.000Z</time>
      </trkpt>
      <trkpt lat="39.636512" lon="-0.433544">
        <ele>161</ele>
        <time>2018-11-04T08:42:55.000Z</time>
      </trkpt>
      <trkpt lat="39.636541" lon="-0.433528">
        <ele>161</ele>
        <time>2018-11-04T08:42:56.000Z</time>
      </trkpt>
      <trkpt lat="39.636572" lon="-0.433516">
        <ele>161</ele>
        <time>2018-11-04T08:42:57.000Z</time>
      </trkpt>
      <trkpt lat="39.636602" lon="-0.433504">
        <ele>161.64</ele>
        <time>2018-11-04T08:42:58.000Z</time>
      </trkpt>
      <trkpt lat="39.636632" lon="-0.433491">
        <ele>162</ele>
        <time>2018-11-04T08:42:59.000Z</time>
      </trkpt>
      <trkpt lat="39.63666" lon="-0.433479">
        <ele>162</ele>
        <time>2018-11-04T08:43:00.000Z</time>
      </trkpt>
      <trkpt lat="39.63669" lon="-0.433466">
        <ele>162</ele>
        <time>2018-11-04T08:43:01.000Z</time>
      </trkpt>
      <trkpt lat="39.636719" lon="-0.433453">
        <ele>162</ele>
        <time>2018-11-04T08:43:02.000Z</time>
      </trkpt>
      <trkpt lat="39.636751" lon="-0.433441">
        <ele>162.64</ele>
        <time>2018-11-04T08:43:03.000Z</time>
      </trkpt>
      <trkpt lat="39.636783" lon="-0.43343">
        <ele>163</ele>
        <time>2018-11-04T08:43:04.000Z</time>
      </trkpt>
      <trkpt lat="39.636813" lon="-0.433417">
        <ele>163</ele>
        <time>2018-11-04T08:43:05.000Z</time>
      </trkpt>
      <trkpt lat="39.636843" lon="-0.433407">
        <ele>163</ele>
        <time>2018-11-04T08:43:06.000Z</time>
      </trkpt>
      <trkpt lat="39.636875" lon="-0.433398">
        <ele>163.64</ele>
        <time>2018-11-04T08:43:07.000Z</time>
      </trkpt>
      <trkpt lat="39.636906" lon="-0.433388">
        <ele>164</ele>
        <time>2018-11-04T08:43:08.000Z</time>
      </trkpt>
      <trkpt lat="39.636935" lon="-0.433372">
        <ele>164</ele>
        <time>2018-11-04T08:43:09.000Z</time>
      </trkpt>
      <trkpt lat="39.636965" lon="-0.433357">
        <ele>164</ele>
        <time>2018-11-04T08:43:10.000Z</time>
      </trkpt>
      <trkpt lat="39.637001" lon="-0.433342">
        <ele>164.64</ele>
        <time>2018-11-04T08:43:11.000Z</time>
      </trkpt>
      <trkpt lat="39.637042" lon="-0.433334">
        <ele>165</ele>
        <time>2018-11-04T08:43:12.000Z</time>
      </trkpt>
      <trkpt lat="39.637073" lon="-0.43332">
        <ele>165</ele>
        <time>2018-11-04T08:43:13.000Z</time>
      </trkpt>
      <trkpt lat="39.637102" lon="-0.433306">
        <ele>165</ele>
        <time>2018-11-04T08:43:14.000Z</time>
      </trkpt>
      <trkpt lat="39.637135" lon="-0.43329">
        <ele>165</ele>
        <time>2018-11-04T08:43:15.000Z</time>
      </trkpt>
      <trkpt lat="39.637164" lon="-0.433276">
        <ele>165</ele>
        <time>2018-11-04T08:43:16.000Z</time>
      </trkpt>
      <trkpt lat="39.637194" lon="-0.433262">
        <ele>165.64</ele>
        <time>2018-11-04T08:43:17.000Z</time>
      </trkpt>
      <trkpt lat="39.637227" lon="-0.433251">
        <ele>166</ele>
        <time>2018-11-04T08:43:18.000Z</time>
      </trkpt>
      <trkpt lat="39.637256" lon="-0.433238">
        <ele>166</ele>
        <time>2018-11-04T08:43:19.000Z</time>
      </trkpt>
      <trkpt lat="39.637287" lon="-0.433225">
        <ele>166</ele>
        <time>2018-11-04T08:43:20.000Z</time>
      </trkpt>
      <trkpt lat="39.637316" lon="-0.43321">
        <ele>166</ele>
        <time>2018-11-04T08:43:21.000Z</time>
      </trkpt>
      <trkpt lat="39.637349" lon="-0.433199">
        <ele>166</ele>
        <time>2018-11-04T08:43:22.000Z</time>
      </trkpt>
      <trkpt lat="39.637379" lon="-0.433189">
        <ele>166</ele>
        <time>2018-11-04T08:43:23.000Z</time>
      </trkpt>
      <trkpt lat="39.63741" lon="-0.433177">
        <ele>166</ele>
        <time>2018-11-04T08:43:24.000Z</time>
      </trkpt>
      <trkpt lat="39.637441" lon="-0.433165">
        <ele>166</ele>
        <time>2018-11-04T08:43:25.000Z</time>
      </trkpt>
      <trkpt lat="39.637471" lon="-0.433154">
        <ele>166</ele>
        <time>2018-11-04T08:43:26.000Z</time>
      </trkpt>
      <trkpt lat="39.637503" lon="-0.433144">
        <ele>166</ele>
        <time>2018-11-04T08:43:27.000Z</time>
      </trkpt>
      <trkpt lat="39.637534" lon="-0.433132">
        <ele>166.632655460209</ele>
        <time>2018-11-04T08:43:28.000Z</time>
      </trkpt>
      <trkpt lat="39.637563" lon="-0.433121">
        <ele>167</ele>
        <time>2018-11-04T08:43:29.000Z</time>
      </trkpt>
      <trkpt lat="39.637594" lon="-0.433113">
        <ele>167</ele>
        <time>2018-11-04T08:43:30.000Z</time>
      </trkpt>
      <trkpt lat="39.637624" lon="-0.433102">
        <ele>167</ele>
        <time>2018-11-04T08:43:31.000Z</time>
      </trkpt>
      <trkpt lat="39.637655" lon="-0.433091">
        <ele>167</ele>
        <time>2018-11-04T08:43:32.000Z</time>
      </trkpt>
      <trkpt lat="39.637689" lon="-0.43308">
        <ele>167.64</ele>
        <time>2018-11-04T08:43:33.000Z</time>
      </trkpt>
      <trkpt lat="39.637723" lon="-0.433068">
        <ele>168</ele>
        <time>2018-11-04T08:43:34.000Z</time>
      </trkpt>
      <trkpt lat="39.637757" lon="-0.433056">
        <ele>168</ele>
        <time>2018-11-04T08:43:35.000Z</time>
      </trkpt>
      <trkpt lat="39.637791" lon="-0.433048">
        <ele>168</ele>
        <time>2018-11-04T08:43:36.000Z</time>
      </trkpt>
      <trkpt lat="39.637823" lon="-0.433035">
        <ele>168</ele>
        <time>2018-11-04T08:43:37.000Z</time>
      </trkpt>
      <trkpt lat="39.637852" lon="-0.43302">
        <ele>168</ele>
        <time>2018-11-04T08:43:38.000Z</time>
      </trkpt>
      <trkpt lat="39.63788" lon="-0.433002">
        <ele>168</ele>
        <time>2018-11-04T08:43:39.000Z</time>
      </trkpt>
      <trkpt lat="39.637908" lon="-0.432986">
        <ele>168</ele>
        <time>2018-11-04T08:43:40.000Z</time>
      </trkpt>
      <trkpt lat="39.637936" lon="-0.432969">
        <ele>168</ele>
        <time>2018-11-04T08:43:41.000Z</time>
      </trkpt>
      <trkpt lat="39.637964" lon="-0.432953">
        <ele>168</ele>
        <time>2018-11-04T08:43:42.000Z</time>
      </trkpt>
      <trkpt lat="39.637994" lon="-0.432935">
        <ele>168.64</ele>
        <time>2018-11-04T08:43:43.000Z</time>
      </trkpt>
      <trkpt lat="39.638024" lon="-0.432916">
        <ele>169</ele>
        <time>2018-11-04T08:43:44.000Z</time>
      </trkpt>
      <trkpt lat="39.638052" lon="-0.432897">
        <ele>169</ele>
        <time>2018-11-04T08:43:45.000Z</time>
      </trkpt>
      <trkpt lat="39.63808" lon="-0.432874">
        <ele>169</ele>
        <time>2018-11-04T08:43:46.000Z</time>
      </trkpt>
      <trkpt lat="39.638103" lon="-0.432848">
        <ele>169</ele>
        <time>2018-11-04T08:43:47.000Z</time>
      </trkpt>
      <trkpt lat="39.638124" lon="-0.43282">
        <ele>169</ele>
        <time>2018-11-04T08:43:48.000Z</time>
      </trkpt>
      <trkpt lat="39.638141" lon="-0.432786">
        <ele>169</ele>
        <time>2018-11-04T08:43:49.000Z</time>
      </trkpt>
      <trkpt lat="39.63816" lon="-0.432747">
        <ele>169</ele>
        <time>2018-11-04T08:43:50.000Z</time>
      </trkpt>
      <trkpt lat="39.638177" lon="-0.432707">
        <ele>169</ele>
        <time>2018-11-04T08:43:51.000Z</time>
      </trkpt>
      <trkpt lat="39.638198" lon="-0.432673">
        <ele>169</ele>
        <time>2018-11-04T08:43:52.000Z</time>
      </trkpt>
      <trkpt lat="39.638227" lon="-0.432645">
        <ele>169.64</ele>
        <time>2018-11-04T08:43:53.000Z</time>
      </trkpt>
      <trkpt lat="39.63826" lon="-0.432621">
        <ele>170</ele>
        <time>2018-11-04T08:43:54.000Z</time>
      </trkpt>
      <trkpt lat="39.638293" lon="-0.432604">
        <ele>170</ele>
        <time>2018-11-04T08:43:55.000Z</time>
      </trkpt>
      <trkpt lat="39.638328" lon="-0.432595">
        <ele>170</ele>
        <time>2018-11-04T08:43:56.000Z</time>
      </trkpt>
      <trkpt lat="39.638363" lon="-0.432599">
        <ele>170</ele>
        <time>2018-11-04T08:43:57.000Z</time>
      </trkpt>
      <trkpt lat="39.638395" lon="-0.432612">
        <ele>170</ele>
        <time>2018-11-04T08:43:58.000Z</time>
      </trkpt>
      <trkpt lat="39.638425" lon="-0.43263">
        <ele>170</ele>
        <time>2018-11-04T08:43:59.000Z</time>
      </trkpt>
      <trkpt lat="39.638454" lon="-0.432648">
        <ele>170.64</ele>
        <time>2018-11-04T08:44:00.000Z</time>
      </trkpt>
      <trkpt lat="39.638483" lon="-0.432668">
        <ele>171</ele>
        <time>2018-11-04T08:44:01.000Z</time>
      </trkpt>
      <trkpt lat="39.638514" lon="-0.432678">
        <ele>171</ele>
        <time>2018-11-04T08:44:02.000Z</time>
      </trkpt>
      <trkpt lat="39.638548" lon="-0.432684">
        <ele>171</ele>
        <time>2018-11-04T08:44:03.000Z</time>
      </trkpt>
      <trkpt lat="39.638584" lon="-0.432682">
        <ele>171</ele>
        <time>2018-11-04T08:44:04.000Z</time>
      </trkpt>
      <trkpt lat="39.638621" lon="-0.432671">
        <ele>171</ele>
        <time>2018-11-04T08:44:05.000Z</time>
      </trkpt>
      <trkpt lat="39.638658" lon="-0.432662">
        <ele>171</ele>
        <time>2018-11-04T08:44:06.000Z</time>
      </trkpt>
      <trkpt lat="39.638694" lon="-0.432649">
        <ele>171</ele>
        <time>2018-11-04T08:44:07.000Z</time>
      </trkpt>
      <trkpt lat="39.638729" lon="-0.432636">
        <ele>171</ele>
        <time>2018-11-04T08:44:08.000Z</time>
      </trkpt>
      <trkpt lat="39.638764" lon="-0.432622">
        <ele>171</ele>
        <time>2018-11-04T08:44:09.000Z</time>
      </trkpt>
      <trkpt lat="39.638798" lon="-0.43261">
        <ele>171</ele>
        <time>2018-11-04T08:44:10.000Z</time>
      </trkpt>
      <trkpt lat="39.638832" lon="-0.432596">
        <ele>171</ele>
        <time>2018-11-04T08:44:11.000Z</time>
      </trkpt>
      <trkpt lat="39.638864" lon="-0.432583">
        <ele>171</ele>
        <time>2018-11-04T08:44:12.000Z</time>
      </trkpt>
      <trkpt lat="39.638895" lon="-0.43257">
        <ele>171</ele>
        <time>2018-11-04T08:44:13.000Z</time>
      </trkpt>
      <trkpt lat="39.638923" lon="-0.432558">
        <ele>171</ele>
        <time>2018-11-04T08:44:14.000Z</time>
      </trkpt>
      <trkpt lat="39.638954" lon="-0.432544">
        <ele>170.372545082636</ele>
        <time>2018-11-04T08:44:15.000Z</time>
      </trkpt>
      <trkpt lat="39.638985" lon="-0.432529">
        <ele>170</ele>
        <time>2018-11-04T08:44:16.000Z</time>
      </trkpt>
      <trkpt lat="39.639017" lon="-0.432516">
        <ele>170</ele>
        <time>2018-11-04T08:44:17.000Z</time>
      </trkpt>
      <trkpt lat="39.639048" lon="-0.432501">
        <ele>170</ele>
        <time>2018-11-04T08:44:18.000Z</time>
      </trkpt>
      <trkpt lat="39.63908" lon="-0.432489">
        <ele>170</ele>
        <time>2018-11-04T08:44:19.000Z</time>
      </trkpt>
      <trkpt lat="39.63911" lon="-0.432474">
        <ele>170</ele>
        <time>2018-11-04T08:44:20.000Z</time>
      </trkpt>
      <trkpt lat="39.639142" lon="-0.43246">
        <ele>170</ele>
        <time>2018-11-04T08:44:21.000Z</time>
      </trkpt>
      <trkpt lat="39.639173" lon="-0.432446">
        <ele>170.64</ele>
        <time>2018-11-04T08:44:22.000Z</time>
      </trkpt>
      <trkpt lat="39.639204" lon="-0.432433">
        <ele>171</ele>
        <time>2018-11-04T08:44:23.000Z</time>
      </trkpt>
      <trkpt lat="39.639235" lon="-0.43242">
        <ele>171</ele>
        <time>2018-11-04T08:44:24.000Z</time>
      </trkpt>
      <trkpt lat="39.639265" lon="-0.432408">
        <ele>171</ele>
        <time>2018-11-04T08:44:25.000Z</time>
      </trkpt>
      <trkpt lat="39.639296" lon="-0.432395">
        <ele>171</ele>
        <time>2018-11-04T08:44:26.000Z</time>
      </trkpt>
      <trkpt lat="39.639327" lon="-0.432384">
        <ele>171</ele>
        <time>2018-11-04T08:44:27.000Z</time>
      </trkpt>
      <trkpt lat="39.639356" lon="-0.432371">
        <ele>171</ele>
        <time>2018-11-04T08:44:28.000Z</time>
      </trkpt>
      <trkpt lat="39.639384" lon="-0.432356">
        <ele>171</ele>
        <time>2018-11-04T08:44:29.000Z</time>
      </trkpt>
      <trkpt lat="39.639416" lon="-0.432342">
        <ele>171.64</ele>
        <time>2018-11-04T08:44:30.000Z</time>
      </trkpt>
      <trkpt lat="39.639449" lon="-0.432324">
        <ele>172</ele>
        <time>2018-11-04T08:44:31.000Z</time>
      </trkpt>
      <trkpt lat="39.639478" lon="-0.432308">
        <ele>172</ele>
        <time>2018-11-04T08:44:32.000Z</time>
      </trkpt>
      <trkpt lat="39.639509" lon="-0.432296">
        <ele>172</ele>
        <time>2018-11-04T08:44:33.000Z</time>
      </trkpt>
      <trkpt lat="39.639539" lon="-0.432284">
        <ele>172</ele>
        <time>2018-11-04T08:44:34.000Z</time>
      </trkpt>
      <trkpt lat="39.63957" lon="-0.43227">
        <ele>172</ele>
        <time>2018-11-04T08:44:35.000Z</time>
      </trkpt>
      <trkpt lat="39.639602" lon="-0.432255">
        <ele>172</ele>
        <time>2018-11-04T08:44:36.000Z</time>
      </trkpt>
      <trkpt lat="39.639634" lon="-0.43224">
        <ele>172</ele>
        <time>2018-11-04T08:44:37.000Z</time>
      </trkpt>
      <trkpt lat="39.639667" lon="-0.43223">
        <ele>172.64</ele>
        <time>2018-11-04T08:44:38.000Z</time>
      </trkpt>
      <trkpt lat="39.6397" lon="-0.432216">
        <ele>173</ele>
        <time>2018-11-04T08:44:39.000Z</time>
      </trkpt>
      <trkpt lat="39.639731" lon="-0.432204">
        <ele>173</ele>
        <time>2018-11-04T08:44:40.000Z</time>
      </trkpt>
      <trkpt lat="39.639762" lon="-0.432192">
        <ele>173</ele>
        <time>2018-11-04T08:44:41.000Z</time>
      </trkpt>
      <trkpt lat="39.639793" lon="-0.432178">
        <ele>173</ele>
        <time>2018-11-04T08:44:42.000Z</time>
      </trkpt>
      <trkpt lat="39.639826" lon="-0.432168">
        <ele>173</ele>
        <time>2018-11-04T08:44:43.000Z</time>
      </trkpt>
      <trkpt lat="39.639858" lon="-0.432155">
        <ele>173.64</ele>
        <time>2018-11-04T08:44:44.000Z</time>
      </trkpt>
      <trkpt lat="39.63989" lon="-0.432143">
        <ele>174</ele>
        <time>2018-11-04T08:44:45.000Z</time>
      </trkpt>
      <trkpt lat="39.639922" lon="-0.432132">
        <ele>174</ele>
        <time>2018-11-04T08:44:46.000Z</time>
      </trkpt>
      <trkpt lat="39.639953" lon="-0.43212">
        <ele>174</ele>
        <time>2018-11-04T08:44:47.000Z</time>
      </trkpt>
      <trkpt lat="39.639985" lon="-0.432108">
        <ele>174</ele>
        <time>2018-11-04T08:44:48.000Z</time>
      </trkpt>
      <trkpt lat="39.640016" lon="-0.432096">
        <ele>174</ele>
        <time>2018-11-04T08:44:49.000Z</time>
      </trkpt>
      <trkpt lat="39.640046" lon="-0.432084">
        <ele>174.496125261706</ele>
        <time>2018-11-04T08:44:50.000Z</time>
      </trkpt>
      <trkpt lat="39.640076" lon="-0.43207">
        <ele>174.556959769277</ele>
        <time>2018-11-04T08:44:51.000Z</time>
      </trkpt>
      <trkpt lat="39.640105" lon="-0.432055">
        <ele>174.608695652174</ele>
        <time>2018-11-04T08:44:52.000Z</time>
      </trkpt>
      <trkpt lat="39.640131" lon="-0.432043">
        <ele>175</ele>
        <time>2018-11-04T08:44:53.000Z</time>
      </trkpt>
      <trkpt lat="39.640154" lon="-0.432034">
        <ele>175</ele>
        <time>2018-11-04T08:44:54.000Z</time>
      </trkpt>
      <trkpt lat="39.640176" lon="-0.432022">
        <ele>175</ele>
        <time>2018-11-04T08:44:55.000Z</time>
      </trkpt>
      <trkpt lat="39.640201" lon="-0.432012">
        <ele>175</ele>
        <time>2018-11-04T08:44:56.000Z</time>
      </trkpt>
      <trkpt lat="39.640229" lon="-0.432001">
        <ele>175</ele>
        <time>2018-11-04T08:44:57.000Z</time>
      </trkpt>
      <trkpt lat="39.640258" lon="-0.431989">
        <ele>175</ele>
        <time>2018-11-04T08:44:58.000Z</time>
      </trkpt>
      <trkpt lat="39.64029" lon="-0.431977">
        <ele>175</ele>
        <time>2018-11-04T08:44:59.000Z</time>
      </trkpt>
      <trkpt lat="39.640322" lon="-0.431962">
        <ele>175</ele>
        <time>2018-11-04T08:45:00.000Z</time>
      </trkpt>
      <trkpt lat="39.640354" lon="-0.431948">
        <ele>175</ele>
        <time>2018-11-04T08:45:01.000Z</time>
      </trkpt>
      <trkpt lat="39.640385" lon="-0.431933">
        <ele>175</ele>
        <time>2018-11-04T08:45:02.000Z</time>
      </trkpt>
      <trkpt lat="39.640415" lon="-0.431919">
        <ele>175.64</ele>
        <time>2018-11-04T08:45:03.000Z</time>
      </trkpt>
      <trkpt lat="39.640445" lon="-0.431908">
        <ele>176</ele>
        <time>2018-11-04T08:45:04.000Z</time>
      </trkpt>
      <trkpt lat="39.640476" lon="-0.431896">
        <ele>176</ele>
        <time>2018-11-04T08:45:05.000Z</time>
      </trkpt>
      <trkpt lat="39.640508" lon="-0.431885">
        <ele>176</ele>
        <time>2018-11-04T08:45:06.000Z</time>
      </trkpt>
      <trkpt lat="39.64054" lon="-0.431873">
        <ele>176.478258449894</ele>
        <time>2018-11-04T08:45:07.000Z</time>
      </trkpt>
      <trkpt lat="39.640571" lon="-0.431861">
        <ele>177</ele>
        <time>2018-11-04T08:45:08.000Z</time>
      </trkpt>
      <trkpt lat="39.640603" lon="-0.431848">
        <ele>177</ele>
        <time>2018-11-04T08:45:09.000Z</time>
      </trkpt>
      <trkpt lat="39.640637" lon="-0.431834">
        <ele>177</ele>
        <time>2018-11-04T08:45:10.000Z</time>
      </trkpt>
      <trkpt lat="39.64067" lon="-0.431819">
        <ele>177</ele>
        <time>2018-11-04T08:45:11.000Z</time>
      </trkpt>
      <trkpt lat="39.640704" lon="-0.431804">
        <ele>177</ele>
        <time>2018-11-04T08:45:12.000Z</time>
      </trkpt>
      <trkpt lat="39.640736" lon="-0.431788">
        <ele>177</ele>
        <time>2018-11-04T08:45:13.000Z</time>
      </trkpt>
      <trkpt lat="39.640771" lon="-0.431772">
        <ele>177</ele>
        <time>2018-11-04T08:45:14.000Z</time>
      </trkpt>
      <trkpt lat="39.640805" lon="-0.431758">
        <ele>177</ele>
        <time>2018-11-04T08:45:15.000Z</time>
      </trkpt>
      <trkpt lat="39.640842" lon="-0.431746">
        <ele>177</ele>
        <time>2018-11-04T08:45:16.000Z</time>
      </trkpt>
      <trkpt lat="39.640877" lon="-0.431732">
        <ele>177</ele>
        <time>2018-11-04T08:45:17.000Z</time>
      </trkpt>
      <trkpt lat="39.640912" lon="-0.431718">
        <ele>177.64</ele>
        <time>2018-11-04T08:45:18.000Z</time>
      </trkpt>
      <trkpt lat="39.640948" lon="-0.431704">
        <ele>178</ele>
        <time>2018-11-04T08:45:19.000Z</time>
      </trkpt>
      <trkpt lat="39.640983" lon="-0.43169">
        <ele>178</ele>
        <time>2018-11-04T08:45:20.000Z</time>
      </trkpt>
      <trkpt lat="39.64102" lon="-0.431673">
        <ele>178</ele>
        <time>2018-11-04T08:45:21.000Z</time>
      </trkpt>
      <trkpt lat="39.641055" lon="-0.431656">
        <ele>178</ele>
        <time>2018-11-04T08:45:22.000Z</time>
      </trkpt>
      <trkpt lat="39.641091" lon="-0.43164">
        <ele>178</ele>
        <time>2018-11-04T08:45:23.000Z</time>
      </trkpt>
      <trkpt lat="39.641126" lon="-0.431624">
        <ele>178</ele>
        <time>2018-11-04T08:45:24.000Z</time>
      </trkpt>
      <trkpt lat="39.641162" lon="-0.431608">
        <ele>178</ele>
        <time>2018-11-04T08:45:25.000Z</time>
      </trkpt>
      <trkpt lat="39.641198" lon="-0.431595">
        <ele>178</ele>
        <time>2018-11-04T08:45:26.000Z</time>
      </trkpt>
      <trkpt lat="39.641233" lon="-0.43158">
        <ele>178</ele>
        <time>2018-11-04T08:45:27.000Z</time>
      </trkpt>
      <trkpt lat="39.641268" lon="-0.431566">
        <ele>178</ele>
        <time>2018-11-04T08:45:28.000Z</time>
      </trkpt>
      <trkpt lat="39.641301" lon="-0.43155">
        <ele>178</ele>
        <time>2018-11-04T08:45:29.000Z</time>
      </trkpt>
      <trkpt lat="39.641333" lon="-0.431533">
        <ele>178</ele>
        <time>2018-11-04T08:45:30.000Z</time>
      </trkpt>
      <trkpt lat="39.641367" lon="-0.431518">
        <ele>178</ele>
        <time>2018-11-04T08:45:31.000Z</time>
      </trkpt>
      <trkpt lat="39.6414" lon="-0.431504">
        <ele>178</ele>
        <time>2018-11-04T08:45:32.000Z</time>
      </trkpt>
      <trkpt lat="39.641434" lon="-0.431491">
        <ele>178</ele>
        <time>2018-11-04T08:45:33.000Z</time>
      </trkpt>
      <trkpt lat="39.641466" lon="-0.431479">
        <ele>178.496125261706</ele>
        <time>2018-11-04T08:45:34.000Z</time>
      </trkpt>
      <trkpt lat="39.641496" lon="-0.431468">
        <ele>179</ele>
        <time>2018-11-04T08:45:35.000Z</time>
      </trkpt>
      <trkpt lat="39.641524" lon="-0.431456">
        <ele>179</ele>
        <time>2018-11-04T08:45:36.000Z</time>
      </trkpt>
      <trkpt lat="39.641552" lon="-0.431446">
        <ele>179</ele>
        <time>2018-11-04T08:45:37.000Z</time>
      </trkpt>
      <trkpt lat="39.641582" lon="-0.431437">
        <ele>179</ele>
        <time>2018-11-04T08:45:38.000Z</time>
      </trkpt>
      <trkpt lat="39.641615" lon="-0.431423">
        <ele>179</ele>
        <time>2018-11-04T08:45:39.000Z</time>
      </trkpt>
      <trkpt lat="39.64165" lon="-0.43141">
        <ele>179</ele>
        <time>2018-11-04T08:45:40.000Z</time>
      </trkpt>
      <trkpt lat="39.641685" lon="-0.431396">
        <ele>179</ele>
        <time>2018-11-04T08:45:41.000Z</time>
      </trkpt>
      <trkpt lat="39.641721" lon="-0.431383">
        <ele>179</ele>
        <time>2018-11-04T08:45:42.000Z</time>
      </trkpt>
      <trkpt lat="39.641759" lon="-0.431369">
        <ele>179</ele>
        <time>2018-11-04T08:45:43.000Z</time>
      </trkpt>
      <trkpt lat="39.641796" lon="-0.431354">
        <ele>179</ele>
        <time>2018-11-04T08:45:44.000Z</time>
      </trkpt>
      <trkpt lat="39.641836" lon="-0.43134">
        <ele>178.366334626011</ele>
        <time>2018-11-04T08:45:45.000Z</time>
      </trkpt>
      <trkpt lat="39.641878" lon="-0.431323">
        <ele>178</ele>
        <time>2018-11-04T08:45:46.000Z</time>
      </trkpt>
      <trkpt lat="39.64192" lon="-0.431307">
        <ele>178</ele>
        <time>2018-11-04T08:45:47.000Z</time>
      </trkpt>
      <trkpt lat="39.641964" lon="-0.431288">
        <ele>178</ele>
        <time>2018-11-04T08:45:48.000Z</time>
      </trkpt>
      <trkpt lat="39.642009" lon="-0.431272">
        <ele>178</ele>
        <time>2018-11-04T08:45:49.000Z</time>
      </trkpt>
      <trkpt lat="39.642056" lon="-0.43125">
        <ele>178</ele>
        <time>2018-11-04T08:45:50.000Z</time>
      </trkpt>
      <trkpt lat="39.642104" lon="-0.431228">
        <ele>178</ele>
        <time>2018-11-04T08:45:51.000Z</time>
      </trkpt>
      <trkpt lat="39.642153" lon="-0.4312">
        <ele>178</ele>
        <time>2018-11-04T08:45:52.000Z</time>
      </trkpt>
      <trkpt lat="39.642206" lon="-0.431178">
        <ele>178</ele>
        <time>2018-11-04T08:45:53.000Z</time>
      </trkpt>
      <trkpt lat="39.642259" lon="-0.431155">
        <ele>177.36</ele>
        <time>2018-11-04T08:45:54.000Z</time>
      </trkpt>
      <trkpt lat="39.642312" lon="-0.431131">
        <ele>177</ele>
        <time>2018-11-04T08:45:55.000Z</time>
      </trkpt>
      <trkpt lat="39.642366" lon="-0.431108">
        <ele>177</ele>
        <time>2018-11-04T08:45:56.000Z</time>
      </trkpt>
      <trkpt lat="39.642422" lon="-0.431085">
        <ele>177</ele>
        <time>2018-11-04T08:45:57.000Z</time>
      </trkpt>
      <trkpt lat="39.642479" lon="-0.431058">
        <ele>177</ele>
        <time>2018-11-04T08:45:58.000Z</time>
      </trkpt>
      <trkpt lat="39.642539" lon="-0.431033">
        <ele>177</ele>
        <time>2018-11-04T08:45:59.000Z</time>
      </trkpt>
      <trkpt lat="39.642599" lon="-0.431004">
        <ele>177</ele>
        <time>2018-11-04T08:46:00.000Z</time>
      </trkpt>
      <trkpt lat="39.642662" lon="-0.430976">
        <ele>177</ele>
        <time>2018-11-04T08:46:01.000Z</time>
      </trkpt>
      <trkpt lat="39.642727" lon="-0.430949">
        <ele>177</ele>
        <time>2018-11-04T08:46:02.000Z</time>
      </trkpt>
      <trkpt lat="39.642792" lon="-0.430919">
        <ele>177</ele>
        <time>2018-11-04T08:46:03.000Z</time>
      </trkpt>
      <trkpt lat="39.642861" lon="-0.430892">
        <ele>176.507689884012</ele>
        <time>2018-11-04T08:46:04.000Z</time>
      </trkpt>
      <trkpt lat="39.642933" lon="-0.430869">
        <ele>176</ele>
        <time>2018-11-04T08:46:05.000Z</time>
      </trkpt>
      <trkpt lat="39.643003" lon="-0.430846">
        <ele>176</ele>
        <time>2018-11-04T08:46:06.000Z</time>
      </trkpt>
      <trkpt lat="39.64307" lon="-0.430819">
        <ele>176</ele>
        <time>2018-11-04T08:46:07.000Z</time>
      </trkpt>
      <trkpt lat="39.643135" lon="-0.43079">
        <ele>176</ele>
        <time>2018-11-04T08:46:08.000Z</time>
      </trkpt>
      <trkpt lat="39.6432" lon="-0.430757">
        <ele>175.36</ele>
        <time>2018-11-04T08:46:09.000Z</time>
      </trkpt>
      <trkpt lat="39.643265" lon="-0.430724">
        <ele>175</ele>
        <time>2018-11-04T08:46:10.000Z</time>
      </trkpt>
      <trkpt lat="39.643332" lon="-0.430694">
        <ele>175</ele>
        <time>2018-11-04T08:46:11.000Z</time>
      </trkpt>
      <trkpt lat="39.643399" lon="-0.430666">
        <ele>175</ele>
        <time>2018-11-04T08:46:12.000Z</time>
      </trkpt>
      <trkpt lat="39.643467" lon="-0.430636">
        <ele>175</ele>
        <time>2018-11-04T08:46:13.000Z</time>
      </trkpt>
      <trkpt lat="39.643536" lon="-0.430604">
        <ele>175</ele>
        <time>2018-11-04T08:46:14.000Z</time>
      </trkpt>
      <trkpt lat="39.643606" lon="-0.430574">
        <ele>175</ele>
        <time>2018-11-04T08:46:15.000Z</time>
      </trkpt>
      <trkpt lat="39.643675" lon="-0.430544">
        <ele>175</ele>
        <time>2018-11-04T08:46:16.000Z</time>
      </trkpt>
      <trkpt lat="39.643744" lon="-0.430514">
        <ele>175</ele>
        <time>2018-11-04T08:46:17.000Z</time>
      </trkpt>
      <trkpt lat="39.643812" lon="-0.430484">
        <ele>175</ele>
        <time>2018-11-04T08:46:18.000Z</time>
      </trkpt>
      <trkpt lat="39.64388" lon="-0.430452">
        <ele>175</ele>
        <time>2018-11-04T08:46:19.000Z</time>
      </trkpt>
      <trkpt lat="39.643948" lon="-0.430423">
        <ele>174.366334626011</ele>
        <time>2018-11-04T08:46:20.000Z</time>
      </trkpt>
      <trkpt lat="39.644015" lon="-0.430396">
        <ele>174</ele>
        <time>2018-11-04T08:46:21.000Z</time>
      </trkpt>
      <trkpt lat="39.644081" lon="-0.430367">
        <ele>174</ele>
        <time>2018-11-04T08:46:22.000Z</time>
      </trkpt>
      <trkpt lat="39.644148" lon="-0.43034">
        <ele>174</ele>
        <time>2018-11-04T08:46:23.000Z</time>
      </trkpt>
      <trkpt lat="39.644213" lon="-0.430311">
        <ele>174</ele>
        <time>2018-11-04T08:46:24.000Z</time>
      </trkpt>
      <trkpt lat="39.644277" lon="-0.430284">
        <ele>174</ele>
        <time>2018-11-04T08:46:25.000Z</time>
      </trkpt>
      <trkpt lat="39.64434" lon="-0.430257">
        <ele>174</ele>
        <time>2018-11-04T08:46:26.000Z</time>
      </trkpt>
      <trkpt lat="39.644404" lon="-0.430232">
        <ele>174</ele>
        <time>2018-11-04T08:46:27.000Z</time>
      </trkpt>
      <trkpt lat="39.644467" lon="-0.430205">
        <ele>174</ele>
        <time>2018-11-04T08:46:28.000Z</time>
      </trkpt>
      <trkpt lat="39.644527" lon="-0.43018">
        <ele>174</ele>
        <time>2018-11-04T08:46:29.000Z</time>
      </trkpt>
      <trkpt lat="39.644587" lon="-0.430154">
        <ele>174</ele>
        <time>2018-11-04T08:46:30.000Z</time>
      </trkpt>
      <trkpt lat="39.644649" lon="-0.43013">
        <ele>174</ele>
        <time>2018-11-04T08:46:31.000Z</time>
      </trkpt>
      <trkpt lat="39.644709" lon="-0.430104">
        <ele>174</ele>
        <time>2018-11-04T08:46:32.000Z</time>
      </trkpt>
      <trkpt lat="39.644768" lon="-0.430078">
        <ele>174</ele>
        <time>2018-11-04T08:46:33.000Z</time>
      </trkpt>
      <trkpt lat="39.644826" lon="-0.430056">
        <ele>174</ele>
        <time>2018-11-04T08:46:34.000Z</time>
      </trkpt>
      <trkpt lat="39.644884" lon="-0.430033">
        <ele>174</ele>
        <time>2018-11-04T08:46:35.000Z</time>
      </trkpt>
      <trkpt lat="39.644942" lon="-0.43001">
        <ele>174</ele>
        <time>2018-11-04T08:46:36.000Z</time>
      </trkpt>
      <trkpt lat="39.644998" lon="-0.429985">
        <ele>174</ele>
        <time>2018-11-04T08:46:37.000Z</time>
      </trkpt>
      <trkpt lat="39.645053" lon="-0.42996">
        <ele>174</ele>
        <time>2018-11-04T08:46:38.000Z</time>
      </trkpt>
      <trkpt lat="39.645107" lon="-0.429938">
        <ele>174</ele>
        <time>2018-11-04T08:46:39.000Z</time>
      </trkpt>
      <trkpt lat="39.645161" lon="-0.429916">
        <ele>174.64</ele>
        <time>2018-11-04T08:46:40.000Z</time>
      </trkpt>
      <trkpt lat="39.645214" lon="-0.429896">
        <ele>175</ele>
        <time>2018-11-04T08:46:41.000Z</time>
      </trkpt>
      <trkpt lat="39.645265" lon="-0.429875">
        <ele>175</ele>
        <time>2018-11-04T08:46:42.000Z</time>
      </trkpt>
      <trkpt lat="39.645311" lon="-0.429855">
        <ele>175</ele>
        <time>2018-11-04T08:46:43.000Z</time>
      </trkpt>
      <trkpt lat="39.645355" lon="-0.429838">
        <ele>175.633665373989</ele>
        <time>2018-11-04T08:46:44.000Z</time>
      </trkpt>
      <trkpt lat="39.645397" lon="-0.429821">
        <ele>176</ele>
        <time>2018-11-04T08:46:45.000Z</time>
      </trkpt>
      <trkpt lat="39.645436" lon="-0.429806">
        <ele>176</ele>
        <time>2018-11-04T08:46:46.000Z</time>
      </trkpt>
      <trkpt lat="39.645473" lon="-0.42979">
        <ele>176</ele>
        <time>2018-11-04T08:46:47.000Z</time>
      </trkpt>
      <trkpt lat="39.645508" lon="-0.429772">
        <ele>176</ele>
        <time>2018-11-04T08:46:48.000Z</time>
      </trkpt>
      <trkpt lat="39.645542" lon="-0.429757">
        <ele>176</ele>
        <time>2018-11-04T08:46:49.000Z</time>
      </trkpt>
      <trkpt lat="39.645575" lon="-0.429742">
        <ele>176</ele>
        <time>2018-11-04T08:46:50.000Z</time>
      </trkpt>
      <trkpt lat="39.645609" lon="-0.429726">
        <ele>176</ele>
        <time>2018-11-04T08:46:51.000Z</time>
      </trkpt>
      <trkpt lat="39.645642" lon="-0.429716">
        <ele>176</ele>
        <time>2018-11-04T08:46:52.000Z</time>
      </trkpt>
      <trkpt lat="39.645676" lon="-0.429703">
        <ele>176</ele>
        <time>2018-11-04T08:46:53.000Z</time>
      </trkpt>
      <trkpt lat="39.64571" lon="-0.429688">
        <ele>176</ele>
        <time>2018-11-04T08:46:54.000Z</time>
      </trkpt>
      <trkpt lat="39.645744" lon="-0.429674">
        <ele>176</ele>
        <time>2018-11-04T08:46:55.000Z</time>
      </trkpt>
      <trkpt lat="39.645777" lon="-0.429663">
        <ele>176</ele>
        <time>2018-11-04T08:46:56.000Z</time>
      </trkpt>
      <trkpt lat="39.645806" lon="-0.429654">
        <ele>176</ele>
        <time>2018-11-04T08:46:57.000Z</time>
      </trkpt>
      <trkpt lat="39.645831" lon="-0.429645">
        <ele>176.64</ele>
        <time>2018-11-04T08:46:58.000Z</time>
      </trkpt>
      <trkpt lat="39.645858" lon="-0.429634">
        <ele>177</ele>
        <time>2018-11-04T08:46:59.000Z</time>
      </trkpt>
      <trkpt lat="39.645885" lon="-0.429623">
        <ele>177</ele>
        <time>2018-11-04T08:47:00.000Z</time>
      </trkpt>
      <trkpt lat="39.645912" lon="-0.42961">
        <ele>177</ele>
        <time>2018-11-04T08:47:01.000Z</time>
      </trkpt>
      <trkpt lat="39.645936" lon="-0.42959">
        <ele>177</ele>
        <time>2018-11-04T08:47:02.000Z</time>
      </trkpt>
      <trkpt lat="39.645958" lon="-0.429566">
        <ele>177</ele>
        <time>2018-11-04T08:47:03.000Z</time>
      </trkpt>
      <trkpt lat="39.645978" lon="-0.429539">
        <ele>177</ele>
        <time>2018-11-04T08:47:04.000Z</time>
      </trkpt>
      <trkpt lat="39.645996" lon="-0.42951">
        <ele>177</ele>
        <time>2018-11-04T08:47:05.000Z</time>
      </trkpt>
      <trkpt lat="39.646013" lon="-0.429482">
        <ele>177.64</ele>
        <time>2018-11-04T08:47:06.000Z</time>
      </trkpt>
      <trkpt lat="39.646032" lon="-0.429456">
        <ele>178</ele>
        <time>2018-11-04T08:47:07.000Z</time>
      </trkpt>
      <trkpt lat="39.646051" lon="-0.429432">
        <ele>178</ele>
        <time>2018-11-04T08:47:08.000Z</time>
      </trkpt>
      <trkpt lat="39.646072" lon="-0.429415">
        <ele>178</ele>
        <time>2018-11-04T08:47:09.000Z</time>
      </trkpt>
      <trkpt lat="39.646104" lon="-0.429406">
        <ele>178.64</ele>
        <time>2018-11-04T08:47:10.000Z</time>
      </trkpt>
      <trkpt lat="39.646139" lon="-0.429406">
        <ele>179</ele>
        <time>2018-11-04T08:47:11.000Z</time>
      </trkpt>
      <trkpt lat="39.646171" lon="-0.429409">
        <ele>179</ele>
        <time>2018-11-04T08:47:12.000Z</time>
      </trkpt>
      <trkpt lat="39.646204" lon="-0.429424">
        <ele>179</ele>
        <time>2018-11-04T08:47:13.000Z</time>
      </trkpt>
      <trkpt lat="39.646234" lon="-0.429439">
        <ele>179</ele>
        <time>2018-11-04T08:47:14.000Z</time>
      </trkpt>
      <trkpt lat="39.646265" lon="-0.429448">
        <ele>179.64</ele>
        <time>2018-11-04T08:47:15.000Z</time>
      </trkpt>
      <trkpt lat="39.646297" lon="-0.429449">
        <ele>180</ele>
        <time>2018-11-04T08:47:16.000Z</time>
      </trkpt>
      <trkpt lat="39.646328" lon="-0.429439">
        <ele>180</ele>
        <time>2018-11-04T08:47:17.000Z</time>
      </trkpt>
      <trkpt lat="39.646355" lon="-0.429423">
        <ele>180.64</ele>
        <time>2018-11-04T08:47:18.000Z</time>
      </trkpt>
      <trkpt lat="39.646377" lon="-0.429406">
        <ele>181</ele>
        <time>2018-11-04T08:47:19.000Z</time>
      </trkpt>
      <trkpt lat="39.6464" lon="-0.429391">
        <ele>181</ele>
        <time>2018-11-04T08:47:20.000Z</time>
      </trkpt>
      <trkpt lat="39.646426" lon="-0.429376">
        <ele>181</ele>
        <time>2018-11-04T08:47:21.000Z</time>
      </trkpt>
      <trkpt lat="39.646452" lon="-0.429364">
        <ele>181</ele>
        <time>2018-11-04T08:47:22.000Z</time>
      </trkpt>
      <trkpt lat="39.646478" lon="-0.429351">
        <ele>181</ele>
        <time>2018-11-04T08:47:23.000Z</time>
      </trkpt>
      <trkpt lat="39.646504" lon="-0.429339">
        <ele>181</ele>
        <time>2018-11-04T08:47:24.000Z</time>
      </trkpt>
      <trkpt lat="39.64653" lon="-0.429329">
        <ele>181</ele>
        <time>2018-11-04T08:47:25.000Z</time>
      </trkpt>
      <trkpt lat="39.646557" lon="-0.429321">
        <ele>181</ele>
        <time>2018-11-04T08:47:26.000Z</time>
      </trkpt>
      <trkpt lat="39.646583" lon="-0.42931">
        <ele>181.506847153303</ele>
        <time>2018-11-04T08:47:27.000Z</time>
      </trkpt>
      <trkpt lat="39.646608" lon="-0.429301">
        <ele>182</ele>
        <time>2018-11-04T08:47:28.000Z</time>
      </trkpt>
      <trkpt lat="39.646632" lon="-0.429292">
        <ele>182</ele>
        <time>2018-11-04T08:47:29.000Z</time>
      </trkpt>
      <trkpt lat="39.646658" lon="-0.429286">
        <ele>182.492960031729</ele>
        <time>2018-11-04T08:47:30.000Z</time>
      </trkpt>
      <trkpt lat="39.646685" lon="-0.429278">
        <ele>183</ele>
        <time>2018-11-04T08:47:31.000Z</time>
      </trkpt>
      <trkpt lat="39.64671" lon="-0.429268">
        <ele>183</ele>
        <time>2018-11-04T08:47:32.000Z</time>
      </trkpt>
      <trkpt lat="39.646734" lon="-0.429259">
        <ele>183</ele>
        <time>2018-11-04T08:47:33.000Z</time>
      </trkpt>
      <trkpt lat="39.646757" lon="-0.42925">
        <ele>183.64</ele>
        <time>2018-11-04T08:47:34.000Z</time>
      </trkpt>
      <trkpt lat="39.64678" lon="-0.429242">
        <ele>184</ele>
        <time>2018-11-04T08:47:35.000Z</time>
      </trkpt>
      <trkpt lat="39.646803" lon="-0.429237">
        <ele>184.64</ele>
        <time>2018-11-04T08:47:36.000Z</time>
      </trkpt>
      <trkpt lat="39.64682" lon="-0.42923">
        <ele>185</ele>
        <time>2018-11-04T08:47:37.000Z</time>
      </trkpt>
      <trkpt lat="39.64684" lon="-0.429204">
        <ele>185</ele>
        <time>2018-11-04T08:47:39.000Z</time>
      </trkpt>
      <trkpt lat="39.646853" lon="-0.429184">
        <ele>186</ele>
        <time>2018-11-04T08:47:41.000Z</time>
      </trkpt>
      <trkpt lat="39.646877" lon="-0.429192">
        <ele>186</ele>
        <time>2018-11-04T08:47:43.000Z</time>
      </trkpt>
      <trkpt lat="39.646898" lon="-0.429201">
        <ele>186.64</ele>
        <time>2018-11-04T08:47:44.000Z</time>
      </trkpt>
      <trkpt lat="39.646923" lon="-0.429208">
        <ele>187</ele>
        <time>2018-11-04T08:47:45.000Z</time>
      </trkpt>
      <trkpt lat="39.646949" lon="-0.429203">
        <ele>187</ele>
        <time>2018-11-04T08:47:46.000Z</time>
      </trkpt>
      <trkpt lat="39.646974" lon="-0.429186">
        <ele>187</ele>
        <time>2018-11-04T08:47:47.000Z</time>
      </trkpt>
      <trkpt lat="39.646999" lon="-0.429169">
        <ele>187</ele>
        <time>2018-11-04T08:47:48.000Z</time>
      </trkpt>
      <trkpt lat="39.647022" lon="-0.429151">
        <ele>187</ele>
        <time>2018-11-04T08:47:49.000Z</time>
      </trkpt>
      <trkpt lat="39.647045" lon="-0.429132">
        <ele>187</ele>
        <time>2018-11-04T08:47:50.000Z</time>
      </trkpt>
      <trkpt lat="39.647064" lon="-0.42911">
        <ele>187</ele>
        <time>2018-11-04T08:47:51.000Z</time>
      </trkpt>
      <trkpt lat="39.647065" lon="-0.42908">
        <ele>187</ele>
        <time>2018-11-04T08:47:52.000Z</time>
      </trkpt>
      <trkpt lat="39.647051" lon="-0.42906">
        <ele>187</ele>
        <time>2018-11-04T08:47:53.000Z</time>
      </trkpt>
      <trkpt lat="39.647019" lon="-0.429043">
        <ele>187.007223995577</ele>
        <time>2018-11-04T08:47:55.000Z</time>
      </trkpt>
      <trkpt lat="39.647136" lon="-0.429057">
        <ele>185.899993896484</ele>
        <time>2018-11-04T09:23:05.000Z</time>
      </trkpt>
      <trkpt lat="39.647199" lon="-0.429052">
        <ele>187</ele>
        <time>2018-11-04T09:23:07.000Z</time>
      </trkpt>
      <trkpt lat="39.647233" lon="-0.42904">
        <ele>187.877775091377</ele>
        <time>2018-11-04T09:23:08.000Z</time>
      </trkpt>
      <trkpt lat="39.647263" lon="-0.42903">
        <ele>188</ele>
        <time>2018-11-04T09:23:09.000Z</time>
      </trkpt>
      <trkpt lat="39.647293" lon="-0.429024">
        <ele>188.8899968</ele>
        <time>2018-11-04T09:23:10.000Z</time>
      </trkpt>
      <trkpt lat="39.647323" lon="-0.429016">
        <ele>189</ele>
        <time>2018-11-04T09:23:11.000Z</time>
      </trkpt>
      <trkpt lat="39.647348" lon="-0.429016">
        <ele>189</ele>
        <time>2018-11-04T09:23:12.000Z</time>
      </trkpt>
      <trkpt lat="39.647369" lon="-0.429014">
        <ele>189</ele>
        <time>2018-11-04T09:23:13.000Z</time>
      </trkpt>
      <trkpt lat="39.64739" lon="-0.429041">
        <ele>190</ele>
        <time>2018-11-04T09:23:15.000Z</time>
      </trkpt>
      <trkpt lat="39.647369" lon="-0.429074">
        <ele>190</ele>
        <time>2018-11-04T09:23:17.000Z</time>
      </trkpt>
      <trkpt lat="39.647336" lon="-0.429084">
        <ele>190</ele>
        <time>2018-11-04T09:23:18.000Z</time>
      </trkpt>
      <trkpt lat="39.647291" lon="-0.429095">
        <ele>190</ele>
        <time>2018-11-04T09:23:19.000Z</time>
      </trkpt>
      <trkpt lat="39.647239" lon="-0.429114">
        <ele>190</ele>
        <time>2018-11-04T09:23:20.000Z</time>
      </trkpt>
      <trkpt lat="39.647184" lon="-0.429136">
        <ele>190</ele>
        <time>2018-11-04T09:23:21.000Z</time>
      </trkpt>
      <trkpt lat="39.647127" lon="-0.429157">
        <ele>190</ele>
        <time>2018-11-04T09:23:22.000Z</time>
      </trkpt>
      <trkpt lat="39.647066" lon="-0.429178">
        <ele>190</ele>
        <time>2018-11-04T09:23:23.000Z</time>
      </trkpt>
      <trkpt lat="39.647002" lon="-0.429203">
        <ele>190</ele>
        <time>2018-11-04T09:23:24.000Z</time>
      </trkpt>
      <trkpt lat="39.646935" lon="-0.429232">
        <ele>190.849310024373</ele>
        <time>2018-11-04T09:23:25.000Z</time>
      </trkpt>
      <trkpt lat="39.646869" lon="-0.429261">
        <ele>191</ele>
        <time>2018-11-04T09:23:26.000Z</time>
      </trkpt>
      <trkpt lat="39.646801" lon="-0.429292">
        <ele>191</ele>
        <time>2018-11-04T09:23:27.000Z</time>
      </trkpt>
      <trkpt lat="39.646731" lon="-0.429321">
        <ele>191.679391848978</ele>
        <time>2018-11-04T09:23:28.000Z</time>
      </trkpt>
      <trkpt lat="39.646662" lon="-0.42935">
        <ele>192</ele>
        <time>2018-11-04T09:23:29.000Z</time>
      </trkpt>
      <trkpt lat="39.64659" lon="-0.429378">
        <ele>192</ele>
        <time>2018-11-04T09:23:30.000Z</time>
      </trkpt>
      <trkpt lat="39.646519" lon="-0.429404">
        <ele>192</ele>
        <time>2018-11-04T09:23:31.000Z</time>
      </trkpt>
      <trkpt lat="39.646448" lon="-0.429438">
        <ele>192</ele>
        <time>2018-11-04T09:23:32.000Z</time>
      </trkpt>
      <trkpt lat="39.64638" lon="-0.429478">
        <ele>192</ele>
        <time>2018-11-04T09:23:33.000Z</time>
      </trkpt>
      <trkpt lat="39.64632" lon="-0.429538">
        <ele>192</ele>
        <time>2018-11-04T09:23:34.000Z</time>
      </trkpt>
      <trkpt lat="39.64627" lon="-0.42961">
        <ele>192</ele>
        <time>2018-11-04T09:23:35.000Z</time>
      </trkpt>
      <trkpt lat="39.646219" lon="-0.429678">
        <ele>191.157145991808</ele>
        <time>2018-11-04T09:23:36.000Z</time>
      </trkpt>
      <trkpt lat="39.646152" lon="-0.429724">
        <ele>191</ele>
        <time>2018-11-04T09:23:37.000Z</time>
      </trkpt>
      <trkpt lat="39.646077" lon="-0.429739">
        <ele>190.1100032</ele>
        <time>2018-11-04T09:23:38.000Z</time>
      </trkpt>
      <trkpt lat="39.645999" lon="-0.429732">
        <ele>189.1100032</ele>
        <time>2018-11-04T09:23:39.000Z</time>
      </trkpt>
      <trkpt lat="39.645923" lon="-0.429716">
        <ele>189</ele>
        <time>2018-11-04T09:23:40.000Z</time>
      </trkpt>
      <trkpt lat="39.645843" lon="-0.429711">
        <ele>188.30469</ele>
        <time>2018-11-04T09:23:41.000Z</time>
      </trkpt>
      <trkpt lat="39.645763" lon="-0.429726">
        <ele>188</ele>
        <time>2018-11-04T09:23:42.000Z</time>
      </trkpt>
      <trkpt lat="39.645681" lon="-0.429753">
        <ele>187.299209820799</ele>
        <time>2018-11-04T09:23:43.000Z</time>
      </trkpt>
      <trkpt lat="39.645598" lon="-0.429782">
        <ele>187</ele>
        <time>2018-11-04T09:23:44.000Z</time>
      </trkpt>
      <trkpt lat="39.645513" lon="-0.429816">
        <ele>186.1100032</ele>
        <time>2018-11-04T09:23:45.000Z</time>
      </trkpt>
      <trkpt lat="39.645427" lon="-0.42985">
        <ele>186</ele>
        <time>2018-11-04T09:23:46.000Z</time>
      </trkpt>
      <trkpt lat="39.645339" lon="-0.429884">
        <ele>185.310078288566</ele>
        <time>2018-11-04T09:23:47.000Z</time>
      </trkpt>
      <trkpt lat="39.645249" lon="-0.429918">
        <ele>184.154933386216</ele>
        <time>2018-11-04T09:23:48.000Z</time>
      </trkpt>
      <trkpt lat="39.645159" lon="-0.429954">
        <ele>184</ele>
        <time>2018-11-04T09:23:49.000Z</time>
      </trkpt>
      <trkpt lat="39.645068" lon="-0.429991">
        <ele>183.1100032</ele>
        <time>2018-11-04T09:23:50.000Z</time>
      </trkpt>
      <trkpt lat="39.644978" lon="-0.430026">
        <ele>182.1100032</ele>
        <time>2018-11-04T09:23:51.000Z</time>
      </trkpt>
      <trkpt lat="39.64489" lon="-0.430062">
        <ele>182</ele>
        <time>2018-11-04T09:23:52.000Z</time>
      </trkpt>
      <trkpt lat="39.644806" lon="-0.430097">
        <ele>181.157145991808</ele>
        <time>2018-11-04T09:23:53.000Z</time>
      </trkpt>
      <trkpt lat="39.644725" lon="-0.430132">
        <ele>181</ele>
        <time>2018-11-04T09:23:54.000Z</time>
      </trkpt>
      <trkpt lat="39.644645" lon="-0.430164">
        <ele>180.1100032</ele>
        <time>2018-11-04T09:23:55.000Z</time>
      </trkpt>
      <trkpt lat="39.644567" lon="-0.430197">
        <ele>180</ele>
        <time>2018-11-04T09:23:56.000Z</time>
      </trkpt>
      <trkpt lat="39.644491" lon="-0.43023">
        <ele>180</ele>
        <time>2018-11-04T09:23:57.000Z</time>
      </trkpt>
      <trkpt lat="39.644416" lon="-0.430263">
        <ele>179.310078288566</ele>
        <time>2018-11-04T09:23:58.000Z</time>
      </trkpt>
      <trkpt lat="39.64434" lon="-0.430298">
        <ele>179.845066613784</ele>
        <time>2018-11-04T09:23:59.000Z</time>
      </trkpt>
      <trkpt lat="39.644266" lon="-0.430331">
        <ele>180</ele>
        <time>2018-11-04T09:24:00.000Z</time>
      </trkpt>
      <trkpt lat="39.644192" lon="-0.430363">
        <ele>180</ele>
        <time>2018-11-04T09:24:01.000Z</time>
      </trkpt>
      <trkpt lat="39.644119" lon="-0.430394">
        <ele>180</ele>
        <time>2018-11-04T09:24:02.000Z</time>
      </trkpt>
      <trkpt lat="39.644048" lon="-0.430424">
        <ele>180</ele>
        <time>2018-11-04T09:24:03.000Z</time>
      </trkpt>
      <trkpt lat="39.643978" lon="-0.430453">
        <ele>180</ele>
        <time>2018-11-04T09:24:04.000Z</time>
      </trkpt>
      <trkpt lat="39.64391" lon="-0.430483">
        <ele>180</ele>
        <time>2018-11-04T09:24:05.000Z</time>
      </trkpt>
      <trkpt lat="39.643842" lon="-0.430513">
        <ele>180</ele>
        <time>2018-11-04T09:24:06.000Z</time>
      </trkpt>
      <trkpt lat="39.643776" lon="-0.430542">
        <ele>180</ele>
        <time>2018-11-04T09:24:07.000Z</time>
      </trkpt>
      <trkpt lat="39.64371" lon="-0.43057">
        <ele>180</ele>
        <time>2018-11-04T09:24:08.000Z</time>
      </trkpt>
      <trkpt lat="39.643645" lon="-0.430597">
        <ele>180</ele>
        <time>2018-11-04T09:24:09.000Z</time>
      </trkpt>
      <trkpt lat="39.643581" lon="-0.430624">
        <ele>180</ele>
        <time>2018-11-04T09:24:10.000Z</time>
      </trkpt>
      <trkpt lat="39.643518" lon="-0.43065">
        <ele>180</ele>
        <time>2018-11-04T09:24:11.000Z</time>
      </trkpt>
      <trkpt lat="39.643456" lon="-0.430674">
        <ele>180</ele>
        <time>2018-11-04T09:24:12.000Z</time>
      </trkpt>
      <trkpt lat="39.643395" lon="-0.430698">
        <ele>180.842854008192</ele>
        <time>2018-11-04T09:24:13.000Z</time>
      </trkpt>
      <trkpt lat="39.643336" lon="-0.430719">
        <ele>181</ele>
        <time>2018-11-04T09:24:14.000Z</time>
      </trkpt>
      <trkpt lat="39.643278" lon="-0.430741">
        <ele>181</ele>
        <time>2018-11-04T09:24:15.000Z</time>
      </trkpt>
      <trkpt lat="39.64322" lon="-0.430764">
        <ele>181</ele>
        <time>2018-11-04T09:24:16.000Z</time>
      </trkpt>
      <trkpt lat="39.643162" lon="-0.430786">
        <ele>181</ele>
        <time>2018-11-04T09:24:17.000Z</time>
      </trkpt>
      <trkpt lat="39.643106" lon="-0.430808">
        <ele>181</ele>
        <time>2018-11-04T09:24:18.000Z</time>
      </trkpt>
      <trkpt lat="39.643051" lon="-0.430829">
        <ele>181</ele>
        <time>2018-11-04T09:24:19.000Z</time>
      </trkpt>
      <trkpt lat="39.642999" lon="-0.430851">
        <ele>181</ele>
        <time>2018-11-04T09:24:20.000Z</time>
      </trkpt>
      <trkpt lat="39.642948" lon="-0.430873">
        <ele>181.563291395611</ele>
        <time>2018-11-04T09:24:21.000Z</time>
      </trkpt>
      <trkpt lat="39.642898" lon="-0.430895">
        <ele>182</ele>
        <time>2018-11-04T09:24:22.000Z</time>
      </trkpt>
      <trkpt lat="39.642848" lon="-0.430916">
        <ele>182</ele>
        <time>2018-11-04T09:24:23.000Z</time>
      </trkpt>
      <trkpt lat="39.6428" lon="-0.430936">
        <ele>182</ele>
        <time>2018-11-04T09:24:24.000Z</time>
      </trkpt>
      <trkpt lat="39.642752" lon="-0.430955">
        <ele>182</ele>
        <time>2018-11-04T09:24:25.000Z</time>
      </trkpt>
      <trkpt lat="39.642707" lon="-0.430974">
        <ele>182</ele>
        <time>2018-11-04T09:24:26.000Z</time>
      </trkpt>
      <trkpt lat="39.642663" lon="-0.430993">
        <ele>182</ele>
        <time>2018-11-04T09:24:27.000Z</time>
      </trkpt>
      <trkpt lat="39.642619" lon="-0.431011">
        <ele>182</ele>
        <time>2018-11-04T09:24:28.000Z</time>
      </trkpt>
      <trkpt lat="39.642575" lon="-0.431027">
        <ele>182</ele>
        <time>2018-11-04T09:24:29.000Z</time>
      </trkpt>
      <trkpt lat="39.642532" lon="-0.431045">
        <ele>182</ele>
        <time>2018-11-04T09:24:30.000Z</time>
      </trkpt>
      <trkpt lat="39.642491" lon="-0.431064">
        <ele>182.689921711434</ele>
        <time>2018-11-04T09:24:31.000Z</time>
      </trkpt>
      <trkpt lat="39.642451" lon="-0.43108">
        <ele>183</ele>
        <time>2018-11-04T09:24:32.000Z</time>
      </trkpt>
      <trkpt lat="39.64241" lon="-0.431096">
        <ele>183</ele>
        <time>2018-11-04T09:24:33.000Z</time>
      </trkpt>
      <trkpt lat="39.642369" lon="-0.431114">
        <ele>183</ele>
        <time>2018-11-04T09:24:34.000Z</time>
      </trkpt>
      <trkpt lat="39.642327" lon="-0.431133">
        <ele>183</ele>
        <time>2018-11-04T09:24:35.000Z</time>
      </trkpt>
      <trkpt lat="39.642286" lon="-0.431153">
        <ele>183</ele>
        <time>2018-11-04T09:24:36.000Z</time>
      </trkpt>
      <trkpt lat="39.642245" lon="-0.431171">
        <ele>183.8899968</ele>
        <time>2018-11-04T09:24:37.000Z</time>
      </trkpt>
      <trkpt lat="39.642204" lon="-0.431191">
        <ele>184</ele>
        <time>2018-11-04T09:24:38.000Z</time>
      </trkpt>
      <trkpt lat="39.642163" lon="-0.431211">
        <ele>184</ele>
        <time>2018-11-04T09:24:39.000Z</time>
      </trkpt>
      <trkpt lat="39.642122" lon="-0.431231">
        <ele>184</ele>
        <time>2018-11-04T09:24:40.000Z</time>
      </trkpt>
      <trkpt lat="39.642081" lon="-0.431252">
        <ele>184</ele>
        <time>2018-11-04T09:24:41.000Z</time>
      </trkpt>
      <trkpt lat="39.642041" lon="-0.43127">
        <ele>184</ele>
        <time>2018-11-04T09:24:42.000Z</time>
      </trkpt>
      <trkpt lat="39.642001" lon="-0.431288">
        <ele>184</ele>
        <time>2018-11-04T09:24:43.000Z</time>
      </trkpt>
      <trkpt lat="39.641961" lon="-0.431306">
        <ele>184</ele>
        <time>2018-11-04T09:24:44.000Z</time>
      </trkpt>
      <trkpt lat="39.641922" lon="-0.431324">
        <ele>184</ele>
        <time>2018-11-04T09:24:45.000Z</time>
      </trkpt>
      <trkpt lat="39.641881" lon="-0.431341">
        <ele>184</ele>
        <time>2018-11-04T09:24:46.000Z</time>
      </trkpt>
      <trkpt lat="39.641842" lon="-0.431357">
        <ele>184</ele>
        <time>2018-11-04T09:24:47.000Z</time>
      </trkpt>
      <trkpt lat="39.641801" lon="-0.431374">
        <ele>183.112247430221</ele>
        <time>2018-11-04T09:24:48.000Z</time>
      </trkpt>
      <trkpt lat="39.64176" lon="-0.431392">
        <ele>183</ele>
        <time>2018-11-04T09:24:49.000Z</time>
      </trkpt>
      <trkpt lat="39.64172" lon="-0.431407">
        <ele>183</ele>
        <time>2018-11-04T09:24:50.000Z</time>
      </trkpt>
      <trkpt lat="39.641678" lon="-0.431422">
        <ele>183</ele>
        <time>2018-11-04T09:24:51.000Z</time>
      </trkpt>
      <trkpt lat="39.641636" lon="-0.431437">
        <ele>183.8899968</ele>
        <time>2018-11-04T09:24:52.000Z</time>
      </trkpt>
      <trkpt lat="39.641592" lon="-0.431452">
        <ele>184</ele>
        <time>2018-11-04T09:24:53.000Z</time>
      </trkpt>
      <trkpt lat="39.641546" lon="-0.431469">
        <ele>184</ele>
        <time>2018-11-04T09:24:54.000Z</time>
      </trkpt>
      <trkpt lat="39.641497" lon="-0.431487">
        <ele>184</ele>
        <time>2018-11-04T09:24:55.000Z</time>
      </trkpt>
      <trkpt lat="39.641447" lon="-0.431507">
        <ele>184</ele>
        <time>2018-11-04T09:24:56.000Z</time>
      </trkpt>
      <trkpt lat="39.641394" lon="-0.431531">
        <ele>184</ele>
        <time>2018-11-04T09:24:57.000Z</time>
      </trkpt>
      <trkpt lat="39.641338" lon="-0.431554">
        <ele>184</ele>
        <time>2018-11-04T09:24:58.000Z</time>
      </trkpt>
      <trkpt lat="39.641279" lon="-0.431579">
        <ele>184</ele>
        <time>2018-11-04T09:24:59.000Z</time>
      </trkpt>
      <trkpt lat="39.641218" lon="-0.431606">
        <ele>184</ele>
        <time>2018-11-04T09:25:00.000Z</time>
      </trkpt>
      <trkpt lat="39.641155" lon="-0.431634">
        <ele>183.1100032</ele>
        <time>2018-11-04T09:25:01.000Z</time>
      </trkpt>
      <trkpt lat="39.641093" lon="-0.431662">
        <ele>183</ele>
        <time>2018-11-04T09:25:02.000Z</time>
      </trkpt>
      <trkpt lat="39.641029" lon="-0.43169">
        <ele>183</ele>
        <time>2018-11-04T09:25:03.000Z</time>
      </trkpt>
      <trkpt lat="39.640964" lon="-0.431718">
        <ele>183</ele>
        <time>2018-11-04T09:25:04.000Z</time>
      </trkpt>
      <trkpt lat="39.640899" lon="-0.431744">
        <ele>183</ele>
        <time>2018-11-04T09:25:05.000Z</time>
      </trkpt>
      <trkpt lat="39.640831" lon="-0.43177">
        <ele>182.1100032</ele>
        <time>2018-11-04T09:25:06.000Z</time>
      </trkpt>
      <trkpt lat="39.640763" lon="-0.431798">
        <ele>182</ele>
        <time>2018-11-04T09:25:07.000Z</time>
      </trkpt>
      <trkpt lat="39.640694" lon="-0.431826">
        <ele>182</ele>
        <time>2018-11-04T09:25:08.000Z</time>
      </trkpt>
      <trkpt lat="39.640625" lon="-0.431854">
        <ele>182</ele>
        <time>2018-11-04T09:25:09.000Z</time>
      </trkpt>
      <trkpt lat="39.640555" lon="-0.431883">
        <ele>182</ele>
        <time>2018-11-04T09:25:10.000Z</time>
      </trkpt>
      <trkpt lat="39.640485" lon="-0.431912">
        <ele>182</ele>
        <time>2018-11-04T09:25:11.000Z</time>
      </trkpt>
      <trkpt lat="39.640413" lon="-0.431939">
        <ele>182</ele>
        <time>2018-11-04T09:25:12.000Z</time>
      </trkpt>
      <trkpt lat="39.640342" lon="-0.431969">
        <ele>182</ele>
        <time>2018-11-04T09:25:13.000Z</time>
      </trkpt>
      <trkpt lat="39.640271" lon="-0.432">
        <ele>182</ele>
        <time>2018-11-04T09:25:14.000Z</time>
      </trkpt>
      <trkpt lat="39.6402" lon="-0.432031">
        <ele>182</ele>
        <time>2018-11-04T09:25:15.000Z</time>
      </trkpt>
      <trkpt lat="39.640127" lon="-0.432063">
        <ele>182</ele>
        <time>2018-11-04T09:25:16.000Z</time>
      </trkpt>
      <trkpt lat="39.640055" lon="-0.432096">
        <ele>182</ele>
        <time>2018-11-04T09:25:17.000Z</time>
      </trkpt>
      <trkpt lat="39.639981" lon="-0.432129">
        <ele>181.299216883863</ele>
        <time>2018-11-04T09:25:18.000Z</time>
      </trkpt>
      <trkpt lat="39.639907" lon="-0.432162">
        <ele>181</ele>
        <time>2018-11-04T09:25:19.000Z</time>
      </trkpt>
      <trkpt lat="39.639835" lon="-0.432193">
        <ele>181</ele>
        <time>2018-11-04T09:25:20.000Z</time>
      </trkpt>
      <trkpt lat="39.639762" lon="-0.432224">
        <ele>181</ele>
        <time>2018-11-04T09:25:21.000Z</time>
      </trkpt>
      <trkpt lat="39.639688" lon="-0.432253">
        <ele>181</ele>
        <time>2018-11-04T09:25:22.000Z</time>
      </trkpt>
      <trkpt lat="39.639615" lon="-0.432285">
        <ele>181</ele>
        <time>2018-11-04T09:25:23.000Z</time>
      </trkpt>
      <trkpt lat="39.63954" lon="-0.432314">
        <ele>181</ele>
        <time>2018-11-04T09:25:24.000Z</time>
      </trkpt>
      <trkpt lat="39.639464" lon="-0.432341">
        <ele>181</ele>
        <time>2018-11-04T09:25:25.000Z</time>
      </trkpt>
      <trkpt lat="39.63939" lon="-0.432369">
        <ele>181</ele>
        <time>2018-11-04T09:25:26.000Z</time>
      </trkpt>
      <trkpt lat="39.639316" lon="-0.432399">
        <ele>181</ele>
        <time>2018-11-04T09:25:27.000Z</time>
      </trkpt>
      <trkpt lat="39.639243" lon="-0.43243">
        <ele>181</ele>
        <time>2018-11-04T09:25:28.000Z</time>
      </trkpt>
      <trkpt lat="39.639171" lon="-0.432459">
        <ele>181</ele>
        <time>2018-11-04T09:25:29.000Z</time>
      </trkpt>
      <trkpt lat="39.6391" lon="-0.432487">
        <ele>181</ele>
        <time>2018-11-04T09:25:30.000Z</time>
      </trkpt>
      <trkpt lat="39.639029" lon="-0.432515">
        <ele>181</ele>
        <time>2018-11-04T09:25:31.000Z</time>
      </trkpt>
      <trkpt lat="39.638958" lon="-0.432545">
        <ele>181</ele>
        <time>2018-11-04T09:25:32.000Z</time>
      </trkpt>
      <trkpt lat="39.638885" lon="-0.432576">
        <ele>181</ele>
        <time>2018-11-04T09:25:33.000Z</time>
      </trkpt>
      <trkpt lat="39.638812" lon="-0.432607">
        <ele>181</ele>
        <time>2018-11-04T09:25:34.000Z</time>
      </trkpt>
      <trkpt lat="39.63874" lon="-0.43264">
        <ele>181</ele>
        <time>2018-11-04T09:25:35.000Z</time>
      </trkpt>
      <trkpt lat="39.638665" lon="-0.432678">
        <ele>181</ele>
        <time>2018-11-04T09:25:36.000Z</time>
      </trkpt>
      <trkpt lat="39.638592" lon="-0.432717">
        <ele>180.387751103681</ele>
        <time>2018-11-04T09:25:37.000Z</time>
      </trkpt>
      <trkpt lat="39.638522" lon="-0.432762">
        <ele>180</ele>
        <time>2018-11-04T09:25:38.000Z</time>
      </trkpt>
      <trkpt lat="39.638459" lon="-0.432823">
        <ele>180</ele>
        <time>2018-11-04T09:25:39.000Z</time>
      </trkpt>
      <trkpt lat="39.638401" lon="-0.432885">
        <ele>179.1100032</ele>
        <time>2018-11-04T09:25:40.000Z</time>
      </trkpt>
      <trkpt lat="39.638336" lon="-0.432923">
        <ele>179</ele>
        <time>2018-11-04T09:25:41.000Z</time>
      </trkpt>
      <trkpt lat="39.638265" lon="-0.432935">
        <ele>179</ele>
        <time>2018-11-04T09:25:42.000Z</time>
      </trkpt>
      <trkpt lat="39.638194" lon="-0.432931">
        <ele>179</ele>
        <time>2018-11-04T09:25:43.000Z</time>
      </trkpt>
      <trkpt lat="39.638121" lon="-0.432929">
        <ele>179</ele>
        <time>2018-11-04T09:25:44.000Z</time>
      </trkpt>
      <trkpt lat="39.638046" lon="-0.432939">
        <ele>179</ele>
        <time>2018-11-04T09:25:45.000Z</time>
      </trkpt>
      <trkpt lat="39.637972" lon="-0.432961">
        <ele>178.1100032</ele>
        <time>2018-11-04T09:25:46.000Z</time>
      </trkpt>
      <trkpt lat="39.637896" lon="-0.432988">
        <ele>178</ele>
        <time>2018-11-04T09:25:47.000Z</time>
      </trkpt>
      <trkpt lat="39.637821" lon="-0.433017">
        <ele>178</ele>
        <time>2018-11-04T09:25:48.000Z</time>
      </trkpt>
      <trkpt lat="39.637745" lon="-0.433048">
        <ele>178</ele>
        <time>2018-11-04T09:25:49.000Z</time>
      </trkpt>
      <trkpt lat="39.63767" lon="-0.433082">
        <ele>178</ele>
        <time>2018-11-04T09:25:50.000Z</time>
      </trkpt>
      <trkpt lat="39.637593" lon="-0.433115">
        <ele>178</ele>
        <time>2018-11-04T09:25:51.000Z</time>
      </trkpt>
      <trkpt lat="39.637515" lon="-0.433149">
        <ele>178</ele>
        <time>2018-11-04T09:25:52.000Z</time>
      </trkpt>
      <trkpt lat="39.637435" lon="-0.43318">
        <ele>177.1100032</ele>
        <time>2018-11-04T09:25:53.000Z</time>
      </trkpt>
      <trkpt lat="39.637356" lon="-0.433213">
        <ele>177</ele>
        <time>2018-11-04T09:25:54.000Z</time>
      </trkpt>
      <trkpt lat="39.637277" lon="-0.433247">
        <ele>177</ele>
        <time>2018-11-04T09:25:55.000Z</time>
      </trkpt>
      <trkpt lat="39.637194" lon="-0.433281">
        <ele>177</ele>
        <time>2018-11-04T09:25:56.000Z</time>
      </trkpt>
      <trkpt lat="39.637112" lon="-0.433313">
        <ele>177</ele>
        <time>2018-11-04T09:25:57.000Z</time>
      </trkpt>
      <trkpt lat="39.63703" lon="-0.433347">
        <ele>177</ele>
        <time>2018-11-04T09:25:58.000Z</time>
      </trkpt>
      <trkpt lat="39.636949" lon="-0.433383">
        <ele>176.1100032</ele>
        <time>2018-11-04T09:25:59.000Z</time>
      </trkpt>
      <trkpt lat="39.636866" lon="-0.433419">
        <ele>176</ele>
        <time>2018-11-04T09:26:00.000Z</time>
      </trkpt>
      <trkpt lat="39.636782" lon="-0.433454">
        <ele>176</ele>
        <time>2018-11-04T09:26:01.000Z</time>
      </trkpt>
      <trkpt lat="39.636697" lon="-0.433486">
        <ele>176</ele>
        <time>2018-11-04T09:26:02.000Z</time>
      </trkpt>
      <trkpt lat="39.636612" lon="-0.433522">
        <ele>175.1100032</ele>
        <time>2018-11-04T09:26:03.000Z</time>
      </trkpt>
      <trkpt lat="39.636526" lon="-0.433558">
        <ele>175</ele>
        <time>2018-11-04T09:26:04.000Z</time>
      </trkpt>
      <trkpt lat="39.636441" lon="-0.433591">
        <ele>175</ele>
        <time>2018-11-04T09:26:05.000Z</time>
      </trkpt>
      <trkpt lat="39.636356" lon="-0.433623">
        <ele>175</ele>
        <time>2018-11-04T09:26:06.000Z</time>
      </trkpt>
      <trkpt lat="39.63627" lon="-0.433656">
        <ele>174.157145991808</ele>
        <time>2018-11-04T09:26:07.000Z</time>
      </trkpt>
      <trkpt lat="39.636185" lon="-0.433691">
        <ele>174</ele>
        <time>2018-11-04T09:26:08.000Z</time>
      </trkpt>
      <trkpt lat="39.6361" lon="-0.433728">
        <ele>174</ele>
        <time>2018-11-04T09:26:09.000Z</time>
      </trkpt>
      <trkpt lat="39.636014" lon="-0.433763">
        <ele>173.1100032</ele>
        <time>2018-11-04T09:26:10.000Z</time>
      </trkpt>
      <trkpt lat="39.63593" lon="-0.433799">
        <ele>173</ele>
        <time>2018-11-04T09:26:11.000Z</time>
      </trkpt>
      <trkpt lat="39.635846" lon="-0.433835">
        <ele>173</ele>
        <time>2018-11-04T09:26:12.000Z</time>
      </trkpt>
      <trkpt lat="39.635764" lon="-0.433869">
        <ele>173</ele>
        <time>2018-11-04T09:26:13.000Z</time>
      </trkpt>
      <trkpt lat="39.635681" lon="-0.433903">
        <ele>173</ele>
        <time>2018-11-04T09:26:14.000Z</time>
      </trkpt>
      <trkpt lat="39.635599" lon="-0.433935">
        <ele>173</ele>
        <time>2018-11-04T09:26:15.000Z</time>
      </trkpt>
      <trkpt lat="39.635516" lon="-0.43397">
        <ele>172.148651687337</ele>
        <time>2018-11-04T09:26:16.000Z</time>
      </trkpt>
      <trkpt lat="39.635434" lon="-0.434006">
        <ele>172</ele>
        <time>2018-11-04T09:26:17.000Z</time>
      </trkpt>
      <trkpt lat="39.635351" lon="-0.434044">
        <ele>172</ele>
        <time>2018-11-04T09:26:18.000Z</time>
      </trkpt>
      <trkpt lat="39.635268" lon="-0.434078">
        <ele>172</ele>
        <time>2018-11-04T09:26:19.000Z</time>
      </trkpt>
      <trkpt lat="39.635185" lon="-0.434114">
        <ele>171.1100032</ele>
        <time>2018-11-04T09:26:20.000Z</time>
      </trkpt>
      <trkpt lat="39.635102" lon="-0.434152">
        <ele>171</ele>
        <time>2018-11-04T09:26:21.000Z</time>
      </trkpt>
      <trkpt lat="39.63502" lon="-0.434187">
        <ele>171</ele>
        <time>2018-11-04T09:26:22.000Z</time>
      </trkpt>
      <trkpt lat="39.634938" lon="-0.43422">
        <ele>171</ele>
        <time>2018-11-04T09:26:23.000Z</time>
      </trkpt>
      <trkpt lat="39.634857" lon="-0.434255">
        <ele>170.152782222222</ele>
        <time>2018-11-04T09:26:24.000Z</time>
      </trkpt>
      <trkpt lat="39.634773" lon="-0.434291">
        <ele>170</ele>
        <time>2018-11-04T09:26:25.000Z</time>
      </trkpt>
      <trkpt lat="39.63469" lon="-0.434326">
        <ele>169.1100032</ele>
        <time>2018-11-04T09:26:26.000Z</time>
      </trkpt>
      <trkpt lat="39.634605" lon="-0.434357">
        <ele>169</ele>
        <time>2018-11-04T09:26:27.000Z</time>
      </trkpt>
      <trkpt lat="39.634522" lon="-0.434393">
        <ele>168.1100032</ele>
        <time>2018-11-04T09:26:28.000Z</time>
      </trkpt>
      <trkpt lat="39.63444" lon="-0.434429">
        <ele>168</ele>
        <time>2018-11-04T09:26:29.000Z</time>
      </trkpt>
      <trkpt lat="39.63436" lon="-0.434462">
        <ele>167.154933386216</ele>
        <time>2018-11-04T09:26:30.000Z</time>
      </trkpt>
      <trkpt lat="39.634279" lon="-0.434497">
        <ele>167</ele>
        <time>2018-11-04T09:26:31.000Z</time>
      </trkpt>
      <trkpt lat="39.634199" lon="-0.434528">
        <ele>166.1100032</ele>
        <time>2018-11-04T09:26:32.000Z</time>
      </trkpt>
      <trkpt lat="39.634118" lon="-0.434561">
        <ele>165.1100032</ele>
        <time>2018-11-04T09:26:33.000Z</time>
      </trkpt>
      <trkpt lat="39.634035" lon="-0.434591">
        <ele>165</ele>
        <time>2018-11-04T09:26:34.000Z</time>
      </trkpt>
      <trkpt lat="39.633951" lon="-0.434623">
        <ele>164.37999846398</ele>
        <time>2018-11-04T09:26:35.000Z</time>
      </trkpt>
      <trkpt lat="39.633868" lon="-0.434657">
        <ele>164</ele>
        <time>2018-11-04T09:26:36.000Z</time>
      </trkpt>
      <trkpt lat="39.633785" lon="-0.434689">
        <ele>163.1100032</ele>
        <time>2018-11-04T09:26:37.000Z</time>
      </trkpt>
      <trkpt lat="39.633701" lon="-0.434724">
        <ele>163</ele>
        <time>2018-11-04T09:26:38.000Z</time>
      </trkpt>
      <trkpt lat="39.633617" lon="-0.434759">
        <ele>162.1100032</ele>
        <time>2018-11-04T09:26:39.000Z</time>
      </trkpt>
      <trkpt lat="39.633533" lon="-0.434795">
        <ele>162</ele>
        <time>2018-11-04T09:26:40.000Z</time>
      </trkpt>
      <trkpt lat="39.633449" lon="-0.434831">
        <ele>161.315383706504</ele>
        <time>2018-11-04T09:26:41.000Z</time>
      </trkpt>
      <trkpt lat="39.633364" lon="-0.434867">
        <ele>160.157145991808</ele>
        <time>2018-11-04T09:26:42.000Z</time>
      </trkpt>
      <trkpt lat="39.633278" lon="-0.434904">
        <ele>160</ele>
        <time>2018-11-04T09:26:43.000Z</time>
      </trkpt>
      <trkpt lat="39.633193" lon="-0.434941">
        <ele>160</ele>
        <time>2018-11-04T09:26:44.000Z</time>
      </trkpt>
      <trkpt lat="39.633108" lon="-0.43498">
        <ele>159.1100032</ele>
        <time>2018-11-04T09:26:45.000Z</time>
      </trkpt>
      <trkpt lat="39.633024" lon="-0.435017">
        <ele>159</ele>
        <time>2018-11-04T09:26:46.000Z</time>
      </trkpt>
      <trkpt lat="39.632939" lon="-0.435052">
        <ele>159</ele>
        <time>2018-11-04T09:26:47.000Z</time>
      </trkpt>
      <trkpt lat="39.632855" lon="-0.435087">
        <ele>159</ele>
        <time>2018-11-04T09:26:48.000Z</time>
      </trkpt>
      <trkpt lat="39.632774" lon="-0.435122">
        <ele>159</ele>
        <time>2018-11-04T09:26:49.000Z</time>
      </trkpt>
      <trkpt lat="39.632692" lon="-0.43516">
        <ele>158.118812257623</ele>
        <time>2018-11-04T09:26:50.000Z</time>
      </trkpt>
      <trkpt lat="39.632611" lon="-0.435198">
        <ele>158</ele>
        <time>2018-11-04T09:26:51.000Z</time>
      </trkpt>
      <trkpt lat="39.63253" lon="-0.435236">
        <ele>158</ele>
        <time>2018-11-04T09:26:52.000Z</time>
      </trkpt>
      <trkpt lat="39.632449" lon="-0.435271">
        <ele>157.387751103681</ele>
        <time>2018-11-04T09:26:53.000Z</time>
      </trkpt>
      <trkpt lat="39.632371" lon="-0.435303">
        <ele>157</ele>
        <time>2018-11-04T09:26:54.000Z</time>
      </trkpt>
      <trkpt lat="39.632293" lon="-0.435337">
        <ele>157</ele>
        <time>2018-11-04T09:26:55.000Z</time>
      </trkpt>
      <trkpt lat="39.632218" lon="-0.43537">
        <ele>156.1100032</ele>
        <time>2018-11-04T09:26:56.000Z</time>
      </trkpt>
      <trkpt lat="39.632145" lon="-0.435403">
        <ele>156</ele>
        <time>2018-11-04T09:26:57.000Z</time>
      </trkpt>
      <trkpt lat="39.632072" lon="-0.435434">
        <ele>156</ele>
        <time>2018-11-04T09:26:58.000Z</time>
      </trkpt>
      <trkpt lat="39.632" lon="-0.435464">
        <ele>156</ele>
        <time>2018-11-04T09:26:59.000Z</time>
      </trkpt>
      <trkpt lat="39.631931" lon="-0.435493">
        <ele>156</ele>
        <time>2018-11-04T09:27:00.000Z</time>
      </trkpt>
      <trkpt lat="39.631862" lon="-0.435522">
        <ele>156</ele>
        <time>2018-11-04T09:27:01.000Z</time>
      </trkpt>
      <trkpt lat="39.631795" lon="-0.43555">
        <ele>156</ele>
        <time>2018-11-04T09:27:02.000Z</time>
      </trkpt>
      <trkpt lat="39.631729" lon="-0.435577">
        <ele>156</ele>
        <time>2018-11-04T09:27:03.000Z</time>
      </trkpt>
      <trkpt lat="39.631663" lon="-0.435604">
        <ele>156</ele>
        <time>2018-11-04T09:27:04.000Z</time>
      </trkpt>
      <trkpt lat="39.631598" lon="-0.435632">
        <ele>156</ele>
        <time>2018-11-04T09:27:05.000Z</time>
      </trkpt>
      <trkpt lat="39.631533" lon="-0.435658">
        <ele>156</ele>
        <time>2018-11-04T09:27:06.000Z</time>
      </trkpt>
      <trkpt lat="39.631468" lon="-0.435679">
        <ele>156</ele>
        <time>2018-11-04T09:27:07.000Z</time>
      </trkpt>
      <trkpt lat="39.631403" lon="-0.435696">
        <ele>156</ele>
        <time>2018-11-04T09:27:08.000Z</time>
      </trkpt>
      <trkpt lat="39.631337" lon="-0.435709">
        <ele>156.8899968</ele>
        <time>2018-11-04T09:27:09.000Z</time>
      </trkpt>
      <trkpt lat="39.63127" lon="-0.435719">
        <ele>156.1100032</ele>
        <time>2018-11-04T09:27:10.000Z</time>
      </trkpt>
      <trkpt lat="39.631202" lon="-0.435726">
        <ele>156</ele>
        <time>2018-11-04T09:27:11.000Z</time>
      </trkpt>
      <trkpt lat="39.631133" lon="-0.435732">
        <ele>156</ele>
        <time>2018-11-04T09:27:12.000Z</time>
      </trkpt>
      <trkpt lat="39.631062" lon="-0.435737">
        <ele>156</ele>
        <time>2018-11-04T09:27:13.000Z</time>
      </trkpt>
      <trkpt lat="39.63099" lon="-0.435743">
        <ele>156</ele>
        <time>2018-11-04T09:27:14.000Z</time>
      </trkpt>
      <trkpt lat="39.630916" lon="-0.43575">
        <ele>156</ele>
        <time>2018-11-04T09:27:15.000Z</time>
      </trkpt>
      <trkpt lat="39.630841" lon="-0.435754">
        <ele>156</ele>
        <time>2018-11-04T09:27:16.000Z</time>
      </trkpt>
      <trkpt lat="39.630767" lon="-0.435758">
        <ele>155.1100032</ele>
        <time>2018-11-04T09:27:17.000Z</time>
      </trkpt>
      <trkpt lat="39.630692" lon="-0.435762">
        <ele>155</ele>
        <time>2018-11-04T09:27:18.000Z</time>
      </trkpt>
      <trkpt lat="39.630617" lon="-0.435764">
        <ele>155</ele>
        <time>2018-11-04T09:27:19.000Z</time>
      </trkpt>
      <trkpt lat="39.630542" lon="-0.435767">
        <ele>155</ele>
        <time>2018-11-04T09:27:20.000Z</time>
      </trkpt>
      <trkpt lat="39.630468" lon="-0.435769">
        <ele>155</ele>
        <time>2018-11-04T09:27:21.000Z</time>
      </trkpt>
      <trkpt lat="39.630393" lon="-0.435772">
        <ele>155</ele>
        <time>2018-11-04T09:27:22.000Z</time>
      </trkpt>
      <trkpt lat="39.630318" lon="-0.435773">
        <ele>154.1100032</ele>
        <time>2018-11-04T09:27:23.000Z</time>
      </trkpt>
      <trkpt lat="39.630243" lon="-0.435776">
        <ele>154</ele>
        <time>2018-11-04T09:27:24.000Z</time>
      </trkpt>
      <trkpt lat="39.630168" lon="-0.435778">
        <ele>154</ele>
        <time>2018-11-04T09:27:25.000Z</time>
      </trkpt>
      <trkpt lat="39.630093" lon="-0.435779">
        <ele>154</ele>
        <time>2018-11-04T09:27:26.000Z</time>
      </trkpt>
      <trkpt lat="39.630018" lon="-0.435778">
        <ele>154</ele>
        <time>2018-11-04T09:27:27.000Z</time>
      </trkpt>
      <trkpt lat="39.629941" lon="-0.435778">
        <ele>154</ele>
        <time>2018-11-04T09:27:28.000Z</time>
      </trkpt>
      <trkpt lat="39.629865" lon="-0.435781">
        <ele>154</ele>
        <time>2018-11-04T09:27:29.000Z</time>
      </trkpt>
      <trkpt lat="39.62979" lon="-0.435782">
        <ele>154</ele>
        <time>2018-11-04T09:27:30.000Z</time>
      </trkpt>
      <trkpt lat="39.629714" lon="-0.435783">
        <ele>154</ele>
        <time>2018-11-04T09:27:31.000Z</time>
      </trkpt>
      <trkpt lat="39.629638" lon="-0.435784">
        <ele>154</ele>
        <time>2018-11-04T09:27:32.000Z</time>
      </trkpt>
      <trkpt lat="39.629562" lon="-0.435786">
        <ele>154</ele>
        <time>2018-11-04T09:27:33.000Z</time>
      </trkpt>
      <trkpt lat="39.629486" lon="-0.43579">
        <ele>154</ele>
        <time>2018-11-04T09:27:34.000Z</time>
      </trkpt>
      <trkpt lat="39.629411" lon="-0.435793">
        <ele>153.1100032</ele>
        <time>2018-11-04T09:27:35.000Z</time>
      </trkpt>
      <trkpt lat="39.629334" lon="-0.435797">
        <ele>153</ele>
        <time>2018-11-04T09:27:36.000Z</time>
      </trkpt>
      <trkpt lat="39.629256" lon="-0.435799">
        <ele>153</ele>
        <time>2018-11-04T09:27:37.000Z</time>
      </trkpt>
      <trkpt lat="39.629179" lon="-0.435803">
        <ele>153</ele>
        <time>2018-11-04T09:27:38.000Z</time>
      </trkpt>
      <trkpt lat="39.629102" lon="-0.435807">
        <ele>153</ele>
        <time>2018-11-04T09:27:39.000Z</time>
      </trkpt>
      <trkpt lat="39.629025" lon="-0.435809">
        <ele>153</ele>
        <time>2018-11-04T09:27:40.000Z</time>
      </trkpt>
      <trkpt lat="39.628948" lon="-0.43581">
        <ele>153</ele>
        <time>2018-11-04T09:27:41.000Z</time>
      </trkpt>
      <trkpt lat="39.62887" lon="-0.435813">
        <ele>153</ele>
        <time>2018-11-04T09:27:42.000Z</time>
      </trkpt>
      <trkpt lat="39.628793" lon="-0.435815">
        <ele>153</ele>
        <time>2018-11-04T09:27:43.000Z</time>
      </trkpt>
      <trkpt lat="39.628716" lon="-0.435817">
        <ele>152.1100032</ele>
        <time>2018-11-04T09:27:44.000Z</time>
      </trkpt>
      <trkpt lat="39.628639" lon="-0.43582">
        <ele>152</ele>
        <time>2018-11-04T09:27:45.000Z</time>
      </trkpt>
      <trkpt lat="39.628563" lon="-0.435823">
        <ele>152</ele>
        <time>2018-11-04T09:27:46.000Z</time>
      </trkpt>
      <trkpt lat="39.628487" lon="-0.435829">
        <ele>152</ele>
        <time>2018-11-04T09:27:47.000Z</time>
      </trkpt>
      <trkpt lat="39.628412" lon="-0.435837">
        <ele>152</ele>
        <time>2018-11-04T09:27:48.000Z</time>
      </trkpt>
      <trkpt lat="39.628336" lon="-0.435841">
        <ele>151.1100032</ele>
        <time>2018-11-04T09:27:49.000Z</time>
      </trkpt>
      <trkpt lat="39.62826" lon="-0.435846">
        <ele>151</ele>
        <time>2018-11-04T09:27:50.000Z</time>
      </trkpt>
      <trkpt lat="39.628184" lon="-0.435851">
        <ele>151</ele>
        <time>2018-11-04T09:27:51.000Z</time>
      </trkpt>
      <trkpt lat="39.628107" lon="-0.435855">
        <ele>151</ele>
        <time>2018-11-04T09:27:52.000Z</time>
      </trkpt>
      <trkpt lat="39.62803" lon="-0.435858">
        <ele>151</ele>
        <time>2018-11-04T09:27:53.000Z</time>
      </trkpt>
      <trkpt lat="39.627952" lon="-0.435862">
        <ele>151</ele>
        <time>2018-11-04T09:27:54.000Z</time>
      </trkpt>
      <trkpt lat="39.627876" lon="-0.435867">
        <ele>151</ele>
        <time>2018-11-04T09:27:55.000Z</time>
      </trkpt>
      <trkpt lat="39.627799" lon="-0.435871">
        <ele>150.175928888889</ele>
        <time>2018-11-04T09:27:56.000Z</time>
      </trkpt>
      <trkpt lat="39.627723" lon="-0.435874">
        <ele>150</ele>
        <time>2018-11-04T09:27:57.000Z</time>
      </trkpt>
      <trkpt lat="39.627646" lon="-0.435878">
        <ele>150</ele>
        <time>2018-11-04T09:27:58.000Z</time>
      </trkpt>
      <trkpt lat="39.62757" lon="-0.435882">
        <ele>150</ele>
        <time>2018-11-04T09:27:59.000Z</time>
      </trkpt>
      <trkpt lat="39.627494" lon="-0.43589">
        <ele>150</ele>
        <time>2018-11-04T09:28:00.000Z</time>
      </trkpt>
      <trkpt lat="39.627417" lon="-0.435897">
        <ele>150</ele>
        <time>2018-11-04T09:28:01.000Z</time>
      </trkpt>
      <trkpt lat="39.627338" lon="-0.435901">
        <ele>150</ele>
        <time>2018-11-04T09:28:02.000Z</time>
      </trkpt>
      <trkpt lat="39.627259" lon="-0.435905">
        <ele>150</ele>
        <time>2018-11-04T09:28:03.000Z</time>
      </trkpt>
      <trkpt lat="39.62718" lon="-0.435908">
        <ele>150</ele>
        <time>2018-11-04T09:28:04.000Z</time>
      </trkpt>
      <trkpt lat="39.627101" lon="-0.435911">
        <ele>149.315383706504</ele>
        <time>2018-11-04T09:28:05.000Z</time>
      </trkpt>
      <trkpt lat="39.627021" lon="-0.435918">
        <ele>149</ele>
        <time>2018-11-04T09:28:06.000Z</time>
      </trkpt>
      <trkpt lat="39.626941" lon="-0.435923">
        <ele>149.881187742377</ele>
        <time>2018-11-04T09:28:07.000Z</time>
      </trkpt>
      <trkpt lat="39.626861" lon="-0.435926">
        <ele>150</ele>
        <time>2018-11-04T09:28:08.000Z</time>
      </trkpt>
      <trkpt lat="39.626781" lon="-0.435928">
        <ele>149.299209820799</ele>
        <time>2018-11-04T09:28:09.000Z</time>
      </trkpt>
      <trkpt lat="39.6267" lon="-0.435932">
        <ele>149</ele>
        <time>2018-11-04T09:28:10.000Z</time>
      </trkpt>
      <trkpt lat="39.626621" lon="-0.435938">
        <ele>149</ele>
        <time>2018-11-04T09:28:11.000Z</time>
      </trkpt>
      <trkpt lat="39.626542" lon="-0.435946">
        <ele>149.847217777778</ele>
        <time>2018-11-04T09:28:12.000Z</time>
      </trkpt>
      <trkpt lat="39.626462" lon="-0.435953">
        <ele>150</ele>
        <time>2018-11-04T09:28:13.000Z</time>
      </trkpt>
      <trkpt lat="39.626383" lon="-0.43596">
        <ele>150</ele>
        <time>2018-11-04T09:28:14.000Z</time>
      </trkpt>
      <trkpt lat="39.626305" lon="-0.435967">
        <ele>150</ele>
        <time>2018-11-04T09:28:15.000Z</time>
      </trkpt>
      <trkpt lat="39.626227" lon="-0.435977">
        <ele>150</ele>
        <time>2018-11-04T09:28:16.000Z</time>
      </trkpt>
      <trkpt lat="39.626149" lon="-0.43599">
        <ele>150</ele>
        <time>2018-11-04T09:28:17.000Z</time>
      </trkpt>
      <trkpt lat="39.62607" lon="-0.43601">
        <ele>150</ele>
        <time>2018-11-04T09:28:18.000Z</time>
      </trkpt>
      <trkpt lat="39.625992" lon="-0.436036">
        <ele>150</ele>
        <time>2018-11-04T09:28:19.000Z</time>
      </trkpt>
      <trkpt lat="39.625912" lon="-0.436063">
        <ele>150</ele>
        <time>2018-11-04T09:28:20.000Z</time>
      </trkpt>
      <trkpt lat="39.625834" lon="-0.43609">
        <ele>150</ele>
        <time>2018-11-04T09:28:21.000Z</time>
      </trkpt>
      <trkpt lat="39.625758" lon="-0.436121">
        <ele>150</ele>
        <time>2018-11-04T09:28:22.000Z</time>
      </trkpt>
      <trkpt lat="39.625682" lon="-0.43616">
        <ele>150</ele>
        <time>2018-11-04T09:28:23.000Z</time>
      </trkpt>
      <trkpt lat="39.625607" lon="-0.436203">
        <ele>150</ele>
        <time>2018-11-04T09:28:24.000Z</time>
      </trkpt>
      <trkpt lat="39.625533" lon="-0.436246">
        <ele>150</ele>
        <time>2018-11-04T09:28:25.000Z</time>
      </trkpt>
      <trkpt lat="39.625461" lon="-0.43629">
        <ele>150</ele>
        <time>2018-11-04T09:28:26.000Z</time>
      </trkpt>
      <trkpt lat="39.625389" lon="-0.436336">
        <ele>150</ele>
        <time>2018-11-04T09:28:27.000Z</time>
      </trkpt>
      <trkpt lat="39.625318" lon="-0.436383">
        <ele>150</ele>
        <time>2018-11-04T09:28:28.000Z</time>
      </trkpt>
      <trkpt lat="39.625248" lon="-0.43643">
        <ele>150</ele>
        <time>2018-11-04T09:28:29.000Z</time>
      </trkpt>
      <trkpt lat="39.625178" lon="-0.436475">
        <ele>149.310078288566</ele>
        <time>2018-11-04T09:28:30.000Z</time>
      </trkpt>
      <trkpt lat="39.625111" lon="-0.436519">
        <ele>149</ele>
        <time>2018-11-04T09:28:31.000Z</time>
      </trkpt>
      <trkpt lat="39.625044" lon="-0.436561">
        <ele>149</ele>
        <time>2018-11-04T09:28:32.000Z</time>
      </trkpt>
      <trkpt lat="39.624977" lon="-0.436605">
        <ele>148.1100032</ele>
        <time>2018-11-04T09:28:33.000Z</time>
      </trkpt>
      <trkpt lat="39.624909" lon="-0.436651">
        <ele>148</ele>
        <time>2018-11-04T09:28:34.000Z</time>
      </trkpt>
      <trkpt lat="39.624842" lon="-0.436694">
        <ele>148</ele>
        <time>2018-11-04T09:28:35.000Z</time>
      </trkpt>
      <trkpt lat="39.624776" lon="-0.436735">
        <ele>148</ele>
        <time>2018-11-04T09:28:36.000Z</time>
      </trkpt>
      <trkpt lat="39.624712" lon="-0.436777">
        <ele>148</ele>
        <time>2018-11-04T09:28:37.000Z</time>
      </trkpt>
      <trkpt lat="39.624648" lon="-0.43682">
        <ele>147.159425666902</ele>
        <time>2018-11-04T09:28:38.000Z</time>
      </trkpt>
      <trkpt lat="39.624583" lon="-0.43686">
        <ele>147</ele>
        <time>2018-11-04T09:28:39.000Z</time>
      </trkpt>
      <trkpt lat="39.62452" lon="-0.436899">
        <ele>147</ele>
        <time>2018-11-04T09:28:40.000Z</time>
      </trkpt>
      <trkpt lat="39.624458" lon="-0.436938">
        <ele>147</ele>
        <time>2018-11-04T09:28:41.000Z</time>
      </trkpt>
      <trkpt lat="39.624395" lon="-0.436981">
        <ele>147</ele>
        <time>2018-11-04T09:28:42.000Z</time>
      </trkpt>
      <trkpt lat="39.624333" lon="-0.437023">
        <ele>147</ele>
        <time>2018-11-04T09:28:43.000Z</time>
      </trkpt>
      <trkpt lat="39.624271" lon="-0.437064">
        <ele>146.310078288566</ele>
        <time>2018-11-04T09:28:44.000Z</time>
      </trkpt>
      <trkpt lat="39.624209" lon="-0.437105">
        <ele>146</ele>
        <time>2018-11-04T09:28:45.000Z</time>
      </trkpt>
      <trkpt lat="39.624146" lon="-0.437149">
        <ele>146</ele>
        <time>2018-11-04T09:28:46.000Z</time>
      </trkpt>
      <trkpt lat="39.624082" lon="-0.437189">
        <ele>146</ele>
        <time>2018-11-04T09:28:47.000Z</time>
      </trkpt>
      <trkpt lat="39.624018" lon="-0.437229">
        <ele>146</ele>
        <time>2018-11-04T09:28:48.000Z</time>
      </trkpt>
      <trkpt lat="39.623956" lon="-0.437267">
        <ele>146</ele>
        <time>2018-11-04T09:28:49.000Z</time>
      </trkpt>
      <trkpt lat="39.623893" lon="-0.437306">
        <ele>146</ele>
        <time>2018-11-04T09:28:50.000Z</time>
      </trkpt>
      <trkpt lat="39.623831" lon="-0.437348">
        <ele>146</ele>
        <time>2018-11-04T09:28:51.000Z</time>
      </trkpt>
      <trkpt lat="39.623769" lon="-0.437388">
        <ele>146</ele>
        <time>2018-11-04T09:28:52.000Z</time>
      </trkpt>
      <trkpt lat="39.623708" lon="-0.437427">
        <ele>145.1100032</ele>
        <time>2018-11-04T09:28:53.000Z</time>
      </trkpt>
      <trkpt lat="39.623647" lon="-0.437465">
        <ele>145</ele>
        <time>2018-11-04T09:28:54.000Z</time>
      </trkpt>
      <trkpt lat="39.623586" lon="-0.437502">
        <ele>145</ele>
        <time>2018-11-04T09:28:55.000Z</time>
      </trkpt>
      <trkpt lat="39.623525" lon="-0.437541">
        <ele>145</ele>
        <time>2018-11-04T09:28:56.000Z</time>
      </trkpt>
      <trkpt lat="39.623465" lon="-0.437583">
        <ele>144.1100032</ele>
        <time>2018-11-04T09:28:57.000Z</time>
      </trkpt>
      <trkpt lat="39.623405" lon="-0.437623">
        <ele>144</ele>
        <time>2018-11-04T09:28:58.000Z</time>
      </trkpt>
      <trkpt lat="39.623346" lon="-0.437662">
        <ele>144</ele>
        <time>2018-11-04T09:28:59.000Z</time>
      </trkpt>
      <trkpt lat="39.623288" lon="-0.4377">
        <ele>144</ele>
        <time>2018-11-04T09:29:00.000Z</time>
      </trkpt>
      <trkpt lat="39.62323" lon="-0.437736">
        <ele>144</ele>
        <time>2018-11-04T09:29:01.000Z</time>
      </trkpt>
      <trkpt lat="39.623171" lon="-0.437773">
        <ele>144</ele>
        <time>2018-11-04T09:29:02.000Z</time>
      </trkpt>
      <trkpt lat="39.623114" lon="-0.437809">
        <ele>144</ele>
        <time>2018-11-04T09:29:03.000Z</time>
      </trkpt>
      <trkpt lat="39.623055" lon="-0.437847">
        <ele>144</ele>
        <time>2018-11-04T09:29:04.000Z</time>
      </trkpt>
      <trkpt lat="39.622997" lon="-0.437884">
        <ele>144</ele>
        <time>2018-11-04T09:29:05.000Z</time>
      </trkpt>
      <trkpt lat="39.622939" lon="-0.437923">
        <ele>143.440254711437</ele>
        <time>2018-11-04T09:29:06.000Z</time>
      </trkpt>
      <trkpt lat="39.62288" lon="-0.437962">
        <ele>143</ele>
        <time>2018-11-04T09:29:07.000Z</time>
      </trkpt>
      <trkpt lat="39.622821" lon="-0.438">
        <ele>143</ele>
        <time>2018-11-04T09:29:08.000Z</time>
      </trkpt>
      <trkpt lat="39.622761" lon="-0.438035">
        <ele>143</ele>
        <time>2018-11-04T09:29:09.000Z</time>
      </trkpt>
      <trkpt lat="39.622702" lon="-0.438071">
        <ele>143.8899968</ele>
        <time>2018-11-04T09:29:10.000Z</time>
      </trkpt>
      <trkpt lat="39.622646" lon="-0.438108">
        <ele>144</ele>
        <time>2018-11-04T09:29:11.000Z</time>
      </trkpt>
      <trkpt lat="39.62259" lon="-0.438146">
        <ele>144</ele>
        <time>2018-11-04T09:29:12.000Z</time>
      </trkpt>
      <trkpt lat="39.622535" lon="-0.438182">
        <ele>144</ele>
        <time>2018-11-04T09:29:13.000Z</time>
      </trkpt>
      <trkpt lat="39.62248" lon="-0.438216">
        <ele>144</ele>
        <time>2018-11-04T09:29:14.000Z</time>
      </trkpt>
      <trkpt lat="39.622425" lon="-0.43825">
        <ele>144</ele>
        <time>2018-11-04T09:29:15.000Z</time>
      </trkpt>
      <trkpt lat="39.622369" lon="-0.438288">
        <ele>144</ele>
        <time>2018-11-04T09:29:16.000Z</time>
      </trkpt>
      <trkpt lat="39.622312" lon="-0.438325">
        <ele>144</ele>
        <time>2018-11-04T09:29:17.000Z</time>
      </trkpt>
      <trkpt lat="39.622255" lon="-0.438363">
        <ele>144</ele>
        <time>2018-11-04T09:29:18.000Z</time>
      </trkpt>
      <trkpt lat="39.622197" lon="-0.4384">
        <ele>144</ele>
        <time>2018-11-04T09:29:19.000Z</time>
      </trkpt>
      <trkpt lat="39.62214" lon="-0.438438">
        <ele>144</ele>
        <time>2018-11-04T09:29:20.000Z</time>
      </trkpt>
      <trkpt lat="39.622083" lon="-0.438476">
        <ele>144</ele>
        <time>2018-11-04T09:29:21.000Z</time>
      </trkpt>
      <trkpt lat="39.622025" lon="-0.438512">
        <ele>144</ele>
        <time>2018-11-04T09:29:22.000Z</time>
      </trkpt>
      <trkpt lat="39.621968" lon="-0.43855">
        <ele>143.154933386216</ele>
        <time>2018-11-04T09:29:23.000Z</time>
      </trkpt>
      <trkpt lat="39.62191" lon="-0.438589">
        <ele>143</ele>
        <time>2018-11-04T09:29:24.000Z</time>
      </trkpt>
      <trkpt lat="39.621853" lon="-0.438626">
        <ele>143</ele>
        <time>2018-11-04T09:29:25.000Z</time>
      </trkpt>
      <trkpt lat="39.621795" lon="-0.438662">
        <ele>143</ele>
        <time>2018-11-04T09:29:26.000Z</time>
      </trkpt>
      <trkpt lat="39.621738" lon="-0.438696">
        <ele>143</ele>
        <time>2018-11-04T09:29:27.000Z</time>
      </trkpt>
      <trkpt lat="39.62168" lon="-0.438734">
        <ele>143</ele>
        <time>2018-11-04T09:29:28.000Z</time>
      </trkpt>
      <trkpt lat="39.621622" lon="-0.43877">
        <ele>143</ele>
        <time>2018-11-04T09:29:29.000Z</time>
      </trkpt>
      <trkpt lat="39.621564" lon="-0.438806">
        <ele>143</ele>
        <time>2018-11-04T09:29:30.000Z</time>
      </trkpt>
      <trkpt lat="39.621506" lon="-0.438844">
        <ele>143</ele>
        <time>2018-11-04T09:29:31.000Z</time>
      </trkpt>
      <trkpt lat="39.621448" lon="-0.438884">
        <ele>143</ele>
        <time>2018-11-04T09:29:32.000Z</time>
      </trkpt>
      <trkpt lat="39.621389" lon="-0.438922">
        <ele>143</ele>
        <time>2018-11-04T09:29:33.000Z</time>
      </trkpt>
      <trkpt lat="39.621331" lon="-0.43896">
        <ele>142.1100032</ele>
        <time>2018-11-04T09:29:34.000Z</time>
      </trkpt>
      <trkpt lat="39.621272" lon="-0.438998">
        <ele>142</ele>
        <time>2018-11-04T09:29:35.000Z</time>
      </trkpt>
      <trkpt lat="39.621213" lon="-0.439036">
        <ele>142</ele>
        <time>2018-11-04T09:29:36.000Z</time>
      </trkpt>
      <trkpt lat="39.621155" lon="-0.439077">
        <ele>142</ele>
        <time>2018-11-04T09:29:37.000Z</time>
      </trkpt>
      <trkpt lat="39.621098" lon="-0.439118">
        <ele>142</ele>
        <time>2018-11-04T09:29:38.000Z</time>
      </trkpt>
      <trkpt lat="39.62104" lon="-0.439158">
        <ele>142</ele>
        <time>2018-11-04T09:29:39.000Z</time>
      </trkpt>
      <trkpt lat="39.620981" lon="-0.439194">
        <ele>142</ele>
        <time>2018-11-04T09:29:40.000Z</time>
      </trkpt>
      <trkpt lat="39.620921" lon="-0.439229">
        <ele>142.8899968</ele>
        <time>2018-11-04T09:29:41.000Z</time>
      </trkpt>
      <trkpt lat="39.620862" lon="-0.439266">
        <ele>143</ele>
        <time>2018-11-04T09:29:42.000Z</time>
      </trkpt>
      <trkpt lat="39.620803" lon="-0.439304">
        <ele>143</ele>
        <time>2018-11-04T09:29:43.000Z</time>
      </trkpt>
      <trkpt lat="39.620745" lon="-0.439342">
        <ele>143</ele>
        <time>2018-11-04T09:29:44.000Z</time>
      </trkpt>
      <trkpt lat="39.620686" lon="-0.43938">
        <ele>143</ele>
        <time>2018-11-04T09:29:45.000Z</time>
      </trkpt>
      <trkpt lat="39.620627" lon="-0.439417">
        <ele>143</ele>
        <time>2018-11-04T09:29:46.000Z</time>
      </trkpt>
      <trkpt lat="39.620567" lon="-0.439454">
        <ele>142.1100032</ele>
        <time>2018-11-04T09:29:47.000Z</time>
      </trkpt>
      <trkpt lat="39.620509" lon="-0.439494">
        <ele>142</ele>
        <time>2018-11-04T09:29:48.000Z</time>
      </trkpt>
      <trkpt lat="39.62045" lon="-0.439533">
        <ele>142</ele>
        <time>2018-11-04T09:29:49.000Z</time>
      </trkpt>
      <trkpt lat="39.62039" lon="-0.439572">
        <ele>142</ele>
        <time>2018-11-04T09:29:50.000Z</time>
      </trkpt>
      <trkpt lat="39.62033" lon="-0.43961">
        <ele>142</ele>
        <time>2018-11-04T09:29:51.000Z</time>
      </trkpt>
      <trkpt lat="39.62027" lon="-0.439646">
        <ele>142</ele>
        <time>2018-11-04T09:29:52.000Z</time>
      </trkpt>
      <trkpt lat="39.620211" lon="-0.439684">
        <ele>142</ele>
        <time>2018-11-04T09:29:53.000Z</time>
      </trkpt>
      <trkpt lat="39.620152" lon="-0.439726">
        <ele>142</ele>
        <time>2018-11-04T09:29:54.000Z</time>
      </trkpt>
      <trkpt lat="39.620093" lon="-0.439766">
        <ele>142</ele>
        <time>2018-11-04T09:29:55.000Z</time>
      </trkpt>
      <trkpt lat="39.620033" lon="-0.439804">
        <ele>142</ele>
        <time>2018-11-04T09:29:56.000Z</time>
      </trkpt>
      <trkpt lat="39.619971" lon="-0.439842">
        <ele>142</ele>
        <time>2018-11-04T09:29:57.000Z</time>
      </trkpt>
      <trkpt lat="39.619909" lon="-0.43988">
        <ele>142</ele>
        <time>2018-11-04T09:29:58.000Z</time>
      </trkpt>
      <trkpt lat="39.619847" lon="-0.439918">
        <ele>142</ele>
        <time>2018-11-04T09:29:59.000Z</time>
      </trkpt>
      <trkpt lat="39.619786" lon="-0.439957">
        <ele>142</ele>
        <time>2018-11-04T09:30:00.000Z</time>
      </trkpt>
      <trkpt lat="39.619724" lon="-0.439995">
        <ele>142</ele>
        <time>2018-11-04T09:30:01.000Z</time>
      </trkpt>
      <trkpt lat="39.619662" lon="-0.440035">
        <ele>142</ele>
        <time>2018-11-04T09:30:02.000Z</time>
      </trkpt>
      <trkpt lat="39.6196" lon="-0.440075">
        <ele>142</ele>
        <time>2018-11-04T09:30:03.000Z</time>
      </trkpt>
      <trkpt lat="39.619538" lon="-0.440115">
        <ele>142.849312666573</ele>
        <time>2018-11-04T09:30:04.000Z</time>
      </trkpt>
      <trkpt lat="39.619476" lon="-0.440154">
        <ele>143</ele>
        <time>2018-11-04T09:30:05.000Z</time>
      </trkpt>
      <trkpt lat="39.619412" lon="-0.440193">
        <ele>143</ele>
        <time>2018-11-04T09:30:06.000Z</time>
      </trkpt>
      <trkpt lat="39.619348" lon="-0.440232">
        <ele>143</ele>
        <time>2018-11-04T09:30:07.000Z</time>
      </trkpt>
      <trkpt lat="39.619284" lon="-0.440274">
        <ele>143</ele>
        <time>2018-11-04T09:30:08.000Z</time>
      </trkpt>
      <trkpt lat="39.619221" lon="-0.440317">
        <ele>143</ele>
        <time>2018-11-04T09:30:09.000Z</time>
      </trkpt>
      <trkpt lat="39.619159" lon="-0.440359">
        <ele>143</ele>
        <time>2018-11-04T09:30:10.000Z</time>
      </trkpt>
      <trkpt lat="39.619096" lon="-0.4404">
        <ele>143</ele>
        <time>2018-11-04T09:30:11.000Z</time>
      </trkpt>
      <trkpt lat="39.619034" lon="-0.440441">
        <ele>143</ele>
        <time>2018-11-04T09:30:12.000Z</time>
      </trkpt>
      <trkpt lat="39.618972" lon="-0.440482">
        <ele>143</ele>
        <time>2018-11-04T09:30:13.000Z</time>
      </trkpt>
      <trkpt lat="39.61891" lon="-0.440522">
        <ele>143</ele>
        <time>2018-11-04T09:30:14.000Z</time>
      </trkpt>
      <trkpt lat="39.618849" lon="-0.440564">
        <ele>143</ele>
        <time>2018-11-04T09:30:15.000Z</time>
      </trkpt>
      <trkpt lat="39.618788" lon="-0.440605">
        <ele>143</ele>
        <time>2018-11-04T09:30:16.000Z</time>
      </trkpt>
      <trkpt lat="39.618728" lon="-0.440645">
        <ele>142.1100032</ele>
        <time>2018-11-04T09:30:17.000Z</time>
      </trkpt>
      <trkpt lat="39.618668" lon="-0.440685">
        <ele>142</ele>
        <time>2018-11-04T09:30:18.000Z</time>
      </trkpt>
      <trkpt lat="39.618608" lon="-0.440726">
        <ele>142</ele>
        <time>2018-11-04T09:30:19.000Z</time>
      </trkpt>
      <trkpt lat="39.61855" lon="-0.440768">
        <ele>142</ele>
        <time>2018-11-04T09:30:20.000Z</time>
      </trkpt>
      <trkpt lat="39.61849" lon="-0.440807">
        <ele>142</ele>
        <time>2018-11-04T09:30:21.000Z</time>
      </trkpt>
      <trkpt lat="39.61843" lon="-0.440843">
        <ele>142</ele>
        <time>2018-11-04T09:30:22.000Z</time>
      </trkpt>
      <trkpt lat="39.618372" lon="-0.440882">
        <ele>142</ele>
        <time>2018-11-04T09:30:23.000Z</time>
      </trkpt>
      <trkpt lat="39.618313" lon="-0.440919">
        <ele>142</ele>
        <time>2018-11-04T09:30:24.000Z</time>
      </trkpt>
      <trkpt lat="39.618254" lon="-0.440957">
        <ele>142</ele>
        <time>2018-11-04T09:30:25.000Z</time>
      </trkpt>
      <trkpt lat="39.618196" lon="-0.440996">
        <ele>142</ele>
        <time>2018-11-04T09:30:26.000Z</time>
      </trkpt>
      <trkpt lat="39.618134" lon="-0.441034">
        <ele>142</ele>
        <time>2018-11-04T09:30:27.000Z</time>
      </trkpt>
      <trkpt lat="39.618074" lon="-0.44107">
        <ele>142</ele>
        <time>2018-11-04T09:30:28.000Z</time>
      </trkpt>
      <trkpt lat="39.618014" lon="-0.441107">
        <ele>142</ele>
        <time>2018-11-04T09:30:29.000Z</time>
      </trkpt>
      <trkpt lat="39.617954" lon="-0.441147">
        <ele>142</ele>
        <time>2018-11-04T09:30:30.000Z</time>
      </trkpt>
      <trkpt lat="39.617894" lon="-0.441187">
        <ele>141.1100032</ele>
        <time>2018-11-04T09:30:31.000Z</time>
      </trkpt>
      <trkpt lat="39.617832" lon="-0.441224">
        <ele>141</ele>
        <time>2018-11-04T09:30:32.000Z</time>
      </trkpt>
      <trkpt lat="39.617772" lon="-0.44126">
        <ele>141</ele>
        <time>2018-11-04T09:30:33.000Z</time>
      </trkpt>
      <trkpt lat="39.617712" lon="-0.441298">
        <ele>141</ele>
        <time>2018-11-04T09:30:34.000Z</time>
      </trkpt>
      <trkpt lat="39.617653" lon="-0.44134">
        <ele>141</ele>
        <time>2018-11-04T09:30:35.000Z</time>
      </trkpt>
      <trkpt lat="39.617594" lon="-0.441379">
        <ele>141</ele>
        <time>2018-11-04T09:30:36.000Z</time>
      </trkpt>
      <trkpt lat="39.617535" lon="-0.441414">
        <ele>141</ele>
        <time>2018-11-04T09:30:37.000Z</time>
      </trkpt>
      <trkpt lat="39.617478" lon="-0.441451">
        <ele>141</ele>
        <time>2018-11-04T09:30:38.000Z</time>
      </trkpt>
      <trkpt lat="39.617422" lon="-0.441489">
        <ele>141</ele>
        <time>2018-11-04T09:30:39.000Z</time>
      </trkpt>
      <trkpt lat="39.617363" lon="-0.441526">
        <ele>141</ele>
        <time>2018-11-04T09:30:40.000Z</time>
      </trkpt>
      <trkpt lat="39.617306" lon="-0.441563">
        <ele>141</ele>
        <time>2018-11-04T09:30:41.000Z</time>
      </trkpt>
      <trkpt lat="39.617251" lon="-0.4416">
        <ele>141</ele>
        <time>2018-11-04T09:30:42.000Z</time>
      </trkpt>
      <trkpt lat="39.617194" lon="-0.441636">
        <ele>141</ele>
        <time>2018-11-04T09:30:43.000Z</time>
      </trkpt>
      <trkpt lat="39.617138" lon="-0.441671">
        <ele>141</ele>
        <time>2018-11-04T09:30:44.000Z</time>
      </trkpt>
      <trkpt lat="39.617081" lon="-0.441707">
        <ele>140.157145991808</ele>
        <time>2018-11-04T09:30:45.000Z</time>
      </trkpt>
      <trkpt lat="39.617023" lon="-0.441744">
        <ele>140</ele>
        <time>2018-11-04T09:30:46.000Z</time>
      </trkpt>
      <trkpt lat="39.616967" lon="-0.441779">
        <ele>140</ele>
        <time>2018-11-04T09:30:47.000Z</time>
      </trkpt>
      <trkpt lat="39.616912" lon="-0.441813">
        <ele>140</ele>
        <time>2018-11-04T09:30:48.000Z</time>
      </trkpt>
      <trkpt lat="39.616856" lon="-0.44185">
        <ele>140</ele>
        <time>2018-11-04T09:30:49.000Z</time>
      </trkpt>
      <trkpt lat="39.6168" lon="-0.441886">
        <ele>140.8899968</ele>
        <time>2018-11-04T09:30:50.000Z</time>
      </trkpt>
      <trkpt lat="39.616744" lon="-0.44192">
        <ele>141</ele>
        <time>2018-11-04T09:30:51.000Z</time>
      </trkpt>
      <trkpt lat="39.616688" lon="-0.441955">
        <ele>141</ele>
        <time>2018-11-04T09:30:52.000Z</time>
      </trkpt>
      <trkpt lat="39.616632" lon="-0.441991">
        <ele>141</ele>
        <time>2018-11-04T09:30:53.000Z</time>
      </trkpt>
      <trkpt lat="39.616576" lon="-0.442027">
        <ele>141</ele>
        <time>2018-11-04T09:30:54.000Z</time>
      </trkpt>
      <trkpt lat="39.616519" lon="-0.442066">
        <ele>141.8899968</ele>
        <time>2018-11-04T09:30:55.000Z</time>
      </trkpt>
      <trkpt lat="39.616462" lon="-0.442105">
        <ele>142</ele>
        <time>2018-11-04T09:30:56.000Z</time>
      </trkpt>
      <trkpt lat="39.616405" lon="-0.442145">
        <ele>142</ele>
        <time>2018-11-04T09:30:57.000Z</time>
      </trkpt>
      <trkpt lat="39.61635" lon="-0.442186">
        <ele>142</ele>
        <time>2018-11-04T09:30:58.000Z</time>
      </trkpt>
      <trkpt lat="39.616294" lon="-0.442228">
        <ele>142</ele>
        <time>2018-11-04T09:30:59.000Z</time>
      </trkpt>
      <trkpt lat="39.61624" lon="-0.442272">
        <ele>142</ele>
        <time>2018-11-04T09:31:00.000Z</time>
      </trkpt>
      <trkpt lat="39.616186" lon="-0.442316">
        <ele>142</ele>
        <time>2018-11-04T09:31:01.000Z</time>
      </trkpt>
      <trkpt lat="39.616131" lon="-0.442362">
        <ele>142</ele>
        <time>2018-11-04T09:31:02.000Z</time>
      </trkpt>
      <trkpt lat="39.616077" lon="-0.442409">
        <ele>142</ele>
        <time>2018-11-04T09:31:03.000Z</time>
      </trkpt>
      <trkpt lat="39.616025" lon="-0.442457">
        <ele>142</ele>
        <time>2018-11-04T09:31:04.000Z</time>
      </trkpt>
      <trkpt lat="39.615975" lon="-0.442508">
        <ele>142</ele>
        <time>2018-11-04T09:31:05.000Z</time>
      </trkpt>
      <trkpt lat="39.615925" lon="-0.44256">
        <ele>142</ele>
        <time>2018-11-04T09:31:06.000Z</time>
      </trkpt>
      <trkpt lat="39.615877" lon="-0.442616">
        <ele>141.1100032</ele>
        <time>2018-11-04T09:31:07.000Z</time>
      </trkpt>
      <trkpt lat="39.615829" lon="-0.442673">
        <ele>141</ele>
        <time>2018-11-04T09:31:08.000Z</time>
      </trkpt>
      <trkpt lat="39.615783" lon="-0.442731">
        <ele>141</ele>
        <time>2018-11-04T09:31:09.000Z</time>
      </trkpt>
      <trkpt lat="39.615739" lon="-0.442792">
        <ele>141</ele>
        <time>2018-11-04T09:31:10.000Z</time>
      </trkpt>
      <trkpt lat="39.615698" lon="-0.442858">
        <ele>141</ele>
        <time>2018-11-04T09:31:11.000Z</time>
      </trkpt>
      <trkpt lat="39.615658" lon="-0.442922">
        <ele>141</ele>
        <time>2018-11-04T09:31:12.000Z</time>
      </trkpt>
      <trkpt lat="39.615618" lon="-0.442988">
        <ele>141</ele>
        <time>2018-11-04T09:31:13.000Z</time>
      </trkpt>
      <trkpt lat="39.61558" lon="-0.443054">
        <ele>141</ele>
        <time>2018-11-04T09:31:14.000Z</time>
      </trkpt>
      <trkpt lat="39.615543" lon="-0.443121">
        <ele>141</ele>
        <time>2018-11-04T09:31:15.000Z</time>
      </trkpt>
      <trkpt lat="39.615506" lon="-0.443187">
        <ele>140.152782222222</ele>
        <time>2018-11-04T09:31:16.000Z</time>
      </trkpt>
      <trkpt lat="39.61547" lon="-0.443253">
        <ele>140</ele>
        <time>2018-11-04T09:31:17.000Z</time>
      </trkpt>
      <trkpt lat="39.615434" lon="-0.443319">
        <ele>140</ele>
        <time>2018-11-04T09:31:18.000Z</time>
      </trkpt>
      <trkpt lat="39.615399" lon="-0.44339">
        <ele>140</ele>
        <time>2018-11-04T09:31:19.000Z</time>
      </trkpt>
      <trkpt lat="39.615364" lon="-0.443459">
        <ele>140</ele>
        <time>2018-11-04T09:31:20.000Z</time>
      </trkpt>
      <trkpt lat="39.615328" lon="-0.443523">
        <ele>140</ele>
        <time>2018-11-04T09:31:21.000Z</time>
      </trkpt>
      <trkpt lat="39.615292" lon="-0.443589">
        <ele>140</ele>
        <time>2018-11-04T09:31:22.000Z</time>
      </trkpt>
      <trkpt lat="39.615257" lon="-0.443655">
        <ele>139.299209820799</ele>
        <time>2018-11-04T09:31:23.000Z</time>
      </trkpt>
      <trkpt lat="39.615222" lon="-0.443722">
        <ele>139</ele>
        <time>2018-11-04T09:31:24.000Z</time>
      </trkpt>
      <trkpt lat="39.615186" lon="-0.44379">
        <ele>139</ele>
        <time>2018-11-04T09:31:25.000Z</time>
      </trkpt>
      <trkpt lat="39.615149" lon="-0.443859">
        <ele>139</ele>
        <time>2018-11-04T09:31:26.000Z</time>
      </trkpt>
      <trkpt lat="39.61511" lon="-0.443929">
        <ele>139</ele>
        <time>2018-11-04T09:31:27.000Z</time>
      </trkpt>
      <trkpt lat="39.61507" lon="-0.444001">
        <ele>139</ele>
        <time>2018-11-04T09:31:28.000Z</time>
      </trkpt>
      <trkpt lat="39.615029" lon="-0.444073">
        <ele>139</ele>
        <time>2018-11-04T09:31:29.000Z</time>
      </trkpt>
      <trkpt lat="39.614989" lon="-0.44415">
        <ele>138.1100032</ele>
        <time>2018-11-04T09:31:30.000Z</time>
      </trkpt>
      <trkpt lat="39.614948" lon="-0.444227">
        <ele>138</ele>
        <time>2018-11-04T09:31:31.000Z</time>
      </trkpt>
      <trkpt lat="39.614906" lon="-0.444303">
        <ele>137.154933386216</ele>
        <time>2018-11-04T09:31:32.000Z</time>
      </trkpt>
      <trkpt lat="39.614864" lon="-0.444383">
        <ele>137</ele>
        <time>2018-11-04T09:31:33.000Z</time>
      </trkpt>
      <trkpt lat="39.614821" lon="-0.444466">
        <ele>136.1100032</ele>
        <time>2018-11-04T09:31:34.000Z</time>
      </trkpt>
      <trkpt lat="39.614776" lon="-0.444552">
        <ele>136</ele>
        <time>2018-11-04T09:31:35.000Z</time>
      </trkpt>
      <trkpt lat="39.61473" lon="-0.444638">
        <ele>136</ele>
        <time>2018-11-04T09:31:36.000Z</time>
      </trkpt>
      <trkpt lat="39.614684" lon="-0.444727">
        <ele>135.310078288566</ele>
        <time>2018-11-04T09:31:37.000Z</time>
      </trkpt>
      <trkpt lat="39.614639" lon="-0.444819">
        <ele>135</ele>
        <time>2018-11-04T09:31:38.000Z</time>
      </trkpt>
      <trkpt lat="39.614593" lon="-0.444914">
        <ele>135</ele>
        <time>2018-11-04T09:31:39.000Z</time>
      </trkpt>
      <trkpt lat="39.614545" lon="-0.445008">
        <ele>134.1100032</ele>
        <time>2018-11-04T09:31:40.000Z</time>
      </trkpt>
      <trkpt lat="39.614494" lon="-0.445101">
        <ele>134</ele>
        <time>2018-11-04T09:31:41.000Z</time>
      </trkpt>
      <trkpt lat="39.614443" lon="-0.445195">
        <ele>133.1100032</ele>
        <time>2018-11-04T09:31:42.000Z</time>
      </trkpt>
      <trkpt lat="39.614392" lon="-0.44529">
        <ele>133</ele>
        <time>2018-11-04T09:31:43.000Z</time>
      </trkpt>
      <trkpt lat="39.614341" lon="-0.445386">
        <ele>133</ele>
        <time>2018-11-04T09:31:44.000Z</time>
      </trkpt>
      <trkpt lat="39.61429" lon="-0.445481">
        <ele>132.1100032</ele>
        <time>2018-11-04T09:31:45.000Z</time>
      </trkpt>
      <trkpt lat="39.614237" lon="-0.445572">
        <ele>132</ele>
        <time>2018-11-04T09:31:46.000Z</time>
      </trkpt>
      <trkpt lat="39.614185" lon="-0.445662">
        <ele>132</ele>
        <time>2018-11-04T09:31:47.000Z</time>
      </trkpt>
      <trkpt lat="39.614133" lon="-0.445752">
        <ele>132</ele>
        <time>2018-11-04T09:31:48.000Z</time>
      </trkpt>
      <trkpt lat="39.614087" lon="-0.445843">
        <ele>132</ele>
        <time>2018-11-04T09:31:49.000Z</time>
      </trkpt>
      <trkpt lat="39.614039" lon="-0.445935">
        <ele>132</ele>
        <time>2018-11-04T09:31:50.000Z</time>
      </trkpt>
      <trkpt lat="39.613987" lon="-0.44603">
        <ele>132</ele>
        <time>2018-11-04T09:31:51.000Z</time>
      </trkpt>
      <trkpt lat="39.613936" lon="-0.446122">
        <ele>132</ele>
        <time>2018-11-04T09:31:52.000Z</time>
      </trkpt>
      <trkpt lat="39.613882" lon="-0.446215">
        <ele>132</ele>
        <time>2018-11-04T09:31:53.000Z</time>
      </trkpt>
      <trkpt lat="39.613828" lon="-0.446308">
        <ele>131.30469</ele>
        <time>2018-11-04T09:31:54.000Z</time>
      </trkpt>
      <trkpt lat="39.613776" lon="-0.446401">
        <ele>131</ele>
        <time>2018-11-04T09:31:55.000Z</time>
      </trkpt>
      <trkpt lat="39.613725" lon="-0.446491">
        <ele>131</ele>
        <time>2018-11-04T09:31:56.000Z</time>
      </trkpt>
      <trkpt lat="39.613672" lon="-0.446582">
        <ele>131</ele>
        <time>2018-11-04T09:31:57.000Z</time>
      </trkpt>
      <trkpt lat="39.613622" lon="-0.446673">
        <ele>131</ele>
        <time>2018-11-04T09:31:58.000Z</time>
      </trkpt>
      <trkpt lat="39.613573" lon="-0.446762">
        <ele>130.1100032</ele>
        <time>2018-11-04T09:31:59.000Z</time>
      </trkpt>
      <trkpt lat="39.613527" lon="-0.44685">
        <ele>130</ele>
        <time>2018-11-04T09:32:00.000Z</time>
      </trkpt>
      <trkpt lat="39.613482" lon="-0.446938">
        <ele>129.159422709481</ele>
        <time>2018-11-04T09:32:01.000Z</time>
      </trkpt>
      <trkpt lat="39.613436" lon="-0.447027">
        <ele>129</ele>
        <time>2018-11-04T09:32:02.000Z</time>
      </trkpt>
      <trkpt lat="39.613388" lon="-0.447119">
        <ele>128.112247430221</ele>
        <time>2018-11-04T09:32:03.000Z</time>
      </trkpt>
      <trkpt lat="39.61334" lon="-0.447211">
        <ele>128</ele>
        <time>2018-11-04T09:32:04.000Z</time>
      </trkpt>
      <trkpt lat="39.613291" lon="-0.447304">
        <ele>128</ele>
        <time>2018-11-04T09:32:05.000Z</time>
      </trkpt>
      <trkpt lat="39.613243" lon="-0.447399">
        <ele>127.310078288566</ele>
        <time>2018-11-04T09:32:06.000Z</time>
      </trkpt>
      <trkpt lat="39.613198" lon="-0.447493">
        <ele>126.154933386216</ele>
        <time>2018-11-04T09:32:07.000Z</time>
      </trkpt>
      <trkpt lat="39.613152" lon="-0.447584">
        <ele>125.1100032</ele>
        <time>2018-11-04T09:32:08.000Z</time>
      </trkpt>
      <trkpt lat="39.613105" lon="-0.447674">
        <ele>124.1100032</ele>
        <time>2018-11-04T09:32:09.000Z</time>
      </trkpt>
      <trkpt lat="39.613058" lon="-0.447764">
        <ele>124</ele>
        <time>2018-11-04T09:32:10.000Z</time>
      </trkpt>
      <trkpt lat="39.613009" lon="-0.447857">
        <ele>123.1100032</ele>
        <time>2018-11-04T09:32:11.000Z</time>
      </trkpt>
      <trkpt lat="39.612959" lon="-0.447948">
        <ele>123</ele>
        <time>2018-11-04T09:32:12.000Z</time>
      </trkpt>
      <trkpt lat="39.612908" lon="-0.448039">
        <ele>122.154933386216</ele>
        <time>2018-11-04T09:32:13.000Z</time>
      </trkpt>
      <trkpt lat="39.612858" lon="-0.448131">
        <ele>122</ele>
        <time>2018-11-04T09:32:14.000Z</time>
      </trkpt>
      <trkpt lat="39.612811" lon="-0.448224">
        <ele>121.1100032</ele>
        <time>2018-11-04T09:32:15.000Z</time>
      </trkpt>
      <trkpt lat="39.612764" lon="-0.448317">
        <ele>121</ele>
        <time>2018-11-04T09:32:16.000Z</time>
      </trkpt>
      <trkpt lat="39.612716" lon="-0.448406">
        <ele>121</ele>
        <time>2018-11-04T09:32:17.000Z</time>
      </trkpt>
      <trkpt lat="39.612668" lon="-0.448498">
        <ele>121</ele>
        <time>2018-11-04T09:32:18.000Z</time>
      </trkpt>
      <trkpt lat="39.61262" lon="-0.448588">
        <ele>121</ele>
        <time>2018-11-04T09:32:19.000Z</time>
      </trkpt>
      <trkpt lat="39.612569" lon="-0.448676">
        <ele>121</ele>
        <time>2018-11-04T09:32:20.000Z</time>
      </trkpt>
      <trkpt lat="39.612514" lon="-0.448758">
        <ele>121</ele>
        <time>2018-11-04T09:32:21.000Z</time>
      </trkpt>
      <trkpt lat="39.612457" lon="-0.448836">
        <ele>121</ele>
        <time>2018-11-04T09:32:22.000Z</time>
      </trkpt>
      <trkpt lat="39.612396" lon="-0.448911">
        <ele>121</ele>
        <time>2018-11-04T09:32:23.000Z</time>
      </trkpt>
      <trkpt lat="39.612333" lon="-0.44898">
        <ele>120.315383706504</ele>
        <time>2018-11-04T09:32:24.000Z</time>
      </trkpt>
      <trkpt lat="39.612265" lon="-0.449041">
        <ele>120</ele>
        <time>2018-11-04T09:32:25.000Z</time>
      </trkpt>
      <trkpt lat="39.612194" lon="-0.449096">
        <ele>120</ele>
        <time>2018-11-04T09:32:26.000Z</time>
      </trkpt>
      <trkpt lat="39.61212" lon="-0.449147">
        <ele>120</ele>
        <time>2018-11-04T09:32:27.000Z</time>
      </trkpt>
      <trkpt lat="39.612044" lon="-0.449195">
        <ele>119.1100032</ele>
        <time>2018-11-04T09:32:28.000Z</time>
      </trkpt>
      <trkpt lat="39.611968" lon="-0.449244">
        <ele>119</ele>
        <time>2018-11-04T09:32:29.000Z</time>
      </trkpt>
      <trkpt lat="39.611892" lon="-0.449292">
        <ele>119</ele>
        <time>2018-11-04T09:32:30.000Z</time>
      </trkpt>
      <trkpt lat="39.611816" lon="-0.44934">
        <ele>119</ele>
        <time>2018-11-04T09:32:31.000Z</time>
      </trkpt>
      <trkpt lat="39.61174" lon="-0.449388">
        <ele>119</ele>
        <time>2018-11-04T09:32:32.000Z</time>
      </trkpt>
      <trkpt lat="39.611664" lon="-0.449437">
        <ele>118.1100032</ele>
        <time>2018-11-04T09:32:33.000Z</time>
      </trkpt>
      <trkpt lat="39.611588" lon="-0.449486">
        <ele>118</ele>
        <time>2018-11-04T09:32:34.000Z</time>
      </trkpt>
      <trkpt lat="39.611513" lon="-0.449534">
        <ele>118</ele>
        <time>2018-11-04T09:32:35.000Z</time>
      </trkpt>
      <trkpt lat="39.611439" lon="-0.449581">
        <ele>118</ele>
        <time>2018-11-04T09:32:36.000Z</time>
      </trkpt>
      <trkpt lat="39.611365" lon="-0.449628">
        <ele>118</ele>
        <time>2018-11-04T09:32:37.000Z</time>
      </trkpt>
      <trkpt lat="39.611289" lon="-0.449675">
        <ele>118</ele>
        <time>2018-11-04T09:32:38.000Z</time>
      </trkpt>
      <trkpt lat="39.611213" lon="-0.449722">
        <ele>118</ele>
        <time>2018-11-04T09:32:39.000Z</time>
      </trkpt>
      <trkpt lat="39.611137" lon="-0.449768">
        <ele>118</ele>
        <time>2018-11-04T09:32:40.000Z</time>
      </trkpt>
      <trkpt lat="39.61106" lon="-0.449813">
        <ele>118</ele>
        <time>2018-11-04T09:32:41.000Z</time>
      </trkpt>
      <trkpt lat="39.610985" lon="-0.449859">
        <ele>118</ele>
        <time>2018-11-04T09:32:42.000Z</time>
      </trkpt>
      <trkpt lat="39.610909" lon="-0.449904">
        <ele>118.840577290519</ele>
        <time>2018-11-04T09:32:43.000Z</time>
      </trkpt>
      <trkpt lat="39.610834" lon="-0.449948">
        <ele>119</ele>
        <time>2018-11-04T09:32:44.000Z</time>
      </trkpt>
      <trkpt lat="39.610761" lon="-0.449994">
        <ele>119</ele>
        <time>2018-11-04T09:32:45.000Z</time>
      </trkpt>
      <trkpt lat="39.610688" lon="-0.450038">
        <ele>119</ele>
        <time>2018-11-04T09:32:46.000Z</time>
      </trkpt>
      <trkpt lat="39.610616" lon="-0.45008">
        <ele>119</ele>
        <time>2018-11-04T09:32:47.000Z</time>
      </trkpt>
      <trkpt lat="39.610545" lon="-0.450121">
        <ele>119.689921711434</ele>
        <time>2018-11-04T09:32:48.000Z</time>
      </trkpt>
      <trkpt lat="39.610476" lon="-0.450162">
        <ele>120</ele>
        <time>2018-11-04T09:32:49.000Z</time>
      </trkpt>
      <trkpt lat="39.610409" lon="-0.450202">
        <ele>120.8899968</ele>
        <time>2018-11-04T09:32:50.000Z</time>
      </trkpt>
      <trkpt lat="39.610342" lon="-0.450243">
        <ele>121</ele>
        <time>2018-11-04T09:32:51.000Z</time>
      </trkpt>
      <trkpt lat="39.610279" lon="-0.450284">
        <ele>121</ele>
        <time>2018-11-04T09:32:52.000Z</time>
      </trkpt>
      <trkpt lat="39.610216" lon="-0.450323">
        <ele>121</ele>
        <time>2018-11-04T09:32:53.000Z</time>
      </trkpt>
      <trkpt lat="39.610154" lon="-0.45036">
        <ele>121</ele>
        <time>2018-11-04T09:32:54.000Z</time>
      </trkpt>
      <trkpt lat="39.610093" lon="-0.450397">
        <ele>121</ele>
        <time>2018-11-04T09:32:55.000Z</time>
      </trkpt>
      <trkpt lat="39.610033" lon="-0.450434">
        <ele>121</ele>
        <time>2018-11-04T09:32:56.000Z</time>
      </trkpt>
      <trkpt lat="39.609975" lon="-0.450471">
        <ele>121</ele>
        <time>2018-11-04T09:32:57.000Z</time>
      </trkpt>
      <trkpt lat="39.609918" lon="-0.450509">
        <ele>121</ele>
        <time>2018-11-04T09:32:58.000Z</time>
      </trkpt>
      <trkpt lat="39.609861" lon="-0.450547">
        <ele>121.8899968</ele>
        <time>2018-11-04T09:32:59.000Z</time>
      </trkpt>
      <trkpt lat="39.609805" lon="-0.450584">
        <ele>122</ele>
        <time>2018-11-04T09:33:00.000Z</time>
      </trkpt>
      <trkpt lat="39.609748" lon="-0.450619">
        <ele>122</ele>
        <time>2018-11-04T09:33:01.000Z</time>
      </trkpt>
      <trkpt lat="39.609692" lon="-0.450653">
        <ele>121.1100032</ele>
        <time>2018-11-04T09:33:02.000Z</time>
      </trkpt>
      <trkpt lat="39.609639" lon="-0.450689">
        <ele>121</ele>
        <time>2018-11-04T09:33:03.000Z</time>
      </trkpt>
      <trkpt lat="39.609587" lon="-0.45073">
        <ele>121</ele>
        <time>2018-11-04T09:33:04.000Z</time>
      </trkpt>
      <trkpt lat="39.609535" lon="-0.450773">
        <ele>121</ele>
        <time>2018-11-04T09:33:05.000Z</time>
      </trkpt>
      <trkpt lat="39.609481" lon="-0.450809">
        <ele>120.183486777209</ele>
        <time>2018-11-04T09:33:06.000Z</time>
      </trkpt>
      <trkpt lat="39.609426" lon="-0.450842">
        <ele>120</ele>
        <time>2018-11-04T09:33:07.000Z</time>
      </trkpt>
      <trkpt lat="39.609372" lon="-0.450876">
        <ele>120</ele>
        <time>2018-11-04T09:33:08.000Z</time>
      </trkpt>
      <trkpt lat="39.609309" lon="-0.45091">
        <ele>119.1100032</ele>
        <time>2018-11-04T09:33:09.000Z</time>
      </trkpt>
      <trkpt lat="39.609252" lon="-0.450945">
        <ele>119</ele>
        <time>2018-11-04T09:33:10.000Z</time>
      </trkpt>
      <trkpt lat="39.609193" lon="-0.450979">
        <ele>119</ele>
        <time>2018-11-04T09:33:11.000Z</time>
      </trkpt>
      <trkpt lat="39.609135" lon="-0.451012">
        <ele>119</ele>
        <time>2018-11-04T09:33:12.000Z</time>
      </trkpt>
      <trkpt lat="39.609076" lon="-0.451046">
        <ele>119</ele>
        <time>2018-11-04T09:33:13.000Z</time>
      </trkpt>
      <trkpt lat="39.609019" lon="-0.451081">
        <ele>119</ele>
        <time>2018-11-04T09:33:14.000Z</time>
      </trkpt>
      <trkpt lat="39.608962" lon="-0.451117">
        <ele>119</ele>
        <time>2018-11-04T09:33:15.000Z</time>
      </trkpt>
      <trkpt lat="39.608907" lon="-0.451156">
        <ele>119.8899968</ele>
        <time>2018-11-04T09:33:16.000Z</time>
      </trkpt>
      <trkpt lat="39.608852" lon="-0.451194">
        <ele>120</ele>
        <time>2018-11-04T09:33:17.000Z</time>
      </trkpt>
      <trkpt lat="39.608796" lon="-0.45123">
        <ele>120</ele>
        <time>2018-11-04T09:33:18.000Z</time>
      </trkpt>
      <trkpt lat="39.608737" lon="-0.451263">
        <ele>120</ele>
        <time>2018-11-04T09:33:19.000Z</time>
      </trkpt>
      <trkpt lat="39.60868" lon="-0.451297">
        <ele>120</ele>
        <time>2018-11-04T09:33:20.000Z</time>
      </trkpt>
      <trkpt lat="39.608624" lon="-0.451332">
        <ele>120</ele>
        <time>2018-11-04T09:33:21.000Z</time>
      </trkpt>
      <trkpt lat="39.608568" lon="-0.451369">
        <ele>120</ele>
        <time>2018-11-04T09:33:22.000Z</time>
      </trkpt>
      <trkpt lat="39.608512" lon="-0.451406">
        <ele>120</ele>
        <time>2018-11-04T09:33:23.000Z</time>
      </trkpt>
      <trkpt lat="39.608455" lon="-0.451441">
        <ele>120</ele>
        <time>2018-11-04T09:33:24.000Z</time>
      </trkpt>
      <trkpt lat="39.608399" lon="-0.451477">
        <ele>120</ele>
        <time>2018-11-04T09:33:25.000Z</time>
      </trkpt>
      <trkpt lat="39.608342" lon="-0.451511">
        <ele>120</ele>
        <time>2018-11-04T09:33:26.000Z</time>
      </trkpt>
      <trkpt lat="39.608284" lon="-0.451544">
        <ele>120.847217777778</ele>
        <time>2018-11-04T09:33:27.000Z</time>
      </trkpt>
      <trkpt lat="39.608227" lon="-0.451578">
        <ele>121</ele>
        <time>2018-11-04T09:33:28.000Z</time>
      </trkpt>
      <trkpt lat="39.60817" lon="-0.451612">
        <ele>121</ele>
        <time>2018-11-04T09:33:29.000Z</time>
      </trkpt>
      <trkpt lat="39.608114" lon="-0.451648">
        <ele>121</ele>
        <time>2018-11-04T09:33:30.000Z</time>
      </trkpt>
      <trkpt lat="39.608058" lon="-0.451684">
        <ele>121</ele>
        <time>2018-11-04T09:33:31.000Z</time>
      </trkpt>
      <trkpt lat="39.608004" lon="-0.451721">
        <ele>121</ele>
        <time>2018-11-04T09:33:32.000Z</time>
      </trkpt>
      <trkpt lat="39.607949" lon="-0.451758">
        <ele>121</ele>
        <time>2018-11-04T09:33:33.000Z</time>
      </trkpt>
      <trkpt lat="39.607895" lon="-0.451796">
        <ele>121</ele>
        <time>2018-11-04T09:33:34.000Z</time>
      </trkpt>
      <trkpt lat="39.607842" lon="-0.451833">
        <ele>121</ele>
        <time>2018-11-04T09:33:35.000Z</time>
      </trkpt>
      <trkpt lat="39.607786" lon="-0.451869">
        <ele>121</ele>
        <time>2018-11-04T09:33:36.000Z</time>
      </trkpt>
      <trkpt lat="39.607731" lon="-0.451906">
        <ele>120.1100032</ele>
        <time>2018-11-04T09:33:37.000Z</time>
      </trkpt>
      <trkpt lat="39.607675" lon="-0.451943">
        <ele>120</ele>
        <time>2018-11-04T09:33:38.000Z</time>
      </trkpt>
      <trkpt lat="39.607616" lon="-0.451976">
        <ele>120</ele>
        <time>2018-11-04T09:33:39.000Z</time>
      </trkpt>
      <trkpt lat="39.607558" lon="-0.452011">
        <ele>120</ele>
        <time>2018-11-04T09:33:40.000Z</time>
      </trkpt>
      <trkpt lat="39.6075" lon="-0.452045">
        <ele>120</ele>
        <time>2018-11-04T09:33:41.000Z</time>
      </trkpt>
      <trkpt lat="39.607441" lon="-0.452078">
        <ele>120</ele>
        <time>2018-11-04T09:33:42.000Z</time>
      </trkpt>
      <trkpt lat="39.607384" lon="-0.452111">
        <ele>120</ele>
        <time>2018-11-04T09:33:43.000Z</time>
      </trkpt>
      <trkpt lat="39.607327" lon="-0.452146">
        <ele>120</ele>
        <time>2018-11-04T09:33:44.000Z</time>
      </trkpt>
      <trkpt lat="39.607271" lon="-0.452181">
        <ele>120</ele>
        <time>2018-11-04T09:33:45.000Z</time>
      </trkpt>
      <trkpt lat="39.607212" lon="-0.452213">
        <ele>120</ele>
        <time>2018-11-04T09:33:46.000Z</time>
      </trkpt>
      <trkpt lat="39.607154" lon="-0.452246">
        <ele>120</ele>
        <time>2018-11-04T09:33:47.000Z</time>
      </trkpt>
      <trkpt lat="39.607095" lon="-0.452281">
        <ele>120</ele>
        <time>2018-11-04T09:33:48.000Z</time>
      </trkpt>
      <trkpt lat="39.607035" lon="-0.452315">
        <ele>120</ele>
        <time>2018-11-04T09:33:49.000Z</time>
      </trkpt>
      <trkpt lat="39.606978" lon="-0.452352">
        <ele>120</ele>
        <time>2018-11-04T09:33:50.000Z</time>
      </trkpt>
      <trkpt lat="39.606921" lon="-0.452388">
        <ele>120</ele>
        <time>2018-11-04T09:33:51.000Z</time>
      </trkpt>
      <trkpt lat="39.606865" lon="-0.452425">
        <ele>120</ele>
        <time>2018-11-04T09:33:52.000Z</time>
      </trkpt>
      <trkpt lat="39.606813" lon="-0.452466">
        <ele>119.1100032</ele>
        <time>2018-11-04T09:33:53.000Z</time>
      </trkpt>
      <trkpt lat="39.606759" lon="-0.452505">
        <ele>119</ele>
        <time>2018-11-04T09:33:54.000Z</time>
      </trkpt>
      <trkpt lat="39.606703" lon="-0.452539">
        <ele>119</ele>
        <time>2018-11-04T09:33:55.000Z</time>
      </trkpt>
      <trkpt lat="39.606642" lon="-0.452571">
        <ele>118.1100032</ele>
        <time>2018-11-04T09:33:56.000Z</time>
      </trkpt>
      <trkpt lat="39.606583" lon="-0.452606">
        <ele>118</ele>
        <time>2018-11-04T09:33:57.000Z</time>
      </trkpt>
      <trkpt lat="39.606526" lon="-0.452644">
        <ele>118</ele>
        <time>2018-11-04T09:33:58.000Z</time>
      </trkpt>
      <trkpt lat="39.60647" lon="-0.45268">
        <ele>118.847217777778</ele>
        <time>2018-11-04T09:33:59.000Z</time>
      </trkpt>
      <trkpt lat="39.606413" lon="-0.452717">
        <ele>119</ele>
        <time>2018-11-04T09:34:00.000Z</time>
      </trkpt>
      <trkpt lat="39.606352" lon="-0.452753">
        <ele>119</ele>
        <time>2018-11-04T09:34:01.000Z</time>
      </trkpt>
      <trkpt lat="39.606294" lon="-0.452792">
        <ele>119</ele>
        <time>2018-11-04T09:34:02.000Z</time>
      </trkpt>
      <trkpt lat="39.606233" lon="-0.452828">
        <ele>119</ele>
        <time>2018-11-04T09:34:03.000Z</time>
      </trkpt>
      <trkpt lat="39.606171" lon="-0.452861">
        <ele>119</ele>
        <time>2018-11-04T09:34:04.000Z</time>
      </trkpt>
      <trkpt lat="39.606109" lon="-0.452895">
        <ele>119</ele>
        <time>2018-11-04T09:34:05.000Z</time>
      </trkpt>
      <trkpt lat="39.606048" lon="-0.452929">
        <ele>119</ele>
        <time>2018-11-04T09:34:06.000Z</time>
      </trkpt>
      <trkpt lat="39.605988" lon="-0.452962">
        <ele>119</ele>
        <time>2018-11-04T09:34:07.000Z</time>
      </trkpt>
      <trkpt lat="39.605928" lon="-0.452997">
        <ele>119</ele>
        <time>2018-11-04T09:34:08.000Z</time>
      </trkpt>
      <trkpt lat="39.605867" lon="-0.453034">
        <ele>119.8899968</ele>
        <time>2018-11-04T09:34:09.000Z</time>
      </trkpt>
      <trkpt lat="39.605807" lon="-0.453071">
        <ele>120</ele>
        <time>2018-11-04T09:34:10.000Z</time>
      </trkpt>
      <trkpt lat="39.605748" lon="-0.453107">
        <ele>120</ele>
        <time>2018-11-04T09:34:11.000Z</time>
      </trkpt>
      <trkpt lat="39.605688" lon="-0.453142">
        <ele>120</ele>
        <time>2018-11-04T09:34:12.000Z</time>
      </trkpt>
      <trkpt lat="39.60563" lon="-0.453177">
        <ele>120</ele>
        <time>2018-11-04T09:34:13.000Z</time>
      </trkpt>
      <trkpt lat="39.605571" lon="-0.453213">
        <ele>120</ele>
        <time>2018-11-04T09:34:14.000Z</time>
      </trkpt>
      <trkpt lat="39.605512" lon="-0.45325">
        <ele>120</ele>
        <time>2018-11-04T09:34:15.000Z</time>
      </trkpt>
      <trkpt lat="39.605452" lon="-0.453287">
        <ele>120</ele>
        <time>2018-11-04T09:34:16.000Z</time>
      </trkpt>
      <trkpt lat="39.605394" lon="-0.453322">
        <ele>120</ele>
        <time>2018-11-04T09:34:17.000Z</time>
      </trkpt>
      <trkpt lat="39.605336" lon="-0.453356">
        <ele>120</ele>
        <time>2018-11-04T09:34:18.000Z</time>
      </trkpt>
      <trkpt lat="39.605279" lon="-0.453392">
        <ele>120.8899968</ele>
        <time>2018-11-04T09:34:19.000Z</time>
      </trkpt>
      <trkpt lat="39.60522" lon="-0.453428">
        <ele>121</ele>
        <time>2018-11-04T09:34:20.000Z</time>
      </trkpt>
      <trkpt lat="39.605163" lon="-0.453466">
        <ele>121</ele>
        <time>2018-11-04T09:34:21.000Z</time>
      </trkpt>
      <trkpt lat="39.605105" lon="-0.453504">
        <ele>121</ele>
        <time>2018-11-04T09:34:22.000Z</time>
      </trkpt>
      <trkpt lat="39.605047" lon="-0.453541">
        <ele>121</ele>
        <time>2018-11-04T09:34:23.000Z</time>
      </trkpt>
      <trkpt lat="39.60499" lon="-0.453577">
        <ele>121</ele>
        <time>2018-11-04T09:34:24.000Z</time>
      </trkpt>
      <trkpt lat="39.604933" lon="-0.453613">
        <ele>121</ele>
        <time>2018-11-04T09:34:25.000Z</time>
      </trkpt>
      <trkpt lat="39.604877" lon="-0.45365">
        <ele>121</ele>
        <time>2018-11-04T09:34:26.000Z</time>
      </trkpt>
      <trkpt lat="39.604821" lon="-0.453684">
        <ele>121</ele>
        <time>2018-11-04T09:34:27.000Z</time>
      </trkpt>
      <trkpt lat="39.604765" lon="-0.453719">
        <ele>121</ele>
        <time>2018-11-04T09:34:28.000Z</time>
      </trkpt>
      <trkpt lat="39.604709" lon="-0.453752">
        <ele>121</ele>
        <time>2018-11-04T09:34:29.000Z</time>
      </trkpt>
      <trkpt lat="39.604654" lon="-0.453785">
        <ele>121</ele>
        <time>2018-11-04T09:34:30.000Z</time>
      </trkpt>
      <trkpt lat="39.604599" lon="-0.453822">
        <ele>121</ele>
        <time>2018-11-04T09:34:31.000Z</time>
      </trkpt>
      <trkpt lat="39.604542" lon="-0.453856">
        <ele>121</ele>
        <time>2018-11-04T09:34:32.000Z</time>
      </trkpt>
      <trkpt lat="39.604485" lon="-0.453888">
        <ele>121</ele>
        <time>2018-11-04T09:34:33.000Z</time>
      </trkpt>
      <trkpt lat="39.604427" lon="-0.45392">
        <ele>121</ele>
        <time>2018-11-04T09:34:34.000Z</time>
      </trkpt>
      <trkpt lat="39.604367" lon="-0.453958">
        <ele>120.1100032</ele>
        <time>2018-11-04T09:34:35.000Z</time>
      </trkpt>
      <trkpt lat="39.60431" lon="-0.453994">
        <ele>120</ele>
        <time>2018-11-04T09:34:36.000Z</time>
      </trkpt>
      <trkpt lat="39.604252" lon="-0.454028">
        <ele>120</ele>
        <time>2018-11-04T09:34:37.000Z</time>
      </trkpt>
      <trkpt lat="39.604194" lon="-0.454062">
        <ele>120</ele>
        <time>2018-11-04T09:34:38.000Z</time>
      </trkpt>
      <trkpt lat="39.604135" lon="-0.4541">
        <ele>119.1100032</ele>
        <time>2018-11-04T09:34:39.000Z</time>
      </trkpt>
      <trkpt lat="39.604076" lon="-0.454137">
        <ele>119</ele>
        <time>2018-11-04T09:34:40.000Z</time>
      </trkpt>
      <trkpt lat="39.604018" lon="-0.454174">
        <ele>119</ele>
        <time>2018-11-04T09:34:41.000Z</time>
      </trkpt>
      <trkpt lat="39.603962" lon="-0.454212">
        <ele>118.1100032</ele>
        <time>2018-11-04T09:34:42.000Z</time>
      </trkpt>
      <trkpt lat="39.603905" lon="-0.454249">
        <ele>118</ele>
        <time>2018-11-04T09:34:43.000Z</time>
      </trkpt>
      <trkpt lat="39.603847" lon="-0.454286">
        <ele>117.1100032</ele>
        <time>2018-11-04T09:34:44.000Z</time>
      </trkpt>
      <trkpt lat="39.60379" lon="-0.454325">
        <ele>117</ele>
        <time>2018-11-04T09:34:45.000Z</time>
      </trkpt>
      <trkpt lat="39.603733" lon="-0.454363">
        <ele>117</ele>
        <time>2018-11-04T09:34:46.000Z</time>
      </trkpt>
      <trkpt lat="39.603675" lon="-0.4544">
        <ele>117</ele>
        <time>2018-11-04T09:34:47.000Z</time>
      </trkpt>
      <trkpt lat="39.603618" lon="-0.454436">
        <ele>117</ele>
        <time>2018-11-04T09:34:48.000Z</time>
      </trkpt>
      <trkpt lat="39.603562" lon="-0.454471">
        <ele>116.150689975627</ele>
        <time>2018-11-04T09:34:49.000Z</time>
      </trkpt>
      <trkpt lat="39.603508" lon="-0.454507">
        <ele>116</ele>
        <time>2018-11-04T09:34:50.000Z</time>
      </trkpt>
      <trkpt lat="39.603452" lon="-0.454542">
        <ele>116</ele>
        <time>2018-11-04T09:34:51.000Z</time>
      </trkpt>
      <trkpt lat="39.603397" lon="-0.454577">
        <ele>116</ele>
        <time>2018-11-04T09:34:52.000Z</time>
      </trkpt>
      <trkpt lat="39.60334" lon="-0.45461">
        <ele>116</ele>
        <time>2018-11-04T09:34:53.000Z</time>
      </trkpt>
      <trkpt lat="39.603282" lon="-0.454643">
        <ele>116</ele>
        <time>2018-11-04T09:34:54.000Z</time>
      </trkpt>
      <trkpt lat="39.603227" lon="-0.454677">
        <ele>116</ele>
        <time>2018-11-04T09:34:55.000Z</time>
      </trkpt>
      <trkpt lat="39.603171" lon="-0.45471">
        <ele>116</ele>
        <time>2018-11-04T09:34:56.000Z</time>
      </trkpt>
      <trkpt lat="39.603114" lon="-0.454743">
        <ele>116</ele>
        <time>2018-11-04T09:34:57.000Z</time>
      </trkpt>
      <trkpt lat="39.603057" lon="-0.454778">
        <ele>116</ele>
        <time>2018-11-04T09:34:58.000Z</time>
      </trkpt>
      <trkpt lat="39.603001" lon="-0.454814">
        <ele>116</ele>
        <time>2018-11-04T09:34:59.000Z</time>
      </trkpt>
      <trkpt lat="39.602943" lon="-0.454849">
        <ele>116</ele>
        <time>2018-11-04T09:35:00.000Z</time>
      </trkpt>
      <trkpt lat="39.602886" lon="-0.454884">
        <ele>116</ele>
        <time>2018-11-04T09:35:01.000Z</time>
      </trkpt>
      <trkpt lat="39.602828" lon="-0.454919">
        <ele>116</ele>
        <time>2018-11-04T09:35:02.000Z</time>
      </trkpt>
      <trkpt lat="39.602768" lon="-0.454956">
        <ele>116</ele>
        <time>2018-11-04T09:35:03.000Z</time>
      </trkpt>
      <trkpt lat="39.60271" lon="-0.454993">
        <ele>116</ele>
        <time>2018-11-04T09:35:04.000Z</time>
      </trkpt>
      <trkpt lat="39.60265" lon="-0.455032">
        <ele>116</ele>
        <time>2018-11-04T09:35:05.000Z</time>
      </trkpt>
      <trkpt lat="39.602591" lon="-0.45507">
        <ele>116</ele>
        <time>2018-11-04T09:35:06.000Z</time>
      </trkpt>
      <trkpt lat="39.602532" lon="-0.455108">
        <ele>116</ele>
        <time>2018-11-04T09:35:07.000Z</time>
      </trkpt>
      <trkpt lat="39.602472" lon="-0.455145">
        <ele>116</ele>
        <time>2018-11-04T09:35:08.000Z</time>
      </trkpt>
      <trkpt lat="39.602412" lon="-0.455182">
        <ele>116</ele>
        <time>2018-11-04T09:35:09.000Z</time>
      </trkpt>
      <trkpt lat="39.602352" lon="-0.45522">
        <ele>115.1100032</ele>
        <time>2018-11-04T09:35:10.000Z</time>
      </trkpt>
      <trkpt lat="39.60229" lon="-0.455258">
        <ele>115</ele>
        <time>2018-11-04T09:35:11.000Z</time>
      </trkpt>
      <trkpt lat="39.60223" lon="-0.455297">
        <ele>115</ele>
        <time>2018-11-04T09:35:12.000Z</time>
      </trkpt>
      <trkpt lat="39.60217" lon="-0.455336">
        <ele>115</ele>
        <time>2018-11-04T09:35:13.000Z</time>
      </trkpt>
      <trkpt lat="39.60211" lon="-0.455375">
        <ele>115</ele>
        <time>2018-11-04T09:35:14.000Z</time>
      </trkpt>
      <trkpt lat="39.60205" lon="-0.455412">
        <ele>115</ele>
        <time>2018-11-04T09:35:15.000Z</time>
      </trkpt>
      <trkpt lat="39.60199" lon="-0.45545">
        <ele>115</ele>
        <time>2018-11-04T09:35:16.000Z</time>
      </trkpt>
      <trkpt lat="39.601932" lon="-0.455489">
        <ele>115</ele>
        <time>2018-11-04T09:35:17.000Z</time>
      </trkpt>
      <trkpt lat="39.601872" lon="-0.455527">
        <ele>115</ele>
        <time>2018-11-04T09:35:18.000Z</time>
      </trkpt>
      <trkpt lat="39.60181" lon="-0.455565">
        <ele>115</ele>
        <time>2018-11-04T09:35:19.000Z</time>
      </trkpt>
      <trkpt lat="39.60175" lon="-0.455602">
        <ele>115</ele>
        <time>2018-11-04T09:35:20.000Z</time>
      </trkpt>
      <trkpt lat="39.601688" lon="-0.45564">
        <ele>115</ele>
        <time>2018-11-04T09:35:21.000Z</time>
      </trkpt>
      <trkpt lat="39.601628" lon="-0.455679">
        <ele>115</ele>
        <time>2018-11-04T09:35:22.000Z</time>
      </trkpt>
      <trkpt lat="39.601568" lon="-0.455718">
        <ele>115</ele>
        <time>2018-11-04T09:35:23.000Z</time>
      </trkpt>
      <trkpt lat="39.601508" lon="-0.455755">
        <ele>115</ele>
        <time>2018-11-04T09:35:24.000Z</time>
      </trkpt>
      <trkpt lat="39.601448" lon="-0.455793">
        <ele>115</ele>
        <time>2018-11-04T09:35:25.000Z</time>
      </trkpt>
      <trkpt lat="39.601386" lon="-0.455831">
        <ele>115</ele>
        <time>2018-11-04T09:35:26.000Z</time>
      </trkpt>
      <trkpt lat="39.601326" lon="-0.455869">
        <ele>115</ele>
        <time>2018-11-04T09:35:27.000Z</time>
      </trkpt>
      <trkpt lat="39.601266" lon="-0.455908">
        <ele>115</ele>
        <time>2018-11-04T09:35:28.000Z</time>
      </trkpt>
      <trkpt lat="39.601206" lon="-0.455946">
        <ele>115</ele>
        <time>2018-11-04T09:35:29.000Z</time>
      </trkpt>
      <trkpt lat="39.601146" lon="-0.455985">
        <ele>115</ele>
        <time>2018-11-04T09:35:30.000Z</time>
      </trkpt>
      <trkpt lat="39.601086" lon="-0.456024">
        <ele>115</ele>
        <time>2018-11-04T09:35:31.000Z</time>
      </trkpt>
      <trkpt lat="39.601026" lon="-0.456063">
        <ele>115</ele>
        <time>2018-11-04T09:35:32.000Z</time>
      </trkpt>
      <trkpt lat="39.600966" lon="-0.456101">
        <ele>115</ele>
        <time>2018-11-04T09:35:33.000Z</time>
      </trkpt>
      <trkpt lat="39.600908" lon="-0.45614">
        <ele>115</ele>
        <time>2018-11-04T09:35:34.000Z</time>
      </trkpt>
      <trkpt lat="39.600846" lon="-0.456178">
        <ele>115</ele>
        <time>2018-11-04T09:35:35.000Z</time>
      </trkpt>
      <trkpt lat="39.600784" lon="-0.456215">
        <ele>115</ele>
        <time>2018-11-04T09:35:36.000Z</time>
      </trkpt>
      <trkpt lat="39.600724" lon="-0.456252">
        <ele>115</ele>
        <time>2018-11-04T09:35:37.000Z</time>
      </trkpt>
      <trkpt lat="39.600662" lon="-0.456284">
        <ele>115</ele>
        <time>2018-11-04T09:35:38.000Z</time>
      </trkpt>
      <trkpt lat="39.600598" lon="-0.456311">
        <ele>114.150689975627</ele>
        <time>2018-11-04T09:35:39.000Z</time>
      </trkpt>
      <trkpt lat="39.600536" lon="-0.45633">
        <ele>114</ele>
        <time>2018-11-04T09:35:40.000Z</time>
      </trkpt>
      <trkpt lat="39.600474" lon="-0.456345">
        <ele>114</ele>
        <time>2018-11-04T09:35:41.000Z</time>
      </trkpt>
      <trkpt lat="39.600412" lon="-0.45636">
        <ele>113.118812257623</ele>
        <time>2018-11-04T09:35:42.000Z</time>
      </trkpt>
      <trkpt lat="39.60035" lon="-0.456377">
        <ele>112.111113984278</ele>
        <time>2018-11-04T09:35:43.000Z</time>
      </trkpt>
      <trkpt lat="39.600286" lon="-0.456394">
        <ele>112</ele>
        <time>2018-11-04T09:35:44.000Z</time>
      </trkpt>
      <trkpt lat="39.600222" lon="-0.456412">
        <ele>112</ele>
        <time>2018-11-04T09:35:45.000Z</time>
      </trkpt>
      <trkpt lat="39.600156" lon="-0.456429">
        <ele>112</ele>
        <time>2018-11-04T09:35:46.000Z</time>
      </trkpt>
      <trkpt lat="39.60009" lon="-0.456445">
        <ele>112</ele>
        <time>2018-11-04T09:35:47.000Z</time>
      </trkpt>
      <trkpt lat="39.600024" lon="-0.456462">
        <ele>112</ele>
        <time>2018-11-04T09:35:48.000Z</time>
      </trkpt>
      <trkpt lat="39.599958" lon="-0.45648">
        <ele>112</ele>
        <time>2018-11-04T09:35:49.000Z</time>
      </trkpt>
      <trkpt lat="39.599892" lon="-0.456498">
        <ele>112</ele>
        <time>2018-11-04T09:35:50.000Z</time>
      </trkpt>
      <trkpt lat="39.599826" lon="-0.456515">
        <ele>111.1100032</ele>
        <time>2018-11-04T09:35:51.000Z</time>
      </trkpt>
      <trkpt lat="39.59976" lon="-0.456534">
        <ele>111</ele>
        <time>2018-11-04T09:35:52.000Z</time>
      </trkpt>
      <trkpt lat="39.599694" lon="-0.456553">
        <ele>111</ele>
        <time>2018-11-04T09:35:53.000Z</time>
      </trkpt>
      <trkpt lat="39.599626" lon="-0.456573">
        <ele>110.152782222222</ele>
        <time>2018-11-04T09:35:54.000Z</time>
      </trkpt>
      <trkpt lat="39.59956" lon="-0.456591">
        <ele>110</ele>
        <time>2018-11-04T09:35:55.000Z</time>
      </trkpt>
      <trkpt lat="39.599492" lon="-0.456609">
        <ele>110</ele>
        <time>2018-11-04T09:35:56.000Z</time>
      </trkpt>
      <trkpt lat="39.599424" lon="-0.456627">
        <ele>110</ele>
        <time>2018-11-04T09:35:57.000Z</time>
      </trkpt>
      <trkpt lat="39.599354" lon="-0.456645">
        <ele>110.8899968</ele>
        <time>2018-11-04T09:35:58.000Z</time>
      </trkpt>
      <trkpt lat="39.599283" lon="-0.456667">
        <ele>111</ele>
        <time>2018-11-04T09:35:59.000Z</time>
      </trkpt>
      <trkpt lat="39.599215" lon="-0.456689">
        <ele>111</ele>
        <time>2018-11-04T09:36:00.000Z</time>
      </trkpt>
      <trkpt lat="39.599146" lon="-0.456712">
        <ele>111</ele>
        <time>2018-11-04T09:36:01.000Z</time>
      </trkpt>
      <trkpt lat="39.599078" lon="-0.456734">
        <ele>110.1100032</ele>
        <time>2018-11-04T09:36:02.000Z</time>
      </trkpt>
      <trkpt lat="39.599011" lon="-0.456757">
        <ele>110</ele>
        <time>2018-11-04T09:36:03.000Z</time>
      </trkpt>
      <trkpt lat="39.598945" lon="-0.45678">
        <ele>110</ele>
        <time>2018-11-04T09:36:04.000Z</time>
      </trkpt>
      <trkpt lat="39.598877" lon="-0.456803">
        <ele>110.849310024373</ele>
        <time>2018-11-04T09:36:05.000Z</time>
      </trkpt>
      <trkpt lat="39.598807" lon="-0.456823">
        <ele>111</ele>
        <time>2018-11-04T09:36:06.000Z</time>
      </trkpt>
      <trkpt lat="39.598738" lon="-0.456842">
        <ele>111</ele>
        <time>2018-11-04T09:36:07.000Z</time>
      </trkpt>
      <trkpt lat="39.598668" lon="-0.456861">
        <ele>111</ele>
        <time>2018-11-04T09:36:08.000Z</time>
      </trkpt>
      <trkpt lat="39.598598" lon="-0.45688">
        <ele>110.1100032</ele>
        <time>2018-11-04T09:36:09.000Z</time>
      </trkpt>
      <trkpt lat="39.598528" lon="-0.456902">
        <ele>110</ele>
        <time>2018-11-04T09:36:10.000Z</time>
      </trkpt>
      <trkpt lat="39.598456" lon="-0.456922">
        <ele>110</ele>
        <time>2018-11-04T09:36:11.000Z</time>
      </trkpt>
      <trkpt lat="39.598383" lon="-0.456935">
        <ele>110</ele>
        <time>2018-11-04T09:36:12.000Z</time>
      </trkpt>
      <trkpt lat="39.598309" lon="-0.456952">
        <ele>110</ele>
        <time>2018-11-04T09:36:13.000Z</time>
      </trkpt>
      <trkpt lat="39.598237" lon="-0.456974">
        <ele>110</ele>
        <time>2018-11-04T09:36:14.000Z</time>
      </trkpt>
      <trkpt lat="39.598164" lon="-0.456993">
        <ele>109.157145991808</ele>
        <time>2018-11-04T09:36:15.000Z</time>
      </trkpt>
      <trkpt lat="39.598091" lon="-0.457011">
        <ele>109</ele>
        <time>2018-11-04T09:36:16.000Z</time>
      </trkpt>
      <trkpt lat="39.598015" lon="-0.457025">
        <ele>109.888886015722</ele>
        <time>2018-11-04T09:36:17.000Z</time>
      </trkpt>
      <trkpt lat="39.597938" lon="-0.457036">
        <ele>109.1100032</ele>
        <time>2018-11-04T09:36:18.000Z</time>
      </trkpt>
      <trkpt lat="39.597861" lon="-0.457047">
        <ele>109</ele>
        <time>2018-11-04T09:36:19.000Z</time>
      </trkpt>
      <trkpt lat="39.597784" lon="-0.45706">
        <ele>109</ele>
        <time>2018-11-04T09:36:20.000Z</time>
      </trkpt>
      <trkpt lat="39.597708" lon="-0.457074">
        <ele>109</ele>
        <time>2018-11-04T09:36:21.000Z</time>
      </trkpt>
      <trkpt lat="39.597631" lon="-0.457085">
        <ele>109</ele>
        <time>2018-11-04T09:36:22.000Z</time>
      </trkpt>
      <trkpt lat="39.597556" lon="-0.457098">
        <ele>109</ele>
        <time>2018-11-04T09:36:23.000Z</time>
      </trkpt>
      <trkpt lat="39.597484" lon="-0.457114">
        <ele>109</ele>
        <time>2018-11-04T09:36:24.000Z</time>
      </trkpt>
      <trkpt lat="39.597413" lon="-0.457132">
        <ele>109</ele>
        <time>2018-11-04T09:36:25.000Z</time>
      </trkpt>
      <trkpt lat="39.597343" lon="-0.457152">
        <ele>108.1100032</ele>
        <time>2018-11-04T09:36:26.000Z</time>
      </trkpt>
      <trkpt lat="39.597274" lon="-0.457175">
        <ele>108</ele>
        <time>2018-11-04T09:36:27.000Z</time>
      </trkpt>
      <trkpt lat="39.597206" lon="-0.457196">
        <ele>107.154933386216</ele>
        <time>2018-11-04T09:36:28.000Z</time>
      </trkpt>
      <trkpt lat="39.597138" lon="-0.457217">
        <ele>107</ele>
        <time>2018-11-04T09:36:29.000Z</time>
      </trkpt>
      <trkpt lat="39.597071" lon="-0.457237">
        <ele>107</ele>
        <time>2018-11-04T09:36:30.000Z</time>
      </trkpt>
      <trkpt lat="39.597005" lon="-0.457258">
        <ele>106.1100032</ele>
        <time>2018-11-04T09:36:31.000Z</time>
      </trkpt>
      <trkpt lat="39.596941" lon="-0.45728">
        <ele>106</ele>
        <time>2018-11-04T09:36:32.000Z</time>
      </trkpt>
      <trkpt lat="39.596875" lon="-0.457298">
        <ele>106</ele>
        <time>2018-11-04T09:36:33.000Z</time>
      </trkpt>
      <trkpt lat="39.59681" lon="-0.457316">
        <ele>106</ele>
        <time>2018-11-04T09:36:34.000Z</time>
      </trkpt>
      <trkpt lat="39.596747" lon="-0.457336">
        <ele>105.310078288566</ele>
        <time>2018-11-04T09:36:35.000Z</time>
      </trkpt>
      <trkpt lat="39.596682" lon="-0.457354">
        <ele>105</ele>
        <time>2018-11-04T09:36:36.000Z</time>
      </trkpt>
      <trkpt lat="39.596618" lon="-0.457373">
        <ele>104.1100032</ele>
        <time>2018-11-04T09:36:37.000Z</time>
      </trkpt>
      <trkpt lat="39.596554" lon="-0.457393">
        <ele>104</ele>
        <time>2018-11-04T09:36:38.000Z</time>
      </trkpt>
      <trkpt lat="39.596491" lon="-0.457409">
        <ele>104</ele>
        <time>2018-11-04T09:36:39.000Z</time>
      </trkpt>
      <trkpt lat="39.596428" lon="-0.457425">
        <ele>104</ele>
        <time>2018-11-04T09:36:40.000Z</time>
      </trkpt>
      <trkpt lat="39.596365" lon="-0.457442">
        <ele>104</ele>
        <time>2018-11-04T09:36:41.000Z</time>
      </trkpt>
      <trkpt lat="39.596302" lon="-0.45746">
        <ele>104</ele>
        <time>2018-11-04T09:36:42.000Z</time>
      </trkpt>
      <trkpt lat="39.596239" lon="-0.457477">
        <ele>104</ele>
        <time>2018-11-04T09:36:43.000Z</time>
      </trkpt>
      <trkpt lat="39.596184" lon="-0.457508">
        <ele>103.159425666902</ele>
        <time>2018-11-04T09:36:44.000Z</time>
      </trkpt>
      <trkpt lat="39.596132" lon="-0.457556">
        <ele>103</ele>
        <time>2018-11-04T09:36:45.000Z</time>
      </trkpt>
      <trkpt lat="39.596075" lon="-0.457594">
        <ele>102.111113984278</ele>
        <time>2018-11-04T09:36:46.000Z</time>
      </trkpt>
      <trkpt lat="39.596014" lon="-0.457611">
        <ele>102</ele>
        <time>2018-11-04T09:36:47.000Z</time>
      </trkpt>
      <trkpt lat="39.595952" lon="-0.457608">
        <ele>102</ele>
        <time>2018-11-04T09:36:48.000Z</time>
      </trkpt>
      <trkpt lat="39.595889" lon="-0.4576">
        <ele>102</ele>
        <time>2018-11-04T09:36:49.000Z</time>
      </trkpt>
      <trkpt lat="39.595824" lon="-0.457599">
        <ele>102.700783116137</ele>
        <time>2018-11-04T09:36:50.000Z</time>
      </trkpt>
      <trkpt lat="39.595761" lon="-0.457608">
        <ele>103</ele>
        <time>2018-11-04T09:36:51.000Z</time>
      </trkpt>
      <trkpt lat="39.595697" lon="-0.457618">
        <ele>103.8899968</ele>
        <time>2018-11-04T09:36:52.000Z</time>
      </trkpt>
      <trkpt lat="39.595637" lon="-0.457629">
        <ele>104</ele>
        <time>2018-11-04T09:36:53.000Z</time>
      </trkpt>
      <trkpt lat="39.59558" lon="-0.457642">
        <ele>104</ele>
        <time>2018-11-04T09:36:54.000Z</time>
      </trkpt>
      <trkpt lat="39.595527" lon="-0.457655">
        <ele>104</ele>
        <time>2018-11-04T09:36:55.000Z</time>
      </trkpt>
      <trkpt lat="39.595471" lon="-0.457672">
        <ele>104</ele>
        <time>2018-11-04T09:36:56.000Z</time>
      </trkpt>
      <trkpt lat="39.595417" lon="-0.45769">
        <ele>104.8899968</ele>
        <time>2018-11-04T09:36:57.000Z</time>
      </trkpt>
      <trkpt lat="39.595365" lon="-0.457707">
        <ele>105</ele>
        <time>2018-11-04T09:36:58.000Z</time>
      </trkpt>
      <trkpt lat="39.595309" lon="-0.457724">
        <ele>105</ele>
        <time>2018-11-04T09:36:59.000Z</time>
      </trkpt>
      <trkpt lat="39.59525" lon="-0.457744">
        <ele>105</ele>
        <time>2018-11-04T09:37:00.000Z</time>
      </trkpt>
      <trkpt lat="39.595193" lon="-0.457767">
        <ele>105.69531</ele>
        <time>2018-11-04T09:37:01.000Z</time>
      </trkpt>
      <trkpt lat="39.595134" lon="-0.45778">
        <ele>106</ele>
        <time>2018-11-04T09:37:02.000Z</time>
      </trkpt>
      <trkpt lat="39.595077" lon="-0.457801">
        <ele>106</ele>
        <time>2018-11-04T09:37:03.000Z</time>
      </trkpt>
      <trkpt lat="39.595023" lon="-0.457817">
        <ele>106.8899968</ele>
        <time>2018-11-04T09:37:04.000Z</time>
      </trkpt>
      <trkpt lat="39.594968" lon="-0.457836">
        <ele>107</ele>
        <time>2018-11-04T09:37:05.000Z</time>
      </trkpt>
      <trkpt lat="39.594906" lon="-0.457859">
        <ele>106.1100032</ele>
        <time>2018-11-04T09:37:06.000Z</time>
      </trkpt>
      <trkpt lat="39.594846" lon="-0.457881">
        <ele>106.8899968</ele>
        <time>2018-11-04T09:37:07.000Z</time>
      </trkpt>
      <trkpt lat="39.594795" lon="-0.457898">
        <ele>107</ele>
        <time>2018-11-04T09:37:08.000Z</time>
      </trkpt>
      <trkpt lat="39.594742" lon="-0.457919">
        <ele>107</ele>
        <time>2018-11-04T09:37:09.000Z</time>
      </trkpt>
      <trkpt lat="39.594682" lon="-0.457932">
        <ele>107</ele>
        <time>2018-11-04T09:37:10.000Z</time>
      </trkpt>
      <trkpt lat="39.594628" lon="-0.457924">
        <ele>107</ele>
        <time>2018-11-04T09:37:11.000Z</time>
      </trkpt>
      <trkpt lat="39.594572" lon="-0.45795">
        <ele>107</ele>
        <time>2018-11-04T09:37:12.000Z</time>
      </trkpt>
      <trkpt lat="39.594448" lon="-0.458006">
        <ele>107</ele>
        <time>2018-11-04T09:37:14.000Z</time>
      </trkpt>
      <trkpt lat="39.594388" lon="-0.458032">
        <ele>107</ele>
        <time>2018-11-04T09:37:15.000Z</time>
      </trkpt>
      <trkpt lat="39.594317" lon="-0.458054">
        <ele>107</ele>
        <time>2018-11-04T09:37:16.000Z</time>
      </trkpt>
      <trkpt lat="39.594255" lon="-0.458053">
        <ele>107.849310024373</ele>
        <time>2018-11-04T09:37:17.000Z</time>
      </trkpt>
      <trkpt lat="39.594199" lon="-0.458061">
        <ele>108</ele>
        <time>2018-11-04T09:37:18.000Z</time>
      </trkpt>
      <trkpt lat="39.594141" lon="-0.458086">
        <ele>108.8899968</ele>
        <time>2018-11-04T09:37:19.000Z</time>
      </trkpt>
      <trkpt lat="39.594096" lon="-0.458103">
        <ele>109</ele>
        <time>2018-11-04T09:37:20.000Z</time>
      </trkpt>
      <trkpt lat="39.594046" lon="-0.458112">
        <ele>108.150689975627</ele>
        <time>2018-11-04T09:37:21.000Z</time>
      </trkpt>
      <trkpt lat="39.593991" lon="-0.45813">
        <ele>108</ele>
        <time>2018-11-04T09:37:22.000Z</time>
      </trkpt>
      <trkpt lat="39.59394" lon="-0.458146">
        <ele>108</ele>
        <time>2018-11-04T09:37:23.000Z</time>
      </trkpt>
      <trkpt lat="39.593888" lon="-0.458171">
        <ele>108.8899968</ele>
        <time>2018-11-04T09:37:24.000Z</time>
      </trkpt>
      <trkpt lat="39.593831" lon="-0.458186">
        <ele>109</ele>
        <time>2018-11-04T09:37:25.000Z</time>
      </trkpt>
      <trkpt lat="39.593775" lon="-0.458201">
        <ele>108.159425666902</ele>
        <time>2018-11-04T09:37:26.000Z</time>
      </trkpt>
      <trkpt lat="39.593732" lon="-0.458213">
        <ele>108</ele>
        <time>2018-11-04T09:37:27.000Z</time>
      </trkpt>
      <trkpt lat="39.593689" lon="-0.458215">
        <ele>107.112247430221</ele>
        <time>2018-11-04T09:37:28.000Z</time>
      </trkpt>
      <trkpt lat="39.593651" lon="-0.458214">
        <ele>107</ele>
        <time>2018-11-04T09:37:29.000Z</time>
      </trkpt>
      <trkpt lat="39.593604" lon="-0.458227">
        <ele>106.1100032</ele>
        <time>2018-11-04T09:37:30.000Z</time>
      </trkpt>
      <trkpt lat="39.593554" lon="-0.458236">
        <ele>106.8899968</ele>
        <time>2018-11-04T09:37:31.000Z</time>
      </trkpt>
      <trkpt lat="39.593509" lon="-0.45825">
        <ele>106.1100032</ele>
        <time>2018-11-04T09:37:32.000Z</time>
      </trkpt>
      <trkpt lat="39.59346" lon="-0.458257">
        <ele>106</ele>
        <time>2018-11-04T09:37:33.000Z</time>
      </trkpt>
      <trkpt lat="39.593404" lon="-0.458265">
        <ele>106</ele>
        <time>2018-11-04T09:37:34.000Z</time>
      </trkpt>
      <trkpt lat="39.593353" lon="-0.458286">
        <ele>105.320614789338</ele>
        <time>2018-11-04T09:37:35.000Z</time>
      </trkpt>
      <trkpt lat="39.593303" lon="-0.458299">
        <ele>105</ele>
        <time>2018-11-04T09:37:36.000Z</time>
      </trkpt>
      <trkpt lat="39.593253" lon="-0.458323">
        <ele>104.118812257623</ele>
        <time>2018-11-04T09:37:37.000Z</time>
      </trkpt>
      <trkpt lat="39.593207" lon="-0.458342">
        <ele>104</ele>
        <time>2018-11-04T09:37:38.000Z</time>
      </trkpt>
      <trkpt lat="39.593168" lon="-0.458359">
        <ele>104</ele>
        <time>2018-11-04T09:37:39.000Z</time>
      </trkpt>
      <trkpt lat="39.593126" lon="-0.45837">
        <ele>104</ele>
        <time>2018-11-04T09:37:40.000Z</time>
      </trkpt>
      <trkpt lat="39.59309" lon="-0.458394">
        <ele>104</ele>
        <time>2018-11-04T09:37:41.000Z</time>
      </trkpt>
      <trkpt lat="39.593055" lon="-0.458425">
        <ele>104</ele>
        <time>2018-11-04T09:37:42.000Z</time>
      </trkpt>
      <trkpt lat="39.593023" lon="-0.458463">
        <ele>104</ele>
        <time>2018-11-04T09:37:43.000Z</time>
      </trkpt>
      <trkpt lat="39.593023" lon="-0.458528">
        <ele>104.8899968</ele>
        <time>2018-11-04T09:37:44.000Z</time>
      </trkpt>
      <trkpt lat="39.593037" lon="-0.458589">
        <ele>105</ele>
        <time>2018-11-04T09:37:45.000Z</time>
      </trkpt>
      <trkpt lat="39.593057" lon="-0.458662">
        <ele>105</ele>
        <time>2018-11-04T09:37:46.000Z</time>
      </trkpt>
      <trkpt lat="39.593082" lon="-0.45873">
        <ele>105</ele>
        <time>2018-11-04T09:37:47.000Z</time>
      </trkpt>
      <trkpt lat="39.593101" lon="-0.458798">
        <ele>104.1100032</ele>
        <time>2018-11-04T09:37:48.000Z</time>
      </trkpt>
      <trkpt lat="39.593119" lon="-0.458871">
        <ele>104</ele>
        <time>2018-11-04T09:37:49.000Z</time>
      </trkpt>
      <trkpt lat="39.593139" lon="-0.458946">
        <ele>104</ele>
        <time>2018-11-04T09:37:50.000Z</time>
      </trkpt>
      <trkpt lat="39.593165" lon="-0.459019">
        <ele>104</ele>
        <time>2018-11-04T09:37:51.000Z</time>
      </trkpt>
      <trkpt lat="39.593189" lon="-0.459088">
        <ele>104</ele>
        <time>2018-11-04T09:37:52.000Z</time>
      </trkpt>
      <trkpt lat="39.593215" lon="-0.459165">
        <ele>104</ele>
        <time>2018-11-04T09:37:53.000Z</time>
      </trkpt>
      <trkpt lat="39.593248" lon="-0.459248">
        <ele>104</ele>
        <time>2018-11-04T09:37:54.000Z</time>
      </trkpt>
      <trkpt lat="39.593279" lon="-0.459332">
        <ele>104.845066613784</ele>
        <time>2018-11-04T09:37:55.000Z</time>
      </trkpt>
      <trkpt lat="39.593307" lon="-0.459411">
        <ele>105</ele>
        <time>2018-11-04T09:37:56.000Z</time>
      </trkpt>
      <trkpt lat="39.593329" lon="-0.459485">
        <ele>105</ele>
        <time>2018-11-04T09:37:57.000Z</time>
      </trkpt>
      <trkpt lat="39.593351" lon="-0.459555">
        <ele>105</ele>
        <time>2018-11-04T09:37:58.000Z</time>
      </trkpt>
      <trkpt lat="39.593372" lon="-0.459628">
        <ele>105</ele>
        <time>2018-11-04T09:37:59.000Z</time>
      </trkpt>
      <trkpt lat="39.593396" lon="-0.459702">
        <ele>105</ele>
        <time>2018-11-04T09:38:00.000Z</time>
      </trkpt>
      <trkpt lat="39.593422" lon="-0.459774">
        <ele>105</ele>
        <time>2018-11-04T09:38:01.000Z</time>
      </trkpt>
      <trkpt lat="39.593445" lon="-0.459843">
        <ele>105</ele>
        <time>2018-11-04T09:38:02.000Z</time>
      </trkpt>
      <trkpt lat="39.593468" lon="-0.459902">
        <ele>105</ele>
        <time>2018-11-04T09:38:03.000Z</time>
      </trkpt>
      <trkpt lat="39.593496" lon="-0.459963">
        <ele>105</ele>
        <time>2018-11-04T09:38:04.000Z</time>
      </trkpt>
      <trkpt lat="39.593522" lon="-0.460031">
        <ele>105</ele>
        <time>2018-11-04T09:38:05.000Z</time>
      </trkpt>
      <trkpt lat="39.59355" lon="-0.460099">
        <ele>105</ele>
        <time>2018-11-04T09:38:06.000Z</time>
      </trkpt>
      <trkpt lat="39.593577" lon="-0.460168">
        <ele>104.1100032</ele>
        <time>2018-11-04T09:38:07.000Z</time>
      </trkpt>
      <trkpt lat="39.593602" lon="-0.460238">
        <ele>104</ele>
        <time>2018-11-04T09:38:08.000Z</time>
      </trkpt>
      <trkpt lat="39.593628" lon="-0.460303">
        <ele>104</ele>
        <time>2018-11-04T09:38:09.000Z</time>
      </trkpt>
      <trkpt lat="39.593652" lon="-0.46037">
        <ele>104</ele>
        <time>2018-11-04T09:38:10.000Z</time>
      </trkpt>
      <trkpt lat="39.593674" lon="-0.460434">
        <ele>104</ele>
        <time>2018-11-04T09:38:11.000Z</time>
      </trkpt>
      <trkpt lat="39.593698" lon="-0.460499">
        <ele>104</ele>
        <time>2018-11-04T09:38:12.000Z</time>
      </trkpt>
      <trkpt lat="39.593722" lon="-0.460562">
        <ele>104</ele>
        <time>2018-11-04T09:38:13.000Z</time>
      </trkpt>
      <trkpt lat="39.593744" lon="-0.460627">
        <ele>104.8899968</ele>
        <time>2018-11-04T09:38:14.000Z</time>
      </trkpt>
      <trkpt lat="39.593762" lon="-0.460698">
        <ele>105</ele>
        <time>2018-11-04T09:38:15.000Z</time>
      </trkpt>
      <trkpt lat="39.593784" lon="-0.460762">
        <ele>105</ele>
        <time>2018-11-04T09:38:16.000Z</time>
      </trkpt>
      <trkpt lat="39.593808" lon="-0.460824">
        <ele>105</ele>
        <time>2018-11-04T09:38:17.000Z</time>
      </trkpt>
      <trkpt lat="39.59383" lon="-0.460884">
        <ele>105</ele>
        <time>2018-11-04T09:38:18.000Z</time>
      </trkpt>
      <trkpt lat="39.59385" lon="-0.460941">
        <ele>105</ele>
        <time>2018-11-04T09:38:19.000Z</time>
      </trkpt>
      <trkpt lat="39.59387" lon="-0.461001">
        <ele>105</ele>
        <time>2018-11-04T09:38:20.000Z</time>
      </trkpt>
      <trkpt lat="39.593888" lon="-0.461061">
        <ele>105</ele>
        <time>2018-11-04T09:38:21.000Z</time>
      </trkpt>
      <trkpt lat="39.593908" lon="-0.46112">
        <ele>105</ele>
        <time>2018-11-04T09:38:22.000Z</time>
      </trkpt>
      <trkpt lat="39.593926" lon="-0.46118">
        <ele>105</ele>
        <time>2018-11-04T09:38:23.000Z</time>
      </trkpt>
      <trkpt lat="39.593944" lon="-0.461234">
        <ele>105</ele>
        <time>2018-11-04T09:38:24.000Z</time>
      </trkpt>
      <trkpt lat="39.593959" lon="-0.461284">
        <ele>105</ele>
        <time>2018-11-04T09:38:25.000Z</time>
      </trkpt>
      <trkpt lat="39.593974" lon="-0.461334">
        <ele>105</ele>
        <time>2018-11-04T09:38:26.000Z</time>
      </trkpt>
      <trkpt lat="39.59399" lon="-0.461376">
        <ele>105</ele>
        <time>2018-11-04T09:38:27.000Z</time>
      </trkpt>
      <trkpt lat="39.593996" lon="-0.46141">
        <ele>105</ele>
        <time>2018-11-04T09:38:28.000Z</time>
      </trkpt>
      <trkpt lat="39.593996" lon="-0.461433">
        <ele>106</ele>
        <time>2018-11-04T09:38:49.000Z</time>
      </trkpt>
      <trkpt lat="39.594" lon="-0.461466">
        <ele>106</ele>
        <time>2018-11-04T09:38:52.000Z</time>
      </trkpt>
      <trkpt lat="39.594007" lon="-0.46149">
        <ele>106</ele>
        <time>2018-11-04T09:38:53.000Z</time>
      </trkpt>
      <trkpt lat="39.594012" lon="-0.461518">
        <ele>106.8899968</ele>
        <time>2018-11-04T09:38:54.000Z</time>
      </trkpt>
      <trkpt lat="39.594016" lon="-0.461552">
        <ele>107</ele>
        <time>2018-11-04T09:38:55.000Z</time>
      </trkpt>
      <trkpt lat="39.59402" lon="-0.461586">
        <ele>107</ele>
        <time>2018-11-04T09:38:56.000Z</time>
      </trkpt>
      <trkpt lat="39.594024" lon="-0.461624">
        <ele>107</ele>
        <time>2018-11-04T09:38:57.000Z</time>
      </trkpt>
      <trkpt lat="39.594028" lon="-0.46167">
        <ele>107</ele>
        <time>2018-11-04T09:38:58.000Z</time>
      </trkpt>
      <trkpt lat="39.594037" lon="-0.461719">
        <ele>107</ele>
        <time>2018-11-04T09:38:59.000Z</time>
      </trkpt>
      <trkpt lat="39.594046" lon="-0.46177">
        <ele>107</ele>
        <time>2018-11-04T09:39:00.000Z</time>
      </trkpt>
      <trkpt lat="39.594054" lon="-0.461825">
        <ele>107</ele>
        <time>2018-11-04T09:39:01.000Z</time>
      </trkpt>
      <trkpt lat="39.594062" lon="-0.461869">
        <ele>107</ele>
        <time>2018-11-04T09:39:02.000Z</time>
      </trkpt>
      <trkpt lat="39.594069" lon="-0.461913">
        <ele>107</ele>
        <time>2018-11-04T09:39:03.000Z</time>
      </trkpt>
      <trkpt lat="39.59408" lon="-0.461965">
        <ele>107</ele>
        <time>2018-11-04T09:39:04.000Z</time>
      </trkpt>
      <trkpt lat="39.594089" lon="-0.462012">
        <ele>107</ele>
        <time>2018-11-04T09:39:05.000Z</time>
      </trkpt>
      <trkpt lat="39.5941" lon="-0.46205">
        <ele>107</ele>
        <time>2018-11-04T09:39:06.000Z</time>
      </trkpt>
      <trkpt lat="39.594112" lon="-0.462095">
        <ele>107</ele>
        <time>2018-11-04T09:39:07.000Z</time>
      </trkpt>
      <trkpt lat="39.594122" lon="-0.462162">
        <ele>107</ele>
        <time>2018-11-04T09:39:08.000Z</time>
      </trkpt>
      <trkpt lat="39.594128" lon="-0.462228">
        <ele>107</ele>
        <time>2018-11-04T09:39:09.000Z</time>
      </trkpt>
      <trkpt lat="39.594136" lon="-0.462294">
        <ele>107</ele>
        <time>2018-11-04T09:39:10.000Z</time>
      </trkpt>
      <trkpt lat="39.594144" lon="-0.462361">
        <ele>107</ele>
        <time>2018-11-04T09:39:11.000Z</time>
      </trkpt>
      <trkpt lat="39.594144" lon="-0.462424">
        <ele>107</ele>
        <time>2018-11-04T09:39:12.000Z</time>
      </trkpt>
      <trkpt lat="39.594137" lon="-0.462498">
        <ele>107</ele>
        <time>2018-11-04T09:39:13.000Z</time>
      </trkpt>
      <trkpt lat="39.594128" lon="-0.462567">
        <ele>107.700783116137</ele>
        <time>2018-11-04T09:39:14.000Z</time>
      </trkpt>
      <trkpt lat="39.594124" lon="-0.462634">
        <ele>108</ele>
        <time>2018-11-04T09:39:15.000Z</time>
      </trkpt>
      <trkpt lat="39.594117" lon="-0.462696">
        <ele>108</ele>
        <time>2018-11-04T09:39:16.000Z</time>
      </trkpt>
      <trkpt lat="39.594108" lon="-0.462757">
        <ele>107.1100032</ele>
        <time>2018-11-04T09:39:17.000Z</time>
      </trkpt>
      <trkpt lat="39.594106" lon="-0.462813">
        <ele>106.1100032</ele>
        <time>2018-11-04T09:39:18.000Z</time>
      </trkpt>
      <trkpt lat="39.594094" lon="-0.462881">
        <ele>106</ele>
        <time>2018-11-04T09:39:19.000Z</time>
      </trkpt>
      <trkpt lat="39.594082" lon="-0.462963">
        <ele>106</ele>
        <time>2018-11-04T09:39:20.000Z</time>
      </trkpt>
      <trkpt lat="39.59407" lon="-0.463027">
        <ele>106</ele>
        <time>2018-11-04T09:39:21.000Z</time>
      </trkpt>
      <trkpt lat="39.594054" lon="-0.463083">
        <ele>106</ele>
        <time>2018-11-04T09:39:22.000Z</time>
      </trkpt>
      <trkpt lat="39.594039" lon="-0.463139">
        <ele>106</ele>
        <time>2018-11-04T09:39:23.000Z</time>
      </trkpt>
      <trkpt lat="39.594022" lon="-0.463204">
        <ele>106</ele>
        <time>2018-11-04T09:39:24.000Z</time>
      </trkpt>
      <trkpt lat="39.594004" lon="-0.463266">
        <ele>105.1100032</ele>
        <time>2018-11-04T09:39:25.000Z</time>
      </trkpt>
      <trkpt lat="39.593984" lon="-0.463329">
        <ele>105</ele>
        <time>2018-11-04T09:39:26.000Z</time>
      </trkpt>
      <trkpt lat="39.593964" lon="-0.463392">
        <ele>105</ele>
        <time>2018-11-04T09:39:27.000Z</time>
      </trkpt>
      <trkpt lat="39.593946" lon="-0.463445">
        <ele>105</ele>
        <time>2018-11-04T09:39:28.000Z</time>
      </trkpt>
      <trkpt lat="39.593932" lon="-0.463495">
        <ele>104.30469</ele>
        <time>2018-11-04T09:39:29.000Z</time>
      </trkpt>
      <trkpt lat="39.593918" lon="-0.463548">
        <ele>104</ele>
        <time>2018-11-04T09:39:30.000Z</time>
      </trkpt>
      <trkpt lat="39.593896" lon="-0.46361">
        <ele>104</ele>
        <time>2018-11-04T09:39:31.000Z</time>
      </trkpt>
      <trkpt lat="39.593876" lon="-0.463668">
        <ele>104</ele>
        <time>2018-11-04T09:39:32.000Z</time>
      </trkpt>
      <trkpt lat="39.593864" lon="-0.463711">
        <ele>104.700790179201</ele>
        <time>2018-11-04T09:39:33.000Z</time>
      </trkpt>
      <trkpt lat="39.593842" lon="-0.463747">
        <ele>105</ele>
        <time>2018-11-04T09:39:34.000Z</time>
      </trkpt>
      <trkpt lat="39.593819" lon="-0.463789">
        <ele>105</ele>
        <time>2018-11-04T09:39:35.000Z</time>
      </trkpt>
      <trkpt lat="39.593796" lon="-0.463837">
        <ele>105</ele>
        <time>2018-11-04T09:39:36.000Z</time>
      </trkpt>
      <trkpt lat="39.593776" lon="-0.463888">
        <ele>105</ele>
        <time>2018-11-04T09:39:37.000Z</time>
      </trkpt>
      <trkpt lat="39.59375" lon="-0.463938">
        <ele>105</ele>
        <time>2018-11-04T09:39:38.000Z</time>
      </trkpt>
      <trkpt lat="39.593714" lon="-0.463999">
        <ele>105</ele>
        <time>2018-11-04T09:39:39.000Z</time>
      </trkpt>
      <trkpt lat="39.593676" lon="-0.464062">
        <ele>105</ele>
        <time>2018-11-04T09:39:40.000Z</time>
      </trkpt>
      <trkpt lat="39.593638" lon="-0.464118">
        <ele>105</ele>
        <time>2018-11-04T09:39:41.000Z</time>
      </trkpt>
      <trkpt lat="39.593604" lon="-0.464168">
        <ele>105</ele>
        <time>2018-11-04T09:39:42.000Z</time>
      </trkpt>
      <trkpt lat="39.593563" lon="-0.464203">
        <ele>105</ele>
        <time>2018-11-04T09:39:43.000Z</time>
      </trkpt>
      <trkpt lat="39.593518" lon="-0.464245">
        <ele>105</ele>
        <time>2018-11-04T09:39:44.000Z</time>
      </trkpt>
      <trkpt lat="39.593462" lon="-0.464283">
        <ele>105</ele>
        <time>2018-11-04T09:39:45.000Z</time>
      </trkpt>
      <trkpt lat="39.593405" lon="-0.464309">
        <ele>105</ele>
        <time>2018-11-04T09:39:46.000Z</time>
      </trkpt>
      <trkpt lat="39.59335" lon="-0.46433">
        <ele>105</ele>
        <time>2018-11-04T09:39:47.000Z</time>
      </trkpt>
      <trkpt lat="39.593298" lon="-0.46435">
        <ele>105</ele>
        <time>2018-11-04T09:39:48.000Z</time>
      </trkpt>
      <trkpt lat="39.59325" lon="-0.464368">
        <ele>105</ele>
        <time>2018-11-04T09:39:49.000Z</time>
      </trkpt>
      <trkpt lat="39.593202" lon="-0.46439">
        <ele>105.847217777778</ele>
        <time>2018-11-04T09:39:50.000Z</time>
      </trkpt>
      <trkpt lat="39.59316" lon="-0.464413">
        <ele>105.1100032</ele>
        <time>2018-11-04T09:39:51.000Z</time>
      </trkpt>
      <trkpt lat="39.593116" lon="-0.464445">
        <ele>105</ele>
        <time>2018-11-04T09:39:52.000Z</time>
      </trkpt>
      <trkpt lat="39.593074" lon="-0.464489">
        <ele>105</ele>
        <time>2018-11-04T09:39:53.000Z</time>
      </trkpt>
      <trkpt lat="39.593025" lon="-0.464537">
        <ele>105</ele>
        <time>2018-11-04T09:39:54.000Z</time>
      </trkpt>
      <trkpt lat="39.592978" lon="-0.464569">
        <ele>105</ele>
        <time>2018-11-04T09:39:55.000Z</time>
      </trkpt>
      <trkpt lat="39.59294" lon="-0.464598">
        <ele>105</ele>
        <time>2018-11-04T09:39:56.000Z</time>
      </trkpt>
      <trkpt lat="39.592907" lon="-0.464632">
        <ele>105</ele>
        <time>2018-11-04T09:39:57.000Z</time>
      </trkpt>
      <trkpt lat="39.592882" lon="-0.464668">
        <ele>105</ele>
        <time>2018-11-04T09:39:58.000Z</time>
      </trkpt>
      <trkpt lat="39.592854" lon="-0.464705">
        <ele>105</ele>
        <time>2018-11-04T09:39:59.000Z</time>
      </trkpt>
      <trkpt lat="39.592825" lon="-0.464754">
        <ele>105</ele>
        <time>2018-11-04T09:40:00.000Z</time>
      </trkpt>
      <trkpt lat="39.5928" lon="-0.464809">
        <ele>105.881187742377</ele>
        <time>2018-11-04T09:40:01.000Z</time>
      </trkpt>
      <trkpt lat="39.592779" lon="-0.46486">
        <ele>106</ele>
        <time>2018-11-04T09:40:02.000Z</time>
      </trkpt>
      <trkpt lat="39.592761" lon="-0.464907">
        <ele>106</ele>
        <time>2018-11-04T09:40:03.000Z</time>
      </trkpt>
      <trkpt lat="39.592741" lon="-0.46495">
        <ele>106</ele>
        <time>2018-11-04T09:40:04.000Z</time>
      </trkpt>
      <trkpt lat="39.592726" lon="-0.464996">
        <ele>105.1100032</ele>
        <time>2018-11-04T09:40:05.000Z</time>
      </trkpt>
      <trkpt lat="39.592709" lon="-0.465038">
        <ele>105</ele>
        <time>2018-11-04T09:40:06.000Z</time>
      </trkpt>
      <trkpt lat="39.59268" lon="-0.465089">
        <ele>105</ele>
        <time>2018-11-04T09:40:07.000Z</time>
      </trkpt>
      <trkpt lat="39.592636" lon="-0.465147">
        <ele>105</ele>
        <time>2018-11-04T09:40:08.000Z</time>
      </trkpt>
      <trkpt lat="39.592591" lon="-0.46519">
        <ele>104.109113739157</ele>
        <time>2018-11-04T09:40:09.000Z</time>
      </trkpt>
      <trkpt lat="39.592542" lon="-0.465239">
        <ele>104</ele>
        <time>2018-11-04T09:40:10.000Z</time>
      </trkpt>
      <trkpt lat="39.592493" lon="-0.465288">
        <ele>104</ele>
        <time>2018-11-04T09:40:11.000Z</time>
      </trkpt>
      <trkpt lat="39.592453" lon="-0.465335">
        <ele>104</ele>
        <time>2018-11-04T09:40:12.000Z</time>
      </trkpt>
      <trkpt lat="39.592411" lon="-0.46538">
        <ele>104</ele>
        <time>2018-11-04T09:40:13.000Z</time>
      </trkpt>
      <trkpt lat="39.592368" lon="-0.465421">
        <ele>104</ele>
        <time>2018-11-04T09:40:14.000Z</time>
      </trkpt>
      <trkpt lat="39.592326" lon="-0.46546">
        <ele>104</ele>
        <time>2018-11-04T09:40:15.000Z</time>
      </trkpt>
      <trkpt lat="39.592284" lon="-0.465513">
        <ele>104</ele>
        <time>2018-11-04T09:40:16.000Z</time>
      </trkpt>
      <trkpt lat="39.592241" lon="-0.465565">
        <ele>104</ele>
        <time>2018-11-04T09:40:17.000Z</time>
      </trkpt>
      <trkpt lat="39.592198" lon="-0.465604">
        <ele>104</ele>
        <time>2018-11-04T09:40:18.000Z</time>
      </trkpt>
      <trkpt lat="39.59215" lon="-0.46564">
        <ele>104.846256612085</ele>
        <time>2018-11-04T09:40:19.000Z</time>
      </trkpt>
      <trkpt lat="39.592091" lon="-0.465683">
        <ele>105</ele>
        <time>2018-11-04T09:40:20.000Z</time>
      </trkpt>
      <trkpt lat="39.592039" lon="-0.465708">
        <ele>105.8909952</ele>
        <time>2018-11-04T09:40:21.000Z</time>
      </trkpt>
      <trkpt lat="39.591992" lon="-0.465729">
        <ele>106</ele>
        <time>2018-11-04T09:40:22.000Z</time>
      </trkpt>
      <trkpt lat="39.591951" lon="-0.465747">
        <ele>106</ele>
        <time>2018-11-04T09:40:23.000Z</time>
      </trkpt>
      <trkpt lat="39.591912" lon="-0.465758">
        <ele>106</ele>
        <time>2018-11-04T09:40:24.000Z</time>
      </trkpt>
      <trkpt lat="39.59187" lon="-0.465772">
        <ele>106.8909952</ele>
        <time>2018-11-04T09:40:25.000Z</time>
      </trkpt>
      <trkpt lat="39.591832" lon="-0.465788">
        <ele>107</ele>
        <time>2018-11-04T09:40:26.000Z</time>
      </trkpt>
      <trkpt lat="39.591793" lon="-0.465802">
        <ele>107</ele>
        <time>2018-11-04T09:40:27.000Z</time>
      </trkpt>
      <trkpt lat="39.591752" lon="-0.465813">
        <ele>107</ele>
        <time>2018-11-04T09:40:28.000Z</time>
      </trkpt>
      <trkpt lat="39.59171" lon="-0.465821">
        <ele>107</ele>
        <time>2018-11-04T09:40:29.000Z</time>
      </trkpt>
      <trkpt lat="39.591668" lon="-0.465819">
        <ele>107</ele>
        <time>2018-11-04T09:40:30.000Z</time>
      </trkpt>
      <trkpt lat="39.591632" lon="-0.465815">
        <ele>107.84839421776</ele>
        <time>2018-11-04T09:40:31.000Z</time>
      </trkpt>
      <trkpt lat="39.591596" lon="-0.465804">
        <ele>108</ele>
        <time>2018-11-04T09:40:32.000Z</time>
      </trkpt>
      <trkpt lat="39.591562" lon="-0.465785">
        <ele>108</ele>
        <time>2018-11-04T09:40:33.000Z</time>
      </trkpt>
      <trkpt lat="39.59153" lon="-0.465756">
        <ele>108.890106517653</ele>
        <time>2018-11-04T09:40:34.000Z</time>
      </trkpt>
      <trkpt lat="39.591497" lon="-0.465729">
        <ele>109</ele>
        <time>2018-11-04T09:40:35.000Z</time>
      </trkpt>
      <trkpt lat="39.591467" lon="-0.465694">
        <ele>109</ele>
        <time>2018-11-04T09:40:36.000Z</time>
      </trkpt>
      <trkpt lat="39.591442" lon="-0.465654">
        <ele>109.8899968</ele>
        <time>2018-11-04T09:40:37.000Z</time>
      </trkpt>
      <trkpt lat="39.591417" lon="-0.465614">
        <ele>110</ele>
        <time>2018-11-04T09:40:38.000Z</time>
      </trkpt>
      <trkpt lat="39.591394" lon="-0.465574">
        <ele>110</ele>
        <time>2018-11-04T09:40:39.000Z</time>
      </trkpt>
      <trkpt lat="39.591371" lon="-0.465532">
        <ele>110</ele>
        <time>2018-11-04T09:40:40.000Z</time>
      </trkpt>
      <trkpt lat="39.591345" lon="-0.465491">
        <ele>110.8899968</ele>
        <time>2018-11-04T09:40:41.000Z</time>
      </trkpt>
      <trkpt lat="39.591317" lon="-0.46545">
        <ele>111</ele>
        <time>2018-11-04T09:40:42.000Z</time>
      </trkpt>
      <trkpt lat="39.591289" lon="-0.465405">
        <ele>111</ele>
        <time>2018-11-04T09:40:43.000Z</time>
      </trkpt>
      <trkpt lat="39.591261" lon="-0.465363">
        <ele>111</ele>
        <time>2018-11-04T09:40:44.000Z</time>
      </trkpt>
      <trkpt lat="39.591225" lon="-0.465325">
        <ele>111.8899968</ele>
        <time>2018-11-04T09:40:45.000Z</time>
      </trkpt>
      <trkpt lat="39.591191" lon="-0.465288">
        <ele>112</ele>
        <time>2018-11-04T09:40:46.000Z</time>
      </trkpt>
      <trkpt lat="39.591162" lon="-0.465251">
        <ele>112</ele>
        <time>2018-11-04T09:40:47.000Z</time>
      </trkpt>
      <trkpt lat="39.591136" lon="-0.465211">
        <ele>112</ele>
        <time>2018-11-04T09:40:48.000Z</time>
      </trkpt>
      <trkpt lat="39.591108" lon="-0.46517">
        <ele>112</ele>
        <time>2018-11-04T09:40:49.000Z</time>
      </trkpt>
      <trkpt lat="39.59108" lon="-0.465131">
        <ele>112</ele>
        <time>2018-11-04T09:40:50.000Z</time>
      </trkpt>
      <trkpt lat="39.59105" lon="-0.465095">
        <ele>112</ele>
        <time>2018-11-04T09:40:51.000Z</time>
      </trkpt>
      <trkpt lat="39.591023" lon="-0.465058">
        <ele>112</ele>
        <time>2018-11-04T09:40:52.000Z</time>
      </trkpt>
      <trkpt lat="39.590999" lon="-0.465019">
        <ele>112.8899968</ele>
        <time>2018-11-04T09:40:53.000Z</time>
      </trkpt>
      <trkpt lat="39.590965" lon="-0.464984">
        <ele>113</ele>
        <time>2018-11-04T09:40:54.000Z</time>
      </trkpt>
      <trkpt lat="39.590932" lon="-0.464952">
        <ele>113</ele>
        <time>2018-11-04T09:40:55.000Z</time>
      </trkpt>
      <trkpt lat="39.590902" lon="-0.464921">
        <ele>113</ele>
        <time>2018-11-04T09:40:56.000Z</time>
      </trkpt>
      <trkpt lat="39.590874" lon="-0.464892">
        <ele>113</ele>
        <time>2018-11-04T09:40:57.000Z</time>
      </trkpt>
      <trkpt lat="39.590849" lon="-0.464865">
        <ele>113</ele>
        <time>2018-11-04T09:40:58.000Z</time>
      </trkpt>
      <trkpt lat="39.590828" lon="-0.464836">
        <ele>113.8899968</ele>
        <time>2018-11-04T09:40:59.000Z</time>
      </trkpt>
      <trkpt lat="39.590809" lon="-0.464814">
        <ele>114</ele>
        <time>2018-11-04T09:41:00.000Z</time>
      </trkpt>
      <trkpt lat="39.590794" lon="-0.464797">
        <ele>114</ele>
        <time>2018-11-04T09:41:01.000Z</time>
      </trkpt>
      <trkpt lat="39.590795" lon="-0.464769">
        <ele>115.8899968</ele>
        <time>2018-11-04T09:41:26.000Z</time>
      </trkpt>
      <trkpt lat="39.590779" lon="-0.464733">
        <ele>116.849312666573</ele>
        <time>2018-11-04T09:41:28.000Z</time>
      </trkpt>
      <trkpt lat="39.590764" lon="-0.464702">
        <ele>117</ele>
        <time>2018-11-04T09:41:29.000Z</time>
      </trkpt>
      <trkpt lat="39.590742" lon="-0.464667">
        <ele>117.8899968</ele>
        <time>2018-11-04T09:41:30.000Z</time>
      </trkpt>
      <trkpt lat="39.590715" lon="-0.464636">
        <ele>118</ele>
        <time>2018-11-04T09:41:31.000Z</time>
      </trkpt>
      <trkpt lat="39.590693" lon="-0.464603">
        <ele>118</ele>
        <time>2018-11-04T09:41:32.000Z</time>
      </trkpt>
      <trkpt lat="39.590671" lon="-0.46457">
        <ele>118</ele>
        <time>2018-11-04T09:41:33.000Z</time>
      </trkpt>
      <trkpt lat="39.590648" lon="-0.464537">
        <ele>118</ele>
        <time>2018-11-04T09:41:34.000Z</time>
      </trkpt>
      <trkpt lat="39.590616" lon="-0.464509">
        <ele>118</ele>
        <time>2018-11-04T09:41:35.000Z</time>
      </trkpt>
      <trkpt lat="39.590586" lon="-0.464489">
        <ele>118</ele>
        <time>2018-11-04T09:41:36.000Z</time>
      </trkpt>
      <trkpt lat="39.590553" lon="-0.464486">
        <ele>118</ele>
        <time>2018-11-04T09:41:37.000Z</time>
      </trkpt>
      <trkpt lat="39.590509" lon="-0.46451">
        <ele>118</ele>
        <time>2018-11-04T09:41:38.000Z</time>
      </trkpt>
      <trkpt lat="39.590454" lon="-0.464547">
        <ele>118</ele>
        <time>2018-11-04T09:41:39.000Z</time>
      </trkpt>
      <trkpt lat="39.590401" lon="-0.464587">
        <ele>118</ele>
        <time>2018-11-04T09:41:40.000Z</time>
      </trkpt>
      <trkpt lat="39.590352" lon="-0.464617">
        <ele>118</ele>
        <time>2018-11-04T09:41:41.000Z</time>
      </trkpt>
      <trkpt lat="39.590305" lon="-0.464653">
        <ele>118</ele>
        <time>2018-11-04T09:41:42.000Z</time>
      </trkpt>
      <trkpt lat="39.590257" lon="-0.464686">
        <ele>118</ele>
        <time>2018-11-04T09:41:43.000Z</time>
      </trkpt>
      <trkpt lat="39.590207" lon="-0.464721">
        <ele>118</ele>
        <time>2018-11-04T09:41:44.000Z</time>
      </trkpt>
      <trkpt lat="39.59016" lon="-0.464756">
        <ele>117.154933386216</ele>
        <time>2018-11-04T09:41:45.000Z</time>
      </trkpt>
      <trkpt lat="39.590111" lon="-0.464798">
        <ele>117</ele>
        <time>2018-11-04T09:41:46.000Z</time>
      </trkpt>
      <trkpt lat="39.590065" lon="-0.464843">
        <ele>116.154933386216</ele>
        <time>2018-11-04T09:41:47.000Z</time>
      </trkpt>
      <trkpt lat="39.59002" lon="-0.46488">
        <ele>116</ele>
        <time>2018-11-04T09:41:48.000Z</time>
      </trkpt>
      <trkpt lat="39.589974" lon="-0.464915">
        <ele>116</ele>
        <time>2018-11-04T09:41:49.000Z</time>
      </trkpt>
      <trkpt lat="39.589933" lon="-0.464949">
        <ele>116</ele>
        <time>2018-11-04T09:41:50.000Z</time>
      </trkpt>
      <trkpt lat="39.589891" lon="-0.464985">
        <ele>116</ele>
        <time>2018-11-04T09:41:51.000Z</time>
      </trkpt>
      <trkpt lat="39.589851" lon="-0.465025">
        <ele>116</ele>
        <time>2018-11-04T09:41:52.000Z</time>
      </trkpt>
      <trkpt lat="39.589812" lon="-0.465062">
        <ele>115.1100032</ele>
        <time>2018-11-04T09:41:53.000Z</time>
      </trkpt>
      <trkpt lat="39.589775" lon="-0.465101">
        <ele>115</ele>
        <time>2018-11-04T09:41:54.000Z</time>
      </trkpt>
      <trkpt lat="39.589737" lon="-0.465136">
        <ele>115</ele>
        <time>2018-11-04T09:41:55.000Z</time>
      </trkpt>
      <trkpt lat="39.589697" lon="-0.465168">
        <ele>115</ele>
        <time>2018-11-04T09:41:56.000Z</time>
      </trkpt>
      <trkpt lat="39.589655" lon="-0.465202">
        <ele>114.111113984278</ele>
        <time>2018-11-04T09:41:57.000Z</time>
      </trkpt>
      <trkpt lat="39.589608" lon="-0.465236">
        <ele>114</ele>
        <time>2018-11-04T09:41:58.000Z</time>
      </trkpt>
      <trkpt lat="39.589553" lon="-0.46527">
        <ele>113.1100032</ele>
        <time>2018-11-04T09:41:59.000Z</time>
      </trkpt>
      <trkpt lat="39.5895" lon="-0.465303">
        <ele>113</ele>
        <time>2018-11-04T09:42:00.000Z</time>
      </trkpt>
      <trkpt lat="39.589449" lon="-0.46534">
        <ele>113</ele>
        <time>2018-11-04T09:42:01.000Z</time>
      </trkpt>
      <trkpt lat="39.589398" lon="-0.465379">
        <ele>113</ele>
        <time>2018-11-04T09:42:02.000Z</time>
      </trkpt>
      <trkpt lat="39.589349" lon="-0.465415">
        <ele>113</ele>
        <time>2018-11-04T09:42:03.000Z</time>
      </trkpt>
      <trkpt lat="39.589304" lon="-0.465449">
        <ele>113</ele>
        <time>2018-11-04T09:42:04.000Z</time>
      </trkpt>
      <trkpt lat="39.58926" lon="-0.46548">
        <ele>113</ele>
        <time>2018-11-04T09:42:05.000Z</time>
      </trkpt>
      <trkpt lat="39.589214" lon="-0.465512">
        <ele>113</ele>
        <time>2018-11-04T09:42:06.000Z</time>
      </trkpt>
      <trkpt lat="39.589169" lon="-0.465545">
        <ele>113</ele>
        <time>2018-11-04T09:42:07.000Z</time>
      </trkpt>
      <trkpt lat="39.589125" lon="-0.465581">
        <ele>112.1100032</ele>
        <time>2018-11-04T09:42:08.000Z</time>
      </trkpt>
      <trkpt lat="39.589083" lon="-0.465615">
        <ele>112</ele>
        <time>2018-11-04T09:42:09.000Z</time>
      </trkpt>
      <trkpt lat="39.589039" lon="-0.465649">
        <ele>112</ele>
        <time>2018-11-04T09:42:10.000Z</time>
      </trkpt>
      <trkpt lat="39.588997" lon="-0.465688">
        <ele>112</ele>
        <time>2018-11-04T09:42:11.000Z</time>
      </trkpt>
      <trkpt lat="39.588957" lon="-0.465727">
        <ele>112</ele>
        <time>2018-11-04T09:42:12.000Z</time>
      </trkpt>
      <trkpt lat="39.588916" lon="-0.465767">
        <ele>112</ele>
        <time>2018-11-04T09:42:13.000Z</time>
      </trkpt>
      <trkpt lat="39.588876" lon="-0.465809">
        <ele>112</ele>
        <time>2018-11-04T09:42:14.000Z</time>
      </trkpt>
      <trkpt lat="39.588837" lon="-0.465853">
        <ele>112</ele>
        <time>2018-11-04T09:42:15.000Z</time>
      </trkpt>
      <trkpt lat="39.588799" lon="-0.465896">
        <ele>112</ele>
        <time>2018-11-04T09:42:16.000Z</time>
      </trkpt>
      <trkpt lat="39.588761" lon="-0.465936">
        <ele>112</ele>
        <time>2018-11-04T09:42:17.000Z</time>
      </trkpt>
      <trkpt lat="39.58872" lon="-0.465968">
        <ele>112</ele>
        <time>2018-11-04T09:42:18.000Z</time>
      </trkpt>
      <trkpt lat="39.588683" lon="-0.466002">
        <ele>112</ele>
        <time>2018-11-04T09:42:19.000Z</time>
      </trkpt>
      <trkpt lat="39.588647" lon="-0.466038">
        <ele>112</ele>
        <time>2018-11-04T09:42:20.000Z</time>
      </trkpt>
      <trkpt lat="39.588611" lon="-0.466072">
        <ele>112</ele>
        <time>2018-11-04T09:42:21.000Z</time>
      </trkpt>
      <trkpt lat="39.588576" lon="-0.466105">
        <ele>112.881187742377</ele>
        <time>2018-11-04T09:42:22.000Z</time>
      </trkpt>
      <trkpt lat="39.588537" lon="-0.466139">
        <ele>113</ele>
        <time>2018-11-04T09:42:23.000Z</time>
      </trkpt>
      <trkpt lat="39.588499" lon="-0.466172">
        <ele>113</ele>
        <time>2018-11-04T09:42:24.000Z</time>
      </trkpt>
      <trkpt lat="39.588461" lon="-0.466205">
        <ele>113.842854008192</ele>
        <time>2018-11-04T09:42:25.000Z</time>
      </trkpt>
      <trkpt lat="39.58842" lon="-0.466237">
        <ele>114</ele>
        <time>2018-11-04T09:42:26.000Z</time>
      </trkpt>
      <trkpt lat="39.58838" lon="-0.466269">
        <ele>114.8899968</ele>
        <time>2018-11-04T09:42:27.000Z</time>
      </trkpt>
      <trkpt lat="39.588339" lon="-0.466302">
        <ele>115</ele>
        <time>2018-11-04T09:42:28.000Z</time>
      </trkpt>
      <trkpt lat="39.588299" lon="-0.466336">
        <ele>115.8899968</ele>
        <time>2018-11-04T09:42:29.000Z</time>
      </trkpt>
      <trkpt lat="39.588262" lon="-0.466369">
        <ele>116</ele>
        <time>2018-11-04T09:42:30.000Z</time>
      </trkpt>
      <trkpt lat="39.588224" lon="-0.466404">
        <ele>116.8899968</ele>
        <time>2018-11-04T09:42:31.000Z</time>
      </trkpt>
      <trkpt lat="39.588187" lon="-0.466443">
        <ele>117</ele>
        <time>2018-11-04T09:42:32.000Z</time>
      </trkpt>
      <trkpt lat="39.588152" lon="-0.466483">
        <ele>117</ele>
        <time>2018-11-04T09:42:33.000Z</time>
      </trkpt>
      <trkpt lat="39.588117" lon="-0.466524">
        <ele>117</ele>
        <time>2018-11-04T09:42:34.000Z</time>
      </trkpt>
      <trkpt lat="39.588086" lon="-0.466574">
        <ele>116.157145991808</ele>
        <time>2018-11-04T09:42:35.000Z</time>
      </trkpt>
      <trkpt lat="39.588062" lon="-0.466633">
        <ele>116</ele>
        <time>2018-11-04T09:42:36.000Z</time>
      </trkpt>
      <trkpt lat="39.588044" lon="-0.466707">
        <ele>115.1100032</ele>
        <time>2018-11-04T09:42:37.000Z</time>
      </trkpt>
      <trkpt lat="39.588031" lon="-0.466778">
        <ele>114.1100032</ele>
        <time>2018-11-04T09:42:38.000Z</time>
      </trkpt>
      <trkpt lat="39.588022" lon="-0.466857">
        <ele>113.1100032</ele>
        <time>2018-11-04T09:42:39.000Z</time>
      </trkpt>
      <trkpt lat="39.58801" lon="-0.466931">
        <ele>113</ele>
        <time>2018-11-04T09:42:40.000Z</time>
      </trkpt>
      <trkpt lat="39.587993" lon="-0.466996">
        <ele>112.1100032</ele>
        <time>2018-11-04T09:42:41.000Z</time>
      </trkpt>
      <trkpt lat="39.587968" lon="-0.467053">
        <ele>112</ele>
        <time>2018-11-04T09:42:42.000Z</time>
      </trkpt>
      <trkpt lat="39.587934" lon="-0.467098">
        <ele>111.450617088858</ele>
        <time>2018-11-04T09:42:43.000Z</time>
      </trkpt>
      <trkpt lat="39.587896" lon="-0.467134">
        <ele>111</ele>
        <time>2018-11-04T09:42:44.000Z</time>
      </trkpt>
      <trkpt lat="39.587857" lon="-0.46716">
        <ele>111</ele>
        <time>2018-11-04T09:42:45.000Z</time>
      </trkpt>
      <trkpt lat="39.58781" lon="-0.467172">
        <ele>110.1100032</ele>
        <time>2018-11-04T09:42:46.000Z</time>
      </trkpt>
      <trkpt lat="39.587761" lon="-0.467179">
        <ele>110</ele>
        <time>2018-11-04T09:42:47.000Z</time>
      </trkpt>
      <trkpt lat="39.587713" lon="-0.467184">
        <ele>110</ele>
        <time>2018-11-04T09:42:48.000Z</time>
      </trkpt>
      <trkpt lat="39.587666" lon="-0.467192">
        <ele>110</ele>
        <time>2018-11-04T09:42:49.000Z</time>
      </trkpt>
      <trkpt lat="39.587621" lon="-0.467211">
        <ele>110</ele>
        <time>2018-11-04T09:42:50.000Z</time>
      </trkpt>
      <trkpt lat="39.587577" lon="-0.467238">
        <ele>110</ele>
        <time>2018-11-04T09:42:51.000Z</time>
      </trkpt>
      <trkpt lat="39.587535" lon="-0.46727">
        <ele>110</ele>
        <time>2018-11-04T09:42:52.000Z</time>
      </trkpt>
      <trkpt lat="39.587494" lon="-0.467304">
        <ele>110</ele>
        <time>2018-11-04T09:42:53.000Z</time>
      </trkpt>
      <trkpt lat="39.587455" lon="-0.46734">
        <ele>110</ele>
        <time>2018-11-04T09:42:54.000Z</time>
      </trkpt>
      <trkpt lat="39.587417" lon="-0.467377">
        <ele>110</ele>
        <time>2018-11-04T09:42:55.000Z</time>
      </trkpt>
      <trkpt lat="39.587376" lon="-0.467414">
        <ele>110</ele>
        <time>2018-11-04T09:42:56.000Z</time>
      </trkpt>
      <trkpt lat="39.587336" lon="-0.467449">
        <ele>110</ele>
        <time>2018-11-04T09:42:57.000Z</time>
      </trkpt>
      <trkpt lat="39.587296" lon="-0.467483">
        <ele>110</ele>
        <time>2018-11-04T09:42:58.000Z</time>
      </trkpt>
      <trkpt lat="39.587257" lon="-0.467517">
        <ele>110</ele>
        <time>2018-11-04T09:42:59.000Z</time>
      </trkpt>
      <trkpt lat="39.587217" lon="-0.467549">
        <ele>110</ele>
        <time>2018-11-04T09:43:00.000Z</time>
      </trkpt>
      <trkpt lat="39.587178" lon="-0.46758">
        <ele>110</ele>
        <time>2018-11-04T09:43:01.000Z</time>
      </trkpt>
      <trkpt lat="39.587139" lon="-0.467609">
        <ele>110.684616293496</ele>
        <time>2018-11-04T09:43:02.000Z</time>
      </trkpt>
      <trkpt lat="39.587099" lon="-0.467636">
        <ele>111</ele>
        <time>2018-11-04T09:43:03.000Z</time>
      </trkpt>
      <trkpt lat="39.587061" lon="-0.467664">
        <ele>111</ele>
        <time>2018-11-04T09:43:04.000Z</time>
      </trkpt>
      <trkpt lat="39.587022" lon="-0.467692">
        <ele>111</ele>
        <time>2018-11-04T09:43:05.000Z</time>
      </trkpt>
      <trkpt lat="39.586985" lon="-0.46772">
        <ele>111</ele>
        <time>2018-11-04T09:43:06.000Z</time>
      </trkpt>
      <trkpt lat="39.586947" lon="-0.467746">
        <ele>111</ele>
        <time>2018-11-04T09:43:07.000Z</time>
      </trkpt>
      <trkpt lat="39.586908" lon="-0.467773">
        <ele>111</ele>
        <time>2018-11-04T09:43:08.000Z</time>
      </trkpt>
      <trkpt lat="39.58687" lon="-0.467802">
        <ele>111</ele>
        <time>2018-11-04T09:43:09.000Z</time>
      </trkpt>
      <trkpt lat="39.586834" lon="-0.46783">
        <ele>111</ele>
        <time>2018-11-04T09:43:10.000Z</time>
      </trkpt>
      <trkpt lat="39.586796" lon="-0.46786">
        <ele>111</ele>
        <time>2018-11-04T09:43:11.000Z</time>
      </trkpt>
      <trkpt lat="39.586756" lon="-0.467886">
        <ele>111</ele>
        <time>2018-11-04T09:43:12.000Z</time>
      </trkpt>
      <trkpt lat="39.586717" lon="-0.467911">
        <ele>111</ele>
        <time>2018-11-04T09:43:13.000Z</time>
      </trkpt>
      <trkpt lat="39.586676" lon="-0.467935">
        <ele>111</ele>
        <time>2018-11-04T09:43:14.000Z</time>
      </trkpt>
      <trkpt lat="39.586636" lon="-0.467961">
        <ele>111</ele>
        <time>2018-11-04T09:43:15.000Z</time>
      </trkpt>
      <trkpt lat="39.586596" lon="-0.467986">
        <ele>111</ele>
        <time>2018-11-04T09:43:16.000Z</time>
      </trkpt>
      <trkpt lat="39.586556" lon="-0.468014">
        <ele>111</ele>
        <time>2018-11-04T09:43:17.000Z</time>
      </trkpt>
      <trkpt lat="39.586517" lon="-0.468041">
        <ele>111</ele>
        <time>2018-11-04T09:43:18.000Z</time>
      </trkpt>
      <trkpt lat="39.586478" lon="-0.468069">
        <ele>111</ele>
        <time>2018-11-04T09:43:19.000Z</time>
      </trkpt>
      <trkpt lat="39.586438" lon="-0.468098">
        <ele>111.8899968</ele>
        <time>2018-11-04T09:43:20.000Z</time>
      </trkpt>
      <trkpt lat="39.586398" lon="-0.468124">
        <ele>112</ele>
        <time>2018-11-04T09:43:21.000Z</time>
      </trkpt>
      <trkpt lat="39.586359" lon="-0.468152">
        <ele>112</ele>
        <time>2018-11-04T09:43:22.000Z</time>
      </trkpt>
      <trkpt lat="39.58632" lon="-0.468179">
        <ele>112.8899968</ele>
        <time>2018-11-04T09:43:23.000Z</time>
      </trkpt>
      <trkpt lat="39.586279" lon="-0.468204">
        <ele>113</ele>
        <time>2018-11-04T09:43:24.000Z</time>
      </trkpt>
      <trkpt lat="39.586238" lon="-0.468229">
        <ele>113</ele>
        <time>2018-11-04T09:43:25.000Z</time>
      </trkpt>
      <trkpt lat="39.586196" lon="-0.468253">
        <ele>113</ele>
        <time>2018-11-04T09:43:26.000Z</time>
      </trkpt>
      <trkpt lat="39.586154" lon="-0.468279">
        <ele>113</ele>
        <time>2018-11-04T09:43:27.000Z</time>
      </trkpt>
      <trkpt lat="39.586113" lon="-0.468304">
        <ele>113.842854008192</ele>
        <time>2018-11-04T09:43:28.000Z</time>
      </trkpt>
      <trkpt lat="39.586071" lon="-0.468329">
        <ele>114</ele>
        <time>2018-11-04T09:43:29.000Z</time>
      </trkpt>
      <trkpt lat="39.586029" lon="-0.468354">
        <ele>114</ele>
        <time>2018-11-04T09:43:30.000Z</time>
      </trkpt>
      <trkpt lat="39.585986" lon="-0.468378">
        <ele>114</ele>
        <time>2018-11-04T09:43:31.000Z</time>
      </trkpt>
      <trkpt lat="39.585944" lon="-0.468403">
        <ele>114.8899968</ele>
        <time>2018-11-04T09:43:32.000Z</time>
      </trkpt>
      <trkpt lat="39.585902" lon="-0.468427">
        <ele>115</ele>
        <time>2018-11-04T09:43:33.000Z</time>
      </trkpt>
      <trkpt lat="39.585861" lon="-0.468451">
        <ele>115</ele>
        <time>2018-11-04T09:43:34.000Z</time>
      </trkpt>
      <trkpt lat="39.58582" lon="-0.468474">
        <ele>115</ele>
        <time>2018-11-04T09:43:35.000Z</time>
      </trkpt>
      <trkpt lat="39.585779" lon="-0.468499">
        <ele>115</ele>
        <time>2018-11-04T09:43:36.000Z</time>
      </trkpt>
      <trkpt lat="39.585738" lon="-0.468524">
        <ele>115</ele>
        <time>2018-11-04T09:43:37.000Z</time>
      </trkpt>
      <trkpt lat="39.585695" lon="-0.468547">
        <ele>115</ele>
        <time>2018-11-04T09:43:38.000Z</time>
      </trkpt>
      <trkpt lat="39.585652" lon="-0.468569">
        <ele>115</ele>
        <time>2018-11-04T09:43:39.000Z</time>
      </trkpt>
      <trkpt lat="39.585607" lon="-0.46859">
        <ele>115</ele>
        <time>2018-11-04T09:43:40.000Z</time>
      </trkpt>
      <trkpt lat="39.585563" lon="-0.468615">
        <ele>115</ele>
        <time>2018-11-04T09:43:41.000Z</time>
      </trkpt>
      <trkpt lat="39.585521" lon="-0.468638">
        <ele>115</ele>
        <time>2018-11-04T09:43:42.000Z</time>
      </trkpt>
      <trkpt lat="39.58548" lon="-0.468662">
        <ele>115</ele>
        <time>2018-11-04T09:43:43.000Z</time>
      </trkpt>
      <trkpt lat="39.585438" lon="-0.468684">
        <ele>115</ele>
        <time>2018-11-04T09:43:44.000Z</time>
      </trkpt>
      <trkpt lat="39.585398" lon="-0.468706">
        <ele>115.8899968</ele>
        <time>2018-11-04T09:43:45.000Z</time>
      </trkpt>
      <trkpt lat="39.585357" lon="-0.468726">
        <ele>116</ele>
        <time>2018-11-04T09:43:46.000Z</time>
      </trkpt>
      <trkpt lat="39.585318" lon="-0.468747">
        <ele>116</ele>
        <time>2018-11-04T09:43:47.000Z</time>
      </trkpt>
      <trkpt lat="39.585278" lon="-0.468769">
        <ele>116</ele>
        <time>2018-11-04T09:43:48.000Z</time>
      </trkpt>
      <trkpt lat="39.585239" lon="-0.468791">
        <ele>116.679385210662</ele>
        <time>2018-11-04T09:43:49.000Z</time>
      </trkpt>
      <trkpt lat="39.585202" lon="-0.468809">
        <ele>117</ele>
        <time>2018-11-04T09:43:50.000Z</time>
      </trkpt>
      <trkpt lat="39.585165" lon="-0.468828">
        <ele>117</ele>
        <time>2018-11-04T09:43:51.000Z</time>
      </trkpt>
      <trkpt lat="39.585129" lon="-0.468849">
        <ele>117</ele>
        <time>2018-11-04T09:43:52.000Z</time>
      </trkpt>
      <trkpt lat="39.585093" lon="-0.46887">
        <ele>117</ele>
        <time>2018-11-04T09:43:53.000Z</time>
      </trkpt>
      <trkpt lat="39.585057" lon="-0.468889">
        <ele>117</ele>
        <time>2018-11-04T09:43:54.000Z</time>
      </trkpt>
      <trkpt lat="39.585021" lon="-0.468906">
        <ele>117.888886015722</ele>
        <time>2018-11-04T09:43:55.000Z</time>
      </trkpt>
      <trkpt lat="39.584985" lon="-0.46892">
        <ele>118</ele>
        <time>2018-11-04T09:43:56.000Z</time>
      </trkpt>
      <trkpt lat="39.584951" lon="-0.468936">
        <ele>118</ele>
        <time>2018-11-04T09:43:57.000Z</time>
      </trkpt>
      <trkpt lat="39.584917" lon="-0.468955">
        <ele>118</ele>
        <time>2018-11-04T09:43:58.000Z</time>
      </trkpt>
      <trkpt lat="39.584884" lon="-0.468973">
        <ele>118.684616293496</ele>
        <time>2018-11-04T09:43:59.000Z</time>
      </trkpt>
      <trkpt lat="39.584849" lon="-0.468992">
        <ele>119</ele>
        <time>2018-11-04T09:44:00.000Z</time>
      </trkpt>
      <trkpt lat="39.584813" lon="-0.469012">
        <ele>119</ele>
        <time>2018-11-04T09:44:01.000Z</time>
      </trkpt>
      <trkpt lat="39.584778" lon="-0.469029">
        <ele>119</ele>
        <time>2018-11-04T09:44:02.000Z</time>
      </trkpt>
      <trkpt lat="39.584742" lon="-0.469047">
        <ele>119</ele>
        <time>2018-11-04T09:44:03.000Z</time>
      </trkpt>
      <trkpt lat="39.584706" lon="-0.469065">
        <ele>119.8899968</ele>
        <time>2018-11-04T09:44:04.000Z</time>
      </trkpt>
      <trkpt lat="39.58467" lon="-0.469081">
        <ele>120</ele>
        <time>2018-11-04T09:44:05.000Z</time>
      </trkpt>
      <trkpt lat="39.584635" lon="-0.469097">
        <ele>120</ele>
        <time>2018-11-04T09:44:06.000Z</time>
      </trkpt>
      <trkpt lat="39.584601" lon="-0.469111">
        <ele>120</ele>
        <time>2018-11-04T09:44:07.000Z</time>
      </trkpt>
      <trkpt lat="39.584569" lon="-0.469125">
        <ele>120</ele>
        <time>2018-11-04T09:44:08.000Z</time>
      </trkpt>
      <trkpt lat="39.584537" lon="-0.46914">
        <ele>120</ele>
        <time>2018-11-04T09:44:09.000Z</time>
      </trkpt>
      <trkpt lat="39.584505" lon="-0.469158">
        <ele>120</ele>
        <time>2018-11-04T09:44:10.000Z</time>
      </trkpt>
      <trkpt lat="39.584472" lon="-0.469178">
        <ele>120</ele>
        <time>2018-11-04T09:44:11.000Z</time>
      </trkpt>
      <trkpt lat="39.584438" lon="-0.469196">
        <ele>120</ele>
        <time>2018-11-04T09:44:12.000Z</time>
      </trkpt>
      <trkpt lat="39.584405" lon="-0.469212">
        <ele>120</ele>
        <time>2018-11-04T09:44:13.000Z</time>
      </trkpt>
      <trkpt lat="39.584373" lon="-0.469227">
        <ele>120</ele>
        <time>2018-11-04T09:44:14.000Z</time>
      </trkpt>
      <trkpt lat="39.584341" lon="-0.469243">
        <ele>120</ele>
        <time>2018-11-04T09:44:15.000Z</time>
      </trkpt>
      <trkpt lat="39.584309" lon="-0.46926">
        <ele>120</ele>
        <time>2018-11-04T09:44:16.000Z</time>
      </trkpt>
      <trkpt lat="39.584277" lon="-0.469277">
        <ele>119.157145991808</ele>
        <time>2018-11-04T09:44:17.000Z</time>
      </trkpt>
      <trkpt lat="39.584246" lon="-0.469293">
        <ele>119</ele>
        <time>2018-11-04T09:44:18.000Z</time>
      </trkpt>
      <trkpt lat="39.584214" lon="-0.469308">
        <ele>119.842854008192</ele>
        <time>2018-11-04T09:44:19.000Z</time>
      </trkpt>
      <trkpt lat="39.584181" lon="-0.469325">
        <ele>119.1100032</ele>
        <time>2018-11-04T09:44:20.000Z</time>
      </trkpt>
      <trkpt lat="39.584148" lon="-0.469341">
        <ele>119.8899968</ele>
        <time>2018-11-04T09:44:21.000Z</time>
      </trkpt>
      <trkpt lat="39.584114" lon="-0.469357">
        <ele>120</ele>
        <time>2018-11-04T09:44:22.000Z</time>
      </trkpt>
      <trkpt lat="39.584082" lon="-0.469376">
        <ele>120</ele>
        <time>2018-11-04T09:44:23.000Z</time>
      </trkpt>
      <trkpt lat="39.584049" lon="-0.469394">
        <ele>120</ele>
        <time>2018-11-04T09:44:24.000Z</time>
      </trkpt>
      <trkpt lat="39.584016" lon="-0.46941">
        <ele>120</ele>
        <time>2018-11-04T09:44:25.000Z</time>
      </trkpt>
      <trkpt lat="39.583982" lon="-0.469426">
        <ele>120</ele>
        <time>2018-11-04T09:44:26.000Z</time>
      </trkpt>
      <trkpt lat="39.583948" lon="-0.469442">
        <ele>120</ele>
        <time>2018-11-04T09:44:27.000Z</time>
      </trkpt>
      <trkpt lat="39.583916" lon="-0.469458">
        <ele>120</ele>
        <time>2018-11-04T09:44:28.000Z</time>
      </trkpt>
      <trkpt lat="39.583883" lon="-0.469473">
        <ele>120.8899968</ele>
        <time>2018-11-04T09:44:29.000Z</time>
      </trkpt>
      <trkpt lat="39.58385" lon="-0.469489">
        <ele>121</ele>
        <time>2018-11-04T09:44:30.000Z</time>
      </trkpt>
      <trkpt lat="39.583817" lon="-0.469506">
        <ele>121</ele>
        <time>2018-11-04T09:44:31.000Z</time>
      </trkpt>
      <trkpt lat="39.583784" lon="-0.469523">
        <ele>121</ele>
        <time>2018-11-04T09:44:32.000Z</time>
      </trkpt>
      <trkpt lat="39.58375" lon="-0.469537">
        <ele>121</ele>
        <time>2018-11-04T09:44:33.000Z</time>
      </trkpt>
      <trkpt lat="39.583717" lon="-0.469553">
        <ele>121</ele>
        <time>2018-11-04T09:44:34.000Z</time>
      </trkpt>
      <trkpt lat="39.583686" lon="-0.469571">
        <ele>121</ele>
        <time>2018-11-04T09:44:35.000Z</time>
      </trkpt>
      <trkpt lat="39.583654" lon="-0.46959">
        <ele>121</ele>
        <time>2018-11-04T09:44:36.000Z</time>
      </trkpt>
      <trkpt lat="39.583623" lon="-0.469608">
        <ele>121</ele>
        <time>2018-11-04T09:44:37.000Z</time>
      </trkpt>
      <trkpt lat="39.583591" lon="-0.469626">
        <ele>121</ele>
        <time>2018-11-04T09:44:38.000Z</time>
      </trkpt>
      <trkpt lat="39.583559" lon="-0.469644">
        <ele>121</ele>
        <time>2018-11-04T09:44:39.000Z</time>
      </trkpt>
      <trkpt lat="39.583528" lon="-0.469663">
        <ele>121</ele>
        <time>2018-11-04T09:44:40.000Z</time>
      </trkpt>
      <trkpt lat="39.583496" lon="-0.469683">
        <ele>121</ele>
        <time>2018-11-04T09:44:41.000Z</time>
      </trkpt>
      <trkpt lat="39.583464" lon="-0.469701">
        <ele>121</ele>
        <time>2018-11-04T09:44:42.000Z</time>
      </trkpt>
      <trkpt lat="39.583432" lon="-0.469721">
        <ele>121</ele>
        <time>2018-11-04T09:44:43.000Z</time>
      </trkpt>
      <trkpt lat="39.5834" lon="-0.46974">
        <ele>121</ele>
        <time>2018-11-04T09:44:44.000Z</time>
      </trkpt>
      <trkpt lat="39.583368" lon="-0.469758">
        <ele>121</ele>
        <time>2018-11-04T09:44:45.000Z</time>
      </trkpt>
      <trkpt lat="39.583335" lon="-0.469779">
        <ele>121</ele>
        <time>2018-11-04T09:44:46.000Z</time>
      </trkpt>
      <trkpt lat="39.583302" lon="-0.469801">
        <ele>121</ele>
        <time>2018-11-04T09:44:47.000Z</time>
      </trkpt>
      <trkpt lat="39.583269" lon="-0.46982">
        <ele>121</ele>
        <time>2018-11-04T09:44:48.000Z</time>
      </trkpt>
      <trkpt lat="39.583236" lon="-0.469841">
        <ele>121</ele>
        <time>2018-11-04T09:44:49.000Z</time>
      </trkpt>
      <trkpt lat="39.583202" lon="-0.469861">
        <ele>121</ele>
        <time>2018-11-04T09:44:50.000Z</time>
      </trkpt>
      <trkpt lat="39.583169" lon="-0.469882">
        <ele>121</ele>
        <time>2018-11-04T09:44:51.000Z</time>
      </trkpt>
      <trkpt lat="39.583136" lon="-0.469901">
        <ele>121</ele>
        <time>2018-11-04T09:44:52.000Z</time>
      </trkpt>
      <trkpt lat="39.583103" lon="-0.469919">
        <ele>121</ele>
        <time>2018-11-04T09:44:53.000Z</time>
      </trkpt>
      <trkpt lat="39.58307" lon="-0.469938">
        <ele>121</ele>
        <time>2018-11-04T09:44:54.000Z</time>
      </trkpt>
      <trkpt lat="39.583038" lon="-0.469958">
        <ele>121</ele>
        <time>2018-11-04T09:44:55.000Z</time>
      </trkpt>
      <trkpt lat="39.583004" lon="-0.469976">
        <ele>121</ele>
        <time>2018-11-04T09:44:56.000Z</time>
      </trkpt>
      <trkpt lat="39.582971" lon="-0.469994">
        <ele>121</ele>
        <time>2018-11-04T09:44:57.000Z</time>
      </trkpt>
      <trkpt lat="39.582939" lon="-0.470012">
        <ele>121</ele>
        <time>2018-11-04T09:44:58.000Z</time>
      </trkpt>
      <trkpt lat="39.582907" lon="-0.470029">
        <ele>121</ele>
        <time>2018-11-04T09:44:59.000Z</time>
      </trkpt>
      <trkpt lat="39.582874" lon="-0.470044">
        <ele>121.77632</ele>
        <time>2018-11-04T09:45:00.000Z</time>
      </trkpt>
      <trkpt lat="39.582842" lon="-0.47006">
        <ele>122</ele>
        <time>2018-11-04T09:45:01.000Z</time>
      </trkpt>
      <trkpt lat="39.582811" lon="-0.470074">
        <ele>122</ele>
        <time>2018-11-04T09:45:02.000Z</time>
      </trkpt>
      <trkpt lat="39.58278" lon="-0.470088">
        <ele>122</ele>
        <time>2018-11-04T09:45:03.000Z</time>
      </trkpt>
      <trkpt lat="39.58275" lon="-0.470104">
        <ele>122</ele>
        <time>2018-11-04T09:45:04.000Z</time>
      </trkpt>
      <trkpt lat="39.582719" lon="-0.470121">
        <ele>122</ele>
        <time>2018-11-04T09:45:05.000Z</time>
      </trkpt>
      <trkpt lat="39.582689" lon="-0.470139">
        <ele>122</ele>
        <time>2018-11-04T09:45:06.000Z</time>
      </trkpt>
      <trkpt lat="39.58266" lon="-0.470158">
        <ele>122</ele>
        <time>2018-11-04T09:45:07.000Z</time>
      </trkpt>
      <trkpt lat="39.582631" lon="-0.470174">
        <ele>122</ele>
        <time>2018-11-04T09:45:08.000Z</time>
      </trkpt>
      <trkpt lat="39.582601" lon="-0.47019">
        <ele>122</ele>
        <time>2018-11-04T09:45:09.000Z</time>
      </trkpt>
      <trkpt lat="39.582572" lon="-0.470208">
        <ele>122</ele>
        <time>2018-11-04T09:45:10.000Z</time>
      </trkpt>
      <trkpt lat="39.582545" lon="-0.470229">
        <ele>122</ele>
        <time>2018-11-04T09:45:11.000Z</time>
      </trkpt>
      <trkpt lat="39.582517" lon="-0.470249">
        <ele>122.8899968</ele>
        <time>2018-11-04T09:45:12.000Z</time>
      </trkpt>
      <trkpt lat="39.582489" lon="-0.470267">
        <ele>123</ele>
        <time>2018-11-04T09:45:13.000Z</time>
      </trkpt>
      <trkpt lat="39.582461" lon="-0.470286">
        <ele>123</ele>
        <time>2018-11-04T09:45:14.000Z</time>
      </trkpt>
      <trkpt lat="39.582433" lon="-0.470304">
        <ele>123</ele>
        <time>2018-11-04T09:45:15.000Z</time>
      </trkpt>
      <trkpt lat="39.582404" lon="-0.470322">
        <ele>123</ele>
        <time>2018-11-04T09:45:16.000Z</time>
      </trkpt>
      <trkpt lat="39.582376" lon="-0.47034">
        <ele>123</ele>
        <time>2018-11-04T09:45:17.000Z</time>
      </trkpt>
      <trkpt lat="39.582349" lon="-0.470359">
        <ele>123</ele>
        <time>2018-11-04T09:45:18.000Z</time>
      </trkpt>
      <trkpt lat="39.58232" lon="-0.470373">
        <ele>123.8899968</ele>
        <time>2018-11-04T09:45:19.000Z</time>
      </trkpt>
      <trkpt lat="39.582289" lon="-0.470383">
        <ele>124</ele>
        <time>2018-11-04T09:45:20.000Z</time>
      </trkpt>
      <trkpt lat="39.582258" lon="-0.470392">
        <ele>124</ele>
        <time>2018-11-04T09:45:21.000Z</time>
      </trkpt>
      <trkpt lat="39.582229" lon="-0.470404">
        <ele>124</ele>
        <time>2018-11-04T09:45:22.000Z</time>
      </trkpt>
      <trkpt lat="39.5822" lon="-0.470418">
        <ele>124.881187742377</ele>
        <time>2018-11-04T09:45:23.000Z</time>
      </trkpt>
      <trkpt lat="39.58217" lon="-0.470431">
        <ele>125</ele>
        <time>2018-11-04T09:45:24.000Z</time>
      </trkpt>
      <trkpt lat="39.582139" lon="-0.470443">
        <ele>125</ele>
        <time>2018-11-04T09:45:25.000Z</time>
      </trkpt>
      <trkpt lat="39.582109" lon="-0.470457">
        <ele>125</ele>
        <time>2018-11-04T09:45:26.000Z</time>
      </trkpt>
      <trkpt lat="39.58208" lon="-0.470473">
        <ele>125.8899968</ele>
        <time>2018-11-04T09:45:27.000Z</time>
      </trkpt>
      <trkpt lat="39.58205" lon="-0.470487">
        <ele>126</ele>
        <time>2018-11-04T09:45:28.000Z</time>
      </trkpt>
      <trkpt lat="39.582021" lon="-0.470502">
        <ele>126</ele>
        <time>2018-11-04T09:45:29.000Z</time>
      </trkpt>
      <trkpt lat="39.581992" lon="-0.470518">
        <ele>126</ele>
        <time>2018-11-04T09:45:30.000Z</time>
      </trkpt>
      <trkpt lat="39.581963" lon="-0.470532">
        <ele>126.840577290519</ele>
        <time>2018-11-04T09:45:31.000Z</time>
      </trkpt>
      <trkpt lat="39.581935" lon="-0.470546">
        <ele>127</ele>
        <time>2018-11-04T09:45:32.000Z</time>
      </trkpt>
      <trkpt lat="39.581908" lon="-0.470562">
        <ele>127</ele>
        <time>2018-11-04T09:45:33.000Z</time>
      </trkpt>
      <trkpt lat="39.58188" lon="-0.470576">
        <ele>127</ele>
        <time>2018-11-04T09:45:34.000Z</time>
      </trkpt>
      <trkpt lat="39.581854" lon="-0.470589">
        <ele>127</ele>
        <time>2018-11-04T09:45:35.000Z</time>
      </trkpt>
      <trkpt lat="39.581828" lon="-0.470603">
        <ele>127.8899968</ele>
        <time>2018-11-04T09:45:36.000Z</time>
      </trkpt>
      <trkpt lat="39.581803" lon="-0.470617">
        <ele>128</ele>
        <time>2018-11-04T09:45:37.000Z</time>
      </trkpt>
      <trkpt lat="39.58178" lon="-0.470633">
        <ele>128</ele>
        <time>2018-11-04T09:45:38.000Z</time>
      </trkpt>
      <trkpt lat="39.581756" lon="-0.470649">
        <ele>128</ele>
        <time>2018-11-04T09:45:39.000Z</time>
      </trkpt>
      <trkpt lat="39.581731" lon="-0.470662">
        <ele>128</ele>
        <time>2018-11-04T09:45:40.000Z</time>
      </trkpt>
      <trkpt lat="39.581707" lon="-0.470674">
        <ele>128</ele>
        <time>2018-11-04T09:45:41.000Z</time>
      </trkpt>
      <trkpt lat="39.581684" lon="-0.470689">
        <ele>128</ele>
        <time>2018-11-04T09:45:42.000Z</time>
      </trkpt>
      <trkpt lat="39.581662" lon="-0.470704">
        <ele>128</ele>
        <time>2018-11-04T09:45:43.000Z</time>
      </trkpt>
      <trkpt lat="39.58164" lon="-0.470719">
        <ele>128</ele>
        <time>2018-11-04T09:45:44.000Z</time>
      </trkpt>
      <trkpt lat="39.581619" lon="-0.470732">
        <ele>128</ele>
        <time>2018-11-04T09:45:45.000Z</time>
      </trkpt>
      <trkpt lat="39.581599" lon="-0.470744">
        <ele>128.8899968</ele>
        <time>2018-11-04T09:45:46.000Z</time>
      </trkpt>
      <trkpt lat="39.581577" lon="-0.470757">
        <ele>129</ele>
        <time>2018-11-04T09:45:47.000Z</time>
      </trkpt>
      <trkpt lat="39.581555" lon="-0.470771">
        <ele>129</ele>
        <time>2018-11-04T09:45:48.000Z</time>
      </trkpt>
      <trkpt lat="39.581533" lon="-0.470786">
        <ele>129</ele>
        <time>2018-11-04T09:45:49.000Z</time>
      </trkpt>
      <trkpt lat="39.581512" lon="-0.4708">
        <ele>129</ele>
        <time>2018-11-04T09:45:50.000Z</time>
      </trkpt>
      <trkpt lat="39.581492" lon="-0.470815">
        <ele>129.8899968</ele>
        <time>2018-11-04T09:45:51.000Z</time>
      </trkpt>
      <trkpt lat="39.581471" lon="-0.470829">
        <ele>130</ele>
        <time>2018-11-04T09:45:52.000Z</time>
      </trkpt>
      <trkpt lat="39.58145" lon="-0.47084">
        <ele>130</ele>
        <time>2018-11-04T09:45:53.000Z</time>
      </trkpt>
      <trkpt lat="39.58143" lon="-0.470853">
        <ele>130</ele>
        <time>2018-11-04T09:45:54.000Z</time>
      </trkpt>
      <trkpt lat="39.581411" lon="-0.470869">
        <ele>130</ele>
        <time>2018-11-04T09:45:55.000Z</time>
      </trkpt>
      <trkpt lat="39.581391" lon="-0.470887">
        <ele>130.8899968</ele>
        <time>2018-11-04T09:45:56.000Z</time>
      </trkpt>
      <trkpt lat="39.581371" lon="-0.470902">
        <ele>131</ele>
        <time>2018-11-04T09:45:57.000Z</time>
      </trkpt>
      <trkpt lat="39.58135" lon="-0.470919">
        <ele>131</ele>
        <time>2018-11-04T09:45:58.000Z</time>
      </trkpt>
      <trkpt lat="39.58133" lon="-0.470938">
        <ele>131</ele>
        <time>2018-11-04T09:45:59.000Z</time>
      </trkpt>
      <trkpt lat="39.581309" lon="-0.470953">
        <ele>131</ele>
        <time>2018-11-04T09:46:00.000Z</time>
      </trkpt>
      <trkpt lat="39.581288" lon="-0.470967">
        <ele>131</ele>
        <time>2018-11-04T09:46:01.000Z</time>
      </trkpt>
      <trkpt lat="39.581269" lon="-0.470982">
        <ele>131.8899968</ele>
        <time>2018-11-04T09:46:02.000Z</time>
      </trkpt>
      <trkpt lat="39.58125" lon="-0.470998">
        <ele>132</ele>
        <time>2018-11-04T09:46:03.000Z</time>
      </trkpt>
      <trkpt lat="39.581231" lon="-0.471014">
        <ele>132</ele>
        <time>2018-11-04T09:46:04.000Z</time>
      </trkpt>
      <trkpt lat="39.581212" lon="-0.471029">
        <ele>132</ele>
        <time>2018-11-04T09:46:05.000Z</time>
      </trkpt>
      <trkpt lat="39.581192" lon="-0.471045">
        <ele>132</ele>
        <time>2018-11-04T09:46:06.000Z</time>
      </trkpt>
      <trkpt lat="39.581174" lon="-0.471063">
        <ele>132</ele>
        <time>2018-11-04T09:46:07.000Z</time>
      </trkpt>
      <trkpt lat="39.581155" lon="-0.471083">
        <ele>132</ele>
        <time>2018-11-04T09:46:08.000Z</time>
      </trkpt>
      <trkpt lat="39.581132" lon="-0.471099">
        <ele>132</ele>
        <time>2018-11-04T09:46:09.000Z</time>
      </trkpt>
      <trkpt lat="39.58111" lon="-0.471117">
        <ele>132</ele>
        <time>2018-11-04T09:46:10.000Z</time>
      </trkpt>
      <trkpt lat="39.581088" lon="-0.471133">
        <ele>132</ele>
        <time>2018-11-04T09:46:11.000Z</time>
      </trkpt>
      <trkpt lat="39.581066" lon="-0.471148">
        <ele>132.684616293496</ele>
        <time>2018-11-04T09:46:12.000Z</time>
      </trkpt>
      <trkpt lat="39.581046" lon="-0.471163">
        <ele>133</ele>
        <time>2018-11-04T09:46:13.000Z</time>
      </trkpt>
      <trkpt lat="39.581028" lon="-0.471181">
        <ele>133</ele>
        <time>2018-11-04T09:46:14.000Z</time>
      </trkpt>
      <trkpt lat="39.58101" lon="-0.471199">
        <ele>133</ele>
        <time>2018-11-04T09:46:15.000Z</time>
      </trkpt>
      <trkpt lat="39.58099" lon="-0.471217">
        <ele>133</ele>
        <time>2018-11-04T09:46:16.000Z</time>
      </trkpt>
      <trkpt lat="39.58097" lon="-0.471237">
        <ele>133</ele>
        <time>2018-11-04T09:46:17.000Z</time>
      </trkpt>
      <trkpt lat="39.58095" lon="-0.471255">
        <ele>133</ele>
        <time>2018-11-04T09:46:18.000Z</time>
      </trkpt>
      <trkpt lat="39.58093" lon="-0.471272">
        <ele>133</ele>
        <time>2018-11-04T09:46:19.000Z</time>
      </trkpt>
      <trkpt lat="39.580911" lon="-0.471289">
        <ele>133.8899968</ele>
        <time>2018-11-04T09:46:20.000Z</time>
      </trkpt>
      <trkpt lat="39.580892" lon="-0.471307">
        <ele>134</ele>
        <time>2018-11-04T09:46:21.000Z</time>
      </trkpt>
      <trkpt lat="39.580873" lon="-0.471324">
        <ele>134</ele>
        <time>2018-11-04T09:46:22.000Z</time>
      </trkpt>
      <trkpt lat="39.580853" lon="-0.471342">
        <ele>134</ele>
        <time>2018-11-04T09:46:23.000Z</time>
      </trkpt>
      <trkpt lat="39.580833" lon="-0.471358">
        <ele>134</ele>
        <time>2018-11-04T09:46:24.000Z</time>
      </trkpt>
      <trkpt lat="39.580814" lon="-0.471375">
        <ele>134.8899968</ele>
        <time>2018-11-04T09:46:25.000Z</time>
      </trkpt>
      <trkpt lat="39.580797" lon="-0.471394">
        <ele>135</ele>
        <time>2018-11-04T09:46:26.000Z</time>
      </trkpt>
      <trkpt lat="39.580778" lon="-0.471413">
        <ele>135</ele>
        <time>2018-11-04T09:46:27.000Z</time>
      </trkpt>
      <trkpt lat="39.580759" lon="-0.471432">
        <ele>135</ele>
        <time>2018-11-04T09:46:28.000Z</time>
      </trkpt>
      <trkpt lat="39.580742" lon="-0.471454">
        <ele>135</ele>
        <time>2018-11-04T09:46:29.000Z</time>
      </trkpt>
      <trkpt lat="39.580728" lon="-0.471478">
        <ele>135</ele>
        <time>2018-11-04T09:46:30.000Z</time>
      </trkpt>
      <trkpt lat="39.580715" lon="-0.471503">
        <ele>135</ele>
        <time>2018-11-04T09:46:31.000Z</time>
      </trkpt>
      <trkpt lat="39.580706" lon="-0.471531">
        <ele>135</ele>
        <time>2018-11-04T09:46:32.000Z</time>
      </trkpt>
      <trkpt lat="39.580701" lon="-0.471564">
        <ele>135</ele>
        <time>2018-11-04T09:46:33.000Z</time>
      </trkpt>
      <trkpt lat="39.580698" lon="-0.471599">
        <ele>134.1100032</ele>
        <time>2018-11-04T09:46:34.000Z</time>
      </trkpt>
      <trkpt lat="39.580697" lon="-0.471637">
        <ele>134.8899968</ele>
        <time>2018-11-04T09:46:35.000Z</time>
      </trkpt>
      <trkpt lat="39.580698" lon="-0.471675">
        <ele>134.1100032</ele>
        <time>2018-11-04T09:46:36.000Z</time>
      </trkpt>
      <trkpt lat="39.580695" lon="-0.471715">
        <ele>134</ele>
        <time>2018-11-04T09:46:37.000Z</time>
      </trkpt>
      <trkpt lat="39.580692" lon="-0.471757">
        <ele>134</ele>
        <time>2018-11-04T09:46:38.000Z</time>
      </trkpt>
      <trkpt lat="39.580684" lon="-0.471801">
        <ele>134</ele>
        <time>2018-11-04T09:46:39.000Z</time>
      </trkpt>
      <trkpt lat="39.580674" lon="-0.471842">
        <ele>134</ele>
        <time>2018-11-04T09:46:40.000Z</time>
      </trkpt>
      <trkpt lat="39.580659" lon="-0.471882">
        <ele>134</ele>
        <time>2018-11-04T09:46:41.000Z</time>
      </trkpt>
      <trkpt lat="39.580636" lon="-0.47192">
        <ele>133.1100032</ele>
        <time>2018-11-04T09:46:42.000Z</time>
      </trkpt>
      <trkpt lat="39.580607" lon="-0.471957">
        <ele>133</ele>
        <time>2018-11-04T09:46:43.000Z</time>
      </trkpt>
      <trkpt lat="39.580574" lon="-0.471988">
        <ele>133</ele>
        <time>2018-11-04T09:46:44.000Z</time>
      </trkpt>
      <trkpt lat="39.580534" lon="-0.472007">
        <ele>132.1100032</ele>
        <time>2018-11-04T09:46:45.000Z</time>
      </trkpt>
      <trkpt lat="39.580492" lon="-0.472023">
        <ele>131.315383706504</ele>
        <time>2018-11-04T09:46:46.000Z</time>
      </trkpt>
      <trkpt lat="39.580449" lon="-0.472038">
        <ele>131</ele>
        <time>2018-11-04T09:46:47.000Z</time>
      </trkpt>
      <trkpt lat="39.580402" lon="-0.472058">
        <ele>130.118812257623</ele>
        <time>2018-11-04T09:46:48.000Z</time>
      </trkpt>
      <trkpt lat="39.580354" lon="-0.472087">
        <ele>130</ele>
        <time>2018-11-04T09:46:49.000Z</time>
      </trkpt>
      <trkpt lat="39.580306" lon="-0.472128">
        <ele>130</ele>
        <time>2018-11-04T09:46:50.000Z</time>
      </trkpt>
      <trkpt lat="39.580261" lon="-0.472178">
        <ele>130</ele>
        <time>2018-11-04T09:46:51.000Z</time>
      </trkpt>
      <trkpt lat="39.580217" lon="-0.472233">
        <ele>130</ele>
        <time>2018-11-04T09:46:52.000Z</time>
      </trkpt>
      <trkpt lat="39.580174" lon="-0.472291">
        <ele>130</ele>
        <time>2018-11-04T09:46:53.000Z</time>
      </trkpt>
      <trkpt lat="39.580131" lon="-0.47235">
        <ele>129.315383706504</ele>
        <time>2018-11-04T09:46:54.000Z</time>
      </trkpt>
      <trkpt lat="39.580089" lon="-0.472414">
        <ele>129</ele>
        <time>2018-11-04T09:46:55.000Z</time>
      </trkpt>
      <trkpt lat="39.580047" lon="-0.472479">
        <ele>129</ele>
        <time>2018-11-04T09:46:56.000Z</time>
      </trkpt>
      <trkpt lat="39.580006" lon="-0.472544">
        <ele>129</ele>
        <time>2018-11-04T09:46:57.000Z</time>
      </trkpt>
      <trkpt lat="39.579963" lon="-0.472609">
        <ele>128.1100032</ele>
        <time>2018-11-04T09:46:58.000Z</time>
      </trkpt>
      <trkpt lat="39.579921" lon="-0.472677">
        <ele>128</ele>
        <time>2018-11-04T09:46:59.000Z</time>
      </trkpt>
      <trkpt lat="39.57988" lon="-0.472747">
        <ele>128</ele>
        <time>2018-11-04T09:47:00.000Z</time>
      </trkpt>
      <trkpt lat="39.579841" lon="-0.472819">
        <ele>127.1100032</ele>
        <time>2018-11-04T09:47:01.000Z</time>
      </trkpt>
      <trkpt lat="39.579801" lon="-0.472889">
        <ele>127</ele>
        <time>2018-11-04T09:47:02.000Z</time>
      </trkpt>
      <trkpt lat="39.579761" lon="-0.472959">
        <ele>127</ele>
        <time>2018-11-04T09:47:03.000Z</time>
      </trkpt>
      <trkpt lat="39.579723" lon="-0.473032">
        <ele>126.1100032</ele>
        <time>2018-11-04T09:47:04.000Z</time>
      </trkpt>
      <trkpt lat="39.579687" lon="-0.473109">
        <ele>126</ele>
        <time>2018-11-04T09:47:05.000Z</time>
      </trkpt>
      <trkpt lat="39.579652" lon="-0.473185">
        <ele>125.1100032</ele>
        <time>2018-11-04T09:47:06.000Z</time>
      </trkpt>
      <trkpt lat="39.579615" lon="-0.473259">
        <ele>125</ele>
        <time>2018-11-04T09:47:07.000Z</time>
      </trkpt>
      <trkpt lat="39.579579" lon="-0.473335">
        <ele>124.1100032</ele>
        <time>2018-11-04T09:47:08.000Z</time>
      </trkpt>
      <trkpt lat="39.579542" lon="-0.473408">
        <ele>124</ele>
        <time>2018-11-04T09:47:09.000Z</time>
      </trkpt>
      <trkpt lat="39.579502" lon="-0.473479">
        <ele>124</ele>
        <time>2018-11-04T09:47:10.000Z</time>
      </trkpt>
      <trkpt lat="39.579466" lon="-0.473555">
        <ele>123.1100032</ele>
        <time>2018-11-04T09:47:11.000Z</time>
      </trkpt>
      <trkpt lat="39.579431" lon="-0.473632">
        <ele>123</ele>
        <time>2018-11-04T09:47:12.000Z</time>
      </trkpt>
      <trkpt lat="39.579399" lon="-0.47371">
        <ele>123</ele>
        <time>2018-11-04T09:47:13.000Z</time>
      </trkpt>
      <trkpt lat="39.579364" lon="-0.473789">
        <ele>123</ele>
        <time>2018-11-04T09:47:14.000Z</time>
      </trkpt>
      <trkpt lat="39.579329" lon="-0.473867">
        <ele>123</ele>
        <time>2018-11-04T09:47:15.000Z</time>
      </trkpt>
      <trkpt lat="39.579295" lon="-0.473947">
        <ele>122.355071791637</ele>
        <time>2018-11-04T09:47:16.000Z</time>
      </trkpt>
      <trkpt lat="39.579261" lon="-0.474028">
        <ele>122</ele>
        <time>2018-11-04T09:47:17.000Z</time>
      </trkpt>
      <trkpt lat="39.579228" lon="-0.47411">
        <ele>122</ele>
        <time>2018-11-04T09:47:18.000Z</time>
      </trkpt>
      <trkpt lat="39.579195" lon="-0.474193">
        <ele>122</ele>
        <time>2018-11-04T09:47:19.000Z</time>
      </trkpt>
      <trkpt lat="39.579163" lon="-0.474276">
        <ele>122</ele>
        <time>2018-11-04T09:47:20.000Z</time>
      </trkpt>
      <trkpt lat="39.579132" lon="-0.474359">
        <ele>122</ele>
        <time>2018-11-04T09:47:21.000Z</time>
      </trkpt>
      <trkpt lat="39.5791" lon="-0.47444">
        <ele>121.1100032</ele>
        <time>2018-11-04T09:47:22.000Z</time>
      </trkpt>
      <trkpt lat="39.579067" lon="-0.47452">
        <ele>121</ele>
        <time>2018-11-04T09:47:23.000Z</time>
      </trkpt>
      <trkpt lat="39.579035" lon="-0.4746">
        <ele>121</ele>
        <time>2018-11-04T09:47:24.000Z</time>
      </trkpt>
      <trkpt lat="39.579005" lon="-0.474681">
        <ele>121</ele>
        <time>2018-11-04T09:47:25.000Z</time>
      </trkpt>
      <trkpt lat="39.578976" lon="-0.474761">
        <ele>121</ele>
        <time>2018-11-04T09:47:26.000Z</time>
      </trkpt>
      <trkpt lat="39.578946" lon="-0.474841">
        <ele>121</ele>
        <time>2018-11-04T09:47:27.000Z</time>
      </trkpt>
      <trkpt lat="39.578915" lon="-0.474919">
        <ele>121.700783116137</ele>
        <time>2018-11-04T09:47:28.000Z</time>
      </trkpt>
      <trkpt lat="39.578884" lon="-0.474996">
        <ele>122</ele>
        <time>2018-11-04T09:47:29.000Z</time>
      </trkpt>
      <trkpt lat="39.578855" lon="-0.475072">
        <ele>122</ele>
        <time>2018-11-04T09:47:30.000Z</time>
      </trkpt>
      <trkpt lat="39.578828" lon="-0.475149">
        <ele>122</ele>
        <time>2018-11-04T09:47:31.000Z</time>
      </trkpt>
      <trkpt lat="39.578804" lon="-0.475226">
        <ele>122</ele>
        <time>2018-11-04T09:47:32.000Z</time>
      </trkpt>
      <trkpt lat="39.578781" lon="-0.475301">
        <ele>122</ele>
        <time>2018-11-04T09:47:33.000Z</time>
      </trkpt>
      <trkpt lat="39.578758" lon="-0.475374">
        <ele>122.8899968</ele>
        <time>2018-11-04T09:47:34.000Z</time>
      </trkpt>
      <trkpt lat="39.578734" lon="-0.475444">
        <ele>122.1100032</ele>
        <time>2018-11-04T09:47:35.000Z</time>
      </trkpt>
      <trkpt lat="39.578711" lon="-0.475512">
        <ele>122</ele>
        <time>2018-11-04T09:47:36.000Z</time>
      </trkpt>
      <trkpt lat="39.578689" lon="-0.475579">
        <ele>122</ele>
        <time>2018-11-04T09:47:37.000Z</time>
      </trkpt>
      <trkpt lat="39.578669" lon="-0.475645">
        <ele>122</ele>
        <time>2018-11-04T09:47:38.000Z</time>
      </trkpt>
      <trkpt lat="39.57865" lon="-0.475711">
        <ele>122</ele>
        <time>2018-11-04T09:47:39.000Z</time>
      </trkpt>
      <trkpt lat="39.578631" lon="-0.475777">
        <ele>122</ele>
        <time>2018-11-04T09:47:40.000Z</time>
      </trkpt>
      <trkpt lat="39.57861" lon="-0.47584">
        <ele>122</ele>
        <time>2018-11-04T09:47:41.000Z</time>
      </trkpt>
      <trkpt lat="39.578588" lon="-0.475901">
        <ele>122</ele>
        <time>2018-11-04T09:47:42.000Z</time>
      </trkpt>
      <trkpt lat="39.578568" lon="-0.475962">
        <ele>122</ele>
        <time>2018-11-04T09:47:43.000Z</time>
      </trkpt>
      <trkpt lat="39.578549" lon="-0.476023">
        <ele>122</ele>
        <time>2018-11-04T09:47:44.000Z</time>
      </trkpt>
      <trkpt lat="39.578532" lon="-0.476083">
        <ele>122</ele>
        <time>2018-11-04T09:47:45.000Z</time>
      </trkpt>
      <trkpt lat="39.578515" lon="-0.476143">
        <ele>122</ele>
        <time>2018-11-04T09:47:46.000Z</time>
      </trkpt>
      <trkpt lat="39.578499" lon="-0.476202">
        <ele>121.299209820799</ele>
        <time>2018-11-04T09:47:47.000Z</time>
      </trkpt>
      <trkpt lat="39.578482" lon="-0.476262">
        <ele>121</ele>
        <time>2018-11-04T09:47:48.000Z</time>
      </trkpt>
      <trkpt lat="39.578465" lon="-0.47632">
        <ele>121</ele>
        <time>2018-11-04T09:47:49.000Z</time>
      </trkpt>
      <trkpt lat="39.578449" lon="-0.476378">
        <ele>121</ele>
        <time>2018-11-04T09:47:50.000Z</time>
      </trkpt>
      <trkpt lat="39.578434" lon="-0.476436">
        <ele>121</ele>
        <time>2018-11-04T09:47:51.000Z</time>
      </trkpt>
      <trkpt lat="39.578417" lon="-0.476492">
        <ele>121</ele>
        <time>2018-11-04T09:47:52.000Z</time>
      </trkpt>
      <trkpt lat="39.5784" lon="-0.476548">
        <ele>121</ele>
        <time>2018-11-04T09:47:53.000Z</time>
      </trkpt>
      <trkpt lat="39.578383" lon="-0.476603">
        <ele>121</ele>
        <time>2018-11-04T09:47:54.000Z</time>
      </trkpt>
      <trkpt lat="39.578366" lon="-0.476659">
        <ele>121</ele>
        <time>2018-11-04T09:47:55.000Z</time>
      </trkpt>
      <trkpt lat="39.57835" lon="-0.476713">
        <ele>121</ele>
        <time>2018-11-04T09:47:56.000Z</time>
      </trkpt>
      <trkpt lat="39.578335" lon="-0.476768">
        <ele>121</ele>
        <time>2018-11-04T09:47:57.000Z</time>
      </trkpt>
      <trkpt lat="39.578321" lon="-0.476824">
        <ele>121</ele>
        <time>2018-11-04T09:47:58.000Z</time>
      </trkpt>
      <trkpt lat="39.578305" lon="-0.476879">
        <ele>121</ele>
        <time>2018-11-04T09:47:59.000Z</time>
      </trkpt>
      <trkpt lat="39.578288" lon="-0.476933">
        <ele>121</ele>
        <time>2018-11-04T09:48:00.000Z</time>
      </trkpt>
      <trkpt lat="39.578272" lon="-0.476988">
        <ele>121</ele>
        <time>2018-11-04T09:48:01.000Z</time>
      </trkpt>
      <trkpt lat="39.578258" lon="-0.477042">
        <ele>121</ele>
        <time>2018-11-04T09:48:02.000Z</time>
      </trkpt>
      <trkpt lat="39.578242" lon="-0.477098">
        <ele>121</ele>
        <time>2018-11-04T09:48:03.000Z</time>
      </trkpt>
      <trkpt lat="39.578224" lon="-0.477152">
        <ele>121</ele>
        <time>2018-11-04T09:48:04.000Z</time>
      </trkpt>
      <trkpt lat="39.578207" lon="-0.477208">
        <ele>121</ele>
        <time>2018-11-04T09:48:05.000Z</time>
      </trkpt>
      <trkpt lat="39.578192" lon="-0.477262">
        <ele>121</ele>
        <time>2018-11-04T09:48:06.000Z</time>
      </trkpt>
      <trkpt lat="39.578176" lon="-0.477317">
        <ele>121</ele>
        <time>2018-11-04T09:48:07.000Z</time>
      </trkpt>
      <trkpt lat="39.578161" lon="-0.477369">
        <ele>121.8899968</ele>
        <time>2018-11-04T09:48:08.000Z</time>
      </trkpt>
      <trkpt lat="39.578145" lon="-0.477421">
        <ele>122</ele>
        <time>2018-11-04T09:48:09.000Z</time>
      </trkpt>
      <trkpt lat="39.578128" lon="-0.477475">
        <ele>122</ele>
        <time>2018-11-04T09:48:10.000Z</time>
      </trkpt>
      <trkpt lat="39.578113" lon="-0.477531">
        <ele>122</ele>
        <time>2018-11-04T09:48:11.000Z</time>
      </trkpt>
      <trkpt lat="39.578099" lon="-0.477586">
        <ele>122</ele>
        <time>2018-11-04T09:48:12.000Z</time>
      </trkpt>
      <trkpt lat="39.578082" lon="-0.477639">
        <ele>122</ele>
        <time>2018-11-04T09:48:13.000Z</time>
      </trkpt>
      <trkpt lat="39.578064" lon="-0.477692">
        <ele>122</ele>
        <time>2018-11-04T09:48:14.000Z</time>
      </trkpt>
      <trkpt lat="39.578049" lon="-0.477746">
        <ele>122</ele>
        <time>2018-11-04T09:48:15.000Z</time>
      </trkpt>
      <trkpt lat="39.578035" lon="-0.4778">
        <ele>122</ele>
        <time>2018-11-04T09:48:16.000Z</time>
      </trkpt>
      <trkpt lat="39.57802" lon="-0.477853">
        <ele>122</ele>
        <time>2018-11-04T09:48:17.000Z</time>
      </trkpt>
      <trkpt lat="39.578004" lon="-0.477905">
        <ele>122.8899968</ele>
        <time>2018-11-04T09:48:18.000Z</time>
      </trkpt>
      <trkpt lat="39.577987" lon="-0.477957">
        <ele>123</ele>
        <time>2018-11-04T09:48:19.000Z</time>
      </trkpt>
      <trkpt lat="39.577971" lon="-0.47801">
        <ele>123</ele>
        <time>2018-11-04T09:48:20.000Z</time>
      </trkpt>
      <trkpt lat="39.577956" lon="-0.478064">
        <ele>123</ele>
        <time>2018-11-04T09:48:21.000Z</time>
      </trkpt>
      <trkpt lat="39.57794" lon="-0.478117">
        <ele>123</ele>
        <time>2018-11-04T09:48:22.000Z</time>
      </trkpt>
      <trkpt lat="39.577926" lon="-0.478169">
        <ele>123</ele>
        <time>2018-11-04T09:48:23.000Z</time>
      </trkpt>
      <trkpt lat="39.577913" lon="-0.47822">
        <ele>123</ele>
        <time>2018-11-04T09:48:24.000Z</time>
      </trkpt>
      <trkpt lat="39.577899" lon="-0.478269">
        <ele>123</ele>
        <time>2018-11-04T09:48:25.000Z</time>
      </trkpt>
      <trkpt lat="39.577884" lon="-0.478319">
        <ele>123</ele>
        <time>2018-11-04T09:48:26.000Z</time>
      </trkpt>
      <trkpt lat="39.577868" lon="-0.47837">
        <ele>123</ele>
        <time>2018-11-04T09:48:27.000Z</time>
      </trkpt>
      <trkpt lat="39.577851" lon="-0.478423">
        <ele>123</ele>
        <time>2018-11-04T09:48:28.000Z</time>
      </trkpt>
      <trkpt lat="39.577835" lon="-0.478476">
        <ele>123</ele>
        <time>2018-11-04T09:48:29.000Z</time>
      </trkpt>
      <trkpt lat="39.57782" lon="-0.478531">
        <ele>123</ele>
        <time>2018-11-04T09:48:30.000Z</time>
      </trkpt>
      <trkpt lat="39.577804" lon="-0.478586">
        <ele>123</ele>
        <time>2018-11-04T09:48:31.000Z</time>
      </trkpt>
      <trkpt lat="39.577788" lon="-0.478641">
        <ele>123</ele>
        <time>2018-11-04T09:48:32.000Z</time>
      </trkpt>
      <trkpt lat="39.577773" lon="-0.478696">
        <ele>123</ele>
        <time>2018-11-04T09:48:33.000Z</time>
      </trkpt>
      <trkpt lat="39.577758" lon="-0.478751">
        <ele>123</ele>
        <time>2018-11-04T09:48:34.000Z</time>
      </trkpt>
      <trkpt lat="39.577743" lon="-0.478804">
        <ele>123</ele>
        <time>2018-11-04T09:48:35.000Z</time>
      </trkpt>
      <trkpt lat="39.577726" lon="-0.478856">
        <ele>123.849312666573</ele>
        <time>2018-11-04T09:48:36.000Z</time>
      </trkpt>
      <trkpt lat="39.577712" lon="-0.478907">
        <ele>124</ele>
        <time>2018-11-04T09:48:37.000Z</time>
      </trkpt>
      <trkpt lat="39.577696" lon="-0.478958">
        <ele>124.8899968</ele>
        <time>2018-11-04T09:48:38.000Z</time>
      </trkpt>
      <trkpt lat="39.577683" lon="-0.479008">
        <ele>125</ele>
        <time>2018-11-04T09:48:39.000Z</time>
      </trkpt>
      <trkpt lat="39.57767" lon="-0.479059">
        <ele>125</ele>
        <time>2018-11-04T09:48:40.000Z</time>
      </trkpt>
      <trkpt lat="39.577658" lon="-0.479109">
        <ele>125</ele>
        <time>2018-11-04T09:48:41.000Z</time>
      </trkpt>
      <trkpt lat="39.577644" lon="-0.479158">
        <ele>125</ele>
        <time>2018-11-04T09:48:42.000Z</time>
      </trkpt>
      <trkpt lat="39.577629" lon="-0.479207">
        <ele>125.8899968</ele>
        <time>2018-11-04T09:48:43.000Z</time>
      </trkpt>
      <trkpt lat="39.577613" lon="-0.479255">
        <ele>126</ele>
        <time>2018-11-04T09:48:44.000Z</time>
      </trkpt>
      <trkpt lat="39.577597" lon="-0.479302">
        <ele>126</ele>
        <time>2018-11-04T09:48:45.000Z</time>
      </trkpt>
      <trkpt lat="39.577579" lon="-0.479348">
        <ele>126</ele>
        <time>2018-11-04T09:48:46.000Z</time>
      </trkpt>
      <trkpt lat="39.577561" lon="-0.479395">
        <ele>126</ele>
        <time>2018-11-04T09:48:47.000Z</time>
      </trkpt>
      <trkpt lat="39.577544" lon="-0.479442">
        <ele>126.847217777778</ele>
        <time>2018-11-04T09:48:48.000Z</time>
      </trkpt>
      <trkpt lat="39.577525" lon="-0.479488">
        <ele>127</ele>
        <time>2018-11-04T09:48:49.000Z</time>
      </trkpt>
      <trkpt lat="39.577507" lon="-0.479534">
        <ele>127</ele>
        <time>2018-11-04T09:48:50.000Z</time>
      </trkpt>
      <trkpt lat="39.577488" lon="-0.47958">
        <ele>127</ele>
        <time>2018-11-04T09:48:51.000Z</time>
      </trkpt>
      <trkpt lat="39.577467" lon="-0.479625">
        <ele>127.8899968</ele>
        <time>2018-11-04T09:48:52.000Z</time>
      </trkpt>
      <trkpt lat="39.577443" lon="-0.47967">
        <ele>128</ele>
        <time>2018-11-04T09:48:53.000Z</time>
      </trkpt>
      <trkpt lat="39.577418" lon="-0.479716">
        <ele>128</ele>
        <time>2018-11-04T09:48:54.000Z</time>
      </trkpt>
      <trkpt lat="39.577392" lon="-0.479759">
        <ele>128</ele>
        <time>2018-11-04T09:48:55.000Z</time>
      </trkpt>
      <trkpt lat="39.577367" lon="-0.479805">
        <ele>128</ele>
        <time>2018-11-04T09:48:56.000Z</time>
      </trkpt>
      <trkpt lat="39.577341" lon="-0.47985">
        <ele>128.8899968</ele>
        <time>2018-11-04T09:48:57.000Z</time>
      </trkpt>
      <trkpt lat="39.577314" lon="-0.479893">
        <ele>129</ele>
        <time>2018-11-04T09:48:58.000Z</time>
      </trkpt>
      <trkpt lat="39.577287" lon="-0.479937">
        <ele>129</ele>
        <time>2018-11-04T09:48:59.000Z</time>
      </trkpt>
      <trkpt lat="39.577259" lon="-0.479978">
        <ele>129</ele>
        <time>2018-11-04T09:49:00.000Z</time>
      </trkpt>
      <trkpt lat="39.57723" lon="-0.480018">
        <ele>129</ele>
        <time>2018-11-04T09:49:01.000Z</time>
      </trkpt>
      <trkpt lat="39.577202" lon="-0.480059">
        <ele>129.8899968</ele>
        <time>2018-11-04T09:49:02.000Z</time>
      </trkpt>
      <trkpt lat="39.577171" lon="-0.480096">
        <ele>130</ele>
        <time>2018-11-04T09:49:03.000Z</time>
      </trkpt>
      <trkpt lat="39.57714" lon="-0.480134">
        <ele>130</ele>
        <time>2018-11-04T09:49:04.000Z</time>
      </trkpt>
      <trkpt lat="39.577107" lon="-0.480171">
        <ele>130</ele>
        <time>2018-11-04T09:49:05.000Z</time>
      </trkpt>
      <trkpt lat="39.577075" lon="-0.480207">
        <ele>130</ele>
        <time>2018-11-04T09:49:06.000Z</time>
      </trkpt>
      <trkpt lat="39.577042" lon="-0.480245">
        <ele>130</ele>
        <time>2018-11-04T09:49:07.000Z</time>
      </trkpt>
      <trkpt lat="39.577007" lon="-0.480279">
        <ele>130</ele>
        <time>2018-11-04T09:49:08.000Z</time>
      </trkpt>
      <trkpt lat="39.576973" lon="-0.480318">
        <ele>130</ele>
        <time>2018-11-04T09:49:09.000Z</time>
      </trkpt>
      <trkpt lat="39.57694" lon="-0.480358">
        <ele>130</ele>
        <time>2018-11-04T09:49:10.000Z</time>
      </trkpt>
      <trkpt lat="39.576906" lon="-0.480397">
        <ele>130</ele>
        <time>2018-11-04T09:49:11.000Z</time>
      </trkpt>
      <trkpt lat="39.576869" lon="-0.480436">
        <ele>130</ele>
        <time>2018-11-04T09:49:12.000Z</time>
      </trkpt>
      <trkpt lat="39.576832" lon="-0.480472">
        <ele>130</ele>
        <time>2018-11-04T09:49:13.000Z</time>
      </trkpt>
      <trkpt lat="39.576796" lon="-0.480511">
        <ele>130</ele>
        <time>2018-11-04T09:49:14.000Z</time>
      </trkpt>
      <trkpt lat="39.576761" lon="-0.480551">
        <ele>130</ele>
        <time>2018-11-04T09:49:15.000Z</time>
      </trkpt>
      <trkpt lat="39.576729" lon="-0.48059">
        <ele>130.8899968</ele>
        <time>2018-11-04T09:49:16.000Z</time>
      </trkpt>
      <trkpt lat="39.576699" lon="-0.480628">
        <ele>131</ele>
        <time>2018-11-04T09:49:17.000Z</time>
      </trkpt>
      <trkpt lat="39.576668" lon="-0.48066">
        <ele>131</ele>
        <time>2018-11-04T09:49:18.000Z</time>
      </trkpt>
      <trkpt lat="39.576639" lon="-0.480692">
        <ele>131</ele>
        <time>2018-11-04T09:49:19.000Z</time>
      </trkpt>
      <trkpt lat="39.57661" lon="-0.480721">
        <ele>130.1100032</ele>
        <time>2018-11-04T09:49:20.000Z</time>
      </trkpt>
      <trkpt lat="39.576581" lon="-0.480752">
        <ele>130</ele>
        <time>2018-11-04T09:49:21.000Z</time>
      </trkpt>
      <trkpt lat="39.57655" lon="-0.480784">
        <ele>130</ele>
        <time>2018-11-04T09:49:22.000Z</time>
      </trkpt>
      <trkpt lat="39.576519" lon="-0.480816">
        <ele>130</ele>
        <time>2018-11-04T09:49:23.000Z</time>
      </trkpt>
      <trkpt lat="39.576487" lon="-0.480848">
        <ele>130</ele>
        <time>2018-11-04T09:49:24.000Z</time>
      </trkpt>
      <trkpt lat="39.576454" lon="-0.480883">
        <ele>130</ele>
        <time>2018-11-04T09:49:25.000Z</time>
      </trkpt>
      <trkpt lat="39.576422" lon="-0.480918">
        <ele>130</ele>
        <time>2018-11-04T09:49:26.000Z</time>
      </trkpt>
      <trkpt lat="39.576389" lon="-0.480953">
        <ele>130</ele>
        <time>2018-11-04T09:49:27.000Z</time>
      </trkpt>
      <trkpt lat="39.576357" lon="-0.48099">
        <ele>130</ele>
        <time>2018-11-04T09:49:28.000Z</time>
      </trkpt>
      <trkpt lat="39.576326" lon="-0.481027">
        <ele>130</ele>
        <time>2018-11-04T09:49:29.000Z</time>
      </trkpt>
      <trkpt lat="39.576293" lon="-0.481065">
        <ele>130</ele>
        <time>2018-11-04T09:49:30.000Z</time>
      </trkpt>
      <trkpt lat="39.576259" lon="-0.481101">
        <ele>130</ele>
        <time>2018-11-04T09:49:31.000Z</time>
      </trkpt>
      <trkpt lat="39.576225" lon="-0.481136">
        <ele>130</ele>
        <time>2018-11-04T09:49:32.000Z</time>
      </trkpt>
      <trkpt lat="39.57619" lon="-0.481173">
        <ele>130</ele>
        <time>2018-11-04T09:49:33.000Z</time>
      </trkpt>
      <trkpt lat="39.576156" lon="-0.481212">
        <ele>130</ele>
        <time>2018-11-04T09:49:34.000Z</time>
      </trkpt>
      <trkpt lat="39.576122" lon="-0.481251">
        <ele>130</ele>
        <time>2018-11-04T09:49:35.000Z</time>
      </trkpt>
      <trkpt lat="39.576087" lon="-0.481289">
        <ele>130</ele>
        <time>2018-11-04T09:49:36.000Z</time>
      </trkpt>
      <trkpt lat="39.576053" lon="-0.481324">
        <ele>130</ele>
        <time>2018-11-04T09:49:37.000Z</time>
      </trkpt>
      <trkpt lat="39.576018" lon="-0.481359">
        <ele>130</ele>
        <time>2018-11-04T09:49:38.000Z</time>
      </trkpt>
      <trkpt lat="39.575984" lon="-0.481395">
        <ele>130</ele>
        <time>2018-11-04T09:49:39.000Z</time>
      </trkpt>
      <trkpt lat="39.575951" lon="-0.481434">
        <ele>130</ele>
        <time>2018-11-04T09:49:40.000Z</time>
      </trkpt>
      <trkpt lat="39.575919" lon="-0.481473">
        <ele>130</ele>
        <time>2018-11-04T09:49:41.000Z</time>
      </trkpt>
      <trkpt lat="39.575886" lon="-0.481511">
        <ele>130</ele>
        <time>2018-11-04T09:49:42.000Z</time>
      </trkpt>
      <trkpt lat="39.575852" lon="-0.481548">
        <ele>130</ele>
        <time>2018-11-04T09:49:43.000Z</time>
      </trkpt>
      <trkpt lat="39.575819" lon="-0.481586">
        <ele>130.8899968</ele>
        <time>2018-11-04T09:49:44.000Z</time>
      </trkpt>
      <trkpt lat="39.575785" lon="-0.481618">
        <ele>131</ele>
        <time>2018-11-04T09:49:45.000Z</time>
      </trkpt>
      <trkpt lat="39.575753" lon="-0.481657">
        <ele>131</ele>
        <time>2018-11-04T09:49:46.000Z</time>
      </trkpt>
      <trkpt lat="39.575721" lon="-0.481693">
        <ele>131</ele>
        <time>2018-11-04T09:49:47.000Z</time>
      </trkpt>
      <trkpt lat="39.575688" lon="-0.48173">
        <ele>131</ele>
        <time>2018-11-04T09:49:48.000Z</time>
      </trkpt>
      <trkpt lat="39.575655" lon="-0.481767">
        <ele>131</ele>
        <time>2018-11-04T09:49:49.000Z</time>
      </trkpt>
      <trkpt lat="39.575621" lon="-0.481803">
        <ele>131</ele>
        <time>2018-11-04T09:49:50.000Z</time>
      </trkpt>
      <trkpt lat="39.575587" lon="-0.481839">
        <ele>131</ele>
        <time>2018-11-04T09:49:51.000Z</time>
      </trkpt>
      <trkpt lat="39.575553" lon="-0.481876">
        <ele>131.8899968</ele>
        <time>2018-11-04T09:49:52.000Z</time>
      </trkpt>
      <trkpt lat="39.57552" lon="-0.481914">
        <ele>131.1100032</ele>
        <time>2018-11-04T09:49:53.000Z</time>
      </trkpt>
      <trkpt lat="39.575487" lon="-0.481953">
        <ele>131</ele>
        <time>2018-11-04T09:49:54.000Z</time>
      </trkpt>
      <trkpt lat="39.575455" lon="-0.481991">
        <ele>131</ele>
        <time>2018-11-04T09:49:55.000Z</time>
      </trkpt>
      <trkpt lat="39.575423" lon="-0.482028">
        <ele>131</ele>
        <time>2018-11-04T09:49:56.000Z</time>
      </trkpt>
      <trkpt lat="39.575391" lon="-0.482064">
        <ele>131.69531</ele>
        <time>2018-11-04T09:49:57.000Z</time>
      </trkpt>
      <trkpt lat="39.57536" lon="-0.482099">
        <ele>132</ele>
        <time>2018-11-04T09:49:58.000Z</time>
      </trkpt>
      <trkpt lat="39.575329" lon="-0.482134">
        <ele>132</ele>
        <time>2018-11-04T09:49:59.000Z</time>
      </trkpt>
      <trkpt lat="39.575298" lon="-0.482169">
        <ele>132</ele>
        <time>2018-11-04T09:50:00.000Z</time>
      </trkpt>
      <trkpt lat="39.575268" lon="-0.482204">
        <ele>132</ele>
        <time>2018-11-04T09:50:01.000Z</time>
      </trkpt>
      <trkpt lat="39.575237" lon="-0.482236">
        <ele>132</ele>
        <time>2018-11-04T09:50:02.000Z</time>
      </trkpt>
      <trkpt lat="39.575207" lon="-0.48227">
        <ele>132</ele>
        <time>2018-11-04T09:50:03.000Z</time>
      </trkpt>
      <trkpt lat="39.575177" lon="-0.482304">
        <ele>132</ele>
        <time>2018-11-04T09:50:04.000Z</time>
      </trkpt>
      <trkpt lat="39.575147" lon="-0.482337">
        <ele>132</ele>
        <time>2018-11-04T09:50:05.000Z</time>
      </trkpt>
      <trkpt lat="39.575117" lon="-0.482369">
        <ele>132</ele>
        <time>2018-11-04T09:50:06.000Z</time>
      </trkpt>
      <trkpt lat="39.575086" lon="-0.482399">
        <ele>132</ele>
        <time>2018-11-04T09:50:07.000Z</time>
      </trkpt>
      <trkpt lat="39.575056" lon="-0.482431">
        <ele>132</ele>
        <time>2018-11-04T09:50:08.000Z</time>
      </trkpt>
      <trkpt lat="39.575027" lon="-0.482463">
        <ele>132</ele>
        <time>2018-11-04T09:50:09.000Z</time>
      </trkpt>
      <trkpt lat="39.574999" lon="-0.482496">
        <ele>132</ele>
        <time>2018-11-04T09:50:10.000Z</time>
      </trkpt>
      <trkpt lat="39.57497" lon="-0.482528">
        <ele>132</ele>
        <time>2018-11-04T09:50:11.000Z</time>
      </trkpt>
      <trkpt lat="39.57494" lon="-0.482559">
        <ele>132.8899968</ele>
        <time>2018-11-04T09:50:12.000Z</time>
      </trkpt>
      <trkpt lat="39.574912" lon="-0.48259">
        <ele>133</ele>
        <time>2018-11-04T09:50:13.000Z</time>
      </trkpt>
      <trkpt lat="39.574883" lon="-0.482621">
        <ele>133</ele>
        <time>2018-11-04T09:50:14.000Z</time>
      </trkpt>
      <trkpt lat="39.574855" lon="-0.482653">
        <ele>133</ele>
        <time>2018-11-04T09:50:15.000Z</time>
      </trkpt>
      <trkpt lat="39.574827" lon="-0.482684">
        <ele>133</ele>
        <time>2018-11-04T09:50:16.000Z</time>
      </trkpt>
      <trkpt lat="39.5748" lon="-0.482716">
        <ele>133</ele>
        <time>2018-11-04T09:50:17.000Z</time>
      </trkpt>
      <trkpt lat="39.574774" lon="-0.482749">
        <ele>133</ele>
        <time>2018-11-04T09:50:18.000Z</time>
      </trkpt>
      <trkpt lat="39.57475" lon="-0.48278">
        <ele>133</ele>
        <time>2018-11-04T09:50:19.000Z</time>
      </trkpt>
      <trkpt lat="39.574725" lon="-0.482806">
        <ele>133</ele>
        <time>2018-11-04T09:50:20.000Z</time>
      </trkpt>
      <trkpt lat="39.5747" lon="-0.482834">
        <ele>133</ele>
        <time>2018-11-04T09:50:21.000Z</time>
      </trkpt>
      <trkpt lat="39.574675" lon="-0.482865">
        <ele>133</ele>
        <time>2018-11-04T09:50:22.000Z</time>
      </trkpt>
      <trkpt lat="39.574649" lon="-0.482898">
        <ele>133</ele>
        <time>2018-11-04T09:50:23.000Z</time>
      </trkpt>
      <trkpt lat="39.574622" lon="-0.48293">
        <ele>133</ele>
        <time>2018-11-04T09:50:24.000Z</time>
      </trkpt>
      <trkpt lat="39.574595" lon="-0.482962">
        <ele>133</ele>
        <time>2018-11-04T09:50:25.000Z</time>
      </trkpt>
      <trkpt lat="39.57457" lon="-0.482997">
        <ele>133</ele>
        <time>2018-11-04T09:50:26.000Z</time>
      </trkpt>
      <trkpt lat="39.574546" lon="-0.483033">
        <ele>133</ele>
        <time>2018-11-04T09:50:27.000Z</time>
      </trkpt>
      <trkpt lat="39.57452" lon="-0.483068">
        <ele>133</ele>
        <time>2018-11-04T09:50:28.000Z</time>
      </trkpt>
      <trkpt lat="39.574493" lon="-0.483101">
        <ele>133</ele>
        <time>2018-11-04T09:50:29.000Z</time>
      </trkpt>
      <trkpt lat="39.574468" lon="-0.483136">
        <ele>133</ele>
        <time>2018-11-04T09:50:30.000Z</time>
      </trkpt>
      <trkpt lat="39.574448" lon="-0.483176">
        <ele>133</ele>
        <time>2018-11-04T09:50:31.000Z</time>
      </trkpt>
      <trkpt lat="39.574431" lon="-0.483219">
        <ele>133</ele>
        <time>2018-11-04T09:50:32.000Z</time>
      </trkpt>
      <trkpt lat="39.574412" lon="-0.483259">
        <ele>133.8899968</ele>
        <time>2018-11-04T09:50:33.000Z</time>
      </trkpt>
      <trkpt lat="39.574389" lon="-0.483293">
        <ele>134</ele>
        <time>2018-11-04T09:50:34.000Z</time>
      </trkpt>
      <trkpt lat="39.574362" lon="-0.483318">
        <ele>134</ele>
        <time>2018-11-04T09:50:35.000Z</time>
      </trkpt>
      <trkpt lat="39.574332" lon="-0.483338">
        <ele>134</ele>
        <time>2018-11-04T09:50:36.000Z</time>
      </trkpt>
      <trkpt lat="39.574298" lon="-0.483352">
        <ele>134</ele>
        <time>2018-11-04T09:50:37.000Z</time>
      </trkpt>
      <trkpt lat="39.57426" lon="-0.48336">
        <ele>134</ele>
        <time>2018-11-04T09:50:38.000Z</time>
      </trkpt>
      <trkpt lat="39.574219" lon="-0.483361">
        <ele>134.847217777778</ele>
        <time>2018-11-04T09:50:39.000Z</time>
      </trkpt>
      <trkpt lat="39.574175" lon="-0.483359">
        <ele>135</ele>
        <time>2018-11-04T09:50:40.000Z</time>
      </trkpt>
      <trkpt lat="39.574131" lon="-0.483355">
        <ele>135</ele>
        <time>2018-11-04T09:50:41.000Z</time>
      </trkpt>
      <trkpt lat="39.574087" lon="-0.483353">
        <ele>135.8899968</ele>
        <time>2018-11-04T09:50:42.000Z</time>
      </trkpt>
      <trkpt lat="39.574044" lon="-0.483353">
        <ele>136</ele>
        <time>2018-11-04T09:50:43.000Z</time>
      </trkpt>
      <trkpt lat="39.574003" lon="-0.483356">
        <ele>136</ele>
        <time>2018-11-04T09:50:44.000Z</time>
      </trkpt>
      <trkpt lat="39.573963" lon="-0.483363">
        <ele>136</ele>
        <time>2018-11-04T09:50:45.000Z</time>
      </trkpt>
      <trkpt lat="39.573923" lon="-0.483366">
        <ele>136</ele>
        <time>2018-11-04T09:50:46.000Z</time>
      </trkpt>
      <trkpt lat="39.573886" lon="-0.483368">
        <ele>136</ele>
        <time>2018-11-04T09:50:47.000Z</time>
      </trkpt>
      <trkpt lat="39.57385" lon="-0.483371">
        <ele>136</ele>
        <time>2018-11-04T09:50:48.000Z</time>
      </trkpt>
      <trkpt lat="39.573816" lon="-0.483379">
        <ele>136</ele>
        <time>2018-11-04T09:50:49.000Z</time>
      </trkpt>
      <trkpt lat="39.573783" lon="-0.483387">
        <ele>136</ele>
        <time>2018-11-04T09:50:50.000Z</time>
      </trkpt>
      <trkpt lat="39.57375" lon="-0.483392">
        <ele>136.8899968</ele>
        <time>2018-11-04T09:50:51.000Z</time>
      </trkpt>
      <trkpt lat="39.573715" lon="-0.483397">
        <ele>137</ele>
        <time>2018-11-04T09:50:52.000Z</time>
      </trkpt>
      <trkpt lat="39.57368" lon="-0.483405">
        <ele>137.8899968</ele>
        <time>2018-11-04T09:50:53.000Z</time>
      </trkpt>
      <trkpt lat="39.573644" lon="-0.483418">
        <ele>138</ele>
        <time>2018-11-04T09:50:54.000Z</time>
      </trkpt>
      <trkpt lat="39.573608" lon="-0.483427">
        <ele>138</ele>
        <time>2018-11-04T09:50:55.000Z</time>
      </trkpt>
      <trkpt lat="39.573573" lon="-0.483435">
        <ele>138</ele>
        <time>2018-11-04T09:50:56.000Z</time>
      </trkpt>
      <trkpt lat="39.573546" lon="-0.483431">
        <ele>138</ele>
        <time>2018-11-04T09:50:57.000Z</time>
      </trkpt>
      <trkpt lat="39.573519" lon="-0.48343">
        <ele>138</ele>
        <time>2018-11-04T09:50:58.000Z</time>
      </trkpt>
      <trkpt lat="39.573482" lon="-0.483435">
        <ele>138</ele>
        <time>2018-11-04T09:50:59.000Z</time>
      </trkpt>
      <trkpt lat="39.573443" lon="-0.483439">
        <ele>138</ele>
        <time>2018-11-04T09:51:00.000Z</time>
      </trkpt>
      <trkpt lat="39.573403" lon="-0.483446">
        <ele>138</ele>
        <time>2018-11-04T09:51:01.000Z</time>
      </trkpt>
      <trkpt lat="39.573363" lon="-0.483452">
        <ele>138</ele>
        <time>2018-11-04T09:51:02.000Z</time>
      </trkpt>
      <trkpt lat="39.573322" lon="-0.483456">
        <ele>138</ele>
        <time>2018-11-04T09:51:03.000Z</time>
      </trkpt>
      <trkpt lat="39.57328" lon="-0.48346">
        <ele>138</ele>
        <time>2018-11-04T09:51:04.000Z</time>
      </trkpt>
      <trkpt lat="39.573239" lon="-0.483466">
        <ele>138</ele>
        <time>2018-11-04T09:51:05.000Z</time>
      </trkpt>
      <trkpt lat="39.573199" lon="-0.483473">
        <ele>138</ele>
        <time>2018-11-04T09:51:06.000Z</time>
      </trkpt>
      <trkpt lat="39.573159" lon="-0.483481">
        <ele>138</ele>
        <time>2018-11-04T09:51:07.000Z</time>
      </trkpt>
      <trkpt lat="39.573118" lon="-0.483487">
        <ele>138</ele>
        <time>2018-11-04T09:51:08.000Z</time>
      </trkpt>
      <trkpt lat="39.573077" lon="-0.483495">
        <ele>138</ele>
        <time>2018-11-04T09:51:09.000Z</time>
      </trkpt>
      <trkpt lat="39.573036" lon="-0.483502">
        <ele>138</ele>
        <time>2018-11-04T09:51:10.000Z</time>
      </trkpt>
      <trkpt lat="39.572994" lon="-0.483508">
        <ele>138</ele>
        <time>2018-11-04T09:51:11.000Z</time>
      </trkpt>
      <trkpt lat="39.572953" lon="-0.483518">
        <ele>138</ele>
        <time>2018-11-04T09:51:12.000Z</time>
      </trkpt>
      <trkpt lat="39.572911" lon="-0.483528">
        <ele>138</ele>
        <time>2018-11-04T09:51:13.000Z</time>
      </trkpt>
      <trkpt lat="39.572868" lon="-0.483538">
        <ele>138</ele>
        <time>2018-11-04T09:51:14.000Z</time>
      </trkpt>
      <trkpt lat="39.572826" lon="-0.483547">
        <ele>138</ele>
        <time>2018-11-04T09:51:15.000Z</time>
      </trkpt>
      <trkpt lat="39.572784" lon="-0.483556">
        <ele>138</ele>
        <time>2018-11-04T09:51:16.000Z</time>
      </trkpt>
      <trkpt lat="39.572743" lon="-0.483567">
        <ele>138</ele>
        <time>2018-11-04T09:51:17.000Z</time>
      </trkpt>
      <trkpt lat="39.572702" lon="-0.483582">
        <ele>138</ele>
        <time>2018-11-04T09:51:18.000Z</time>
      </trkpt>
      <trkpt lat="39.572662" lon="-0.483595">
        <ele>138</ele>
        <time>2018-11-04T09:51:19.000Z</time>
      </trkpt>
      <trkpt lat="39.572622" lon="-0.483607">
        <ele>138</ele>
        <time>2018-11-04T09:51:20.000Z</time>
      </trkpt>
      <trkpt lat="39.572582" lon="-0.48362">
        <ele>138</ele>
        <time>2018-11-04T09:51:21.000Z</time>
      </trkpt>
      <trkpt lat="39.572544" lon="-0.483636">
        <ele>138</ele>
        <time>2018-11-04T09:51:22.000Z</time>
      </trkpt>
      <trkpt lat="39.572506" lon="-0.48365">
        <ele>138.8899968</ele>
        <time>2018-11-04T09:51:23.000Z</time>
      </trkpt>
      <trkpt lat="39.572468" lon="-0.483666">
        <ele>139</ele>
        <time>2018-11-04T09:51:24.000Z</time>
      </trkpt>
      <trkpt lat="39.57243" lon="-0.483682">
        <ele>139</ele>
        <time>2018-11-04T09:51:25.000Z</time>
      </trkpt>
      <trkpt lat="39.572394" lon="-0.483696">
        <ele>139</ele>
        <time>2018-11-04T09:51:26.000Z</time>
      </trkpt>
      <trkpt lat="39.572359" lon="-0.483714">
        <ele>139.700790179201</ele>
        <time>2018-11-04T09:51:27.000Z</time>
      </trkpt>
      <trkpt lat="39.572325" lon="-0.483732">
        <ele>140</ele>
        <time>2018-11-04T09:51:28.000Z</time>
      </trkpt>
      <trkpt lat="39.572294" lon="-0.483755">
        <ele>140</ele>
        <time>2018-11-04T09:51:29.000Z</time>
      </trkpt>
      <trkpt lat="39.572263" lon="-0.483781">
        <ele>140</ele>
        <time>2018-11-04T09:51:30.000Z</time>
      </trkpt>
      <trkpt lat="39.572237" lon="-0.483812">
        <ele>140</ele>
        <time>2018-11-04T09:51:31.000Z</time>
      </trkpt>
      <trkpt lat="39.572215" lon="-0.483848">
        <ele>140</ele>
        <time>2018-11-04T09:51:32.000Z</time>
      </trkpt>
      <trkpt lat="39.572198" lon="-0.48389">
        <ele>140</ele>
        <time>2018-11-04T09:51:33.000Z</time>
      </trkpt>
      <trkpt lat="39.572182" lon="-0.483926">
        <ele>140</ele>
        <time>2018-11-04T09:51:34.000Z</time>
      </trkpt>
      <trkpt lat="39.572166" lon="-0.483961">
        <ele>140</ele>
        <time>2018-11-04T09:51:35.000Z</time>
      </trkpt>
      <trkpt lat="39.572148" lon="-0.483992">
        <ele>140</ele>
        <time>2018-11-04T09:51:36.000Z</time>
      </trkpt>
      <trkpt lat="39.572128" lon="-0.484018">
        <ele>140</ele>
        <time>2018-11-04T09:51:37.000Z</time>
      </trkpt>
      <trkpt lat="39.572107" lon="-0.484043">
        <ele>140</ele>
        <time>2018-11-04T09:51:38.000Z</time>
      </trkpt>
      <trkpt lat="39.572084" lon="-0.484064">
        <ele>140</ele>
        <time>2018-11-04T09:51:39.000Z</time>
      </trkpt>
      <trkpt lat="39.57206" lon="-0.484084">
        <ele>140</ele>
        <time>2018-11-04T09:51:40.000Z</time>
      </trkpt>
      <trkpt lat="39.572036" lon="-0.4841">
        <ele>140</ele>
        <time>2018-11-04T09:51:41.000Z</time>
      </trkpt>
      <trkpt lat="39.572009" lon="-0.484116">
        <ele>140</ele>
        <time>2018-11-04T09:51:42.000Z</time>
      </trkpt>
      <trkpt lat="39.571984" lon="-0.484134">
        <ele>140</ele>
        <time>2018-11-04T09:51:43.000Z</time>
      </trkpt>
      <trkpt lat="39.571957" lon="-0.484152">
        <ele>140</ele>
        <time>2018-11-04T09:51:44.000Z</time>
      </trkpt>
      <trkpt lat="39.571932" lon="-0.484176">
        <ele>140</ele>
        <time>2018-11-04T09:51:45.000Z</time>
      </trkpt>
      <trkpt lat="39.571907" lon="-0.4842">
        <ele>140</ele>
        <time>2018-11-04T09:51:46.000Z</time>
      </trkpt>
      <trkpt lat="39.571882" lon="-0.484228">
        <ele>140</ele>
        <time>2018-11-04T09:51:47.000Z</time>
      </trkpt>
      <trkpt lat="39.571856" lon="-0.484256">
        <ele>140</ele>
        <time>2018-11-04T09:51:48.000Z</time>
      </trkpt>
      <trkpt lat="39.571829" lon="-0.484285">
        <ele>140</ele>
        <time>2018-11-04T09:51:49.000Z</time>
      </trkpt>
      <trkpt lat="39.571804" lon="-0.484321">
        <ele>140</ele>
        <time>2018-11-04T09:51:50.000Z</time>
      </trkpt>
      <trkpt lat="39.571776" lon="-0.484362">
        <ele>140</ele>
        <time>2018-11-04T09:51:51.000Z</time>
      </trkpt>
      <trkpt lat="39.571746" lon="-0.484405">
        <ele>139.1100032</ele>
        <time>2018-11-04T09:51:52.000Z</time>
      </trkpt>
      <trkpt lat="39.571714" lon="-0.48445">
        <ele>139</ele>
        <time>2018-11-04T09:51:53.000Z</time>
      </trkpt>
      <trkpt lat="39.571683" lon="-0.484498">
        <ele>139</ele>
        <time>2018-11-04T09:51:54.000Z</time>
      </trkpt>
      <trkpt lat="39.571651" lon="-0.484548">
        <ele>139</ele>
        <time>2018-11-04T09:51:55.000Z</time>
      </trkpt>
      <trkpt lat="39.57162" lon="-0.484602">
        <ele>139</ele>
        <time>2018-11-04T09:51:56.000Z</time>
      </trkpt>
      <trkpt lat="39.571587" lon="-0.484657">
        <ele>139</ele>
        <time>2018-11-04T09:51:57.000Z</time>
      </trkpt>
      <trkpt lat="39.571554" lon="-0.484713">
        <ele>139</ele>
        <time>2018-11-04T09:51:58.000Z</time>
      </trkpt>
      <trkpt lat="39.57152" lon="-0.484771">
        <ele>139</ele>
        <time>2018-11-04T09:51:59.000Z</time>
      </trkpt>
      <trkpt lat="39.571487" lon="-0.484831">
        <ele>139</ele>
        <time>2018-11-04T09:52:00.000Z</time>
      </trkpt>
      <trkpt lat="39.571455" lon="-0.484895">
        <ele>139.8899968</ele>
        <time>2018-11-04T09:52:01.000Z</time>
      </trkpt>
      <trkpt lat="39.571421" lon="-0.48496">
        <ele>140</ele>
        <time>2018-11-04T09:52:02.000Z</time>
      </trkpt>
      <trkpt lat="39.571388" lon="-0.485024">
        <ele>139.1100032</ele>
        <time>2018-11-04T09:52:03.000Z</time>
      </trkpt>
      <trkpt lat="39.571357" lon="-0.485091">
        <ele>139</ele>
        <time>2018-11-04T09:52:04.000Z</time>
      </trkpt>
      <trkpt lat="39.571324" lon="-0.485157">
        <ele>139</ele>
        <time>2018-11-04T09:52:05.000Z</time>
      </trkpt>
      <trkpt lat="39.571291" lon="-0.485224">
        <ele>139</ele>
        <time>2018-11-04T09:52:06.000Z</time>
      </trkpt>
      <trkpt lat="39.571256" lon="-0.485288">
        <ele>139</ele>
        <time>2018-11-04T09:52:07.000Z</time>
      </trkpt>
      <trkpt lat="39.571222" lon="-0.485356">
        <ele>139</ele>
        <time>2018-11-04T09:52:08.000Z</time>
      </trkpt>
      <trkpt lat="39.571189" lon="-0.485423">
        <ele>139</ele>
        <time>2018-11-04T09:52:09.000Z</time>
      </trkpt>
      <trkpt lat="39.571157" lon="-0.485492">
        <ele>139</ele>
        <time>2018-11-04T09:52:10.000Z</time>
      </trkpt>
      <trkpt lat="39.571126" lon="-0.485562">
        <ele>139</ele>
        <time>2018-11-04T09:52:11.000Z</time>
      </trkpt>
      <trkpt lat="39.571094" lon="-0.485634">
        <ele>139</ele>
        <time>2018-11-04T09:52:12.000Z</time>
      </trkpt>
      <trkpt lat="39.571062" lon="-0.485704">
        <ele>139</ele>
        <time>2018-11-04T09:52:13.000Z</time>
      </trkpt>
      <trkpt lat="39.571031" lon="-0.485773">
        <ele>139</ele>
        <time>2018-11-04T09:52:14.000Z</time>
      </trkpt>
      <trkpt lat="39.571" lon="-0.485844">
        <ele>139</ele>
        <time>2018-11-04T09:52:15.000Z</time>
      </trkpt>
      <trkpt lat="39.57097" lon="-0.485912">
        <ele>139</ele>
        <time>2018-11-04T09:52:16.000Z</time>
      </trkpt>
      <trkpt lat="39.57094" lon="-0.485982">
        <ele>139</ele>
        <time>2018-11-04T09:52:17.000Z</time>
      </trkpt>
      <trkpt lat="39.570907" lon="-0.48605">
        <ele>139</ele>
        <time>2018-11-04T09:52:18.000Z</time>
      </trkpt>
      <trkpt lat="39.570875" lon="-0.486118">
        <ele>139</ele>
        <time>2018-11-04T09:52:19.000Z</time>
      </trkpt>
      <trkpt lat="39.570844" lon="-0.48619">
        <ele>139</ele>
        <time>2018-11-04T09:52:20.000Z</time>
      </trkpt>
      <trkpt lat="39.570812" lon="-0.486257">
        <ele>139</ele>
        <time>2018-11-04T09:52:21.000Z</time>
      </trkpt>
      <trkpt lat="39.57078" lon="-0.486327">
        <ele>139</ele>
        <time>2018-11-04T09:52:22.000Z</time>
      </trkpt>
      <trkpt lat="39.570747" lon="-0.486396">
        <ele>139</ele>
        <time>2018-11-04T09:52:23.000Z</time>
      </trkpt>
      <trkpt lat="39.570715" lon="-0.486466">
        <ele>139</ele>
        <time>2018-11-04T09:52:24.000Z</time>
      </trkpt>
      <trkpt lat="39.570682" lon="-0.486536">
        <ele>139</ele>
        <time>2018-11-04T09:52:25.000Z</time>
      </trkpt>
      <trkpt lat="39.570648" lon="-0.486608">
        <ele>139</ele>
        <time>2018-11-04T09:52:26.000Z</time>
      </trkpt>
      <trkpt lat="39.570613" lon="-0.486677">
        <ele>139</ele>
        <time>2018-11-04T09:52:27.000Z</time>
      </trkpt>
      <trkpt lat="39.570576" lon="-0.486745">
        <ele>138.310078288566</ele>
        <time>2018-11-04T09:52:28.000Z</time>
      </trkpt>
      <trkpt lat="39.57054" lon="-0.486815">
        <ele>138</ele>
        <time>2018-11-04T09:52:29.000Z</time>
      </trkpt>
      <trkpt lat="39.570502" lon="-0.486884">
        <ele>138</ele>
        <time>2018-11-04T09:52:30.000Z</time>
      </trkpt>
      <trkpt lat="39.570465" lon="-0.486956">
        <ele>138</ele>
        <time>2018-11-04T09:52:31.000Z</time>
      </trkpt>
      <trkpt lat="39.570428" lon="-0.487029">
        <ele>138</ele>
        <time>2018-11-04T09:52:32.000Z</time>
      </trkpt>
      <trkpt lat="39.570389" lon="-0.487102">
        <ele>137.150689975627</ele>
        <time>2018-11-04T09:52:33.000Z</time>
      </trkpt>
      <trkpt lat="39.570349" lon="-0.487176">
        <ele>137</ele>
        <time>2018-11-04T09:52:34.000Z</time>
      </trkpt>
      <trkpt lat="39.570307" lon="-0.487252">
        <ele>137</ele>
        <time>2018-11-04T09:52:35.000Z</time>
      </trkpt>
      <trkpt lat="39.570266" lon="-0.487327">
        <ele>137</ele>
        <time>2018-11-04T09:52:36.000Z</time>
      </trkpt>
      <trkpt lat="39.570224" lon="-0.487402">
        <ele>136.154933386216</ele>
        <time>2018-11-04T09:52:37.000Z</time>
      </trkpt>
      <trkpt lat="39.570183" lon="-0.487476">
        <ele>136</ele>
        <time>2018-11-04T09:52:38.000Z</time>
      </trkpt>
      <trkpt lat="39.570138" lon="-0.487549">
        <ele>135.1100032</ele>
        <time>2018-11-04T09:52:39.000Z</time>
      </trkpt>
      <trkpt lat="39.570093" lon="-0.48762">
        <ele>135</ele>
        <time>2018-11-04T09:52:40.000Z</time>
      </trkpt>
      <trkpt lat="39.570048" lon="-0.487694">
        <ele>134.1100032</ele>
        <time>2018-11-04T09:52:41.000Z</time>
      </trkpt>
      <trkpt lat="39.570001" lon="-0.487771">
        <ele>133.310078288566</ele>
        <time>2018-11-04T09:52:42.000Z</time>
      </trkpt>
      <trkpt lat="39.569957" lon="-0.487851">
        <ele>133</ele>
        <time>2018-11-04T09:52:43.000Z</time>
      </trkpt>
      <trkpt lat="39.569917" lon="-0.487928">
        <ele>133</ele>
        <time>2018-11-04T09:52:44.000Z</time>
      </trkpt>
      <trkpt lat="39.569877" lon="-0.488004">
        <ele>132.1100032</ele>
        <time>2018-11-04T09:52:45.000Z</time>
      </trkpt>
      <trkpt lat="39.569839" lon="-0.488078">
        <ele>132</ele>
        <time>2018-11-04T09:52:46.000Z</time>
      </trkpt>
      <trkpt lat="39.569805" lon="-0.488157">
        <ele>132</ele>
        <time>2018-11-04T09:52:47.000Z</time>
      </trkpt>
      <trkpt lat="39.569785" lon="-0.488239">
        <ele>132</ele>
        <time>2018-11-04T09:52:48.000Z</time>
      </trkpt>
      <trkpt lat="39.569779" lon="-0.48833">
        <ele>131.1100032</ele>
        <time>2018-11-04T09:52:49.000Z</time>
      </trkpt>
      <trkpt lat="39.56977" lon="-0.488414">
        <ele>130.315383706504</ele>
        <time>2018-11-04T09:52:50.000Z</time>
      </trkpt>
      <trkpt lat="39.569747" lon="-0.488488">
        <ele>130</ele>
        <time>2018-11-04T09:52:51.000Z</time>
      </trkpt>
      <trkpt lat="39.569718" lon="-0.488558">
        <ele>129.152782222222</ele>
        <time>2018-11-04T09:52:52.000Z</time>
      </trkpt>
      <trkpt lat="39.569675" lon="-0.488616">
        <ele>129</ele>
        <time>2018-11-04T09:52:53.000Z</time>
      </trkpt>
      <trkpt lat="39.569622" lon="-0.488661">
        <ele>129</ele>
        <time>2018-11-04T09:52:54.000Z</time>
      </trkpt>
      <trkpt lat="39.569562" lon="-0.488691">
        <ele>129</ele>
        <time>2018-11-04T09:52:55.000Z</time>
      </trkpt>
      <trkpt lat="39.569497" lon="-0.488707">
        <ele>129</ele>
        <time>2018-11-04T09:52:56.000Z</time>
      </trkpt>
      <trkpt lat="39.569428" lon="-0.488717">
        <ele>129</ele>
        <time>2018-11-04T09:52:57.000Z</time>
      </trkpt>
      <trkpt lat="39.569357" lon="-0.488736">
        <ele>129</ele>
        <time>2018-11-04T09:52:58.000Z</time>
      </trkpt>
      <trkpt lat="39.569289" lon="-0.488773">
        <ele>129</ele>
        <time>2018-11-04T09:52:59.000Z</time>
      </trkpt>
      <trkpt lat="39.569225" lon="-0.488829">
        <ele>128.112247430221</ele>
        <time>2018-11-04T09:53:00.000Z</time>
      </trkpt>
      <trkpt lat="39.569162" lon="-0.488892">
        <ele>128</ele>
        <time>2018-11-04T09:53:01.000Z</time>
      </trkpt>
      <trkpt lat="39.569097" lon="-0.48896">
        <ele>127.1100032</ele>
        <time>2018-11-04T09:53:02.000Z</time>
      </trkpt>
      <trkpt lat="39.569033" lon="-0.489033">
        <ele>127</ele>
        <time>2018-11-04T09:53:03.000Z</time>
      </trkpt>
      <trkpt lat="39.568969" lon="-0.48911">
        <ele>126.310078288566</ele>
        <time>2018-11-04T09:53:04.000Z</time>
      </trkpt>
      <trkpt lat="39.568906" lon="-0.48919">
        <ele>126</ele>
        <time>2018-11-04T09:53:05.000Z</time>
      </trkpt>
      <trkpt lat="39.568842" lon="-0.48927">
        <ele>126</ele>
        <time>2018-11-04T09:53:06.000Z</time>
      </trkpt>
      <trkpt lat="39.568779" lon="-0.489352">
        <ele>126</ele>
        <time>2018-11-04T09:53:07.000Z</time>
      </trkpt>
      <trkpt lat="39.568716" lon="-0.489435">
        <ele>126</ele>
        <time>2018-11-04T09:53:08.000Z</time>
      </trkpt>
      <trkpt lat="39.568653" lon="-0.489521">
        <ele>125.310078288566</ele>
        <time>2018-11-04T09:53:09.000Z</time>
      </trkpt>
      <trkpt lat="39.568591" lon="-0.489609">
        <ele>125</ele>
        <time>2018-11-04T09:53:10.000Z</time>
      </trkpt>
      <trkpt lat="39.56853" lon="-0.489699">
        <ele>125</ele>
        <time>2018-11-04T09:53:11.000Z</time>
      </trkpt>
      <trkpt lat="39.56847" lon="-0.489791">
        <ele>125</ele>
        <time>2018-11-04T09:53:12.000Z</time>
      </trkpt>
      <trkpt lat="39.56841" lon="-0.489883">
        <ele>125</ele>
        <time>2018-11-04T09:53:13.000Z</time>
      </trkpt>
      <trkpt lat="39.56835" lon="-0.489975">
        <ele>124.1100032</ele>
        <time>2018-11-04T09:53:14.000Z</time>
      </trkpt>
      <trkpt lat="39.568291" lon="-0.490066">
        <ele>124</ele>
        <time>2018-11-04T09:53:15.000Z</time>
      </trkpt>
      <trkpt lat="39.568232" lon="-0.49016">
        <ele>124</ele>
        <time>2018-11-04T09:53:16.000Z</time>
      </trkpt>
      <trkpt lat="39.568174" lon="-0.490252">
        <ele>123.1100032</ele>
        <time>2018-11-04T09:53:17.000Z</time>
      </trkpt>
      <trkpt lat="39.568117" lon="-0.490347">
        <ele>123</ele>
        <time>2018-11-04T09:53:18.000Z</time>
      </trkpt>
      <trkpt lat="39.568062" lon="-0.490443">
        <ele>123</ele>
        <time>2018-11-04T09:53:19.000Z</time>
      </trkpt>
      <trkpt lat="39.568007" lon="-0.490537">
        <ele>122.310078288566</ele>
        <time>2018-11-04T09:53:20.000Z</time>
      </trkpt>
      <trkpt lat="39.567953" lon="-0.490632">
        <ele>122</ele>
        <time>2018-11-04T09:53:21.000Z</time>
      </trkpt>
      <trkpt lat="39.567901" lon="-0.490727">
        <ele>122</ele>
        <time>2018-11-04T09:53:22.000Z</time>
      </trkpt>
      <trkpt lat="39.56785" lon="-0.490824">
        <ele>122</ele>
        <time>2018-11-04T09:53:23.000Z</time>
      </trkpt>
      <trkpt lat="39.567799" lon="-0.490919">
        <ele>122</ele>
        <time>2018-11-04T09:53:24.000Z</time>
      </trkpt>
      <trkpt lat="39.567749" lon="-0.491015">
        <ele>121.1100032</ele>
        <time>2018-11-04T09:53:25.000Z</time>
      </trkpt>
      <trkpt lat="39.567701" lon="-0.491113">
        <ele>121.679391848978</ele>
        <time>2018-11-04T09:53:26.000Z</time>
      </trkpt>
      <trkpt lat="39.567655" lon="-0.491212">
        <ele>121.159422709481</ele>
        <time>2018-11-04T09:53:27.000Z</time>
      </trkpt>
      <trkpt lat="39.567608" lon="-0.49131">
        <ele>121.881187742377</ele>
        <time>2018-11-04T09:53:28.000Z</time>
      </trkpt>
      <trkpt lat="39.567562" lon="-0.491406">
        <ele>122</ele>
        <time>2018-11-04T09:53:29.000Z</time>
      </trkpt>
      <trkpt lat="39.567517" lon="-0.491503">
        <ele>122</ele>
        <time>2018-11-04T09:53:30.000Z</time>
      </trkpt>
      <trkpt lat="39.567472" lon="-0.4916">
        <ele>122</ele>
        <time>2018-11-04T09:53:31.000Z</time>
      </trkpt>
      <trkpt lat="39.567429" lon="-0.491695">
        <ele>122</ele>
        <time>2018-11-04T09:53:32.000Z</time>
      </trkpt>
      <trkpt lat="39.567387" lon="-0.491789">
        <ele>122</ele>
        <time>2018-11-04T09:53:33.000Z</time>
      </trkpt>
      <trkpt lat="39.567344" lon="-0.491882">
        <ele>122</ele>
        <time>2018-11-04T09:53:34.000Z</time>
      </trkpt>
      <trkpt lat="39.567303" lon="-0.491975">
        <ele>122</ele>
        <time>2018-11-04T09:53:35.000Z</time>
      </trkpt>
      <trkpt lat="39.567263" lon="-0.492068">
        <ele>121.1100032</ele>
        <time>2018-11-04T09:53:36.000Z</time>
      </trkpt>
      <trkpt lat="39.567222" lon="-0.49216">
        <ele>121</ele>
        <time>2018-11-04T09:53:37.000Z</time>
      </trkpt>
      <trkpt lat="39.567181" lon="-0.492251">
        <ele>121</ele>
        <time>2018-11-04T09:53:38.000Z</time>
      </trkpt>
      <trkpt lat="39.56714" lon="-0.492341">
        <ele>121</ele>
        <time>2018-11-04T09:53:39.000Z</time>
      </trkpt>
      <trkpt lat="39.567101" lon="-0.49243">
        <ele>121</ele>
        <time>2018-11-04T09:53:40.000Z</time>
      </trkpt>
      <trkpt lat="39.56706" lon="-0.492517">
        <ele>121</ele>
        <time>2018-11-04T09:53:41.000Z</time>
      </trkpt>
      <trkpt lat="39.56702" lon="-0.492605">
        <ele>121</ele>
        <time>2018-11-04T09:53:42.000Z</time>
      </trkpt>
      <trkpt lat="39.566981" lon="-0.492694">
        <ele>121</ele>
        <time>2018-11-04T09:53:43.000Z</time>
      </trkpt>
      <trkpt lat="39.566942" lon="-0.492782">
        <ele>121</ele>
        <time>2018-11-04T09:53:44.000Z</time>
      </trkpt>
      <trkpt lat="39.566904" lon="-0.492871">
        <ele>121</ele>
        <time>2018-11-04T09:53:45.000Z</time>
      </trkpt>
      <trkpt lat="39.566865" lon="-0.492961">
        <ele>121</ele>
        <time>2018-11-04T09:53:46.000Z</time>
      </trkpt>
      <trkpt lat="39.566826" lon="-0.493049">
        <ele>121</ele>
        <time>2018-11-04T09:53:47.000Z</time>
      </trkpt>
      <trkpt lat="39.566786" lon="-0.493136">
        <ele>121</ele>
        <time>2018-11-04T09:53:48.000Z</time>
      </trkpt>
      <trkpt lat="39.566748" lon="-0.493224">
        <ele>121</ele>
        <time>2018-11-04T09:53:49.000Z</time>
      </trkpt>
      <trkpt lat="39.56671" lon="-0.49331">
        <ele>121</ele>
        <time>2018-11-04T09:53:50.000Z</time>
      </trkpt>
      <trkpt lat="39.566671" lon="-0.493394">
        <ele>121</ele>
        <time>2018-11-04T09:53:51.000Z</time>
      </trkpt>
      <trkpt lat="39.566633" lon="-0.493478">
        <ele>121</ele>
        <time>2018-11-04T09:53:52.000Z</time>
      </trkpt>
      <trkpt lat="39.566598" lon="-0.493565">
        <ele>121</ele>
        <time>2018-11-04T09:53:53.000Z</time>
      </trkpt>
      <trkpt lat="39.566564" lon="-0.493649">
        <ele>121</ele>
        <time>2018-11-04T09:53:54.000Z</time>
      </trkpt>
      <trkpt lat="39.566529" lon="-0.49373">
        <ele>121</ele>
        <time>2018-11-04T09:53:55.000Z</time>
      </trkpt>
      <trkpt lat="39.566497" lon="-0.493812">
        <ele>120.1100032</ele>
        <time>2018-11-04T09:53:56.000Z</time>
      </trkpt>
      <trkpt lat="39.566468" lon="-0.493894">
        <ele>120</ele>
        <time>2018-11-04T09:53:57.000Z</time>
      </trkpt>
      <trkpt lat="39.566435" lon="-0.49397">
        <ele>120</ele>
        <time>2018-11-04T09:53:58.000Z</time>
      </trkpt>
      <trkpt lat="39.566401" lon="-0.494043">
        <ele>120</ele>
        <time>2018-11-04T09:53:59.000Z</time>
      </trkpt>
      <trkpt lat="39.566371" lon="-0.494117">
        <ele>119.1100032</ele>
        <time>2018-11-04T09:54:00.000Z</time>
      </trkpt>
      <trkpt lat="39.566346" lon="-0.494191">
        <ele>119</ele>
        <time>2018-11-04T09:54:01.000Z</time>
      </trkpt>
      <trkpt lat="39.56632" lon="-0.494262">
        <ele>119</ele>
        <time>2018-11-04T09:54:02.000Z</time>
      </trkpt>
      <trkpt lat="39.566288" lon="-0.494328">
        <ele>118.1100032</ele>
        <time>2018-11-04T09:54:03.000Z</time>
      </trkpt>
      <trkpt lat="39.566253" lon="-0.494391">
        <ele>118</ele>
        <time>2018-11-04T09:54:04.000Z</time>
      </trkpt>
      <trkpt lat="39.566219" lon="-0.494453">
        <ele>118</ele>
        <time>2018-11-04T09:54:05.000Z</time>
      </trkpt>
      <trkpt lat="39.566186" lon="-0.494519">
        <ele>118</ele>
        <time>2018-11-04T09:54:06.000Z</time>
      </trkpt>
      <trkpt lat="39.566153" lon="-0.494586">
        <ele>117.30469</ele>
        <time>2018-11-04T09:54:07.000Z</time>
      </trkpt>
      <trkpt lat="39.566119" lon="-0.494653">
        <ele>117</ele>
        <time>2018-11-04T09:54:08.000Z</time>
      </trkpt>
      <trkpt lat="39.566085" lon="-0.494722">
        <ele>117</ele>
        <time>2018-11-04T09:54:09.000Z</time>
      </trkpt>
      <trkpt lat="39.566054" lon="-0.494793">
        <ele>117</ele>
        <time>2018-11-04T09:54:10.000Z</time>
      </trkpt>
      <trkpt lat="39.566024" lon="-0.494865">
        <ele>117</ele>
        <time>2018-11-04T09:54:11.000Z</time>
      </trkpt>
      <trkpt lat="39.565995" lon="-0.494938">
        <ele>117</ele>
        <time>2018-11-04T09:54:12.000Z</time>
      </trkpt>
      <trkpt lat="39.565966" lon="-0.49501">
        <ele>117</ele>
        <time>2018-11-04T09:54:13.000Z</time>
      </trkpt>
      <trkpt lat="39.565937" lon="-0.495082">
        <ele>117</ele>
        <time>2018-11-04T09:54:14.000Z</time>
      </trkpt>
      <trkpt lat="39.565909" lon="-0.495156">
        <ele>117.8899968</ele>
        <time>2018-11-04T09:54:15.000Z</time>
      </trkpt>
      <trkpt lat="39.565884" lon="-0.495231">
        <ele>118</ele>
        <time>2018-11-04T09:54:16.000Z</time>
      </trkpt>
      <trkpt lat="39.565861" lon="-0.495309">
        <ele>118</ele>
        <time>2018-11-04T09:54:17.000Z</time>
      </trkpt>
      <trkpt lat="39.565838" lon="-0.495387">
        <ele>118</ele>
        <time>2018-11-04T09:54:18.000Z</time>
      </trkpt>
      <trkpt lat="39.565817" lon="-0.495467">
        <ele>118</ele>
        <time>2018-11-04T09:54:19.000Z</time>
      </trkpt>
      <trkpt lat="39.565808" lon="-0.49555">
        <ele>118</ele>
        <time>2018-11-04T09:54:20.000Z</time>
      </trkpt>
      <trkpt lat="39.565807" lon="-0.495633">
        <ele>118</ele>
        <time>2018-11-04T09:54:21.000Z</time>
      </trkpt>
      <trkpt lat="39.565798" lon="-0.495715">
        <ele>118</ele>
        <time>2018-11-04T09:54:22.000Z</time>
      </trkpt>
      <trkpt lat="39.565776" lon="-0.49579">
        <ele>117.1100032</ele>
        <time>2018-11-04T09:54:23.000Z</time>
      </trkpt>
      <trkpt lat="39.565738" lon="-0.495854">
        <ele>117</ele>
        <time>2018-11-04T09:54:24.000Z</time>
      </trkpt>
      <trkpt lat="39.565688" lon="-0.495903">
        <ele>116.1100032</ele>
        <time>2018-11-04T09:54:25.000Z</time>
      </trkpt>
      <trkpt lat="39.565632" lon="-0.49594">
        <ele>116</ele>
        <time>2018-11-04T09:54:26.000Z</time>
      </trkpt>
      <trkpt lat="39.565576" lon="-0.495977">
        <ele>115.173331285307</ele>
        <time>2018-11-04T09:54:27.000Z</time>
      </trkpt>
      <trkpt lat="39.565527" lon="-0.496028">
        <ele>115</ele>
        <time>2018-11-04T09:54:28.000Z</time>
      </trkpt>
      <trkpt lat="39.565486" lon="-0.496087">
        <ele>115</ele>
        <time>2018-11-04T09:54:29.000Z</time>
      </trkpt>
      <trkpt lat="39.565447" lon="-0.496151">
        <ele>115</ele>
        <time>2018-11-04T09:54:30.000Z</time>
      </trkpt>
      <trkpt lat="39.565412" lon="-0.496217">
        <ele>115</ele>
        <time>2018-11-04T09:54:31.000Z</time>
      </trkpt>
      <trkpt lat="39.565379" lon="-0.496282">
        <ele>115</ele>
        <time>2018-11-04T09:54:32.000Z</time>
      </trkpt>
      <trkpt lat="39.565346" lon="-0.496347">
        <ele>115</ele>
        <time>2018-11-04T09:54:33.000Z</time>
      </trkpt>
      <trkpt lat="39.565315" lon="-0.496411">
        <ele>115</ele>
        <time>2018-11-04T09:54:34.000Z</time>
      </trkpt>
      <trkpt lat="39.565284" lon="-0.496477">
        <ele>115</ele>
        <time>2018-11-04T09:54:35.000Z</time>
      </trkpt>
      <trkpt lat="39.565256" lon="-0.496544">
        <ele>115</ele>
        <time>2018-11-04T09:54:36.000Z</time>
      </trkpt>
      <trkpt lat="39.565226" lon="-0.496608">
        <ele>115</ele>
        <time>2018-11-04T09:54:37.000Z</time>
      </trkpt>
      <trkpt lat="39.565195" lon="-0.496671">
        <ele>115</ele>
        <time>2018-11-04T09:54:38.000Z</time>
      </trkpt>
      <trkpt lat="39.565166" lon="-0.496734">
        <ele>115</ele>
        <time>2018-11-04T09:54:39.000Z</time>
      </trkpt>
      <trkpt lat="39.565138" lon="-0.4968">
        <ele>115</ele>
        <time>2018-11-04T09:54:40.000Z</time>
      </trkpt>
      <trkpt lat="39.565111" lon="-0.496863">
        <ele>115</ele>
        <time>2018-11-04T09:54:41.000Z</time>
      </trkpt>
      <trkpt lat="39.565086" lon="-0.496925">
        <ele>115</ele>
        <time>2018-11-04T09:54:42.000Z</time>
      </trkpt>
      <trkpt lat="39.56506" lon="-0.496987">
        <ele>115</ele>
        <time>2018-11-04T09:54:43.000Z</time>
      </trkpt>
      <trkpt lat="39.565035" lon="-0.497047">
        <ele>115</ele>
        <time>2018-11-04T09:54:44.000Z</time>
      </trkpt>
      <trkpt lat="39.565009" lon="-0.497106">
        <ele>115</ele>
        <time>2018-11-04T09:54:45.000Z</time>
      </trkpt>
      <trkpt lat="39.564982" lon="-0.49716">
        <ele>115</ele>
        <time>2018-11-04T09:54:46.000Z</time>
      </trkpt>
      <trkpt lat="39.564959" lon="-0.497219">
        <ele>115</ele>
        <time>2018-11-04T09:54:47.000Z</time>
      </trkpt>
      <trkpt lat="39.564939" lon="-0.497278">
        <ele>115</ele>
        <time>2018-11-04T09:54:48.000Z</time>
      </trkpt>
      <trkpt lat="39.56492" lon="-0.497336">
        <ele>115</ele>
        <time>2018-11-04T09:54:49.000Z</time>
      </trkpt>
      <trkpt lat="39.564905" lon="-0.497395">
        <ele>115</ele>
        <time>2018-11-04T09:54:50.000Z</time>
      </trkpt>
      <trkpt lat="39.56489" lon="-0.497452">
        <ele>115</ele>
        <time>2018-11-04T09:54:51.000Z</time>
      </trkpt>
      <trkpt lat="39.56488" lon="-0.49751">
        <ele>115</ele>
        <time>2018-11-04T09:54:52.000Z</time>
      </trkpt>
      <trkpt lat="39.564873" lon="-0.497568">
        <ele>115</ele>
        <time>2018-11-04T09:54:53.000Z</time>
      </trkpt>
      <trkpt lat="39.564868" lon="-0.497622">
        <ele>115</ele>
        <time>2018-11-04T09:54:54.000Z</time>
      </trkpt>
      <trkpt lat="39.564871" lon="-0.497676">
        <ele>115.8899968</ele>
        <time>2018-11-04T09:54:55.000Z</time>
      </trkpt>
      <trkpt lat="39.564875" lon="-0.497727">
        <ele>116</ele>
        <time>2018-11-04T09:54:56.000Z</time>
      </trkpt>
      <trkpt lat="39.564881" lon="-0.497778">
        <ele>116</ele>
        <time>2018-11-04T09:54:57.000Z</time>
      </trkpt>
      <trkpt lat="39.564886" lon="-0.497826">
        <ele>116</ele>
        <time>2018-11-04T09:54:58.000Z</time>
      </trkpt>
      <trkpt lat="39.564894" lon="-0.497873">
        <ele>116</ele>
        <time>2018-11-04T09:54:59.000Z</time>
      </trkpt>
      <trkpt lat="39.564905" lon="-0.497914">
        <ele>116.8899968</ele>
        <time>2018-11-04T09:55:00.000Z</time>
      </trkpt>
      <trkpt lat="39.564921" lon="-0.497955">
        <ele>116.1100032</ele>
        <time>2018-11-04T09:55:01.000Z</time>
      </trkpt>
      <trkpt lat="39.564942" lon="-0.497999">
        <ele>116.8899968</ele>
        <time>2018-11-04T09:55:02.000Z</time>
      </trkpt>
      <trkpt lat="39.564964" lon="-0.498043">
        <ele>117</ele>
        <time>2018-11-04T09:55:03.000Z</time>
      </trkpt>
      <trkpt lat="39.564984" lon="-0.498089">
        <ele>117</ele>
        <time>2018-11-04T09:55:04.000Z</time>
      </trkpt>
      <trkpt lat="39.565" lon="-0.498138">
        <ele>117</ele>
        <time>2018-11-04T09:55:05.000Z</time>
      </trkpt>
      <trkpt lat="39.565011" lon="-0.49819">
        <ele>117.8899968</ele>
        <time>2018-11-04T09:55:06.000Z</time>
      </trkpt>
      <trkpt lat="39.565017" lon="-0.498245">
        <ele>118</ele>
        <time>2018-11-04T09:55:07.000Z</time>
      </trkpt>
      <trkpt lat="39.565019" lon="-0.4983">
        <ele>118</ele>
        <time>2018-11-04T09:55:08.000Z</time>
      </trkpt>
      <trkpt lat="39.565017" lon="-0.498353">
        <ele>118</ele>
        <time>2018-11-04T09:55:09.000Z</time>
      </trkpt>
      <trkpt lat="39.565007" lon="-0.498402">
        <ele>118</ele>
        <time>2018-11-04T09:55:10.000Z</time>
      </trkpt>
      <trkpt lat="39.564991" lon="-0.498449">
        <ele>118</ele>
        <time>2018-11-04T09:55:11.000Z</time>
      </trkpt>
      <trkpt lat="39.564973" lon="-0.498494">
        <ele>118</ele>
        <time>2018-11-04T09:55:12.000Z</time>
      </trkpt>
      <trkpt lat="39.564952" lon="-0.498535">
        <ele>118</ele>
        <time>2018-11-04T09:55:13.000Z</time>
      </trkpt>
      <trkpt lat="39.564927" lon="-0.498571">
        <ele>118</ele>
        <time>2018-11-04T09:55:14.000Z</time>
      </trkpt>
      <trkpt lat="39.564898" lon="-0.498604">
        <ele>118.8899968</ele>
        <time>2018-11-04T09:55:15.000Z</time>
      </trkpt>
      <trkpt lat="39.564864" lon="-0.498631">
        <ele>119</ele>
        <time>2018-11-04T09:55:16.000Z</time>
      </trkpt>
      <trkpt lat="39.564827" lon="-0.498655">
        <ele>119</ele>
        <time>2018-11-04T09:55:17.000Z</time>
      </trkpt>
      <trkpt lat="39.564789" lon="-0.498678">
        <ele>118.1100032</ele>
        <time>2018-11-04T09:55:18.000Z</time>
      </trkpt>
      <trkpt lat="39.564749" lon="-0.498691">
        <ele>118</ele>
        <time>2018-11-04T09:55:19.000Z</time>
      </trkpt>
      <trkpt lat="39.564708" lon="-0.4987">
        <ele>118</ele>
        <time>2018-11-04T09:55:20.000Z</time>
      </trkpt>
      <trkpt lat="39.564667" lon="-0.498701">
        <ele>118</ele>
        <time>2018-11-04T09:55:21.000Z</time>
      </trkpt>
      <trkpt lat="39.564626" lon="-0.498695">
        <ele>118</ele>
        <time>2018-11-04T09:55:22.000Z</time>
      </trkpt>
      <trkpt lat="39.564585" lon="-0.498686">
        <ele>118</ele>
        <time>2018-11-04T09:55:23.000Z</time>
      </trkpt>
      <trkpt lat="39.564542" lon="-0.498683">
        <ele>118</ele>
        <time>2018-11-04T09:55:24.000Z</time>
      </trkpt>
      <trkpt lat="39.564499" lon="-0.498696">
        <ele>118</ele>
        <time>2018-11-04T09:55:25.000Z</time>
      </trkpt>
      <trkpt lat="39.564461" lon="-0.498727">
        <ele>118.8899968</ele>
        <time>2018-11-04T09:55:26.000Z</time>
      </trkpt>
      <trkpt lat="39.564431" lon="-0.498771">
        <ele>119</ele>
        <time>2018-11-04T09:55:27.000Z</time>
      </trkpt>
      <trkpt lat="39.564408" lon="-0.498822">
        <ele>119</ele>
        <time>2018-11-04T09:55:28.000Z</time>
      </trkpt>
      <trkpt lat="39.564387" lon="-0.498878">
        <ele>119.8899968</ele>
        <time>2018-11-04T09:55:29.000Z</time>
      </trkpt>
      <trkpt lat="39.56437" lon="-0.498932">
        <ele>120</ele>
        <time>2018-11-04T09:55:30.000Z</time>
      </trkpt>
      <trkpt lat="39.564354" lon="-0.498984">
        <ele>120</ele>
        <time>2018-11-04T09:55:31.000Z</time>
      </trkpt>
      <trkpt lat="39.564339" lon="-0.499032">
        <ele>120</ele>
        <time>2018-11-04T09:55:32.000Z</time>
      </trkpt>
      <trkpt lat="39.564326" lon="-0.499079">
        <ele>120</ele>
        <time>2018-11-04T09:55:33.000Z</time>
      </trkpt>
      <trkpt lat="39.564313" lon="-0.499125">
        <ele>120</ele>
        <time>2018-11-04T09:55:34.000Z</time>
      </trkpt>
      <trkpt lat="39.564301" lon="-0.49917">
        <ele>120</ele>
        <time>2018-11-04T09:55:35.000Z</time>
      </trkpt>
      <trkpt lat="39.564289" lon="-0.499215">
        <ele>120</ele>
        <time>2018-11-04T09:55:36.000Z</time>
      </trkpt>
      <trkpt lat="39.564278" lon="-0.499261">
        <ele>120</ele>
        <time>2018-11-04T09:55:37.000Z</time>
      </trkpt>
      <trkpt lat="39.564267" lon="-0.499305">
        <ele>120</ele>
        <time>2018-11-04T09:55:38.000Z</time>
      </trkpt>
      <trkpt lat="39.564254" lon="-0.49935">
        <ele>120</ele>
        <time>2018-11-04T09:55:39.000Z</time>
      </trkpt>
      <trkpt lat="39.564242" lon="-0.499395">
        <ele>120</ele>
        <time>2018-11-04T09:55:40.000Z</time>
      </trkpt>
      <trkpt lat="39.564231" lon="-0.499439">
        <ele>120</ele>
        <time>2018-11-04T09:55:41.000Z</time>
      </trkpt>
      <trkpt lat="39.564218" lon="-0.499482">
        <ele>120</ele>
        <time>2018-11-04T09:55:42.000Z</time>
      </trkpt>
      <trkpt lat="39.564205" lon="-0.499523">
        <ele>120</ele>
        <time>2018-11-04T09:55:43.000Z</time>
      </trkpt>
      <trkpt lat="39.564193" lon="-0.499565">
        <ele>120</ele>
        <time>2018-11-04T09:55:44.000Z</time>
      </trkpt>
      <trkpt lat="39.564181" lon="-0.499608">
        <ele>120</ele>
        <time>2018-11-04T09:55:45.000Z</time>
      </trkpt>
      <trkpt lat="39.564169" lon="-0.49965">
        <ele>120.8899968</ele>
        <time>2018-11-04T09:55:46.000Z</time>
      </trkpt>
      <trkpt lat="39.564156" lon="-0.499692">
        <ele>121</ele>
        <time>2018-11-04T09:55:47.000Z</time>
      </trkpt>
      <trkpt lat="39.564142" lon="-0.499734">
        <ele>121</ele>
        <time>2018-11-04T09:55:48.000Z</time>
      </trkpt>
      <trkpt lat="39.564128" lon="-0.499776">
        <ele>121</ele>
        <time>2018-11-04T09:55:49.000Z</time>
      </trkpt>
      <trkpt lat="39.564113" lon="-0.499817">
        <ele>121</ele>
        <time>2018-11-04T09:55:50.000Z</time>
      </trkpt>
      <trkpt lat="39.564095" lon="-0.499858">
        <ele>121</ele>
        <time>2018-11-04T09:55:51.000Z</time>
      </trkpt>
      <trkpt lat="39.564077" lon="-0.4999">
        <ele>121</ele>
        <time>2018-11-04T09:55:52.000Z</time>
      </trkpt>
      <trkpt lat="39.564059" lon="-0.499939">
        <ele>121</ele>
        <time>2018-11-04T09:55:53.000Z</time>
      </trkpt>
      <trkpt lat="39.56404" lon="-0.499976">
        <ele>121</ele>
        <time>2018-11-04T09:55:54.000Z</time>
      </trkpt>
      <trkpt lat="39.56402" lon="-0.500013">
        <ele>121</ele>
        <time>2018-11-04T09:55:55.000Z</time>
      </trkpt>
      <trkpt lat="39.564001" lon="-0.500053">
        <ele>121</ele>
        <time>2018-11-04T09:55:56.000Z</time>
      </trkpt>
      <trkpt lat="39.563982" lon="-0.500092">
        <ele>121</ele>
        <time>2018-11-04T09:55:57.000Z</time>
      </trkpt>
      <trkpt lat="39.563961" lon="-0.500131">
        <ele>121</ele>
        <time>2018-11-04T09:55:58.000Z</time>
      </trkpt>
      <trkpt lat="39.56394" lon="-0.500169">
        <ele>121</ele>
        <time>2018-11-04T09:55:59.000Z</time>
      </trkpt>
      <trkpt lat="39.563917" lon="-0.500206">
        <ele>121</ele>
        <time>2018-11-04T09:56:00.000Z</time>
      </trkpt>
      <trkpt lat="39.563893" lon="-0.500244">
        <ele>121</ele>
        <time>2018-11-04T09:56:01.000Z</time>
      </trkpt>
      <trkpt lat="39.563868" lon="-0.500282">
        <ele>121</ele>
        <time>2018-11-04T09:56:02.000Z</time>
      </trkpt>
      <trkpt lat="39.563841" lon="-0.500318">
        <ele>121</ele>
        <time>2018-11-04T09:56:03.000Z</time>
      </trkpt>
      <trkpt lat="39.563813" lon="-0.500354">
        <ele>121</ele>
        <time>2018-11-04T09:56:04.000Z</time>
      </trkpt>
      <trkpt lat="39.563785" lon="-0.50039">
        <ele>121</ele>
        <time>2018-11-04T09:56:05.000Z</time>
      </trkpt>
      <trkpt lat="39.563755" lon="-0.500428">
        <ele>121</ele>
        <time>2018-11-04T09:56:06.000Z</time>
      </trkpt>
      <trkpt lat="39.563721" lon="-0.500461">
        <ele>121</ele>
        <time>2018-11-04T09:56:07.000Z</time>
      </trkpt>
      <trkpt lat="39.563682" lon="-0.50049">
        <ele>121</ele>
        <time>2018-11-04T09:56:08.000Z</time>
      </trkpt>
      <trkpt lat="39.563642" lon="-0.500523">
        <ele>121</ele>
        <time>2018-11-04T09:56:09.000Z</time>
      </trkpt>
      <trkpt lat="39.563604" lon="-0.50056">
        <ele>121</ele>
        <time>2018-11-04T09:56:10.000Z</time>
      </trkpt>
      <trkpt lat="39.563566" lon="-0.500599">
        <ele>121</ele>
        <time>2018-11-04T09:56:11.000Z</time>
      </trkpt>
      <trkpt lat="39.563527" lon="-0.500635">
        <ele>121</ele>
        <time>2018-11-04T09:56:12.000Z</time>
      </trkpt>
      <trkpt lat="39.563489" lon="-0.50067">
        <ele>121</ele>
        <time>2018-11-04T09:56:13.000Z</time>
      </trkpt>
      <trkpt lat="39.563451" lon="-0.500705">
        <ele>120.387759100349</ele>
        <time>2018-11-04T09:56:14.000Z</time>
      </trkpt>
      <trkpt lat="39.563414" lon="-0.500736">
        <ele>120</ele>
        <time>2018-11-04T09:56:15.000Z</time>
      </trkpt>
      <trkpt lat="39.563377" lon="-0.500765">
        <ele>120</ele>
        <time>2018-11-04T09:56:16.000Z</time>
      </trkpt>
      <trkpt lat="39.563341" lon="-0.500795">
        <ele>120</ele>
        <time>2018-11-04T09:56:17.000Z</time>
      </trkpt>
      <trkpt lat="39.563307" lon="-0.500824">
        <ele>120</ele>
        <time>2018-11-04T09:56:18.000Z</time>
      </trkpt>
      <trkpt lat="39.56327" lon="-0.500852">
        <ele>120</ele>
        <time>2018-11-04T09:56:19.000Z</time>
      </trkpt>
      <trkpt lat="39.563233" lon="-0.500878">
        <ele>120</ele>
        <time>2018-11-04T09:56:20.000Z</time>
      </trkpt>
      <trkpt lat="39.563196" lon="-0.500903">
        <ele>120.849310024373</ele>
        <time>2018-11-04T09:56:21.000Z</time>
      </trkpt>
      <trkpt lat="39.563157" lon="-0.500928">
        <ele>121</ele>
        <time>2018-11-04T09:56:22.000Z</time>
      </trkpt>
      <trkpt lat="39.563117" lon="-0.500953">
        <ele>121</ele>
        <time>2018-11-04T09:56:23.000Z</time>
      </trkpt>
      <trkpt lat="39.563075" lon="-0.500979">
        <ele>121</ele>
        <time>2018-11-04T09:56:24.000Z</time>
      </trkpt>
      <trkpt lat="39.563033" lon="-0.501009">
        <ele>121</ele>
        <time>2018-11-04T09:56:25.000Z</time>
      </trkpt>
      <trkpt lat="39.562992" lon="-0.501042">
        <ele>121.849312666573</ele>
        <time>2018-11-04T09:56:26.000Z</time>
      </trkpt>
      <trkpt lat="39.562951" lon="-0.50108">
        <ele>122</ele>
        <time>2018-11-04T09:56:27.000Z</time>
      </trkpt>
      <trkpt lat="39.562913" lon="-0.501125">
        <ele>122</ele>
        <time>2018-11-04T09:56:28.000Z</time>
      </trkpt>
      <trkpt lat="39.562877" lon="-0.501172">
        <ele>122</ele>
        <time>2018-11-04T09:56:29.000Z</time>
      </trkpt>
      <trkpt lat="39.56284" lon="-0.501218">
        <ele>122</ele>
        <time>2018-11-04T09:56:30.000Z</time>
      </trkpt>
      <trkpt lat="39.562797" lon="-0.501255">
        <ele>122</ele>
        <time>2018-11-04T09:56:31.000Z</time>
      </trkpt>
      <trkpt lat="39.562748" lon="-0.501275">
        <ele>122</ele>
        <time>2018-11-04T09:56:32.000Z</time>
      </trkpt>
      <trkpt lat="39.562697" lon="-0.501275">
        <ele>122</ele>
        <time>2018-11-04T09:56:33.000Z</time>
      </trkpt>
      <trkpt lat="39.56265" lon="-0.501254">
        <ele>122</ele>
        <time>2018-11-04T09:56:34.000Z</time>
      </trkpt>
      <trkpt lat="39.562609" lon="-0.501215">
        <ele>122</ele>
        <time>2018-11-04T09:56:35.000Z</time>
      </trkpt>
      <trkpt lat="39.562568" lon="-0.501178">
        <ele>122</ele>
        <time>2018-11-04T09:56:36.000Z</time>
      </trkpt>
      <trkpt lat="39.562522" lon="-0.50115">
        <ele>122</ele>
        <time>2018-11-04T09:56:37.000Z</time>
      </trkpt>
      <trkpt lat="39.56247" lon="-0.501137">
        <ele>122.8899968</ele>
        <time>2018-11-04T09:56:38.000Z</time>
      </trkpt>
      <trkpt lat="39.562415" lon="-0.501141">
        <ele>123</ele>
        <time>2018-11-04T09:56:39.000Z</time>
      </trkpt>
      <trkpt lat="39.562361" lon="-0.501154">
        <ele>123</ele>
        <time>2018-11-04T09:56:40.000Z</time>
      </trkpt>
      <trkpt lat="39.562307" lon="-0.50117">
        <ele>123</ele>
        <time>2018-11-04T09:56:41.000Z</time>
      </trkpt>
      <trkpt lat="39.562254" lon="-0.501184">
        <ele>123</ele>
        <time>2018-11-04T09:56:42.000Z</time>
      </trkpt>
      <trkpt lat="39.562201" lon="-0.5012">
        <ele>123</ele>
        <time>2018-11-04T09:56:43.000Z</time>
      </trkpt>
      <trkpt lat="39.56215" lon="-0.501214">
        <ele>123</ele>
        <time>2018-11-04T09:56:44.000Z</time>
      </trkpt>
      <trkpt lat="39.5621" lon="-0.501231">
        <ele>123</ele>
        <time>2018-11-04T09:56:45.000Z</time>
      </trkpt>
      <trkpt lat="39.562049" lon="-0.501246">
        <ele>123</ele>
        <time>2018-11-04T09:56:46.000Z</time>
      </trkpt>
      <trkpt lat="39.561998" lon="-0.50126">
        <ele>123</ele>
        <time>2018-11-04T09:56:47.000Z</time>
      </trkpt>
      <trkpt lat="39.561948" lon="-0.501275">
        <ele>123</ele>
        <time>2018-11-04T09:56:48.000Z</time>
      </trkpt>
      <trkpt lat="39.561898" lon="-0.501289">
        <ele>123</ele>
        <time>2018-11-04T09:56:49.000Z</time>
      </trkpt>
      <trkpt lat="39.561848" lon="-0.501305">
        <ele>123</ele>
        <time>2018-11-04T09:56:50.000Z</time>
      </trkpt>
      <trkpt lat="39.561799" lon="-0.50132">
        <ele>123</ele>
        <time>2018-11-04T09:56:51.000Z</time>
      </trkpt>
      <trkpt lat="39.56175" lon="-0.501332">
        <ele>123.8899968</ele>
        <time>2018-11-04T09:56:52.000Z</time>
      </trkpt>
      <trkpt lat="39.5617" lon="-0.501344">
        <ele>124</ele>
        <time>2018-11-04T09:56:53.000Z</time>
      </trkpt>
      <trkpt lat="39.561649" lon="-0.501355">
        <ele>124</ele>
        <time>2018-11-04T09:56:54.000Z</time>
      </trkpt>
      <trkpt lat="39.561601" lon="-0.501365">
        <ele>124</ele>
        <time>2018-11-04T09:56:55.000Z</time>
      </trkpt>
      <trkpt lat="39.561553" lon="-0.501377">
        <ele>124</ele>
        <time>2018-11-04T09:56:56.000Z</time>
      </trkpt>
      <trkpt lat="39.561505" lon="-0.501388">
        <ele>124.8899968</ele>
        <time>2018-11-04T09:56:57.000Z</time>
      </trkpt>
      <trkpt lat="39.561458" lon="-0.501399">
        <ele>125</ele>
        <time>2018-11-04T09:56:58.000Z</time>
      </trkpt>
      <trkpt lat="39.561412" lon="-0.501411">
        <ele>125</ele>
        <time>2018-11-04T09:56:59.000Z</time>
      </trkpt>
      <trkpt lat="39.561364" lon="-0.501422">
        <ele>125</ele>
        <time>2018-11-04T09:57:00.000Z</time>
      </trkpt>
      <trkpt lat="39.561316" lon="-0.501434">
        <ele>125</ele>
        <time>2018-11-04T09:57:01.000Z</time>
      </trkpt>
      <trkpt lat="39.561269" lon="-0.501445">
        <ele>125</ele>
        <time>2018-11-04T09:57:02.000Z</time>
      </trkpt>
      <trkpt lat="39.561221" lon="-0.501459">
        <ele>125.8899968</ele>
        <time>2018-11-04T09:57:03.000Z</time>
      </trkpt>
      <trkpt lat="39.561172" lon="-0.501474">
        <ele>126</ele>
        <time>2018-11-04T09:57:04.000Z</time>
      </trkpt>
      <trkpt lat="39.561125" lon="-0.501488">
        <ele>126</ele>
        <time>2018-11-04T09:57:05.000Z</time>
      </trkpt>
      <trkpt lat="39.561077" lon="-0.5015">
        <ele>126</ele>
        <time>2018-11-04T09:57:06.000Z</time>
      </trkpt>
      <trkpt lat="39.56103" lon="-0.501511">
        <ele>126</ele>
        <time>2018-11-04T09:57:07.000Z</time>
      </trkpt>
      <trkpt lat="39.560982" lon="-0.501525">
        <ele>126</ele>
        <time>2018-11-04T09:57:08.000Z</time>
      </trkpt>
      <trkpt lat="39.560935" lon="-0.501541">
        <ele>126</ele>
        <time>2018-11-04T09:57:09.000Z</time>
      </trkpt>
      <trkpt lat="39.560886" lon="-0.501555">
        <ele>126</ele>
        <time>2018-11-04T09:57:10.000Z</time>
      </trkpt>
      <trkpt lat="39.560837" lon="-0.501568">
        <ele>126</ele>
        <time>2018-11-04T09:57:11.000Z</time>
      </trkpt>
      <trkpt lat="39.560787" lon="-0.501581">
        <ele>126</ele>
        <time>2018-11-04T09:57:12.000Z</time>
      </trkpt>
      <trkpt lat="39.560737" lon="-0.501596">
        <ele>126</ele>
        <time>2018-11-04T09:57:13.000Z</time>
      </trkpt>
      <trkpt lat="39.56069" lon="-0.501612">
        <ele>126.700783116137</ele>
        <time>2018-11-04T09:57:14.000Z</time>
      </trkpt>
      <trkpt lat="39.560644" lon="-0.501633">
        <ele>127</ele>
        <time>2018-11-04T09:57:15.000Z</time>
      </trkpt>
      <trkpt lat="39.560598" lon="-0.501664">
        <ele>127</ele>
        <time>2018-11-04T09:57:16.000Z</time>
      </trkpt>
      <trkpt lat="39.560555" lon="-0.501699">
        <ele>127</ele>
        <time>2018-11-04T09:57:17.000Z</time>
      </trkpt>
      <trkpt lat="39.560513" lon="-0.50174">
        <ele>127</ele>
        <time>2018-11-04T09:57:18.000Z</time>
      </trkpt>
      <trkpt lat="39.560477" lon="-0.501787">
        <ele>127</ele>
        <time>2018-11-04T09:57:19.000Z</time>
      </trkpt>
      <trkpt lat="39.560445" lon="-0.501838">
        <ele>127</ele>
        <time>2018-11-04T09:57:20.000Z</time>
      </trkpt>
      <trkpt lat="39.560414" lon="-0.501893">
        <ele>127</ele>
        <time>2018-11-04T09:57:21.000Z</time>
      </trkpt>
      <trkpt lat="39.560384" lon="-0.50195">
        <ele>127</ele>
        <time>2018-11-04T09:57:22.000Z</time>
      </trkpt>
      <trkpt lat="39.560354" lon="-0.502006">
        <ele>127.8899968</ele>
        <time>2018-11-04T09:57:23.000Z</time>
      </trkpt>
      <trkpt lat="39.560322" lon="-0.502062">
        <ele>128</ele>
        <time>2018-11-04T09:57:24.000Z</time>
      </trkpt>
      <trkpt lat="39.56029" lon="-0.50212">
        <ele>128</ele>
        <time>2018-11-04T09:57:25.000Z</time>
      </trkpt>
      <trkpt lat="39.560256" lon="-0.502177">
        <ele>127.118812257623</ele>
        <time>2018-11-04T09:57:26.000Z</time>
      </trkpt>
      <trkpt lat="39.560223" lon="-0.502233">
        <ele>127</ele>
        <time>2018-11-04T09:57:27.000Z</time>
      </trkpt>
      <trkpt lat="39.56019" lon="-0.50229">
        <ele>127</ele>
        <time>2018-11-04T09:57:28.000Z</time>
      </trkpt>
      <trkpt lat="39.56016" lon="-0.502346">
        <ele>127</ele>
        <time>2018-11-04T09:57:29.000Z</time>
      </trkpt>
      <trkpt lat="39.560131" lon="-0.5024">
        <ele>127</ele>
        <time>2018-11-04T09:57:30.000Z</time>
      </trkpt>
      <trkpt lat="39.5601" lon="-0.502454">
        <ele>127</ele>
        <time>2018-11-04T09:57:31.000Z</time>
      </trkpt>
      <trkpt lat="39.560068" lon="-0.502509">
        <ele>127</ele>
        <time>2018-11-04T09:57:32.000Z</time>
      </trkpt>
      <trkpt lat="39.560038" lon="-0.502565">
        <ele>127</ele>
        <time>2018-11-04T09:57:33.000Z</time>
      </trkpt>
      <trkpt lat="39.560007" lon="-0.50262">
        <ele>127</ele>
        <time>2018-11-04T09:57:34.000Z</time>
      </trkpt>
      <trkpt lat="39.559975" lon="-0.502672">
        <ele>127</ele>
        <time>2018-11-04T09:57:35.000Z</time>
      </trkpt>
      <trkpt lat="39.559944" lon="-0.502726">
        <ele>127</ele>
        <time>2018-11-04T09:57:36.000Z</time>
      </trkpt>
      <trkpt lat="39.559913" lon="-0.502783">
        <ele>127</ele>
        <time>2018-11-04T09:57:37.000Z</time>
      </trkpt>
      <trkpt lat="39.559882" lon="-0.502842">
        <ele>127</ele>
        <time>2018-11-04T09:57:38.000Z</time>
      </trkpt>
      <trkpt lat="39.559852" lon="-0.502901">
        <ele>127</ele>
        <time>2018-11-04T09:57:39.000Z</time>
      </trkpt>
      <trkpt lat="39.55982" lon="-0.502961">
        <ele>127</ele>
        <time>2018-11-04T09:57:40.000Z</time>
      </trkpt>
      <trkpt lat="39.559787" lon="-0.503021">
        <ele>127</ele>
        <time>2018-11-04T09:57:41.000Z</time>
      </trkpt>
      <trkpt lat="39.559754" lon="-0.503082">
        <ele>127</ele>
        <time>2018-11-04T09:57:42.000Z</time>
      </trkpt>
      <trkpt lat="39.559721" lon="-0.503145">
        <ele>127</ele>
        <time>2018-11-04T09:57:43.000Z</time>
      </trkpt>
      <trkpt lat="39.559687" lon="-0.503204">
        <ele>127</ele>
        <time>2018-11-04T09:57:44.000Z</time>
      </trkpt>
      <trkpt lat="39.559653" lon="-0.503265">
        <ele>127</ele>
        <time>2018-11-04T09:57:45.000Z</time>
      </trkpt>
      <trkpt lat="39.559621" lon="-0.503328">
        <ele>127</ele>
        <time>2018-11-04T09:57:46.000Z</time>
      </trkpt>
      <trkpt lat="39.559587" lon="-0.503391">
        <ele>127</ele>
        <time>2018-11-04T09:57:47.000Z</time>
      </trkpt>
      <trkpt lat="39.559552" lon="-0.503452">
        <ele>127</ele>
        <time>2018-11-04T09:57:48.000Z</time>
      </trkpt>
      <trkpt lat="39.559518" lon="-0.50351">
        <ele>127</ele>
        <time>2018-11-04T09:57:49.000Z</time>
      </trkpt>
      <trkpt lat="39.559483" lon="-0.503568">
        <ele>127</ele>
        <time>2018-11-04T09:57:50.000Z</time>
      </trkpt>
      <trkpt lat="39.559445" lon="-0.503625">
        <ele>127</ele>
        <time>2018-11-04T09:57:51.000Z</time>
      </trkpt>
      <trkpt lat="39.559407" lon="-0.503682">
        <ele>127</ele>
        <time>2018-11-04T09:57:52.000Z</time>
      </trkpt>
      <trkpt lat="39.559374" lon="-0.503749">
        <ele>127</ele>
        <time>2018-11-04T09:57:53.000Z</time>
      </trkpt>
      <trkpt lat="39.559356" lon="-0.503823">
        <ele>127</ele>
        <time>2018-11-04T09:57:54.000Z</time>
      </trkpt>
      <trkpt lat="39.559336" lon="-0.503896">
        <ele>126.299209820799</ele>
        <time>2018-11-04T09:57:55.000Z</time>
      </trkpt>
      <trkpt lat="39.559302" lon="-0.503959">
        <ele>126</ele>
        <time>2018-11-04T09:57:56.000Z</time>
      </trkpt>
      <trkpt lat="39.559255" lon="-0.504002">
        <ele>125.1100032</ele>
        <time>2018-11-04T09:57:57.000Z</time>
      </trkpt>
      <trkpt lat="39.559201" lon="-0.504015">
        <ele>125</ele>
        <time>2018-11-04T09:57:58.000Z</time>
      </trkpt>
      <trkpt lat="39.559151" lon="-0.504">
        <ele>125</ele>
        <time>2018-11-04T09:57:59.000Z</time>
      </trkpt>
      <trkpt lat="39.559112" lon="-0.503957">
        <ele>125</ele>
        <time>2018-11-04T09:58:00.000Z</time>
      </trkpt>
      <trkpt lat="39.55909" lon="-0.503897">
        <ele>124.156922177994</ele>
        <time>2018-11-04T09:58:01.000Z</time>
      </trkpt>
      <trkpt lat="39.559091" lon="-0.503831">
        <ele>124</ele>
        <time>2018-11-04T09:58:02.000Z</time>
      </trkpt>
      <trkpt lat="39.559109" lon="-0.503771">
        <ele>124</ele>
        <time>2018-11-04T09:58:03.000Z</time>
      </trkpt>
      <trkpt lat="39.559144" lon="-0.503726">
        <ele>124</ele>
        <time>2018-11-04T09:58:04.000Z</time>
      </trkpt>
      <trkpt lat="39.559194" lon="-0.503709">
        <ele>124</ele>
        <time>2018-11-04T09:58:05.000Z</time>
      </trkpt>
      <trkpt lat="39.559248" lon="-0.503724">
        <ele>124</ele>
        <time>2018-11-04T09:58:06.000Z</time>
      </trkpt>
      <trkpt lat="39.55929" lon="-0.503766">
        <ele>124</ele>
        <time>2018-11-04T09:58:07.000Z</time>
      </trkpt>
      <trkpt lat="39.559314" lon="-0.503829">
        <ele>124</ele>
        <time>2018-11-04T09:58:08.000Z</time>
      </trkpt>
      <trkpt lat="39.55932" lon="-0.503902">
        <ele>123.30469</ele>
        <time>2018-11-04T09:58:09.000Z</time>
      </trkpt>
      <trkpt lat="39.55931" lon="-0.503977">
        <ele>123</ele>
        <time>2018-11-04T09:58:10.000Z</time>
      </trkpt>
      <trkpt lat="39.559292" lon="-0.50405">
        <ele>123</ele>
        <time>2018-11-04T09:58:11.000Z</time>
      </trkpt>
      <trkpt lat="39.559277" lon="-0.504123">
        <ele>123</ele>
        <time>2018-11-04T09:58:12.000Z</time>
      </trkpt>
      <trkpt lat="39.559267" lon="-0.504197">
        <ele>123</ele>
        <time>2018-11-04T09:58:13.000Z</time>
      </trkpt>
      <trkpt lat="39.559261" lon="-0.504271">
        <ele>123</ele>
        <time>2018-11-04T09:58:14.000Z</time>
      </trkpt>
      <trkpt lat="39.559258" lon="-0.504348">
        <ele>123</ele>
        <time>2018-11-04T09:58:15.000Z</time>
      </trkpt>
      <trkpt lat="39.55926" lon="-0.504424">
        <ele>123</ele>
        <time>2018-11-04T09:58:16.000Z</time>
      </trkpt>
      <trkpt lat="39.559263" lon="-0.5045">
        <ele>123</ele>
        <time>2018-11-04T09:58:17.000Z</time>
      </trkpt>
      <trkpt lat="39.559267" lon="-0.504576">
        <ele>123</ele>
        <time>2018-11-04T09:58:18.000Z</time>
      </trkpt>
      <trkpt lat="39.55927" lon="-0.504652">
        <ele>123</ele>
        <time>2018-11-04T09:58:19.000Z</time>
      </trkpt>
      <trkpt lat="39.559273" lon="-0.504729">
        <ele>123</ele>
        <time>2018-11-04T09:58:20.000Z</time>
      </trkpt>
      <trkpt lat="39.559273" lon="-0.504807">
        <ele>123</ele>
        <time>2018-11-04T09:58:21.000Z</time>
      </trkpt>
      <trkpt lat="39.559274" lon="-0.504887">
        <ele>123.8899968</ele>
        <time>2018-11-04T09:58:22.000Z</time>
      </trkpt>
      <trkpt lat="39.559279" lon="-0.504969">
        <ele>124</ele>
        <time>2018-11-04T09:58:23.000Z</time>
      </trkpt>
      <trkpt lat="39.559282" lon="-0.505052">
        <ele>124.8899968</ele>
        <time>2018-11-04T09:58:24.000Z</time>
      </trkpt>
      <trkpt lat="39.55928" lon="-0.50514">
        <ele>125</ele>
        <time>2018-11-04T09:58:25.000Z</time>
      </trkpt>
      <trkpt lat="39.559283" lon="-0.505222">
        <ele>125.689921711434</ele>
        <time>2018-11-04T09:58:26.000Z</time>
      </trkpt>
      <trkpt lat="39.559284" lon="-0.505303">
        <ele>126</ele>
        <time>2018-11-04T09:58:27.000Z</time>
      </trkpt>
      <trkpt lat="39.559285" lon="-0.505383">
        <ele>126.8899968</ele>
        <time>2018-11-04T09:58:28.000Z</time>
      </trkpt>
      <trkpt lat="39.559286" lon="-0.505462">
        <ele>127</ele>
        <time>2018-11-04T09:58:29.000Z</time>
      </trkpt>
      <trkpt lat="39.559287" lon="-0.505541">
        <ele>127</ele>
        <time>2018-11-04T09:58:30.000Z</time>
      </trkpt>
      <trkpt lat="39.559288" lon="-0.505619">
        <ele>127</ele>
        <time>2018-11-04T09:58:31.000Z</time>
      </trkpt>
      <trkpt lat="39.559288" lon="-0.505694">
        <ele>127</ele>
        <time>2018-11-04T09:58:32.000Z</time>
      </trkpt>
      <trkpt lat="39.55929" lon="-0.505765">
        <ele>127</ele>
        <time>2018-11-04T09:58:33.000Z</time>
      </trkpt>
      <trkpt lat="39.559287" lon="-0.505833">
        <ele>127</ele>
        <time>2018-11-04T09:58:34.000Z</time>
      </trkpt>
      <trkpt lat="39.55928" lon="-0.505898">
        <ele>127</ele>
        <time>2018-11-04T09:58:35.000Z</time>
      </trkpt>
      <trkpt lat="39.559275" lon="-0.505965">
        <ele>127</ele>
        <time>2018-11-04T09:58:36.000Z</time>
      </trkpt>
      <trkpt lat="39.559267" lon="-0.50603">
        <ele>127.8899968</ele>
        <time>2018-11-04T09:58:37.000Z</time>
      </trkpt>
      <trkpt lat="39.559256" lon="-0.506097">
        <ele>128</ele>
        <time>2018-11-04T09:58:38.000Z</time>
      </trkpt>
      <trkpt lat="39.559249" lon="-0.506157">
        <ele>128</ele>
        <time>2018-11-04T09:58:39.000Z</time>
      </trkpt>
      <trkpt lat="39.559237" lon="-0.506216">
        <ele>128</ele>
        <time>2018-11-04T09:58:40.000Z</time>
      </trkpt>
      <trkpt lat="39.559227" lon="-0.506273">
        <ele>128</ele>
        <time>2018-11-04T09:58:41.000Z</time>
      </trkpt>
      <trkpt lat="39.559219" lon="-0.50633">
        <ele>128</ele>
        <time>2018-11-04T09:58:42.000Z</time>
      </trkpt>
      <trkpt lat="39.559207" lon="-0.506385">
        <ele>127.1100032</ele>
        <time>2018-11-04T09:58:43.000Z</time>
      </trkpt>
      <trkpt lat="39.559194" lon="-0.506439">
        <ele>127</ele>
        <time>2018-11-04T09:58:44.000Z</time>
      </trkpt>
      <trkpt lat="39.559183" lon="-0.506493">
        <ele>127</ele>
        <time>2018-11-04T09:58:45.000Z</time>
      </trkpt>
      <trkpt lat="39.559173" lon="-0.506545">
        <ele>127</ele>
        <time>2018-11-04T09:58:46.000Z</time>
      </trkpt>
      <trkpt lat="39.559168" lon="-0.506603">
        <ele>127</ele>
        <time>2018-11-04T09:58:47.000Z</time>
      </trkpt>
      <trkpt lat="39.559162" lon="-0.506659">
        <ele>127</ele>
        <time>2018-11-04T09:58:48.000Z</time>
      </trkpt>
      <trkpt lat="39.559154" lon="-0.506717">
        <ele>127</ele>
        <time>2018-11-04T09:58:49.000Z</time>
      </trkpt>
      <trkpt lat="39.559147" lon="-0.506776">
        <ele>127</ele>
        <time>2018-11-04T09:58:50.000Z</time>
      </trkpt>
      <trkpt lat="39.559139" lon="-0.506835">
        <ele>127</ele>
        <time>2018-11-04T09:58:51.000Z</time>
      </trkpt>
      <trkpt lat="39.559129" lon="-0.506893">
        <ele>127</ele>
        <time>2018-11-04T09:58:52.000Z</time>
      </trkpt>
      <trkpt lat="39.55912" lon="-0.506951">
        <ele>126.148651687337</ele>
        <time>2018-11-04T09:58:53.000Z</time>
      </trkpt>
      <trkpt lat="39.559116" lon="-0.50701">
        <ele>126</ele>
        <time>2018-11-04T09:58:54.000Z</time>
      </trkpt>
      <trkpt lat="39.559117" lon="-0.50707">
        <ele>126</ele>
        <time>2018-11-04T09:58:55.000Z</time>
      </trkpt>
      <trkpt lat="39.559117" lon="-0.507129">
        <ele>126</ele>
        <time>2018-11-04T09:58:56.000Z</time>
      </trkpt>
      <trkpt lat="39.55912" lon="-0.507194">
        <ele>126</ele>
        <time>2018-11-04T09:58:57.000Z</time>
      </trkpt>
      <trkpt lat="39.559132" lon="-0.507259">
        <ele>126</ele>
        <time>2018-11-04T09:58:58.000Z</time>
      </trkpt>
      <trkpt lat="39.559142" lon="-0.507324">
        <ele>126</ele>
        <time>2018-11-04T09:58:59.000Z</time>
      </trkpt>
      <trkpt lat="39.55914" lon="-0.507388">
        <ele>126</ele>
        <time>2018-11-04T09:59:00.000Z</time>
      </trkpt>
      <trkpt lat="39.559126" lon="-0.507451">
        <ele>125.1100032</ele>
        <time>2018-11-04T09:59:01.000Z</time>
      </trkpt>
      <trkpt lat="39.559099" lon="-0.507506">
        <ele>125</ele>
        <time>2018-11-04T09:59:02.000Z</time>
      </trkpt>
      <trkpt lat="39.559065" lon="-0.507553">
        <ele>125</ele>
        <time>2018-11-04T09:59:03.000Z</time>
      </trkpt>
      <trkpt lat="39.559031" lon="-0.507598">
        <ele>125</ele>
        <time>2018-11-04T09:59:04.000Z</time>
      </trkpt>
      <trkpt lat="39.559" lon="-0.507648">
        <ele>125</ele>
        <time>2018-11-04T09:59:05.000Z</time>
      </trkpt>
      <trkpt lat="39.558972" lon="-0.507708">
        <ele>125</ele>
        <time>2018-11-04T09:59:06.000Z</time>
      </trkpt>
      <trkpt lat="39.558956" lon="-0.507774">
        <ele>124.152782222222</ele>
        <time>2018-11-04T09:59:07.000Z</time>
      </trkpt>
      <trkpt lat="39.558944" lon="-0.507842">
        <ele>124</ele>
        <time>2018-11-04T09:59:08.000Z</time>
      </trkpt>
      <trkpt lat="39.558933" lon="-0.507908">
        <ele>124</ele>
        <time>2018-11-04T09:59:09.000Z</time>
      </trkpt>
      <trkpt lat="39.558922" lon="-0.507973">
        <ele>124</ele>
        <time>2018-11-04T09:59:10.000Z</time>
      </trkpt>
      <trkpt lat="39.558912" lon="-0.508038">
        <ele>124</ele>
        <time>2018-11-04T09:59:11.000Z</time>
      </trkpt>
      <trkpt lat="39.558903" lon="-0.508103">
        <ele>124</ele>
        <time>2018-11-04T09:59:12.000Z</time>
      </trkpt>
      <trkpt lat="39.558894" lon="-0.508167">
        <ele>124</ele>
        <time>2018-11-04T09:59:13.000Z</time>
      </trkpt>
      <trkpt lat="39.558885" lon="-0.508229">
        <ele>124</ele>
        <time>2018-11-04T09:59:14.000Z</time>
      </trkpt>
      <trkpt lat="39.558876" lon="-0.508291">
        <ele>124</ele>
        <time>2018-11-04T09:59:15.000Z</time>
      </trkpt>
      <trkpt lat="39.558865" lon="-0.508351">
        <ele>124</ele>
        <time>2018-11-04T09:59:16.000Z</time>
      </trkpt>
      <trkpt lat="39.558856" lon="-0.508409">
        <ele>124</ele>
        <time>2018-11-04T09:59:17.000Z</time>
      </trkpt>
      <trkpt lat="39.558843" lon="-0.508467">
        <ele>124.8899968</ele>
        <time>2018-11-04T09:59:18.000Z</time>
      </trkpt>
      <trkpt lat="39.558834" lon="-0.508526">
        <ele>125</ele>
        <time>2018-11-04T09:59:19.000Z</time>
      </trkpt>
      <trkpt lat="39.558824" lon="-0.508585">
        <ele>124.252105540557</ele>
        <time>2018-11-04T09:59:20.000Z</time>
      </trkpt>
      <trkpt lat="39.558812" lon="-0.508641">
        <ele>124</ele>
        <time>2018-11-04T09:59:21.000Z</time>
      </trkpt>
      <trkpt lat="39.5588" lon="-0.508697">
        <ele>124.8899968</ele>
        <time>2018-11-04T09:59:22.000Z</time>
      </trkpt>
      <trkpt lat="39.558789" lon="-0.508753">
        <ele>125</ele>
        <time>2018-11-04T09:59:23.000Z</time>
      </trkpt>
      <trkpt lat="39.55878" lon="-0.508811">
        <ele>125</ele>
        <time>2018-11-04T09:59:24.000Z</time>
      </trkpt>
      <trkpt lat="39.558771" lon="-0.508868">
        <ele>125</ele>
        <time>2018-11-04T09:59:25.000Z</time>
      </trkpt>
      <trkpt lat="39.558764" lon="-0.508925">
        <ele>125</ele>
        <time>2018-11-04T09:59:26.000Z</time>
      </trkpt>
      <trkpt lat="39.558752" lon="-0.508981">
        <ele>125</ele>
        <time>2018-11-04T09:59:27.000Z</time>
      </trkpt>
      <trkpt lat="39.558739" lon="-0.509037">
        <ele>125</ele>
        <time>2018-11-04T09:59:28.000Z</time>
      </trkpt>
      <trkpt lat="39.558726" lon="-0.509092">
        <ele>125</ele>
        <time>2018-11-04T09:59:29.000Z</time>
      </trkpt>
      <trkpt lat="39.558716" lon="-0.509148">
        <ele>125</ele>
        <time>2018-11-04T09:59:30.000Z</time>
      </trkpt>
      <trkpt lat="39.558705" lon="-0.509204">
        <ele>125</ele>
        <time>2018-11-04T09:59:31.000Z</time>
      </trkpt>
      <trkpt lat="39.558698" lon="-0.50926">
        <ele>125</ele>
        <time>2018-11-04T09:59:32.000Z</time>
      </trkpt>
      <trkpt lat="39.558688" lon="-0.509317">
        <ele>125</ele>
        <time>2018-11-04T09:59:33.000Z</time>
      </trkpt>
      <trkpt lat="39.558678" lon="-0.509374">
        <ele>125</ele>
        <time>2018-11-04T09:59:34.000Z</time>
      </trkpt>
      <trkpt lat="39.558668" lon="-0.509431">
        <ele>125</ele>
        <time>2018-11-04T09:59:35.000Z</time>
      </trkpt>
      <trkpt lat="39.558658" lon="-0.509487">
        <ele>125</ele>
        <time>2018-11-04T09:59:36.000Z</time>
      </trkpt>
      <trkpt lat="39.558652" lon="-0.509542">
        <ele>125</ele>
        <time>2018-11-04T09:59:37.000Z</time>
      </trkpt>
      <trkpt lat="39.558642" lon="-0.509596">
        <ele>125</ele>
        <time>2018-11-04T09:59:38.000Z</time>
      </trkpt>
      <trkpt lat="39.558628" lon="-0.509647">
        <ele>125</ele>
        <time>2018-11-04T09:59:39.000Z</time>
      </trkpt>
      <trkpt lat="39.558612" lon="-0.509697">
        <ele>125</ele>
        <time>2018-11-04T09:59:40.000Z</time>
      </trkpt>
      <trkpt lat="39.558598" lon="-0.509746">
        <ele>125</ele>
        <time>2018-11-04T09:59:41.000Z</time>
      </trkpt>
      <trkpt lat="39.558582" lon="-0.509795">
        <ele>125</ele>
        <time>2018-11-04T09:59:42.000Z</time>
      </trkpt>
      <trkpt lat="39.558566" lon="-0.509839">
        <ele>125</ele>
        <time>2018-11-04T09:59:43.000Z</time>
      </trkpt>
      <trkpt lat="39.55855" lon="-0.509878">
        <ele>125</ele>
        <time>2018-11-04T09:59:44.000Z</time>
      </trkpt>
      <trkpt lat="39.558534" lon="-0.509915">
        <ele>125</ele>
        <time>2018-11-04T09:59:45.000Z</time>
      </trkpt>
      <trkpt lat="39.558514" lon="-0.509944">
        <ele>125</ele>
        <time>2018-11-04T09:59:46.000Z</time>
      </trkpt>
      <trkpt lat="39.558496" lon="-0.509975">
        <ele>124.118812257623</ele>
        <time>2018-11-04T09:59:47.000Z</time>
      </trkpt>
      <trkpt lat="39.558482" lon="-0.510009">
        <ele>124</ele>
        <time>2018-11-04T09:59:48.000Z</time>
      </trkpt>
      <trkpt lat="39.558463" lon="-0.510043">
        <ele>124</ele>
        <time>2018-11-04T09:59:49.000Z</time>
      </trkpt>
      <trkpt lat="39.558442" lon="-0.510078">
        <ele>124</ele>
        <time>2018-11-04T09:59:50.000Z</time>
      </trkpt>
      <trkpt lat="39.558415" lon="-0.510114">
        <ele>124</ele>
        <time>2018-11-04T09:59:51.000Z</time>
      </trkpt>
      <trkpt lat="39.558389" lon="-0.510154">
        <ele>124</ele>
        <time>2018-11-04T09:59:52.000Z</time>
      </trkpt>
      <trkpt lat="39.558366" lon="-0.510202">
        <ele>124</ele>
        <time>2018-11-04T09:59:53.000Z</time>
      </trkpt>
      <trkpt lat="39.55834" lon="-0.510251">
        <ele>124</ele>
        <time>2018-11-04T09:59:54.000Z</time>
      </trkpt>
      <trkpt lat="39.558318" lon="-0.510306">
        <ele>124.872551357185</ele>
        <time>2018-11-04T09:59:55.000Z</time>
      </trkpt>
      <trkpt lat="39.558294" lon="-0.510358">
        <ele>125</ele>
        <time>2018-11-04T09:59:56.000Z</time>
      </trkpt>
      <trkpt lat="39.558272" lon="-0.510412">
        <ele>125</ele>
        <time>2018-11-04T09:59:57.000Z</time>
      </trkpt>
      <trkpt lat="39.558248" lon="-0.510465">
        <ele>125</ele>
        <time>2018-11-04T09:59:58.000Z</time>
      </trkpt>
      <trkpt lat="39.558224" lon="-0.510517">
        <ele>125</ele>
        <time>2018-11-04T09:59:59.000Z</time>
      </trkpt>
      <trkpt lat="39.558199" lon="-0.510567">
        <ele>125</ele>
        <time>2018-11-04T10:00:00.000Z</time>
      </trkpt>
      <trkpt lat="39.558172" lon="-0.510617">
        <ele>125</ele>
        <time>2018-11-04T10:00:01.000Z</time>
      </trkpt>
      <trkpt lat="39.558146" lon="-0.51067">
        <ele>125</ele>
        <time>2018-11-04T10:00:02.000Z</time>
      </trkpt>
      <trkpt lat="39.558122" lon="-0.510729">
        <ele>125</ele>
        <time>2018-11-04T10:00:03.000Z</time>
      </trkpt>
      <trkpt lat="39.558096" lon="-0.510783">
        <ele>124.157145991808</ele>
        <time>2018-11-04T10:00:04.000Z</time>
      </trkpt>
      <trkpt lat="39.558067" lon="-0.510834">
        <ele>124</ele>
        <time>2018-11-04T10:00:05.000Z</time>
      </trkpt>
      <trkpt lat="39.558037" lon="-0.510884">
        <ele>124.8899968</ele>
        <time>2018-11-04T10:00:06.000Z</time>
      </trkpt>
      <trkpt lat="39.558011" lon="-0.510936">
        <ele>125</ele>
        <time>2018-11-04T10:00:07.000Z</time>
      </trkpt>
      <trkpt lat="39.557987" lon="-0.510989">
        <ele>125</ele>
        <time>2018-11-04T10:00:08.000Z</time>
      </trkpt>
      <trkpt lat="39.557961" lon="-0.51104">
        <ele>125</ele>
        <time>2018-11-04T10:00:09.000Z</time>
      </trkpt>
      <trkpt lat="39.557935" lon="-0.511089">
        <ele>125</ele>
        <time>2018-11-04T10:00:10.000Z</time>
      </trkpt>
      <trkpt lat="39.557904" lon="-0.511132">
        <ele>125</ele>
        <time>2018-11-04T10:00:11.000Z</time>
      </trkpt>
      <trkpt lat="39.557876" lon="-0.511178">
        <ele>125.8899968</ele>
        <time>2018-11-04T10:00:12.000Z</time>
      </trkpt>
      <trkpt lat="39.557849" lon="-0.511224">
        <ele>126</ele>
        <time>2018-11-04T10:00:13.000Z</time>
      </trkpt>
      <trkpt lat="39.557825" lon="-0.511275">
        <ele>126</ele>
        <time>2018-11-04T10:00:14.000Z</time>
      </trkpt>
      <trkpt lat="39.557802" lon="-0.511324">
        <ele>126</ele>
        <time>2018-11-04T10:00:15.000Z</time>
      </trkpt>
      <trkpt lat="39.557778" lon="-0.511373">
        <ele>126</ele>
        <time>2018-11-04T10:00:16.000Z</time>
      </trkpt>
      <trkpt lat="39.557753" lon="-0.511423">
        <ele>126</ele>
        <time>2018-11-04T10:00:17.000Z</time>
      </trkpt>
      <trkpt lat="39.557726" lon="-0.511472">
        <ele>126</ele>
        <time>2018-11-04T10:00:18.000Z</time>
      </trkpt>
      <trkpt lat="39.557699" lon="-0.511523">
        <ele>126</ele>
        <time>2018-11-04T10:00:19.000Z</time>
      </trkpt>
      <trkpt lat="39.557674" lon="-0.511573">
        <ele>126</ele>
        <time>2018-11-04T10:00:20.000Z</time>
      </trkpt>
      <trkpt lat="39.557649" lon="-0.511625">
        <ele>126</ele>
        <time>2018-11-04T10:00:21.000Z</time>
      </trkpt>
      <trkpt lat="39.557622" lon="-0.511677">
        <ele>126</ele>
        <time>2018-11-04T10:00:22.000Z</time>
      </trkpt>
      <trkpt lat="39.557595" lon="-0.511729">
        <ele>126</ele>
        <time>2018-11-04T10:00:23.000Z</time>
      </trkpt>
      <trkpt lat="39.55757" lon="-0.511782">
        <ele>126</ele>
        <time>2018-11-04T10:00:24.000Z</time>
      </trkpt>
      <trkpt lat="39.557546" lon="-0.511836">
        <ele>126</ele>
        <time>2018-11-04T10:00:25.000Z</time>
      </trkpt>
      <trkpt lat="39.557521" lon="-0.511886">
        <ele>126</ele>
        <time>2018-11-04T10:00:26.000Z</time>
      </trkpt>
      <trkpt lat="39.557496" lon="-0.511938">
        <ele>126</ele>
        <time>2018-11-04T10:00:27.000Z</time>
      </trkpt>
      <trkpt lat="39.55747" lon="-0.511988">
        <ele>126</ele>
        <time>2018-11-04T10:00:28.000Z</time>
      </trkpt>
      <trkpt lat="39.557444" lon="-0.512039">
        <ele>126</ele>
        <time>2018-11-04T10:00:29.000Z</time>
      </trkpt>
      <trkpt lat="39.557417" lon="-0.512092">
        <ele>126</ele>
        <time>2018-11-04T10:00:30.000Z</time>
      </trkpt>
      <trkpt lat="39.557389" lon="-0.512143">
        <ele>126</ele>
        <time>2018-11-04T10:00:31.000Z</time>
      </trkpt>
      <trkpt lat="39.557361" lon="-0.512192">
        <ele>126</ele>
        <time>2018-11-04T10:00:32.000Z</time>
      </trkpt>
      <trkpt lat="39.557334" lon="-0.512244">
        <ele>126</ele>
        <time>2018-11-04T10:00:33.000Z</time>
      </trkpt>
      <trkpt lat="39.557309" lon="-0.512295">
        <ele>126</ele>
        <time>2018-11-04T10:00:34.000Z</time>
      </trkpt>
      <trkpt lat="39.557285" lon="-0.512343">
        <ele>126</ele>
        <time>2018-11-04T10:00:35.000Z</time>
      </trkpt>
      <trkpt lat="39.557262" lon="-0.512389">
        <ele>126.881187742377</ele>
        <time>2018-11-04T10:00:36.000Z</time>
      </trkpt>
      <trkpt lat="39.557241" lon="-0.512431">
        <ele>127</ele>
        <time>2018-11-04T10:00:37.000Z</time>
      </trkpt>
      <trkpt lat="39.557219" lon="-0.512473">
        <ele>127</ele>
        <time>2018-11-04T10:00:38.000Z</time>
      </trkpt>
      <trkpt lat="39.557194" lon="-0.512511">
        <ele>127</ele>
        <time>2018-11-04T10:00:39.000Z</time>
      </trkpt>
      <trkpt lat="39.557171" lon="-0.512553">
        <ele>127</ele>
        <time>2018-11-04T10:00:40.000Z</time>
      </trkpt>
      <trkpt lat="39.557145" lon="-0.512599">
        <ele>127</ele>
        <time>2018-11-04T10:00:41.000Z</time>
      </trkpt>
      <trkpt lat="39.557116" lon="-0.512645">
        <ele>127</ele>
        <time>2018-11-04T10:00:42.000Z</time>
      </trkpt>
      <trkpt lat="39.557086" lon="-0.512698">
        <ele>126.1100032</ele>
        <time>2018-11-04T10:00:43.000Z</time>
      </trkpt>
      <trkpt lat="39.557055" lon="-0.512755">
        <ele>126</ele>
        <time>2018-11-04T10:00:44.000Z</time>
      </trkpt>
      <trkpt lat="39.557023" lon="-0.512813">
        <ele>126</ele>
        <time>2018-11-04T10:00:45.000Z</time>
      </trkpt>
      <trkpt lat="39.556988" lon="-0.512872">
        <ele>126</ele>
        <time>2018-11-04T10:00:46.000Z</time>
      </trkpt>
      <trkpt lat="39.556949" lon="-0.512935">
        <ele>126.842854008192</ele>
        <time>2018-11-04T10:00:47.000Z</time>
      </trkpt>
      <trkpt lat="39.556909" lon="-0.512996">
        <ele>127</ele>
        <time>2018-11-04T10:00:48.000Z</time>
      </trkpt>
      <trkpt lat="39.556867" lon="-0.513059">
        <ele>127</ele>
        <time>2018-11-04T10:00:49.000Z</time>
      </trkpt>
      <trkpt lat="39.556824" lon="-0.513121">
        <ele>127</ele>
        <time>2018-11-04T10:00:50.000Z</time>
      </trkpt>
      <trkpt lat="39.55678" lon="-0.513186">
        <ele>127</ele>
        <time>2018-11-04T10:00:51.000Z</time>
      </trkpt>
      <trkpt lat="39.556736" lon="-0.513251">
        <ele>126.1100032</ele>
        <time>2018-11-04T10:00:52.000Z</time>
      </trkpt>
      <trkpt lat="39.556693" lon="-0.51332">
        <ele>126</ele>
        <time>2018-11-04T10:00:53.000Z</time>
      </trkpt>
      <trkpt lat="39.556649" lon="-0.513388">
        <ele>126</ele>
        <time>2018-11-04T10:00:54.000Z</time>
      </trkpt>
      <trkpt lat="39.556603" lon="-0.513456">
        <ele>126</ele>
        <time>2018-11-04T10:00:55.000Z</time>
      </trkpt>
      <trkpt lat="39.556559" lon="-0.513527">
        <ele>125.1100032</ele>
        <time>2018-11-04T10:00:56.000Z</time>
      </trkpt>
      <trkpt lat="39.556516" lon="-0.513598">
        <ele>125</ele>
        <time>2018-11-04T10:00:57.000Z</time>
      </trkpt>
      <trkpt lat="39.556473" lon="-0.513668">
        <ele>125</ele>
        <time>2018-11-04T10:00:58.000Z</time>
      </trkpt>
      <trkpt lat="39.55643" lon="-0.513737">
        <ele>125</ele>
        <time>2018-11-04T10:00:59.000Z</time>
      </trkpt>
      <trkpt lat="39.556386" lon="-0.513804">
        <ele>125</ele>
        <time>2018-11-04T10:01:00.000Z</time>
      </trkpt>
      <trkpt lat="39.556342" lon="-0.513872">
        <ele>125</ele>
        <time>2018-11-04T10:01:01.000Z</time>
      </trkpt>
      <trkpt lat="39.556297" lon="-0.513943">
        <ele>125</ele>
        <time>2018-11-04T10:01:02.000Z</time>
      </trkpt>
      <trkpt lat="39.556251" lon="-0.514013">
        <ele>124.112247430221</ele>
        <time>2018-11-04T10:01:03.000Z</time>
      </trkpt>
      <trkpt lat="39.556206" lon="-0.514084">
        <ele>124</ele>
        <time>2018-11-04T10:01:04.000Z</time>
      </trkpt>
      <trkpt lat="39.556159" lon="-0.51416">
        <ele>124</ele>
        <time>2018-11-04T10:01:05.000Z</time>
      </trkpt>
      <trkpt lat="39.55611" lon="-0.514234">
        <ele>123.157145991808</ele>
        <time>2018-11-04T10:01:06.000Z</time>
      </trkpt>
      <trkpt lat="39.556061" lon="-0.514308">
        <ele>123</ele>
        <time>2018-11-04T10:01:07.000Z</time>
      </trkpt>
      <trkpt lat="39.556012" lon="-0.514385">
        <ele>123</ele>
        <time>2018-11-04T10:01:08.000Z</time>
      </trkpt>
      <trkpt lat="39.555963" lon="-0.514462">
        <ele>122.118812257623</ele>
        <time>2018-11-04T10:01:09.000Z</time>
      </trkpt>
      <trkpt lat="39.555913" lon="-0.514541">
        <ele>122</ele>
        <time>2018-11-04T10:01:10.000Z</time>
      </trkpt>
      <trkpt lat="39.555866" lon="-0.514623">
        <ele>121.1100032</ele>
        <time>2018-11-04T10:01:11.000Z</time>
      </trkpt>
      <trkpt lat="39.555817" lon="-0.514705">
        <ele>121</ele>
        <time>2018-11-04T10:01:12.000Z</time>
      </trkpt>
      <trkpt lat="39.555766" lon="-0.514784">
        <ele>121</ele>
        <time>2018-11-04T10:01:13.000Z</time>
      </trkpt>
      <trkpt lat="39.555714" lon="-0.514864">
        <ele>120.154933386216</ele>
        <time>2018-11-04T10:01:14.000Z</time>
      </trkpt>
      <trkpt lat="39.555661" lon="-0.514945">
        <ele>120</ele>
        <time>2018-11-04T10:01:15.000Z</time>
      </trkpt>
      <trkpt lat="39.555607" lon="-0.515026">
        <ele>120</ele>
        <time>2018-11-04T10:01:16.000Z</time>
      </trkpt>
      <trkpt lat="39.555552" lon="-0.515106">
        <ele>120</ele>
        <time>2018-11-04T10:01:17.000Z</time>
      </trkpt>
      <trkpt lat="39.555498" lon="-0.515187">
        <ele>119.1100032</ele>
        <time>2018-11-04T10:01:18.000Z</time>
      </trkpt>
      <trkpt lat="39.555444" lon="-0.515268">
        <ele>119</ele>
        <time>2018-11-04T10:01:19.000Z</time>
      </trkpt>
      <trkpt lat="39.55539" lon="-0.515349">
        <ele>119</ele>
        <time>2018-11-04T10:01:20.000Z</time>
      </trkpt>
      <trkpt lat="39.555335" lon="-0.515432">
        <ele>118.157145991808</ele>
        <time>2018-11-04T10:01:21.000Z</time>
      </trkpt>
      <trkpt lat="39.555279" lon="-0.515515">
        <ele>118</ele>
        <time>2018-11-04T10:01:22.000Z</time>
      </trkpt>
      <trkpt lat="39.555223" lon="-0.5156">
        <ele>118</ele>
        <time>2018-11-04T10:01:23.000Z</time>
      </trkpt>
      <trkpt lat="39.555165" lon="-0.515683">
        <ele>117.315383706504</ele>
        <time>2018-11-04T10:01:24.000Z</time>
      </trkpt>
      <trkpt lat="39.555108" lon="-0.515767">
        <ele>117</ele>
        <time>2018-11-04T10:01:25.000Z</time>
      </trkpt>
      <trkpt lat="39.555049" lon="-0.515851">
        <ele>117</ele>
        <time>2018-11-04T10:01:26.000Z</time>
      </trkpt>
      <trkpt lat="39.554991" lon="-0.515934">
        <ele>116.1100032</ele>
        <time>2018-11-04T10:01:27.000Z</time>
      </trkpt>
      <trkpt lat="39.554931" lon="-0.516017">
        <ele>116</ele>
        <time>2018-11-04T10:01:28.000Z</time>
      </trkpt>
      <trkpt lat="39.55487" lon="-0.516099">
        <ele>116</ele>
        <time>2018-11-04T10:01:29.000Z</time>
      </trkpt>
      <trkpt lat="39.55481" lon="-0.516182">
        <ele>115.1100032</ele>
        <time>2018-11-04T10:01:30.000Z</time>
      </trkpt>
      <trkpt lat="39.554753" lon="-0.51627">
        <ele>115</ele>
        <time>2018-11-04T10:01:31.000Z</time>
      </trkpt>
      <trkpt lat="39.5547" lon="-0.51636">
        <ele>115</ele>
        <time>2018-11-04T10:01:32.000Z</time>
      </trkpt>
      <trkpt lat="39.554647" lon="-0.516447">
        <ele>114.1100032</ele>
        <time>2018-11-04T10:01:33.000Z</time>
      </trkpt>
      <trkpt lat="39.554595" lon="-0.516527">
        <ele>114</ele>
        <time>2018-11-04T10:01:34.000Z</time>
      </trkpt>
      <trkpt lat="39.554548" lon="-0.516609">
        <ele>114</ele>
        <time>2018-11-04T10:01:35.000Z</time>
      </trkpt>
      <trkpt lat="39.554505" lon="-0.516694">
        <ele>113.1100032</ele>
        <time>2018-11-04T10:01:36.000Z</time>
      </trkpt>
      <trkpt lat="39.554463" lon="-0.516781">
        <ele>113</ele>
        <time>2018-11-04T10:01:37.000Z</time>
      </trkpt>
      <trkpt lat="39.554413" lon="-0.516856">
        <ele>112.157145991808</ele>
        <time>2018-11-04T10:01:38.000Z</time>
      </trkpt>
      <trkpt lat="39.554357" lon="-0.516921">
        <ele>112</ele>
        <time>2018-11-04T10:01:39.000Z</time>
      </trkpt>
      <trkpt lat="39.554297" lon="-0.516984">
        <ele>112</ele>
        <time>2018-11-04T10:01:40.000Z</time>
      </trkpt>
      <trkpt lat="39.554239" lon="-0.517054">
        <ele>112</ele>
        <time>2018-11-04T10:01:41.000Z</time>
      </trkpt>
      <trkpt lat="39.554186" lon="-0.517129">
        <ele>112</ele>
        <time>2018-11-04T10:01:42.000Z</time>
      </trkpt>
      <trkpt lat="39.554136" lon="-0.517207">
        <ele>112</ele>
        <time>2018-11-04T10:01:43.000Z</time>
      </trkpt>
      <trkpt lat="39.554087" lon="-0.517286">
        <ele>112</ele>
        <time>2018-11-04T10:01:44.000Z</time>
      </trkpt>
      <trkpt lat="39.554037" lon="-0.517364">
        <ele>112</ele>
        <time>2018-11-04T10:01:45.000Z</time>
      </trkpt>
      <trkpt lat="39.553987" lon="-0.517442">
        <ele>112</ele>
        <time>2018-11-04T10:01:46.000Z</time>
      </trkpt>
      <trkpt lat="39.553938" lon="-0.517523">
        <ele>112</ele>
        <time>2018-11-04T10:01:47.000Z</time>
      </trkpt>
      <trkpt lat="39.55389" lon="-0.517604">
        <ele>112.8899968</ele>
        <time>2018-11-04T10:01:48.000Z</time>
      </trkpt>
      <trkpt lat="39.553843" lon="-0.517685">
        <ele>113</ele>
        <time>2018-11-04T10:01:49.000Z</time>
      </trkpt>
      <trkpt lat="39.553798" lon="-0.517769">
        <ele>112.315383706504</ele>
        <time>2018-11-04T10:01:50.000Z</time>
      </trkpt>
      <trkpt lat="39.553758" lon="-0.517861">
        <ele>112</ele>
        <time>2018-11-04T10:01:51.000Z</time>
      </trkpt>
      <trkpt lat="39.553724" lon="-0.517959">
        <ele>112</ele>
        <time>2018-11-04T10:01:52.000Z</time>
      </trkpt>
      <trkpt lat="39.553697" lon="-0.518062">
        <ele>112</ele>
        <time>2018-11-04T10:01:53.000Z</time>
      </trkpt>
      <trkpt lat="39.553675" lon="-0.518165">
        <ele>111.1100032</ele>
        <time>2018-11-04T10:01:54.000Z</time>
      </trkpt>
      <trkpt lat="39.553652" lon="-0.518273">
        <ele>111</ele>
        <time>2018-11-04T10:01:55.000Z</time>
      </trkpt>
      <trkpt lat="39.553629" lon="-0.518381">
        <ele>111</ele>
        <time>2018-11-04T10:01:56.000Z</time>
      </trkpt>
      <trkpt lat="39.553605" lon="-0.518489">
        <ele>110.159422709481</ele>
        <time>2018-11-04T10:01:57.000Z</time>
      </trkpt>
      <trkpt lat="39.553578" lon="-0.5186">
        <ele>109.118812257623</ele>
        <time>2018-11-04T10:01:58.000Z</time>
      </trkpt>
      <trkpt lat="39.553549" lon="-0.518711">
        <ele>109</ele>
        <time>2018-11-04T10:01:59.000Z</time>
      </trkpt>
      <trkpt lat="39.553523" lon="-0.518821">
        <ele>108.1100032</ele>
        <time>2018-11-04T10:02:00.000Z</time>
      </trkpt>
      <trkpt lat="39.553493" lon="-0.518931">
        <ele>108</ele>
        <time>2018-11-04T10:02:01.000Z</time>
      </trkpt>
      <trkpt lat="39.553463" lon="-0.519044">
        <ele>107.4099968</ele>
        <time>2018-11-04T10:02:02.000Z</time>
      </trkpt>
      <trkpt lat="39.553429" lon="-0.519161">
        <ele>106.157145991808</ele>
        <time>2018-11-04T10:02:03.000Z</time>
      </trkpt>
      <trkpt lat="39.553397" lon="-0.51928">
        <ele>105.1100032</ele>
        <time>2018-11-04T10:02:04.000Z</time>
      </trkpt>
      <trkpt lat="39.553366" lon="-0.519401">
        <ele>104.175928888889</ele>
        <time>2018-11-04T10:02:05.000Z</time>
      </trkpt>
      <trkpt lat="39.553336" lon="-0.519521">
        <ele>103.119568695652</ele>
        <time>2018-11-04T10:02:06.000Z</time>
      </trkpt>
      <trkpt lat="39.553308" lon="-0.519642">
        <ele>102.320614789338</ele>
        <time>2018-11-04T10:02:07.000Z</time>
      </trkpt>
      <trkpt lat="39.553281" lon="-0.519762">
        <ele>101.159425666902</ele>
        <time>2018-11-04T10:02:08.000Z</time>
      </trkpt>
      <trkpt lat="39.553255" lon="-0.519878">
        <ele>101</ele>
        <time>2018-11-04T10:02:09.000Z</time>
      </trkpt>
      <trkpt lat="39.553233" lon="-0.519999">
        <ele>101</ele>
        <time>2018-11-04T10:02:10.000Z</time>
      </trkpt>
      <trkpt lat="39.553208" lon="-0.520118">
        <ele>100.1100032</ele>
        <time>2018-11-04T10:02:11.000Z</time>
      </trkpt>
      <trkpt lat="39.55318" lon="-0.520234">
        <ele>100</ele>
        <time>2018-11-04T10:02:12.000Z</time>
      </trkpt>
      <trkpt lat="39.553157" lon="-0.520349">
        <ele>100</ele>
        <time>2018-11-04T10:02:13.000Z</time>
      </trkpt>
      <trkpt lat="39.553144" lon="-0.520462">
        <ele>100</ele>
        <time>2018-11-04T10:02:14.000Z</time>
      </trkpt>
      <trkpt lat="39.553147" lon="-0.52057">
        <ele>100</ele>
        <time>2018-11-04T10:02:15.000Z</time>
      </trkpt>
      <trkpt lat="39.553168" lon="-0.520672">
        <ele>100</ele>
        <time>2018-11-04T10:02:16.000Z</time>
      </trkpt>
      <trkpt lat="39.553189" lon="-0.520768">
        <ele>99.1100032</ele>
        <time>2018-11-04T10:02:17.000Z</time>
      </trkpt>
      <trkpt lat="39.553198" lon="-0.520861">
        <ele>99</ele>
        <time>2018-11-04T10:02:18.000Z</time>
      </trkpt>
      <trkpt lat="39.553185" lon="-0.520949">
        <ele>98.1594227094811</ele>
        <time>2018-11-04T10:02:19.000Z</time>
      </trkpt>
      <trkpt lat="39.553152" lon="-0.521027">
        <ele>98</ele>
        <time>2018-11-04T10:02:20.000Z</time>
      </trkpt>
      <trkpt lat="39.553108" lon="-0.521091">
        <ele>97.309524777017</ele>
        <time>2018-11-04T10:02:21.000Z</time>
      </trkpt>
      <trkpt lat="39.553054" lon="-0.521145">
        <ele>97</ele>
        <time>2018-11-04T10:02:22.000Z</time>
      </trkpt>
      <trkpt lat="39.553" lon="-0.521197">
        <ele>97</ele>
        <time>2018-11-04T10:02:23.000Z</time>
      </trkpt>
      <trkpt lat="39.552947" lon="-0.521249">
        <ele>97</ele>
        <time>2018-11-04T10:02:24.000Z</time>
      </trkpt>
      <trkpt lat="39.552899" lon="-0.521304">
        <ele>97</ele>
        <time>2018-11-04T10:02:25.000Z</time>
      </trkpt>
      <trkpt lat="39.552853" lon="-0.521358">
        <ele>97</ele>
        <time>2018-11-04T10:02:26.000Z</time>
      </trkpt>
      <trkpt lat="39.552809" lon="-0.521409">
        <ele>97</ele>
        <time>2018-11-04T10:02:27.000Z</time>
      </trkpt>
      <trkpt lat="39.552766" lon="-0.521457">
        <ele>97</ele>
        <time>2018-11-04T10:02:28.000Z</time>
      </trkpt>
      <trkpt lat="39.552724" lon="-0.521501">
        <ele>97</ele>
        <time>2018-11-04T10:02:29.000Z</time>
      </trkpt>
      <trkpt lat="39.552682" lon="-0.521545">
        <ele>97</ele>
        <time>2018-11-04T10:02:30.000Z</time>
      </trkpt>
      <trkpt lat="39.552641" lon="-0.521586">
        <ele>97</ele>
        <time>2018-11-04T10:02:31.000Z</time>
      </trkpt>
      <trkpt lat="39.552598" lon="-0.521635">
        <ele>96.1100032</ele>
        <time>2018-11-04T10:02:32.000Z</time>
      </trkpt>
      <trkpt lat="39.552556" lon="-0.521683">
        <ele>96</ele>
        <time>2018-11-04T10:02:33.000Z</time>
      </trkpt>
      <trkpt lat="39.552512" lon="-0.52173">
        <ele>95.3206081510216</ele>
        <time>2018-11-04T10:02:34.000Z</time>
      </trkpt>
      <trkpt lat="39.552467" lon="-0.52178">
        <ele>95</ele>
        <time>2018-11-04T10:02:35.000Z</time>
      </trkpt>
      <trkpt lat="39.552421" lon="-0.521831">
        <ele>94.118812257623</ele>
        <time>2018-11-04T10:02:36.000Z</time>
      </trkpt>
      <trkpt lat="39.552372" lon="-0.521886">
        <ele>94</ele>
        <time>2018-11-04T10:02:37.000Z</time>
      </trkpt>
      <trkpt lat="39.552322" lon="-0.521941">
        <ele>94</ele>
        <time>2018-11-04T10:02:38.000Z</time>
      </trkpt>
      <trkpt lat="39.55227" lon="-0.521997">
        <ele>93.1100032</ele>
        <time>2018-11-04T10:02:39.000Z</time>
      </trkpt>
      <trkpt lat="39.552217" lon="-0.522053">
        <ele>93</ele>
        <time>2018-11-04T10:02:40.000Z</time>
      </trkpt>
      <trkpt lat="39.552164" lon="-0.522111">
        <ele>93</ele>
        <time>2018-11-04T10:02:41.000Z</time>
      </trkpt>
      <trkpt lat="39.552109" lon="-0.522168">
        <ele>93</ele>
        <time>2018-11-04T10:02:42.000Z</time>
      </trkpt>
      <trkpt lat="39.552054" lon="-0.522225">
        <ele>92.1571459918081</ele>
        <time>2018-11-04T10:02:43.000Z</time>
      </trkpt>
      <trkpt lat="39.551997" lon="-0.522282">
        <ele>92</ele>
        <time>2018-11-04T10:02:44.000Z</time>
      </trkpt>
      <trkpt lat="39.55194" lon="-0.522339">
        <ele>92</ele>
        <time>2018-11-04T10:02:45.000Z</time>
      </trkpt>
      <trkpt lat="39.551882" lon="-0.522398">
        <ele>92</ele>
        <time>2018-11-04T10:02:46.000Z</time>
      </trkpt>
      <trkpt lat="39.551825" lon="-0.52246">
        <ele>92</ele>
        <time>2018-11-04T10:02:47.000Z</time>
      </trkpt>
      <trkpt lat="39.551768" lon="-0.522522">
        <ele>92</ele>
        <time>2018-11-04T10:02:48.000Z</time>
      </trkpt>
      <trkpt lat="39.551708" lon="-0.522583">
        <ele>92</ele>
        <time>2018-11-04T10:02:49.000Z</time>
      </trkpt>
      <trkpt lat="39.551648" lon="-0.522644">
        <ele>91.1571459918081</ele>
        <time>2018-11-04T10:02:50.000Z</time>
      </trkpt>
      <trkpt lat="39.551589" lon="-0.522707">
        <ele>91</ele>
        <time>2018-11-04T10:02:51.000Z</time>
      </trkpt>
      <trkpt lat="39.551528" lon="-0.52277">
        <ele>91</ele>
        <time>2018-11-04T10:02:52.000Z</time>
      </trkpt>
      <trkpt lat="39.551468" lon="-0.522834">
        <ele>91</ele>
        <time>2018-11-04T10:02:53.000Z</time>
      </trkpt>
      <trkpt lat="39.551406" lon="-0.522897">
        <ele>91</ele>
        <time>2018-11-04T10:02:54.000Z</time>
      </trkpt>
      <trkpt lat="39.551345" lon="-0.52296">
        <ele>91</ele>
        <time>2018-11-04T10:02:55.000Z</time>
      </trkpt>
      <trkpt lat="39.551285" lon="-0.523026">
        <ele>91</ele>
        <time>2018-11-04T10:02:56.000Z</time>
      </trkpt>
      <trkpt lat="39.551223" lon="-0.52309">
        <ele>91</ele>
        <time>2018-11-04T10:02:57.000Z</time>
      </trkpt>
      <trkpt lat="39.55116" lon="-0.523159">
        <ele>91</ele>
        <time>2018-11-04T10:02:58.000Z</time>
      </trkpt>
      <trkpt lat="39.551096" lon="-0.523223">
        <ele>91</ele>
        <time>2018-11-04T10:02:59.000Z</time>
      </trkpt>
      <trkpt lat="39.551033" lon="-0.523286">
        <ele>91</ele>
        <time>2018-11-04T10:03:00.000Z</time>
      </trkpt>
      <trkpt lat="39.550971" lon="-0.52335">
        <ele>91</ele>
        <time>2018-11-04T10:03:01.000Z</time>
      </trkpt>
      <trkpt lat="39.550908" lon="-0.523415">
        <ele>91</ele>
        <time>2018-11-04T10:03:02.000Z</time>
      </trkpt>
      <trkpt lat="39.550846" lon="-0.523482">
        <ele>90.118812257623</ele>
        <time>2018-11-04T10:03:03.000Z</time>
      </trkpt>
      <trkpt lat="39.550782" lon="-0.523547">
        <ele>90</ele>
        <time>2018-11-04T10:03:04.000Z</time>
      </trkpt>
      <trkpt lat="39.550719" lon="-0.523612">
        <ele>90</ele>
        <time>2018-11-04T10:03:05.000Z</time>
      </trkpt>
      <trkpt lat="39.550656" lon="-0.523682">
        <ele>90</ele>
        <time>2018-11-04T10:03:06.000Z</time>
      </trkpt>
      <trkpt lat="39.550594" lon="-0.523752">
        <ele>90</ele>
        <time>2018-11-04T10:03:07.000Z</time>
      </trkpt>
      <trkpt lat="39.550532" lon="-0.52382">
        <ele>90</ele>
        <time>2018-11-04T10:03:08.000Z</time>
      </trkpt>
      <trkpt lat="39.550468" lon="-0.523886">
        <ele>90</ele>
        <time>2018-11-04T10:03:09.000Z</time>
      </trkpt>
      <trkpt lat="39.550406" lon="-0.523953">
        <ele>90</ele>
        <time>2018-11-04T10:03:10.000Z</time>
      </trkpt>
      <trkpt lat="39.550344" lon="-0.524022">
        <ele>90</ele>
        <time>2018-11-04T10:03:11.000Z</time>
      </trkpt>
      <trkpt lat="39.550284" lon="-0.524084">
        <ele>90</ele>
        <time>2018-11-04T10:03:12.000Z</time>
      </trkpt>
      <trkpt lat="39.550226" lon="-0.52415">
        <ele>90</ele>
        <time>2018-11-04T10:03:13.000Z</time>
      </trkpt>
      <trkpt lat="39.550177" lon="-0.524224">
        <ele>90.6793918489784</ele>
        <time>2018-11-04T10:03:14.000Z</time>
      </trkpt>
      <trkpt lat="39.550141" lon="-0.524306">
        <ele>91</ele>
        <time>2018-11-04T10:03:15.000Z</time>
      </trkpt>
      <trkpt lat="39.550112" lon="-0.524394">
        <ele>91</ele>
        <time>2018-11-04T10:03:16.000Z</time>
      </trkpt>
      <trkpt lat="39.550084" lon="-0.52448">
        <ele>91</ele>
        <time>2018-11-04T10:03:17.000Z</time>
      </trkpt>
      <trkpt lat="39.55006" lon="-0.52457">
        <ele>91.6899217114337</ele>
        <time>2018-11-04T10:03:18.000Z</time>
      </trkpt>
      <trkpt lat="39.550036" lon="-0.524656">
        <ele>92</ele>
        <time>2018-11-04T10:03:19.000Z</time>
      </trkpt>
      <trkpt lat="39.550015" lon="-0.524747">
        <ele>92</ele>
        <time>2018-11-04T10:03:20.000Z</time>
      </trkpt>
      <trkpt lat="39.549998" lon="-0.524832">
        <ele>92.6793852106621</ele>
        <time>2018-11-04T10:03:21.000Z</time>
      </trkpt>
      <trkpt lat="39.549982" lon="-0.524916">
        <ele>93</ele>
        <time>2018-11-04T10:03:22.000Z</time>
      </trkpt>
      <trkpt lat="39.549966" lon="-0.525002">
        <ele>93</ele>
        <time>2018-11-04T10:03:23.000Z</time>
      </trkpt>
      <trkpt lat="39.54995" lon="-0.52509">
        <ele>93.8877525697791</ele>
        <time>2018-11-04T10:03:24.000Z</time>
      </trkpt>
      <trkpt lat="39.549932" lon="-0.525178">
        <ele>94</ele>
        <time>2018-11-04T10:03:25.000Z</time>
      </trkpt>
      <trkpt lat="39.549915" lon="-0.525268">
        <ele>94</ele>
        <time>2018-11-04T10:03:26.000Z</time>
      </trkpt>
      <trkpt lat="39.549897" lon="-0.525361">
        <ele>94</ele>
        <time>2018-11-04T10:03:27.000Z</time>
      </trkpt>
      <trkpt lat="39.54988" lon="-0.525462">
        <ele>94</ele>
        <time>2018-11-04T10:03:28.000Z</time>
      </trkpt>
      <trkpt lat="39.549861" lon="-0.525566">
        <ele>94</ele>
        <time>2018-11-04T10:03:29.000Z</time>
      </trkpt>
      <trkpt lat="39.54984" lon="-0.52567">
        <ele>93.118812257623</ele>
        <time>2018-11-04T10:03:30.000Z</time>
      </trkpt>
      <trkpt lat="39.549819" lon="-0.525778">
        <ele>93</ele>
        <time>2018-11-04T10:03:31.000Z</time>
      </trkpt>
      <trkpt lat="39.549795" lon="-0.525888">
        <ele>92.1100032</ele>
        <time>2018-11-04T10:03:32.000Z</time>
      </trkpt>
      <trkpt lat="39.54977" lon="-0.525998">
        <ele>92</ele>
        <time>2018-11-04T10:03:33.000Z</time>
      </trkpt>
      <trkpt lat="39.549743" lon="-0.52611">
        <ele>91.3206081510216</ele>
        <time>2018-11-04T10:03:34.000Z</time>
      </trkpt>
      <trkpt lat="39.549714" lon="-0.526222">
        <ele>91</ele>
        <time>2018-11-04T10:03:35.000Z</time>
      </trkpt>
      <trkpt lat="39.549687" lon="-0.526334">
        <ele>91</ele>
        <time>2018-11-04T10:03:36.000Z</time>
      </trkpt>
      <trkpt lat="39.549658" lon="-0.526446">
        <ele>91</ele>
        <time>2018-11-04T10:03:37.000Z</time>
      </trkpt>
      <trkpt lat="39.549625" lon="-0.526556">
        <ele>90.1527822222222</ele>
        <time>2018-11-04T10:03:38.000Z</time>
      </trkpt>
      <trkpt lat="39.549597" lon="-0.526676">
        <ele>89.3206147893379</ele>
        <time>2018-11-04T10:03:39.000Z</time>
      </trkpt>
      <trkpt lat="39.549565" lon="-0.526804">
        <ele>88.1594256669016</ele>
        <time>2018-11-04T10:03:40.000Z</time>
      </trkpt>
      <trkpt lat="39.549533" lon="-0.526929">
        <ele>87.127448642815</ele>
        <time>2018-11-04T10:03:41.000Z</time>
      </trkpt>
      <trkpt lat="39.549503" lon="-0.527054">
        <ele>87</ele>
        <time>2018-11-04T10:03:42.000Z</time>
      </trkpt>
      <trkpt lat="39.549481" lon="-0.527186">
        <ele>86.1100032</ele>
        <time>2018-11-04T10:03:43.000Z</time>
      </trkpt>
      <trkpt lat="39.549456" lon="-0.527322">
        <ele>85.4472058578005</ele>
        <time>2018-11-04T10:03:44.000Z</time>
      </trkpt>
      <trkpt lat="39.549434" lon="-0.527454">
        <ele>85</ele>
        <time>2018-11-04T10:03:45.000Z</time>
      </trkpt>
      <trkpt lat="39.549414" lon="-0.527582">
        <ele>84.1100032</ele>
        <time>2018-11-04T10:03:46.000Z</time>
      </trkpt>
      <trkpt lat="39.54939" lon="-0.527708">
        <ele>84</ele>
        <time>2018-11-04T10:03:47.000Z</time>
      </trkpt>
      <trkpt lat="39.54937" lon="-0.527836">
        <ele>84</ele>
        <time>2018-11-04T10:03:48.000Z</time>
      </trkpt>
      <trkpt lat="39.549355" lon="-0.527958">
        <ele>84.6793852106621</ele>
        <time>2018-11-04T10:03:49.000Z</time>
      </trkpt>
      <trkpt lat="39.549335" lon="-0.528076">
        <ele>85</ele>
        <time>2018-11-04T10:03:50.000Z</time>
      </trkpt>
      <trkpt lat="39.549314" lon="-0.528195">
        <ele>85</ele>
        <time>2018-11-04T10:03:51.000Z</time>
      </trkpt>
      <trkpt lat="39.549306" lon="-0.5283">
        <ele>85</ele>
        <time>2018-11-04T10:03:52.000Z</time>
      </trkpt>
      <trkpt lat="39.549304" lon="-0.5284">
        <ele>85</ele>
        <time>2018-11-04T10:03:53.000Z</time>
      </trkpt>
      <trkpt lat="39.549321" lon="-0.5285">
        <ele>85</ele>
        <time>2018-11-04T10:03:54.000Z</time>
      </trkpt>
      <trkpt lat="39.549344" lon="-0.5286">
        <ele>84.3206147893379</ele>
        <time>2018-11-04T10:03:55.000Z</time>
      </trkpt>
      <trkpt lat="39.549349" lon="-0.528694">
        <ele>83.4081659308795</ele>
        <time>2018-11-04T10:03:56.000Z</time>
      </trkpt>
      <trkpt lat="39.549331" lon="-0.528778">
        <ele>82.1549333862157</ele>
        <time>2018-11-04T10:03:57.000Z</time>
      </trkpt>
      <trkpt lat="39.549294" lon="-0.528846">
        <ele>82</ele>
        <time>2018-11-04T10:03:58.000Z</time>
      </trkpt>
      <trkpt lat="39.549248" lon="-0.528902">
        <ele>82</ele>
        <time>2018-11-04T10:03:59.000Z</time>
      </trkpt>
      <trkpt lat="39.54921" lon="-0.528967">
        <ele>82</ele>
        <time>2018-11-04T10:04:00.000Z</time>
      </trkpt>
      <trkpt lat="39.549181" lon="-0.529041">
        <ele>82</ele>
        <time>2018-11-04T10:04:01.000Z</time>
      </trkpt>
      <trkpt lat="39.549162" lon="-0.529121">
        <ele>82</ele>
        <time>2018-11-04T10:04:02.000Z</time>
      </trkpt>
      <trkpt lat="39.549147" lon="-0.529206">
        <ele>81.1571459918081</ele>
        <time>2018-11-04T10:04:03.000Z</time>
      </trkpt>
      <trkpt lat="39.549133" lon="-0.529287">
        <ele>81</ele>
        <time>2018-11-04T10:04:04.000Z</time>
      </trkpt>
      <trkpt lat="39.549123" lon="-0.529366">
        <ele>81</ele>
        <time>2018-11-04T10:04:05.000Z</time>
      </trkpt>
      <trkpt lat="39.549118" lon="-0.529444">
        <ele>81</ele>
        <time>2018-11-04T10:04:06.000Z</time>
      </trkpt>
      <trkpt lat="39.549113" lon="-0.52952">
        <ele>81</ele>
        <time>2018-11-04T10:04:07.000Z</time>
      </trkpt>
      <trkpt lat="39.549109" lon="-0.529591">
        <ele>81</ele>
        <time>2018-11-04T10:04:08.000Z</time>
      </trkpt>
      <trkpt lat="39.549104" lon="-0.52966">
        <ele>81</ele>
        <time>2018-11-04T10:04:09.000Z</time>
      </trkpt>
      <trkpt lat="39.5491" lon="-0.529722">
        <ele>80.1100032</ele>
        <time>2018-11-04T10:04:10.000Z</time>
      </trkpt>
      <trkpt lat="39.549098" lon="-0.529778">
        <ele>80.8899968</ele>
        <time>2018-11-04T10:04:11.000Z</time>
      </trkpt>
      <trkpt lat="39.549098" lon="-0.529835">
        <ele>81</ele>
        <time>2018-11-04T10:04:12.000Z</time>
      </trkpt>
      <trkpt lat="39.549098" lon="-0.529886">
        <ele>81</ele>
        <time>2018-11-04T10:04:13.000Z</time>
      </trkpt>
      <trkpt lat="39.549099" lon="-0.529937">
        <ele>81.8899968</ele>
        <time>2018-11-04T10:04:14.000Z</time>
      </trkpt>
      <trkpt lat="39.549098" lon="-0.529986">
        <ele>82</ele>
        <time>2018-11-04T10:04:15.000Z</time>
      </trkpt>
      <trkpt lat="39.549096" lon="-0.530035">
        <ele>82</ele>
        <time>2018-11-04T10:04:16.000Z</time>
      </trkpt>
      <trkpt lat="39.549095" lon="-0.530086">
        <ele>82</ele>
        <time>2018-11-04T10:04:17.000Z</time>
      </trkpt>
      <trkpt lat="39.549093" lon="-0.530138">
        <ele>82.8899968</ele>
        <time>2018-11-04T10:04:18.000Z</time>
      </trkpt>
      <trkpt lat="39.549089" lon="-0.530191">
        <ele>83</ele>
        <time>2018-11-04T10:04:19.000Z</time>
      </trkpt>
      <trkpt lat="39.549086" lon="-0.530245">
        <ele>83</ele>
        <time>2018-11-04T10:04:20.000Z</time>
      </trkpt>
      <trkpt lat="39.549087" lon="-0.530302">
        <ele>83.8899968</ele>
        <time>2018-11-04T10:04:21.000Z</time>
      </trkpt>
      <trkpt lat="39.549088" lon="-0.53036">
        <ele>84</ele>
        <time>2018-11-04T10:04:22.000Z</time>
      </trkpt>
      <trkpt lat="39.549088" lon="-0.530418">
        <ele>84</ele>
        <time>2018-11-04T10:04:23.000Z</time>
      </trkpt>
      <trkpt lat="39.549088" lon="-0.530477">
        <ele>84</ele>
        <time>2018-11-04T10:04:24.000Z</time>
      </trkpt>
      <trkpt lat="39.549089" lon="-0.530537">
        <ele>84.8450666137843</ele>
        <time>2018-11-04T10:04:25.000Z</time>
      </trkpt>
      <trkpt lat="39.54909" lon="-0.530595">
        <ele>85</ele>
        <time>2018-11-04T10:04:26.000Z</time>
      </trkpt>
      <trkpt lat="39.549091" lon="-0.530653">
        <ele>85</ele>
        <time>2018-11-04T10:04:27.000Z</time>
      </trkpt>
      <trkpt lat="39.549092" lon="-0.530712">
        <ele>85</ele>
        <time>2018-11-04T10:04:28.000Z</time>
      </trkpt>
      <trkpt lat="39.549091" lon="-0.530772">
        <ele>85.8899968</ele>
        <time>2018-11-04T10:04:29.000Z</time>
      </trkpt>
      <trkpt lat="39.549091" lon="-0.530831">
        <ele>86</ele>
        <time>2018-11-04T10:04:30.000Z</time>
      </trkpt>
      <trkpt lat="39.549091" lon="-0.530892">
        <ele>86</ele>
        <time>2018-11-04T10:04:31.000Z</time>
      </trkpt>
      <trkpt lat="39.54909" lon="-0.530953">
        <ele>86.8899968</ele>
        <time>2018-11-04T10:04:32.000Z</time>
      </trkpt>
      <trkpt lat="39.54909" lon="-0.531014">
        <ele>87</ele>
        <time>2018-11-04T10:04:33.000Z</time>
      </trkpt>
      <trkpt lat="39.54909" lon="-0.531074">
        <ele>87</ele>
        <time>2018-11-04T10:04:34.000Z</time>
      </trkpt>
      <trkpt lat="39.54909" lon="-0.531132">
        <ele>87</ele>
        <time>2018-11-04T10:04:35.000Z</time>
      </trkpt>
      <trkpt lat="39.549091" lon="-0.531188">
        <ele>87</ele>
        <time>2018-11-04T10:04:36.000Z</time>
      </trkpt>
      <trkpt lat="39.549091" lon="-0.531244">
        <ele>87.8899968</ele>
        <time>2018-11-04T10:04:37.000Z</time>
      </trkpt>
      <trkpt lat="39.549092" lon="-0.531298">
        <ele>88</ele>
        <time>2018-11-04T10:04:38.000Z</time>
      </trkpt>
      <trkpt lat="39.549092" lon="-0.531354">
        <ele>88</ele>
        <time>2018-11-04T10:04:39.000Z</time>
      </trkpt>
      <trkpt lat="39.549093" lon="-0.53141">
        <ele>88</ele>
        <time>2018-11-04T10:04:40.000Z</time>
      </trkpt>
      <trkpt lat="39.549098" lon="-0.531465">
        <ele>88.8899968</ele>
        <time>2018-11-04T10:04:41.000Z</time>
      </trkpt>
      <trkpt lat="39.549101" lon="-0.531522">
        <ele>89</ele>
        <time>2018-11-04T10:04:42.000Z</time>
      </trkpt>
      <trkpt lat="39.549101" lon="-0.53158">
        <ele>89</ele>
        <time>2018-11-04T10:04:43.000Z</time>
      </trkpt>
      <trkpt lat="39.549102" lon="-0.531638">
        <ele>89.8899968</ele>
        <time>2018-11-04T10:04:44.000Z</time>
      </trkpt>
      <trkpt lat="39.549106" lon="-0.531697">
        <ele>90</ele>
        <time>2018-11-04T10:04:45.000Z</time>
      </trkpt>
      <trkpt lat="39.549108" lon="-0.531761">
        <ele>90</ele>
        <time>2018-11-04T10:04:46.000Z</time>
      </trkpt>
      <trkpt lat="39.549107" lon="-0.531825">
        <ele>90</ele>
        <time>2018-11-04T10:04:47.000Z</time>
      </trkpt>
      <trkpt lat="39.54911" lon="-0.531889">
        <ele>90</ele>
        <time>2018-11-04T10:04:48.000Z</time>
      </trkpt>
      <trkpt lat="39.549117" lon="-0.531953">
        <ele>90</ele>
        <time>2018-11-04T10:04:49.000Z</time>
      </trkpt>
      <trkpt lat="39.549124" lon="-0.532015">
        <ele>90.8899968</ele>
        <time>2018-11-04T10:04:50.000Z</time>
      </trkpt>
      <trkpt lat="39.549136" lon="-0.532075">
        <ele>91</ele>
        <time>2018-11-04T10:04:51.000Z</time>
      </trkpt>
      <trkpt lat="39.549148" lon="-0.532133">
        <ele>91</ele>
        <time>2018-11-04T10:04:52.000Z</time>
      </trkpt>
      <trkpt lat="39.54916" lon="-0.532191">
        <ele>91</ele>
        <time>2018-11-04T10:04:53.000Z</time>
      </trkpt>
      <trkpt lat="39.549172" lon="-0.53225">
        <ele>91.8450666137843</ele>
        <time>2018-11-04T10:04:54.000Z</time>
      </trkpt>
      <trkpt lat="39.549183" lon="-0.532309">
        <ele>92</ele>
        <time>2018-11-04T10:04:55.000Z</time>
      </trkpt>
      <trkpt lat="39.549196" lon="-0.532369">
        <ele>91.3100782885663</ele>
        <time>2018-11-04T10:04:56.000Z</time>
      </trkpt>
      <trkpt lat="39.549204" lon="-0.532429">
        <ele>91</ele>
        <time>2018-11-04T10:04:57.000Z</time>
      </trkpt>
      <trkpt lat="39.549215" lon="-0.532489">
        <ele>91</ele>
        <time>2018-11-04T10:04:58.000Z</time>
      </trkpt>
      <trkpt lat="39.549226" lon="-0.532549">
        <ele>91.8899968</ele>
        <time>2018-11-04T10:04:59.000Z</time>
      </trkpt>
      <trkpt lat="39.549238" lon="-0.532609">
        <ele>92</ele>
        <time>2018-11-04T10:05:00.000Z</time>
      </trkpt>
      <trkpt lat="39.549253" lon="-0.532668">
        <ele>92</ele>
        <time>2018-11-04T10:05:01.000Z</time>
      </trkpt>
      <trkpt lat="39.549266" lon="-0.532729">
        <ele>92</ele>
        <time>2018-11-04T10:05:02.000Z</time>
      </trkpt>
      <trkpt lat="39.54928" lon="-0.532791">
        <ele>92</ele>
        <time>2018-11-04T10:05:03.000Z</time>
      </trkpt>
      <trkpt lat="39.549293" lon="-0.532853">
        <ele>92</ele>
        <time>2018-11-04T10:05:04.000Z</time>
      </trkpt>
      <trkpt lat="39.549309" lon="-0.532917">
        <ele>92</ele>
        <time>2018-11-04T10:05:05.000Z</time>
      </trkpt>
      <trkpt lat="39.549325" lon="-0.53298">
        <ele>92</ele>
        <time>2018-11-04T10:05:06.000Z</time>
      </trkpt>
      <trkpt lat="39.549342" lon="-0.533044">
        <ele>92</ele>
        <time>2018-11-04T10:05:07.000Z</time>
      </trkpt>
      <trkpt lat="39.549359" lon="-0.533109">
        <ele>92</ele>
        <time>2018-11-04T10:05:08.000Z</time>
      </trkpt>
      <trkpt lat="39.549376" lon="-0.533176">
        <ele>92</ele>
        <time>2018-11-04T10:05:09.000Z</time>
      </trkpt>
      <trkpt lat="39.54939" lon="-0.533243">
        <ele>92</ele>
        <time>2018-11-04T10:05:10.000Z</time>
      </trkpt>
      <trkpt lat="39.549405" lon="-0.53331">
        <ele>92</ele>
        <time>2018-11-04T10:05:11.000Z</time>
      </trkpt>
      <trkpt lat="39.549425" lon="-0.533375">
        <ele>92.6899217114337</ele>
        <time>2018-11-04T10:05:12.000Z</time>
      </trkpt>
      <trkpt lat="39.549443" lon="-0.533439">
        <ele>93</ele>
        <time>2018-11-04T10:05:13.000Z</time>
      </trkpt>
      <trkpt lat="39.549465" lon="-0.533501">
        <ele>93</ele>
        <time>2018-11-04T10:05:14.000Z</time>
      </trkpt>
      <trkpt lat="39.549483" lon="-0.533567">
        <ele>93</ele>
        <time>2018-11-04T10:05:15.000Z</time>
      </trkpt>
      <trkpt lat="39.549498" lon="-0.533634">
        <ele>93</ele>
        <time>2018-11-04T10:05:16.000Z</time>
      </trkpt>
      <trkpt lat="39.549515" lon="-0.533699">
        <ele>93</ele>
        <time>2018-11-04T10:05:17.000Z</time>
      </trkpt>
      <trkpt lat="39.54953" lon="-0.533765">
        <ele>93</ele>
        <time>2018-11-04T10:05:18.000Z</time>
      </trkpt>
      <trkpt lat="39.549543" lon="-0.533832">
        <ele>93</ele>
        <time>2018-11-04T10:05:19.000Z</time>
      </trkpt>
      <trkpt lat="39.549558" lon="-0.533898">
        <ele>93</ele>
        <time>2018-11-04T10:05:20.000Z</time>
      </trkpt>
      <trkpt lat="39.549575" lon="-0.533964">
        <ele>93</ele>
        <time>2018-11-04T10:05:21.000Z</time>
      </trkpt>
      <trkpt lat="39.549591" lon="-0.534029">
        <ele>93.8899968</ele>
        <time>2018-11-04T10:05:22.000Z</time>
      </trkpt>
      <trkpt lat="39.549608" lon="-0.534095">
        <ele>94</ele>
        <time>2018-11-04T10:05:23.000Z</time>
      </trkpt>
      <trkpt lat="39.549626" lon="-0.53416">
        <ele>94</ele>
        <time>2018-11-04T10:05:24.000Z</time>
      </trkpt>
      <trkpt lat="39.549641" lon="-0.534224">
        <ele>94</ele>
        <time>2018-11-04T10:05:25.000Z</time>
      </trkpt>
      <trkpt lat="39.549653" lon="-0.53429">
        <ele>94</ele>
        <time>2018-11-04T10:05:26.000Z</time>
      </trkpt>
      <trkpt lat="39.549662" lon="-0.534357">
        <ele>94</ele>
        <time>2018-11-04T10:05:27.000Z</time>
      </trkpt>
      <trkpt lat="39.549669" lon="-0.534424">
        <ele>94</ele>
        <time>2018-11-04T10:05:28.000Z</time>
      </trkpt>
      <trkpt lat="39.549674" lon="-0.534491">
        <ele>94</ele>
        <time>2018-11-04T10:05:29.000Z</time>
      </trkpt>
      <trkpt lat="39.549673" lon="-0.534558">
        <ele>94</ele>
        <time>2018-11-04T10:05:30.000Z</time>
      </trkpt>
      <trkpt lat="39.549671" lon="-0.534626">
        <ele>94</ele>
        <time>2018-11-04T10:05:31.000Z</time>
      </trkpt>
      <trkpt lat="39.549666" lon="-0.534692">
        <ele>94</ele>
        <time>2018-11-04T10:05:32.000Z</time>
      </trkpt>
      <trkpt lat="39.549661" lon="-0.534761">
        <ele>94</ele>
        <time>2018-11-04T10:05:33.000Z</time>
      </trkpt>
      <trkpt lat="39.549656" lon="-0.534827">
        <ele>94</ele>
        <time>2018-11-04T10:05:34.000Z</time>
      </trkpt>
      <trkpt lat="39.549651" lon="-0.534894">
        <ele>94</ele>
        <time>2018-11-04T10:05:35.000Z</time>
      </trkpt>
      <trkpt lat="39.549645" lon="-0.534963">
        <ele>94</ele>
        <time>2018-11-04T10:05:36.000Z</time>
      </trkpt>
      <trkpt lat="39.54964" lon="-0.535032">
        <ele>94</ele>
        <time>2018-11-04T10:05:37.000Z</time>
      </trkpt>
      <trkpt lat="39.549635" lon="-0.535101">
        <ele>94</ele>
        <time>2018-11-04T10:05:38.000Z</time>
      </trkpt>
      <trkpt lat="39.549631" lon="-0.535171">
        <ele>94</ele>
        <time>2018-11-04T10:05:39.000Z</time>
      </trkpt>
      <trkpt lat="39.549627" lon="-0.535241">
        <ele>94</ele>
        <time>2018-11-04T10:05:40.000Z</time>
      </trkpt>
      <trkpt lat="39.549622" lon="-0.53531">
        <ele>94</ele>
        <time>2018-11-04T10:05:41.000Z</time>
      </trkpt>
      <trkpt lat="39.549617" lon="-0.535379">
        <ele>94</ele>
        <time>2018-11-04T10:05:42.000Z</time>
      </trkpt>
      <trkpt lat="39.549613" lon="-0.535448">
        <ele>94</ele>
        <time>2018-11-04T10:05:43.000Z</time>
      </trkpt>
      <trkpt lat="39.549609" lon="-0.535517">
        <ele>94</ele>
        <time>2018-11-04T10:05:44.000Z</time>
      </trkpt>
      <trkpt lat="39.549606" lon="-0.535585">
        <ele>94</ele>
        <time>2018-11-04T10:05:45.000Z</time>
      </trkpt>
      <trkpt lat="39.549601" lon="-0.535654">
        <ele>94</ele>
        <time>2018-11-04T10:05:46.000Z</time>
      </trkpt>
      <trkpt lat="39.549597" lon="-0.535722">
        <ele>94</ele>
        <time>2018-11-04T10:05:47.000Z</time>
      </trkpt>
      <trkpt lat="39.549592" lon="-0.53579">
        <ele>94</ele>
        <time>2018-11-04T10:05:48.000Z</time>
      </trkpt>
      <trkpt lat="39.549588" lon="-0.53586">
        <ele>94.8877525697791</ele>
        <time>2018-11-04T10:05:49.000Z</time>
      </trkpt>
      <trkpt lat="39.549593" lon="-0.535932">
        <ele>95</ele>
        <time>2018-11-04T10:05:50.000Z</time>
      </trkpt>
      <trkpt lat="39.549608" lon="-0.536">
        <ele>94.1527822222222</ele>
        <time>2018-11-04T10:05:51.000Z</time>
      </trkpt>
      <trkpt lat="39.549637" lon="-0.536063">
        <ele>94</ele>
        <time>2018-11-04T10:05:52.000Z</time>
      </trkpt>
      <trkpt lat="39.549666" lon="-0.536122">
        <ele>94</ele>
        <time>2018-11-04T10:05:53.000Z</time>
      </trkpt>
      <trkpt lat="39.549687" lon="-0.536186">
        <ele>93.2115446153846</ele>
        <time>2018-11-04T10:05:54.000Z</time>
      </trkpt>
      <trkpt lat="39.549697" lon="-0.536252">
        <ele>93</ele>
        <time>2018-11-04T10:05:55.000Z</time>
      </trkpt>
      <trkpt lat="39.549695" lon="-0.536317">
        <ele>93</ele>
        <time>2018-11-04T10:05:56.000Z</time>
      </trkpt>
      <trkpt lat="39.549675" lon="-0.536377">
        <ele>92.1100032</ele>
        <time>2018-11-04T10:05:57.000Z</time>
      </trkpt>
      <trkpt lat="39.549642" lon="-0.536433">
        <ele>91.1100032</ele>
        <time>2018-11-04T10:05:58.000Z</time>
      </trkpt>
      <trkpt lat="39.549602" lon="-0.536484">
        <ele>91</ele>
        <time>2018-11-04T10:05:59.000Z</time>
      </trkpt>
      <trkpt lat="39.549568" lon="-0.536546">
        <ele>91</ele>
        <time>2018-11-04T10:06:00.000Z</time>
      </trkpt>
      <trkpt lat="39.549548" lon="-0.536618">
        <ele>91</ele>
        <time>2018-11-04T10:06:01.000Z</time>
      </trkpt>
      <trkpt lat="39.549536" lon="-0.536693">
        <ele>91</ele>
        <time>2018-11-04T10:06:02.000Z</time>
      </trkpt>
      <trkpt lat="39.549528" lon="-0.53677">
        <ele>91</ele>
        <time>2018-11-04T10:06:03.000Z</time>
      </trkpt>
      <trkpt lat="39.549525" lon="-0.536845">
        <ele>91</ele>
        <time>2018-11-04T10:06:04.000Z</time>
      </trkpt>
      <trkpt lat="39.549522" lon="-0.53692">
        <ele>91</ele>
        <time>2018-11-04T10:06:05.000Z</time>
      </trkpt>
      <trkpt lat="39.549522" lon="-0.536994">
        <ele>91</ele>
        <time>2018-11-04T10:06:06.000Z</time>
      </trkpt>
      <trkpt lat="39.54952" lon="-0.537067">
        <ele>91</ele>
        <time>2018-11-04T10:06:07.000Z</time>
      </trkpt>
      <trkpt lat="39.549517" lon="-0.537139">
        <ele>91</ele>
        <time>2018-11-04T10:06:08.000Z</time>
      </trkpt>
      <trkpt lat="39.549515" lon="-0.537211">
        <ele>91</ele>
        <time>2018-11-04T10:06:09.000Z</time>
      </trkpt>
      <trkpt lat="39.549513" lon="-0.537284">
        <ele>91</ele>
        <time>2018-11-04T10:06:10.000Z</time>
      </trkpt>
      <trkpt lat="39.54951" lon="-0.537357">
        <ele>91</ele>
        <time>2018-11-04T10:06:11.000Z</time>
      </trkpt>
      <trkpt lat="39.549506" lon="-0.537431">
        <ele>91</ele>
        <time>2018-11-04T10:06:12.000Z</time>
      </trkpt>
      <trkpt lat="39.549501" lon="-0.537504">
        <ele>91</ele>
        <time>2018-11-04T10:06:13.000Z</time>
      </trkpt>
      <trkpt lat="39.549495" lon="-0.537575">
        <ele>91</ele>
        <time>2018-11-04T10:06:14.000Z</time>
      </trkpt>
      <trkpt lat="39.549491" lon="-0.537644">
        <ele>91</ele>
        <time>2018-11-04T10:06:15.000Z</time>
      </trkpt>
      <trkpt lat="39.549486" lon="-0.537711">
        <ele>90.1100032</ele>
        <time>2018-11-04T10:06:16.000Z</time>
      </trkpt>
      <trkpt lat="39.54948" lon="-0.537774">
        <ele>90</ele>
        <time>2018-11-04T10:06:17.000Z</time>
      </trkpt>
      <trkpt lat="39.549474" lon="-0.537834">
        <ele>90</ele>
        <time>2018-11-04T10:06:18.000Z</time>
      </trkpt>
      <trkpt lat="39.549469" lon="-0.537893">
        <ele>90</ele>
        <time>2018-11-04T10:06:19.000Z</time>
      </trkpt>
      <trkpt lat="39.549465" lon="-0.537949">
        <ele>90</ele>
        <time>2018-11-04T10:06:20.000Z</time>
      </trkpt>
      <trkpt lat="39.549462" lon="-0.538004">
        <ele>90</ele>
        <time>2018-11-04T10:06:21.000Z</time>
      </trkpt>
      <trkpt lat="39.54946" lon="-0.538054">
        <ele>90</ele>
        <time>2018-11-04T10:06:22.000Z</time>
      </trkpt>
      <trkpt lat="39.549459" lon="-0.538091">
        <ele>90</ele>
        <time>2018-11-04T10:06:23.000Z</time>
      </trkpt>
      <trkpt lat="39.549464" lon="-0.538113">
        <ele>89</ele>
        <time>2018-11-04T10:06:55.000Z</time>
      </trkpt>
      <trkpt lat="39.549463" lon="-0.538089">
        <ele>87</ele>
        <time>2018-11-04T10:07:51.000Z</time>
      </trkpt>
      <trkpt lat="39.549454" lon="-0.538112">
        <ele>86</ele>
        <time>2018-11-04T10:09:07.000Z</time>
      </trkpt>
      <trkpt lat="39.54945" lon="-0.538155">
        <ele>86</ele>
        <time>2018-11-04T10:09:09.000Z</time>
      </trkpt>
      <trkpt lat="39.549448" lon="-0.538181">
        <ele>86</ele>
        <time>2018-11-04T10:09:10.000Z</time>
      </trkpt>
      <trkpt lat="39.549446" lon="-0.538212">
        <ele>86</ele>
        <time>2018-11-04T10:09:11.000Z</time>
      </trkpt>
      <trkpt lat="39.549443" lon="-0.538247">
        <ele>86.8240711111111</ele>
        <time>2018-11-04T10:09:12.000Z</time>
      </trkpt>
      <trkpt lat="39.549441" lon="-0.538284">
        <ele>87</ele>
        <time>2018-11-04T10:09:13.000Z</time>
      </trkpt>
      <trkpt lat="39.549438" lon="-0.538324">
        <ele>87</ele>
        <time>2018-11-04T10:09:14.000Z</time>
      </trkpt>
      <trkpt lat="39.549435" lon="-0.538368">
        <ele>87</ele>
        <time>2018-11-04T10:09:15.000Z</time>
      </trkpt>
      <trkpt lat="39.549431" lon="-0.538416">
        <ele>87.8899968</ele>
        <time>2018-11-04T10:09:16.000Z</time>
      </trkpt>
      <trkpt lat="39.549427" lon="-0.538466">
        <ele>88</ele>
        <time>2018-11-04T10:09:17.000Z</time>
      </trkpt>
      <trkpt lat="39.549424" lon="-0.538518">
        <ele>88</ele>
        <time>2018-11-04T10:09:18.000Z</time>
      </trkpt>
      <trkpt lat="39.549421" lon="-0.538572">
        <ele>88</ele>
        <time>2018-11-04T10:09:19.000Z</time>
      </trkpt>
      <trkpt lat="39.549418" lon="-0.538628">
        <ele>88.5800010240131</ele>
        <time>2018-11-04T10:09:20.000Z</time>
      </trkpt>
      <trkpt lat="39.549416" lon="-0.538685">
        <ele>89</ele>
        <time>2018-11-04T10:09:21.000Z</time>
      </trkpt>
      <trkpt lat="39.549414" lon="-0.538743">
        <ele>89</ele>
        <time>2018-11-04T10:09:22.000Z</time>
      </trkpt>
      <trkpt lat="39.549411" lon="-0.538801">
        <ele>89</ele>
        <time>2018-11-04T10:09:23.000Z</time>
      </trkpt>
      <trkpt lat="39.549406" lon="-0.53886">
        <ele>89.8899968</ele>
        <time>2018-11-04T10:09:24.000Z</time>
      </trkpt>
      <trkpt lat="39.549401" lon="-0.538921">
        <ele>90</ele>
        <time>2018-11-04T10:09:25.000Z</time>
      </trkpt>
      <trkpt lat="39.549394" lon="-0.538982">
        <ele>90</ele>
        <time>2018-11-04T10:09:26.000Z</time>
      </trkpt>
      <trkpt lat="39.549387" lon="-0.539041">
        <ele>90</ele>
        <time>2018-11-04T10:09:27.000Z</time>
      </trkpt>
      <trkpt lat="39.549379" lon="-0.539103">
        <ele>90</ele>
        <time>2018-11-04T10:09:28.000Z</time>
      </trkpt>
      <trkpt lat="39.549377" lon="-0.539168">
        <ele>90</ele>
        <time>2018-11-04T10:09:29.000Z</time>
      </trkpt>
      <trkpt lat="39.549376" lon="-0.539231">
        <ele>90</ele>
        <time>2018-11-04T10:09:30.000Z</time>
      </trkpt>
      <trkpt lat="39.549379" lon="-0.539295">
        <ele>90</ele>
        <time>2018-11-04T10:09:31.000Z</time>
      </trkpt>
      <trkpt lat="39.549382" lon="-0.539356">
        <ele>90</ele>
        <time>2018-11-04T10:09:32.000Z</time>
      </trkpt>
      <trkpt lat="39.549381" lon="-0.539414">
        <ele>90.888886015722</ele>
        <time>2018-11-04T10:09:33.000Z</time>
      </trkpt>
      <trkpt lat="39.549382" lon="-0.539473">
        <ele>91</ele>
        <time>2018-11-04T10:09:34.000Z</time>
      </trkpt>
      <trkpt lat="39.549374" lon="-0.539531">
        <ele>91</ele>
        <time>2018-11-04T10:09:35.000Z</time>
      </trkpt>
      <trkpt lat="39.549371" lon="-0.53959">
        <ele>91</ele>
        <time>2018-11-04T10:09:36.000Z</time>
      </trkpt>
      <trkpt lat="39.549369" lon="-0.539648">
        <ele>91</ele>
        <time>2018-11-04T10:09:37.000Z</time>
      </trkpt>
      <trkpt lat="39.549367" lon="-0.539707">
        <ele>90.3100782885663</ele>
        <time>2018-11-04T10:09:38.000Z</time>
      </trkpt>
      <trkpt lat="39.549367" lon="-0.539767">
        <ele>90</ele>
        <time>2018-11-04T10:09:39.000Z</time>
      </trkpt>
      <trkpt lat="39.549366" lon="-0.539828">
        <ele>90</ele>
        <time>2018-11-04T10:09:40.000Z</time>
      </trkpt>
      <trkpt lat="39.549363" lon="-0.539888">
        <ele>90</ele>
        <time>2018-11-04T10:09:41.000Z</time>
      </trkpt>
      <trkpt lat="39.549359" lon="-0.539948">
        <ele>90</ele>
        <time>2018-11-04T10:09:42.000Z</time>
      </trkpt>
      <trkpt lat="39.549352" lon="-0.540009">
        <ele>90</ele>
        <time>2018-11-04T10:09:43.000Z</time>
      </trkpt>
      <trkpt lat="39.549344" lon="-0.54007">
        <ele>90</ele>
        <time>2018-11-04T10:09:44.000Z</time>
      </trkpt>
      <trkpt lat="39.549334" lon="-0.540133">
        <ele>90</ele>
        <time>2018-11-04T10:09:45.000Z</time>
      </trkpt>
      <trkpt lat="39.549322" lon="-0.540196">
        <ele>89.1100032</ele>
        <time>2018-11-04T10:09:46.000Z</time>
      </trkpt>
      <trkpt lat="39.549309" lon="-0.540259">
        <ele>89</ele>
        <time>2018-11-04T10:09:47.000Z</time>
      </trkpt>
      <trkpt lat="39.549293" lon="-0.540321">
        <ele>89</ele>
        <time>2018-11-04T10:09:48.000Z</time>
      </trkpt>
      <trkpt lat="39.549278" lon="-0.540384">
        <ele>89</ele>
        <time>2018-11-04T10:09:49.000Z</time>
      </trkpt>
      <trkpt lat="39.549263" lon="-0.540447">
        <ele>89</ele>
        <time>2018-11-04T10:09:50.000Z</time>
      </trkpt>
      <trkpt lat="39.549248" lon="-0.540511">
        <ele>89</ele>
        <time>2018-11-04T10:09:51.000Z</time>
      </trkpt>
      <trkpt lat="39.549229" lon="-0.540574">
        <ele>89</ele>
        <time>2018-11-04T10:09:52.000Z</time>
      </trkpt>
      <trkpt lat="39.549212" lon="-0.540639">
        <ele>89</ele>
        <time>2018-11-04T10:09:53.000Z</time>
      </trkpt>
      <trkpt lat="39.549195" lon="-0.540704">
        <ele>89.888886015722</ele>
        <time>2018-11-04T10:09:54.000Z</time>
      </trkpt>
      <trkpt lat="39.549177" lon="-0.54077">
        <ele>89.1100032</ele>
        <time>2018-11-04T10:09:55.000Z</time>
      </trkpt>
      <trkpt lat="39.549161" lon="-0.540836">
        <ele>89</ele>
        <time>2018-11-04T10:09:56.000Z</time>
      </trkpt>
      <trkpt lat="39.549143" lon="-0.540901">
        <ele>89</ele>
        <time>2018-11-04T10:09:57.000Z</time>
      </trkpt>
      <trkpt lat="39.549127" lon="-0.540966">
        <ele>89</ele>
        <time>2018-11-04T10:09:58.000Z</time>
      </trkpt>
      <trkpt lat="39.54911" lon="-0.541029">
        <ele>89</ele>
        <time>2018-11-04T10:09:59.000Z</time>
      </trkpt>
      <trkpt lat="39.549094" lon="-0.541092">
        <ele>89.8899968</ele>
        <time>2018-11-04T10:10:00.000Z</time>
      </trkpt>
      <trkpt lat="39.549078" lon="-0.541154">
        <ele>90</ele>
        <time>2018-11-04T10:10:01.000Z</time>
      </trkpt>
      <trkpt lat="39.549064" lon="-0.541215">
        <ele>90</ele>
        <time>2018-11-04T10:10:02.000Z</time>
      </trkpt>
      <trkpt lat="39.54905" lon="-0.541276">
        <ele>90.8899968</ele>
        <time>2018-11-04T10:10:03.000Z</time>
      </trkpt>
      <trkpt lat="39.549036" lon="-0.541336">
        <ele>91</ele>
        <time>2018-11-04T10:10:04.000Z</time>
      </trkpt>
      <trkpt lat="39.549021" lon="-0.541395">
        <ele>91.8899968</ele>
        <time>2018-11-04T10:10:05.000Z</time>
      </trkpt>
      <trkpt lat="39.549005" lon="-0.541453">
        <ele>92</ele>
        <time>2018-11-04T10:10:06.000Z</time>
      </trkpt>
      <trkpt lat="39.548988" lon="-0.541511">
        <ele>92</ele>
        <time>2018-11-04T10:10:07.000Z</time>
      </trkpt>
      <trkpt lat="39.548971" lon="-0.541569">
        <ele>92</ele>
        <time>2018-11-04T10:10:08.000Z</time>
      </trkpt>
      <trkpt lat="39.548956" lon="-0.541629">
        <ele>92</ele>
        <time>2018-11-04T10:10:09.000Z</time>
      </trkpt>
      <trkpt lat="39.548941" lon="-0.54169">
        <ele>92</ele>
        <time>2018-11-04T10:10:10.000Z</time>
      </trkpt>
      <trkpt lat="39.548924" lon="-0.541753">
        <ele>92</ele>
        <time>2018-11-04T10:10:11.000Z</time>
      </trkpt>
      <trkpt lat="39.548909" lon="-0.541819">
        <ele>92</ele>
        <time>2018-11-04T10:10:12.000Z</time>
      </trkpt>
      <trkpt lat="39.548897" lon="-0.541888">
        <ele>92</ele>
        <time>2018-11-04T10:10:13.000Z</time>
      </trkpt>
      <trkpt lat="39.548888" lon="-0.541959">
        <ele>92</ele>
        <time>2018-11-04T10:10:14.000Z</time>
      </trkpt>
      <trkpt lat="39.548885" lon="-0.542032">
        <ele>92</ele>
        <time>2018-11-04T10:10:15.000Z</time>
      </trkpt>
      <trkpt lat="39.54888" lon="-0.542103">
        <ele>92</ele>
        <time>2018-11-04T10:10:16.000Z</time>
      </trkpt>
      <trkpt lat="39.548877" lon="-0.542174">
        <ele>92</ele>
        <time>2018-11-04T10:10:17.000Z</time>
      </trkpt>
      <trkpt lat="39.548875" lon="-0.542244">
        <ele>92</ele>
        <time>2018-11-04T10:10:18.000Z</time>
      </trkpt>
      <trkpt lat="39.548877" lon="-0.542313">
        <ele>92</ele>
        <time>2018-11-04T10:10:19.000Z</time>
      </trkpt>
      <trkpt lat="39.54888" lon="-0.542383">
        <ele>92</ele>
        <time>2018-11-04T10:10:20.000Z</time>
      </trkpt>
      <trkpt lat="39.548882" lon="-0.542454">
        <ele>92</ele>
        <time>2018-11-04T10:10:21.000Z</time>
      </trkpt>
      <trkpt lat="39.548883" lon="-0.542524">
        <ele>92</ele>
        <time>2018-11-04T10:10:22.000Z</time>
      </trkpt>
      <trkpt lat="39.548884" lon="-0.542595">
        <ele>92</ele>
        <time>2018-11-04T10:10:23.000Z</time>
      </trkpt>
      <trkpt lat="39.548884" lon="-0.542664">
        <ele>92</ele>
        <time>2018-11-04T10:10:24.000Z</time>
      </trkpt>
      <trkpt lat="39.548884" lon="-0.542732">
        <ele>92</ele>
        <time>2018-11-04T10:10:25.000Z</time>
      </trkpt>
      <trkpt lat="39.548881" lon="-0.542798">
        <ele>92</ele>
        <time>2018-11-04T10:10:26.000Z</time>
      </trkpt>
      <trkpt lat="39.548874" lon="-0.542862">
        <ele>92</ele>
        <time>2018-11-04T10:10:27.000Z</time>
      </trkpt>
      <trkpt lat="39.548867" lon="-0.542926">
        <ele>91.1100032</ele>
        <time>2018-11-04T10:10:28.000Z</time>
      </trkpt>
      <trkpt lat="39.548858" lon="-0.542988">
        <ele>91</ele>
        <time>2018-11-04T10:10:29.000Z</time>
      </trkpt>
      <trkpt lat="39.548846" lon="-0.54305">
        <ele>91.6793918489784</ele>
        <time>2018-11-04T10:10:30.000Z</time>
      </trkpt>
      <trkpt lat="39.548834" lon="-0.543114">
        <ele>91.1594227094811</ele>
        <time>2018-11-04T10:10:31.000Z</time>
      </trkpt>
      <trkpt lat="39.548824" lon="-0.543179">
        <ele>91</ele>
        <time>2018-11-04T10:10:32.000Z</time>
      </trkpt>
      <trkpt lat="39.548815" lon="-0.543245">
        <ele>91</ele>
        <time>2018-11-04T10:10:33.000Z</time>
      </trkpt>
      <trkpt lat="39.548805" lon="-0.543311">
        <ele>91</ele>
        <time>2018-11-04T10:10:34.000Z</time>
      </trkpt>
      <trkpt lat="39.548797" lon="-0.543376">
        <ele>91</ele>
        <time>2018-11-04T10:10:35.000Z</time>
      </trkpt>
      <trkpt lat="39.548788" lon="-0.543442">
        <ele>91</ele>
        <time>2018-11-04T10:10:36.000Z</time>
      </trkpt>
      <trkpt lat="39.548778" lon="-0.543509">
        <ele>91</ele>
        <time>2018-11-04T10:10:37.000Z</time>
      </trkpt>
      <trkpt lat="39.548767" lon="-0.543575">
        <ele>91</ele>
        <time>2018-11-04T10:10:38.000Z</time>
      </trkpt>
      <trkpt lat="39.548759" lon="-0.543643">
        <ele>91</ele>
        <time>2018-11-04T10:10:39.000Z</time>
      </trkpt>
      <trkpt lat="39.548747" lon="-0.543711">
        <ele>91</ele>
        <time>2018-11-04T10:10:40.000Z</time>
      </trkpt>
      <trkpt lat="39.548736" lon="-0.543782">
        <ele>91</ele>
        <time>2018-11-04T10:10:41.000Z</time>
      </trkpt>
      <trkpt lat="39.548723" lon="-0.543853">
        <ele>91</ele>
        <time>2018-11-04T10:10:42.000Z</time>
      </trkpt>
      <trkpt lat="39.54871" lon="-0.543926">
        <ele>91</ele>
        <time>2018-11-04T10:10:43.000Z</time>
      </trkpt>
      <trkpt lat="39.5487" lon="-0.544001">
        <ele>91</ele>
        <time>2018-11-04T10:10:44.000Z</time>
      </trkpt>
      <trkpt lat="39.548691" lon="-0.544077">
        <ele>91</ele>
        <time>2018-11-04T10:10:45.000Z</time>
      </trkpt>
      <trkpt lat="39.548679" lon="-0.544151">
        <ele>91</ele>
        <time>2018-11-04T10:10:46.000Z</time>
      </trkpt>
      <trkpt lat="39.548663" lon="-0.544223">
        <ele>91</ele>
        <time>2018-11-04T10:10:47.000Z</time>
      </trkpt>
      <trkpt lat="39.548648" lon="-0.544296">
        <ele>91</ele>
        <time>2018-11-04T10:10:48.000Z</time>
      </trkpt>
      <trkpt lat="39.548636" lon="-0.544369">
        <ele>91</ele>
        <time>2018-11-04T10:10:49.000Z</time>
      </trkpt>
      <trkpt lat="39.548625" lon="-0.544439">
        <ele>91</ele>
        <time>2018-11-04T10:10:50.000Z</time>
      </trkpt>
      <trkpt lat="39.548615" lon="-0.544509">
        <ele>91</ele>
        <time>2018-11-04T10:10:51.000Z</time>
      </trkpt>
      <trkpt lat="39.548603" lon="-0.544578">
        <ele>91</ele>
        <time>2018-11-04T10:10:52.000Z</time>
      </trkpt>
      <trkpt lat="39.54859" lon="-0.544646">
        <ele>91</ele>
        <time>2018-11-04T10:10:53.000Z</time>
      </trkpt>
      <trkpt lat="39.548578" lon="-0.544713">
        <ele>91</ele>
        <time>2018-11-04T10:10:54.000Z</time>
      </trkpt>
      <trkpt lat="39.548568" lon="-0.54478">
        <ele>91</ele>
        <time>2018-11-04T10:10:55.000Z</time>
      </trkpt>
      <trkpt lat="39.548562" lon="-0.544848">
        <ele>91</ele>
        <time>2018-11-04T10:10:56.000Z</time>
      </trkpt>
      <trkpt lat="39.548554" lon="-0.544912">
        <ele>91</ele>
        <time>2018-11-04T10:10:57.000Z</time>
      </trkpt>
      <trkpt lat="39.548548" lon="-0.544977">
        <ele>91.753241571913</ele>
        <time>2018-11-04T10:10:58.000Z</time>
      </trkpt>
      <trkpt lat="39.548542" lon="-0.545042">
        <ele>92</ele>
        <time>2018-11-04T10:10:59.000Z</time>
      </trkpt>
      <trkpt lat="39.548539" lon="-0.545108">
        <ele>92</ele>
        <time>2018-11-04T10:11:00.000Z</time>
      </trkpt>
      <trkpt lat="39.548538" lon="-0.545176">
        <ele>91.1100032</ele>
        <time>2018-11-04T10:11:01.000Z</time>
      </trkpt>
      <trkpt lat="39.548541" lon="-0.545245">
        <ele>91</ele>
        <time>2018-11-04T10:11:02.000Z</time>
      </trkpt>
      <trkpt lat="39.548545" lon="-0.545314">
        <ele>91</ele>
        <time>2018-11-04T10:11:03.000Z</time>
      </trkpt>
      <trkpt lat="39.548552" lon="-0.545381">
        <ele>91.8899968</ele>
        <time>2018-11-04T10:11:04.000Z</time>
      </trkpt>
      <trkpt lat="39.548561" lon="-0.545447">
        <ele>92</ele>
        <time>2018-11-04T10:11:05.000Z</time>
      </trkpt>
      <trkpt lat="39.548574" lon="-0.545511">
        <ele>92.8899968</ele>
        <time>2018-11-04T10:11:06.000Z</time>
      </trkpt>
      <trkpt lat="39.548587" lon="-0.545575">
        <ele>93</ele>
        <time>2018-11-04T10:11:07.000Z</time>
      </trkpt>
      <trkpt lat="39.548603" lon="-0.545638">
        <ele>93</ele>
        <time>2018-11-04T10:11:08.000Z</time>
      </trkpt>
      <trkpt lat="39.548618" lon="-0.545699">
        <ele>93</ele>
        <time>2018-11-04T10:11:09.000Z</time>
      </trkpt>
      <trkpt lat="39.548635" lon="-0.545761">
        <ele>93</ele>
        <time>2018-11-04T10:11:10.000Z</time>
      </trkpt>
      <trkpt lat="39.548654" lon="-0.545821">
        <ele>93.8899968</ele>
        <time>2018-11-04T10:11:11.000Z</time>
      </trkpt>
      <trkpt lat="39.548673" lon="-0.545882">
        <ele>94</ele>
        <time>2018-11-04T10:11:12.000Z</time>
      </trkpt>
      <trkpt lat="39.548693" lon="-0.545942">
        <ele>94</ele>
        <time>2018-11-04T10:11:13.000Z</time>
      </trkpt>
      <trkpt lat="39.548714" lon="-0.546001">
        <ele>94</ele>
        <time>2018-11-04T10:11:14.000Z</time>
      </trkpt>
      <trkpt lat="39.548735" lon="-0.546058">
        <ele>94</ele>
        <time>2018-11-04T10:11:15.000Z</time>
      </trkpt>
      <trkpt lat="39.548756" lon="-0.546115">
        <ele>94</ele>
        <time>2018-11-04T10:11:16.000Z</time>
      </trkpt>
      <trkpt lat="39.548778" lon="-0.546173">
        <ele>94</ele>
        <time>2018-11-04T10:11:17.000Z</time>
      </trkpt>
      <trkpt lat="39.548801" lon="-0.546232">
        <ele>94.8472177777778</ele>
        <time>2018-11-04T10:11:18.000Z</time>
      </trkpt>
      <trkpt lat="39.548822" lon="-0.546293">
        <ele>95</ele>
        <time>2018-11-04T10:11:19.000Z</time>
      </trkpt>
      <trkpt lat="39.548844" lon="-0.546353">
        <ele>95</ele>
        <time>2018-11-04T10:11:20.000Z</time>
      </trkpt>
      <trkpt lat="39.548868" lon="-0.546414">
        <ele>95</ele>
        <time>2018-11-04T10:11:21.000Z</time>
      </trkpt>
      <trkpt lat="39.548893" lon="-0.546474">
        <ele>95</ele>
        <time>2018-11-04T10:11:22.000Z</time>
      </trkpt>
      <trkpt lat="39.548917" lon="-0.546535">
        <ele>95.8899968</ele>
        <time>2018-11-04T10:11:23.000Z</time>
      </trkpt>
      <trkpt lat="39.548941" lon="-0.546595">
        <ele>96</ele>
        <time>2018-11-04T10:11:24.000Z</time>
      </trkpt>
      <trkpt lat="39.548969" lon="-0.546653">
        <ele>96</ele>
        <time>2018-11-04T10:11:25.000Z</time>
      </trkpt>
      <trkpt lat="39.549001" lon="-0.546711">
        <ele>96</ele>
        <time>2018-11-04T10:11:26.000Z</time>
      </trkpt>
      <trkpt lat="39.549034" lon="-0.546769">
        <ele>96</ele>
        <time>2018-11-04T10:11:27.000Z</time>
      </trkpt>
      <trkpt lat="39.549072" lon="-0.546827">
        <ele>96</ele>
        <time>2018-11-04T10:11:28.000Z</time>
      </trkpt>
      <trkpt lat="39.54911" lon="-0.546885">
        <ele>96</ele>
        <time>2018-11-04T10:11:29.000Z</time>
      </trkpt>
      <trkpt lat="39.549152" lon="-0.546942">
        <ele>96</ele>
        <time>2018-11-04T10:11:30.000Z</time>
      </trkpt>
      <trkpt lat="39.549194" lon="-0.546997">
        <ele>96</ele>
        <time>2018-11-04T10:11:31.000Z</time>
      </trkpt>
      <trkpt lat="39.549235" lon="-0.547052">
        <ele>96.69531</ele>
        <time>2018-11-04T10:11:32.000Z</time>
      </trkpt>
      <trkpt lat="39.549277" lon="-0.547109">
        <ele>97</ele>
        <time>2018-11-04T10:11:33.000Z</time>
      </trkpt>
      <trkpt lat="39.54932" lon="-0.547167">
        <ele>97</ele>
        <time>2018-11-04T10:11:34.000Z</time>
      </trkpt>
      <trkpt lat="39.549363" lon="-0.547225">
        <ele>97</ele>
        <time>2018-11-04T10:11:35.000Z</time>
      </trkpt>
      <trkpt lat="39.549408" lon="-0.547283">
        <ele>97</ele>
        <time>2018-11-04T10:11:36.000Z</time>
      </trkpt>
      <trkpt lat="39.549453" lon="-0.547344">
        <ele>97</ele>
        <time>2018-11-04T10:11:37.000Z</time>
      </trkpt>
      <trkpt lat="39.549497" lon="-0.547409">
        <ele>97</ele>
        <time>2018-11-04T10:11:38.000Z</time>
      </trkpt>
      <trkpt lat="39.549538" lon="-0.547478">
        <ele>97</ele>
        <time>2018-11-04T10:11:39.000Z</time>
      </trkpt>
      <trkpt lat="39.549577" lon="-0.547553">
        <ele>96.1100032</ele>
        <time>2018-11-04T10:11:40.000Z</time>
      </trkpt>
      <trkpt lat="39.549612" lon="-0.547632">
        <ele>96</ele>
        <time>2018-11-04T10:11:41.000Z</time>
      </trkpt>
      <trkpt lat="39.549645" lon="-0.547716">
        <ele>96</ele>
        <time>2018-11-04T10:11:42.000Z</time>
      </trkpt>
      <trkpt lat="39.549677" lon="-0.547806">
        <ele>96</ele>
        <time>2018-11-04T10:11:43.000Z</time>
      </trkpt>
      <trkpt lat="39.549708" lon="-0.547899">
        <ele>96</ele>
        <time>2018-11-04T10:11:44.000Z</time>
      </trkpt>
      <trkpt lat="39.54974" lon="-0.547996">
        <ele>96</ele>
        <time>2018-11-04T10:11:45.000Z</time>
      </trkpt>
      <trkpt lat="39.549774" lon="-0.548094">
        <ele>96</ele>
        <time>2018-11-04T10:11:46.000Z</time>
      </trkpt>
      <trkpt lat="39.549812" lon="-0.548191">
        <ele>96</ele>
        <time>2018-11-04T10:11:47.000Z</time>
      </trkpt>
      <trkpt lat="39.549849" lon="-0.548289">
        <ele>96</ele>
        <time>2018-11-04T10:11:48.000Z</time>
      </trkpt>
      <trkpt lat="39.549889" lon="-0.548386">
        <ele>95.1594227094811</ele>
        <time>2018-11-04T10:11:49.000Z</time>
      </trkpt>
      <trkpt lat="39.549931" lon="-0.548482">
        <ele>95</ele>
        <time>2018-11-04T10:11:50.000Z</time>
      </trkpt>
      <trkpt lat="39.549979" lon="-0.548577">
        <ele>95</ele>
        <time>2018-11-04T10:11:51.000Z</time>
      </trkpt>
      <trkpt lat="39.550027" lon="-0.548671">
        <ele>95</ele>
        <time>2018-11-04T10:11:52.000Z</time>
      </trkpt>
      <trkpt lat="39.550072" lon="-0.548765">
        <ele>95</ele>
        <time>2018-11-04T10:11:53.000Z</time>
      </trkpt>
      <trkpt lat="39.550117" lon="-0.54886">
        <ele>95</ele>
        <time>2018-11-04T10:11:54.000Z</time>
      </trkpt>
      <trkpt lat="39.550164" lon="-0.548953">
        <ele>94.1594227094811</ele>
        <time>2018-11-04T10:11:55.000Z</time>
      </trkpt>
      <trkpt lat="39.550211" lon="-0.549044">
        <ele>94</ele>
        <time>2018-11-04T10:11:56.000Z</time>
      </trkpt>
      <trkpt lat="39.550256" lon="-0.549136">
        <ele>94.8899968</ele>
        <time>2018-11-04T10:11:57.000Z</time>
      </trkpt>
      <trkpt lat="39.550304" lon="-0.549224">
        <ele>95</ele>
        <time>2018-11-04T10:11:58.000Z</time>
      </trkpt>
      <trkpt lat="39.550351" lon="-0.54931">
        <ele>95</ele>
        <time>2018-11-04T10:11:59.000Z</time>
      </trkpt>
      <trkpt lat="39.550397" lon="-0.549397">
        <ele>95</ele>
        <time>2018-11-04T10:12:00.000Z</time>
      </trkpt>
      <trkpt lat="39.550442" lon="-0.549485">
        <ele>95.8405772905189</ele>
        <time>2018-11-04T10:12:01.000Z</time>
      </trkpt>
      <trkpt lat="39.550487" lon="-0.549575">
        <ele>96</ele>
        <time>2018-11-04T10:12:02.000Z</time>
      </trkpt>
      <trkpt lat="39.550534" lon="-0.549664">
        <ele>95.1100032</ele>
        <time>2018-11-04T10:12:03.000Z</time>
      </trkpt>
      <trkpt lat="39.550581" lon="-0.549754">
        <ele>95</ele>
        <time>2018-11-04T10:12:04.000Z</time>
      </trkpt>
      <trkpt lat="39.55063" lon="-0.549842">
        <ele>95</ele>
        <time>2018-11-04T10:12:05.000Z</time>
      </trkpt>
      <trkpt lat="39.550682" lon="-0.549928">
        <ele>95</ele>
        <time>2018-11-04T10:12:06.000Z</time>
      </trkpt>
      <trkpt lat="39.550737" lon="-0.550009">
        <ele>95</ele>
        <time>2018-11-04T10:12:07.000Z</time>
      </trkpt>
      <trkpt lat="39.550793" lon="-0.550087">
        <ele>95</ele>
        <time>2018-11-04T10:12:08.000Z</time>
      </trkpt>
      <trkpt lat="39.55085" lon="-0.550163">
        <ele>95</ele>
        <time>2018-11-04T10:12:09.000Z</time>
      </trkpt>
      <trkpt lat="39.550904" lon="-0.550239">
        <ele>95</ele>
        <time>2018-11-04T10:12:10.000Z</time>
      </trkpt>
      <trkpt lat="39.550959" lon="-0.550316">
        <ele>95.8450666137843</ele>
        <time>2018-11-04T10:12:11.000Z</time>
      </trkpt>
      <trkpt lat="39.551013" lon="-0.55039">
        <ele>96</ele>
        <time>2018-11-04T10:12:12.000Z</time>
      </trkpt>
      <trkpt lat="39.551067" lon="-0.55046">
        <ele>96.8405772905189</ele>
        <time>2018-11-04T10:12:13.000Z</time>
      </trkpt>
      <trkpt lat="39.551119" lon="-0.550529">
        <ele>97</ele>
        <time>2018-11-04T10:12:14.000Z</time>
      </trkpt>
      <trkpt lat="39.55117" lon="-0.550596">
        <ele>97</ele>
        <time>2018-11-04T10:12:15.000Z</time>
      </trkpt>
      <trkpt lat="39.551221" lon="-0.550662">
        <ele>97</ele>
        <time>2018-11-04T10:12:16.000Z</time>
      </trkpt>
      <trkpt lat="39.551271" lon="-0.550725">
        <ele>97</ele>
        <time>2018-11-04T10:12:17.000Z</time>
      </trkpt>
      <trkpt lat="39.551321" lon="-0.550785">
        <ele>97</ele>
        <time>2018-11-04T10:12:18.000Z</time>
      </trkpt>
      <trkpt lat="39.551368" lon="-0.550846">
        <ele>97</ele>
        <time>2018-11-04T10:12:19.000Z</time>
      </trkpt>
      <trkpt lat="39.551411" lon="-0.550906">
        <ele>97</ele>
        <time>2018-11-04T10:12:20.000Z</time>
      </trkpt>
      <trkpt lat="39.551454" lon="-0.550964">
        <ele>97</ele>
        <time>2018-11-04T10:12:21.000Z</time>
      </trkpt>
      <trkpt lat="39.551496" lon="-0.55102">
        <ele>97</ele>
        <time>2018-11-04T10:12:22.000Z</time>
      </trkpt>
      <trkpt lat="39.551535" lon="-0.551074">
        <ele>97</ele>
        <time>2018-11-04T10:12:23.000Z</time>
      </trkpt>
      <trkpt lat="39.551573" lon="-0.551129">
        <ele>97</ele>
        <time>2018-11-04T10:12:24.000Z</time>
      </trkpt>
      <trkpt lat="39.551606" lon="-0.55119">
        <ele>96.1100032</ele>
        <time>2018-11-04T10:12:25.000Z</time>
      </trkpt>
      <trkpt lat="39.551635" lon="-0.551249">
        <ele>96</ele>
        <time>2018-11-04T10:12:26.000Z</time>
      </trkpt>
      <trkpt lat="39.551655" lon="-0.551315">
        <ele>96</ele>
        <time>2018-11-04T10:12:27.000Z</time>
      </trkpt>
      <trkpt lat="39.551672" lon="-0.551383">
        <ele>96</ele>
        <time>2018-11-04T10:12:28.000Z</time>
      </trkpt>
      <trkpt lat="39.551681" lon="-0.551452">
        <ele>96</ele>
        <time>2018-11-04T10:12:29.000Z</time>
      </trkpt>
      <trkpt lat="39.551685" lon="-0.551522">
        <ele>95.1527822222222</ele>
        <time>2018-11-04T10:12:30.000Z</time>
      </trkpt>
      <trkpt lat="39.551684" lon="-0.551592">
        <ele>95</ele>
        <time>2018-11-04T10:12:31.000Z</time>
      </trkpt>
      <trkpt lat="39.551676" lon="-0.551662">
        <ele>95</ele>
        <time>2018-11-04T10:12:32.000Z</time>
      </trkpt>
      <trkpt lat="39.551663" lon="-0.551733">
        <ele>95</ele>
        <time>2018-11-04T10:12:33.000Z</time>
      </trkpt>
      <trkpt lat="39.551646" lon="-0.551803">
        <ele>94.1100032</ele>
        <time>2018-11-04T10:12:34.000Z</time>
      </trkpt>
      <trkpt lat="39.551629" lon="-0.551872">
        <ele>94</ele>
        <time>2018-11-04T10:12:35.000Z</time>
      </trkpt>
      <trkpt lat="39.551613" lon="-0.551943">
        <ele>94</ele>
        <time>2018-11-04T10:12:36.000Z</time>
      </trkpt>
      <trkpt lat="39.551599" lon="-0.552009">
        <ele>93.3206147893379</ele>
        <time>2018-11-04T10:12:37.000Z</time>
      </trkpt>
      <trkpt lat="39.551584" lon="-0.552077">
        <ele>93</ele>
        <time>2018-11-04T10:12:38.000Z</time>
      </trkpt>
      <trkpt lat="39.55157" lon="-0.552146">
        <ele>92.127448642815</ele>
        <time>2018-11-04T10:12:39.000Z</time>
      </trkpt>
      <trkpt lat="39.551552" lon="-0.552215">
        <ele>92</ele>
        <time>2018-11-04T10:12:40.000Z</time>
      </trkpt>
      <trkpt lat="39.551534" lon="-0.552283">
        <ele>91.1100032</ele>
        <time>2018-11-04T10:12:41.000Z</time>
      </trkpt>
      <trkpt lat="39.551517" lon="-0.552351">
        <ele>91</ele>
        <time>2018-11-04T10:12:42.000Z</time>
      </trkpt>
      <trkpt lat="39.5515" lon="-0.552421">
        <ele>91</ele>
        <time>2018-11-04T10:12:43.000Z</time>
      </trkpt>
      <trkpt lat="39.551483" lon="-0.552494">
        <ele>90.1100032</ele>
        <time>2018-11-04T10:12:44.000Z</time>
      </trkpt>
      <trkpt lat="39.551465" lon="-0.552568">
        <ele>90</ele>
        <time>2018-11-04T10:12:45.000Z</time>
      </trkpt>
      <trkpt lat="39.551446" lon="-0.552647">
        <ele>90</ele>
        <time>2018-11-04T10:12:46.000Z</time>
      </trkpt>
      <trkpt lat="39.551428" lon="-0.552728">
        <ele>89.1594227094811</ele>
        <time>2018-11-04T10:12:47.000Z</time>
      </trkpt>
      <trkpt lat="39.551413" lon="-0.55281">
        <ele>89</ele>
        <time>2018-11-04T10:12:48.000Z</time>
      </trkpt>
      <trkpt lat="39.5514" lon="-0.552894">
        <ele>89</ele>
        <time>2018-11-04T10:12:49.000Z</time>
      </trkpt>
      <trkpt lat="39.551387" lon="-0.552978">
        <ele>89</ele>
        <time>2018-11-04T10:12:50.000Z</time>
      </trkpt>
      <trkpt lat="39.551376" lon="-0.553062">
        <ele>88.1100032</ele>
        <time>2018-11-04T10:12:51.000Z</time>
      </trkpt>
      <trkpt lat="39.551368" lon="-0.553147">
        <ele>88</ele>
        <time>2018-11-04T10:12:52.000Z</time>
      </trkpt>
      <trkpt lat="39.551361" lon="-0.553231">
        <ele>88</ele>
        <time>2018-11-04T10:12:53.000Z</time>
      </trkpt>
      <trkpt lat="39.551355" lon="-0.553313">
        <ele>88</ele>
        <time>2018-11-04T10:12:54.000Z</time>
      </trkpt>
      <trkpt lat="39.551351" lon="-0.553394">
        <ele>88</ele>
        <time>2018-11-04T10:12:55.000Z</time>
      </trkpt>
      <trkpt lat="39.551348" lon="-0.553473">
        <ele>88</ele>
        <time>2018-11-04T10:12:56.000Z</time>
      </trkpt>
      <trkpt lat="39.551343" lon="-0.553551">
        <ele>88</ele>
        <time>2018-11-04T10:12:57.000Z</time>
      </trkpt>
      <trkpt lat="39.551337" lon="-0.55363">
        <ele>88</ele>
        <time>2018-11-04T10:12:58.000Z</time>
      </trkpt>
      <trkpt lat="39.551331" lon="-0.553709">
        <ele>88</ele>
        <time>2018-11-04T10:12:59.000Z</time>
      </trkpt>
      <trkpt lat="39.551324" lon="-0.553788">
        <ele>88</ele>
        <time>2018-11-04T10:13:00.000Z</time>
      </trkpt>
      <trkpt lat="39.551318" lon="-0.553866">
        <ele>87.1100032</ele>
        <time>2018-11-04T10:13:01.000Z</time>
      </trkpt>
      <trkpt lat="39.551312" lon="-0.553945">
        <ele>87</ele>
        <time>2018-11-04T10:13:02.000Z</time>
      </trkpt>
      <trkpt lat="39.551306" lon="-0.554023">
        <ele>87</ele>
        <time>2018-11-04T10:13:03.000Z</time>
      </trkpt>
      <trkpt lat="39.551301" lon="-0.554104">
        <ele>87.8899968</ele>
        <time>2018-11-04T10:13:04.000Z</time>
      </trkpt>
      <trkpt lat="39.551298" lon="-0.554183">
        <ele>88</ele>
        <time>2018-11-04T10:13:05.000Z</time>
      </trkpt>
      <trkpt lat="39.551294" lon="-0.554262">
        <ele>88</ele>
        <time>2018-11-04T10:13:06.000Z</time>
      </trkpt>
      <trkpt lat="39.551288" lon="-0.554339">
        <ele>88</ele>
        <time>2018-11-04T10:13:07.000Z</time>
      </trkpt>
      <trkpt lat="39.55128" lon="-0.554415">
        <ele>88</ele>
        <time>2018-11-04T10:13:08.000Z</time>
      </trkpt>
      <trkpt lat="39.551272" lon="-0.554491">
        <ele>88</ele>
        <time>2018-11-04T10:13:09.000Z</time>
      </trkpt>
      <trkpt lat="39.551268" lon="-0.554568">
        <ele>88</ele>
        <time>2018-11-04T10:13:10.000Z</time>
      </trkpt>
      <trkpt lat="39.551267" lon="-0.554645">
        <ele>88.8428540081919</ele>
        <time>2018-11-04T10:13:11.000Z</time>
      </trkpt>
      <trkpt lat="39.551269" lon="-0.554723">
        <ele>89</ele>
        <time>2018-11-04T10:13:12.000Z</time>
      </trkpt>
      <trkpt lat="39.551271" lon="-0.554802">
        <ele>88.111113984278</ele>
        <time>2018-11-04T10:13:13.000Z</time>
      </trkpt>
      <trkpt lat="39.551274" lon="-0.554883">
        <ele>88</ele>
        <time>2018-11-04T10:13:14.000Z</time>
      </trkpt>
      <trkpt lat="39.551279" lon="-0.554965">
        <ele>88</ele>
        <time>2018-11-04T10:13:15.000Z</time>
      </trkpt>
      <trkpt lat="39.551288" lon="-0.555046">
        <ele>88</ele>
        <time>2018-11-04T10:13:16.000Z</time>
      </trkpt>
      <trkpt lat="39.551306" lon="-0.555126">
        <ele>88</ele>
        <time>2018-11-04T10:13:17.000Z</time>
      </trkpt>
      <trkpt lat="39.551326" lon="-0.555203">
        <ele>88</ele>
        <time>2018-11-04T10:13:18.000Z</time>
      </trkpt>
      <trkpt lat="39.551347" lon="-0.555281">
        <ele>88</ele>
        <time>2018-11-04T10:13:19.000Z</time>
      </trkpt>
      <trkpt lat="39.55137" lon="-0.555357">
        <ele>88</ele>
        <time>2018-11-04T10:13:20.000Z</time>
      </trkpt>
      <trkpt lat="39.551394" lon="-0.555433">
        <ele>88</ele>
        <time>2018-11-04T10:13:21.000Z</time>
      </trkpt>
      <trkpt lat="39.551417" lon="-0.555509">
        <ele>88</ele>
        <time>2018-11-04T10:13:22.000Z</time>
      </trkpt>
      <trkpt lat="39.551439" lon="-0.555584">
        <ele>88.8899968</ele>
        <time>2018-11-04T10:13:23.000Z</time>
      </trkpt>
      <trkpt lat="39.551459" lon="-0.555658">
        <ele>89</ele>
        <time>2018-11-04T10:13:24.000Z</time>
      </trkpt>
      <trkpt lat="39.551476" lon="-0.555731">
        <ele>89</ele>
        <time>2018-11-04T10:13:25.000Z</time>
      </trkpt>
      <trkpt lat="39.55149" lon="-0.555802">
        <ele>89</ele>
        <time>2018-11-04T10:13:26.000Z</time>
      </trkpt>
      <trkpt lat="39.551505" lon="-0.555869">
        <ele>89</ele>
        <time>2018-11-04T10:13:27.000Z</time>
      </trkpt>
      <trkpt lat="39.551522" lon="-0.555933">
        <ele>89</ele>
        <time>2018-11-04T10:13:28.000Z</time>
      </trkpt>
      <trkpt lat="39.551539" lon="-0.555994">
        <ele>89</ele>
        <time>2018-11-04T10:13:29.000Z</time>
      </trkpt>
      <trkpt lat="39.551555" lon="-0.556052">
        <ele>89.8899968</ele>
        <time>2018-11-04T10:13:30.000Z</time>
      </trkpt>
      <trkpt lat="39.551571" lon="-0.556108">
        <ele>90</ele>
        <time>2018-11-04T10:13:31.000Z</time>
      </trkpt>
      <trkpt lat="39.551584" lon="-0.556164">
        <ele>90</ele>
        <time>2018-11-04T10:13:32.000Z</time>
      </trkpt>
      <trkpt lat="39.551596" lon="-0.556219">
        <ele>90</ele>
        <time>2018-11-04T10:13:33.000Z</time>
      </trkpt>
      <trkpt lat="39.551611" lon="-0.55627">
        <ele>90</ele>
        <time>2018-11-04T10:13:34.000Z</time>
      </trkpt>
      <trkpt lat="39.551624" lon="-0.556319">
        <ele>90</ele>
        <time>2018-11-04T10:13:35.000Z</time>
      </trkpt>
      <trkpt lat="39.551635" lon="-0.556365">
        <ele>90</ele>
        <time>2018-11-04T10:13:36.000Z</time>
      </trkpt>
      <trkpt lat="39.551645" lon="-0.556408">
        <ele>90</ele>
        <time>2018-11-04T10:13:37.000Z</time>
      </trkpt>
      <trkpt lat="39.551656" lon="-0.556445">
        <ele>90</ele>
        <time>2018-11-04T10:13:38.000Z</time>
      </trkpt>
      <trkpt lat="39.551666" lon="-0.556481">
        <ele>90</ele>
        <time>2018-11-04T10:13:39.000Z</time>
      </trkpt>
      <trkpt lat="39.551674" lon="-0.556515">
        <ele>90</ele>
        <time>2018-11-04T10:13:40.000Z</time>
      </trkpt>
      <trkpt lat="39.551683" lon="-0.556546">
        <ele>89.1100032</ele>
        <time>2018-11-04T10:13:41.000Z</time>
      </trkpt>
      <trkpt lat="39.551692" lon="-0.556581">
        <ele>89</ele>
        <time>2018-11-04T10:13:42.000Z</time>
      </trkpt>
      <trkpt lat="39.551704" lon="-0.556617">
        <ele>89</ele>
        <time>2018-11-04T10:13:43.000Z</time>
      </trkpt>
      <trkpt lat="39.551715" lon="-0.556658">
        <ele>88.1100032</ele>
        <time>2018-11-04T10:13:44.000Z</time>
      </trkpt>
      <trkpt lat="39.551713" lon="-0.556708">
        <ele>88</ele>
        <time>2018-11-04T10:13:45.000Z</time>
      </trkpt>
      <trkpt lat="39.551699" lon="-0.55676">
        <ele>87.1527822222222</ele>
        <time>2018-11-04T10:13:46.000Z</time>
      </trkpt>
      <trkpt lat="39.551676" lon="-0.556813">
        <ele>87</ele>
        <time>2018-11-04T10:13:47.000Z</time>
      </trkpt>
      <trkpt lat="39.551649" lon="-0.556866">
        <ele>87</ele>
        <time>2018-11-04T10:13:48.000Z</time>
      </trkpt>
      <trkpt lat="39.551621" lon="-0.556915">
        <ele>87</ele>
        <time>2018-11-04T10:13:49.000Z</time>
      </trkpt>
      <trkpt lat="39.55159" lon="-0.556964">
        <ele>87</ele>
        <time>2018-11-04T10:13:50.000Z</time>
      </trkpt>
      <trkpt lat="39.551561" lon="-0.557013">
        <ele>86.3206147893379</ele>
        <time>2018-11-04T10:13:51.000Z</time>
      </trkpt>
      <trkpt lat="39.551531" lon="-0.557062">
        <ele>86</ele>
        <time>2018-11-04T10:13:52.000Z</time>
      </trkpt>
      <trkpt lat="39.551501" lon="-0.557111">
        <ele>86</ele>
        <time>2018-11-04T10:13:53.000Z</time>
      </trkpt>
      <trkpt lat="39.55147" lon="-0.557161">
        <ele>86</ele>
        <time>2018-11-04T10:13:54.000Z</time>
      </trkpt>
      <trkpt lat="39.55144" lon="-0.55721">
        <ele>86</ele>
        <time>2018-11-04T10:13:55.000Z</time>
      </trkpt>
      <trkpt lat="39.55141" lon="-0.55726">
        <ele>85.1100032</ele>
        <time>2018-11-04T10:13:56.000Z</time>
      </trkpt>
      <trkpt lat="39.551381" lon="-0.557311">
        <ele>85</ele>
        <time>2018-11-04T10:13:57.000Z</time>
      </trkpt>
      <trkpt lat="39.551351" lon="-0.557362">
        <ele>85</ele>
        <time>2018-11-04T10:13:58.000Z</time>
      </trkpt>
      <trkpt lat="39.55132" lon="-0.557413">
        <ele>85</ele>
        <time>2018-11-04T10:13:59.000Z</time>
      </trkpt>
      <trkpt lat="39.551289" lon="-0.557466">
        <ele>85</ele>
        <time>2018-11-04T10:14:00.000Z</time>
      </trkpt>
      <trkpt lat="39.55126" lon="-0.557522">
        <ele>84.3206147893379</ele>
        <time>2018-11-04T10:14:01.000Z</time>
      </trkpt>
      <trkpt lat="39.551235" lon="-0.557582">
        <ele>84</ele>
        <time>2018-11-04T10:14:02.000Z</time>
      </trkpt>
      <trkpt lat="39.551211" lon="-0.557644">
        <ele>84</ele>
        <time>2018-11-04T10:14:03.000Z</time>
      </trkpt>
      <trkpt lat="39.551191" lon="-0.557708">
        <ele>84</ele>
        <time>2018-11-04T10:14:04.000Z</time>
      </trkpt>
      <trkpt lat="39.551174" lon="-0.557773">
        <ele>84</ele>
        <time>2018-11-04T10:14:05.000Z</time>
      </trkpt>
      <trkpt lat="39.55116" lon="-0.557839">
        <ele>84</ele>
        <time>2018-11-04T10:14:06.000Z</time>
      </trkpt>
      <trkpt lat="39.551147" lon="-0.557906">
        <ele>84</ele>
        <time>2018-11-04T10:14:07.000Z</time>
      </trkpt>
      <trkpt lat="39.551135" lon="-0.557972">
        <ele>84</ele>
        <time>2018-11-04T10:14:08.000Z</time>
      </trkpt>
      <trkpt lat="39.551123" lon="-0.55804">
        <ele>83.1100032</ele>
        <time>2018-11-04T10:14:09.000Z</time>
      </trkpt>
      <trkpt lat="39.551111" lon="-0.558106">
        <ele>83</ele>
        <time>2018-11-04T10:14:10.000Z</time>
      </trkpt>
      <trkpt lat="39.551101" lon="-0.558173">
        <ele>83</ele>
        <time>2018-11-04T10:14:11.000Z</time>
      </trkpt>
      <trkpt lat="39.551091" lon="-0.55824">
        <ele>83</ele>
        <time>2018-11-04T10:14:12.000Z</time>
      </trkpt>
      <trkpt lat="39.551081" lon="-0.558308">
        <ele>83</ele>
        <time>2018-11-04T10:14:13.000Z</time>
      </trkpt>
      <trkpt lat="39.55107" lon="-0.558376">
        <ele>83</ele>
        <time>2018-11-04T10:14:14.000Z</time>
      </trkpt>
      <trkpt lat="39.551058" lon="-0.558444">
        <ele>83</ele>
        <time>2018-11-04T10:14:15.000Z</time>
      </trkpt>
      <trkpt lat="39.551049" lon="-0.558511">
        <ele>83</ele>
        <time>2018-11-04T10:14:16.000Z</time>
      </trkpt>
      <trkpt lat="39.551038" lon="-0.558581">
        <ele>83</ele>
        <time>2018-11-04T10:14:17.000Z</time>
      </trkpt>
      <trkpt lat="39.551027" lon="-0.55865">
        <ele>83</ele>
        <time>2018-11-04T10:14:18.000Z</time>
      </trkpt>
      <trkpt lat="39.551017" lon="-0.55872">
        <ele>83.8899968</ele>
        <time>2018-11-04T10:14:19.000Z</time>
      </trkpt>
      <trkpt lat="39.551006" lon="-0.55879">
        <ele>84</ele>
        <time>2018-11-04T10:14:20.000Z</time>
      </trkpt>
      <trkpt lat="39.550995" lon="-0.558862">
        <ele>84</ele>
        <time>2018-11-04T10:14:21.000Z</time>
      </trkpt>
      <trkpt lat="39.550985" lon="-0.558932">
        <ele>84</ele>
        <time>2018-11-04T10:14:22.000Z</time>
      </trkpt>
      <trkpt lat="39.550973" lon="-0.559001">
        <ele>84</ele>
        <time>2018-11-04T10:14:23.000Z</time>
      </trkpt>
      <trkpt lat="39.550963" lon="-0.55907">
        <ele>84</ele>
        <time>2018-11-04T10:14:24.000Z</time>
      </trkpt>
      <trkpt lat="39.550952" lon="-0.55914">
        <ele>84</ele>
        <time>2018-11-04T10:14:25.000Z</time>
      </trkpt>
      <trkpt lat="39.550941" lon="-0.55921">
        <ele>84</ele>
        <time>2018-11-04T10:14:26.000Z</time>
      </trkpt>
      <trkpt lat="39.550933" lon="-0.559279">
        <ele>84</ele>
        <time>2018-11-04T10:14:27.000Z</time>
      </trkpt>
      <trkpt lat="39.550926" lon="-0.559348">
        <ele>84</ele>
        <time>2018-11-04T10:14:28.000Z</time>
      </trkpt>
      <trkpt lat="39.550915" lon="-0.559418">
        <ele>84</ele>
        <time>2018-11-04T10:14:29.000Z</time>
      </trkpt>
      <trkpt lat="39.550905" lon="-0.559488">
        <ele>84</ele>
        <time>2018-11-04T10:14:30.000Z</time>
      </trkpt>
      <trkpt lat="39.550896" lon="-0.559558">
        <ele>84</ele>
        <time>2018-11-04T10:14:31.000Z</time>
      </trkpt>
      <trkpt lat="39.550884" lon="-0.559629">
        <ele>84</ele>
        <time>2018-11-04T10:14:32.000Z</time>
      </trkpt>
      <trkpt lat="39.550872" lon="-0.559702">
        <ele>84</ele>
        <time>2018-11-04T10:14:33.000Z</time>
      </trkpt>
      <trkpt lat="39.550859" lon="-0.559772">
        <ele>84</ele>
        <time>2018-11-04T10:14:34.000Z</time>
      </trkpt>
      <trkpt lat="39.550849" lon="-0.559843">
        <ele>84.8899968</ele>
        <time>2018-11-04T10:14:35.000Z</time>
      </trkpt>
      <trkpt lat="39.550835" lon="-0.559916">
        <ele>85</ele>
        <time>2018-11-04T10:14:36.000Z</time>
      </trkpt>
      <trkpt lat="39.550823" lon="-0.559988">
        <ele>85</ele>
        <time>2018-11-04T10:14:37.000Z</time>
      </trkpt>
      <trkpt lat="39.550812" lon="-0.560056">
        <ele>85</ele>
        <time>2018-11-04T10:14:38.000Z</time>
      </trkpt>
      <trkpt lat="39.550801" lon="-0.560124">
        <ele>85</ele>
        <time>2018-11-04T10:14:39.000Z</time>
      </trkpt>
      <trkpt lat="39.550789" lon="-0.560194">
        <ele>85</ele>
        <time>2018-11-04T10:14:40.000Z</time>
      </trkpt>
      <trkpt lat="39.550775" lon="-0.560264">
        <ele>85.8899968</ele>
        <time>2018-11-04T10:14:41.000Z</time>
      </trkpt>
      <trkpt lat="39.550759" lon="-0.560334">
        <ele>85.3100782885663</ele>
        <time>2018-11-04T10:14:42.000Z</time>
      </trkpt>
      <trkpt lat="39.550738" lon="-0.560398">
        <ele>85</ele>
        <time>2018-11-04T10:14:43.000Z</time>
      </trkpt>
      <trkpt lat="39.55071" lon="-0.560456">
        <ele>85</ele>
        <time>2018-11-04T10:14:44.000Z</time>
      </trkpt>
      <trkpt lat="39.550677" lon="-0.560506">
        <ele>85</ele>
        <time>2018-11-04T10:14:45.000Z</time>
      </trkpt>
      <trkpt lat="39.550638" lon="-0.560552">
        <ele>85</ele>
        <time>2018-11-04T10:14:46.000Z</time>
      </trkpt>
      <trkpt lat="39.550597" lon="-0.560596">
        <ele>84.3206147893379</ele>
        <time>2018-11-04T10:14:47.000Z</time>
      </trkpt>
      <trkpt lat="39.550557" lon="-0.56064">
        <ele>84</ele>
        <time>2018-11-04T10:14:48.000Z</time>
      </trkpt>
      <trkpt lat="39.550514" lon="-0.560676">
        <ele>84</ele>
        <time>2018-11-04T10:14:49.000Z</time>
      </trkpt>
      <trkpt lat="39.550466" lon="-0.560708">
        <ele>84</ele>
        <time>2018-11-04T10:14:50.000Z</time>
      </trkpt>
      <trkpt lat="39.550417" lon="-0.560734">
        <ele>84</ele>
        <time>2018-11-04T10:14:51.000Z</time>
      </trkpt>
      <trkpt lat="39.550365" lon="-0.56075">
        <ele>84</ele>
        <time>2018-11-04T10:14:52.000Z</time>
      </trkpt>
      <trkpt lat="39.550317" lon="-0.560758">
        <ele>84</ele>
        <time>2018-11-04T10:14:53.000Z</time>
      </trkpt>
      <trkpt lat="39.550268" lon="-0.560758">
        <ele>84</ele>
        <time>2018-11-04T10:14:54.000Z</time>
      </trkpt>
      <trkpt lat="39.550217" lon="-0.56075">
        <ele>84</ele>
        <time>2018-11-04T10:14:55.000Z</time>
      </trkpt>
      <trkpt lat="39.550167" lon="-0.560736">
        <ele>84</ele>
        <time>2018-11-04T10:14:56.000Z</time>
      </trkpt>
      <trkpt lat="39.550115" lon="-0.560718">
        <ele>84</ele>
        <time>2018-11-04T10:14:57.000Z</time>
      </trkpt>
      <trkpt lat="39.550063" lon="-0.560702">
        <ele>84</ele>
        <time>2018-11-04T10:14:58.000Z</time>
      </trkpt>
      <trkpt lat="39.550012" lon="-0.560684">
        <ele>84</ele>
        <time>2018-11-04T10:14:59.000Z</time>
      </trkpt>
      <trkpt lat="39.549961" lon="-0.560665">
        <ele>84</ele>
        <time>2018-11-04T10:15:00.000Z</time>
      </trkpt>
      <trkpt lat="39.549907" lon="-0.560647">
        <ele>84</ele>
        <time>2018-11-04T10:15:01.000Z</time>
      </trkpt>
      <trkpt lat="39.549853" lon="-0.560628">
        <ele>83.1549333862157</ele>
        <time>2018-11-04T10:15:02.000Z</time>
      </trkpt>
      <trkpt lat="39.549799" lon="-0.56061">
        <ele>83</ele>
        <time>2018-11-04T10:15:03.000Z</time>
      </trkpt>
      <trkpt lat="39.549745" lon="-0.560593">
        <ele>83</ele>
        <time>2018-11-04T10:15:04.000Z</time>
      </trkpt>
      <trkpt lat="39.549692" lon="-0.560576">
        <ele>83</ele>
        <time>2018-11-04T10:15:05.000Z</time>
      </trkpt>
      <trkpt lat="39.54964" lon="-0.560558">
        <ele>83</ele>
        <time>2018-11-04T10:15:06.000Z</time>
      </trkpt>
      <trkpt lat="39.549589" lon="-0.560542">
        <ele>83</ele>
        <time>2018-11-04T10:15:07.000Z</time>
      </trkpt>
      <trkpt lat="39.549536" lon="-0.560525">
        <ele>83</ele>
        <time>2018-11-04T10:15:08.000Z</time>
      </trkpt>
      <trkpt lat="39.549484" lon="-0.560509">
        <ele>83</ele>
        <time>2018-11-04T10:15:09.000Z</time>
      </trkpt>
      <trkpt lat="39.549431" lon="-0.560493">
        <ele>83</ele>
        <time>2018-11-04T10:15:10.000Z</time>
      </trkpt>
      <trkpt lat="39.549379" lon="-0.560477">
        <ele>83</ele>
        <time>2018-11-04T10:15:11.000Z</time>
      </trkpt>
      <trkpt lat="39.549329" lon="-0.56046">
        <ele>83</ele>
        <time>2018-11-04T10:15:12.000Z</time>
      </trkpt>
      <trkpt lat="39.549278" lon="-0.560444">
        <ele>83</ele>
        <time>2018-11-04T10:15:13.000Z</time>
      </trkpt>
      <trkpt lat="39.549226" lon="-0.560429">
        <ele>83</ele>
        <time>2018-11-04T10:15:14.000Z</time>
      </trkpt>
      <trkpt lat="39.549173" lon="-0.560412">
        <ele>83</ele>
        <time>2018-11-04T10:15:15.000Z</time>
      </trkpt>
      <trkpt lat="39.54912" lon="-0.560392">
        <ele>83</ele>
        <time>2018-11-04T10:15:16.000Z</time>
      </trkpt>
      <trkpt lat="39.549067" lon="-0.560372">
        <ele>83</ele>
        <time>2018-11-04T10:15:17.000Z</time>
      </trkpt>
      <trkpt lat="39.549015" lon="-0.560354">
        <ele>82.1122474302209</ele>
        <time>2018-11-04T10:15:18.000Z</time>
      </trkpt>
      <trkpt lat="39.548964" lon="-0.560341">
        <ele>82</ele>
        <time>2018-11-04T10:15:19.000Z</time>
      </trkpt>
      <trkpt lat="39.548913" lon="-0.560342">
        <ele>82</ele>
        <time>2018-11-04T10:15:20.000Z</time>
      </trkpt>
      <trkpt lat="39.548872" lon="-0.560372">
        <ele>82</ele>
        <time>2018-11-04T10:15:21.000Z</time>
      </trkpt>
      <trkpt lat="39.548853" lon="-0.56043">
        <ele>81.1100032</ele>
        <time>2018-11-04T10:15:22.000Z</time>
      </trkpt>
      <trkpt lat="39.548852" lon="-0.560504">
        <ele>81</ele>
        <time>2018-11-04T10:15:23.000Z</time>
      </trkpt>
      <trkpt lat="39.548854" lon="-0.560581">
        <ele>80.32576</ele>
        <time>2018-11-04T10:15:24.000Z</time>
      </trkpt>
      <trkpt lat="39.548855" lon="-0.56066">
        <ele>80</ele>
        <time>2018-11-04T10:15:25.000Z</time>
      </trkpt>
      <trkpt lat="39.548857" lon="-0.560744">
        <ele>80</ele>
        <time>2018-11-04T10:15:26.000Z</time>
      </trkpt>
      <trkpt lat="39.548853" lon="-0.560829">
        <ele>79.1122474302209</ele>
        <time>2018-11-04T10:15:27.000Z</time>
      </trkpt>
      <trkpt lat="39.548843" lon="-0.560914">
        <ele>79</ele>
        <time>2018-11-04T10:15:28.000Z</time>
      </trkpt>
      <trkpt lat="39.548835" lon="-0.560999">
        <ele>79</ele>
        <time>2018-11-04T10:15:29.000Z</time>
      </trkpt>
      <trkpt lat="39.548828" lon="-0.561081">
        <ele>78.1100032</ele>
        <time>2018-11-04T10:15:30.000Z</time>
      </trkpt>
      <trkpt lat="39.548822" lon="-0.561149">
        <ele>78</ele>
        <time>2018-11-04T10:15:31.000Z</time>
      </trkpt>
      <trkpt lat="39.548826" lon="-0.561197">
        <ele>78</ele>
        <time>2018-11-04T10:15:32.000Z</time>
      </trkpt>
      <trkpt lat="39.548842" lon="-0.561224">
        <ele>78</ele>
        <time>2018-11-04T10:15:33.000Z</time>
      </trkpt>
      <trkpt lat="39.548862" lon="-0.561225">
        <ele>78</ele>
        <time>2018-11-04T10:15:34.000Z</time>
      </trkpt>
      <trkpt lat="39.548874" lon="-0.561205">
        <ele>78</ele>
        <time>2018-11-04T10:15:35.000Z</time>
      </trkpt>
      <trkpt lat="39.548877" lon="-0.561177">
        <ele>78</ele>
        <time>2018-11-04T10:15:36.000Z</time>
      </trkpt>
      <trkpt lat="39.54888" lon="-0.561146">
        <ele>78</ele>
        <time>2018-11-04T10:15:37.000Z</time>
      </trkpt>
      <trkpt lat="39.548881" lon="-0.561114">
        <ele>78</ele>
        <time>2018-11-04T10:15:38.000Z</time>
      </trkpt>
      <trkpt lat="39.548881" lon="-0.56108">
        <ele>78</ele>
        <time>2018-11-04T10:15:39.000Z</time>
      </trkpt>
      <trkpt lat="39.548885" lon="-0.561051">
        <ele>77.1549333862157</ele>
        <time>2018-11-04T10:15:40.000Z</time>
      </trkpt>
      <trkpt lat="39.548892" lon="-0.561019">
        <ele>77</ele>
        <time>2018-11-04T10:15:42.000Z</time>
      </trkpt>
      <trkpt lat="39.548899" lon="-0.560997">
        <ele>78</ele>
        <time>2018-11-04T10:16:40.000Z</time>
      </trkpt>
      <trkpt lat="39.548907" lon="-0.560964">
        <ele>78</ele>
        <time>2018-11-04T10:16:42.000Z</time>
      </trkpt>
      <trkpt lat="39.548911" lon="-0.560941">
        <ele>78</ele>
        <time>2018-11-04T10:16:43.000Z</time>
      </trkpt>
      <trkpt lat="39.548916" lon="-0.560912">
        <ele>78</ele>
        <time>2018-11-04T10:16:44.000Z</time>
      </trkpt>
      <trkpt lat="39.548921" lon="-0.560877">
        <ele>78</ele>
        <time>2018-11-04T10:16:45.000Z</time>
      </trkpt>
      <trkpt lat="39.548925" lon="-0.560838">
        <ele>78</ele>
        <time>2018-11-04T10:16:46.000Z</time>
      </trkpt>
      <trkpt lat="39.548928" lon="-0.560796">
        <ele>78</ele>
        <time>2018-11-04T10:16:47.000Z</time>
      </trkpt>
      <trkpt lat="39.548931" lon="-0.560753">
        <ele>78</ele>
        <time>2018-11-04T10:16:48.000Z</time>
      </trkpt>
      <trkpt lat="39.548938" lon="-0.560711">
        <ele>78</ele>
        <time>2018-11-04T10:16:49.000Z</time>
      </trkpt>
      <trkpt lat="39.548946" lon="-0.560668">
        <ele>78</ele>
        <time>2018-11-04T10:16:50.000Z</time>
      </trkpt>
      <trkpt lat="39.54896" lon="-0.560626">
        <ele>78</ele>
        <time>2018-11-04T10:16:51.000Z</time>
      </trkpt>
      <trkpt lat="39.548977" lon="-0.560586">
        <ele>78</ele>
        <time>2018-11-04T10:16:52.000Z</time>
      </trkpt>
      <trkpt lat="39.548999" lon="-0.560544">
        <ele>78</ele>
        <time>2018-11-04T10:16:53.000Z</time>
      </trkpt>
      <trkpt lat="39.549022" lon="-0.560497">
        <ele>78</ele>
        <time>2018-11-04T10:16:54.000Z</time>
      </trkpt>
      <trkpt lat="39.549046" lon="-0.560447">
        <ele>77.3100782885663</ele>
        <time>2018-11-04T10:16:55.000Z</time>
      </trkpt>
      <trkpt lat="39.549071" lon="-0.560393">
        <ele>77</ele>
        <time>2018-11-04T10:16:56.000Z</time>
      </trkpt>
      <trkpt lat="39.549101" lon="-0.560336">
        <ele>77</ele>
        <time>2018-11-04T10:16:57.000Z</time>
      </trkpt>
      <trkpt lat="39.549142" lon="-0.5603">
        <ele>77</ele>
        <time>2018-11-04T10:16:58.000Z</time>
      </trkpt>
      <trkpt lat="39.549189" lon="-0.560269">
        <ele>77</ele>
        <time>2018-11-04T10:16:59.000Z</time>
      </trkpt>
      <trkpt lat="39.549231" lon="-0.560225">
        <ele>77</ele>
        <time>2018-11-04T10:17:00.000Z</time>
      </trkpt>
      <trkpt lat="39.549266" lon="-0.560179">
        <ele>77.8899968</ele>
        <time>2018-11-04T10:17:01.000Z</time>
      </trkpt>
      <trkpt lat="39.549301" lon="-0.560135">
        <ele>78</ele>
        <time>2018-11-04T10:17:02.000Z</time>
      </trkpt>
      <trkpt lat="39.549337" lon="-0.56009">
        <ele>78</ele>
        <time>2018-11-04T10:17:03.000Z</time>
      </trkpt>
      <trkpt lat="39.549377" lon="-0.560042">
        <ele>78</ele>
        <time>2018-11-04T10:17:04.000Z</time>
      </trkpt>
      <trkpt lat="39.549415" lon="-0.559988">
        <ele>78</ele>
        <time>2018-11-04T10:17:05.000Z</time>
      </trkpt>
      <trkpt lat="39.549455" lon="-0.559931">
        <ele>77.1100032</ele>
        <time>2018-11-04T10:17:06.000Z</time>
      </trkpt>
      <trkpt lat="39.549494" lon="-0.559867">
        <ele>77</ele>
        <time>2018-11-04T10:17:07.000Z</time>
      </trkpt>
      <trkpt lat="39.549531" lon="-0.5598">
        <ele>77</ele>
        <time>2018-11-04T10:17:08.000Z</time>
      </trkpt>
      <trkpt lat="39.549569" lon="-0.559732">
        <ele>77</ele>
        <time>2018-11-04T10:17:09.000Z</time>
      </trkpt>
      <trkpt lat="39.5496" lon="-0.559665">
        <ele>77</ele>
        <time>2018-11-04T10:17:10.000Z</time>
      </trkpt>
      <trkpt lat="39.549632" lon="-0.559597">
        <ele>77.8450666137843</ele>
        <time>2018-11-04T10:17:11.000Z</time>
      </trkpt>
      <trkpt lat="39.549656" lon="-0.55953">
        <ele>77.1100032</ele>
        <time>2018-11-04T10:17:12.000Z</time>
      </trkpt>
      <trkpt lat="39.549678" lon="-0.559468">
        <ele>77</ele>
        <time>2018-11-04T10:17:13.000Z</time>
      </trkpt>
      <trkpt lat="39.549701" lon="-0.559408">
        <ele>77</ele>
        <time>2018-11-04T10:17:14.000Z</time>
      </trkpt>
      <trkpt lat="39.549726" lon="-0.55935">
        <ele>77</ele>
        <time>2018-11-04T10:17:15.000Z</time>
      </trkpt>
      <trkpt lat="39.54975" lon="-0.559292">
        <ele>77</ele>
        <time>2018-11-04T10:17:16.000Z</time>
      </trkpt>
      <trkpt lat="39.549769" lon="-0.559232">
        <ele>77</ele>
        <time>2018-11-04T10:17:17.000Z</time>
      </trkpt>
      <trkpt lat="39.549784" lon="-0.55917">
        <ele>77</ele>
        <time>2018-11-04T10:17:18.000Z</time>
      </trkpt>
      <trkpt lat="39.549798" lon="-0.559105">
        <ele>77</ele>
        <time>2018-11-04T10:17:19.000Z</time>
      </trkpt>
      <trkpt lat="39.549814" lon="-0.559043">
        <ele>77</ele>
        <time>2018-11-04T10:17:20.000Z</time>
      </trkpt>
      <trkpt lat="39.549829" lon="-0.55898">
        <ele>77</ele>
        <time>2018-11-04T10:17:21.000Z</time>
      </trkpt>
      <trkpt lat="39.549845" lon="-0.558919">
        <ele>77</ele>
        <time>2018-11-04T10:17:22.000Z</time>
      </trkpt>
      <trkpt lat="39.549868" lon="-0.558864">
        <ele>77</ele>
        <time>2018-11-04T10:17:23.000Z</time>
      </trkpt>
      <trkpt lat="39.549893" lon="-0.558811">
        <ele>77.8899968</ele>
        <time>2018-11-04T10:17:24.000Z</time>
      </trkpt>
      <trkpt lat="39.549915" lon="-0.558759">
        <ele>78</ele>
        <time>2018-11-04T10:17:25.000Z</time>
      </trkpt>
      <trkpt lat="39.549939" lon="-0.55871">
        <ele>78</ele>
        <time>2018-11-04T10:17:26.000Z</time>
      </trkpt>
      <trkpt lat="39.549965" lon="-0.55866">
        <ele>78</ele>
        <time>2018-11-04T10:17:27.000Z</time>
      </trkpt>
      <trkpt lat="39.549987" lon="-0.558609">
        <ele>78</ele>
        <time>2018-11-04T10:17:28.000Z</time>
      </trkpt>
      <trkpt lat="39.550005" lon="-0.55855">
        <ele>78</ele>
        <time>2018-11-04T10:17:29.000Z</time>
      </trkpt>
      <trkpt lat="39.550019" lon="-0.558488">
        <ele>78</ele>
        <time>2018-11-04T10:17:30.000Z</time>
      </trkpt>
      <trkpt lat="39.550042" lon="-0.558431">
        <ele>77.3100782885663</ele>
        <time>2018-11-04T10:17:31.000Z</time>
      </trkpt>
      <trkpt lat="39.550069" lon="-0.558376">
        <ele>77</ele>
        <time>2018-11-04T10:17:32.000Z</time>
      </trkpt>
      <trkpt lat="39.550097" lon="-0.558321">
        <ele>77</ele>
        <time>2018-11-04T10:17:33.000Z</time>
      </trkpt>
      <trkpt lat="39.550126" lon="-0.558266">
        <ele>77.8450666137843</ele>
        <time>2018-11-04T10:17:34.000Z</time>
      </trkpt>
      <trkpt lat="39.550158" lon="-0.558212">
        <ele>78</ele>
        <time>2018-11-04T10:17:35.000Z</time>
      </trkpt>
      <trkpt lat="39.550186" lon="-0.558154">
        <ele>78</ele>
        <time>2018-11-04T10:17:36.000Z</time>
      </trkpt>
      <trkpt lat="39.550207" lon="-0.558093">
        <ele>78</ele>
        <time>2018-11-04T10:17:37.000Z</time>
      </trkpt>
      <trkpt lat="39.550223" lon="-0.558029">
        <ele>78.8899968</ele>
        <time>2018-11-04T10:17:38.000Z</time>
      </trkpt>
      <trkpt lat="39.550238" lon="-0.557964">
        <ele>79</ele>
        <time>2018-11-04T10:17:39.000Z</time>
      </trkpt>
      <trkpt lat="39.550253" lon="-0.5579">
        <ele>79</ele>
        <time>2018-11-04T10:17:40.000Z</time>
      </trkpt>
      <trkpt lat="39.55027" lon="-0.557835">
        <ele>79</ele>
        <time>2018-11-04T10:17:41.000Z</time>
      </trkpt>
      <trkpt lat="39.550286" lon="-0.557769">
        <ele>79.8899968</ele>
        <time>2018-11-04T10:17:42.000Z</time>
      </trkpt>
      <trkpt lat="39.550301" lon="-0.557702">
        <ele>79.1100032</ele>
        <time>2018-11-04T10:17:43.000Z</time>
      </trkpt>
      <trkpt lat="39.550313" lon="-0.557633">
        <ele>79</ele>
        <time>2018-11-04T10:17:44.000Z</time>
      </trkpt>
      <trkpt lat="39.550323" lon="-0.557561">
        <ele>79</ele>
        <time>2018-11-04T10:17:45.000Z</time>
      </trkpt>
      <trkpt lat="39.550332" lon="-0.557487">
        <ele>79</ele>
        <time>2018-11-04T10:17:46.000Z</time>
      </trkpt>
      <trkpt lat="39.550342" lon="-0.557416">
        <ele>79</ele>
        <time>2018-11-04T10:17:47.000Z</time>
      </trkpt>
      <trkpt lat="39.550353" lon="-0.557344">
        <ele>79</ele>
        <time>2018-11-04T10:17:48.000Z</time>
      </trkpt>
      <trkpt lat="39.550361" lon="-0.557272">
        <ele>79</ele>
        <time>2018-11-04T10:17:49.000Z</time>
      </trkpt>
      <trkpt lat="39.550369" lon="-0.5572">
        <ele>79</ele>
        <time>2018-11-04T10:17:50.000Z</time>
      </trkpt>
      <trkpt lat="39.55038" lon="-0.55713">
        <ele>79</ele>
        <time>2018-11-04T10:17:51.000Z</time>
      </trkpt>
      <trkpt lat="39.550392" lon="-0.557062">
        <ele>78.3100782885663</ele>
        <time>2018-11-04T10:17:52.000Z</time>
      </trkpt>
      <trkpt lat="39.5504" lon="-0.556992">
        <ele>78</ele>
        <time>2018-11-04T10:17:53.000Z</time>
      </trkpt>
      <trkpt lat="39.550409" lon="-0.556922">
        <ele>78</ele>
        <time>2018-11-04T10:17:54.000Z</time>
      </trkpt>
      <trkpt lat="39.550417" lon="-0.55685">
        <ele>78</ele>
        <time>2018-11-04T10:17:55.000Z</time>
      </trkpt>
      <trkpt lat="39.550428" lon="-0.556781">
        <ele>78</ele>
        <time>2018-11-04T10:17:56.000Z</time>
      </trkpt>
      <trkpt lat="39.550435" lon="-0.556709">
        <ele>78</ele>
        <time>2018-11-04T10:17:57.000Z</time>
      </trkpt>
      <trkpt lat="39.550435" lon="-0.556635">
        <ele>77.3206081510216</ele>
        <time>2018-11-04T10:17:58.000Z</time>
      </trkpt>
      <trkpt lat="39.550435" lon="-0.556561">
        <ele>77</ele>
        <time>2018-11-04T10:17:59.000Z</time>
      </trkpt>
      <trkpt lat="39.550437" lon="-0.556486">
        <ele>77</ele>
        <time>2018-11-04T10:18:00.000Z</time>
      </trkpt>
      <trkpt lat="39.550439" lon="-0.556409">
        <ele>77</ele>
        <time>2018-11-04T10:18:01.000Z</time>
      </trkpt>
      <trkpt lat="39.55044" lon="-0.556331">
        <ele>76.1100032</ele>
        <time>2018-11-04T10:18:02.000Z</time>
      </trkpt>
      <trkpt lat="39.550437" lon="-0.556257">
        <ele>76</ele>
        <time>2018-11-04T10:18:03.000Z</time>
      </trkpt>
      <trkpt lat="39.550433" lon="-0.556184">
        <ele>76</ele>
        <time>2018-11-04T10:18:04.000Z</time>
      </trkpt>
      <trkpt lat="39.550431" lon="-0.556114">
        <ele>76</ele>
        <time>2018-11-04T10:18:05.000Z</time>
      </trkpt>
      <trkpt lat="39.550428" lon="-0.556047">
        <ele>76.8899968</ele>
        <time>2018-11-04T10:18:06.000Z</time>
      </trkpt>
      <trkpt lat="39.550429" lon="-0.555982">
        <ele>77</ele>
        <time>2018-11-04T10:18:07.000Z</time>
      </trkpt>
      <trkpt lat="39.550432" lon="-0.555916">
        <ele>77</ele>
        <time>2018-11-04T10:18:08.000Z</time>
      </trkpt>
      <trkpt lat="39.550433" lon="-0.555848">
        <ele>77</ele>
        <time>2018-11-04T10:18:09.000Z</time>
      </trkpt>
      <trkpt lat="39.550432" lon="-0.555777">
        <ele>77</ele>
        <time>2018-11-04T10:18:10.000Z</time>
      </trkpt>
      <trkpt lat="39.550432" lon="-0.555705">
        <ele>77</ele>
        <time>2018-11-04T10:18:11.000Z</time>
      </trkpt>
      <trkpt lat="39.550436" lon="-0.555634">
        <ele>76.1571459918081</ele>
        <time>2018-11-04T10:18:12.000Z</time>
      </trkpt>
      <trkpt lat="39.550449" lon="-0.555561">
        <ele>76</ele>
        <time>2018-11-04T10:18:13.000Z</time>
      </trkpt>
      <trkpt lat="39.550467" lon="-0.55549">
        <ele>76</ele>
        <time>2018-11-04T10:18:14.000Z</time>
      </trkpt>
      <trkpt lat="39.550484" lon="-0.555417">
        <ele>76</ele>
        <time>2018-11-04T10:18:15.000Z</time>
      </trkpt>
      <trkpt lat="39.550494" lon="-0.555342">
        <ele>76</ele>
        <time>2018-11-04T10:18:16.000Z</time>
      </trkpt>
      <trkpt lat="39.5505" lon="-0.555269">
        <ele>76</ele>
        <time>2018-11-04T10:18:17.000Z</time>
      </trkpt>
      <trkpt lat="39.550503" lon="-0.555197">
        <ele>76</ele>
        <time>2018-11-04T10:18:18.000Z</time>
      </trkpt>
      <trkpt lat="39.550507" lon="-0.555126">
        <ele>76</ele>
        <time>2018-11-04T10:18:19.000Z</time>
      </trkpt>
      <trkpt lat="39.550509" lon="-0.555056">
        <ele>76</ele>
        <time>2018-11-04T10:18:20.000Z</time>
      </trkpt>
      <trkpt lat="39.550504" lon="-0.554985">
        <ele>76.8899968</ele>
        <time>2018-11-04T10:18:21.000Z</time>
      </trkpt>
      <trkpt lat="39.550497" lon="-0.554915">
        <ele>77</ele>
        <time>2018-11-04T10:18:22.000Z</time>
      </trkpt>
      <trkpt lat="39.550487" lon="-0.554847">
        <ele>77.8899968</ele>
        <time>2018-11-04T10:18:23.000Z</time>
      </trkpt>
      <trkpt lat="39.550478" lon="-0.554782">
        <ele>78.8899968</ele>
        <time>2018-11-04T10:18:24.000Z</time>
      </trkpt>
      <trkpt lat="39.550466" lon="-0.554718">
        <ele>79</ele>
        <time>2018-11-04T10:18:25.000Z</time>
      </trkpt>
      <trkpt lat="39.550454" lon="-0.554651">
        <ele>79</ele>
        <time>2018-11-04T10:18:26.000Z</time>
      </trkpt>
      <trkpt lat="39.550439" lon="-0.554584">
        <ele>79.8428540081919</ele>
        <time>2018-11-04T10:18:27.000Z</time>
      </trkpt>
      <trkpt lat="39.550418" lon="-0.554516">
        <ele>80</ele>
        <time>2018-11-04T10:18:28.000Z</time>
      </trkpt>
      <trkpt lat="39.550398" lon="-0.55445">
        <ele>80</ele>
        <time>2018-11-04T10:18:29.000Z</time>
      </trkpt>
      <trkpt lat="39.550379" lon="-0.554388">
        <ele>80</ele>
        <time>2018-11-04T10:18:30.000Z</time>
      </trkpt>
      <trkpt lat="39.550359" lon="-0.554324">
        <ele>80</ele>
        <time>2018-11-04T10:18:31.000Z</time>
      </trkpt>
      <trkpt lat="39.550339" lon="-0.554263">
        <ele>80.8899968</ele>
        <time>2018-11-04T10:18:32.000Z</time>
      </trkpt>
      <trkpt lat="39.550318" lon="-0.554203">
        <ele>81</ele>
        <time>2018-11-04T10:18:33.000Z</time>
      </trkpt>
      <trkpt lat="39.550292" lon="-0.554147">
        <ele>81.8899968</ele>
        <time>2018-11-04T10:18:34.000Z</time>
      </trkpt>
      <trkpt lat="39.550265" lon="-0.554092">
        <ele>82</ele>
        <time>2018-11-04T10:18:35.000Z</time>
      </trkpt>
      <trkpt lat="39.550235" lon="-0.554038">
        <ele>82</ele>
        <time>2018-11-04T10:18:36.000Z</time>
      </trkpt>
      <trkpt lat="39.550204" lon="-0.553987">
        <ele>82.881187742377</ele>
        <time>2018-11-04T10:18:37.000Z</time>
      </trkpt>
      <trkpt lat="39.550176" lon="-0.553932">
        <ele>83</ele>
        <time>2018-11-04T10:18:38.000Z</time>
      </trkpt>
      <trkpt lat="39.55015" lon="-0.553873">
        <ele>83</ele>
        <time>2018-11-04T10:18:39.000Z</time>
      </trkpt>
      <trkpt lat="39.550124" lon="-0.553812">
        <ele>82.1100032</ele>
        <time>2018-11-04T10:18:40.000Z</time>
      </trkpt>
      <trkpt lat="39.550099" lon="-0.553749">
        <ele>82.8899968</ele>
        <time>2018-11-04T10:18:41.000Z</time>
      </trkpt>
      <trkpt lat="39.550078" lon="-0.553686">
        <ele>83</ele>
        <time>2018-11-04T10:18:42.000Z</time>
      </trkpt>
      <trkpt lat="39.550056" lon="-0.553624">
        <ele>83</ele>
        <time>2018-11-04T10:18:43.000Z</time>
      </trkpt>
      <trkpt lat="39.550033" lon="-0.553561">
        <ele>83</ele>
        <time>2018-11-04T10:18:44.000Z</time>
      </trkpt>
      <trkpt lat="39.550012" lon="-0.553501">
        <ele>83</ele>
        <time>2018-11-04T10:18:45.000Z</time>
      </trkpt>
      <trkpt lat="39.549995" lon="-0.553442">
        <ele>83</ele>
        <time>2018-11-04T10:18:46.000Z</time>
      </trkpt>
      <trkpt lat="39.549981" lon="-0.553382">
        <ele>83</ele>
        <time>2018-11-04T10:18:47.000Z</time>
      </trkpt>
      <trkpt lat="39.549971" lon="-0.553318">
        <ele>83.8899968</ele>
        <time>2018-11-04T10:18:48.000Z</time>
      </trkpt>
      <trkpt lat="39.549962" lon="-0.553251">
        <ele>84</ele>
        <time>2018-11-04T10:18:49.000Z</time>
      </trkpt>
      <trkpt lat="39.549952" lon="-0.553184">
        <ele>84</ele>
        <time>2018-11-04T10:18:50.000Z</time>
      </trkpt>
      <trkpt lat="39.549943" lon="-0.553113">
        <ele>84</ele>
        <time>2018-11-04T10:18:51.000Z</time>
      </trkpt>
      <trkpt lat="39.549933" lon="-0.55304">
        <ele>83.1122474302209</ele>
        <time>2018-11-04T10:18:52.000Z</time>
      </trkpt>
      <trkpt lat="39.549919" lon="-0.552965">
        <ele>83</ele>
        <time>2018-11-04T10:18:53.000Z</time>
      </trkpt>
      <trkpt lat="39.549902" lon="-0.552892">
        <ele>83</ele>
        <time>2018-11-04T10:18:54.000Z</time>
      </trkpt>
      <trkpt lat="39.549881" lon="-0.552817">
        <ele>83</ele>
        <time>2018-11-04T10:18:55.000Z</time>
      </trkpt>
      <trkpt lat="39.549854" lon="-0.552747">
        <ele>83</ele>
        <time>2018-11-04T10:18:56.000Z</time>
      </trkpt>
      <trkpt lat="39.549821" lon="-0.552682">
        <ele>83</ele>
        <time>2018-11-04T10:18:57.000Z</time>
      </trkpt>
      <trkpt lat="39.54978" lon="-0.552627">
        <ele>83</ele>
        <time>2018-11-04T10:18:58.000Z</time>
      </trkpt>
      <trkpt lat="39.549736" lon="-0.55258">
        <ele>83</ele>
        <time>2018-11-04T10:18:59.000Z</time>
      </trkpt>
      <trkpt lat="39.549692" lon="-0.552536">
        <ele>83</ele>
        <time>2018-11-04T10:19:00.000Z</time>
      </trkpt>
      <trkpt lat="39.549656" lon="-0.552484">
        <ele>83</ele>
        <time>2018-11-04T10:19:01.000Z</time>
      </trkpt>
      <trkpt lat="39.549626" lon="-0.552426">
        <ele>83</ele>
        <time>2018-11-04T10:19:02.000Z</time>
      </trkpt>
      <trkpt lat="39.549604" lon="-0.552364">
        <ele>83</ele>
        <time>2018-11-04T10:19:03.000Z</time>
      </trkpt>
      <trkpt lat="39.549586" lon="-0.5523">
        <ele>83</ele>
        <time>2018-11-04T10:19:04.000Z</time>
      </trkpt>
      <trkpt lat="39.54957" lon="-0.552234">
        <ele>83</ele>
        <time>2018-11-04T10:19:05.000Z</time>
      </trkpt>
      <trkpt lat="39.549556" lon="-0.552168">
        <ele>83</ele>
        <time>2018-11-04T10:19:06.000Z</time>
      </trkpt>
      <trkpt lat="39.549544" lon="-0.552101">
        <ele>83</ele>
        <time>2018-11-04T10:19:07.000Z</time>
      </trkpt>
      <trkpt lat="39.549533" lon="-0.552033">
        <ele>83</ele>
        <time>2018-11-04T10:19:08.000Z</time>
      </trkpt>
      <trkpt lat="39.549528" lon="-0.551964">
        <ele>83</ele>
        <time>2018-11-04T10:19:09.000Z</time>
      </trkpt>
      <trkpt lat="39.549522" lon="-0.551893">
        <ele>83</ele>
        <time>2018-11-04T10:19:10.000Z</time>
      </trkpt>
      <trkpt lat="39.549518" lon="-0.551823">
        <ele>83</ele>
        <time>2018-11-04T10:19:11.000Z</time>
      </trkpt>
      <trkpt lat="39.549519" lon="-0.551753">
        <ele>83</ele>
        <time>2018-11-04T10:19:12.000Z</time>
      </trkpt>
      <trkpt lat="39.54952" lon="-0.551684">
        <ele>83</ele>
        <time>2018-11-04T10:19:13.000Z</time>
      </trkpt>
      <trkpt lat="39.549519" lon="-0.551617">
        <ele>83.8899968</ele>
        <time>2018-11-04T10:19:14.000Z</time>
      </trkpt>
      <trkpt lat="39.549516" lon="-0.551555">
        <ele>84</ele>
        <time>2018-11-04T10:19:15.000Z</time>
      </trkpt>
      <trkpt lat="39.54951" lon="-0.551501">
        <ele>84</ele>
        <time>2018-11-04T10:19:16.000Z</time>
      </trkpt>
      <trkpt lat="39.549499" lon="-0.551453">
        <ele>84</ele>
        <time>2018-11-04T10:19:17.000Z</time>
      </trkpt>
      <trkpt lat="39.549491" lon="-0.551409">
        <ele>84</ele>
        <time>2018-11-04T10:19:18.000Z</time>
      </trkpt>
      <trkpt lat="39.549482" lon="-0.551364">
        <ele>84.8899968</ele>
        <time>2018-11-04T10:19:19.000Z</time>
      </trkpt>
      <trkpt lat="39.54947" lon="-0.551321">
        <ele>85</ele>
        <time>2018-11-04T10:19:20.000Z</time>
      </trkpt>
      <trkpt lat="39.549454" lon="-0.551277">
        <ele>85</ele>
        <time>2018-11-04T10:19:21.000Z</time>
      </trkpt>
      <trkpt lat="39.549432" lon="-0.551235">
        <ele>85</ele>
        <time>2018-11-04T10:19:22.000Z</time>
      </trkpt>
      <trkpt lat="39.549409" lon="-0.551196">
        <ele>85</ele>
        <time>2018-11-04T10:19:23.000Z</time>
      </trkpt>
      <trkpt lat="39.549384" lon="-0.551153">
        <ele>85</ele>
        <time>2018-11-04T10:19:24.000Z</time>
      </trkpt>
      <trkpt lat="39.54936" lon="-0.551107">
        <ele>85</ele>
        <time>2018-11-04T10:19:25.000Z</time>
      </trkpt>
      <trkpt lat="39.549338" lon="-0.551057">
        <ele>85</ele>
        <time>2018-11-04T10:19:26.000Z</time>
      </trkpt>
      <trkpt lat="39.549324" lon="-0.551">
        <ele>85</ele>
        <time>2018-11-04T10:19:27.000Z</time>
      </trkpt>
      <trkpt lat="39.549318" lon="-0.55094">
        <ele>85</ele>
        <time>2018-11-04T10:19:28.000Z</time>
      </trkpt>
      <trkpt lat="39.549325" lon="-0.550883">
        <ele>84.1100032</ele>
        <time>2018-11-04T10:19:29.000Z</time>
      </trkpt>
      <trkpt lat="39.549342" lon="-0.550836">
        <ele>84</ele>
        <time>2018-11-04T10:19:30.000Z</time>
      </trkpt>
      <trkpt lat="39.549367" lon="-0.550786">
        <ele>84</ele>
        <time>2018-11-04T10:19:31.000Z</time>
      </trkpt>
      <trkpt lat="39.549382" lon="-0.550729">
        <ele>84</ele>
        <time>2018-11-04T10:19:32.000Z</time>
      </trkpt>
      <trkpt lat="39.54939" lon="-0.550669">
        <ele>84</ele>
        <time>2018-11-04T10:19:33.000Z</time>
      </trkpt>
      <trkpt lat="39.549388" lon="-0.550612">
        <ele>84</ele>
        <time>2018-11-04T10:19:34.000Z</time>
      </trkpt>
      <trkpt lat="39.549374" lon="-0.550558">
        <ele>83.32576</ele>
        <time>2018-11-04T10:19:35.000Z</time>
      </trkpt>
      <trkpt lat="39.549347" lon="-0.55051">
        <ele>83</ele>
        <time>2018-11-04T10:19:36.000Z</time>
      </trkpt>
      <trkpt lat="39.549212" lon="-0.550339">
        <ele>83</ele>
        <time>2018-11-04T10:19:40.000Z</time>
      </trkpt>
      <trkpt lat="39.54917" lon="-0.550295">
        <ele>83</ele>
        <time>2018-11-04T10:19:41.000Z</time>
      </trkpt>
      <trkpt lat="39.549128" lon="-0.55026">
        <ele>83</ele>
        <time>2018-11-04T10:19:42.000Z</time>
      </trkpt>
      <trkpt lat="39.549078" lon="-0.550224">
        <ele>82.1100032</ele>
        <time>2018-11-04T10:19:43.000Z</time>
      </trkpt>
      <trkpt lat="39.549028" lon="-0.550192">
        <ele>82</ele>
        <time>2018-11-04T10:19:44.000Z</time>
      </trkpt>
      <trkpt lat="39.548983" lon="-0.550162">
        <ele>81.1170238840927</ele>
        <time>2018-11-04T10:19:45.000Z</time>
      </trkpt>
      <trkpt lat="39.548944" lon="-0.550136">
        <ele>81</ele>
        <time>2018-11-04T10:19:46.000Z</time>
      </trkpt>
      <trkpt lat="39.548906" lon="-0.550114">
        <ele>81</ele>
        <time>2018-11-04T10:19:47.000Z</time>
      </trkpt>
      <trkpt lat="39.548864" lon="-0.550091">
        <ele>81</ele>
        <time>2018-11-04T10:19:48.000Z</time>
      </trkpt>
      <trkpt lat="39.548818" lon="-0.550064">
        <ele>80.3153837065044</ele>
        <time>2018-11-04T10:19:49.000Z</time>
      </trkpt>
      <trkpt lat="39.548768" lon="-0.55004">
        <ele>80</ele>
        <time>2018-11-04T10:19:50.000Z</time>
      </trkpt>
      <trkpt lat="39.54872" lon="-0.550031">
        <ele>80</ele>
        <time>2018-11-04T10:19:51.000Z</time>
      </trkpt>
      <trkpt lat="39.548672" lon="-0.550024">
        <ele>79.1100032</ele>
        <time>2018-11-04T10:19:52.000Z</time>
      </trkpt>
      <trkpt lat="39.548632" lon="-0.550011">
        <ele>79</ele>
        <time>2018-11-04T10:19:53.000Z</time>
      </trkpt>
      <trkpt lat="39.5486" lon="-0.549986">
        <ele>79</ele>
        <time>2018-11-04T10:19:54.000Z</time>
      </trkpt>
      <trkpt lat="39.548578" lon="-0.54996">
        <ele>78.1100032</ele>
        <time>2018-11-04T10:19:55.000Z</time>
      </trkpt>
      <trkpt lat="39.548559" lon="-0.549932">
        <ele>78</ele>
        <time>2018-11-04T10:19:56.000Z</time>
      </trkpt>
      <trkpt lat="39.548542" lon="-0.549906">
        <ele>78.8899968</ele>
        <time>2018-11-04T10:19:57.000Z</time>
      </trkpt>
      <trkpt lat="39.548524" lon="-0.549882">
        <ele>79</ele>
        <time>2018-11-04T10:19:58.000Z</time>
      </trkpt>
      <trkpt lat="39.548508" lon="-0.549862">
        <ele>78.2345727785591</ele>
        <time>2018-11-04T10:19:59.000Z</time>
      </trkpt>
      <trkpt lat="39.54849" lon="-0.549839">
        <ele>78</ele>
        <time>2018-11-04T10:20:00.000Z</time>
      </trkpt>
      <trkpt lat="39.548473" lon="-0.549813">
        <ele>78</ele>
        <time>2018-11-04T10:20:01.000Z</time>
      </trkpt>
      <trkpt lat="39.548454" lon="-0.549784">
        <ele>78</ele>
        <time>2018-11-04T10:20:02.000Z</time>
      </trkpt>
      <trkpt lat="39.54843" lon="-0.549749">
        <ele>77.1100032</ele>
        <time>2018-11-04T10:20:03.000Z</time>
      </trkpt>
      <trkpt lat="39.548405" lon="-0.549706">
        <ele>77</ele>
        <time>2018-11-04T10:20:04.000Z</time>
      </trkpt>
      <trkpt lat="39.548375" lon="-0.549655">
        <ele>76.1549333862157</ele>
        <time>2018-11-04T10:20:05.000Z</time>
      </trkpt>
      <trkpt lat="39.548337" lon="-0.549601">
        <ele>76</ele>
        <time>2018-11-04T10:20:06.000Z</time>
      </trkpt>
      <trkpt lat="39.548291" lon="-0.549542">
        <ele>76</ele>
        <time>2018-11-04T10:20:07.000Z</time>
      </trkpt>
      <trkpt lat="39.548244" lon="-0.549478">
        <ele>76</ele>
        <time>2018-11-04T10:20:08.000Z</time>
      </trkpt>
      <trkpt lat="39.548203" lon="-0.549405">
        <ele>76</ele>
        <time>2018-11-04T10:20:09.000Z</time>
      </trkpt>
      <trkpt lat="39.548166" lon="-0.549331">
        <ele>76.8899968</ele>
        <time>2018-11-04T10:20:10.000Z</time>
      </trkpt>
      <trkpt lat="39.548126" lon="-0.549263">
        <ele>77</ele>
        <time>2018-11-04T10:20:11.000Z</time>
      </trkpt>
      <trkpt lat="39.548081" lon="-0.549205">
        <ele>77</ele>
        <time>2018-11-04T10:20:12.000Z</time>
      </trkpt>
      <trkpt lat="39.548036" lon="-0.549154">
        <ele>77</ele>
        <time>2018-11-04T10:20:13.000Z</time>
      </trkpt>
      <trkpt lat="39.547992" lon="-0.549109">
        <ele>77</ele>
        <time>2018-11-04T10:20:14.000Z</time>
      </trkpt>
      <trkpt lat="39.547951" lon="-0.549063">
        <ele>77</ele>
        <time>2018-11-04T10:20:15.000Z</time>
      </trkpt>
      <trkpt lat="39.547915" lon="-0.549012">
        <ele>77</ele>
        <time>2018-11-04T10:20:16.000Z</time>
      </trkpt>
      <trkpt lat="39.547885" lon="-0.548954">
        <ele>77.7007901792013</ele>
        <time>2018-11-04T10:20:17.000Z</time>
      </trkpt>
      <trkpt lat="39.547859" lon="-0.548895">
        <ele>78</ele>
        <time>2018-11-04T10:20:18.000Z</time>
      </trkpt>
      <trkpt lat="39.547836" lon="-0.548835">
        <ele>78</ele>
        <time>2018-11-04T10:20:19.000Z</time>
      </trkpt>
      <trkpt lat="39.547819" lon="-0.548773">
        <ele>78</ele>
        <time>2018-11-04T10:20:20.000Z</time>
      </trkpt>
      <trkpt lat="39.547808" lon="-0.548707">
        <ele>78</ele>
        <time>2018-11-04T10:20:21.000Z</time>
      </trkpt>
      <trkpt lat="39.547802" lon="-0.54864">
        <ele>78.8428540081919</ele>
        <time>2018-11-04T10:20:22.000Z</time>
      </trkpt>
      <trkpt lat="39.547802" lon="-0.548578">
        <ele>78.1100032</ele>
        <time>2018-11-04T10:20:23.000Z</time>
      </trkpt>
      <trkpt lat="39.547805" lon="-0.548517">
        <ele>78</ele>
        <time>2018-11-04T10:20:24.000Z</time>
      </trkpt>
      <trkpt lat="39.547809" lon="-0.548456">
        <ele>78</ele>
        <time>2018-11-04T10:20:25.000Z</time>
      </trkpt>
      <trkpt lat="39.547819" lon="-0.548403">
        <ele>78</ele>
        <time>2018-11-04T10:20:26.000Z</time>
      </trkpt>
      <trkpt lat="39.547826" lon="-0.54836">
        <ele>78</ele>
        <time>2018-11-04T10:20:27.000Z</time>
      </trkpt>
      <trkpt lat="39.54783" lon="-0.548327">
        <ele>78</ele>
        <time>2018-11-04T10:20:28.000Z</time>
      </trkpt>
      <trkpt lat="39.54783" lon="-0.548292">
        <ele>78</ele>
        <time>2018-11-04T10:20:29.000Z</time>
      </trkpt>
      <trkpt lat="39.547835" lon="-0.548257">
        <ele>78</ele>
        <time>2018-11-04T10:20:30.000Z</time>
      </trkpt>
      <trkpt lat="39.547834" lon="-0.548222">
        <ele>78</ele>
        <time>2018-11-04T10:20:31.000Z</time>
      </trkpt>
      <trkpt lat="39.547821" lon="-0.548187">
        <ele>78</ele>
        <time>2018-11-04T10:20:32.000Z</time>
      </trkpt>
      <trkpt lat="39.547797" lon="-0.548156">
        <ele>77.1100032</ele>
        <time>2018-11-04T10:20:33.000Z</time>
      </trkpt>
      <trkpt lat="39.547768" lon="-0.548131">
        <ele>77</ele>
        <time>2018-11-04T10:20:34.000Z</time>
      </trkpt>
      <trkpt lat="39.547746" lon="-0.548104">
        <ele>77.7007901792013</ele>
        <time>2018-11-04T10:20:35.000Z</time>
      </trkpt>
      <trkpt lat="39.547715" lon="-0.548075">
        <ele>78</ele>
        <time>2018-11-04T10:20:36.000Z</time>
      </trkpt>
      <trkpt lat="39.547686" lon="-0.548044">
        <ele>78</ele>
        <time>2018-11-04T10:20:37.000Z</time>
      </trkpt>
      <trkpt lat="39.547657" lon="-0.548014">
        <ele>78</ele>
        <time>2018-11-04T10:20:38.000Z</time>
      </trkpt>
      <trkpt lat="39.547625" lon="-0.547981">
        <ele>78</ele>
        <time>2018-11-04T10:20:39.000Z</time>
      </trkpt>
      <trkpt lat="39.547592" lon="-0.547946">
        <ele>78</ele>
        <time>2018-11-04T10:20:40.000Z</time>
      </trkpt>
      <trkpt lat="39.54756" lon="-0.547907">
        <ele>78</ele>
        <time>2018-11-04T10:20:41.000Z</time>
      </trkpt>
      <trkpt lat="39.54753" lon="-0.547869">
        <ele>78</ele>
        <time>2018-11-04T10:20:42.000Z</time>
      </trkpt>
      <trkpt lat="39.547493" lon="-0.547833">
        <ele>77.1100032</ele>
        <time>2018-11-04T10:20:43.000Z</time>
      </trkpt>
      <trkpt lat="39.547456" lon="-0.547797">
        <ele>77</ele>
        <time>2018-11-04T10:20:44.000Z</time>
      </trkpt>
      <trkpt lat="39.547424" lon="-0.54776">
        <ele>77</ele>
        <time>2018-11-04T10:20:45.000Z</time>
      </trkpt>
      <trkpt lat="39.547395" lon="-0.547725">
        <ele>77</ele>
        <time>2018-11-04T10:20:46.000Z</time>
      </trkpt>
      <trkpt lat="39.547373" lon="-0.547688">
        <ele>77</ele>
        <time>2018-11-04T10:20:47.000Z</time>
      </trkpt>
      <trkpt lat="39.547353" lon="-0.547649">
        <ele>77</ele>
        <time>2018-11-04T10:20:48.000Z</time>
      </trkpt>
      <trkpt lat="39.54733" lon="-0.547613">
        <ele>77</ele>
        <time>2018-11-04T10:20:49.000Z</time>
      </trkpt>
      <trkpt lat="39.547305" lon="-0.547578">
        <ele>77</ele>
        <time>2018-11-04T10:20:50.000Z</time>
      </trkpt>
      <trkpt lat="39.547276" lon="-0.547544">
        <ele>76.118812257623</ele>
        <time>2018-11-04T10:20:51.000Z</time>
      </trkpt>
      <trkpt lat="39.54725" lon="-0.547506">
        <ele>76</ele>
        <time>2018-11-04T10:20:52.000Z</time>
      </trkpt>
      <trkpt lat="39.547219" lon="-0.547467">
        <ele>76</ele>
        <time>2018-11-04T10:20:53.000Z</time>
      </trkpt>
      <trkpt lat="39.547188" lon="-0.547426">
        <ele>76</ele>
        <time>2018-11-04T10:20:54.000Z</time>
      </trkpt>
      <trkpt lat="39.547155" lon="-0.547386">
        <ele>76</ele>
        <time>2018-11-04T10:20:55.000Z</time>
      </trkpt>
      <trkpt lat="39.547118" lon="-0.547342">
        <ele>76</ele>
        <time>2018-11-04T10:20:56.000Z</time>
      </trkpt>
      <trkpt lat="39.547082" lon="-0.547297">
        <ele>76</ele>
        <time>2018-11-04T10:20:57.000Z</time>
      </trkpt>
      <trkpt lat="39.547045" lon="-0.547252">
        <ele>75.1100032</ele>
        <time>2018-11-04T10:20:58.000Z</time>
      </trkpt>
      <trkpt lat="39.547008" lon="-0.547208">
        <ele>75</ele>
        <time>2018-11-04T10:20:59.000Z</time>
      </trkpt>
      <trkpt lat="39.54697" lon="-0.547165">
        <ele>74.1594256669016</ele>
        <time>2018-11-04T10:21:00.000Z</time>
      </trkpt>
      <trkpt lat="39.546933" lon="-0.54712">
        <ele>73.1100032</ele>
        <time>2018-11-04T10:21:01.000Z</time>
      </trkpt>
      <trkpt lat="39.546896" lon="-0.547078">
        <ele>73</ele>
        <time>2018-11-04T10:21:02.000Z</time>
      </trkpt>
      <trkpt lat="39.546862" lon="-0.547033">
        <ele>73</ele>
        <time>2018-11-04T10:21:03.000Z</time>
      </trkpt>
      <trkpt lat="39.546832" lon="-0.54698">
        <ele>72.1100032</ele>
        <time>2018-11-04T10:21:04.000Z</time>
      </trkpt>
      <trkpt lat="39.546803" lon="-0.546928">
        <ele>72</ele>
        <time>2018-11-04T10:21:05.000Z</time>
      </trkpt>
      <trkpt lat="39.546774" lon="-0.546881">
        <ele>72</ele>
        <time>2018-11-04T10:21:06.000Z</time>
      </trkpt>
      <trkpt lat="39.546739" lon="-0.546838">
        <ele>72</ele>
        <time>2018-11-04T10:21:07.000Z</time>
      </trkpt>
      <trkpt lat="39.546698" lon="-0.546795">
        <ele>72</ele>
        <time>2018-11-04T10:21:08.000Z</time>
      </trkpt>
      <trkpt lat="39.546656" lon="-0.546754">
        <ele>71.3125</ele>
        <time>2018-11-04T10:21:09.000Z</time>
      </trkpt>
      <trkpt lat="39.546614" lon="-0.546721">
        <ele>71</ele>
        <time>2018-11-04T10:21:10.000Z</time>
      </trkpt>
      <trkpt lat="39.546576" lon="-0.546699">
        <ele>71</ele>
        <time>2018-11-04T10:21:11.000Z</time>
      </trkpt>
      <trkpt lat="39.546541" lon="-0.546679">
        <ele>71</ele>
        <time>2018-11-04T10:21:12.000Z</time>
      </trkpt>
      <trkpt lat="39.546503" lon="-0.546655">
        <ele>71</ele>
        <time>2018-11-04T10:21:13.000Z</time>
      </trkpt>
      <trkpt lat="39.546458" lon="-0.54663">
        <ele>71</ele>
        <time>2018-11-04T10:21:14.000Z</time>
      </trkpt>
      <trkpt lat="39.546407" lon="-0.546604">
        <ele>71</ele>
        <time>2018-11-04T10:21:15.000Z</time>
      </trkpt>
      <trkpt lat="39.546348" lon="-0.546581">
        <ele>71</ele>
        <time>2018-11-04T10:21:16.000Z</time>
      </trkpt>
      <trkpt lat="39.546284" lon="-0.546568">
        <ele>71</ele>
        <time>2018-11-04T10:21:17.000Z</time>
      </trkpt>
      <trkpt lat="39.546218" lon="-0.546567">
        <ele>71</ele>
        <time>2018-11-04T10:21:18.000Z</time>
      </trkpt>
      <trkpt lat="39.546152" lon="-0.54658">
        <ele>71</ele>
        <time>2018-11-04T10:21:19.000Z</time>
      </trkpt>
      <trkpt lat="39.546092" lon="-0.546613">
        <ele>71</ele>
        <time>2018-11-04T10:21:20.000Z</time>
      </trkpt>
      <trkpt lat="39.54604" lon="-0.546651">
        <ele>71</ele>
        <time>2018-11-04T10:21:21.000Z</time>
      </trkpt>
      <trkpt lat="39.545989" lon="-0.546691">
        <ele>71</ele>
        <time>2018-11-04T10:21:22.000Z</time>
      </trkpt>
      <trkpt lat="39.545935" lon="-0.546724">
        <ele>70.1100032</ele>
        <time>2018-11-04T10:21:23.000Z</time>
      </trkpt>
      <trkpt lat="39.545876" lon="-0.546734">
        <ele>70</ele>
        <time>2018-11-04T10:21:24.000Z</time>
      </trkpt>
      <trkpt lat="39.54582" lon="-0.546722">
        <ele>70</ele>
        <time>2018-11-04T10:21:25.000Z</time>
      </trkpt>
      <trkpt lat="39.545772" lon="-0.546687">
        <ele>70</ele>
        <time>2018-11-04T10:21:26.000Z</time>
      </trkpt>
      <trkpt lat="39.545729" lon="-0.546647">
        <ele>70</ele>
        <time>2018-11-04T10:21:27.000Z</time>
      </trkpt>
      <trkpt lat="39.545692" lon="-0.5466">
        <ele>70.8450666137843</ele>
        <time>2018-11-04T10:21:28.000Z</time>
      </trkpt>
      <trkpt lat="39.545652" lon="-0.546552">
        <ele>70.127448642815</ele>
        <time>2018-11-04T10:21:29.000Z</time>
      </trkpt>
      <trkpt lat="39.545614" lon="-0.546507">
        <ele>70</ele>
        <time>2018-11-04T10:21:30.000Z</time>
      </trkpt>
      <trkpt lat="39.545576" lon="-0.54646">
        <ele>70</ele>
        <time>2018-11-04T10:21:31.000Z</time>
      </trkpt>
      <trkpt lat="39.545541" lon="-0.546405">
        <ele>70</ele>
        <time>2018-11-04T10:21:32.000Z</time>
      </trkpt>
      <trkpt lat="39.545511" lon="-0.546345">
        <ele>70</ele>
        <time>2018-11-04T10:21:33.000Z</time>
      </trkpt>
      <trkpt lat="39.545485" lon="-0.546288">
        <ele>70</ele>
        <time>2018-11-04T10:21:34.000Z</time>
      </trkpt>
      <trkpt lat="39.545457" lon="-0.546231">
        <ele>70</ele>
        <time>2018-11-04T10:21:35.000Z</time>
      </trkpt>
      <trkpt lat="39.545431" lon="-0.546173">
        <ele>70</ele>
        <time>2018-11-04T10:21:36.000Z</time>
      </trkpt>
      <trkpt lat="39.545401" lon="-0.546116">
        <ele>70</ele>
        <time>2018-11-04T10:21:37.000Z</time>
      </trkpt>
      <trkpt lat="39.545377" lon="-0.546075">
        <ele>70.8899968</ele>
        <time>2018-11-04T10:21:38.000Z</time>
      </trkpt>
      <trkpt lat="39.545348" lon="-0.546035">
        <ele>70.1100032</ele>
        <time>2018-11-04T10:21:39.000Z</time>
      </trkpt>
      <trkpt lat="39.545311" lon="-0.545984">
        <ele>70</ele>
        <time>2018-11-04T10:21:40.000Z</time>
      </trkpt>
      <trkpt lat="39.545274" lon="-0.545921">
        <ele>70</ele>
        <time>2018-11-04T10:21:41.000Z</time>
      </trkpt>
      <trkpt lat="39.54522" lon="-0.545788">
        <ele>70</ele>
        <time>2018-11-04T10:21:43.000Z</time>
      </trkpt>
      <trkpt lat="39.545182" lon="-0.545734">
        <ele>70.8899968</ele>
        <time>2018-11-04T10:21:44.000Z</time>
      </trkpt>
      <trkpt lat="39.545144" lon="-0.545682">
        <ele>71</ele>
        <time>2018-11-04T10:21:45.000Z</time>
      </trkpt>
      <trkpt lat="39.545103" lon="-0.545624">
        <ele>71.8428540081919</ele>
        <time>2018-11-04T10:21:46.000Z</time>
      </trkpt>
      <trkpt lat="39.545064" lon="-0.545547">
        <ele>72</ele>
        <time>2018-11-04T10:21:47.000Z</time>
      </trkpt>
      <trkpt lat="39.54503" lon="-0.545473">
        <ele>72</ele>
        <time>2018-11-04T10:21:48.000Z</time>
      </trkpt>
      <trkpt lat="39.545004" lon="-0.545403">
        <ele>72</ele>
        <time>2018-11-04T10:21:49.000Z</time>
      </trkpt>
      <trkpt lat="39.544978" lon="-0.545336">
        <ele>72</ele>
        <time>2018-11-04T10:21:50.000Z</time>
      </trkpt>
      <trkpt lat="39.544951" lon="-0.545273">
        <ele>72.8899968</ele>
        <time>2018-11-04T10:21:51.000Z</time>
      </trkpt>
      <trkpt lat="39.544931" lon="-0.545214">
        <ele>73</ele>
        <time>2018-11-04T10:21:52.000Z</time>
      </trkpt>
      <trkpt lat="39.544912" lon="-0.545155">
        <ele>73</ele>
        <time>2018-11-04T10:21:53.000Z</time>
      </trkpt>
      <trkpt lat="39.544893" lon="-0.545093">
        <ele>73</ele>
        <time>2018-11-04T10:21:54.000Z</time>
      </trkpt>
      <trkpt lat="39.544873" lon="-0.545031">
        <ele>73</ele>
        <time>2018-11-04T10:21:55.000Z</time>
      </trkpt>
      <trkpt lat="39.544844" lon="-0.544968">
        <ele>73</ele>
        <time>2018-11-04T10:21:56.000Z</time>
      </trkpt>
      <trkpt lat="39.544819" lon="-0.5449">
        <ele>73</ele>
        <time>2018-11-04T10:21:57.000Z</time>
      </trkpt>
      <trkpt lat="39.544793" lon="-0.544826">
        <ele>73</ele>
        <time>2018-11-04T10:21:58.000Z</time>
      </trkpt>
      <trkpt lat="39.544769" lon="-0.544758">
        <ele>73</ele>
        <time>2018-11-04T10:21:59.000Z</time>
      </trkpt>
      <trkpt lat="39.544754" lon="-0.544694">
        <ele>73</ele>
        <time>2018-11-04T10:22:00.000Z</time>
      </trkpt>
      <trkpt lat="39.544738" lon="-0.544627">
        <ele>73</ele>
        <time>2018-11-04T10:22:01.000Z</time>
      </trkpt>
      <trkpt lat="39.544725" lon="-0.544554">
        <ele>73.8899968</ele>
        <time>2018-11-04T10:22:02.000Z</time>
      </trkpt>
      <trkpt lat="39.544699" lon="-0.544487">
        <ele>74</ele>
        <time>2018-11-04T10:22:03.000Z</time>
      </trkpt>
      <trkpt lat="39.54466" lon="-0.544432">
        <ele>74</ele>
        <time>2018-11-04T10:22:04.000Z</time>
      </trkpt>
      <trkpt lat="39.544616" lon="-0.544384">
        <ele>73.127448642815</ele>
        <time>2018-11-04T10:22:05.000Z</time>
      </trkpt>
      <trkpt lat="39.544571" lon="-0.544327">
        <ele>73</ele>
        <time>2018-11-04T10:22:06.000Z</time>
      </trkpt>
      <trkpt lat="39.544525" lon="-0.544269">
        <ele>73.8899968</ele>
        <time>2018-11-04T10:22:07.000Z</time>
      </trkpt>
      <trkpt lat="39.544481" lon="-0.544218">
        <ele>74</ele>
        <time>2018-11-04T10:22:08.000Z</time>
      </trkpt>
      <trkpt lat="39.544434" lon="-0.544167">
        <ele>74</ele>
        <time>2018-11-04T10:22:09.000Z</time>
      </trkpt>
      <trkpt lat="39.544389" lon="-0.544119">
        <ele>73.1100032</ele>
        <time>2018-11-04T10:22:10.000Z</time>
      </trkpt>
      <trkpt lat="39.544338" lon="-0.544067">
        <ele>73</ele>
        <time>2018-11-04T10:22:11.000Z</time>
      </trkpt>
      <trkpt lat="39.544285" lon="-0.54402">
        <ele>72.2682942057942</ele>
        <time>2018-11-04T10:22:12.000Z</time>
      </trkpt>
      <trkpt lat="39.544234" lon="-0.543986">
        <ele>72</ele>
        <time>2018-11-04T10:22:13.000Z</time>
      </trkpt>
      <trkpt lat="39.544178" lon="-0.543946">
        <ele>71.1100032</ele>
        <time>2018-11-04T10:22:14.000Z</time>
      </trkpt>
      <trkpt lat="39.544126" lon="-0.543903">
        <ele>71</ele>
        <time>2018-11-04T10:22:15.000Z</time>
      </trkpt>
      <trkpt lat="39.544074" lon="-0.54386">
        <ele>71</ele>
        <time>2018-11-04T10:22:16.000Z</time>
      </trkpt>
      <trkpt lat="39.544023" lon="-0.543814">
        <ele>71</ele>
        <time>2018-11-04T10:22:17.000Z</time>
      </trkpt>
      <trkpt lat="39.543979" lon="-0.543764">
        <ele>71</ele>
        <time>2018-11-04T10:22:18.000Z</time>
      </trkpt>
      <trkpt lat="39.54394" lon="-0.543712">
        <ele>71</ele>
        <time>2018-11-04T10:22:19.000Z</time>
      </trkpt>
      <trkpt lat="39.543909" lon="-0.543652">
        <ele>71</ele>
        <time>2018-11-04T10:22:20.000Z</time>
      </trkpt>
      <trkpt lat="39.543882" lon="-0.543587">
        <ele>71</ele>
        <time>2018-11-04T10:22:21.000Z</time>
      </trkpt>
      <trkpt lat="39.543859" lon="-0.543519">
        <ele>71</ele>
        <time>2018-11-04T10:22:22.000Z</time>
      </trkpt>
      <trkpt lat="39.543833" lon="-0.543451">
        <ele>71</ele>
        <time>2018-11-04T10:22:23.000Z</time>
      </trkpt>
      <trkpt lat="39.54381" lon="-0.543386">
        <ele>71</ele>
        <time>2018-11-04T10:22:24.000Z</time>
      </trkpt>
      <trkpt lat="39.543791" lon="-0.54332">
        <ele>71</ele>
        <time>2018-11-04T10:22:25.000Z</time>
      </trkpt>
      <trkpt lat="39.543777" lon="-0.543251">
        <ele>71</ele>
        <time>2018-11-04T10:22:26.000Z</time>
      </trkpt>
      <trkpt lat="39.543768" lon="-0.543183">
        <ele>71</ele>
        <time>2018-11-04T10:22:27.000Z</time>
      </trkpt>
      <trkpt lat="39.543762" lon="-0.543117">
        <ele>71</ele>
        <time>2018-11-04T10:22:28.000Z</time>
      </trkpt>
      <trkpt lat="39.543763" lon="-0.543053">
        <ele>71</ele>
        <time>2018-11-04T10:22:29.000Z</time>
      </trkpt>
      <trkpt lat="39.54376" lon="-0.542999">
        <ele>71</ele>
        <time>2018-11-04T10:22:30.000Z</time>
      </trkpt>
      <trkpt lat="39.543759" lon="-0.542945">
        <ele>70.1527822222222</ele>
        <time>2018-11-04T10:22:31.000Z</time>
      </trkpt>
      <trkpt lat="39.543763" lon="-0.54288">
        <ele>70</ele>
        <time>2018-11-04T10:22:32.000Z</time>
      </trkpt>
      <trkpt lat="39.543782" lon="-0.542804">
        <ele>70</ele>
        <time>2018-11-04T10:22:33.000Z</time>
      </trkpt>
      <trkpt lat="39.543809" lon="-0.542736">
        <ele>69.1100032</ele>
        <time>2018-11-04T10:22:34.000Z</time>
      </trkpt>
      <trkpt lat="39.543839" lon="-0.542675">
        <ele>69</ele>
        <time>2018-11-04T10:22:35.000Z</time>
      </trkpt>
      <trkpt lat="39.543864" lon="-0.54261">
        <ele>69</ele>
        <time>2018-11-04T10:22:36.000Z</time>
      </trkpt>
      <trkpt lat="39.543893" lon="-0.542549">
        <ele>68.1100032</ele>
        <time>2018-11-04T10:22:37.000Z</time>
      </trkpt>
      <trkpt lat="39.543911" lon="-0.542489">
        <ele>68</ele>
        <time>2018-11-04T10:22:38.000Z</time>
      </trkpt>
      <trkpt lat="39.543915" lon="-0.542427">
        <ele>68</ele>
        <time>2018-11-04T10:22:39.000Z</time>
      </trkpt>
      <trkpt lat="39.543917" lon="-0.542367">
        <ele>68</ele>
        <time>2018-11-04T10:22:40.000Z</time>
      </trkpt>
      <trkpt lat="39.543911" lon="-0.542305">
        <ele>68</ele>
        <time>2018-11-04T10:22:41.000Z</time>
      </trkpt>
      <trkpt lat="39.5439" lon="-0.542242">
        <ele>68</ele>
        <time>2018-11-04T10:22:42.000Z</time>
      </trkpt>
      <trkpt lat="39.543886" lon="-0.542178">
        <ele>68</ele>
        <time>2018-11-04T10:22:43.000Z</time>
      </trkpt>
      <trkpt lat="39.543857" lon="-0.542122">
        <ele>68</ele>
        <time>2018-11-04T10:22:44.000Z</time>
      </trkpt>
      <trkpt lat="39.54382" lon="-0.542066">
        <ele>68</ele>
        <time>2018-11-04T10:22:45.000Z</time>
      </trkpt>
      <trkpt lat="39.543787" lon="-0.541998">
        <ele>68</ele>
        <time>2018-11-04T10:22:46.000Z</time>
      </trkpt>
      <trkpt lat="39.543766" lon="-0.54193">
        <ele>68</ele>
        <time>2018-11-04T10:22:47.000Z</time>
      </trkpt>
      <trkpt lat="39.543753" lon="-0.541862">
        <ele>68</ele>
        <time>2018-11-04T10:22:48.000Z</time>
      </trkpt>
      <trkpt lat="39.543741" lon="-0.541792">
        <ele>68</ele>
        <time>2018-11-04T10:22:49.000Z</time>
      </trkpt>
      <trkpt lat="39.543718" lon="-0.54173">
        <ele>68</ele>
        <time>2018-11-04T10:22:50.000Z</time>
      </trkpt>
      <trkpt lat="39.543685" lon="-0.541679">
        <ele>68</ele>
        <time>2018-11-04T10:22:51.000Z</time>
      </trkpt>
      <trkpt lat="39.543642" lon="-0.541632">
        <ele>68</ele>
        <time>2018-11-04T10:22:52.000Z</time>
      </trkpt>
      <trkpt lat="39.543606" lon="-0.541586">
        <ele>68</ele>
        <time>2018-11-04T10:22:53.000Z</time>
      </trkpt>
      <trkpt lat="39.543581" lon="-0.541526">
        <ele>68</ele>
        <time>2018-11-04T10:22:54.000Z</time>
      </trkpt>
      <trkpt lat="39.543561" lon="-0.541459">
        <ele>68</ele>
        <time>2018-11-04T10:22:55.000Z</time>
      </trkpt>
      <trkpt lat="39.54354" lon="-0.541401">
        <ele>68</ele>
        <time>2018-11-04T10:22:56.000Z</time>
      </trkpt>
      <trkpt lat="39.543524" lon="-0.541357">
        <ele>68</ele>
        <time>2018-11-04T10:22:57.000Z</time>
      </trkpt>
      <trkpt lat="39.543507" lon="-0.541311">
        <ele>68</ele>
        <time>2018-11-04T10:22:58.000Z</time>
      </trkpt>
      <trkpt lat="39.543493" lon="-0.541269">
        <ele>68</ele>
        <time>2018-11-04T10:22:59.000Z</time>
      </trkpt>
      <trkpt lat="39.543485" lon="-0.541227">
        <ele>68</ele>
        <time>2018-11-04T10:23:00.000Z</time>
      </trkpt>
      <trkpt lat="39.543475" lon="-0.541185">
        <ele>68</ele>
        <time>2018-11-04T10:23:01.000Z</time>
      </trkpt>
      <trkpt lat="39.543466" lon="-0.541135">
        <ele>68.8899968</ele>
        <time>2018-11-04T10:23:02.000Z</time>
      </trkpt>
      <trkpt lat="39.543448" lon="-0.541082">
        <ele>69</ele>
        <time>2018-11-04T10:23:03.000Z</time>
      </trkpt>
      <trkpt lat="39.543433" lon="-0.541029">
        <ele>69</ele>
        <time>2018-11-04T10:23:04.000Z</time>
      </trkpt>
      <trkpt lat="39.543417" lon="-0.540969">
        <ele>69</ele>
        <time>2018-11-04T10:23:05.000Z</time>
      </trkpt>
      <trkpt lat="39.543404" lon="-0.540907">
        <ele>69</ele>
        <time>2018-11-04T10:23:06.000Z</time>
      </trkpt>
      <trkpt lat="39.543392" lon="-0.540846">
        <ele>69</ele>
        <time>2018-11-04T10:23:07.000Z</time>
      </trkpt>
      <trkpt lat="39.543382" lon="-0.540787">
        <ele>69</ele>
        <time>2018-11-04T10:23:08.000Z</time>
      </trkpt>
      <trkpt lat="39.543366" lon="-0.540736">
        <ele>69.6078406766474</ele>
        <time>2018-11-04T10:23:09.000Z</time>
      </trkpt>
      <trkpt lat="39.543355" lon="-0.540687">
        <ele>70</ele>
        <time>2018-11-04T10:23:10.000Z</time>
      </trkpt>
      <trkpt lat="39.543342" lon="-0.540638">
        <ele>70</ele>
        <time>2018-11-04T10:23:11.000Z</time>
      </trkpt>
      <trkpt lat="39.543331" lon="-0.54059">
        <ele>70</ele>
        <time>2018-11-04T10:23:12.000Z</time>
      </trkpt>
      <trkpt lat="39.54333" lon="-0.540539">
        <ele>70</ele>
        <time>2018-11-04T10:23:13.000Z</time>
      </trkpt>
      <trkpt lat="39.543332" lon="-0.540487">
        <ele>70</ele>
        <time>2018-11-04T10:23:14.000Z</time>
      </trkpt>
      <trkpt lat="39.543333" lon="-0.540421">
        <ele>70</ele>
        <time>2018-11-04T10:23:15.000Z</time>
      </trkpt>
      <trkpt lat="39.543327" lon="-0.540351">
        <ele>70</ele>
        <time>2018-11-04T10:23:16.000Z</time>
      </trkpt>
      <trkpt lat="39.543325" lon="-0.54028">
        <ele>69.1100032</ele>
        <time>2018-11-04T10:23:17.000Z</time>
      </trkpt>
      <trkpt lat="39.543324" lon="-0.540213">
        <ele>69</ele>
        <time>2018-11-04T10:23:18.000Z</time>
      </trkpt>
      <trkpt lat="39.543321" lon="-0.540151">
        <ele>69</ele>
        <time>2018-11-04T10:23:19.000Z</time>
      </trkpt>
      <trkpt lat="39.543315" lon="-0.540074">
        <ele>69</ele>
        <time>2018-11-04T10:23:20.000Z</time>
      </trkpt>
      <trkpt lat="39.543302" lon="-0.539997">
        <ele>69.8428540081919</ele>
        <time>2018-11-04T10:23:21.000Z</time>
      </trkpt>
      <trkpt lat="39.543295" lon="-0.539908">
        <ele>69.1100032</ele>
        <time>2018-11-04T10:23:22.000Z</time>
      </trkpt>
      <trkpt lat="39.543293" lon="-0.539832">
        <ele>69</ele>
        <time>2018-11-04T10:23:23.000Z</time>
      </trkpt>
      <trkpt lat="39.543299" lon="-0.539754">
        <ele>69</ele>
        <time>2018-11-04T10:23:24.000Z</time>
      </trkpt>
      <trkpt lat="39.543315" lon="-0.539674">
        <ele>69</ele>
        <time>2018-11-04T10:23:25.000Z</time>
      </trkpt>
      <trkpt lat="39.543324" lon="-0.539607">
        <ele>68.1100032</ele>
        <time>2018-11-04T10:23:26.000Z</time>
      </trkpt>
      <trkpt lat="39.543337" lon="-0.539539">
        <ele>68</ele>
        <time>2018-11-04T10:23:27.000Z</time>
      </trkpt>
      <trkpt lat="39.543353" lon="-0.539464">
        <ele>68</ele>
        <time>2018-11-04T10:23:28.000Z</time>
      </trkpt>
      <trkpt lat="39.543352" lon="-0.539393">
        <ele>67.1527822222222</ele>
        <time>2018-11-04T10:23:29.000Z</time>
      </trkpt>
      <trkpt lat="39.543355" lon="-0.539322">
        <ele>67</ele>
        <time>2018-11-04T10:23:30.000Z</time>
      </trkpt>
      <trkpt lat="39.543371" lon="-0.539253">
        <ele>66.1100032</ele>
        <time>2018-11-04T10:23:31.000Z</time>
      </trkpt>
      <trkpt lat="39.543386" lon="-0.539185">
        <ele>66</ele>
        <time>2018-11-04T10:23:32.000Z</time>
      </trkpt>
      <trkpt lat="39.543402" lon="-0.539122">
        <ele>66</ele>
        <time>2018-11-04T10:23:33.000Z</time>
      </trkpt>
      <trkpt lat="39.543418" lon="-0.539059">
        <ele>66</ele>
        <time>2018-11-04T10:23:34.000Z</time>
      </trkpt>
      <trkpt lat="39.543431" lon="-0.538996">
        <ele>65.1100032</ele>
        <time>2018-11-04T10:23:35.000Z</time>
      </trkpt>
      <trkpt lat="39.543435" lon="-0.538933">
        <ele>65</ele>
        <time>2018-11-04T10:23:36.000Z</time>
      </trkpt>
      <trkpt lat="39.543444" lon="-0.538865">
        <ele>65</ele>
        <time>2018-11-04T10:23:37.000Z</time>
      </trkpt>
      <trkpt lat="39.543452" lon="-0.538798">
        <ele>65</ele>
        <time>2018-11-04T10:23:38.000Z</time>
      </trkpt>
      <trkpt lat="39.543453" lon="-0.538735">
        <ele>65</ele>
        <time>2018-11-04T10:23:39.000Z</time>
      </trkpt>
      <trkpt lat="39.543454" lon="-0.538674">
        <ele>65</ele>
        <time>2018-11-04T10:23:40.000Z</time>
      </trkpt>
      <trkpt lat="39.543453" lon="-0.538615">
        <ele>65</ele>
        <time>2018-11-04T10:23:41.000Z</time>
      </trkpt>
      <trkpt lat="39.543447" lon="-0.538556">
        <ele>65</ele>
        <time>2018-11-04T10:23:42.000Z</time>
      </trkpt>
      <trkpt lat="39.543434" lon="-0.538494">
        <ele>65</ele>
        <time>2018-11-04T10:23:43.000Z</time>
      </trkpt>
      <trkpt lat="39.543416" lon="-0.53843">
        <ele>65</ele>
        <time>2018-11-04T10:23:44.000Z</time>
      </trkpt>
      <trkpt lat="39.543396" lon="-0.538364">
        <ele>65</ele>
        <time>2018-11-04T10:23:45.000Z</time>
      </trkpt>
      <trkpt lat="39.543383" lon="-0.538301">
        <ele>65</ele>
        <time>2018-11-04T10:23:46.000Z</time>
      </trkpt>
      <trkpt lat="39.543374" lon="-0.53824">
        <ele>65</ele>
        <time>2018-11-04T10:23:47.000Z</time>
      </trkpt>
      <trkpt lat="39.543373" lon="-0.538177">
        <ele>65</ele>
        <time>2018-11-04T10:23:48.000Z</time>
      </trkpt>
      <trkpt lat="39.543376" lon="-0.538122">
        <ele>64.1506899756273</ele>
        <time>2018-11-04T10:23:49.000Z</time>
      </trkpt>
      <trkpt lat="39.543369" lon="-0.538061">
        <ele>64</ele>
        <time>2018-11-04T10:23:50.000Z</time>
      </trkpt>
      <trkpt lat="39.543345" lon="-0.537991">
        <ele>64</ele>
        <time>2018-11-04T10:23:51.000Z</time>
      </trkpt>
      <trkpt lat="39.543315" lon="-0.537939">
        <ele>64</ele>
        <time>2018-11-04T10:23:52.000Z</time>
      </trkpt>
      <trkpt lat="39.543283" lon="-0.537885">
        <ele>64.888886015722</ele>
        <time>2018-11-04T10:23:53.000Z</time>
      </trkpt>
      <trkpt lat="39.543247" lon="-0.537824">
        <ele>65</ele>
        <time>2018-11-04T10:23:54.000Z</time>
      </trkpt>
      <trkpt lat="39.543213" lon="-0.53776">
        <ele>65</ele>
        <time>2018-11-04T10:23:55.000Z</time>
      </trkpt>
      <trkpt lat="39.543184" lon="-0.537701">
        <ele>65</ele>
        <time>2018-11-04T10:23:56.000Z</time>
      </trkpt>
      <trkpt lat="39.543154" lon="-0.537645">
        <ele>65</ele>
        <time>2018-11-04T10:23:57.000Z</time>
      </trkpt>
      <trkpt lat="39.543134" lon="-0.537586">
        <ele>65</ele>
        <time>2018-11-04T10:23:58.000Z</time>
      </trkpt>
      <trkpt lat="39.543117" lon="-0.537526">
        <ele>65</ele>
        <time>2018-11-04T10:23:59.000Z</time>
      </trkpt>
      <trkpt lat="39.543103" lon="-0.537463">
        <ele>65</ele>
        <time>2018-11-04T10:24:00.000Z</time>
      </trkpt>
      <trkpt lat="39.543087" lon="-0.537401">
        <ele>65</ele>
        <time>2018-11-04T10:24:01.000Z</time>
      </trkpt>
      <trkpt lat="39.54307" lon="-0.53733">
        <ele>65</ele>
        <time>2018-11-04T10:24:02.000Z</time>
      </trkpt>
      <trkpt lat="39.543051" lon="-0.537258">
        <ele>65.8899968</ele>
        <time>2018-11-04T10:24:03.000Z</time>
      </trkpt>
      <trkpt lat="39.543033" lon="-0.537189">
        <ele>66</ele>
        <time>2018-11-04T10:24:04.000Z</time>
      </trkpt>
      <trkpt lat="39.543012" lon="-0.537125">
        <ele>65.2992098207987</ele>
        <time>2018-11-04T10:24:05.000Z</time>
      </trkpt>
      <trkpt lat="39.542987" lon="-0.537065">
        <ele>65</ele>
        <time>2018-11-04T10:24:06.000Z</time>
      </trkpt>
      <trkpt lat="39.542968" lon="-0.537002">
        <ele>65.6899217114337</ele>
        <time>2018-11-04T10:24:07.000Z</time>
      </trkpt>
      <trkpt lat="39.542944" lon="-0.536943">
        <ele>65.1549333862157</ele>
        <time>2018-11-04T10:24:08.000Z</time>
      </trkpt>
      <trkpt lat="39.542929" lon="-0.536881">
        <ele>65</ele>
        <time>2018-11-04T10:24:09.000Z</time>
      </trkpt>
      <trkpt lat="39.542916" lon="-0.536817">
        <ele>65</ele>
        <time>2018-11-04T10:24:10.000Z</time>
      </trkpt>
      <trkpt lat="39.542904" lon="-0.536753">
        <ele>65</ele>
        <time>2018-11-04T10:24:11.000Z</time>
      </trkpt>
      <trkpt lat="39.542895" lon="-0.536685">
        <ele>65</ele>
        <time>2018-11-04T10:24:12.000Z</time>
      </trkpt>
      <trkpt lat="39.542881" lon="-0.536622">
        <ele>65</ele>
        <time>2018-11-04T10:24:13.000Z</time>
      </trkpt>
      <trkpt lat="39.542869" lon="-0.536557">
        <ele>65</ele>
        <time>2018-11-04T10:24:14.000Z</time>
      </trkpt>
      <trkpt lat="39.542858" lon="-0.536496">
        <ele>65</ele>
        <time>2018-11-04T10:24:15.000Z</time>
      </trkpt>
      <trkpt lat="39.542853" lon="-0.536435">
        <ele>65</ele>
        <time>2018-11-04T10:24:16.000Z</time>
      </trkpt>
      <trkpt lat="39.542852" lon="-0.536375">
        <ele>65</ele>
        <time>2018-11-04T10:24:17.000Z</time>
      </trkpt>
      <trkpt lat="39.542854" lon="-0.536313">
        <ele>65</ele>
        <time>2018-11-04T10:24:18.000Z</time>
      </trkpt>
      <trkpt lat="39.542854" lon="-0.536245">
        <ele>65</ele>
        <time>2018-11-04T10:24:19.000Z</time>
      </trkpt>
      <trkpt lat="39.54285" lon="-0.536176">
        <ele>65</ele>
        <time>2018-11-04T10:24:20.000Z</time>
      </trkpt>
      <trkpt lat="39.542848" lon="-0.536105">
        <ele>64.1100032</ele>
        <time>2018-11-04T10:24:21.000Z</time>
      </trkpt>
      <trkpt lat="39.542847" lon="-0.536033">
        <ele>64</ele>
        <time>2018-11-04T10:24:22.000Z</time>
      </trkpt>
      <trkpt lat="39.542846" lon="-0.535961">
        <ele>64</ele>
        <time>2018-11-04T10:24:23.000Z</time>
      </trkpt>
      <trkpt lat="39.542846" lon="-0.535886">
        <ele>64</ele>
        <time>2018-11-04T10:24:24.000Z</time>
      </trkpt>
      <trkpt lat="39.542844" lon="-0.535815">
        <ele>64</ele>
        <time>2018-11-04T10:24:25.000Z</time>
      </trkpt>
      <trkpt lat="39.542844" lon="-0.535748">
        <ele>64</ele>
        <time>2018-11-04T10:24:26.000Z</time>
      </trkpt>
      <trkpt lat="39.542844" lon="-0.535683">
        <ele>64</ele>
        <time>2018-11-04T10:24:27.000Z</time>
      </trkpt>
      <trkpt lat="39.542847" lon="-0.535609">
        <ele>64</ele>
        <time>2018-11-04T10:24:28.000Z</time>
      </trkpt>
      <trkpt lat="39.542852" lon="-0.535539">
        <ele>63.1100032</ele>
        <time>2018-11-04T10:24:29.000Z</time>
      </trkpt>
      <trkpt lat="39.54286" lon="-0.535466">
        <ele>63</ele>
        <time>2018-11-04T10:24:30.000Z</time>
      </trkpt>
      <trkpt lat="39.54287" lon="-0.5354">
        <ele>63</ele>
        <time>2018-11-04T10:24:31.000Z</time>
      </trkpt>
      <trkpt lat="39.542877" lon="-0.535334">
        <ele>63</ele>
        <time>2018-11-04T10:24:32.000Z</time>
      </trkpt>
      <trkpt lat="39.542888" lon="-0.535261">
        <ele>62.1100032</ele>
        <time>2018-11-04T10:24:33.000Z</time>
      </trkpt>
      <trkpt lat="39.542903" lon="-0.535191">
        <ele>62</ele>
        <time>2018-11-04T10:24:34.000Z</time>
      </trkpt>
      <trkpt lat="39.542925" lon="-0.535129">
        <ele>62</ele>
        <time>2018-11-04T10:24:35.000Z</time>
      </trkpt>
      <trkpt lat="39.542956" lon="-0.535055">
        <ele>61.1527822222222</ele>
        <time>2018-11-04T10:24:36.000Z</time>
      </trkpt>
      <trkpt lat="39.542986" lon="-0.534985">
        <ele>61</ele>
        <time>2018-11-04T10:24:37.000Z</time>
      </trkpt>
      <trkpt lat="39.543012" lon="-0.53492">
        <ele>61</ele>
        <time>2018-11-04T10:24:38.000Z</time>
      </trkpt>
      <trkpt lat="39.543037" lon="-0.534857">
        <ele>61</ele>
        <time>2018-11-04T10:24:39.000Z</time>
      </trkpt>
      <trkpt lat="39.543064" lon="-0.534803">
        <ele>61</ele>
        <time>2018-11-04T10:24:40.000Z</time>
      </trkpt>
      <trkpt lat="39.543096" lon="-0.534759">
        <ele>61</ele>
        <time>2018-11-04T10:24:41.000Z</time>
      </trkpt>
      <trkpt lat="39.543119" lon="-0.534719">
        <ele>61</ele>
        <time>2018-11-04T10:24:42.000Z</time>
      </trkpt>
      <trkpt lat="39.543127" lon="-0.534689">
        <ele>61</ele>
        <time>2018-11-04T10:24:43.000Z</time>
      </trkpt>
      <trkpt lat="39.543126" lon="-0.534663">
        <ele>61.8493126665732</ele>
        <time>2018-11-04T10:24:44.000Z</time>
      </trkpt>
      <trkpt lat="39.54311" lon="-0.534644">
        <ele>62</ele>
        <time>2018-11-04T10:24:45.000Z</time>
      </trkpt>
      <trkpt lat="39.543094" lon="-0.534629">
        <ele>62</ele>
        <time>2018-11-04T10:24:46.000Z</time>
      </trkpt>
      <trkpt lat="39.543068" lon="-0.534603">
        <ele>63</ele>
        <time>2018-11-04T10:24:48.000Z</time>
      </trkpt>
      <trkpt lat="39.543036" lon="-0.53457">
        <ele>63</ele>
        <time>2018-11-04T10:24:50.000Z</time>
      </trkpt>
      <trkpt lat="39.543018" lon="-0.534552">
        <ele>63</ele>
        <time>2018-11-04T10:24:51.000Z</time>
      </trkpt>
      <trkpt lat="39.542999" lon="-0.534536">
        <ele>63</ele>
        <time>2018-11-04T10:24:52.000Z</time>
      </trkpt>
      <trkpt lat="39.542982" lon="-0.534522">
        <ele>63.8899968</ele>
        <time>2018-11-04T10:24:53.000Z</time>
      </trkpt>
      <trkpt lat="39.542964" lon="-0.534509">
        <ele>64</ele>
        <time>2018-11-04T10:24:54.000Z</time>
      </trkpt>
      <trkpt lat="39.542944" lon="-0.53449">
        <ele>64</ele>
        <time>2018-11-04T10:24:55.000Z</time>
      </trkpt>
      <trkpt lat="39.542928" lon="-0.534475">
        <ele>64</ele>
        <time>2018-11-04T10:24:56.000Z</time>
      </trkpt>
      <trkpt lat="39.542908" lon="-0.534461">
        <ele>64</ele>
        <time>2018-11-04T10:24:57.000Z</time>
      </trkpt>
      <trkpt lat="39.542884" lon="-0.534444">
        <ele>64</ele>
        <time>2018-11-04T10:24:58.000Z</time>
      </trkpt>
      <trkpt lat="39.542861" lon="-0.534422">
        <ele>64.8899968</ele>
        <time>2018-11-04T10:24:59.000Z</time>
      </trkpt>
      <trkpt lat="39.54284" lon="-0.534403">
        <ele>65</ele>
        <time>2018-11-04T10:25:00.000Z</time>
      </trkpt>
      <trkpt lat="39.542821" lon="-0.53438">
        <ele>65</ele>
        <time>2018-11-04T10:25:01.000Z</time>
      </trkpt>
      <trkpt lat="39.542806" lon="-0.534363">
        <ele>65</ele>
        <time>2018-11-04T10:25:02.000Z</time>
      </trkpt>
      <trkpt lat="39.542768" lon="-0.534349">
        <ele>65</ele>
        <time>2018-11-04T10:25:04.000Z</time>
      </trkpt>
      <trkpt lat="39.542732" lon="-0.534352">
        <ele>65</ele>
        <time>2018-11-04T10:25:05.000Z</time>
      </trkpt>
      <trkpt lat="39.542685" lon="-0.534347">
        <ele>65</ele>
        <time>2018-11-04T10:25:06.000Z</time>
      </trkpt>
      <trkpt lat="39.542634" lon="-0.534341">
        <ele>65</ele>
        <time>2018-11-04T10:25:07.000Z</time>
      </trkpt>
      <trkpt lat="39.542571" lon="-0.534317">
        <ele>65</ele>
        <time>2018-11-04T10:25:08.000Z</time>
      </trkpt>
      <trkpt lat="39.542513" lon="-0.534284">
        <ele>65</ele>
        <time>2018-11-04T10:25:09.000Z</time>
      </trkpt>
      <trkpt lat="39.542457" lon="-0.534242">
        <ele>65.8899968</ele>
        <time>2018-11-04T10:25:10.000Z</time>
      </trkpt>
      <trkpt lat="39.542398" lon="-0.534211">
        <ele>66</ele>
        <time>2018-11-04T10:25:11.000Z</time>
      </trkpt>
      <trkpt lat="39.542345" lon="-0.5342">
        <ele>65.1145866666667</ele>
        <time>2018-11-04T10:25:12.000Z</time>
      </trkpt>
      <trkpt lat="39.542292" lon="-0.534196">
        <ele>65</ele>
        <time>2018-11-04T10:25:13.000Z</time>
      </trkpt>
      <trkpt lat="39.542241" lon="-0.534201">
        <ele>65</ele>
        <time>2018-11-04T10:25:14.000Z</time>
      </trkpt>
      <trkpt lat="39.542191" lon="-0.534204">
        <ele>64.1100032</ele>
        <time>2018-11-04T10:25:15.000Z</time>
      </trkpt>
      <trkpt lat="39.542133" lon="-0.53419">
        <ele>64</ele>
        <time>2018-11-04T10:25:16.000Z</time>
      </trkpt>
      <trkpt lat="39.542072" lon="-0.53418">
        <ele>64</ele>
        <time>2018-11-04T10:25:17.000Z</time>
      </trkpt>
      <trkpt lat="39.542014" lon="-0.534178">
        <ele>64</ele>
        <time>2018-11-04T10:25:18.000Z</time>
      </trkpt>
      <trkpt lat="39.54196" lon="-0.534181">
        <ele>63.1100032</ele>
        <time>2018-11-04T10:25:19.000Z</time>
      </trkpt>
      <trkpt lat="39.541904" lon="-0.534179">
        <ele>63</ele>
        <time>2018-11-04T10:25:20.000Z</time>
      </trkpt>
      <trkpt lat="39.541849" lon="-0.534173">
        <ele>63</ele>
        <time>2018-11-04T10:25:21.000Z</time>
      </trkpt>
      <trkpt lat="39.541793" lon="-0.534165">
        <ele>63</ele>
        <time>2018-11-04T10:25:22.000Z</time>
      </trkpt>
      <trkpt lat="39.541737" lon="-0.534155">
        <ele>62.1100032</ele>
        <time>2018-11-04T10:25:23.000Z</time>
      </trkpt>
      <trkpt lat="39.541683" lon="-0.534142">
        <ele>62</ele>
        <time>2018-11-04T10:25:24.000Z</time>
      </trkpt>
      <trkpt lat="39.541628" lon="-0.53413">
        <ele>62</ele>
        <time>2018-11-04T10:25:25.000Z</time>
      </trkpt>
      <trkpt lat="39.541574" lon="-0.534121">
        <ele>62</ele>
        <time>2018-11-04T10:25:26.000Z</time>
      </trkpt>
      <trkpt lat="39.54152" lon="-0.534114">
        <ele>62</ele>
        <time>2018-11-04T10:25:27.000Z</time>
      </trkpt>
      <trkpt lat="39.541466" lon="-0.534109">
        <ele>62</ele>
        <time>2018-11-04T10:25:28.000Z</time>
      </trkpt>
      <trkpt lat="39.541413" lon="-0.534102">
        <ele>61.1100032</ele>
        <time>2018-11-04T10:25:29.000Z</time>
      </trkpt>
      <trkpt lat="39.541362" lon="-0.534093">
        <ele>61</ele>
        <time>2018-11-04T10:25:30.000Z</time>
      </trkpt>
      <trkpt lat="39.541312" lon="-0.534083">
        <ele>61</ele>
        <time>2018-11-04T10:25:31.000Z</time>
      </trkpt>
      <trkpt lat="39.541262" lon="-0.534079">
        <ele>61</ele>
        <time>2018-11-04T10:25:32.000Z</time>
      </trkpt>
      <trkpt lat="39.541213" lon="-0.534071">
        <ele>61</ele>
        <time>2018-11-04T10:25:33.000Z</time>
      </trkpt>
      <trkpt lat="39.541166" lon="-0.534063">
        <ele>61</ele>
        <time>2018-11-04T10:25:34.000Z</time>
      </trkpt>
      <trkpt lat="39.541119" lon="-0.534057">
        <ele>61</ele>
        <time>2018-11-04T10:25:35.000Z</time>
      </trkpt>
      <trkpt lat="39.541072" lon="-0.534052">
        <ele>61</ele>
        <time>2018-11-04T10:25:36.000Z</time>
      </trkpt>
      <trkpt lat="39.541025" lon="-0.534039">
        <ele>61</ele>
        <time>2018-11-04T10:25:37.000Z</time>
      </trkpt>
      <trkpt lat="39.540977" lon="-0.534022">
        <ele>61</ele>
        <time>2018-11-04T10:25:38.000Z</time>
      </trkpt>
      <trkpt lat="39.54093" lon="-0.534003">
        <ele>61</ele>
        <time>2018-11-04T10:25:39.000Z</time>
      </trkpt>
      <trkpt lat="39.540885" lon="-0.533987">
        <ele>61</ele>
        <time>2018-11-04T10:25:40.000Z</time>
      </trkpt>
      <trkpt lat="39.540845" lon="-0.533971">
        <ele>61</ele>
        <time>2018-11-04T10:25:41.000Z</time>
      </trkpt>
      <trkpt lat="39.540809" lon="-0.53396">
        <ele>61</ele>
        <time>2018-11-04T10:25:42.000Z</time>
      </trkpt>
      <trkpt lat="39.540778" lon="-0.533948">
        <ele>61</ele>
        <time>2018-11-04T10:25:43.000Z</time>
      </trkpt>
      <trkpt lat="39.540747" lon="-0.533936">
        <ele>61</ele>
        <time>2018-11-04T10:25:44.000Z</time>
      </trkpt>
      <trkpt lat="39.540717" lon="-0.533916">
        <ele>61</ele>
        <time>2018-11-04T10:25:45.000Z</time>
      </trkpt>
      <trkpt lat="39.540689" lon="-0.5339">
        <ele>61</ele>
        <time>2018-11-04T10:25:46.000Z</time>
      </trkpt>
      <trkpt lat="39.540653" lon="-0.53389">
        <ele>61.69531</ele>
        <time>2018-11-04T10:25:47.000Z</time>
      </trkpt>
      <trkpt lat="39.540614" lon="-0.533881">
        <ele>62</ele>
        <time>2018-11-04T10:25:48.000Z</time>
      </trkpt>
      <trkpt lat="39.540572" lon="-0.53387">
        <ele>62</ele>
        <time>2018-11-04T10:25:49.000Z</time>
      </trkpt>
      <trkpt lat="39.540522" lon="-0.533873">
        <ele>62</ele>
        <time>2018-11-04T10:25:50.000Z</time>
      </trkpt>
      <trkpt lat="39.540472" lon="-0.533879">
        <ele>62</ele>
        <time>2018-11-04T10:25:51.000Z</time>
      </trkpt>
      <trkpt lat="39.540424" lon="-0.533883">
        <ele>62.8899968</ele>
        <time>2018-11-04T10:25:52.000Z</time>
      </trkpt>
      <trkpt lat="39.540383" lon="-0.533889">
        <ele>63</ele>
        <time>2018-11-04T10:25:53.000Z</time>
      </trkpt>
      <trkpt lat="39.540344" lon="-0.533887">
        <ele>63</ele>
        <time>2018-11-04T10:25:54.000Z</time>
      </trkpt>
      <trkpt lat="39.540302" lon="-0.533882">
        <ele>63</ele>
        <time>2018-11-04T10:25:55.000Z</time>
      </trkpt>
      <trkpt lat="39.540267" lon="-0.533871">
        <ele>63</ele>
        <time>2018-11-04T10:25:56.000Z</time>
      </trkpt>
      <trkpt lat="39.540232" lon="-0.533845">
        <ele>63</ele>
        <time>2018-11-04T10:25:57.000Z</time>
      </trkpt>
      <trkpt lat="39.540206" lon="-0.533817">
        <ele>63</ele>
        <time>2018-11-04T10:25:58.000Z</time>
      </trkpt>
      <trkpt lat="39.540184" lon="-0.533774">
        <ele>63</ele>
        <time>2018-11-04T10:25:59.000Z</time>
      </trkpt>
      <trkpt lat="39.540172" lon="-0.533727">
        <ele>63</ele>
        <time>2018-11-04T10:26:00.000Z</time>
      </trkpt>
      <trkpt lat="39.540166" lon="-0.533674">
        <ele>62.1100032</ele>
        <time>2018-11-04T10:26:01.000Z</time>
      </trkpt>
      <trkpt lat="39.54016" lon="-0.533624">
        <ele>62</ele>
        <time>2018-11-04T10:26:02.000Z</time>
      </trkpt>
      <trkpt lat="39.540153" lon="-0.533573">
        <ele>62</ele>
        <time>2018-11-04T10:26:03.000Z</time>
      </trkpt>
      <trkpt lat="39.540153" lon="-0.533529">
        <ele>62</ele>
        <time>2018-11-04T10:26:04.000Z</time>
      </trkpt>
      <trkpt lat="39.540171" lon="-0.53348">
        <ele>62</ele>
        <time>2018-11-04T10:26:05.000Z</time>
      </trkpt>
      <trkpt lat="39.540198" lon="-0.533434">
        <ele>62</ele>
        <time>2018-11-04T10:26:06.000Z</time>
      </trkpt>
      <trkpt lat="39.540224" lon="-0.533387">
        <ele>62.8899968</ele>
        <time>2018-11-04T10:26:07.000Z</time>
      </trkpt>
      <trkpt lat="39.540256" lon="-0.533344">
        <ele>63</ele>
        <time>2018-11-04T10:26:08.000Z</time>
      </trkpt>
      <trkpt lat="39.54029" lon="-0.533308">
        <ele>63</ele>
        <time>2018-11-04T10:26:09.000Z</time>
      </trkpt>
      <trkpt lat="39.540317" lon="-0.533265">
        <ele>63</ele>
        <time>2018-11-04T10:26:10.000Z</time>
      </trkpt>
      <trkpt lat="39.540341" lon="-0.533222">
        <ele>63</ele>
        <time>2018-11-04T10:26:11.000Z</time>
      </trkpt>
      <trkpt lat="39.540365" lon="-0.533187">
        <ele>63</ele>
        <time>2018-11-04T10:26:12.000Z</time>
      </trkpt>
      <trkpt lat="39.540385" lon="-0.533155">
        <ele>63</ele>
        <time>2018-11-04T10:26:13.000Z</time>
      </trkpt>
      <trkpt lat="39.540402" lon="-0.533124">
        <ele>63</ele>
        <time>2018-11-04T10:26:14.000Z</time>
      </trkpt>
      <trkpt lat="39.540417" lon="-0.533092">
        <ele>63</ele>
        <time>2018-11-04T10:26:15.000Z</time>
      </trkpt>
      <trkpt lat="39.540433" lon="-0.53306">
        <ele>63</ele>
        <time>2018-11-04T10:26:16.000Z</time>
      </trkpt>
      <trkpt lat="39.540452" lon="-0.533027">
        <ele>63</ele>
        <time>2018-11-04T10:26:17.000Z</time>
      </trkpt>
      <trkpt lat="39.540469" lon="-0.532995">
        <ele>62.299216883863</ele>
        <time>2018-11-04T10:26:18.000Z</time>
      </trkpt>
      <trkpt lat="39.540486" lon="-0.532963">
        <ele>62</ele>
        <time>2018-11-04T10:26:19.000Z</time>
      </trkpt>
      <trkpt lat="39.540501" lon="-0.532926">
        <ele>62</ele>
        <time>2018-11-04T10:26:20.000Z</time>
      </trkpt>
      <trkpt lat="39.540518" lon="-0.532882">
        <ele>61.1100032</ele>
        <time>2018-11-04T10:26:21.000Z</time>
      </trkpt>
      <trkpt lat="39.540532" lon="-0.532829">
        <ele>61</ele>
        <time>2018-11-04T10:26:22.000Z</time>
      </trkpt>
      <trkpt lat="39.540539" lon="-0.532765">
        <ele>61</ele>
        <time>2018-11-04T10:26:23.000Z</time>
      </trkpt>
      <trkpt lat="39.54054" lon="-0.532694">
        <ele>61</ele>
        <time>2018-11-04T10:26:24.000Z</time>
      </trkpt>
      <trkpt lat="39.540538" lon="-0.53262">
        <ele>61</ele>
        <time>2018-11-04T10:26:25.000Z</time>
      </trkpt>
      <trkpt lat="39.540535" lon="-0.532541">
        <ele>61</ele>
        <time>2018-11-04T10:26:26.000Z</time>
      </trkpt>
      <trkpt lat="39.540526" lon="-0.532469">
        <ele>60.111113984278</ele>
        <time>2018-11-04T10:26:27.000Z</time>
      </trkpt>
      <trkpt lat="39.540514" lon="-0.532417">
        <ele>60</ele>
        <time>2018-11-04T10:26:28.000Z</time>
      </trkpt>
      <trkpt lat="39.540508" lon="-0.532385">
        <ele>60</ele>
        <time>2018-11-04T10:26:29.000Z</time>
      </trkpt>
      <trkpt lat="39.540502" lon="-0.532357">
        <ele>60</ele>
        <time>2018-11-04T10:26:31.000Z</time>
      </trkpt>
      <trkpt lat="39.540487" lon="-0.532338">
        <ele>64</ele>
        <time>2018-11-04T10:26:43.000Z</time>
      </trkpt>
      <trkpt lat="39.54047" lon="-0.53232">
        <ele>64</ele>
        <time>2018-11-04T10:26:53.000Z</time>
      </trkpt>
      <trkpt lat="39.540457" lon="-0.532302">
        <ele>64</ele>
        <time>2018-11-04T10:27:33.000Z</time>
      </trkpt>
      <trkpt lat="39.540458" lon="-0.532274">
        <ele>64</ele>
        <time>2018-11-04T10:28:06.000Z</time>
      </trkpt>
      <trkpt lat="39.540467" lon="-0.532247">
        <ele>64</ele>
        <time>2018-11-04T10:28:07.000Z</time>
      </trkpt>
      <trkpt lat="39.540482" lon="-0.53221">
        <ele>64</ele>
        <time>2018-11-04T10:28:08.000Z</time>
      </trkpt>
      <trkpt lat="39.540506" lon="-0.532169">
        <ele>63.1100032</ele>
        <time>2018-11-04T10:28:09.000Z</time>
      </trkpt>
      <trkpt lat="39.540532" lon="-0.532122">
        <ele>63</ele>
        <time>2018-11-04T10:28:10.000Z</time>
      </trkpt>
      <trkpt lat="39.540555" lon="-0.532075">
        <ele>63</ele>
        <time>2018-11-04T10:28:11.000Z</time>
      </trkpt>
      <trkpt lat="39.54057" lon="-0.532033">
        <ele>63</ele>
        <time>2018-11-04T10:28:12.000Z</time>
      </trkpt>
      <trkpt lat="39.540577" lon="-0.531987">
        <ele>62.1506899756273</ele>
        <time>2018-11-04T10:28:13.000Z</time>
      </trkpt>
      <trkpt lat="39.540578" lon="-0.531931">
        <ele>62</ele>
        <time>2018-11-04T10:28:14.000Z</time>
      </trkpt>
      <trkpt lat="39.540573" lon="-0.531868">
        <ele>62</ele>
        <time>2018-11-04T10:28:15.000Z</time>
      </trkpt>
      <trkpt lat="39.540569" lon="-0.531804">
        <ele>62</ele>
        <time>2018-11-04T10:28:16.000Z</time>
      </trkpt>
      <trkpt lat="39.540568" lon="-0.531744">
        <ele>62</ele>
        <time>2018-11-04T10:28:17.000Z</time>
      </trkpt>
      <trkpt lat="39.540556" lon="-0.531685">
        <ele>62</ele>
        <time>2018-11-04T10:28:18.000Z</time>
      </trkpt>
      <trkpt lat="39.540535" lon="-0.531628">
        <ele>62</ele>
        <time>2018-11-04T10:28:19.000Z</time>
      </trkpt>
      <trkpt lat="39.540512" lon="-0.531568">
        <ele>62</ele>
        <time>2018-11-04T10:28:20.000Z</time>
      </trkpt>
      <trkpt lat="39.540493" lon="-0.531512">
        <ele>62</ele>
        <time>2018-11-04T10:28:21.000Z</time>
      </trkpt>
      <trkpt lat="39.540476" lon="-0.531454">
        <ele>62</ele>
        <time>2018-11-04T10:28:22.000Z</time>
      </trkpt>
      <trkpt lat="39.540459" lon="-0.531401">
        <ele>62</ele>
        <time>2018-11-04T10:28:23.000Z</time>
      </trkpt>
      <trkpt lat="39.540444" lon="-0.531345">
        <ele>62</ele>
        <time>2018-11-04T10:28:24.000Z</time>
      </trkpt>
      <trkpt lat="39.540434" lon="-0.531289">
        <ele>62</ele>
        <time>2018-11-04T10:28:25.000Z</time>
      </trkpt>
      <trkpt lat="39.540426" lon="-0.53123">
        <ele>62</ele>
        <time>2018-11-04T10:28:26.000Z</time>
      </trkpt>
      <trkpt lat="39.540421" lon="-0.531165">
        <ele>62</ele>
        <time>2018-11-04T10:28:27.000Z</time>
      </trkpt>
      <trkpt lat="39.540411" lon="-0.531103">
        <ele>62</ele>
        <time>2018-11-04T10:28:28.000Z</time>
      </trkpt>
      <trkpt lat="39.540406" lon="-0.531036">
        <ele>61.1100032</ele>
        <time>2018-11-04T10:28:29.000Z</time>
      </trkpt>
      <trkpt lat="39.5404" lon="-0.530974">
        <ele>61</ele>
        <time>2018-11-04T10:28:30.000Z</time>
      </trkpt>
      <trkpt lat="39.540392" lon="-0.530912">
        <ele>61</ele>
        <time>2018-11-04T10:28:31.000Z</time>
      </trkpt>
      <trkpt lat="39.540394" lon="-0.530848">
        <ele>61</ele>
        <time>2018-11-04T10:28:32.000Z</time>
      </trkpt>
      <trkpt lat="39.540403" lon="-0.530782">
        <ele>61</ele>
        <time>2018-11-04T10:28:33.000Z</time>
      </trkpt>
      <trkpt lat="39.540403" lon="-0.530715">
        <ele>61</ele>
        <time>2018-11-04T10:28:34.000Z</time>
      </trkpt>
      <trkpt lat="39.540393" lon="-0.530655">
        <ele>61</ele>
        <time>2018-11-04T10:28:35.000Z</time>
      </trkpt>
      <trkpt lat="39.540379" lon="-0.530605">
        <ele>61</ele>
        <time>2018-11-04T10:28:36.000Z</time>
      </trkpt>
      <trkpt lat="39.540369" lon="-0.530562">
        <ele>60.1100032</ele>
        <time>2018-11-04T10:28:37.000Z</time>
      </trkpt>
      <trkpt lat="39.540364" lon="-0.530531">
        <ele>60</ele>
        <time>2018-11-04T10:28:38.000Z</time>
      </trkpt>
      <trkpt lat="39.540359" lon="-0.530505">
        <ele>59.1100032</ele>
        <time>2018-11-04T10:28:39.000Z</time>
      </trkpt>
      <trkpt lat="39.540357" lon="-0.530463">
        <ele>59</ele>
        <time>2018-11-04T10:28:41.000Z</time>
      </trkpt>
      <trkpt lat="39.540353" lon="-0.530423">
        <ele>59</ele>
        <time>2018-11-04T10:28:43.000Z</time>
      </trkpt>
      <trkpt lat="39.540353" lon="-0.530396">
        <ele>58.111113984278</ele>
        <time>2018-11-04T10:28:44.000Z</time>
      </trkpt>
      <trkpt lat="39.540353" lon="-0.53036">
        <ele>58</ele>
        <time>2018-11-04T10:28:45.000Z</time>
      </trkpt>
      <trkpt lat="39.540353" lon="-0.530318">
        <ele>58</ele>
        <time>2018-11-04T10:28:46.000Z</time>
      </trkpt>
      <trkpt lat="39.540354" lon="-0.530266">
        <ele>58</ele>
        <time>2018-11-04T10:28:47.000Z</time>
      </trkpt>
      <trkpt lat="39.540353" lon="-0.530209">
        <ele>57.3100782885663</ele>
        <time>2018-11-04T10:28:48.000Z</time>
      </trkpt>
      <trkpt lat="39.540352" lon="-0.530148">
        <ele>57</ele>
        <time>2018-11-04T10:28:49.000Z</time>
      </trkpt>
      <trkpt lat="39.540353" lon="-0.530085">
        <ele>57</ele>
        <time>2018-11-04T10:28:50.000Z</time>
      </trkpt>
      <trkpt lat="39.540355" lon="-0.530016">
        <ele>57</ele>
        <time>2018-11-04T10:28:51.000Z</time>
      </trkpt>
      <trkpt lat="39.540358" lon="-0.529944">
        <ele>56.1100032</ele>
        <time>2018-11-04T10:28:52.000Z</time>
      </trkpt>
      <trkpt lat="39.540361" lon="-0.529878">
        <ele>56</ele>
        <time>2018-11-04T10:28:53.000Z</time>
      </trkpt>
      <trkpt lat="39.540364" lon="-0.529814">
        <ele>56</ele>
        <time>2018-11-04T10:28:54.000Z</time>
      </trkpt>
      <trkpt lat="39.540365" lon="-0.529751">
        <ele>56</ele>
        <time>2018-11-04T10:28:55.000Z</time>
      </trkpt>
      <trkpt lat="39.540367" lon="-0.529681">
        <ele>56</ele>
        <time>2018-11-04T10:28:56.000Z</time>
      </trkpt>
      <trkpt lat="39.54037" lon="-0.52961">
        <ele>55.1100032</ele>
        <time>2018-11-04T10:28:57.000Z</time>
      </trkpt>
      <trkpt lat="39.540367" lon="-0.52954">
        <ele>55</ele>
        <time>2018-11-04T10:28:58.000Z</time>
      </trkpt>
      <trkpt lat="39.540359" lon="-0.529464">
        <ele>55</ele>
        <time>2018-11-04T10:28:59.000Z</time>
      </trkpt>
      <trkpt lat="39.540351" lon="-0.529388">
        <ele>55.8899968</ele>
        <time>2018-11-04T10:29:00.000Z</time>
      </trkpt>
      <trkpt lat="39.540338" lon="-0.529318">
        <ele>56</ele>
        <time>2018-11-04T10:29:01.000Z</time>
      </trkpt>
      <trkpt lat="39.540316" lon="-0.529253">
        <ele>56</ele>
        <time>2018-11-04T10:29:02.000Z</time>
      </trkpt>
      <trkpt lat="39.540299" lon="-0.529182">
        <ele>56</ele>
        <time>2018-11-04T10:29:03.000Z</time>
      </trkpt>
      <trkpt lat="39.54028" lon="-0.529112">
        <ele>56</ele>
        <time>2018-11-04T10:29:04.000Z</time>
      </trkpt>
      <trkpt lat="39.540269" lon="-0.529033">
        <ele>56</ele>
        <time>2018-11-04T10:29:05.000Z</time>
      </trkpt>
      <trkpt lat="39.540255" lon="-0.528966">
        <ele>56.8899968</ele>
        <time>2018-11-04T10:29:06.000Z</time>
      </trkpt>
      <trkpt lat="39.540242" lon="-0.528904">
        <ele>57</ele>
        <time>2018-11-04T10:29:07.000Z</time>
      </trkpt>
      <trkpt lat="39.540232" lon="-0.52884">
        <ele>56.1571459918081</ele>
        <time>2018-11-04T10:29:08.000Z</time>
      </trkpt>
      <trkpt lat="39.540221" lon="-0.528777">
        <ele>56</ele>
        <time>2018-11-04T10:29:09.000Z</time>
      </trkpt>
      <trkpt lat="39.540213" lon="-0.528712">
        <ele>56</ele>
        <time>2018-11-04T10:29:10.000Z</time>
      </trkpt>
      <trkpt lat="39.540196" lon="-0.528644">
        <ele>56</ele>
        <time>2018-11-04T10:29:11.000Z</time>
      </trkpt>
      <trkpt lat="39.540166" lon="-0.528585">
        <ele>56</ele>
        <time>2018-11-04T10:29:12.000Z</time>
      </trkpt>
      <trkpt lat="39.540141" lon="-0.52852">
        <ele>56</ele>
        <time>2018-11-04T10:29:13.000Z</time>
      </trkpt>
      <trkpt lat="39.540111" lon="-0.528459">
        <ele>56</ele>
        <time>2018-11-04T10:29:14.000Z</time>
      </trkpt>
      <trkpt lat="39.540066" lon="-0.528418">
        <ele>56</ele>
        <time>2018-11-04T10:29:15.000Z</time>
      </trkpt>
      <trkpt lat="39.540011" lon="-0.528402">
        <ele>56</ele>
        <time>2018-11-04T10:29:16.000Z</time>
      </trkpt>
      <trkpt lat="39.539953" lon="-0.528398">
        <ele>56</ele>
        <time>2018-11-04T10:29:17.000Z</time>
      </trkpt>
      <trkpt lat="39.539895" lon="-0.528396">
        <ele>56</ele>
        <time>2018-11-04T10:29:18.000Z</time>
      </trkpt>
      <trkpt lat="39.539839" lon="-0.528399">
        <ele>56</ele>
        <time>2018-11-04T10:29:19.000Z</time>
      </trkpt>
      <trkpt lat="39.539787" lon="-0.528405">
        <ele>56.8720902542121</ele>
        <time>2018-11-04T10:29:20.000Z</time>
      </trkpt>
      <trkpt lat="39.539737" lon="-0.528412">
        <ele>57</ele>
        <time>2018-11-04T10:29:21.000Z</time>
      </trkpt>
      <trkpt lat="39.539682" lon="-0.52842">
        <ele>57</ele>
        <time>2018-11-04T10:29:22.000Z</time>
      </trkpt>
      <trkpt lat="39.539626" lon="-0.528421">
        <ele>57</ele>
        <time>2018-11-04T10:29:23.000Z</time>
      </trkpt>
      <trkpt lat="39.53957" lon="-0.528428">
        <ele>57</ele>
        <time>2018-11-04T10:29:24.000Z</time>
      </trkpt>
      <trkpt lat="39.539517" lon="-0.528435">
        <ele>57</ele>
        <time>2018-11-04T10:29:25.000Z</time>
      </trkpt>
      <trkpt lat="39.539465" lon="-0.528441">
        <ele>57</ele>
        <time>2018-11-04T10:29:26.000Z</time>
      </trkpt>
      <trkpt lat="39.539412" lon="-0.528445">
        <ele>57</ele>
        <time>2018-11-04T10:29:27.000Z</time>
      </trkpt>
      <trkpt lat="39.539358" lon="-0.528456">
        <ele>56.299216883863</ele>
        <time>2018-11-04T10:29:28.000Z</time>
      </trkpt>
      <trkpt lat="39.539304" lon="-0.528468">
        <ele>56.8493100243727</ele>
        <time>2018-11-04T10:29:29.000Z</time>
      </trkpt>
      <trkpt lat="39.539253" lon="-0.528479">
        <ele>56.1100032</ele>
        <time>2018-11-04T10:29:30.000Z</time>
      </trkpt>
      <trkpt lat="39.539201" lon="-0.528491">
        <ele>56</ele>
        <time>2018-11-04T10:29:31.000Z</time>
      </trkpt>
      <trkpt lat="39.539152" lon="-0.528495">
        <ele>56</ele>
        <time>2018-11-04T10:29:32.000Z</time>
      </trkpt>
      <trkpt lat="39.539104" lon="-0.528489">
        <ele>56</ele>
        <time>2018-11-04T10:29:33.000Z</time>
      </trkpt>
      <trkpt lat="39.539058" lon="-0.528471">
        <ele>56</ele>
        <time>2018-11-04T10:29:34.000Z</time>
      </trkpt>
      <trkpt lat="39.539018" lon="-0.528442">
        <ele>56</ele>
        <time>2018-11-04T10:29:35.000Z</time>
      </trkpt>
      <trkpt lat="39.538974" lon="-0.528405">
        <ele>56</ele>
        <time>2018-11-04T10:29:36.000Z</time>
      </trkpt>
      <trkpt lat="39.538932" lon="-0.528364">
        <ele>56</ele>
        <time>2018-11-04T10:29:37.000Z</time>
      </trkpt>
      <trkpt lat="39.538889" lon="-0.528323">
        <ele>56</ele>
        <time>2018-11-04T10:29:38.000Z</time>
      </trkpt>
      <trkpt lat="39.538848" lon="-0.52828">
        <ele>56</ele>
        <time>2018-11-04T10:29:39.000Z</time>
      </trkpt>
      <trkpt lat="39.53881" lon="-0.528235">
        <ele>56.8899968</ele>
        <time>2018-11-04T10:29:40.000Z</time>
      </trkpt>
      <trkpt lat="39.538773" lon="-0.528195">
        <ele>57</ele>
        <time>2018-11-04T10:29:41.000Z</time>
      </trkpt>
      <trkpt lat="39.538736" lon="-0.528162">
        <ele>57</ele>
        <time>2018-11-04T10:29:42.000Z</time>
      </trkpt>
      <trkpt lat="39.538698" lon="-0.528139">
        <ele>57</ele>
        <time>2018-11-04T10:29:43.000Z</time>
      </trkpt>
      <trkpt lat="39.538658" lon="-0.528111">
        <ele>57</ele>
        <time>2018-11-04T10:29:44.000Z</time>
      </trkpt>
      <trkpt lat="39.538618" lon="-0.52808">
        <ele>57</ele>
        <time>2018-11-04T10:29:45.000Z</time>
      </trkpt>
      <trkpt lat="39.538579" lon="-0.528045">
        <ele>57</ele>
        <time>2018-11-04T10:29:46.000Z</time>
      </trkpt>
      <trkpt lat="39.538541" lon="-0.528006">
        <ele>57</ele>
        <time>2018-11-04T10:29:47.000Z</time>
      </trkpt>
      <trkpt lat="39.538501" lon="-0.527965">
        <ele>56.1506873334268</ele>
        <time>2018-11-04T10:29:48.000Z</time>
      </trkpt>
      <trkpt lat="39.538456" lon="-0.527928">
        <ele>56</ele>
        <time>2018-11-04T10:29:49.000Z</time>
      </trkpt>
      <trkpt lat="39.538417" lon="-0.527889">
        <ele>56</ele>
        <time>2018-11-04T10:29:50.000Z</time>
      </trkpt>
      <trkpt lat="39.538382" lon="-0.527852">
        <ele>56.8899968</ele>
        <time>2018-11-04T10:29:51.000Z</time>
      </trkpt>
      <trkpt lat="39.538349" lon="-0.527808">
        <ele>57</ele>
        <time>2018-11-04T10:29:52.000Z</time>
      </trkpt>
      <trkpt lat="39.538319" lon="-0.527759">
        <ele>57.8899968</ele>
        <time>2018-11-04T10:29:53.000Z</time>
      </trkpt>
      <trkpt lat="39.538294" lon="-0.527709">
        <ele>58</ele>
        <time>2018-11-04T10:29:54.000Z</time>
      </trkpt>
      <trkpt lat="39.538264" lon="-0.527663">
        <ele>58</ele>
        <time>2018-11-04T10:29:55.000Z</time>
      </trkpt>
      <trkpt lat="39.538235" lon="-0.52762">
        <ele>58</ele>
        <time>2018-11-04T10:29:56.000Z</time>
      </trkpt>
      <trkpt lat="39.538201" lon="-0.527578">
        <ele>58</ele>
        <time>2018-11-04T10:29:57.000Z</time>
      </trkpt>
      <trkpt lat="39.53816" lon="-0.527546">
        <ele>58.8899968</ele>
        <time>2018-11-04T10:29:58.000Z</time>
      </trkpt>
      <trkpt lat="39.538113" lon="-0.527522">
        <ele>59</ele>
        <time>2018-11-04T10:29:59.000Z</time>
      </trkpt>
      <trkpt lat="39.538067" lon="-0.5275">
        <ele>59</ele>
        <time>2018-11-04T10:30:00.000Z</time>
      </trkpt>
      <trkpt lat="39.538023" lon="-0.52748">
        <ele>59</ele>
        <time>2018-11-04T10:30:01.000Z</time>
      </trkpt>
      <trkpt lat="39.537982" lon="-0.527459">
        <ele>59</ele>
        <time>2018-11-04T10:30:02.000Z</time>
      </trkpt>
      <trkpt lat="39.53794" lon="-0.527434">
        <ele>59</ele>
        <time>2018-11-04T10:30:03.000Z</time>
      </trkpt>
      <trkpt lat="39.537898" lon="-0.527409">
        <ele>59</ele>
        <time>2018-11-04T10:30:04.000Z</time>
      </trkpt>
      <trkpt lat="39.537854" lon="-0.527386">
        <ele>59.8899968</ele>
        <time>2018-11-04T10:30:05.000Z</time>
      </trkpt>
      <trkpt lat="39.537811" lon="-0.52736">
        <ele>60</ele>
        <time>2018-11-04T10:30:06.000Z</time>
      </trkpt>
      <trkpt lat="39.53777" lon="-0.527333">
        <ele>60</ele>
        <time>2018-11-04T10:30:07.000Z</time>
      </trkpt>
      <trkpt lat="39.537726" lon="-0.527307">
        <ele>60</ele>
        <time>2018-11-04T10:30:08.000Z</time>
      </trkpt>
      <trkpt lat="39.537683" lon="-0.527279">
        <ele>60</ele>
        <time>2018-11-04T10:30:09.000Z</time>
      </trkpt>
      <trkpt lat="39.537639" lon="-0.527247">
        <ele>60</ele>
        <time>2018-11-04T10:30:10.000Z</time>
      </trkpt>
      <trkpt lat="39.537596" lon="-0.527217">
        <ele>60.8899968</ele>
        <time>2018-11-04T10:30:11.000Z</time>
      </trkpt>
      <trkpt lat="39.537554" lon="-0.527183">
        <ele>61</ele>
        <time>2018-11-04T10:30:12.000Z</time>
      </trkpt>
      <trkpt lat="39.537511" lon="-0.527147">
        <ele>61</ele>
        <time>2018-11-04T10:30:13.000Z</time>
      </trkpt>
      <trkpt lat="39.53747" lon="-0.527108">
        <ele>61</ele>
        <time>2018-11-04T10:30:14.000Z</time>
      </trkpt>
      <trkpt lat="39.53743" lon="-0.527059">
        <ele>61</ele>
        <time>2018-11-04T10:30:15.000Z</time>
      </trkpt>
      <trkpt lat="39.53739" lon="-0.527012">
        <ele>61</ele>
        <time>2018-11-04T10:30:16.000Z</time>
      </trkpt>
      <trkpt lat="39.53735" lon="-0.526966">
        <ele>61.8493100243727</ele>
        <time>2018-11-04T10:30:17.000Z</time>
      </trkpt>
      <trkpt lat="39.537313" lon="-0.526921">
        <ele>62</ele>
        <time>2018-11-04T10:30:18.000Z</time>
      </trkpt>
      <trkpt lat="39.537277" lon="-0.526875">
        <ele>62</ele>
        <time>2018-11-04T10:30:19.000Z</time>
      </trkpt>
      <trkpt lat="39.537242" lon="-0.526825">
        <ele>62</ele>
        <time>2018-11-04T10:30:20.000Z</time>
      </trkpt>
      <trkpt lat="39.537215" lon="-0.526769">
        <ele>62</ele>
        <time>2018-11-04T10:30:21.000Z</time>
      </trkpt>
      <trkpt lat="39.537195" lon="-0.526711">
        <ele>62</ele>
        <time>2018-11-04T10:30:22.000Z</time>
      </trkpt>
      <trkpt lat="39.537181" lon="-0.526651">
        <ele>62</ele>
        <time>2018-11-04T10:30:23.000Z</time>
      </trkpt>
      <trkpt lat="39.537164" lon="-0.526594">
        <ele>62</ele>
        <time>2018-11-04T10:30:24.000Z</time>
      </trkpt>
      <trkpt lat="39.537142" lon="-0.526539">
        <ele>62</ele>
        <time>2018-11-04T10:30:25.000Z</time>
      </trkpt>
      <trkpt lat="39.537113" lon="-0.526492">
        <ele>61.3921544021685</ele>
        <time>2018-11-04T10:30:26.000Z</time>
      </trkpt>
      <trkpt lat="39.537076" lon="-0.526457">
        <ele>61</ele>
        <time>2018-11-04T10:30:27.000Z</time>
      </trkpt>
      <trkpt lat="39.537036" lon="-0.526419">
        <ele>61</ele>
        <time>2018-11-04T10:30:28.000Z</time>
      </trkpt>
      <trkpt lat="39.536989" lon="-0.526378">
        <ele>60.1100032</ele>
        <time>2018-11-04T10:30:29.000Z</time>
      </trkpt>
      <trkpt lat="39.536944" lon="-0.526333">
        <ele>60.8899968</ele>
        <time>2018-11-04T10:30:30.000Z</time>
      </trkpt>
      <trkpt lat="39.536899" lon="-0.526286">
        <ele>61</ele>
        <time>2018-11-04T10:30:31.000Z</time>
      </trkpt>
      <trkpt lat="39.53685" lon="-0.526247">
        <ele>61</ele>
        <time>2018-11-04T10:30:32.000Z</time>
      </trkpt>
      <trkpt lat="39.536792" lon="-0.526214">
        <ele>61</ele>
        <time>2018-11-04T10:30:33.000Z</time>
      </trkpt>
      <trkpt lat="39.536741" lon="-0.526187">
        <ele>61.8899968</ele>
        <time>2018-11-04T10:30:34.000Z</time>
      </trkpt>
      <trkpt lat="39.536696" lon="-0.526158">
        <ele>62</ele>
        <time>2018-11-04T10:30:35.000Z</time>
      </trkpt>
      <trkpt lat="39.536651" lon="-0.526128">
        <ele>62</ele>
        <time>2018-11-04T10:30:36.000Z</time>
      </trkpt>
      <trkpt lat="39.536607" lon="-0.526093">
        <ele>62</ele>
        <time>2018-11-04T10:30:37.000Z</time>
      </trkpt>
      <trkpt lat="39.53656" lon="-0.526052">
        <ele>62</ele>
        <time>2018-11-04T10:30:38.000Z</time>
      </trkpt>
      <trkpt lat="39.536518" lon="-0.526014">
        <ele>62.8899968</ele>
        <time>2018-11-04T10:30:39.000Z</time>
      </trkpt>
      <trkpt lat="39.536481" lon="-0.525983">
        <ele>63.8899968</ele>
        <time>2018-11-04T10:30:40.000Z</time>
      </trkpt>
      <trkpt lat="39.536446" lon="-0.525954">
        <ele>64</ele>
        <time>2018-11-04T10:30:41.000Z</time>
      </trkpt>
      <trkpt lat="39.536411" lon="-0.525934">
        <ele>64</ele>
        <time>2018-11-04T10:30:42.000Z</time>
      </trkpt>
      <trkpt lat="39.536374" lon="-0.525919">
        <ele>64</ele>
        <time>2018-11-04T10:30:43.000Z</time>
      </trkpt>
      <trkpt lat="39.536337" lon="-0.525908">
        <ele>64</ele>
        <time>2018-11-04T10:30:44.000Z</time>
      </trkpt>
      <trkpt lat="39.5363" lon="-0.525894">
        <ele>64</ele>
        <time>2018-11-04T10:30:45.000Z</time>
      </trkpt>
      <trkpt lat="39.536262" lon="-0.525871">
        <ele>64</ele>
        <time>2018-11-04T10:30:46.000Z</time>
      </trkpt>
      <trkpt lat="39.536227" lon="-0.525837">
        <ele>64</ele>
        <time>2018-11-04T10:30:47.000Z</time>
      </trkpt>
      <trkpt lat="39.53619" lon="-0.525797">
        <ele>64</ele>
        <time>2018-11-04T10:30:48.000Z</time>
      </trkpt>
      <trkpt lat="39.536149" lon="-0.525755">
        <ele>64</ele>
        <time>2018-11-04T10:30:49.000Z</time>
      </trkpt>
      <trkpt lat="39.536103" lon="-0.525714">
        <ele>64</ele>
        <time>2018-11-04T10:30:50.000Z</time>
      </trkpt>
      <trkpt lat="39.536055" lon="-0.525679">
        <ele>64.8899968</ele>
        <time>2018-11-04T10:30:51.000Z</time>
      </trkpt>
      <trkpt lat="39.53601" lon="-0.525647">
        <ele>64.1100032</ele>
        <time>2018-11-04T10:30:52.000Z</time>
      </trkpt>
      <trkpt lat="39.53597" lon="-0.525619">
        <ele>64</ele>
        <time>2018-11-04T10:30:53.000Z</time>
      </trkpt>
      <trkpt lat="39.535933" lon="-0.525589">
        <ele>64</ele>
        <time>2018-11-04T10:30:54.000Z</time>
      </trkpt>
      <trkpt lat="39.535903" lon="-0.525566">
        <ele>64</ele>
        <time>2018-11-04T10:30:55.000Z</time>
      </trkpt>
      <trkpt lat="39.535874" lon="-0.525542">
        <ele>64</ele>
        <time>2018-11-04T10:30:56.000Z</time>
      </trkpt>
      <trkpt lat="39.535845" lon="-0.525518">
        <ele>64</ele>
        <time>2018-11-04T10:30:57.000Z</time>
      </trkpt>
      <trkpt lat="39.535817" lon="-0.525489">
        <ele>64</ele>
        <time>2018-11-04T10:30:58.000Z</time>
      </trkpt>
      <trkpt lat="39.535791" lon="-0.525453">
        <ele>64.8450666137843</ele>
        <time>2018-11-04T10:30:59.000Z</time>
      </trkpt>
      <trkpt lat="39.535766" lon="-0.52541">
        <ele>65</ele>
        <time>2018-11-04T10:31:00.000Z</time>
      </trkpt>
      <trkpt lat="39.535743" lon="-0.525368">
        <ele>65</ele>
        <time>2018-11-04T10:31:01.000Z</time>
      </trkpt>
      <trkpt lat="39.535724" lon="-0.525332">
        <ele>65</ele>
        <time>2018-11-04T10:31:02.000Z</time>
      </trkpt>
      <trkpt lat="39.535706" lon="-0.525296">
        <ele>64.2992098207987</ele>
        <time>2018-11-04T10:31:03.000Z</time>
      </trkpt>
      <trkpt lat="39.535687" lon="-0.525249">
        <ele>64</ele>
        <time>2018-11-04T10:31:04.000Z</time>
      </trkpt>
      <trkpt lat="39.535663" lon="-0.525191">
        <ele>64</ele>
        <time>2018-11-04T10:31:05.000Z</time>
      </trkpt>
      <trkpt lat="39.535636" lon="-0.525126">
        <ele>63.1100032</ele>
        <time>2018-11-04T10:31:06.000Z</time>
      </trkpt>
      <trkpt lat="39.535599" lon="-0.525062">
        <ele>63</ele>
        <time>2018-11-04T10:31:07.000Z</time>
      </trkpt>
      <trkpt lat="39.535557" lon="-0.525008">
        <ele>63</ele>
        <time>2018-11-04T10:31:08.000Z</time>
      </trkpt>
      <trkpt lat="39.535512" lon="-0.524968">
        <ele>63</ele>
        <time>2018-11-04T10:31:09.000Z</time>
      </trkpt>
      <trkpt lat="39.535463" lon="-0.524924">
        <ele>63</ele>
        <time>2018-11-04T10:31:10.000Z</time>
      </trkpt>
      <trkpt lat="39.535411" lon="-0.524874">
        <ele>63</ele>
        <time>2018-11-04T10:31:11.000Z</time>
      </trkpt>
      <trkpt lat="39.535356" lon="-0.524836">
        <ele>62.1100032</ele>
        <time>2018-11-04T10:31:12.000Z</time>
      </trkpt>
      <trkpt lat="39.535291" lon="-0.524804">
        <ele>62</ele>
        <time>2018-11-04T10:31:13.000Z</time>
      </trkpt>
      <trkpt lat="39.535235" lon="-0.524765">
        <ele>61.1100032</ele>
        <time>2018-11-04T10:31:14.000Z</time>
      </trkpt>
      <trkpt lat="39.535185" lon="-0.524718">
        <ele>60.1100032</ele>
        <time>2018-11-04T10:31:15.000Z</time>
      </trkpt>
      <trkpt lat="39.535142" lon="-0.524662">
        <ele>60</ele>
        <time>2018-11-04T10:31:16.000Z</time>
      </trkpt>
      <trkpt lat="39.535102" lon="-0.5246">
        <ele>60</ele>
        <time>2018-11-04T10:31:17.000Z</time>
      </trkpt>
      <trkpt lat="39.535069" lon="-0.524532">
        <ele>60</ele>
        <time>2018-11-04T10:31:18.000Z</time>
      </trkpt>
      <trkpt lat="39.535035" lon="-0.524466">
        <ele>60</ele>
        <time>2018-11-04T10:31:19.000Z</time>
      </trkpt>
      <trkpt lat="39.53499" lon="-0.524412">
        <ele>60</ele>
        <time>2018-11-04T10:31:20.000Z</time>
      </trkpt>
      <trkpt lat="39.534941" lon="-0.524368">
        <ele>60</ele>
        <time>2018-11-04T10:31:21.000Z</time>
      </trkpt>
      <trkpt lat="39.534888" lon="-0.524336">
        <ele>60</ele>
        <time>2018-11-04T10:31:22.000Z</time>
      </trkpt>
      <trkpt lat="39.534833" lon="-0.52431">
        <ele>60</ele>
        <time>2018-11-04T10:31:23.000Z</time>
      </trkpt>
      <trkpt lat="39.534779" lon="-0.524294">
        <ele>60.8909952</ele>
        <time>2018-11-04T10:31:24.000Z</time>
      </trkpt>
      <trkpt lat="39.534727" lon="-0.524288">
        <ele>61</ele>
        <time>2018-11-04T10:31:25.000Z</time>
      </trkpt>
      <trkpt lat="39.534676" lon="-0.524284">
        <ele>61</ele>
        <time>2018-11-04T10:31:26.000Z</time>
      </trkpt>
      <trkpt lat="39.534625" lon="-0.52428">
        <ele>61</ele>
        <time>2018-11-04T10:31:27.000Z</time>
      </trkpt>
      <trkpt lat="39.534573" lon="-0.52428">
        <ele>60.1090048</ele>
        <time>2018-11-04T10:31:28.000Z</time>
      </trkpt>
      <trkpt lat="39.534522" lon="-0.524282">
        <ele>59.1090048</ele>
        <time>2018-11-04T10:31:29.000Z</time>
      </trkpt>
      <trkpt lat="39.53447" lon="-0.524285">
        <ele>59</ele>
        <time>2018-11-04T10:31:30.000Z</time>
      </trkpt>
      <trkpt lat="39.534416" lon="-0.524288">
        <ele>59</ele>
        <time>2018-11-04T10:31:31.000Z</time>
      </trkpt>
      <trkpt lat="39.534363" lon="-0.524296">
        <ele>58.1090048</ele>
        <time>2018-11-04T10:31:32.000Z</time>
      </trkpt>
      <trkpt lat="39.534312" lon="-0.524302">
        <ele>58</ele>
        <time>2018-11-04T10:31:33.000Z</time>
      </trkpt>
      <trkpt lat="39.53426" lon="-0.52431">
        <ele>58</ele>
        <time>2018-11-04T10:31:34.000Z</time>
      </trkpt>
      <trkpt lat="39.534209" lon="-0.524318">
        <ele>58</ele>
        <time>2018-11-04T10:31:35.000Z</time>
      </trkpt>
      <trkpt lat="39.534157" lon="-0.524322">
        <ele>57.1516057822403</ele>
        <time>2018-11-04T10:31:36.000Z</time>
      </trkpt>
      <trkpt lat="39.534107" lon="-0.524319">
        <ele>57</ele>
        <time>2018-11-04T10:31:37.000Z</time>
      </trkpt>
      <trkpt lat="39.534056" lon="-0.524314">
        <ele>57</ele>
        <time>2018-11-04T10:31:38.000Z</time>
      </trkpt>
      <trkpt lat="39.534004" lon="-0.524302">
        <ele>57</ele>
        <time>2018-11-04T10:31:39.000Z</time>
      </trkpt>
      <trkpt lat="39.533952" lon="-0.524287">
        <ele>57</ele>
        <time>2018-11-04T10:31:40.000Z</time>
      </trkpt>
      <trkpt lat="39.5339" lon="-0.524272">
        <ele>57</ele>
        <time>2018-11-04T10:31:41.000Z</time>
      </trkpt>
      <trkpt lat="39.533847" lon="-0.524256">
        <ele>57</ele>
        <time>2018-11-04T10:31:42.000Z</time>
      </trkpt>
      <trkpt lat="39.533795" lon="-0.524244">
        <ele>57</ele>
        <time>2018-11-04T10:31:43.000Z</time>
      </trkpt>
      <trkpt lat="39.533743" lon="-0.524232">
        <ele>57</ele>
        <time>2018-11-04T10:31:44.000Z</time>
      </trkpt>
      <trkpt lat="39.533693" lon="-0.524224">
        <ele>56.1516057822403</ele>
        <time>2018-11-04T10:31:45.000Z</time>
      </trkpt>
      <trkpt lat="39.533642" lon="-0.524211">
        <ele>56</ele>
        <time>2018-11-04T10:31:46.000Z</time>
      </trkpt>
      <trkpt lat="39.533593" lon="-0.524192">
        <ele>56</ele>
        <time>2018-11-04T10:31:47.000Z</time>
      </trkpt>
      <trkpt lat="39.533548" lon="-0.524172">
        <ele>55.1090048</ele>
        <time>2018-11-04T10:31:48.000Z</time>
      </trkpt>
      <trkpt lat="39.533499" lon="-0.524152">
        <ele>55</ele>
        <time>2018-11-04T10:31:49.000Z</time>
      </trkpt>
      <trkpt lat="39.53345" lon="-0.524132">
        <ele>55</ele>
        <time>2018-11-04T10:31:50.000Z</time>
      </trkpt>
      <trkpt lat="39.533403" lon="-0.524114">
        <ele>55</ele>
        <time>2018-11-04T10:31:51.000Z</time>
      </trkpt>
      <trkpt lat="39.533354" lon="-0.524099">
        <ele>55</ele>
        <time>2018-11-04T10:31:52.000Z</time>
      </trkpt>
      <trkpt lat="39.533304" lon="-0.524084">
        <ele>55</ele>
        <time>2018-11-04T10:31:53.000Z</time>
      </trkpt>
      <trkpt lat="39.533255" lon="-0.52407">
        <ele>55</ele>
        <time>2018-11-04T10:31:54.000Z</time>
      </trkpt>
      <trkpt lat="39.533205" lon="-0.524061">
        <ele>55</ele>
        <time>2018-11-04T10:31:55.000Z</time>
      </trkpt>
      <trkpt lat="39.533154" lon="-0.524057">
        <ele>55</ele>
        <time>2018-11-04T10:31:56.000Z</time>
      </trkpt>
      <trkpt lat="39.533104" lon="-0.524056">
        <ele>55</ele>
        <time>2018-11-04T10:31:57.000Z</time>
      </trkpt>
      <trkpt lat="39.533054" lon="-0.524057">
        <ele>55</ele>
        <time>2018-11-04T10:31:58.000Z</time>
      </trkpt>
      <trkpt lat="39.533005" lon="-0.524062">
        <ele>55</ele>
        <time>2018-11-04T10:31:59.000Z</time>
      </trkpt>
      <trkpt lat="39.532957" lon="-0.524071">
        <ele>55</ele>
        <time>2018-11-04T10:32:00.000Z</time>
      </trkpt>
      <trkpt lat="39.532908" lon="-0.524081">
        <ele>55</ele>
        <time>2018-11-04T10:32:01.000Z</time>
      </trkpt>
      <trkpt lat="39.53286" lon="-0.524091">
        <ele>54.1090048</ele>
        <time>2018-11-04T10:32:02.000Z</time>
      </trkpt>
      <trkpt lat="39.532813" lon="-0.5241">
        <ele>54</ele>
        <time>2018-11-04T10:32:03.000Z</time>
      </trkpt>
      <trkpt lat="39.53277" lon="-0.524098">
        <ele>54</ele>
        <time>2018-11-04T10:32:04.000Z</time>
      </trkpt>
      <trkpt lat="39.532728" lon="-0.524087">
        <ele>54</ele>
        <time>2018-11-04T10:32:05.000Z</time>
      </trkpt>
      <trkpt lat="39.532687" lon="-0.524071">
        <ele>54</ele>
        <time>2018-11-04T10:32:06.000Z</time>
      </trkpt>
      <trkpt lat="39.532645" lon="-0.524051">
        <ele>54</ele>
        <time>2018-11-04T10:32:07.000Z</time>
      </trkpt>
      <trkpt lat="39.5326" lon="-0.524021">
        <ele>54</ele>
        <time>2018-11-04T10:32:08.000Z</time>
      </trkpt>
      <trkpt lat="39.532552" lon="-0.523983">
        <ele>54</ele>
        <time>2018-11-04T10:32:09.000Z</time>
      </trkpt>
      <trkpt lat="39.532502" lon="-0.523948">
        <ele>54</ele>
        <time>2018-11-04T10:32:10.000Z</time>
      </trkpt>
      <trkpt lat="39.532458" lon="-0.523918">
        <ele>54</ele>
        <time>2018-11-04T10:32:11.000Z</time>
      </trkpt>
      <trkpt lat="39.532415" lon="-0.52388">
        <ele>54</ele>
        <time>2018-11-04T10:32:12.000Z</time>
      </trkpt>
      <trkpt lat="39.532377" lon="-0.523836">
        <ele>54</ele>
        <time>2018-11-04T10:32:13.000Z</time>
      </trkpt>
      <trkpt lat="39.532346" lon="-0.523791">
        <ele>54</ele>
        <time>2018-11-04T10:32:14.000Z</time>
      </trkpt>
      <trkpt lat="39.532318" lon="-0.523756">
        <ele>54.690695666842</ele>
        <time>2018-11-04T10:32:15.000Z</time>
      </trkpt>
      <trkpt lat="39.532287" lon="-0.523729">
        <ele>55</ele>
        <time>2018-11-04T10:32:16.000Z</time>
      </trkpt>
      <trkpt lat="39.532257" lon="-0.523699">
        <ele>55</ele>
        <time>2018-11-04T10:32:17.000Z</time>
      </trkpt>
      <trkpt lat="39.532227" lon="-0.523667">
        <ele>55</ele>
        <time>2018-11-04T10:32:18.000Z</time>
      </trkpt>
      <trkpt lat="39.532197" lon="-0.52364">
        <ele>55</ele>
        <time>2018-11-04T10:32:19.000Z</time>
      </trkpt>
      <trkpt lat="39.532167" lon="-0.523612">
        <ele>55</ele>
        <time>2018-11-04T10:32:20.000Z</time>
      </trkpt>
      <trkpt lat="39.532141" lon="-0.523582">
        <ele>55</ele>
        <time>2018-11-04T10:32:21.000Z</time>
      </trkpt>
      <trkpt lat="39.532118" lon="-0.523548">
        <ele>55</ele>
        <time>2018-11-04T10:32:22.000Z</time>
      </trkpt>
      <trkpt lat="39.532091" lon="-0.523518">
        <ele>55.8909952</ele>
        <time>2018-11-04T10:32:23.000Z</time>
      </trkpt>
      <trkpt lat="39.532064" lon="-0.523488">
        <ele>56</ele>
        <time>2018-11-04T10:32:24.000Z</time>
      </trkpt>
      <trkpt lat="39.532036" lon="-0.523459">
        <ele>56</ele>
        <time>2018-11-04T10:32:25.000Z</time>
      </trkpt>
      <trkpt lat="39.532004" lon="-0.523432">
        <ele>56.8909952</ele>
        <time>2018-11-04T10:32:26.000Z</time>
      </trkpt>
      <trkpt lat="39.531973" lon="-0.523403">
        <ele>57</ele>
        <time>2018-11-04T10:32:27.000Z</time>
      </trkpt>
      <trkpt lat="39.531942" lon="-0.523369">
        <ele>57</ele>
        <time>2018-11-04T10:32:28.000Z</time>
      </trkpt>
      <trkpt lat="39.531909" lon="-0.523333">
        <ele>57.8504731971977</ele>
        <time>2018-11-04T10:32:29.000Z</time>
      </trkpt>
      <trkpt lat="39.531875" lon="-0.523297">
        <ele>58</ele>
        <time>2018-11-04T10:32:30.000Z</time>
      </trkpt>
      <trkpt lat="39.531837" lon="-0.523268">
        <ele>58</ele>
        <time>2018-11-04T10:32:31.000Z</time>
      </trkpt>
      <trkpt lat="39.531796" lon="-0.523245">
        <ele>58</ele>
        <time>2018-11-04T10:32:32.000Z</time>
      </trkpt>
      <trkpt lat="39.531755" lon="-0.523223">
        <ele>58.8897833458442</ele>
        <time>2018-11-04T10:32:33.000Z</time>
      </trkpt>
      <trkpt lat="39.531713" lon="-0.523198">
        <ele>59</ele>
        <time>2018-11-04T10:32:34.000Z</time>
      </trkpt>
      <trkpt lat="39.531676" lon="-0.523172">
        <ele>59</ele>
        <time>2018-11-04T10:32:35.000Z</time>
      </trkpt>
      <trkpt lat="39.531642" lon="-0.52315">
        <ele>59</ele>
        <time>2018-11-04T10:32:36.000Z</time>
      </trkpt>
      <trkpt lat="39.531607" lon="-0.523138">
        <ele>59</ele>
        <time>2018-11-04T10:32:37.000Z</time>
      </trkpt>
      <trkpt lat="39.531576" lon="-0.523126">
        <ele>59</ele>
        <time>2018-11-04T10:32:38.000Z</time>
      </trkpt>
      <trkpt lat="39.531552" lon="-0.523105">
        <ele>59</ele>
        <time>2018-11-04T10:32:39.000Z</time>
      </trkpt>
      <trkpt lat="39.53153" lon="-0.523079">
        <ele>59</ele>
        <time>2018-11-04T10:32:40.000Z</time>
      </trkpt>
      <trkpt lat="39.531507" lon="-0.523055">
        <ele>59.6796293765011</ele>
        <time>2018-11-04T10:32:41.000Z</time>
      </trkpt>
      <trkpt lat="39.531483" lon="-0.523031">
        <ele>60</ele>
        <time>2018-11-04T10:32:42.000Z</time>
      </trkpt>
      <trkpt lat="39.531455" lon="-0.523002">
        <ele>60.872675985708</ele>
        <time>2018-11-04T10:32:43.000Z</time>
      </trkpt>
      <trkpt lat="39.531431" lon="-0.522974">
        <ele>61</ele>
        <time>2018-11-04T10:32:44.000Z</time>
      </trkpt>
      <trkpt lat="39.531408" lon="-0.522943">
        <ele>61.8909952</ele>
        <time>2018-11-04T10:32:45.000Z</time>
      </trkpt>
      <trkpt lat="39.531381" lon="-0.522911">
        <ele>62</ele>
        <time>2018-11-04T10:32:46.000Z</time>
      </trkpt>
      <trkpt lat="39.531352" lon="-0.522881">
        <ele>62</ele>
        <time>2018-11-04T10:32:47.000Z</time>
      </trkpt>
      <trkpt lat="39.531322" lon="-0.522849">
        <ele>62</ele>
        <time>2018-11-04T10:32:48.000Z</time>
      </trkpt>
      <trkpt lat="39.531286" lon="-0.522816">
        <ele>62</ele>
        <time>2018-11-04T10:32:49.000Z</time>
      </trkpt>
      <trkpt lat="39.531233" lon="-0.522787">
        <ele>62</ele>
        <time>2018-11-04T10:32:50.000Z</time>
      </trkpt>
      <trkpt lat="39.531176" lon="-0.52278">
        <ele>61.1090048</ele>
        <time>2018-11-04T10:32:51.000Z</time>
      </trkpt>
      <trkpt lat="39.531116" lon="-0.522799">
        <ele>61</ele>
        <time>2018-11-04T10:32:52.000Z</time>
      </trkpt>
      <trkpt lat="39.531058" lon="-0.522834">
        <ele>61</ele>
        <time>2018-11-04T10:32:53.000Z</time>
      </trkpt>
      <trkpt lat="39.531007" lon="-0.522872">
        <ele>60.1090048</ele>
        <time>2018-11-04T10:32:54.000Z</time>
      </trkpt>
      <trkpt lat="39.530954" lon="-0.522905">
        <ele>60</ele>
        <time>2018-11-04T10:32:55.000Z</time>
      </trkpt>
      <trkpt lat="39.530899" lon="-0.522928">
        <ele>60</ele>
        <time>2018-11-04T10:32:56.000Z</time>
      </trkpt>
      <trkpt lat="39.530843" lon="-0.522948">
        <ele>59.2989747824686</ele>
        <time>2018-11-04T10:32:57.000Z</time>
      </trkpt>
      <trkpt lat="39.53079" lon="-0.522973">
        <ele>59</ele>
        <time>2018-11-04T10:32:58.000Z</time>
      </trkpt>
      <trkpt lat="39.53074" lon="-0.523">
        <ele>59</ele>
        <time>2018-11-04T10:32:59.000Z</time>
      </trkpt>
      <trkpt lat="39.530696" lon="-0.523028">
        <ele>59</ele>
        <time>2018-11-04T10:33:00.000Z</time>
      </trkpt>
      <trkpt lat="39.530655" lon="-0.523057">
        <ele>59</ele>
        <time>2018-11-04T10:33:01.000Z</time>
      </trkpt>
      <trkpt lat="39.530615" lon="-0.523078">
        <ele>59</ele>
        <time>2018-11-04T10:33:02.000Z</time>
      </trkpt>
      <trkpt lat="39.530573" lon="-0.523096">
        <ele>59</ele>
        <time>2018-11-04T10:33:03.000Z</time>
      </trkpt>
      <trkpt lat="39.530531" lon="-0.523109">
        <ele>59</ele>
        <time>2018-11-04T10:33:04.000Z</time>
      </trkpt>
      <trkpt lat="39.530484" lon="-0.523118">
        <ele>59</ele>
        <time>2018-11-04T10:33:05.000Z</time>
      </trkpt>
      <trkpt lat="39.530431" lon="-0.523122">
        <ele>58.118812257623</ele>
        <time>2018-11-04T10:33:06.000Z</time>
      </trkpt>
      <trkpt lat="39.530383" lon="-0.523125">
        <ele>58</ele>
        <time>2018-11-04T10:33:07.000Z</time>
      </trkpt>
      <trkpt lat="39.53034" lon="-0.523128">
        <ele>58.8899968</ele>
        <time>2018-11-04T10:33:08.000Z</time>
      </trkpt>
      <trkpt lat="39.530294" lon="-0.523113">
        <ele>59</ele>
        <time>2018-11-04T10:33:09.000Z</time>
      </trkpt>
      <trkpt lat="39.530261" lon="-0.523086">
        <ele>59</ele>
        <time>2018-11-04T10:33:10.000Z</time>
      </trkpt>
      <trkpt lat="39.530232" lon="-0.52304">
        <ele>59</ele>
        <time>2018-11-04T10:33:11.000Z</time>
      </trkpt>
      <trkpt lat="39.530204" lon="-0.522983">
        <ele>59</ele>
        <time>2018-11-04T10:33:12.000Z</time>
      </trkpt>
      <trkpt lat="39.53017" lon="-0.522946">
        <ele>59</ele>
        <time>2018-11-04T10:33:13.000Z</time>
      </trkpt>
      <trkpt lat="39.530124" lon="-0.522917">
        <ele>59</ele>
        <time>2018-11-04T10:33:14.000Z</time>
      </trkpt>
      <trkpt lat="39.530069" lon="-0.522883">
        <ele>59</ele>
        <time>2018-11-04T10:33:15.000Z</time>
      </trkpt>
      <trkpt lat="39.530024" lon="-0.52284">
        <ele>59.700783116137</ele>
        <time>2018-11-04T10:33:16.000Z</time>
      </trkpt>
      <trkpt lat="39.529972" lon="-0.522815">
        <ele>60</ele>
        <time>2018-11-04T10:33:17.000Z</time>
      </trkpt>
      <trkpt lat="39.529917" lon="-0.522781">
        <ele>60</ele>
        <time>2018-11-04T10:33:18.000Z</time>
      </trkpt>
      <trkpt lat="39.529868" lon="-0.522743">
        <ele>60</ele>
        <time>2018-11-04T10:33:19.000Z</time>
      </trkpt>
      <trkpt lat="39.529825" lon="-0.522698">
        <ele>60</ele>
        <time>2018-11-04T10:33:20.000Z</time>
      </trkpt>
      <trkpt lat="39.529782" lon="-0.522655">
        <ele>60.8899968</ele>
        <time>2018-11-04T10:33:21.000Z</time>
      </trkpt>
      <trkpt lat="39.529742" lon="-0.522612">
        <ele>61</ele>
        <time>2018-11-04T10:33:22.000Z</time>
      </trkpt>
      <trkpt lat="39.529702" lon="-0.522569">
        <ele>61.8450666137843</ele>
        <time>2018-11-04T10:33:23.000Z</time>
      </trkpt>
      <trkpt lat="39.529668" lon="-0.52253">
        <ele>62</ele>
        <time>2018-11-04T10:33:24.000Z</time>
      </trkpt>
      <trkpt lat="39.529636" lon="-0.522488">
        <ele>62.888886015722</ele>
        <time>2018-11-04T10:33:25.000Z</time>
      </trkpt>
      <trkpt lat="39.529608" lon="-0.522448">
        <ele>63</ele>
        <time>2018-11-04T10:33:26.000Z</time>
      </trkpt>
      <trkpt lat="39.529583" lon="-0.522406">
        <ele>63.8899968</ele>
        <time>2018-11-04T10:33:27.000Z</time>
      </trkpt>
      <trkpt lat="39.529553" lon="-0.522367">
        <ele>64</ele>
        <time>2018-11-04T10:33:28.000Z</time>
      </trkpt>
      <trkpt lat="39.529517" lon="-0.52234">
        <ele>64</ele>
        <time>2018-11-04T10:33:29.000Z</time>
      </trkpt>
      <trkpt lat="39.529477" lon="-0.522307">
        <ele>64.8899968</ele>
        <time>2018-11-04T10:33:30.000Z</time>
      </trkpt>
      <trkpt lat="39.529436" lon="-0.522272">
        <ele>65</ele>
        <time>2018-11-04T10:33:31.000Z</time>
      </trkpt>
      <trkpt lat="39.529391" lon="-0.522238">
        <ele>65</ele>
        <time>2018-11-04T10:33:32.000Z</time>
      </trkpt>
      <trkpt lat="39.529342" lon="-0.522216">
        <ele>65</ele>
        <time>2018-11-04T10:33:33.000Z</time>
      </trkpt>
      <trkpt lat="39.52929" lon="-0.522204">
        <ele>65</ele>
        <time>2018-11-04T10:33:34.000Z</time>
      </trkpt>
      <trkpt lat="39.529235" lon="-0.522199">
        <ele>65</ele>
        <time>2018-11-04T10:33:35.000Z</time>
      </trkpt>
      <trkpt lat="39.529175" lon="-0.522189">
        <ele>65</ele>
        <time>2018-11-04T10:33:36.000Z</time>
      </trkpt>
      <trkpt lat="39.529118" lon="-0.522174">
        <ele>65</ele>
        <time>2018-11-04T10:33:37.000Z</time>
      </trkpt>
      <trkpt lat="39.529061" lon="-0.522149">
        <ele>65</ele>
        <time>2018-11-04T10:33:38.000Z</time>
      </trkpt>
      <trkpt lat="39.529003" lon="-0.522122">
        <ele>65</ele>
        <time>2018-11-04T10:33:39.000Z</time>
      </trkpt>
      <trkpt lat="39.528948" lon="-0.522101">
        <ele>65</ele>
        <time>2018-11-04T10:33:40.000Z</time>
      </trkpt>
      <trkpt lat="39.528894" lon="-0.522081">
        <ele>65</ele>
        <time>2018-11-04T10:33:41.000Z</time>
      </trkpt>
      <trkpt lat="39.528843" lon="-0.522063">
        <ele>65</ele>
        <time>2018-11-04T10:33:42.000Z</time>
      </trkpt>
      <trkpt lat="39.528791" lon="-0.522048">
        <ele>64.1100032</ele>
        <time>2018-11-04T10:33:43.000Z</time>
      </trkpt>
      <trkpt lat="39.52874" lon="-0.522028">
        <ele>64</ele>
        <time>2018-11-04T10:33:44.000Z</time>
      </trkpt>
      <trkpt lat="39.528689" lon="-0.522003">
        <ele>64</ele>
        <time>2018-11-04T10:33:45.000Z</time>
      </trkpt>
      <trkpt lat="39.528643" lon="-0.521972">
        <ele>64.8899968</ele>
        <time>2018-11-04T10:33:46.000Z</time>
      </trkpt>
      <trkpt lat="39.528598" lon="-0.521935">
        <ele>65</ele>
        <time>2018-11-04T10:33:47.000Z</time>
      </trkpt>
      <trkpt lat="39.528556" lon="-0.521898">
        <ele>65</ele>
        <time>2018-11-04T10:33:48.000Z</time>
      </trkpt>
      <trkpt lat="39.528513" lon="-0.521858">
        <ele>65</ele>
        <time>2018-11-04T10:33:49.000Z</time>
      </trkpt>
      <trkpt lat="39.528469" lon="-0.521829">
        <ele>65</ele>
        <time>2018-11-04T10:33:50.000Z</time>
      </trkpt>
      <trkpt lat="39.528421" lon="-0.521805">
        <ele>65</ele>
        <time>2018-11-04T10:33:51.000Z</time>
      </trkpt>
      <trkpt lat="39.528372" lon="-0.521778">
        <ele>65</ele>
        <time>2018-11-04T10:33:52.000Z</time>
      </trkpt>
      <trkpt lat="39.528327" lon="-0.521742">
        <ele>65</ele>
        <time>2018-11-04T10:33:53.000Z</time>
      </trkpt>
      <trkpt lat="39.528282" lon="-0.521703">
        <ele>65</ele>
        <time>2018-11-04T10:33:54.000Z</time>
      </trkpt>
      <trkpt lat="39.528238" lon="-0.521662">
        <ele>65</ele>
        <time>2018-11-04T10:33:55.000Z</time>
      </trkpt>
      <trkpt lat="39.528198" lon="-0.521622">
        <ele>65</ele>
        <time>2018-11-04T10:33:56.000Z</time>
      </trkpt>
      <trkpt lat="39.528162" lon="-0.521584">
        <ele>64.1100032</ele>
        <time>2018-11-04T10:33:57.000Z</time>
      </trkpt>
      <trkpt lat="39.528136" lon="-0.521539">
        <ele>64</ele>
        <time>2018-11-04T10:33:58.000Z</time>
      </trkpt>
      <trkpt lat="39.52811" lon="-0.521491">
        <ele>64.8899968</ele>
        <time>2018-11-04T10:33:59.000Z</time>
      </trkpt>
      <trkpt lat="39.528082" lon="-0.52144">
        <ele>65</ele>
        <time>2018-11-04T10:34:00.000Z</time>
      </trkpt>
      <trkpt lat="39.528053" lon="-0.521388">
        <ele>65</ele>
        <time>2018-11-04T10:34:01.000Z</time>
      </trkpt>
      <trkpt lat="39.528022" lon="-0.521337">
        <ele>65</ele>
        <time>2018-11-04T10:34:02.000Z</time>
      </trkpt>
      <trkpt lat="39.527996" lon="-0.521277">
        <ele>65</ele>
        <time>2018-11-04T10:34:03.000Z</time>
      </trkpt>
      <trkpt lat="39.527971" lon="-0.521218">
        <ele>65</ele>
        <time>2018-11-04T10:34:04.000Z</time>
      </trkpt>
      <trkpt lat="39.527946" lon="-0.521155">
        <ele>65</ele>
        <time>2018-11-04T10:34:05.000Z</time>
      </trkpt>
      <trkpt lat="39.527921" lon="-0.521091">
        <ele>65</ele>
        <time>2018-11-04T10:34:06.000Z</time>
      </trkpt>
      <trkpt lat="39.527893" lon="-0.521029">
        <ele>65</ele>
        <time>2018-11-04T10:34:07.000Z</time>
      </trkpt>
      <trkpt lat="39.527866" lon="-0.520967">
        <ele>65</ele>
        <time>2018-11-04T10:34:08.000Z</time>
      </trkpt>
      <trkpt lat="39.52784" lon="-0.520913">
        <ele>65</ele>
        <time>2018-11-04T10:34:09.000Z</time>
      </trkpt>
      <trkpt lat="39.52781" lon="-0.520859">
        <ele>65.6899217114337</ele>
        <time>2018-11-04T10:34:10.000Z</time>
      </trkpt>
      <trkpt lat="39.527783" lon="-0.520805">
        <ele>66</ele>
        <time>2018-11-04T10:34:11.000Z</time>
      </trkpt>
      <trkpt lat="39.527759" lon="-0.520748">
        <ele>66</ele>
        <time>2018-11-04T10:34:12.000Z</time>
      </trkpt>
      <trkpt lat="39.527733" lon="-0.520695">
        <ele>66</ele>
        <time>2018-11-04T10:34:13.000Z</time>
      </trkpt>
      <trkpt lat="39.527706" lon="-0.520644">
        <ele>66</ele>
        <time>2018-11-04T10:34:14.000Z</time>
      </trkpt>
      <trkpt lat="39.527677" lon="-0.520597">
        <ele>66</ele>
        <time>2018-11-04T10:34:15.000Z</time>
      </trkpt>
      <trkpt lat="39.527648" lon="-0.520556">
        <ele>66</ele>
        <time>2018-11-04T10:34:16.000Z</time>
      </trkpt>
      <trkpt lat="39.527622" lon="-0.520516">
        <ele>66</ele>
        <time>2018-11-04T10:34:17.000Z</time>
      </trkpt>
      <trkpt lat="39.527596" lon="-0.520476">
        <ele>66</ele>
        <time>2018-11-04T10:34:18.000Z</time>
      </trkpt>
      <trkpt lat="39.527561" lon="-0.520433">
        <ele>66</ele>
        <time>2018-11-04T10:34:19.000Z</time>
      </trkpt>
      <trkpt lat="39.527521" lon="-0.520378">
        <ele>66</ele>
        <time>2018-11-04T10:34:20.000Z</time>
      </trkpt>
      <trkpt lat="39.527489" lon="-0.520314">
        <ele>66</ele>
        <time>2018-11-04T10:34:21.000Z</time>
      </trkpt>
      <trkpt lat="39.52747" lon="-0.520236">
        <ele>66</ele>
        <time>2018-11-04T10:34:22.000Z</time>
      </trkpt>
      <trkpt lat="39.52745" lon="-0.520179">
        <ele>66</ele>
        <time>2018-11-04T10:34:23.000Z</time>
      </trkpt>
      <trkpt lat="39.527429" lon="-0.520125">
        <ele>66</ele>
        <time>2018-11-04T10:34:24.000Z</time>
      </trkpt>
      <trkpt lat="39.527404" lon="-0.520072">
        <ele>66</ele>
        <time>2018-11-04T10:34:25.000Z</time>
      </trkpt>
      <trkpt lat="39.527378" lon="-0.520019">
        <ele>66</ele>
        <time>2018-11-04T10:34:26.000Z</time>
      </trkpt>
      <trkpt lat="39.527355" lon="-0.519967">
        <ele>66</ele>
        <time>2018-11-04T10:34:27.000Z</time>
      </trkpt>
      <trkpt lat="39.527334" lon="-0.51991">
        <ele>66</ele>
        <time>2018-11-04T10:34:28.000Z</time>
      </trkpt>
      <trkpt lat="39.527313" lon="-0.519855">
        <ele>65.1100032</ele>
        <time>2018-11-04T10:34:29.000Z</time>
      </trkpt>
      <trkpt lat="39.527289" lon="-0.519804">
        <ele>65</ele>
        <time>2018-11-04T10:34:30.000Z</time>
      </trkpt>
      <trkpt lat="39.527261" lon="-0.519756">
        <ele>65</ele>
        <time>2018-11-04T10:34:31.000Z</time>
      </trkpt>
      <trkpt lat="39.527234" lon="-0.519703">
        <ele>65</ele>
        <time>2018-11-04T10:34:32.000Z</time>
      </trkpt>
      <trkpt lat="39.527208" lon="-0.519649">
        <ele>65</ele>
        <time>2018-11-04T10:34:33.000Z</time>
      </trkpt>
      <trkpt lat="39.527183" lon="-0.519593">
        <ele>64.1100032</ele>
        <time>2018-11-04T10:34:34.000Z</time>
      </trkpt>
      <trkpt lat="39.527161" lon="-0.519536">
        <ele>64.8899968</ele>
        <time>2018-11-04T10:34:35.000Z</time>
      </trkpt>
      <trkpt lat="39.527137" lon="-0.519482">
        <ele>65</ele>
        <time>2018-11-04T10:34:36.000Z</time>
      </trkpt>
      <trkpt lat="39.527115" lon="-0.519431">
        <ele>65</ele>
        <time>2018-11-04T10:34:37.000Z</time>
      </trkpt>
      <trkpt lat="39.527097" lon="-0.51938">
        <ele>65</ele>
        <time>2018-11-04T10:34:38.000Z</time>
      </trkpt>
      <trkpt lat="39.527081" lon="-0.519331">
        <ele>65</ele>
        <time>2018-11-04T10:34:39.000Z</time>
      </trkpt>
      <trkpt lat="39.527066" lon="-0.51928">
        <ele>65.8899968</ele>
        <time>2018-11-04T10:34:40.000Z</time>
      </trkpt>
      <trkpt lat="39.527046" lon="-0.519229">
        <ele>66</ele>
        <time>2018-11-04T10:34:41.000Z</time>
      </trkpt>
      <trkpt lat="39.527023" lon="-0.519179">
        <ele>66</ele>
        <time>2018-11-04T10:34:42.000Z</time>
      </trkpt>
      <trkpt lat="39.526991" lon="-0.519134">
        <ele>66</ele>
        <time>2018-11-04T10:34:43.000Z</time>
      </trkpt>
      <trkpt lat="39.526948" lon="-0.519099">
        <ele>65.1100032</ele>
        <time>2018-11-04T10:34:44.000Z</time>
      </trkpt>
      <trkpt lat="39.526906" lon="-0.519078">
        <ele>65.8899968</ele>
        <time>2018-11-04T10:34:45.000Z</time>
      </trkpt>
      <trkpt lat="39.526871" lon="-0.519068">
        <ele>66</ele>
        <time>2018-11-04T10:34:46.000Z</time>
      </trkpt>
      <trkpt lat="39.526841" lon="-0.519059">
        <ele>66</ele>
        <time>2018-11-04T10:34:47.000Z</time>
      </trkpt>
      <trkpt lat="39.526816" lon="-0.519048">
        <ele>66</ele>
        <time>2018-11-04T10:34:48.000Z</time>
      </trkpt>
      <trkpt lat="39.526791" lon="-0.51904">
        <ele>66</ele>
        <time>2018-11-04T10:34:49.000Z</time>
      </trkpt>
      <trkpt lat="39.526768" lon="-0.519035">
        <ele>65.1100032</ele>
        <time>2018-11-04T10:34:50.000Z</time>
      </trkpt>
      <trkpt lat="39.526747" lon="-0.519031">
        <ele>65</ele>
        <time>2018-11-04T10:34:51.000Z</time>
      </trkpt>
      <trkpt lat="39.526728" lon="-0.519019">
        <ele>65</ele>
        <time>2018-11-04T10:34:52.000Z</time>
      </trkpt>
      <trkpt lat="39.526709" lon="-0.518999">
        <ele>65</ele>
        <time>2018-11-04T10:34:53.000Z</time>
      </trkpt>
      <trkpt lat="39.526685" lon="-0.51899">
        <ele>65</ele>
        <time>2018-11-04T10:34:54.000Z</time>
      </trkpt>
      <trkpt lat="39.526654" lon="-0.518995">
        <ele>65</ele>
        <time>2018-11-04T10:34:55.000Z</time>
      </trkpt>
      <trkpt lat="39.526623" lon="-0.51899">
        <ele>65</ele>
        <time>2018-11-04T10:34:56.000Z</time>
      </trkpt>
      <trkpt lat="39.526588" lon="-0.51898">
        <ele>65</ele>
        <time>2018-11-04T10:34:57.000Z</time>
      </trkpt>
      <trkpt lat="39.526547" lon="-0.518967">
        <ele>65</ele>
        <time>2018-11-04T10:34:58.000Z</time>
      </trkpt>
      <trkpt lat="39.526497" lon="-0.518948">
        <ele>65</ele>
        <time>2018-11-04T10:34:59.000Z</time>
      </trkpt>
      <trkpt lat="39.526442" lon="-0.518916">
        <ele>65.8899968</ele>
        <time>2018-11-04T10:35:00.000Z</time>
      </trkpt>
      <trkpt lat="39.526383" lon="-0.518877">
        <ele>66</ele>
        <time>2018-11-04T10:35:01.000Z</time>
      </trkpt>
      <trkpt lat="39.526321" lon="-0.518836">
        <ele>66</ele>
        <time>2018-11-04T10:35:02.000Z</time>
      </trkpt>
      <trkpt lat="39.526264" lon="-0.518799">
        <ele>66</ele>
        <time>2018-11-04T10:35:03.000Z</time>
      </trkpt>
      <trkpt lat="39.526219" lon="-0.518765">
        <ele>65.1100032</ele>
        <time>2018-11-04T10:35:04.000Z</time>
      </trkpt>
      <trkpt lat="39.526195" lon="-0.51872">
        <ele>65</ele>
        <time>2018-11-04T10:35:05.000Z</time>
      </trkpt>
      <trkpt lat="39.526169" lon="-0.518672">
        <ele>65</ele>
        <time>2018-11-04T10:35:06.000Z</time>
      </trkpt>
      <trkpt lat="39.526149" lon="-0.518619">
        <ele>65</ele>
        <time>2018-11-04T10:35:07.000Z</time>
      </trkpt>
      <trkpt lat="39.526129" lon="-0.518568">
        <ele>65</ele>
        <time>2018-11-04T10:35:08.000Z</time>
      </trkpt>
      <trkpt lat="39.526092" lon="-0.518423">
        <ele>65</ele>
        <time>2018-11-04T10:35:11.000Z</time>
      </trkpt>
      <trkpt lat="39.526073" lon="-0.518375">
        <ele>65</ele>
        <time>2018-11-04T10:35:12.000Z</time>
      </trkpt>
      <trkpt lat="39.526051" lon="-0.518322">
        <ele>65</ele>
        <time>2018-11-04T10:35:13.000Z</time>
      </trkpt>
      <trkpt lat="39.526023" lon="-0.518266">
        <ele>65</ele>
        <time>2018-11-04T10:35:14.000Z</time>
      </trkpt>
      <trkpt lat="39.525993" lon="-0.518207">
        <ele>65.8899968</ele>
        <time>2018-11-04T10:35:15.000Z</time>
      </trkpt>
      <trkpt lat="39.525959" lon="-0.518143">
        <ele>66</ele>
        <time>2018-11-04T10:35:16.000Z</time>
      </trkpt>
      <trkpt lat="39.525922" lon="-0.518087">
        <ele>66</ele>
        <time>2018-11-04T10:35:17.000Z</time>
      </trkpt>
      <trkpt lat="39.525888" lon="-0.518033">
        <ele>66</ele>
        <time>2018-11-04T10:35:18.000Z</time>
      </trkpt>
      <trkpt lat="39.525848" lon="-0.517984">
        <ele>66</ele>
        <time>2018-11-04T10:35:19.000Z</time>
      </trkpt>
      <trkpt lat="39.525806" lon="-0.517961">
        <ele>66</ele>
        <time>2018-11-04T10:35:20.000Z</time>
      </trkpt>
      <trkpt lat="39.525769" lon="-0.517934">
        <ele>66</ele>
        <time>2018-11-04T10:35:21.000Z</time>
      </trkpt>
      <trkpt lat="39.525735" lon="-0.517878">
        <ele>66.8899968</ele>
        <time>2018-11-04T10:35:22.000Z</time>
      </trkpt>
      <trkpt lat="39.525708" lon="-0.517814">
        <ele>67</ele>
        <time>2018-11-04T10:35:23.000Z</time>
      </trkpt>
      <trkpt lat="39.525666" lon="-0.517681">
        <ele>67</ele>
        <time>2018-11-04T10:35:25.000Z</time>
      </trkpt>
      <trkpt lat="39.52561" lon="-0.517546">
        <ele>67</ele>
        <time>2018-11-04T10:35:27.000Z</time>
      </trkpt>
      <trkpt lat="39.525578" lon="-0.517487">
        <ele>67</ele>
        <time>2018-11-04T10:35:28.000Z</time>
      </trkpt>
      <trkpt lat="39.525535" lon="-0.517436">
        <ele>67</ele>
        <time>2018-11-04T10:35:29.000Z</time>
      </trkpt>
      <trkpt lat="39.525501" lon="-0.517379">
        <ele>66.1506873334268</ele>
        <time>2018-11-04T10:35:30.000Z</time>
      </trkpt>
      <trkpt lat="39.525472" lon="-0.517321">
        <ele>66</ele>
        <time>2018-11-04T10:35:31.000Z</time>
      </trkpt>
      <trkpt lat="39.525442" lon="-0.517263">
        <ele>66</ele>
        <time>2018-11-04T10:35:32.000Z</time>
      </trkpt>
      <trkpt lat="39.525411" lon="-0.517209">
        <ele>66.8899968</ele>
        <time>2018-11-04T10:35:33.000Z</time>
      </trkpt>
      <trkpt lat="39.52538" lon="-0.517154">
        <ele>67</ele>
        <time>2018-11-04T10:35:34.000Z</time>
      </trkpt>
      <trkpt lat="39.525341" lon="-0.517098">
        <ele>67</ele>
        <time>2018-11-04T10:35:35.000Z</time>
      </trkpt>
      <trkpt lat="39.525305" lon="-0.517044">
        <ele>67</ele>
        <time>2018-11-04T10:35:36.000Z</time>
      </trkpt>
      <trkpt lat="39.525271" lon="-0.516994">
        <ele>67</ele>
        <time>2018-11-04T10:35:37.000Z</time>
      </trkpt>
      <trkpt lat="39.525239" lon="-0.51694">
        <ele>67</ele>
        <time>2018-11-04T10:35:38.000Z</time>
      </trkpt>
      <trkpt lat="39.525201" lon="-0.516885">
        <ele>67</ele>
        <time>2018-11-04T10:35:39.000Z</time>
      </trkpt>
      <trkpt lat="39.525161" lon="-0.516832">
        <ele>67</ele>
        <time>2018-11-04T10:35:40.000Z</time>
      </trkpt>
      <trkpt lat="39.525117" lon="-0.516781">
        <ele>66.1100032</ele>
        <time>2018-11-04T10:35:41.000Z</time>
      </trkpt>
      <trkpt lat="39.525079" lon="-0.516718">
        <ele>66</ele>
        <time>2018-11-04T10:35:42.000Z</time>
      </trkpt>
      <trkpt lat="39.525048" lon="-0.516661">
        <ele>66</ele>
        <time>2018-11-04T10:35:43.000Z</time>
      </trkpt>
      <trkpt lat="39.525017" lon="-0.516612">
        <ele>66</ele>
        <time>2018-11-04T10:35:44.000Z</time>
      </trkpt>
      <trkpt lat="39.524981" lon="-0.51657">
        <ele>66</ele>
        <time>2018-11-04T10:35:45.000Z</time>
      </trkpt>
      <trkpt lat="39.524942" lon="-0.51653">
        <ele>66</ele>
        <time>2018-11-04T10:35:46.000Z</time>
      </trkpt>
      <trkpt lat="39.524905" lon="-0.516485">
        <ele>66</ele>
        <time>2018-11-04T10:35:47.000Z</time>
      </trkpt>
      <trkpt lat="39.52487" lon="-0.516438">
        <ele>66</ele>
        <time>2018-11-04T10:35:48.000Z</time>
      </trkpt>
      <trkpt lat="39.524832" lon="-0.516378">
        <ele>66</ele>
        <time>2018-11-04T10:35:49.000Z</time>
      </trkpt>
      <trkpt lat="39.524803" lon="-0.516315">
        <ele>66</ele>
        <time>2018-11-04T10:35:50.000Z</time>
      </trkpt>
      <trkpt lat="39.524778" lon="-0.516239">
        <ele>66</ele>
        <time>2018-11-04T10:35:51.000Z</time>
      </trkpt>
      <trkpt lat="39.524758" lon="-0.516168">
        <ele>66.8899968</ele>
        <time>2018-11-04T10:35:52.000Z</time>
      </trkpt>
      <trkpt lat="39.524739" lon="-0.516101">
        <ele>67</ele>
        <time>2018-11-04T10:35:53.000Z</time>
      </trkpt>
      <trkpt lat="39.52472" lon="-0.516034">
        <ele>67</ele>
        <time>2018-11-04T10:35:54.000Z</time>
      </trkpt>
      <trkpt lat="39.524698" lon="-0.515974">
        <ele>67.8899968</ele>
        <time>2018-11-04T10:35:55.000Z</time>
      </trkpt>
      <trkpt lat="39.524675" lon="-0.515913">
        <ele>68</ele>
        <time>2018-11-04T10:35:56.000Z</time>
      </trkpt>
      <trkpt lat="39.524648" lon="-0.515853">
        <ele>68</ele>
        <time>2018-11-04T10:35:57.000Z</time>
      </trkpt>
      <trkpt lat="39.524623" lon="-0.515793">
        <ele>68</ele>
        <time>2018-11-04T10:35:58.000Z</time>
      </trkpt>
      <trkpt lat="39.524603" lon="-0.51573">
        <ele>68</ele>
        <time>2018-11-04T10:35:59.000Z</time>
      </trkpt>
      <trkpt lat="39.524584" lon="-0.515665">
        <ele>68</ele>
        <time>2018-11-04T10:36:00.000Z</time>
      </trkpt>
      <trkpt lat="39.524571" lon="-0.515601">
        <ele>68</ele>
        <time>2018-11-04T10:36:01.000Z</time>
      </trkpt>
      <trkpt lat="39.524565" lon="-0.515537">
        <ele>67.1100032</ele>
        <time>2018-11-04T10:36:02.000Z</time>
      </trkpt>
      <trkpt lat="39.524564" lon="-0.515472">
        <ele>67</ele>
        <time>2018-11-04T10:36:03.000Z</time>
      </trkpt>
      <trkpt lat="39.524564" lon="-0.515404">
        <ele>67</ele>
        <time>2018-11-04T10:36:04.000Z</time>
      </trkpt>
      <trkpt lat="39.524558" lon="-0.515335">
        <ele>67</ele>
        <time>2018-11-04T10:36:05.000Z</time>
      </trkpt>
      <trkpt lat="39.52454" lon="-0.515267">
        <ele>67</ele>
        <time>2018-11-04T10:36:06.000Z</time>
      </trkpt>
      <trkpt lat="39.524518" lon="-0.515204">
        <ele>67</ele>
        <time>2018-11-04T10:36:07.000Z</time>
      </trkpt>
      <trkpt lat="39.524492" lon="-0.515143">
        <ele>67</ele>
        <time>2018-11-04T10:36:08.000Z</time>
      </trkpt>
      <trkpt lat="39.524463" lon="-0.51508">
        <ele>67</ele>
        <time>2018-11-04T10:36:09.000Z</time>
      </trkpt>
      <trkpt lat="39.52443" lon="-0.515017">
        <ele>67</ele>
        <time>2018-11-04T10:36:10.000Z</time>
      </trkpt>
      <trkpt lat="39.524398" lon="-0.514948">
        <ele>66.1100032</ele>
        <time>2018-11-04T10:36:11.000Z</time>
      </trkpt>
      <trkpt lat="39.524377" lon="-0.514869">
        <ele>66</ele>
        <time>2018-11-04T10:36:12.000Z</time>
      </trkpt>
      <trkpt lat="39.524372" lon="-0.514789">
        <ele>66</ele>
        <time>2018-11-04T10:36:13.000Z</time>
      </trkpt>
      <trkpt lat="39.524371" lon="-0.514712">
        <ele>66</ele>
        <time>2018-11-04T10:36:14.000Z</time>
      </trkpt>
      <trkpt lat="39.524374" lon="-0.514636">
        <ele>66</ele>
        <time>2018-11-04T10:36:15.000Z</time>
      </trkpt>
      <trkpt lat="39.524373" lon="-0.514563">
        <ele>66</ele>
        <time>2018-11-04T10:36:16.000Z</time>
      </trkpt>
      <trkpt lat="39.524372" lon="-0.514494">
        <ele>66</ele>
        <time>2018-11-04T10:36:17.000Z</time>
      </trkpt>
      <trkpt lat="39.524379" lon="-0.514426">
        <ele>65.1100032</ele>
        <time>2018-11-04T10:36:18.000Z</time>
      </trkpt>
      <trkpt lat="39.524402" lon="-0.51436">
        <ele>65</ele>
        <time>2018-11-04T10:36:19.000Z</time>
      </trkpt>
      <trkpt lat="39.52443" lon="-0.514296">
        <ele>65</ele>
        <time>2018-11-04T10:36:20.000Z</time>
      </trkpt>
      <trkpt lat="39.524454" lon="-0.514241">
        <ele>65</ele>
        <time>2018-11-04T10:36:21.000Z</time>
      </trkpt>
      <trkpt lat="39.524481" lon="-0.514191">
        <ele>65</ele>
        <time>2018-11-04T10:36:22.000Z</time>
      </trkpt>
      <trkpt lat="39.524512" lon="-0.514139">
        <ele>65</ele>
        <time>2018-11-04T10:36:23.000Z</time>
      </trkpt>
      <trkpt lat="39.52454" lon="-0.514085">
        <ele>65</ele>
        <time>2018-11-04T10:36:24.000Z</time>
      </trkpt>
      <trkpt lat="39.524567" lon="-0.514026">
        <ele>65</ele>
        <time>2018-11-04T10:36:25.000Z</time>
      </trkpt>
      <trkpt lat="39.524587" lon="-0.513963">
        <ele>65</ele>
        <time>2018-11-04T10:36:26.000Z</time>
      </trkpt>
      <trkpt lat="39.524605" lon="-0.513898">
        <ele>64.1506899756273</ele>
        <time>2018-11-04T10:36:27.000Z</time>
      </trkpt>
      <trkpt lat="39.524621" lon="-0.513843">
        <ele>64</ele>
        <time>2018-11-04T10:36:28.000Z</time>
      </trkpt>
      <trkpt lat="39.524638" lon="-0.513795">
        <ele>64</ele>
        <time>2018-11-04T10:36:29.000Z</time>
      </trkpt>
      <trkpt lat="39.524657" lon="-0.513746">
        <ele>64</ele>
        <time>2018-11-04T10:36:30.000Z</time>
      </trkpt>
      <trkpt lat="39.524658" lon="-0.51369">
        <ele>64</ele>
        <time>2018-11-04T10:36:31.000Z</time>
      </trkpt>
      <trkpt lat="39.524649" lon="-0.513631">
        <ele>64</ele>
        <time>2018-11-04T10:36:32.000Z</time>
      </trkpt>
      <trkpt lat="39.524637" lon="-0.513572">
        <ele>64</ele>
        <time>2018-11-04T10:36:33.000Z</time>
      </trkpt>
      <trkpt lat="39.524619" lon="-0.513512">
        <ele>64.8899968</ele>
        <time>2018-11-04T10:36:34.000Z</time>
      </trkpt>
      <trkpt lat="39.524601" lon="-0.513452">
        <ele>65</ele>
        <time>2018-11-04T10:36:35.000Z</time>
      </trkpt>
      <trkpt lat="39.524583" lon="-0.513392">
        <ele>65</ele>
        <time>2018-11-04T10:36:36.000Z</time>
      </trkpt>
      <trkpt lat="39.524559" lon="-0.513334">
        <ele>65</ele>
        <time>2018-11-04T10:36:37.000Z</time>
      </trkpt>
      <trkpt lat="39.524529" lon="-0.513282">
        <ele>65</ele>
        <time>2018-11-04T10:36:38.000Z</time>
      </trkpt>
      <trkpt lat="39.524492" lon="-0.513239">
        <ele>64.1100032</ele>
        <time>2018-11-04T10:36:39.000Z</time>
      </trkpt>
      <trkpt lat="39.524449" lon="-0.513208">
        <ele>64</ele>
        <time>2018-11-04T10:36:40.000Z</time>
      </trkpt>
      <trkpt lat="39.524404" lon="-0.513168">
        <ele>64</ele>
        <time>2018-11-04T10:36:41.000Z</time>
      </trkpt>
      <trkpt lat="39.52436" lon="-0.513118">
        <ele>64</ele>
        <time>2018-11-04T10:36:42.000Z</time>
      </trkpt>
      <trkpt lat="39.524324" lon="-0.513057">
        <ele>64</ele>
        <time>2018-11-04T10:36:43.000Z</time>
      </trkpt>
      <trkpt lat="39.52429" lon="-0.512993">
        <ele>64</ele>
        <time>2018-11-04T10:36:44.000Z</time>
      </trkpt>
      <trkpt lat="39.524263" lon="-0.512924">
        <ele>64</ele>
        <time>2018-11-04T10:36:45.000Z</time>
      </trkpt>
      <trkpt lat="39.524243" lon="-0.512859">
        <ele>64</ele>
        <time>2018-11-04T10:36:46.000Z</time>
      </trkpt>
      <trkpt lat="39.524228" lon="-0.512797">
        <ele>64</ele>
        <time>2018-11-04T10:36:47.000Z</time>
      </trkpt>
      <trkpt lat="39.524212" lon="-0.512737">
        <ele>64</ele>
        <time>2018-11-04T10:36:48.000Z</time>
      </trkpt>
      <trkpt lat="39.524194" lon="-0.512674">
        <ele>64</ele>
        <time>2018-11-04T10:36:49.000Z</time>
      </trkpt>
      <trkpt lat="39.524176" lon="-0.512616">
        <ele>64</ele>
        <time>2018-11-04T10:36:50.000Z</time>
      </trkpt>
      <trkpt lat="39.524159" lon="-0.512556">
        <ele>64</ele>
        <time>2018-11-04T10:36:51.000Z</time>
      </trkpt>
      <trkpt lat="39.524137" lon="-0.512495">
        <ele>64</ele>
        <time>2018-11-04T10:36:52.000Z</time>
      </trkpt>
      <trkpt lat="39.524114" lon="-0.512432">
        <ele>64</ele>
        <time>2018-11-04T10:36:53.000Z</time>
      </trkpt>
      <trkpt lat="39.524088" lon="-0.512369">
        <ele>64</ele>
        <time>2018-11-04T10:36:54.000Z</time>
      </trkpt>
      <trkpt lat="39.524062" lon="-0.512307">
        <ele>64</ele>
        <time>2018-11-04T10:36:55.000Z</time>
      </trkpt>
      <trkpt lat="39.524039" lon="-0.512249">
        <ele>63.1100032</ele>
        <time>2018-11-04T10:36:56.000Z</time>
      </trkpt>
      <trkpt lat="39.524013" lon="-0.512193">
        <ele>63</ele>
        <time>2018-11-04T10:36:57.000Z</time>
      </trkpt>
      <trkpt lat="39.523985" lon="-0.512136">
        <ele>63</ele>
        <time>2018-11-04T10:36:58.000Z</time>
      </trkpt>
      <trkpt lat="39.523956" lon="-0.512078">
        <ele>63</ele>
        <time>2018-11-04T10:36:59.000Z</time>
      </trkpt>
      <trkpt lat="39.523928" lon="-0.512022">
        <ele>63</ele>
        <time>2018-11-04T10:37:00.000Z</time>
      </trkpt>
      <trkpt lat="39.5239" lon="-0.51197">
        <ele>63</ele>
        <time>2018-11-04T10:37:01.000Z</time>
      </trkpt>
      <trkpt lat="39.523869" lon="-0.511918">
        <ele>63</ele>
        <time>2018-11-04T10:37:02.000Z</time>
      </trkpt>
      <trkpt lat="39.523839" lon="-0.511864">
        <ele>63.8899968</ele>
        <time>2018-11-04T10:37:03.000Z</time>
      </trkpt>
      <trkpt lat="39.523808" lon="-0.511821">
        <ele>64</ele>
        <time>2018-11-04T10:37:04.000Z</time>
      </trkpt>
      <trkpt lat="39.523778" lon="-0.511786">
        <ele>64</ele>
        <time>2018-11-04T10:37:05.000Z</time>
      </trkpt>
      <trkpt lat="39.523747" lon="-0.511754">
        <ele>64</ele>
        <time>2018-11-04T10:37:06.000Z</time>
      </trkpt>
      <trkpt lat="39.523714" lon="-0.511721">
        <ele>64</ele>
        <time>2018-11-04T10:37:07.000Z</time>
      </trkpt>
      <trkpt lat="39.52368" lon="-0.511692">
        <ele>64</ele>
        <time>2018-11-04T10:37:08.000Z</time>
      </trkpt>
      <trkpt lat="39.523645" lon="-0.51167">
        <ele>64</ele>
        <time>2018-11-04T10:37:09.000Z</time>
      </trkpt>
      <trkpt lat="39.523612" lon="-0.51165">
        <ele>64</ele>
        <time>2018-11-04T10:37:10.000Z</time>
      </trkpt>
      <trkpt lat="39.52358" lon="-0.511633">
        <ele>64.8899968</ele>
        <time>2018-11-04T10:37:11.000Z</time>
      </trkpt>
      <trkpt lat="39.523549" lon="-0.511608">
        <ele>64.3100782885663</ele>
        <time>2018-11-04T10:37:12.000Z</time>
      </trkpt>
      <trkpt lat="39.52352" lon="-0.511578">
        <ele>64</ele>
        <time>2018-11-04T10:37:13.000Z</time>
      </trkpt>
      <trkpt lat="39.523489" lon="-0.511544">
        <ele>64</ele>
        <time>2018-11-04T10:37:14.000Z</time>
      </trkpt>
      <trkpt lat="39.523457" lon="-0.511509">
        <ele>64</ele>
        <time>2018-11-04T10:37:15.000Z</time>
      </trkpt>
      <trkpt lat="39.523419" lon="-0.511485">
        <ele>64</ele>
        <time>2018-11-04T10:37:16.000Z</time>
      </trkpt>
      <trkpt lat="39.523374" lon="-0.511463">
        <ele>64.8899968</ele>
        <time>2018-11-04T10:37:17.000Z</time>
      </trkpt>
      <trkpt lat="39.523329" lon="-0.511453">
        <ele>65</ele>
        <time>2018-11-04T10:37:18.000Z</time>
      </trkpt>
      <trkpt lat="39.523284" lon="-0.511428">
        <ele>65</ele>
        <time>2018-11-04T10:37:19.000Z</time>
      </trkpt>
      <trkpt lat="39.523243" lon="-0.511408">
        <ele>65</ele>
        <time>2018-11-04T10:37:20.000Z</time>
      </trkpt>
      <trkpt lat="39.523201" lon="-0.511383">
        <ele>65</ele>
        <time>2018-11-04T10:37:21.000Z</time>
      </trkpt>
      <trkpt lat="39.523161" lon="-0.511353">
        <ele>64.111113984278</ele>
        <time>2018-11-04T10:37:22.000Z</time>
      </trkpt>
      <trkpt lat="39.523124" lon="-0.511332">
        <ele>64</ele>
        <time>2018-11-04T10:37:23.000Z</time>
      </trkpt>
      <trkpt lat="39.52309" lon="-0.5113">
        <ele>64</ele>
        <time>2018-11-04T10:37:24.000Z</time>
      </trkpt>
      <trkpt lat="39.52306" lon="-0.511269">
        <ele>64</ele>
        <time>2018-11-04T10:37:25.000Z</time>
      </trkpt>
      <trkpt lat="39.523034" lon="-0.511246">
        <ele>64</ele>
        <time>2018-11-04T10:37:26.000Z</time>
      </trkpt>
      <trkpt lat="39.523018" lon="-0.511225">
        <ele>64.8899968</ele>
        <time>2018-11-04T10:37:27.000Z</time>
      </trkpt>
      <trkpt lat="39.523" lon="-0.511203">
        <ele>65</ele>
        <time>2018-11-04T10:37:28.000Z</time>
      </trkpt>
      <trkpt lat="39.522976" lon="-0.511187">
        <ele>65</ele>
        <time>2018-11-04T10:37:29.000Z</time>
      </trkpt>
      <trkpt lat="39.522941" lon="-0.511163">
        <ele>65</ele>
        <time>2018-11-04T10:37:30.000Z</time>
      </trkpt>
      <trkpt lat="39.522911" lon="-0.511141">
        <ele>65</ele>
        <time>2018-11-04T10:37:31.000Z</time>
      </trkpt>
      <trkpt lat="39.522883" lon="-0.511118">
        <ele>65</ele>
        <time>2018-11-04T10:37:32.000Z</time>
      </trkpt>
      <trkpt lat="39.52286" lon="-0.511095">
        <ele>65</ele>
        <time>2018-11-04T10:37:33.000Z</time>
      </trkpt>
      <trkpt lat="39.522842" lon="-0.511074">
        <ele>65</ele>
        <time>2018-11-04T10:37:34.000Z</time>
      </trkpt>
      <trkpt lat="39.522827" lon="-0.511048">
        <ele>65</ele>
        <time>2018-11-04T10:37:35.000Z</time>
      </trkpt>
      <trkpt lat="39.522816" lon="-0.511018">
        <ele>65</ele>
        <time>2018-11-04T10:37:36.000Z</time>
      </trkpt>
      <trkpt lat="39.522798" lon="-0.51099">
        <ele>65</ele>
        <time>2018-11-04T10:37:37.000Z</time>
      </trkpt>
      <trkpt lat="39.522777" lon="-0.510963">
        <ele>65</ele>
        <time>2018-11-04T10:37:38.000Z</time>
      </trkpt>
      <trkpt lat="39.522763" lon="-0.510933">
        <ele>65</ele>
        <time>2018-11-04T10:37:39.000Z</time>
      </trkpt>
      <trkpt lat="39.522747" lon="-0.510906">
        <ele>65</ele>
        <time>2018-11-04T10:37:40.000Z</time>
      </trkpt>
      <trkpt lat="39.522733" lon="-0.510874">
        <ele>65</ele>
        <time>2018-11-04T10:37:41.000Z</time>
      </trkpt>
      <trkpt lat="39.522717" lon="-0.510845">
        <ele>65</ele>
        <time>2018-11-04T10:37:42.000Z</time>
      </trkpt>
      <trkpt lat="39.5227" lon="-0.510813">
        <ele>65</ele>
        <time>2018-11-04T10:37:43.000Z</time>
      </trkpt>
      <trkpt lat="39.522687" lon="-0.510783">
        <ele>64.1100032</ele>
        <time>2018-11-04T10:37:44.000Z</time>
      </trkpt>
      <trkpt lat="39.522675" lon="-0.51075">
        <ele>64</ele>
        <time>2018-11-04T10:37:45.000Z</time>
      </trkpt>
      <trkpt lat="39.522658" lon="-0.51072">
        <ele>64</ele>
        <time>2018-11-04T10:37:46.000Z</time>
      </trkpt>
      <trkpt lat="39.522647" lon="-0.510687">
        <ele>64</ele>
        <time>2018-11-04T10:37:47.000Z</time>
      </trkpt>
      <trkpt lat="39.522641" lon="-0.510657">
        <ele>64</ele>
        <time>2018-11-04T10:37:48.000Z</time>
      </trkpt>
      <trkpt lat="39.522638" lon="-0.510628">
        <ele>64.8899968</ele>
        <time>2018-11-04T10:37:49.000Z</time>
      </trkpt>
      <trkpt lat="39.522628" lon="-0.510593">
        <ele>64.1100032</ele>
        <time>2018-11-04T10:37:50.000Z</time>
      </trkpt>
      <trkpt lat="39.522618" lon="-0.510561">
        <ele>64</ele>
        <time>2018-11-04T10:37:51.000Z</time>
      </trkpt>
      <trkpt lat="39.522604" lon="-0.510531">
        <ele>64</ele>
        <time>2018-11-04T10:37:52.000Z</time>
      </trkpt>
      <trkpt lat="39.52259" lon="-0.510503">
        <ele>64</ele>
        <time>2018-11-04T10:37:53.000Z</time>
      </trkpt>
      <trkpt lat="39.522582" lon="-0.510469">
        <ele>64</ele>
        <time>2018-11-04T10:37:54.000Z</time>
      </trkpt>
      <trkpt lat="39.52257" lon="-0.51044">
        <ele>64</ele>
        <time>2018-11-04T10:37:55.000Z</time>
      </trkpt>
      <trkpt lat="39.522555" lon="-0.510408">
        <ele>64.8899968</ele>
        <time>2018-11-04T10:37:56.000Z</time>
      </trkpt>
      <trkpt lat="39.522543" lon="-0.51038">
        <ele>65</ele>
        <time>2018-11-04T10:37:57.000Z</time>
      </trkpt>
      <trkpt lat="39.522529" lon="-0.51035">
        <ele>65</ele>
        <time>2018-11-04T10:37:58.000Z</time>
      </trkpt>
      <trkpt lat="39.522514" lon="-0.510321">
        <ele>65.69531</ele>
        <time>2018-11-04T10:37:59.000Z</time>
      </trkpt>
      <trkpt lat="39.522499" lon="-0.510298">
        <ele>66</ele>
        <time>2018-11-04T10:38:00.000Z</time>
      </trkpt>
      <trkpt lat="39.522489" lon="-0.510273">
        <ele>66</ele>
        <time>2018-11-04T10:38:01.000Z</time>
      </trkpt>
      <trkpt lat="39.522475" lon="-0.510238">
        <ele>66</ele>
        <time>2018-11-04T10:38:02.000Z</time>
      </trkpt>
      <trkpt lat="39.522456" lon="-0.510198">
        <ele>66</ele>
        <time>2018-11-04T10:38:03.000Z</time>
      </trkpt>
      <trkpt lat="39.522439" lon="-0.510154">
        <ele>66</ele>
        <time>2018-11-04T10:38:04.000Z</time>
      </trkpt>
      <trkpt lat="39.522421" lon="-0.510102">
        <ele>66</ele>
        <time>2018-11-04T10:38:05.000Z</time>
      </trkpt>
      <trkpt lat="39.522405" lon="-0.510044">
        <ele>66</ele>
        <time>2018-11-04T10:38:06.000Z</time>
      </trkpt>
      <trkpt lat="39.522379" lon="-0.509995">
        <ele>66</ele>
        <time>2018-11-04T10:38:07.000Z</time>
      </trkpt>
      <trkpt lat="39.522352" lon="-0.509941">
        <ele>66</ele>
        <time>2018-11-04T10:38:08.000Z</time>
      </trkpt>
      <trkpt lat="39.522329" lon="-0.509884">
        <ele>66</ele>
        <time>2018-11-04T10:38:09.000Z</time>
      </trkpt>
      <trkpt lat="39.522296" lon="-0.509827">
        <ele>66</ele>
        <time>2018-11-04T10:38:10.000Z</time>
      </trkpt>
      <trkpt lat="39.522274" lon="-0.509767">
        <ele>65.30469</ele>
        <time>2018-11-04T10:38:11.000Z</time>
      </trkpt>
      <trkpt lat="39.522243" lon="-0.509705">
        <ele>65</ele>
        <time>2018-11-04T10:38:12.000Z</time>
      </trkpt>
      <trkpt lat="39.522219" lon="-0.509642">
        <ele>65</ele>
        <time>2018-11-04T10:38:13.000Z</time>
      </trkpt>
      <trkpt lat="39.522198" lon="-0.509574">
        <ele>65</ele>
        <time>2018-11-04T10:38:14.000Z</time>
      </trkpt>
      <trkpt lat="39.522173" lon="-0.509514">
        <ele>65</ele>
        <time>2018-11-04T10:38:15.000Z</time>
      </trkpt>
      <trkpt lat="39.52215" lon="-0.509457">
        <ele>65</ele>
        <time>2018-11-04T10:38:16.000Z</time>
      </trkpt>
      <trkpt lat="39.522127" lon="-0.509401">
        <ele>65</ele>
        <time>2018-11-04T10:38:17.000Z</time>
      </trkpt>
      <trkpt lat="39.522099" lon="-0.509333">
        <ele>65</ele>
        <time>2018-11-04T10:38:18.000Z</time>
      </trkpt>
      <trkpt lat="39.522076" lon="-0.509269">
        <ele>64.1100032</ele>
        <time>2018-11-04T10:38:19.000Z</time>
      </trkpt>
      <trkpt lat="39.522055" lon="-0.509203">
        <ele>64</ele>
        <time>2018-11-04T10:38:20.000Z</time>
      </trkpt>
      <trkpt lat="39.522027" lon="-0.509145">
        <ele>64</ele>
        <time>2018-11-04T10:38:21.000Z</time>
      </trkpt>
      <trkpt lat="39.522004" lon="-0.509082">
        <ele>63.1100032</ele>
        <time>2018-11-04T10:38:22.000Z</time>
      </trkpt>
      <trkpt lat="39.521976" lon="-0.509025">
        <ele>63</ele>
        <time>2018-11-04T10:38:23.000Z</time>
      </trkpt>
      <trkpt lat="39.521949" lon="-0.508965">
        <ele>63</ele>
        <time>2018-11-04T10:38:24.000Z</time>
      </trkpt>
      <trkpt lat="39.521922" lon="-0.508898">
        <ele>63</ele>
        <time>2018-11-04T10:38:25.000Z</time>
      </trkpt>
      <trkpt lat="39.521888" lon="-0.508823">
        <ele>63</ele>
        <time>2018-11-04T10:38:26.000Z</time>
      </trkpt>
      <trkpt lat="39.521855" lon="-0.508753">
        <ele>63</ele>
        <time>2018-11-04T10:38:27.000Z</time>
      </trkpt>
      <trkpt lat="39.521823" lon="-0.508678">
        <ele>63</ele>
        <time>2018-11-04T10:38:28.000Z</time>
      </trkpt>
      <trkpt lat="39.521798" lon="-0.50861">
        <ele>63</ele>
        <time>2018-11-04T10:38:29.000Z</time>
      </trkpt>
      <trkpt lat="39.521778" lon="-0.508546">
        <ele>63</ele>
        <time>2018-11-04T10:38:30.000Z</time>
      </trkpt>
      <trkpt lat="39.521758" lon="-0.508495">
        <ele>63</ele>
        <time>2018-11-04T10:38:31.000Z</time>
      </trkpt>
      <trkpt lat="39.521736" lon="-0.508455">
        <ele>63</ele>
        <time>2018-11-04T10:38:32.000Z</time>
      </trkpt>
      <trkpt lat="39.521704" lon="-0.508432">
        <ele>62.1100032</ele>
        <time>2018-11-04T10:38:33.000Z</time>
      </trkpt>
      <trkpt lat="39.521663" lon="-0.508435">
        <ele>62</ele>
        <time>2018-11-04T10:38:34.000Z</time>
      </trkpt>
      <trkpt lat="39.521616" lon="-0.508439">
        <ele>62</ele>
        <time>2018-11-04T10:38:35.000Z</time>
      </trkpt>
      <trkpt lat="39.521584" lon="-0.508437">
        <ele>62</ele>
        <time>2018-11-04T10:38:36.000Z</time>
      </trkpt>
      <trkpt lat="39.521548" lon="-0.508433">
        <ele>62</ele>
        <time>2018-11-04T10:38:37.000Z</time>
      </trkpt>
      <trkpt lat="39.521524" lon="-0.508421">
        <ele>62.8899968</ele>
        <time>2018-11-04T10:38:38.000Z</time>
      </trkpt>
      <trkpt lat="39.521512" lon="-0.508399">
        <ele>63</ele>
        <time>2018-11-04T10:38:39.000Z</time>
      </trkpt>
      <trkpt lat="39.521496" lon="-0.508378">
        <ele>63.8493126665732</ele>
        <time>2018-11-04T10:38:40.000Z</time>
      </trkpt>
      <trkpt lat="39.521477" lon="-0.508361">
        <ele>64</ele>
        <time>2018-11-04T10:38:41.000Z</time>
      </trkpt>
      <trkpt lat="39.521462" lon="-0.50834">
        <ele>64.8899968</ele>
        <time>2018-11-04T10:38:42.000Z</time>
      </trkpt>
      <trkpt lat="39.521475" lon="-0.508289">
        <ele>65</ele>
        <time>2018-11-04T10:38:44.000Z</time>
      </trkpt>
      <trkpt lat="39.521494" lon="-0.508248">
        <ele>65</ele>
        <time>2018-11-04T10:38:45.000Z</time>
      </trkpt>
      <trkpt lat="39.521516" lon="-0.508211">
        <ele>65</ele>
        <time>2018-11-04T10:38:46.000Z</time>
      </trkpt>
      <trkpt lat="39.521534" lon="-0.508175">
        <ele>65</ele>
        <time>2018-11-04T10:38:47.000Z</time>
      </trkpt>
      <trkpt lat="39.52155" lon="-0.508134">
        <ele>65</ele>
        <time>2018-11-04T10:38:48.000Z</time>
      </trkpt>
      <trkpt lat="39.521555" lon="-0.50809">
        <ele>65.8899968</ele>
        <time>2018-11-04T10:38:49.000Z</time>
      </trkpt>
      <trkpt lat="39.521549" lon="-0.508038">
        <ele>65.1100032</ele>
        <time>2018-11-04T10:38:50.000Z</time>
      </trkpt>
      <trkpt lat="39.521535" lon="-0.507976">
        <ele>65</ele>
        <time>2018-11-04T10:38:51.000Z</time>
      </trkpt>
      <trkpt lat="39.52152" lon="-0.507918">
        <ele>65</ele>
        <time>2018-11-04T10:38:52.000Z</time>
      </trkpt>
      <trkpt lat="39.521505" lon="-0.507849">
        <ele>65</ele>
        <time>2018-11-04T10:38:53.000Z</time>
      </trkpt>
      <trkpt lat="39.521493" lon="-0.507785">
        <ele>64.1100032</ele>
        <time>2018-11-04T10:38:54.000Z</time>
      </trkpt>
      <trkpt lat="39.521486" lon="-0.507721">
        <ele>64</ele>
        <time>2018-11-04T10:38:55.000Z</time>
      </trkpt>
      <trkpt lat="39.521477" lon="-0.50766">
        <ele>64</ele>
        <time>2018-11-04T10:38:56.000Z</time>
      </trkpt>
      <trkpt lat="39.521462" lon="-0.507596">
        <ele>64</ele>
        <time>2018-11-04T10:38:57.000Z</time>
      </trkpt>
      <trkpt lat="39.521445" lon="-0.507532">
        <ele>64</ele>
        <time>2018-11-04T10:38:58.000Z</time>
      </trkpt>
      <trkpt lat="39.52143" lon="-0.507467">
        <ele>63.1486516873368</ele>
        <time>2018-11-04T10:38:59.000Z</time>
      </trkpt>
      <trkpt lat="39.521419" lon="-0.5074">
        <ele>63</ele>
        <time>2018-11-04T10:39:00.000Z</time>
      </trkpt>
      <trkpt lat="39.521408" lon="-0.507333">
        <ele>63</ele>
        <time>2018-11-04T10:39:01.000Z</time>
      </trkpt>
      <trkpt lat="39.521397" lon="-0.507259">
        <ele>62.1100032</ele>
        <time>2018-11-04T10:39:02.000Z</time>
      </trkpt>
      <trkpt lat="39.521383" lon="-0.507183">
        <ele>62</ele>
        <time>2018-11-04T10:39:03.000Z</time>
      </trkpt>
      <trkpt lat="39.521369" lon="-0.5071">
        <ele>61.3153837065044</ele>
        <time>2018-11-04T10:39:04.000Z</time>
      </trkpt>
      <trkpt lat="39.521351" lon="-0.507024">
        <ele>61</ele>
        <time>2018-11-04T10:39:05.000Z</time>
      </trkpt>
      <trkpt lat="39.521337" lon="-0.506948">
        <ele>61</ele>
        <time>2018-11-04T10:39:06.000Z</time>
      </trkpt>
      <trkpt lat="39.521324" lon="-0.506876">
        <ele>61</ele>
        <time>2018-11-04T10:39:07.000Z</time>
      </trkpt>
      <trkpt lat="39.521305" lon="-0.506812">
        <ele>61</ele>
        <time>2018-11-04T10:39:08.000Z</time>
      </trkpt>
      <trkpt lat="39.521284" lon="-0.506748">
        <ele>61</ele>
        <time>2018-11-04T10:39:09.000Z</time>
      </trkpt>
      <trkpt lat="39.521267" lon="-0.506681">
        <ele>60.1100032</ele>
        <time>2018-11-04T10:39:10.000Z</time>
      </trkpt>
      <trkpt lat="39.521247" lon="-0.506618">
        <ele>60</ele>
        <time>2018-11-04T10:39:11.000Z</time>
      </trkpt>
      <trkpt lat="39.521226" lon="-0.506556">
        <ele>60</ele>
        <time>2018-11-04T10:39:12.000Z</time>
      </trkpt>
      <trkpt lat="39.521202" lon="-0.506494">
        <ele>59.2992098207986</ele>
        <time>2018-11-04T10:39:13.000Z</time>
      </trkpt>
      <trkpt lat="39.52117" lon="-0.506439">
        <ele>59</ele>
        <time>2018-11-04T10:39:14.000Z</time>
      </trkpt>
      <trkpt lat="39.521137" lon="-0.506386">
        <ele>59</ele>
        <time>2018-11-04T10:39:15.000Z</time>
      </trkpt>
      <trkpt lat="39.521104" lon="-0.506331">
        <ele>59</ele>
        <time>2018-11-04T10:39:16.000Z</time>
      </trkpt>
      <trkpt lat="39.521071" lon="-0.506276">
        <ele>59</ele>
        <time>2018-11-04T10:39:17.000Z</time>
      </trkpt>
      <trkpt lat="39.521039" lon="-0.50622">
        <ele>59</ele>
        <time>2018-11-04T10:39:18.000Z</time>
      </trkpt>
      <trkpt lat="39.521011" lon="-0.506161">
        <ele>59</ele>
        <time>2018-11-04T10:39:19.000Z</time>
      </trkpt>
      <trkpt lat="39.520984" lon="-0.506101">
        <ele>59</ele>
        <time>2018-11-04T10:39:20.000Z</time>
      </trkpt>
      <trkpt lat="39.520958" lon="-0.50604">
        <ele>59</ele>
        <time>2018-11-04T10:39:21.000Z</time>
      </trkpt>
      <trkpt lat="39.520931" lon="-0.50598">
        <ele>59.8899968</ele>
        <time>2018-11-04T10:39:22.000Z</time>
      </trkpt>
      <trkpt lat="39.52091" lon="-0.50592">
        <ele>60</ele>
        <time>2018-11-04T10:39:23.000Z</time>
      </trkpt>
      <trkpt lat="39.520889" lon="-0.505858">
        <ele>60</ele>
        <time>2018-11-04T10:39:24.000Z</time>
      </trkpt>
      <trkpt lat="39.520868" lon="-0.505795">
        <ele>60</ele>
        <time>2018-11-04T10:39:25.000Z</time>
      </trkpt>
      <trkpt lat="39.520848" lon="-0.50573">
        <ele>60</ele>
        <time>2018-11-04T10:39:26.000Z</time>
      </trkpt>
      <trkpt lat="39.520826" lon="-0.505671">
        <ele>60</ele>
        <time>2018-11-04T10:39:27.000Z</time>
      </trkpt>
      <trkpt lat="39.520796" lon="-0.50562">
        <ele>60</ele>
        <time>2018-11-04T10:39:28.000Z</time>
      </trkpt>
      <trkpt lat="39.520758" lon="-0.505574">
        <ele>60</ele>
        <time>2018-11-04T10:39:29.000Z</time>
      </trkpt>
      <trkpt lat="39.52072" lon="-0.50553">
        <ele>60</ele>
        <time>2018-11-04T10:39:30.000Z</time>
      </trkpt>
      <trkpt lat="39.520682" lon="-0.505489">
        <ele>60.8899968</ele>
        <time>2018-11-04T10:39:31.000Z</time>
      </trkpt>
      <trkpt lat="39.520646" lon="-0.505442">
        <ele>61</ele>
        <time>2018-11-04T10:39:32.000Z</time>
      </trkpt>
      <trkpt lat="39.52061" lon="-0.505393">
        <ele>61</ele>
        <time>2018-11-04T10:39:33.000Z</time>
      </trkpt>
      <trkpt lat="39.520574" lon="-0.505341">
        <ele>61</ele>
        <time>2018-11-04T10:39:34.000Z</time>
      </trkpt>
      <trkpt lat="39.520537" lon="-0.505289">
        <ele>61</ele>
        <time>2018-11-04T10:39:35.000Z</time>
      </trkpt>
      <trkpt lat="39.520499" lon="-0.505244">
        <ele>61</ele>
        <time>2018-11-04T10:39:36.000Z</time>
      </trkpt>
      <trkpt lat="39.520466" lon="-0.505196">
        <ele>61</ele>
        <time>2018-11-04T10:39:37.000Z</time>
      </trkpt>
      <trkpt lat="39.520434" lon="-0.505142">
        <ele>61</ele>
        <time>2018-11-04T10:39:38.000Z</time>
      </trkpt>
      <trkpt lat="39.520398" lon="-0.50509">
        <ele>61.8899968</ele>
        <time>2018-11-04T10:39:39.000Z</time>
      </trkpt>
      <trkpt lat="39.52036" lon="-0.505037">
        <ele>62</ele>
        <time>2018-11-04T10:39:40.000Z</time>
      </trkpt>
      <trkpt lat="39.520322" lon="-0.504981">
        <ele>62</ele>
        <time>2018-11-04T10:39:41.000Z</time>
      </trkpt>
      <trkpt lat="39.520283" lon="-0.504925">
        <ele>62</ele>
        <time>2018-11-04T10:39:42.000Z</time>
      </trkpt>
      <trkpt lat="39.520244" lon="-0.504869">
        <ele>62</ele>
        <time>2018-11-04T10:39:43.000Z</time>
      </trkpt>
      <trkpt lat="39.520203" lon="-0.504817">
        <ele>62.872551357185</ele>
        <time>2018-11-04T10:39:44.000Z</time>
      </trkpt>
      <trkpt lat="39.520161" lon="-0.504775">
        <ele>63</ele>
        <time>2018-11-04T10:39:45.000Z</time>
      </trkpt>
      <trkpt lat="39.520118" lon="-0.504746">
        <ele>63</ele>
        <time>2018-11-04T10:39:46.000Z</time>
      </trkpt>
      <trkpt lat="39.520072" lon="-0.504735">
        <ele>63</ele>
        <time>2018-11-04T10:39:47.000Z</time>
      </trkpt>
      <trkpt lat="39.520025" lon="-0.504736">
        <ele>63</ele>
        <time>2018-11-04T10:39:48.000Z</time>
      </trkpt>
      <trkpt lat="39.519979" lon="-0.504739">
        <ele>63.8899968</ele>
        <time>2018-11-04T10:39:49.000Z</time>
      </trkpt>
      <trkpt lat="39.519935" lon="-0.504741">
        <ele>64</ele>
        <time>2018-11-04T10:39:50.000Z</time>
      </trkpt>
      <trkpt lat="39.519889" lon="-0.50474">
        <ele>64</ele>
        <time>2018-11-04T10:39:51.000Z</time>
      </trkpt>
      <trkpt lat="39.51984" lon="-0.50473">
        <ele>64</ele>
        <time>2018-11-04T10:39:52.000Z</time>
      </trkpt>
      <trkpt lat="39.519784" lon="-0.504716">
        <ele>64</ele>
        <time>2018-11-04T10:39:53.000Z</time>
      </trkpt>
      <trkpt lat="39.519726" lon="-0.504697">
        <ele>64</ele>
        <time>2018-11-04T10:39:54.000Z</time>
      </trkpt>
      <trkpt lat="39.519666" lon="-0.50468">
        <ele>64</ele>
        <time>2018-11-04T10:39:55.000Z</time>
      </trkpt>
      <trkpt lat="39.519604" lon="-0.504664">
        <ele>64</ele>
        <time>2018-11-04T10:39:56.000Z</time>
      </trkpt>
      <trkpt lat="39.519543" lon="-0.504646">
        <ele>63.1100032</ele>
        <time>2018-11-04T10:39:57.000Z</time>
      </trkpt>
      <trkpt lat="39.51948" lon="-0.504628">
        <ele>63</ele>
        <time>2018-11-04T10:39:58.000Z</time>
      </trkpt>
      <trkpt lat="39.519419" lon="-0.504606">
        <ele>63</ele>
        <time>2018-11-04T10:39:59.000Z</time>
      </trkpt>
      <trkpt lat="39.519358" lon="-0.504578">
        <ele>63</ele>
        <time>2018-11-04T10:40:00.000Z</time>
      </trkpt>
      <trkpt lat="39.519296" lon="-0.504551">
        <ele>63</ele>
        <time>2018-11-04T10:40:01.000Z</time>
      </trkpt>
      <trkpt lat="39.519236" lon="-0.504529">
        <ele>62.1100032</ele>
        <time>2018-11-04T10:40:02.000Z</time>
      </trkpt>
      <trkpt lat="39.519174" lon="-0.504524">
        <ele>62</ele>
        <time>2018-11-04T10:40:03.000Z</time>
      </trkpt>
      <trkpt lat="39.519114" lon="-0.504527">
        <ele>61.1100032</ele>
        <time>2018-11-04T10:40:04.000Z</time>
      </trkpt>
      <trkpt lat="39.51905" lon="-0.504527">
        <ele>61</ele>
        <time>2018-11-04T10:40:05.000Z</time>
      </trkpt>
      <trkpt lat="39.518994" lon="-0.504527">
        <ele>61</ele>
        <time>2018-11-04T10:40:06.000Z</time>
      </trkpt>
      <trkpt lat="39.518934" lon="-0.504531">
        <ele>61</ele>
        <time>2018-11-04T10:40:07.000Z</time>
      </trkpt>
      <trkpt lat="39.518874" lon="-0.504534">
        <ele>60.299216883863</ele>
        <time>2018-11-04T10:40:08.000Z</time>
      </trkpt>
      <trkpt lat="39.518814" lon="-0.504537">
        <ele>60</ele>
        <time>2018-11-04T10:40:09.000Z</time>
      </trkpt>
      <trkpt lat="39.518756" lon="-0.504541">
        <ele>60</ele>
        <time>2018-11-04T10:40:10.000Z</time>
      </trkpt>
      <trkpt lat="39.5187" lon="-0.504547">
        <ele>59.1100032</ele>
        <time>2018-11-04T10:40:11.000Z</time>
      </trkpt>
      <trkpt lat="39.518646" lon="-0.504556">
        <ele>59</ele>
        <time>2018-11-04T10:40:12.000Z</time>
      </trkpt>
      <trkpt lat="39.518588" lon="-0.504563">
        <ele>59</ele>
        <time>2018-11-04T10:40:13.000Z</time>
      </trkpt>
      <trkpt lat="39.518532" lon="-0.504567">
        <ele>59</ele>
        <time>2018-11-04T10:40:14.000Z</time>
      </trkpt>
      <trkpt lat="39.518474" lon="-0.504564">
        <ele>58.1506899756273</ele>
        <time>2018-11-04T10:40:15.000Z</time>
      </trkpt>
      <trkpt lat="39.518422" lon="-0.504554">
        <ele>58</ele>
        <time>2018-11-04T10:40:16.000Z</time>
      </trkpt>
      <trkpt lat="39.518374" lon="-0.504539">
        <ele>58</ele>
        <time>2018-11-04T10:40:17.000Z</time>
      </trkpt>
      <trkpt lat="39.518328" lon="-0.504521">
        <ele>57.1571459918081</ele>
        <time>2018-11-04T10:40:18.000Z</time>
      </trkpt>
      <trkpt lat="39.518288" lon="-0.504502">
        <ele>57</ele>
        <time>2018-11-04T10:40:19.000Z</time>
      </trkpt>
      <trkpt lat="39.518262" lon="-0.50449">
        <ele>57</ele>
        <time>2018-11-04T10:40:20.000Z</time>
      </trkpt>
      <trkpt lat="39.518229" lon="-0.504483">
        <ele>56</ele>
        <time>2018-11-04T10:40:22.000Z</time>
      </trkpt>
      <trkpt lat="39.518208" lon="-0.504482">
        <ele>56</ele>
        <time>2018-11-04T10:40:23.000Z</time>
      </trkpt>
      <trkpt lat="39.518184" lon="-0.504477">
        <ele>56.8899968</ele>
        <time>2018-11-04T10:40:24.000Z</time>
      </trkpt>
      <trkpt lat="39.518158" lon="-0.504463">
        <ele>57</ele>
        <time>2018-11-04T10:40:25.000Z</time>
      </trkpt>
      <trkpt lat="39.51813" lon="-0.504442">
        <ele>57</ele>
        <time>2018-11-04T10:40:26.000Z</time>
      </trkpt>
      <trkpt lat="39.518102" lon="-0.504418">
        <ele>57</ele>
        <time>2018-11-04T10:40:27.000Z</time>
      </trkpt>
      <trkpt lat="39.518072" lon="-0.504394">
        <ele>57</ele>
        <time>2018-11-04T10:40:28.000Z</time>
      </trkpt>
      <trkpt lat="39.51805" lon="-0.504372">
        <ele>57</ele>
        <time>2018-11-04T10:40:29.000Z</time>
      </trkpt>
      <trkpt lat="39.51803" lon="-0.504349">
        <ele>57</ele>
        <time>2018-11-04T10:40:30.000Z</time>
      </trkpt>
      <trkpt lat="39.51801" lon="-0.504328">
        <ele>57</ele>
        <time>2018-11-04T10:40:31.000Z</time>
      </trkpt>
      <trkpt lat="39.517993" lon="-0.504307">
        <ele>57</ele>
        <time>2018-11-04T10:40:32.000Z</time>
      </trkpt>
      <trkpt lat="39.517979" lon="-0.504285">
        <ele>57.7007901792014</ele>
        <time>2018-11-04T10:40:33.000Z</time>
      </trkpt>
      <trkpt lat="39.517965" lon="-0.504264">
        <ele>58</ele>
        <time>2018-11-04T10:40:34.000Z</time>
      </trkpt>
      <trkpt lat="39.517954" lon="-0.504239">
        <ele>58</ele>
        <time>2018-11-04T10:40:35.000Z</time>
      </trkpt>
      <trkpt lat="39.51794" lon="-0.504217">
        <ele>58</ele>
        <time>2018-11-04T10:40:36.000Z</time>
      </trkpt>
      <trkpt lat="39.517923" lon="-0.504192">
        <ele>58</ele>
        <time>2018-11-04T10:40:37.000Z</time>
      </trkpt>
      <trkpt lat="39.517906" lon="-0.504163">
        <ele>58</ele>
        <time>2018-11-04T10:40:38.000Z</time>
      </trkpt>
      <trkpt lat="39.517886" lon="-0.504134">
        <ele>58</ele>
        <time>2018-11-04T10:40:39.000Z</time>
      </trkpt>
      <trkpt lat="39.517862" lon="-0.504107">
        <ele>58.8899968</ele>
        <time>2018-11-04T10:40:40.000Z</time>
      </trkpt>
      <trkpt lat="39.51784" lon="-0.504077">
        <ele>59</ele>
        <time>2018-11-04T10:40:41.000Z</time>
      </trkpt>
      <trkpt lat="39.51782" lon="-0.504049">
        <ele>59</ele>
        <time>2018-11-04T10:40:42.000Z</time>
      </trkpt>
      <trkpt lat="39.517802" lon="-0.504028">
        <ele>59</ele>
        <time>2018-11-04T10:40:43.000Z</time>
      </trkpt>
      <trkpt lat="39.517788" lon="-0.504011">
        <ele>59</ele>
        <time>2018-11-04T10:40:44.000Z</time>
      </trkpt>
      <trkpt lat="39.517771" lon="-0.503992">
        <ele>59</ele>
        <time>2018-11-04T10:40:45.000Z</time>
      </trkpt>
      <trkpt lat="39.517752" lon="-0.503967">
        <ele>59.8899968</ele>
        <time>2018-11-04T10:40:46.000Z</time>
      </trkpt>
      <trkpt lat="39.517728" lon="-0.503939">
        <ele>60</ele>
        <time>2018-11-04T10:40:47.000Z</time>
      </trkpt>
      <trkpt lat="39.517694" lon="-0.503923">
        <ele>60</ele>
        <time>2018-11-04T10:40:48.000Z</time>
      </trkpt>
      <trkpt lat="39.51766" lon="-0.503918">
        <ele>60</ele>
        <time>2018-11-04T10:40:49.000Z</time>
      </trkpt>
      <trkpt lat="39.517636" lon="-0.503914">
        <ele>60</ele>
        <time>2018-11-04T10:40:50.000Z</time>
      </trkpt>
      <trkpt lat="39.517616" lon="-0.503905">
        <ele>61</ele>
        <time>2018-11-04T10:41:18.000Z</time>
      </trkpt>
      <trkpt lat="39.517574" lon="-0.503901">
        <ele>61</ele>
        <time>2018-11-04T10:41:20.000Z</time>
      </trkpt>
      <trkpt lat="39.517544" lon="-0.503897">
        <ele>61</ele>
        <time>2018-11-04T10:41:21.000Z</time>
      </trkpt>
      <trkpt lat="39.517508" lon="-0.503897">
        <ele>61</ele>
        <time>2018-11-04T10:41:22.000Z</time>
      </trkpt>
      <trkpt lat="39.51747" lon="-0.503899">
        <ele>61</ele>
        <time>2018-11-04T10:41:23.000Z</time>
      </trkpt>
      <trkpt lat="39.51743" lon="-0.503906">
        <ele>61</ele>
        <time>2018-11-04T10:41:24.000Z</time>
      </trkpt>
      <trkpt lat="39.517392" lon="-0.503913">
        <ele>61</ele>
        <time>2018-11-04T10:41:25.000Z</time>
      </trkpt>
      <trkpt lat="39.51735" lon="-0.503924">
        <ele>60.1100032</ele>
        <time>2018-11-04T10:41:26.000Z</time>
      </trkpt>
      <trkpt lat="39.517307" lon="-0.503935">
        <ele>60</ele>
        <time>2018-11-04T10:41:27.000Z</time>
      </trkpt>
      <trkpt lat="39.517263" lon="-0.503943">
        <ele>60</ele>
        <time>2018-11-04T10:41:28.000Z</time>
      </trkpt>
      <trkpt lat="39.517218" lon="-0.503952">
        <ele>60</ele>
        <time>2018-11-04T10:41:29.000Z</time>
      </trkpt>
      <trkpt lat="39.51718" lon="-0.50396">
        <ele>59.299216883863</ele>
        <time>2018-11-04T10:41:30.000Z</time>
      </trkpt>
      <trkpt lat="39.517147" lon="-0.503969">
        <ele>59</ele>
        <time>2018-11-04T10:41:31.000Z</time>
      </trkpt>
      <trkpt lat="39.517117" lon="-0.503967">
        <ele>59</ele>
        <time>2018-11-04T10:41:32.000Z</time>
      </trkpt>
      <trkpt lat="39.517082" lon="-0.503962">
        <ele>59</ele>
        <time>2018-11-04T10:41:33.000Z</time>
      </trkpt>
      <trkpt lat="39.517044" lon="-0.503954">
        <ele>59</ele>
        <time>2018-11-04T10:41:34.000Z</time>
      </trkpt>
      <trkpt lat="39.517008" lon="-0.503941">
        <ele>59</ele>
        <time>2018-11-04T10:41:35.000Z</time>
      </trkpt>
      <trkpt lat="39.51697" lon="-0.503932">
        <ele>59</ele>
        <time>2018-11-04T10:41:36.000Z</time>
      </trkpt>
      <trkpt lat="39.516929" lon="-0.503926">
        <ele>58.1100032</ele>
        <time>2018-11-04T10:41:37.000Z</time>
      </trkpt>
      <trkpt lat="39.516884" lon="-0.503924">
        <ele>58</ele>
        <time>2018-11-04T10:41:38.000Z</time>
      </trkpt>
      <trkpt lat="39.516842" lon="-0.503931">
        <ele>58</ele>
        <time>2018-11-04T10:41:39.000Z</time>
      </trkpt>
      <trkpt lat="39.5168" lon="-0.503934">
        <ele>58</ele>
        <time>2018-11-04T10:41:40.000Z</time>
      </trkpt>
      <trkpt lat="39.516758" lon="-0.503938">
        <ele>57.1100032</ele>
        <time>2018-11-04T10:41:41.000Z</time>
      </trkpt>
      <trkpt lat="39.516721" lon="-0.503938">
        <ele>57</ele>
        <time>2018-11-04T10:41:42.000Z</time>
      </trkpt>
      <trkpt lat="39.516681" lon="-0.503934">
        <ele>57</ele>
        <time>2018-11-04T10:41:43.000Z</time>
      </trkpt>
      <trkpt lat="39.516638" lon="-0.503931">
        <ele>57</ele>
        <time>2018-11-04T10:41:44.000Z</time>
      </trkpt>
      <trkpt lat="39.516597" lon="-0.503926">
        <ele>57</ele>
        <time>2018-11-04T10:41:45.000Z</time>
      </trkpt>
      <trkpt lat="39.516552" lon="-0.503923">
        <ele>57</ele>
        <time>2018-11-04T10:41:46.000Z</time>
      </trkpt>
      <trkpt lat="39.51651" lon="-0.503925">
        <ele>57</ele>
        <time>2018-11-04T10:41:47.000Z</time>
      </trkpt>
      <trkpt lat="39.51646" lon="-0.503924">
        <ele>57</ele>
        <time>2018-11-04T10:41:48.000Z</time>
      </trkpt>
      <trkpt lat="39.516412" lon="-0.503921">
        <ele>57</ele>
        <time>2018-11-04T10:41:49.000Z</time>
      </trkpt>
      <trkpt lat="39.516356" lon="-0.503912">
        <ele>57</ele>
        <time>2018-11-04T10:41:50.000Z</time>
      </trkpt>
      <trkpt lat="39.516306" lon="-0.503903">
        <ele>57</ele>
        <time>2018-11-04T10:41:51.000Z</time>
      </trkpt>
      <trkpt lat="39.516256" lon="-0.503893">
        <ele>57</ele>
        <time>2018-11-04T10:41:52.000Z</time>
      </trkpt>
      <trkpt lat="39.516205" lon="-0.503879">
        <ele>57</ele>
        <time>2018-11-04T10:41:53.000Z</time>
      </trkpt>
      <trkpt lat="39.516158" lon="-0.503859">
        <ele>57</ele>
        <time>2018-11-04T10:41:54.000Z</time>
      </trkpt>
      <trkpt lat="39.516115" lon="-0.503832">
        <ele>57</ele>
        <time>2018-11-04T10:41:55.000Z</time>
      </trkpt>
      <trkpt lat="39.516073" lon="-0.503803">
        <ele>57</ele>
        <time>2018-11-04T10:41:56.000Z</time>
      </trkpt>
      <trkpt lat="39.516032" lon="-0.503779">
        <ele>57</ele>
        <time>2018-11-04T10:41:57.000Z</time>
      </trkpt>
      <trkpt lat="39.51599" lon="-0.503763">
        <ele>57</ele>
        <time>2018-11-04T10:41:58.000Z</time>
      </trkpt>
      <trkpt lat="39.515944" lon="-0.503758">
        <ele>57</ele>
        <time>2018-11-04T10:41:59.000Z</time>
      </trkpt>
      <trkpt lat="39.515899" lon="-0.503755">
        <ele>56.1100032</ele>
        <time>2018-11-04T10:42:00.000Z</time>
      </trkpt>
      <trkpt lat="39.51585" lon="-0.503742">
        <ele>56</ele>
        <time>2018-11-04T10:42:01.000Z</time>
      </trkpt>
      <trkpt lat="39.515797" lon="-0.503728">
        <ele>56</ele>
        <time>2018-11-04T10:42:02.000Z</time>
      </trkpt>
      <trkpt lat="39.515741" lon="-0.503712">
        <ele>56</ele>
        <time>2018-11-04T10:42:03.000Z</time>
      </trkpt>
      <trkpt lat="39.515684" lon="-0.503697">
        <ele>56</ele>
        <time>2018-11-04T10:42:04.000Z</time>
      </trkpt>
      <trkpt lat="39.515628" lon="-0.503683">
        <ele>56</ele>
        <time>2018-11-04T10:42:05.000Z</time>
      </trkpt>
      <trkpt lat="39.515575" lon="-0.503671">
        <ele>56</ele>
        <time>2018-11-04T10:42:06.000Z</time>
      </trkpt>
      <trkpt lat="39.515523" lon="-0.503658">
        <ele>56</ele>
        <time>2018-11-04T10:42:07.000Z</time>
      </trkpt>
      <trkpt lat="39.515473" lon="-0.503645">
        <ele>56</ele>
        <time>2018-11-04T10:42:08.000Z</time>
      </trkpt>
      <trkpt lat="39.515425" lon="-0.503631">
        <ele>56</ele>
        <time>2018-11-04T10:42:09.000Z</time>
      </trkpt>
      <trkpt lat="39.51538" lon="-0.503612">
        <ele>56</ele>
        <time>2018-11-04T10:42:10.000Z</time>
      </trkpt>
      <trkpt lat="39.515332" lon="-0.503591">
        <ele>56</ele>
        <time>2018-11-04T10:42:11.000Z</time>
      </trkpt>
      <trkpt lat="39.515287" lon="-0.503569">
        <ele>56</ele>
        <time>2018-11-04T10:42:12.000Z</time>
      </trkpt>
      <trkpt lat="39.515239" lon="-0.503548">
        <ele>56</ele>
        <time>2018-11-04T10:42:13.000Z</time>
      </trkpt>
      <trkpt lat="39.515195" lon="-0.503521">
        <ele>56.8899968</ele>
        <time>2018-11-04T10:42:14.000Z</time>
      </trkpt>
      <trkpt lat="39.515155" lon="-0.50349">
        <ele>57</ele>
        <time>2018-11-04T10:42:15.000Z</time>
      </trkpt>
      <trkpt lat="39.515114" lon="-0.503462">
        <ele>57</ele>
        <time>2018-11-04T10:42:16.000Z</time>
      </trkpt>
      <trkpt lat="39.515076" lon="-0.503433">
        <ele>57</ele>
        <time>2018-11-04T10:42:17.000Z</time>
      </trkpt>
      <trkpt lat="39.515037" lon="-0.503407">
        <ele>57.8899968</ele>
        <time>2018-11-04T10:42:18.000Z</time>
      </trkpt>
      <trkpt lat="39.515" lon="-0.503376">
        <ele>58</ele>
        <time>2018-11-04T10:42:19.000Z</time>
      </trkpt>
      <trkpt lat="39.514963" lon="-0.503344">
        <ele>58</ele>
        <time>2018-11-04T10:42:20.000Z</time>
      </trkpt>
      <trkpt lat="39.514926" lon="-0.50331">
        <ele>58</ele>
        <time>2018-11-04T10:42:21.000Z</time>
      </trkpt>
      <trkpt lat="39.514886" lon="-0.503274">
        <ele>58</ele>
        <time>2018-11-04T10:42:22.000Z</time>
      </trkpt>
      <trkpt lat="39.514844" lon="-0.503238">
        <ele>58</ele>
        <time>2018-11-04T10:42:23.000Z</time>
      </trkpt>
      <trkpt lat="39.5148" lon="-0.503207">
        <ele>58</ele>
        <time>2018-11-04T10:42:24.000Z</time>
      </trkpt>
      <trkpt lat="39.514756" lon="-0.503175">
        <ele>58.8899968</ele>
        <time>2018-11-04T10:42:25.000Z</time>
      </trkpt>
      <trkpt lat="39.514719" lon="-0.503138">
        <ele>59</ele>
        <time>2018-11-04T10:42:26.000Z</time>
      </trkpt>
      <trkpt lat="39.514681" lon="-0.503094">
        <ele>59</ele>
        <time>2018-11-04T10:42:27.000Z</time>
      </trkpt>
      <trkpt lat="39.514646" lon="-0.503053">
        <ele>59</ele>
        <time>2018-11-04T10:42:28.000Z</time>
      </trkpt>
      <trkpt lat="39.514613" lon="-0.503012">
        <ele>59</ele>
        <time>2018-11-04T10:42:29.000Z</time>
      </trkpt>
      <trkpt lat="39.51458" lon="-0.50297">
        <ele>59</ele>
        <time>2018-11-04T10:42:30.000Z</time>
      </trkpt>
      <trkpt lat="39.514545" lon="-0.50293">
        <ele>59</ele>
        <time>2018-11-04T10:42:31.000Z</time>
      </trkpt>
      <trkpt lat="39.514511" lon="-0.502887">
        <ele>59</ele>
        <time>2018-11-04T10:42:32.000Z</time>
      </trkpt>
      <trkpt lat="39.514477" lon="-0.502842">
        <ele>59</ele>
        <time>2018-11-04T10:42:33.000Z</time>
      </trkpt>
      <trkpt lat="39.514444" lon="-0.502796">
        <ele>59</ele>
        <time>2018-11-04T10:42:34.000Z</time>
      </trkpt>
      <trkpt lat="39.51441" lon="-0.502751">
        <ele>59</ele>
        <time>2018-11-04T10:42:35.000Z</time>
      </trkpt>
      <trkpt lat="39.514375" lon="-0.502708">
        <ele>59</ele>
        <time>2018-11-04T10:42:36.000Z</time>
      </trkpt>
      <trkpt lat="39.514339" lon="-0.502664">
        <ele>59</ele>
        <time>2018-11-04T10:42:37.000Z</time>
      </trkpt>
      <trkpt lat="39.514301" lon="-0.502621">
        <ele>59</ele>
        <time>2018-11-04T10:42:38.000Z</time>
      </trkpt>
      <trkpt lat="39.514261" lon="-0.502575">
        <ele>59</ele>
        <time>2018-11-04T10:42:39.000Z</time>
      </trkpt>
      <trkpt lat="39.51422" lon="-0.502529">
        <ele>59</ele>
        <time>2018-11-04T10:42:40.000Z</time>
      </trkpt>
      <trkpt lat="39.514177" lon="-0.502481">
        <ele>59</ele>
        <time>2018-11-04T10:42:41.000Z</time>
      </trkpt>
      <trkpt lat="39.514134" lon="-0.502431">
        <ele>59</ele>
        <time>2018-11-04T10:42:42.000Z</time>
      </trkpt>
      <trkpt lat="39.514092" lon="-0.502381">
        <ele>59</ele>
        <time>2018-11-04T10:42:43.000Z</time>
      </trkpt>
      <trkpt lat="39.514052" lon="-0.502329">
        <ele>59</ele>
        <time>2018-11-04T10:42:44.000Z</time>
      </trkpt>
      <trkpt lat="39.514012" lon="-0.502283">
        <ele>59</ele>
        <time>2018-11-04T10:42:45.000Z</time>
      </trkpt>
      <trkpt lat="39.513974" lon="-0.502239">
        <ele>59</ele>
        <time>2018-11-04T10:42:46.000Z</time>
      </trkpt>
      <trkpt lat="39.51394" lon="-0.502195">
        <ele>59</ele>
        <time>2018-11-04T10:42:47.000Z</time>
      </trkpt>
      <trkpt lat="39.513912" lon="-0.502146">
        <ele>59</ele>
        <time>2018-11-04T10:42:48.000Z</time>
      </trkpt>
      <trkpt lat="39.513886" lon="-0.502092">
        <ele>59</ele>
        <time>2018-11-04T10:42:49.000Z</time>
      </trkpt>
      <trkpt lat="39.513866" lon="-0.502035">
        <ele>59</ele>
        <time>2018-11-04T10:42:50.000Z</time>
      </trkpt>
      <trkpt lat="39.513845" lon="-0.501977">
        <ele>59</ele>
        <time>2018-11-04T10:42:51.000Z</time>
      </trkpt>
      <trkpt lat="39.513821" lon="-0.50192">
        <ele>59</ele>
        <time>2018-11-04T10:42:52.000Z</time>
      </trkpt>
      <trkpt lat="39.513792" lon="-0.501864">
        <ele>59</ele>
        <time>2018-11-04T10:42:53.000Z</time>
      </trkpt>
      <trkpt lat="39.513764" lon="-0.501808">
        <ele>58.1100032</ele>
        <time>2018-11-04T10:42:54.000Z</time>
      </trkpt>
      <trkpt lat="39.513733" lon="-0.501752">
        <ele>58</ele>
        <time>2018-11-04T10:42:55.000Z</time>
      </trkpt>
      <trkpt lat="39.513701" lon="-0.501696">
        <ele>58</ele>
        <time>2018-11-04T10:42:56.000Z</time>
      </trkpt>
      <trkpt lat="39.513665" lon="-0.50164">
        <ele>58</ele>
        <time>2018-11-04T10:42:57.000Z</time>
      </trkpt>
      <trkpt lat="39.513625" lon="-0.501585">
        <ele>58</ele>
        <time>2018-11-04T10:42:58.000Z</time>
      </trkpt>
      <trkpt lat="39.513579" lon="-0.501534">
        <ele>58</ele>
        <time>2018-11-04T10:42:59.000Z</time>
      </trkpt>
      <trkpt lat="39.513532" lon="-0.501485">
        <ele>58</ele>
        <time>2018-11-04T10:43:00.000Z</time>
      </trkpt>
      <trkpt lat="39.513481" lon="-0.501442">
        <ele>58</ele>
        <time>2018-11-04T10:43:01.000Z</time>
      </trkpt>
      <trkpt lat="39.513427" lon="-0.501403">
        <ele>57.1100032</ele>
        <time>2018-11-04T10:43:02.000Z</time>
      </trkpt>
      <trkpt lat="39.513372" lon="-0.501373">
        <ele>57</ele>
        <time>2018-11-04T10:43:03.000Z</time>
      </trkpt>
      <trkpt lat="39.513321" lon="-0.501345">
        <ele>57</ele>
        <time>2018-11-04T10:43:04.000Z</time>
      </trkpt>
      <trkpt lat="39.513282" lon="-0.501306">
        <ele>57</ele>
        <time>2018-11-04T10:43:05.000Z</time>
      </trkpt>
      <trkpt lat="39.513259" lon="-0.501263">
        <ele>57</ele>
        <time>2018-11-04T10:43:06.000Z</time>
      </trkpt>
      <trkpt lat="39.513254" lon="-0.501222">
        <ele>57</ele>
        <time>2018-11-04T10:43:07.000Z</time>
      </trkpt>
      <trkpt lat="39.51326" lon="-0.501191">
        <ele>57</ele>
        <time>2018-11-04T10:43:08.000Z</time>
      </trkpt>
      <trkpt lat="39.513269" lon="-0.501157">
        <ele>56.1100032</ele>
        <time>2018-11-04T10:43:09.000Z</time>
      </trkpt>
      <trkpt lat="39.513275" lon="-0.501117">
        <ele>56</ele>
        <time>2018-11-04T10:43:10.000Z</time>
      </trkpt>
      <trkpt lat="39.51328" lon="-0.501073">
        <ele>56</ele>
        <time>2018-11-04T10:43:11.000Z</time>
      </trkpt>
      <trkpt lat="39.513283" lon="-0.50103">
        <ele>56.8899968</ele>
        <time>2018-11-04T10:43:12.000Z</time>
      </trkpt>
      <trkpt lat="39.513274" lon="-0.500984">
        <ele>57</ele>
        <time>2018-11-04T10:43:13.000Z</time>
      </trkpt>
      <trkpt lat="39.513261" lon="-0.500944">
        <ele>57</ele>
        <time>2018-11-04T10:43:14.000Z</time>
      </trkpt>
      <trkpt lat="39.513245" lon="-0.50091">
        <ele>57</ele>
        <time>2018-11-04T10:43:15.000Z</time>
      </trkpt>
      <trkpt lat="39.513232" lon="-0.500881">
        <ele>57</ele>
        <time>2018-11-04T10:43:16.000Z</time>
      </trkpt>
      <trkpt lat="39.513219" lon="-0.500852">
        <ele>57</ele>
        <time>2018-11-04T10:43:17.000Z</time>
      </trkpt>
      <trkpt lat="39.513203" lon="-0.500825">
        <ele>57</ele>
        <time>2018-11-04T10:43:18.000Z</time>
      </trkpt>
      <trkpt lat="39.513181" lon="-0.500801">
        <ele>56.1834867772089</ele>
        <time>2018-11-04T10:43:19.000Z</time>
      </trkpt>
      <trkpt lat="39.513158" lon="-0.500782">
        <ele>56</ele>
        <time>2018-11-04T10:43:20.000Z</time>
      </trkpt>
      <trkpt lat="39.513134" lon="-0.500763">
        <ele>56</ele>
        <time>2018-11-04T10:43:21.000Z</time>
      </trkpt>
      <trkpt lat="39.513106" lon="-0.500745">
        <ele>56</ele>
        <time>2018-11-04T10:43:22.000Z</time>
      </trkpt>
      <trkpt lat="39.513077" lon="-0.500725">
        <ele>56</ele>
        <time>2018-11-04T10:43:23.000Z</time>
      </trkpt>
      <trkpt lat="39.513048" lon="-0.500696">
        <ele>56</ele>
        <time>2018-11-04T10:43:24.000Z</time>
      </trkpt>
      <trkpt lat="39.513019" lon="-0.500665">
        <ele>56</ele>
        <time>2018-11-04T10:43:25.000Z</time>
      </trkpt>
      <trkpt lat="39.512985" lon="-0.500641">
        <ele>56</ele>
        <time>2018-11-04T10:43:26.000Z</time>
      </trkpt>
      <trkpt lat="39.512954" lon="-0.500618">
        <ele>56</ele>
        <time>2018-11-04T10:43:27.000Z</time>
      </trkpt>
      <trkpt lat="39.512923" lon="-0.500593">
        <ele>56</ele>
        <time>2018-11-04T10:43:28.000Z</time>
      </trkpt>
      <trkpt lat="39.512893" lon="-0.500568">
        <ele>56</ele>
        <time>2018-11-04T10:43:29.000Z</time>
      </trkpt>
      <trkpt lat="39.512859" lon="-0.500547">
        <ele>56</ele>
        <time>2018-11-04T10:43:30.000Z</time>
      </trkpt>
      <trkpt lat="39.512821" lon="-0.500527">
        <ele>56</ele>
        <time>2018-11-04T10:43:31.000Z</time>
      </trkpt>
      <trkpt lat="39.512782" lon="-0.500507">
        <ele>56</ele>
        <time>2018-11-04T10:43:32.000Z</time>
      </trkpt>
      <trkpt lat="39.512744" lon="-0.500485">
        <ele>56</ele>
        <time>2018-11-04T10:43:33.000Z</time>
      </trkpt>
      <trkpt lat="39.512707" lon="-0.500463">
        <ele>56</ele>
        <time>2018-11-04T10:43:34.000Z</time>
      </trkpt>
      <trkpt lat="39.512671" lon="-0.500438">
        <ele>56.8493100243727</ele>
        <time>2018-11-04T10:43:35.000Z</time>
      </trkpt>
      <trkpt lat="39.512638" lon="-0.500412">
        <ele>57</ele>
        <time>2018-11-04T10:43:36.000Z</time>
      </trkpt>
      <trkpt lat="39.512604" lon="-0.500389">
        <ele>57</ele>
        <time>2018-11-04T10:43:37.000Z</time>
      </trkpt>
      <trkpt lat="39.51257" lon="-0.500367">
        <ele>57</ele>
        <time>2018-11-04T10:43:38.000Z</time>
      </trkpt>
      <trkpt lat="39.512535" lon="-0.500346">
        <ele>57</ele>
        <time>2018-11-04T10:43:39.000Z</time>
      </trkpt>
      <trkpt lat="39.5125" lon="-0.500324">
        <ele>57</ele>
        <time>2018-11-04T10:43:40.000Z</time>
      </trkpt>
      <trkpt lat="39.512463" lon="-0.500301">
        <ele>57</ele>
        <time>2018-11-04T10:43:41.000Z</time>
      </trkpt>
      <trkpt lat="39.512429" lon="-0.500278">
        <ele>57</ele>
        <time>2018-11-04T10:43:42.000Z</time>
      </trkpt>
      <trkpt lat="39.512397" lon="-0.500253">
        <ele>57</ele>
        <time>2018-11-04T10:43:43.000Z</time>
      </trkpt>
      <trkpt lat="39.512366" lon="-0.500228">
        <ele>57</ele>
        <time>2018-11-04T10:43:44.000Z</time>
      </trkpt>
      <trkpt lat="39.512333" lon="-0.500204">
        <ele>56.1122474302209</ele>
        <time>2018-11-04T10:43:45.000Z</time>
      </trkpt>
      <trkpt lat="39.512297" lon="-0.500181">
        <ele>56</ele>
        <time>2018-11-04T10:43:46.000Z</time>
      </trkpt>
      <trkpt lat="39.512263" lon="-0.500148">
        <ele>56</ele>
        <time>2018-11-04T10:43:47.000Z</time>
      </trkpt>
      <trkpt lat="39.512223" lon="-0.500106">
        <ele>56</ele>
        <time>2018-11-04T10:43:48.000Z</time>
      </trkpt>
      <trkpt lat="39.512184" lon="-0.500055">
        <ele>56.8899968</ele>
        <time>2018-11-04T10:43:49.000Z</time>
      </trkpt>
      <trkpt lat="39.512148" lon="-0.5">
        <ele>57</ele>
        <time>2018-11-04T10:43:50.000Z</time>
      </trkpt>
      <trkpt lat="39.512114" lon="-0.499953">
        <ele>57</ele>
        <time>2018-11-04T10:43:51.000Z</time>
      </trkpt>
      <trkpt lat="39.512078" lon="-0.499894">
        <ele>57</ele>
        <time>2018-11-04T10:43:52.000Z</time>
      </trkpt>
      <trkpt lat="39.512043" lon="-0.499838">
        <ele>57</ele>
        <time>2018-11-04T10:43:53.000Z</time>
      </trkpt>
      <trkpt lat="39.512003" lon="-0.499776">
        <ele>57</ele>
        <time>2018-11-04T10:43:54.000Z</time>
      </trkpt>
      <trkpt lat="39.511959" lon="-0.499716">
        <ele>57</ele>
        <time>2018-11-04T10:43:55.000Z</time>
      </trkpt>
      <trkpt lat="39.51191" lon="-0.499658">
        <ele>57</ele>
        <time>2018-11-04T10:43:56.000Z</time>
      </trkpt>
      <trkpt lat="39.511858" lon="-0.499603">
        <ele>56.1527822222222</ele>
        <time>2018-11-04T10:43:57.000Z</time>
      </trkpt>
      <trkpt lat="39.511806" lon="-0.499552">
        <ele>56</ele>
        <time>2018-11-04T10:43:58.000Z</time>
      </trkpt>
      <trkpt lat="39.511756" lon="-0.4995">
        <ele>56</ele>
        <time>2018-11-04T10:43:59.000Z</time>
      </trkpt>
      <trkpt lat="39.511706" lon="-0.499451">
        <ele>55.1100032</ele>
        <time>2018-11-04T10:44:00.000Z</time>
      </trkpt>
      <trkpt lat="39.511654" lon="-0.499404">
        <ele>55</ele>
        <time>2018-11-04T10:44:01.000Z</time>
      </trkpt>
      <trkpt lat="39.511604" lon="-0.499356">
        <ele>55</ele>
        <time>2018-11-04T10:44:02.000Z</time>
      </trkpt>
      <trkpt lat="39.511554" lon="-0.499311">
        <ele>55</ele>
        <time>2018-11-04T10:44:03.000Z</time>
      </trkpt>
      <trkpt lat="39.511502" lon="-0.499267">
        <ele>55</ele>
        <time>2018-11-04T10:44:04.000Z</time>
      </trkpt>
      <trkpt lat="39.51145" lon="-0.499226">
        <ele>55</ele>
        <time>2018-11-04T10:44:05.000Z</time>
      </trkpt>
      <trkpt lat="39.511394" lon="-0.499202">
        <ele>55</ele>
        <time>2018-11-04T10:44:06.000Z</time>
      </trkpt>
      <trkpt lat="39.511334" lon="-0.499196">
        <ele>54.1100032</ele>
        <time>2018-11-04T10:44:07.000Z</time>
      </trkpt>
      <trkpt lat="39.511274" lon="-0.49921">
        <ele>54</ele>
        <time>2018-11-04T10:44:08.000Z</time>
      </trkpt>
      <trkpt lat="39.51122" lon="-0.499224">
        <ele>54</ele>
        <time>2018-11-04T10:44:09.000Z</time>
      </trkpt>
      <trkpt lat="39.511168" lon="-0.499249">
        <ele>54</ele>
        <time>2018-11-04T10:44:10.000Z</time>
      </trkpt>
      <trkpt lat="39.511114" lon="-0.499278">
        <ele>54</ele>
        <time>2018-11-04T10:44:11.000Z</time>
      </trkpt>
      <trkpt lat="39.511058" lon="-0.499301">
        <ele>53.3206081510216</ele>
        <time>2018-11-04T10:44:12.000Z</time>
      </trkpt>
      <trkpt lat="39.510998" lon="-0.499322">
        <ele>53</ele>
        <time>2018-11-04T10:44:13.000Z</time>
      </trkpt>
      <trkpt lat="39.510943" lon="-0.499339">
        <ele>53</ele>
        <time>2018-11-04T10:44:14.000Z</time>
      </trkpt>
      <trkpt lat="39.510888" lon="-0.499347">
        <ele>53</ele>
        <time>2018-11-04T10:44:15.000Z</time>
      </trkpt>
      <trkpt lat="39.510836" lon="-0.499345">
        <ele>52.1100032</ele>
        <time>2018-11-04T10:44:16.000Z</time>
      </trkpt>
      <trkpt lat="39.510786" lon="-0.499342">
        <ele>52</ele>
        <time>2018-11-04T10:44:17.000Z</time>
      </trkpt>
      <trkpt lat="39.510738" lon="-0.499339">
        <ele>52</ele>
        <time>2018-11-04T10:44:18.000Z</time>
      </trkpt>
      <trkpt lat="39.51069" lon="-0.499332">
        <ele>52</ele>
        <time>2018-11-04T10:44:19.000Z</time>
      </trkpt>
      <trkpt lat="39.51064" lon="-0.499321">
        <ele>52</ele>
        <time>2018-11-04T10:44:20.000Z</time>
      </trkpt>
      <trkpt lat="39.510588" lon="-0.499299">
        <ele>52</ele>
        <time>2018-11-04T10:44:21.000Z</time>
      </trkpt>
      <trkpt lat="39.510541" lon="-0.499262">
        <ele>52</ele>
        <time>2018-11-04T10:44:22.000Z</time>
      </trkpt>
      <trkpt lat="39.510502" lon="-0.499216">
        <ele>52</ele>
        <time>2018-11-04T10:44:23.000Z</time>
      </trkpt>
      <trkpt lat="39.510464" lon="-0.499172">
        <ele>52</ele>
        <time>2018-11-04T10:44:24.000Z</time>
      </trkpt>
      <trkpt lat="39.510424" lon="-0.499133">
        <ele>52</ele>
        <time>2018-11-04T10:44:25.000Z</time>
      </trkpt>
      <trkpt lat="39.510382" lon="-0.499099">
        <ele>52</ele>
        <time>2018-11-04T10:44:26.000Z</time>
      </trkpt>
      <trkpt lat="39.510341" lon="-0.499069">
        <ele>52</ele>
        <time>2018-11-04T10:44:27.000Z</time>
      </trkpt>
      <trkpt lat="39.510299" lon="-0.499039">
        <ele>52</ele>
        <time>2018-11-04T10:44:28.000Z</time>
      </trkpt>
      <trkpt lat="39.510261" lon="-0.499009">
        <ele>52.872551357185</ele>
        <time>2018-11-04T10:44:29.000Z</time>
      </trkpt>
      <trkpt lat="39.510226" lon="-0.49897">
        <ele>53</ele>
        <time>2018-11-04T10:44:30.000Z</time>
      </trkpt>
      <trkpt lat="39.510202" lon="-0.498923">
        <ele>53</ele>
        <time>2018-11-04T10:44:31.000Z</time>
      </trkpt>
      <trkpt lat="39.510186" lon="-0.498861">
        <ele>53</ele>
        <time>2018-11-04T10:44:32.000Z</time>
      </trkpt>
      <trkpt lat="39.510175" lon="-0.498801">
        <ele>53</ele>
        <time>2018-11-04T10:44:33.000Z</time>
      </trkpt>
      <trkpt lat="39.510164" lon="-0.498739">
        <ele>53</ele>
        <time>2018-11-04T10:44:34.000Z</time>
      </trkpt>
      <trkpt lat="39.510152" lon="-0.498676">
        <ele>53.8899968</ele>
        <time>2018-11-04T10:44:35.000Z</time>
      </trkpt>
      <trkpt lat="39.510138" lon="-0.498612">
        <ele>54</ele>
        <time>2018-11-04T10:44:36.000Z</time>
      </trkpt>
      <trkpt lat="39.510122" lon="-0.498549">
        <ele>54</ele>
        <time>2018-11-04T10:44:37.000Z</time>
      </trkpt>
      <trkpt lat="39.5101" lon="-0.498487">
        <ele>54</ele>
        <time>2018-11-04T10:44:38.000Z</time>
      </trkpt>
      <trkpt lat="39.510079" lon="-0.498425">
        <ele>54</ele>
        <time>2018-11-04T10:44:39.000Z</time>
      </trkpt>
      <trkpt lat="39.510057" lon="-0.498361">
        <ele>54.69531</ele>
        <time>2018-11-04T10:44:40.000Z</time>
      </trkpt>
      <trkpt lat="39.510036" lon="-0.4983">
        <ele>55</ele>
        <time>2018-11-04T10:44:41.000Z</time>
      </trkpt>
      <trkpt lat="39.510016" lon="-0.498236">
        <ele>55</ele>
        <time>2018-11-04T10:44:42.000Z</time>
      </trkpt>
      <trkpt lat="39.509999" lon="-0.49817">
        <ele>55</ele>
        <time>2018-11-04T10:44:43.000Z</time>
      </trkpt>
      <trkpt lat="39.509984" lon="-0.498101">
        <ele>54.1100032</ele>
        <time>2018-11-04T10:44:44.000Z</time>
      </trkpt>
      <trkpt lat="39.509974" lon="-0.49803">
        <ele>54</ele>
        <time>2018-11-04T10:44:45.000Z</time>
      </trkpt>
      <trkpt lat="39.50996" lon="-0.497961">
        <ele>54</ele>
        <time>2018-11-04T10:44:46.000Z</time>
      </trkpt>
      <trkpt lat="39.509954" lon="-0.497896">
        <ele>54</ele>
        <time>2018-11-04T10:44:47.000Z</time>
      </trkpt>
      <trkpt lat="39.509952" lon="-0.497831">
        <ele>54</ele>
        <time>2018-11-04T10:44:48.000Z</time>
      </trkpt>
      <trkpt lat="39.509952" lon="-0.497773">
        <ele>54</ele>
        <time>2018-11-04T10:44:49.000Z</time>
      </trkpt>
      <trkpt lat="39.50995" lon="-0.497723">
        <ele>53.1100032</ele>
        <time>2018-11-04T10:44:50.000Z</time>
      </trkpt>
      <trkpt lat="39.509949" lon="-0.497678">
        <ele>53</ele>
        <time>2018-11-04T10:44:51.000Z</time>
      </trkpt>
      <trkpt lat="39.509948" lon="-0.497637">
        <ele>53</ele>
        <time>2018-11-04T10:44:52.000Z</time>
      </trkpt>
      <trkpt lat="39.509948" lon="-0.497598">
        <ele>53</ele>
        <time>2018-11-04T10:44:53.000Z</time>
      </trkpt>
      <trkpt lat="39.509948" lon="-0.497556">
        <ele>53.8899968</ele>
        <time>2018-11-04T10:44:54.000Z</time>
      </trkpt>
      <trkpt lat="39.509948" lon="-0.497511">
        <ele>54</ele>
        <time>2018-11-04T10:44:55.000Z</time>
      </trkpt>
      <trkpt lat="39.509948" lon="-0.497465">
        <ele>54</ele>
        <time>2018-11-04T10:44:56.000Z</time>
      </trkpt>
      <trkpt lat="39.509948" lon="-0.497418">
        <ele>54.8899968</ele>
        <time>2018-11-04T10:44:57.000Z</time>
      </trkpt>
      <trkpt lat="39.509946" lon="-0.497372">
        <ele>55</ele>
        <time>2018-11-04T10:44:58.000Z</time>
      </trkpt>
      <trkpt lat="39.509944" lon="-0.497329">
        <ele>55</ele>
        <time>2018-11-04T10:44:59.000Z</time>
      </trkpt>
      <trkpt lat="39.509939" lon="-0.497288">
        <ele>55</ele>
        <time>2018-11-04T10:45:00.000Z</time>
      </trkpt>
      <trkpt lat="39.509934" lon="-0.497249">
        <ele>55</ele>
        <time>2018-11-04T10:45:01.000Z</time>
      </trkpt>
      <trkpt lat="39.509933" lon="-0.497212">
        <ele>55</ele>
        <time>2018-11-04T10:45:02.000Z</time>
      </trkpt>
      <trkpt lat="39.509938" lon="-0.497175">
        <ele>55</ele>
        <time>2018-11-04T10:45:03.000Z</time>
      </trkpt>
      <trkpt lat="39.509939" lon="-0.497142">
        <ele>55</ele>
        <time>2018-11-04T10:45:04.000Z</time>
      </trkpt>
      <trkpt lat="39.509938" lon="-0.497116">
        <ele>55</ele>
        <time>2018-11-04T10:45:05.000Z</time>
      </trkpt>
      <trkpt lat="39.509942" lon="-0.497092">
        <ele>55</ele>
        <time>2018-11-04T10:45:06.000Z</time>
      </trkpt>
      <trkpt lat="39.509941" lon="-0.497045">
        <ele>56</ele>
        <time>2018-11-04T10:45:08.000Z</time>
      </trkpt>
      <trkpt lat="39.509938" lon="-0.49702">
        <ele>56</ele>
        <time>2018-11-04T10:45:09.000Z</time>
      </trkpt>
      <trkpt lat="39.509942" lon="-0.496992">
        <ele>56</ele>
        <time>2018-11-04T10:45:10.000Z</time>
      </trkpt>
      <trkpt lat="39.509946" lon="-0.496958">
        <ele>56</ele>
        <time>2018-11-04T10:45:11.000Z</time>
      </trkpt>
      <trkpt lat="39.509949" lon="-0.496921">
        <ele>56.8493126665732</ele>
        <time>2018-11-04T10:45:12.000Z</time>
      </trkpt>
      <trkpt lat="39.509948" lon="-0.496885">
        <ele>57</ele>
        <time>2018-11-04T10:45:13.000Z</time>
      </trkpt>
      <trkpt lat="39.509948" lon="-0.496842">
        <ele>57.8899968</ele>
        <time>2018-11-04T10:45:14.000Z</time>
      </trkpt>
      <trkpt lat="39.509949" lon="-0.496797">
        <ele>58</ele>
        <time>2018-11-04T10:45:15.000Z</time>
      </trkpt>
      <trkpt lat="39.509951" lon="-0.496751">
        <ele>58</ele>
        <time>2018-11-04T10:45:16.000Z</time>
      </trkpt>
      <trkpt lat="39.509951" lon="-0.496706">
        <ele>58.8899968</ele>
        <time>2018-11-04T10:45:17.000Z</time>
      </trkpt>
      <trkpt lat="39.509952" lon="-0.496659">
        <ele>59</ele>
        <time>2018-11-04T10:45:18.000Z</time>
      </trkpt>
      <trkpt lat="39.509952" lon="-0.496609">
        <ele>59</ele>
        <time>2018-11-04T10:45:19.000Z</time>
      </trkpt>
      <trkpt lat="39.509954" lon="-0.496561">
        <ele>59</ele>
        <time>2018-11-04T10:45:20.000Z</time>
      </trkpt>
      <trkpt lat="39.509951" lon="-0.496515">
        <ele>59</ele>
        <time>2018-11-04T10:45:21.000Z</time>
      </trkpt>
      <trkpt lat="39.509949" lon="-0.496464">
        <ele>59</ele>
        <time>2018-11-04T10:45:22.000Z</time>
      </trkpt>
      <trkpt lat="39.509942" lon="-0.496416">
        <ele>59</ele>
        <time>2018-11-04T10:45:23.000Z</time>
      </trkpt>
      <trkpt lat="39.509936" lon="-0.496365">
        <ele>59</ele>
        <time>2018-11-04T10:45:24.000Z</time>
      </trkpt>
      <trkpt lat="39.509928" lon="-0.496314">
        <ele>59.8450666137843</ele>
        <time>2018-11-04T10:45:25.000Z</time>
      </trkpt>
      <trkpt lat="39.509919" lon="-0.496263">
        <ele>59.118812257623</ele>
        <time>2018-11-04T10:45:26.000Z</time>
      </trkpt>
      <trkpt lat="39.50991" lon="-0.496211">
        <ele>59.888886015722</ele>
        <time>2018-11-04T10:45:27.000Z</time>
      </trkpt>
      <trkpt lat="39.509907" lon="-0.496156">
        <ele>60</ele>
        <time>2018-11-04T10:45:28.000Z</time>
      </trkpt>
      <trkpt lat="39.509908" lon="-0.496097">
        <ele>60</ele>
        <time>2018-11-04T10:45:29.000Z</time>
      </trkpt>
      <trkpt lat="39.509911" lon="-0.496037">
        <ele>60</ele>
        <time>2018-11-04T10:45:30.000Z</time>
      </trkpt>
      <trkpt lat="39.509914" lon="-0.495974">
        <ele>60</ele>
        <time>2018-11-04T10:45:31.000Z</time>
      </trkpt>
      <trkpt lat="39.509919" lon="-0.495908">
        <ele>60</ele>
        <time>2018-11-04T10:45:32.000Z</time>
      </trkpt>
      <trkpt lat="39.509926" lon="-0.495846">
        <ele>60</ele>
        <time>2018-11-04T10:45:33.000Z</time>
      </trkpt>
      <trkpt lat="39.509936" lon="-0.495788">
        <ele>60</ele>
        <time>2018-11-04T10:45:34.000Z</time>
      </trkpt>
      <trkpt lat="39.509948" lon="-0.495726">
        <ele>60</ele>
        <time>2018-11-04T10:45:35.000Z</time>
      </trkpt>
      <trkpt lat="39.509961" lon="-0.495659">
        <ele>60</ele>
        <time>2018-11-04T10:45:36.000Z</time>
      </trkpt>
      <trkpt lat="39.50997" lon="-0.495597">
        <ele>60</ele>
        <time>2018-11-04T10:45:37.000Z</time>
      </trkpt>
      <trkpt lat="39.509978" lon="-0.495538">
        <ele>60</ele>
        <time>2018-11-04T10:45:38.000Z</time>
      </trkpt>
      <trkpt lat="39.509992" lon="-0.495474">
        <ele>60</ele>
        <time>2018-11-04T10:45:39.000Z</time>
      </trkpt>
      <trkpt lat="39.510011" lon="-0.495406">
        <ele>60</ele>
        <time>2018-11-04T10:45:40.000Z</time>
      </trkpt>
      <trkpt lat="39.510027" lon="-0.495343">
        <ele>60</ele>
        <time>2018-11-04T10:45:41.000Z</time>
      </trkpt>
      <trkpt lat="39.510043" lon="-0.495278">
        <ele>60</ele>
        <time>2018-11-04T10:45:42.000Z</time>
      </trkpt>
      <trkpt lat="39.510061" lon="-0.495218">
        <ele>60</ele>
        <time>2018-11-04T10:45:43.000Z</time>
      </trkpt>
      <trkpt lat="39.510076" lon="-0.495162">
        <ele>60.8899968</ele>
        <time>2018-11-04T10:45:44.000Z</time>
      </trkpt>
      <trkpt lat="39.510091" lon="-0.495104">
        <ele>61</ele>
        <time>2018-11-04T10:45:45.000Z</time>
      </trkpt>
      <trkpt lat="39.510105" lon="-0.495046">
        <ele>61</ele>
        <time>2018-11-04T10:45:46.000Z</time>
      </trkpt>
      <trkpt lat="39.51012" lon="-0.494983">
        <ele>61</ele>
        <time>2018-11-04T10:45:47.000Z</time>
      </trkpt>
      <trkpt lat="39.510134" lon="-0.494922">
        <ele>61</ele>
        <time>2018-11-04T10:45:48.000Z</time>
      </trkpt>
      <trkpt lat="39.510146" lon="-0.494861">
        <ele>61</ele>
        <time>2018-11-04T10:45:49.000Z</time>
      </trkpt>
      <trkpt lat="39.510156" lon="-0.494801">
        <ele>61.8899968</ele>
        <time>2018-11-04T10:45:50.000Z</time>
      </trkpt>
      <trkpt lat="39.510164" lon="-0.49474">
        <ele>61.1100032</ele>
        <time>2018-11-04T10:45:51.000Z</time>
      </trkpt>
      <trkpt lat="39.510174" lon="-0.494682">
        <ele>61</ele>
        <time>2018-11-04T10:45:52.000Z</time>
      </trkpt>
      <trkpt lat="39.510185" lon="-0.494623">
        <ele>61</ele>
        <time>2018-11-04T10:45:53.000Z</time>
      </trkpt>
      <trkpt lat="39.510192" lon="-0.494566">
        <ele>61</ele>
        <time>2018-11-04T10:45:54.000Z</time>
      </trkpt>
      <trkpt lat="39.510199" lon="-0.49451">
        <ele>61</ele>
        <time>2018-11-04T10:45:55.000Z</time>
      </trkpt>
      <trkpt lat="39.510207" lon="-0.494454">
        <ele>61</ele>
        <time>2018-11-04T10:45:56.000Z</time>
      </trkpt>
      <trkpt lat="39.510217" lon="-0.494395">
        <ele>61</ele>
        <time>2018-11-04T10:45:57.000Z</time>
      </trkpt>
      <trkpt lat="39.510229" lon="-0.494333">
        <ele>61</ele>
        <time>2018-11-04T10:45:58.000Z</time>
      </trkpt>
      <trkpt lat="39.510249" lon="-0.49427">
        <ele>61</ele>
        <time>2018-11-04T10:45:59.000Z</time>
      </trkpt>
      <trkpt lat="39.510267" lon="-0.49421">
        <ele>61</ele>
        <time>2018-11-04T10:46:00.000Z</time>
      </trkpt>
      <trkpt lat="39.510282" lon="-0.494147">
        <ele>61</ele>
        <time>2018-11-04T10:46:01.000Z</time>
      </trkpt>
      <trkpt lat="39.510294" lon="-0.494083">
        <ele>61</ele>
        <time>2018-11-04T10:46:02.000Z</time>
      </trkpt>
      <trkpt lat="39.510308" lon="-0.494015">
        <ele>61</ele>
        <time>2018-11-04T10:46:03.000Z</time>
      </trkpt>
      <trkpt lat="39.510326" lon="-0.493944">
        <ele>61</ele>
        <time>2018-11-04T10:46:04.000Z</time>
      </trkpt>
      <trkpt lat="39.510343" lon="-0.493876">
        <ele>61</ele>
        <time>2018-11-04T10:46:05.000Z</time>
      </trkpt>
      <trkpt lat="39.510357" lon="-0.493811">
        <ele>61</ele>
        <time>2018-11-04T10:46:06.000Z</time>
      </trkpt>
      <trkpt lat="39.51037" lon="-0.493745">
        <ele>61</ele>
        <time>2018-11-04T10:46:07.000Z</time>
      </trkpt>
      <trkpt lat="39.510388" lon="-0.493673">
        <ele>61</ele>
        <time>2018-11-04T10:46:08.000Z</time>
      </trkpt>
      <trkpt lat="39.510404" lon="-0.493599">
        <ele>61</ele>
        <time>2018-11-04T10:46:09.000Z</time>
      </trkpt>
      <trkpt lat="39.51042" lon="-0.493524">
        <ele>61</ele>
        <time>2018-11-04T10:46:10.000Z</time>
      </trkpt>
      <trkpt lat="39.510437" lon="-0.493446">
        <ele>61</ele>
        <time>2018-11-04T10:46:11.000Z</time>
      </trkpt>
      <trkpt lat="39.510454" lon="-0.49337">
        <ele>61</ele>
        <time>2018-11-04T10:46:12.000Z</time>
      </trkpt>
      <trkpt lat="39.51047" lon="-0.493297">
        <ele>61</ele>
        <time>2018-11-04T10:46:13.000Z</time>
      </trkpt>
      <trkpt lat="39.510485" lon="-0.493226">
        <ele>61</ele>
        <time>2018-11-04T10:46:14.000Z</time>
      </trkpt>
      <trkpt lat="39.510503" lon="-0.493156">
        <ele>61</ele>
        <time>2018-11-04T10:46:15.000Z</time>
      </trkpt>
      <trkpt lat="39.510521" lon="-0.493087">
        <ele>61</ele>
        <time>2018-11-04T10:46:16.000Z</time>
      </trkpt>
      <trkpt lat="39.510539" lon="-0.493015">
        <ele>61</ele>
        <time>2018-11-04T10:46:17.000Z</time>
      </trkpt>
      <trkpt lat="39.510552" lon="-0.492944">
        <ele>61</ele>
        <time>2018-11-04T10:46:18.000Z</time>
      </trkpt>
      <trkpt lat="39.510569" lon="-0.492873">
        <ele>61</ele>
        <time>2018-11-04T10:46:19.000Z</time>
      </trkpt>
      <trkpt lat="39.510584" lon="-0.492803">
        <ele>61</ele>
        <time>2018-11-04T10:46:20.000Z</time>
      </trkpt>
      <trkpt lat="39.510598" lon="-0.492739">
        <ele>61</ele>
        <time>2018-11-04T10:46:21.000Z</time>
      </trkpt>
      <trkpt lat="39.510617" lon="-0.492677">
        <ele>61.8899968</ele>
        <time>2018-11-04T10:46:22.000Z</time>
      </trkpt>
      <trkpt lat="39.51064" lon="-0.492613">
        <ele>62</ele>
        <time>2018-11-04T10:46:23.000Z</time>
      </trkpt>
      <trkpt lat="39.510658" lon="-0.492548">
        <ele>62</ele>
        <time>2018-11-04T10:46:24.000Z</time>
      </trkpt>
      <trkpt lat="39.51068" lon="-0.492481">
        <ele>62</ele>
        <time>2018-11-04T10:46:25.000Z</time>
      </trkpt>
      <trkpt lat="39.510706" lon="-0.492416">
        <ele>62</ele>
        <time>2018-11-04T10:46:26.000Z</time>
      </trkpt>
      <trkpt lat="39.510736" lon="-0.492354">
        <ele>62</ele>
        <time>2018-11-04T10:46:27.000Z</time>
      </trkpt>
      <trkpt lat="39.510771" lon="-0.492296">
        <ele>62</ele>
        <time>2018-11-04T10:46:28.000Z</time>
      </trkpt>
      <trkpt lat="39.510802" lon="-0.492242">
        <ele>61.1100032</ele>
        <time>2018-11-04T10:46:29.000Z</time>
      </trkpt>
      <trkpt lat="39.510835" lon="-0.49219">
        <ele>61</ele>
        <time>2018-11-04T10:46:30.000Z</time>
      </trkpt>
      <trkpt lat="39.510866" lon="-0.492142">
        <ele>60.1100032</ele>
        <time>2018-11-04T10:46:31.000Z</time>
      </trkpt>
      <trkpt lat="39.510893" lon="-0.4921">
        <ele>60</ele>
        <time>2018-11-04T10:46:32.000Z</time>
      </trkpt>
      <trkpt lat="39.510917" lon="-0.492058">
        <ele>60</ele>
        <time>2018-11-04T10:46:33.000Z</time>
      </trkpt>
      <trkpt lat="39.510941" lon="-0.492014">
        <ele>60</ele>
        <time>2018-11-04T10:46:34.000Z</time>
      </trkpt>
      <trkpt lat="39.510966" lon="-0.491968">
        <ele>60</ele>
        <time>2018-11-04T10:46:35.000Z</time>
      </trkpt>
      <trkpt lat="39.510985" lon="-0.491915">
        <ele>60</ele>
        <time>2018-11-04T10:46:36.000Z</time>
      </trkpt>
      <trkpt lat="39.510993" lon="-0.491854">
        <ele>59.1100032</ele>
        <time>2018-11-04T10:46:37.000Z</time>
      </trkpt>
      <trkpt lat="39.510997" lon="-0.491788">
        <ele>59</ele>
        <time>2018-11-04T10:46:38.000Z</time>
      </trkpt>
      <trkpt lat="39.510999" lon="-0.491713">
        <ele>59</ele>
        <time>2018-11-04T10:46:39.000Z</time>
      </trkpt>
      <trkpt lat="39.511003" lon="-0.491634">
        <ele>59</ele>
        <time>2018-11-04T10:46:40.000Z</time>
      </trkpt>
      <trkpt lat="39.511012" lon="-0.491554">
        <ele>59</ele>
        <time>2018-11-04T10:46:41.000Z</time>
      </trkpt>
      <trkpt lat="39.511025" lon="-0.491474">
        <ele>58.3100782885663</ele>
        <time>2018-11-04T10:46:42.000Z</time>
      </trkpt>
      <trkpt lat="39.511039" lon="-0.491395">
        <ele>58.8450666137843</ele>
        <time>2018-11-04T10:46:43.000Z</time>
      </trkpt>
      <trkpt lat="39.511057" lon="-0.491317">
        <ele>59</ele>
        <time>2018-11-04T10:46:44.000Z</time>
      </trkpt>
      <trkpt lat="39.511073" lon="-0.491238">
        <ele>59</ele>
        <time>2018-11-04T10:46:45.000Z</time>
      </trkpt>
      <trkpt lat="39.511092" lon="-0.491157">
        <ele>59</ele>
        <time>2018-11-04T10:46:46.000Z</time>
      </trkpt>
      <trkpt lat="39.511113" lon="-0.491076">
        <ele>59</ele>
        <time>2018-11-04T10:46:47.000Z</time>
      </trkpt>
      <trkpt lat="39.511138" lon="-0.490993">
        <ele>59</ele>
        <time>2018-11-04T10:46:48.000Z</time>
      </trkpt>
      <trkpt lat="39.511161" lon="-0.490912">
        <ele>59</ele>
        <time>2018-11-04T10:46:49.000Z</time>
      </trkpt>
      <trkpt lat="39.511184" lon="-0.490833">
        <ele>59</ele>
        <time>2018-11-04T10:46:50.000Z</time>
      </trkpt>
      <trkpt lat="39.511211" lon="-0.49076">
        <ele>59</ele>
        <time>2018-11-04T10:46:51.000Z</time>
      </trkpt>
      <trkpt lat="39.511238" lon="-0.490691">
        <ele>59</ele>
        <time>2018-11-04T10:46:52.000Z</time>
      </trkpt>
      <trkpt lat="39.511267" lon="-0.490626">
        <ele>59.7007901792014</ele>
        <time>2018-11-04T10:46:53.000Z</time>
      </trkpt>
      <trkpt lat="39.511293" lon="-0.490559">
        <ele>60</ele>
        <time>2018-11-04T10:46:54.000Z</time>
      </trkpt>
      <trkpt lat="39.511316" lon="-0.49049">
        <ele>59.1100032</ele>
        <time>2018-11-04T10:46:55.000Z</time>
      </trkpt>
      <trkpt lat="39.51134" lon="-0.490426">
        <ele>59</ele>
        <time>2018-11-04T10:46:56.000Z</time>
      </trkpt>
      <trkpt lat="39.511364" lon="-0.490364">
        <ele>59</ele>
        <time>2018-11-04T10:46:57.000Z</time>
      </trkpt>
      <trkpt lat="39.511386" lon="-0.490306">
        <ele>59</ele>
        <time>2018-11-04T10:46:58.000Z</time>
      </trkpt>
      <trkpt lat="39.511406" lon="-0.490252">
        <ele>59</ele>
        <time>2018-11-04T10:46:59.000Z</time>
      </trkpt>
      <trkpt lat="39.511425" lon="-0.490196">
        <ele>59</ele>
        <time>2018-11-04T10:47:00.000Z</time>
      </trkpt>
      <trkpt lat="39.511444" lon="-0.49014">
        <ele>59</ele>
        <time>2018-11-04T10:47:01.000Z</time>
      </trkpt>
      <trkpt lat="39.511461" lon="-0.490079">
        <ele>59.888886015722</ele>
        <time>2018-11-04T10:47:02.000Z</time>
      </trkpt>
      <trkpt lat="39.511476" lon="-0.490011">
        <ele>60</ele>
        <time>2018-11-04T10:47:03.000Z</time>
      </trkpt>
      <trkpt lat="39.51149" lon="-0.489941">
        <ele>60</ele>
        <time>2018-11-04T10:47:04.000Z</time>
      </trkpt>
      <trkpt lat="39.511504" lon="-0.489872">
        <ele>60</ele>
        <time>2018-11-04T10:47:05.000Z</time>
      </trkpt>
      <trkpt lat="39.511516" lon="-0.489806">
        <ele>60</ele>
        <time>2018-11-04T10:47:06.000Z</time>
      </trkpt>
      <trkpt lat="39.511534" lon="-0.489741">
        <ele>60</ele>
        <time>2018-11-04T10:47:07.000Z</time>
      </trkpt>
      <trkpt lat="39.511551" lon="-0.489674">
        <ele>60</ele>
        <time>2018-11-04T10:47:08.000Z</time>
      </trkpt>
      <trkpt lat="39.51157" lon="-0.489603">
        <ele>60.8405772905189</ele>
        <time>2018-11-04T10:47:09.000Z</time>
      </trkpt>
      <trkpt lat="39.511584" lon="-0.489529">
        <ele>61</ele>
        <time>2018-11-04T10:47:10.000Z</time>
      </trkpt>
      <trkpt lat="39.511594" lon="-0.489458">
        <ele>61</ele>
        <time>2018-11-04T10:47:11.000Z</time>
      </trkpt>
      <trkpt lat="39.511602" lon="-0.489394">
        <ele>61</ele>
        <time>2018-11-04T10:47:12.000Z</time>
      </trkpt>
      <trkpt lat="39.51161" lon="-0.489336">
        <ele>60.1486516873368</ele>
        <time>2018-11-04T10:47:13.000Z</time>
      </trkpt>
      <trkpt lat="39.51161" lon="-0.489286">
        <ele>60</ele>
        <time>2018-11-04T10:47:14.000Z</time>
      </trkpt>
      <trkpt lat="39.511608" lon="-0.489236">
        <ele>59.1100032</ele>
        <time>2018-11-04T10:47:15.000Z</time>
      </trkpt>
      <trkpt lat="39.511606" lon="-0.489182">
        <ele>59</ele>
        <time>2018-11-04T10:47:16.000Z</time>
      </trkpt>
      <trkpt lat="39.511602" lon="-0.489127">
        <ele>58.1100032</ele>
        <time>2018-11-04T10:47:17.000Z</time>
      </trkpt>
      <trkpt lat="39.511602" lon="-0.489068">
        <ele>58</ele>
        <time>2018-11-04T10:47:18.000Z</time>
      </trkpt>
      <trkpt lat="39.511607" lon="-0.489001">
        <ele>58</ele>
        <time>2018-11-04T10:47:19.000Z</time>
      </trkpt>
      <trkpt lat="39.51161" lon="-0.488934">
        <ele>58</ele>
        <time>2018-11-04T10:47:20.000Z</time>
      </trkpt>
      <trkpt lat="39.511612" lon="-0.488872">
        <ele>58</ele>
        <time>2018-11-04T10:47:21.000Z</time>
      </trkpt>
      <trkpt lat="39.511622" lon="-0.488815">
        <ele>58</ele>
        <time>2018-11-04T10:47:22.000Z</time>
      </trkpt>
      <trkpt lat="39.511639" lon="-0.488759">
        <ele>58</ele>
        <time>2018-11-04T10:47:23.000Z</time>
      </trkpt>
      <trkpt lat="39.51166" lon="-0.488702">
        <ele>58</ele>
        <time>2018-11-04T10:47:24.000Z</time>
      </trkpt>
      <trkpt lat="39.51168" lon="-0.48864">
        <ele>58</ele>
        <time>2018-11-04T10:47:25.000Z</time>
      </trkpt>
      <trkpt lat="39.511692" lon="-0.488575">
        <ele>58</ele>
        <time>2018-11-04T10:47:26.000Z</time>
      </trkpt>
      <trkpt lat="39.511704" lon="-0.488506">
        <ele>58</ele>
        <time>2018-11-04T10:47:27.000Z</time>
      </trkpt>
      <trkpt lat="39.51171" lon="-0.48843">
        <ele>58</ele>
        <time>2018-11-04T10:47:28.000Z</time>
      </trkpt>
      <trkpt lat="39.511708" lon="-0.488351">
        <ele>58</ele>
        <time>2018-11-04T10:47:29.000Z</time>
      </trkpt>
      <trkpt lat="39.511708" lon="-0.488271">
        <ele>58</ele>
        <time>2018-11-04T10:47:30.000Z</time>
      </trkpt>
      <trkpt lat="39.511712" lon="-0.488184">
        <ele>58</ele>
        <time>2018-11-04T10:47:31.000Z</time>
      </trkpt>
      <trkpt lat="39.51172" lon="-0.488089">
        <ele>58</ele>
        <time>2018-11-04T10:47:32.000Z</time>
      </trkpt>
      <trkpt lat="39.511734" lon="-0.487994">
        <ele>58</ele>
        <time>2018-11-04T10:47:33.000Z</time>
      </trkpt>
      <trkpt lat="39.51175" lon="-0.487905">
        <ele>58.8899968</ele>
        <time>2018-11-04T10:47:34.000Z</time>
      </trkpt>
      <trkpt lat="39.511762" lon="-0.487828">
        <ele>59</ele>
        <time>2018-11-04T10:47:35.000Z</time>
      </trkpt>
      <trkpt lat="39.511768" lon="-0.487761">
        <ele>59</ele>
        <time>2018-11-04T10:47:36.000Z</time>
      </trkpt>
      <trkpt lat="39.511779" lon="-0.487693">
        <ele>59.8472177777778</ele>
        <time>2018-11-04T10:47:37.000Z</time>
      </trkpt>
      <trkpt lat="39.511794" lon="-0.487621">
        <ele>60</ele>
        <time>2018-11-04T10:47:38.000Z</time>
      </trkpt>
      <trkpt lat="39.511804" lon="-0.48755">
        <ele>60</ele>
        <time>2018-11-04T10:47:39.000Z</time>
      </trkpt>
      <trkpt lat="39.511812" lon="-0.487483">
        <ele>60.8899968</ele>
        <time>2018-11-04T10:47:40.000Z</time>
      </trkpt>
      <trkpt lat="39.511818" lon="-0.487416">
        <ele>61</ele>
        <time>2018-11-04T10:47:41.000Z</time>
      </trkpt>
      <trkpt lat="39.511824" lon="-0.487351">
        <ele>61</ele>
        <time>2018-11-04T10:47:42.000Z</time>
      </trkpt>
      <trkpt lat="39.511824" lon="-0.487287">
        <ele>61</ele>
        <time>2018-11-04T10:47:43.000Z</time>
      </trkpt>
      <trkpt lat="39.511822" lon="-0.487227">
        <ele>61.8899968</ele>
        <time>2018-11-04T10:47:44.000Z</time>
      </trkpt>
      <trkpt lat="39.51182" lon="-0.487166">
        <ele>62</ele>
        <time>2018-11-04T10:47:45.000Z</time>
      </trkpt>
      <trkpt lat="39.51182" lon="-0.487109">
        <ele>62</ele>
        <time>2018-11-04T10:47:46.000Z</time>
      </trkpt>
      <trkpt lat="39.511824" lon="-0.487055">
        <ele>62</ele>
        <time>2018-11-04T10:47:47.000Z</time>
      </trkpt>
      <trkpt lat="39.511827" lon="-0.487008">
        <ele>62</ele>
        <time>2018-11-04T10:47:48.000Z</time>
      </trkpt>
      <trkpt lat="39.511822" lon="-0.486972">
        <ele>62</ele>
        <time>2018-11-04T10:47:49.000Z</time>
      </trkpt>
      <trkpt lat="39.511816" lon="-0.486939">
        <ele>62</ele>
        <time>2018-11-04T10:47:50.000Z</time>
      </trkpt>
      <trkpt lat="39.511803" lon="-0.48691">
        <ele>61.1506899756273</ele>
        <time>2018-11-04T10:47:51.000Z</time>
      </trkpt>
      <trkpt lat="39.511784" lon="-0.486882">
        <ele>61</ele>
        <time>2018-11-04T10:47:52.000Z</time>
      </trkpt>
      <trkpt lat="39.511764" lon="-0.48685">
        <ele>61</ele>
        <time>2018-11-04T10:47:53.000Z</time>
      </trkpt>
      <trkpt lat="39.511741" lon="-0.486819">
        <ele>61</ele>
        <time>2018-11-04T10:47:54.000Z</time>
      </trkpt>
      <trkpt lat="39.51172" lon="-0.486784">
        <ele>61</ele>
        <time>2018-11-04T10:47:55.000Z</time>
      </trkpt>
      <trkpt lat="39.511698" lon="-0.486744">
        <ele>60.1100032</ele>
        <time>2018-11-04T10:47:56.000Z</time>
      </trkpt>
      <trkpt lat="39.511678" lon="-0.486695">
        <ele>60</ele>
        <time>2018-11-04T10:47:57.000Z</time>
      </trkpt>
      <trkpt lat="39.511666" lon="-0.486641">
        <ele>60</ele>
        <time>2018-11-04T10:47:58.000Z</time>
      </trkpt>
      <trkpt lat="39.511661" lon="-0.486577">
        <ele>60</ele>
        <time>2018-11-04T10:47:59.000Z</time>
      </trkpt>
      <trkpt lat="39.511656" lon="-0.4865">
        <ele>60</ele>
        <time>2018-11-04T10:48:00.000Z</time>
      </trkpt>
      <trkpt lat="39.51165" lon="-0.486425">
        <ele>60</ele>
        <time>2018-11-04T10:48:01.000Z</time>
      </trkpt>
      <trkpt lat="39.511643" lon="-0.486355">
        <ele>60</ele>
        <time>2018-11-04T10:48:02.000Z</time>
      </trkpt>
      <trkpt lat="39.511635" lon="-0.486284">
        <ele>59.1100032</ele>
        <time>2018-11-04T10:48:03.000Z</time>
      </trkpt>
      <trkpt lat="39.511624" lon="-0.486213">
        <ele>59</ele>
        <time>2018-11-04T10:48:04.000Z</time>
      </trkpt>
      <trkpt lat="39.511614" lon="-0.486135">
        <ele>59</ele>
        <time>2018-11-04T10:48:05.000Z</time>
      </trkpt>
      <trkpt lat="39.511603" lon="-0.486063">
        <ele>59</ele>
        <time>2018-11-04T10:48:06.000Z</time>
      </trkpt>
      <trkpt lat="39.511589" lon="-0.486004">
        <ele>59</ele>
        <time>2018-11-04T10:48:07.000Z</time>
      </trkpt>
      <trkpt lat="39.51158" lon="-0.485948">
        <ele>59.8899968</ele>
        <time>2018-11-04T10:48:08.000Z</time>
      </trkpt>
      <trkpt lat="39.511571" lon="-0.485899">
        <ele>60</ele>
        <time>2018-11-04T10:48:09.000Z</time>
      </trkpt>
      <trkpt lat="39.511563" lon="-0.48585">
        <ele>60</ele>
        <time>2018-11-04T10:48:10.000Z</time>
      </trkpt>
      <trkpt lat="39.511559" lon="-0.48579">
        <ele>60</ele>
        <time>2018-11-04T10:48:11.000Z</time>
      </trkpt>
      <trkpt lat="39.511558" lon="-0.485721">
        <ele>60</ele>
        <time>2018-11-04T10:48:12.000Z</time>
      </trkpt>
      <trkpt lat="39.511566" lon="-0.48565">
        <ele>60</ele>
        <time>2018-11-04T10:48:13.000Z</time>
      </trkpt>
      <trkpt lat="39.511576" lon="-0.485578">
        <ele>60</ele>
        <time>2018-11-04T10:48:14.000Z</time>
      </trkpt>
      <trkpt lat="39.511593" lon="-0.48551">
        <ele>60</ele>
        <time>2018-11-04T10:48:15.000Z</time>
      </trkpt>
      <trkpt lat="39.511607" lon="-0.485449">
        <ele>60</ele>
        <time>2018-11-04T10:48:16.000Z</time>
      </trkpt>
      <trkpt lat="39.511614" lon="-0.485393">
        <ele>60</ele>
        <time>2018-11-04T10:48:17.000Z</time>
      </trkpt>
      <trkpt lat="39.511617" lon="-0.485335">
        <ele>60</ele>
        <time>2018-11-04T10:48:18.000Z</time>
      </trkpt>
      <trkpt lat="39.511618" lon="-0.485275">
        <ele>60</ele>
        <time>2018-11-04T10:48:19.000Z</time>
      </trkpt>
      <trkpt lat="39.511609" lon="-0.485217">
        <ele>60</ele>
        <time>2018-11-04T10:48:20.000Z</time>
      </trkpt>
      <trkpt lat="39.5116" lon="-0.485163">
        <ele>60</ele>
        <time>2018-11-04T10:48:21.000Z</time>
      </trkpt>
      <trkpt lat="39.511599" lon="-0.485111">
        <ele>60</ele>
        <time>2018-11-04T10:48:22.000Z</time>
      </trkpt>
      <trkpt lat="39.511597" lon="-0.485062">
        <ele>60</ele>
        <time>2018-11-04T10:48:23.000Z</time>
      </trkpt>
      <trkpt lat="39.511593" lon="-0.485018">
        <ele>60</ele>
        <time>2018-11-04T10:48:24.000Z</time>
      </trkpt>
      <trkpt lat="39.511592" lon="-0.484962">
        <ele>60</ele>
        <time>2018-11-04T10:48:25.000Z</time>
      </trkpt>
      <trkpt lat="39.511589" lon="-0.48491">
        <ele>60</ele>
        <time>2018-11-04T10:48:26.000Z</time>
      </trkpt>
      <trkpt lat="39.511585" lon="-0.484855">
        <ele>60</ele>
        <time>2018-11-04T10:48:27.000Z</time>
      </trkpt>
      <trkpt lat="39.511585" lon="-0.484799">
        <ele>60.700783116137</ele>
        <time>2018-11-04T10:48:28.000Z</time>
      </trkpt>
      <trkpt lat="39.51159" lon="-0.48474">
        <ele>61</ele>
        <time>2018-11-04T10:48:29.000Z</time>
      </trkpt>
      <trkpt lat="39.51159" lon="-0.48468">
        <ele>61</ele>
        <time>2018-11-04T10:48:30.000Z</time>
      </trkpt>
      <trkpt lat="39.51159" lon="-0.484614">
        <ele>61</ele>
        <time>2018-11-04T10:48:31.000Z</time>
      </trkpt>
      <trkpt lat="39.511585" lon="-0.484553">
        <ele>61</ele>
        <time>2018-11-04T10:48:32.000Z</time>
      </trkpt>
      <trkpt lat="39.511585" lon="-0.484485">
        <ele>61</ele>
        <time>2018-11-04T10:48:33.000Z</time>
      </trkpt>
      <trkpt lat="39.511582" lon="-0.484417">
        <ele>61</ele>
        <time>2018-11-04T10:48:34.000Z</time>
      </trkpt>
      <trkpt lat="39.511573" lon="-0.48427">
        <ele>61</ele>
        <time>2018-11-04T10:48:36.000Z</time>
      </trkpt>
      <trkpt lat="39.511558" lon="-0.484123">
        <ele>60.1100032</ele>
        <time>2018-11-04T10:48:38.000Z</time>
      </trkpt>
      <trkpt lat="39.511546" lon="-0.483995">
        <ele>60</ele>
        <time>2018-11-04T10:48:40.000Z</time>
      </trkpt>
      <trkpt lat="39.511547" lon="-0.483938">
        <ele>60</ele>
        <time>2018-11-04T10:48:41.000Z</time>
      </trkpt>
      <trkpt lat="39.51156" lon="-0.48382">
        <ele>60</ele>
        <time>2018-11-04T10:48:43.000Z</time>
      </trkpt>
      <trkpt lat="39.511556" lon="-0.483748">
        <ele>60</ele>
        <time>2018-11-04T10:48:44.000Z</time>
      </trkpt>
      <trkpt lat="39.511548" lon="-0.483686">
        <ele>59.1733312853071</ele>
        <time>2018-11-04T10:48:45.000Z</time>
      </trkpt>
      <trkpt lat="39.511538" lon="-0.483617">
        <ele>59</ele>
        <time>2018-11-04T10:48:46.000Z</time>
      </trkpt>
      <trkpt lat="39.511524" lon="-0.483549">
        <ele>59</ele>
        <time>2018-11-04T10:48:47.000Z</time>
      </trkpt>
      <trkpt lat="39.511509" lon="-0.483478">
        <ele>59</ele>
        <time>2018-11-04T10:48:48.000Z</time>
      </trkpt>
      <trkpt lat="39.511497" lon="-0.483402">
        <ele>59</ele>
        <time>2018-11-04T10:48:49.000Z</time>
      </trkpt>
      <trkpt lat="39.511484" lon="-0.483326">
        <ele>59</ele>
        <time>2018-11-04T10:48:50.000Z</time>
      </trkpt>
      <trkpt lat="39.511469" lon="-0.483253">
        <ele>59</ele>
        <time>2018-11-04T10:48:51.000Z</time>
      </trkpt>
      <trkpt lat="39.511462" lon="-0.483183">
        <ele>59</ele>
        <time>2018-11-04T10:48:52.000Z</time>
      </trkpt>
      <trkpt lat="39.511451" lon="-0.483114">
        <ele>59</ele>
        <time>2018-11-04T10:48:53.000Z</time>
      </trkpt>
      <trkpt lat="39.511436" lon="-0.483049">
        <ele>59</ele>
        <time>2018-11-04T10:48:54.000Z</time>
      </trkpt>
      <trkpt lat="39.511417" lon="-0.482989">
        <ele>59</ele>
        <time>2018-11-04T10:48:55.000Z</time>
      </trkpt>
      <trkpt lat="39.511393" lon="-0.482929">
        <ele>59</ele>
        <time>2018-11-04T10:48:56.000Z</time>
      </trkpt>
      <trkpt lat="39.511376" lon="-0.482864">
        <ele>59</ele>
        <time>2018-11-04T10:48:57.000Z</time>
      </trkpt>
      <trkpt lat="39.511364" lon="-0.482792">
        <ele>59</ele>
        <time>2018-11-04T10:48:58.000Z</time>
      </trkpt>
      <trkpt lat="39.511353" lon="-0.482725">
        <ele>59</ele>
        <time>2018-11-04T10:48:59.000Z</time>
      </trkpt>
      <trkpt lat="39.511341" lon="-0.482668">
        <ele>59</ele>
        <time>2018-11-04T10:49:00.000Z</time>
      </trkpt>
      <trkpt lat="39.511332" lon="-0.482613">
        <ele>59</ele>
        <time>2018-11-04T10:49:01.000Z</time>
      </trkpt>
      <trkpt lat="39.51132" lon="-0.482549">
        <ele>59</ele>
        <time>2018-11-04T10:49:02.000Z</time>
      </trkpt>
      <trkpt lat="39.511314" lon="-0.482481">
        <ele>59</ele>
        <time>2018-11-04T10:49:03.000Z</time>
      </trkpt>
      <trkpt lat="39.511312" lon="-0.482418">
        <ele>59</ele>
        <time>2018-11-04T10:49:04.000Z</time>
      </trkpt>
      <trkpt lat="39.511313" lon="-0.482358">
        <ele>59</ele>
        <time>2018-11-04T10:49:05.000Z</time>
      </trkpt>
      <trkpt lat="39.511303" lon="-0.48229">
        <ele>59</ele>
        <time>2018-11-04T10:49:06.000Z</time>
      </trkpt>
      <trkpt lat="39.511288" lon="-0.482227">
        <ele>59</ele>
        <time>2018-11-04T10:49:07.000Z</time>
      </trkpt>
      <trkpt lat="39.511276" lon="-0.48217">
        <ele>59</ele>
        <time>2018-11-04T10:49:08.000Z</time>
      </trkpt>
      <trkpt lat="39.511268" lon="-0.482112">
        <ele>58.1100032</ele>
        <time>2018-11-04T10:49:09.000Z</time>
      </trkpt>
      <trkpt lat="39.51125" lon="-0.482046">
        <ele>58</ele>
        <time>2018-11-04T10:49:10.000Z</time>
      </trkpt>
      <trkpt lat="39.511234" lon="-0.481989">
        <ele>58</ele>
        <time>2018-11-04T10:49:11.000Z</time>
      </trkpt>
      <trkpt lat="39.511219" lon="-0.481932">
        <ele>58</ele>
        <time>2018-11-04T10:49:12.000Z</time>
      </trkpt>
      <trkpt lat="39.511201" lon="-0.481884">
        <ele>58</ele>
        <time>2018-11-04T10:49:13.000Z</time>
      </trkpt>
      <trkpt lat="39.511189" lon="-0.48184">
        <ele>57.1100032</ele>
        <time>2018-11-04T10:49:14.000Z</time>
      </trkpt>
      <trkpt lat="39.511182" lon="-0.481792">
        <ele>57</ele>
        <time>2018-11-04T10:49:15.000Z</time>
      </trkpt>
      <trkpt lat="39.511173" lon="-0.481742">
        <ele>57</ele>
        <time>2018-11-04T10:49:16.000Z</time>
      </trkpt>
      <trkpt lat="39.511161" lon="-0.481694">
        <ele>57</ele>
        <time>2018-11-04T10:49:17.000Z</time>
      </trkpt>
      <trkpt lat="39.511146" lon="-0.481642">
        <ele>57</ele>
        <time>2018-11-04T10:49:18.000Z</time>
      </trkpt>
      <trkpt lat="39.51113" lon="-0.481591">
        <ele>57</ele>
        <time>2018-11-04T10:49:19.000Z</time>
      </trkpt>
      <trkpt lat="39.511115" lon="-0.481541">
        <ele>57</ele>
        <time>2018-11-04T10:49:20.000Z</time>
      </trkpt>
      <trkpt lat="39.511104" lon="-0.481486">
        <ele>57</ele>
        <time>2018-11-04T10:49:21.000Z</time>
      </trkpt>
      <trkpt lat="39.511092" lon="-0.48143">
        <ele>57</ele>
        <time>2018-11-04T10:49:22.000Z</time>
      </trkpt>
      <trkpt lat="39.511079" lon="-0.481372">
        <ele>57</ele>
        <time>2018-11-04T10:49:23.000Z</time>
      </trkpt>
      <trkpt lat="39.511064" lon="-0.481318">
        <ele>57</ele>
        <time>2018-11-04T10:49:24.000Z</time>
      </trkpt>
      <trkpt lat="39.511049" lon="-0.481263">
        <ele>57</ele>
        <time>2018-11-04T10:49:25.000Z</time>
      </trkpt>
      <trkpt lat="39.511034" lon="-0.481209">
        <ele>57</ele>
        <time>2018-11-04T10:49:26.000Z</time>
      </trkpt>
      <trkpt lat="39.511026" lon="-0.481151">
        <ele>57</ele>
        <time>2018-11-04T10:49:27.000Z</time>
      </trkpt>
      <trkpt lat="39.511016" lon="-0.481099">
        <ele>57</ele>
        <time>2018-11-04T10:49:28.000Z</time>
      </trkpt>
      <trkpt lat="39.511005" lon="-0.48105">
        <ele>57</ele>
        <time>2018-11-04T10:49:29.000Z</time>
      </trkpt>
      <trkpt lat="39.510998" lon="-0.480994">
        <ele>57</ele>
        <time>2018-11-04T10:49:30.000Z</time>
      </trkpt>
      <trkpt lat="39.510989" lon="-0.480938">
        <ele>56.1100032</ele>
        <time>2018-11-04T10:49:31.000Z</time>
      </trkpt>
      <trkpt lat="39.510975" lon="-0.48088">
        <ele>56</ele>
        <time>2018-11-04T10:49:32.000Z</time>
      </trkpt>
      <trkpt lat="39.510954" lon="-0.48082">
        <ele>56</ele>
        <time>2018-11-04T10:49:33.000Z</time>
      </trkpt>
      <trkpt lat="39.510933" lon="-0.480756">
        <ele>55.1506873334268</ele>
        <time>2018-11-04T10:49:34.000Z</time>
      </trkpt>
      <trkpt lat="39.510907" lon="-0.480694">
        <ele>55</ele>
        <time>2018-11-04T10:49:35.000Z</time>
      </trkpt>
      <trkpt lat="39.510879" lon="-0.480634">
        <ele>55</ele>
        <time>2018-11-04T10:49:36.000Z</time>
      </trkpt>
      <trkpt lat="39.510854" lon="-0.48058">
        <ele>55</ele>
        <time>2018-11-04T10:49:37.000Z</time>
      </trkpt>
      <trkpt lat="39.510833" lon="-0.480526">
        <ele>55</ele>
        <time>2018-11-04T10:49:38.000Z</time>
      </trkpt>
      <trkpt lat="39.510814" lon="-0.480472">
        <ele>55</ele>
        <time>2018-11-04T10:49:39.000Z</time>
      </trkpt>
      <trkpt lat="39.510797" lon="-0.480416">
        <ele>55</ele>
        <time>2018-11-04T10:49:40.000Z</time>
      </trkpt>
      <trkpt lat="39.51078" lon="-0.480367">
        <ele>55.8899968</ele>
        <time>2018-11-04T10:49:41.000Z</time>
      </trkpt>
      <trkpt lat="39.510759" lon="-0.480325">
        <ele>55.1100032</ele>
        <time>2018-11-04T10:49:42.000Z</time>
      </trkpt>
      <trkpt lat="39.510734" lon="-0.480288">
        <ele>55</ele>
        <time>2018-11-04T10:49:43.000Z</time>
      </trkpt>
      <trkpt lat="39.510704" lon="-0.480254">
        <ele>55</ele>
        <time>2018-11-04T10:49:44.000Z</time>
      </trkpt>
      <trkpt lat="39.510677" lon="-0.480221">
        <ele>55</ele>
        <time>2018-11-04T10:49:45.000Z</time>
      </trkpt>
      <trkpt lat="39.510651" lon="-0.480188">
        <ele>54.1100032</ele>
        <time>2018-11-04T10:49:46.000Z</time>
      </trkpt>
      <trkpt lat="39.510626" lon="-0.48015">
        <ele>54</ele>
        <time>2018-11-04T10:49:47.000Z</time>
      </trkpt>
      <trkpt lat="39.510602" lon="-0.480108">
        <ele>54</ele>
        <time>2018-11-04T10:49:48.000Z</time>
      </trkpt>
      <trkpt lat="39.510578" lon="-0.480062">
        <ele>53.1100032</ele>
        <time>2018-11-04T10:49:49.000Z</time>
      </trkpt>
      <trkpt lat="39.510554" lon="-0.480008">
        <ele>53</ele>
        <time>2018-11-04T10:49:50.000Z</time>
      </trkpt>
      <trkpt lat="39.510531" lon="-0.479956">
        <ele>52.1100032</ele>
        <time>2018-11-04T10:49:51.000Z</time>
      </trkpt>
      <trkpt lat="39.510505" lon="-0.479904">
        <ele>52</ele>
        <time>2018-11-04T10:49:52.000Z</time>
      </trkpt>
      <trkpt lat="39.510479" lon="-0.479864">
        <ele>51.1100032</ele>
        <time>2018-11-04T10:49:53.000Z</time>
      </trkpt>
      <trkpt lat="39.51045" lon="-0.479831">
        <ele>51</ele>
        <time>2018-11-04T10:49:54.000Z</time>
      </trkpt>
      <trkpt lat="39.510412" lon="-0.479816">
        <ele>51</ele>
        <time>2018-11-04T10:49:55.000Z</time>
      </trkpt>
      <trkpt lat="39.510373" lon="-0.479824">
        <ele>50.3100782885663</ele>
        <time>2018-11-04T10:49:56.000Z</time>
      </trkpt>
      <trkpt lat="39.510333" lon="-0.479855">
        <ele>50</ele>
        <time>2018-11-04T10:49:57.000Z</time>
      </trkpt>
      <trkpt lat="39.510301" lon="-0.479894">
        <ele>50</ele>
        <time>2018-11-04T10:49:58.000Z</time>
      </trkpt>
      <trkpt lat="39.510275" lon="-0.479927">
        <ele>50</ele>
        <time>2018-11-04T10:49:59.000Z</time>
      </trkpt>
      <trkpt lat="39.51025" lon="-0.479953">
        <ele>49.1100032</ele>
        <time>2018-11-04T10:50:00.000Z</time>
      </trkpt>
      <trkpt lat="39.510227" lon="-0.47997">
        <ele>49</ele>
        <time>2018-11-04T10:50:01.000Z</time>
      </trkpt>
      <trkpt lat="39.510208" lon="-0.479981">
        <ele>48.1100032</ele>
        <time>2018-11-04T10:50:02.000Z</time>
      </trkpt>
      <trkpt lat="39.510191" lon="-0.47999">
        <ele>48</ele>
        <time>2018-11-04T10:50:03.000Z</time>
      </trkpt>
      <trkpt lat="39.510175" lon="-0.48">
        <ele>47.1527822222222</ele>
        <time>2018-11-04T10:50:04.000Z</time>
      </trkpt>
      <trkpt lat="39.510143" lon="-0.48002">
        <ele>47</ele>
        <time>2018-11-04T10:50:06.000Z</time>
      </trkpt>
      <trkpt lat="39.510115" lon="-0.480036">
        <ele>46.1100032</ele>
        <time>2018-11-04T10:50:08.000Z</time>
      </trkpt>
      <trkpt lat="39.51008" lon="-0.480058">
        <ele>46</ele>
        <time>2018-11-04T10:50:10.000Z</time>
      </trkpt>
      <trkpt lat="39.510063" lon="-0.480072">
        <ele>45.1100032</ele>
        <time>2018-11-04T10:50:11.000Z</time>
      </trkpt>
      <trkpt lat="39.510046" lon="-0.480086">
        <ele>45</ele>
        <time>2018-11-04T10:50:12.000Z</time>
      </trkpt>
      <trkpt lat="39.510025" lon="-0.480101">
        <ele>45</ele>
        <time>2018-11-04T10:50:13.000Z</time>
      </trkpt>
      <trkpt lat="39.510002" lon="-0.480118">
        <ele>44.1100032</ele>
        <time>2018-11-04T10:50:14.000Z</time>
      </trkpt>
      <trkpt lat="39.509976" lon="-0.480136">
        <ele>44</ele>
        <time>2018-11-04T10:50:15.000Z</time>
      </trkpt>
      <trkpt lat="39.509949" lon="-0.480154">
        <ele>44</ele>
        <time>2018-11-04T10:50:16.000Z</time>
      </trkpt>
      <trkpt lat="39.509917" lon="-0.480176">
        <ele>43.1549333862157</ele>
        <time>2018-11-04T10:50:17.000Z</time>
      </trkpt>
      <trkpt lat="39.509881" lon="-0.480202">
        <ele>43</ele>
        <time>2018-11-04T10:50:18.000Z</time>
      </trkpt>
      <trkpt lat="39.509833" lon="-0.480223">
        <ele>43</ele>
        <time>2018-11-04T10:50:19.000Z</time>
      </trkpt>
      <trkpt lat="39.50978" lon="-0.480232">
        <ele>42.1100032</ele>
        <time>2018-11-04T10:50:20.000Z</time>
      </trkpt>
      <trkpt lat="39.509728" lon="-0.480234">
        <ele>42</ele>
        <time>2018-11-04T10:50:21.000Z</time>
      </trkpt>
      <trkpt lat="39.509684" lon="-0.480214">
        <ele>42</ele>
        <time>2018-11-04T10:50:22.000Z</time>
      </trkpt>
      <trkpt lat="39.50965" lon="-0.480176">
        <ele>42</ele>
        <time>2018-11-04T10:50:23.000Z</time>
      </trkpt>
      <trkpt lat="39.509627" lon="-0.480128">
        <ele>42</ele>
        <time>2018-11-04T10:50:24.000Z</time>
      </trkpt>
      <trkpt lat="39.509606" lon="-0.480082">
        <ele>42</ele>
        <time>2018-11-04T10:50:25.000Z</time>
      </trkpt>
      <trkpt lat="39.509587" lon="-0.480038">
        <ele>42</ele>
        <time>2018-11-04T10:50:26.000Z</time>
      </trkpt>
      <trkpt lat="39.509573" lon="-0.479995">
        <ele>42.7007901792014</ele>
        <time>2018-11-04T10:50:27.000Z</time>
      </trkpt>
      <trkpt lat="39.509562" lon="-0.479952">
        <ele>43</ele>
        <time>2018-11-04T10:50:28.000Z</time>
      </trkpt>
      <trkpt lat="39.509548" lon="-0.479908">
        <ele>43</ele>
        <time>2018-11-04T10:50:29.000Z</time>
      </trkpt>
      <trkpt lat="39.509534" lon="-0.479861">
        <ele>43</ele>
        <time>2018-11-04T10:50:30.000Z</time>
      </trkpt>
      <trkpt lat="39.509524" lon="-0.479814">
        <ele>43</ele>
        <time>2018-11-04T10:50:31.000Z</time>
      </trkpt>
      <trkpt lat="39.509514" lon="-0.479766">
        <ele>43</ele>
        <time>2018-11-04T10:50:32.000Z</time>
      </trkpt>
      <trkpt lat="39.50951" lon="-0.479717">
        <ele>43</ele>
        <time>2018-11-04T10:50:33.000Z</time>
      </trkpt>
      <trkpt lat="39.509507" lon="-0.479664">
        <ele>43.8899968</ele>
        <time>2018-11-04T10:50:34.000Z</time>
      </trkpt>
      <trkpt lat="39.509504" lon="-0.479611">
        <ele>44</ele>
        <time>2018-11-04T10:50:35.000Z</time>
      </trkpt>
      <trkpt lat="39.509503" lon="-0.479555">
        <ele>44</ele>
        <time>2018-11-04T10:50:36.000Z</time>
      </trkpt>
      <trkpt lat="39.509503" lon="-0.479503">
        <ele>44</ele>
        <time>2018-11-04T10:50:37.000Z</time>
      </trkpt>
      <trkpt lat="39.509503" lon="-0.479454">
        <ele>44</ele>
        <time>2018-11-04T10:50:38.000Z</time>
      </trkpt>
      <trkpt lat="39.509505" lon="-0.479408">
        <ele>44.8899968</ele>
        <time>2018-11-04T10:50:39.000Z</time>
      </trkpt>
      <trkpt lat="39.50951" lon="-0.479366">
        <ele>45</ele>
        <time>2018-11-04T10:50:40.000Z</time>
      </trkpt>
      <trkpt lat="39.509518" lon="-0.479328">
        <ele>45</ele>
        <time>2018-11-04T10:50:41.000Z</time>
      </trkpt>
      <trkpt lat="39.509532" lon="-0.479288">
        <ele>45</ele>
        <time>2018-11-04T10:50:42.000Z</time>
      </trkpt>
      <trkpt lat="39.509557" lon="-0.479246">
        <ele>45</ele>
        <time>2018-11-04T10:50:43.000Z</time>
      </trkpt>
      <trkpt lat="39.509587" lon="-0.479193">
        <ele>45.8899968</ele>
        <time>2018-11-04T10:50:44.000Z</time>
      </trkpt>
      <trkpt lat="39.509603" lon="-0.479137">
        <ele>46</ele>
        <time>2018-11-04T10:50:45.000Z</time>
      </trkpt>
      <trkpt lat="39.50962" lon="-0.479076">
        <ele>46</ele>
        <time>2018-11-04T10:50:46.000Z</time>
      </trkpt>
      <trkpt lat="39.509632" lon="-0.479012">
        <ele>46.8899968</ele>
        <time>2018-11-04T10:50:47.000Z</time>
      </trkpt>
      <trkpt lat="39.509637" lon="-0.478954">
        <ele>47</ele>
        <time>2018-11-04T10:50:48.000Z</time>
      </trkpt>
      <trkpt lat="39.509634" lon="-0.478896">
        <ele>47.8899968</ele>
        <time>2018-11-04T10:50:49.000Z</time>
      </trkpt>
      <trkpt lat="39.509621" lon="-0.478842">
        <ele>48</ele>
        <time>2018-11-04T10:50:50.000Z</time>
      </trkpt>
      <trkpt lat="39.509603" lon="-0.478788">
        <ele>48</ele>
        <time>2018-11-04T10:50:51.000Z</time>
      </trkpt>
      <trkpt lat="39.509587" lon="-0.47873">
        <ele>48</ele>
        <time>2018-11-04T10:50:52.000Z</time>
      </trkpt>
      <trkpt lat="39.509575" lon="-0.478672">
        <ele>48</ele>
        <time>2018-11-04T10:50:53.000Z</time>
      </trkpt>
      <trkpt lat="39.50957" lon="-0.478614">
        <ele>48</ele>
        <time>2018-11-04T10:50:54.000Z</time>
      </trkpt>
      <trkpt lat="39.50957" lon="-0.478557">
        <ele>47.1100032</ele>
        <time>2018-11-04T10:50:55.000Z</time>
      </trkpt>
      <trkpt lat="39.509574" lon="-0.478504">
        <ele>47</ele>
        <time>2018-11-04T10:50:56.000Z</time>
      </trkpt>
      <trkpt lat="39.509587" lon="-0.47845">
        <ele>47</ele>
        <time>2018-11-04T10:50:57.000Z</time>
      </trkpt>
      <trkpt lat="39.509597" lon="-0.478394">
        <ele>47</ele>
        <time>2018-11-04T10:50:58.000Z</time>
      </trkpt>
      <trkpt lat="39.509602" lon="-0.478344">
        <ele>47</ele>
        <time>2018-11-04T10:50:59.000Z</time>
      </trkpt>
      <trkpt lat="39.509592" lon="-0.478307">
        <ele>47</ele>
        <time>2018-11-04T10:51:00.000Z</time>
      </trkpt>
      <trkpt lat="39.509577" lon="-0.478272">
        <ele>47</ele>
        <time>2018-11-04T10:51:01.000Z</time>
      </trkpt>
      <trkpt lat="39.509559" lon="-0.478238">
        <ele>47</ele>
        <time>2018-11-04T10:51:02.000Z</time>
      </trkpt>
      <trkpt lat="39.509537" lon="-0.478202">
        <ele>47</ele>
        <time>2018-11-04T10:51:03.000Z</time>
      </trkpt>
      <trkpt lat="39.509512" lon="-0.478165">
        <ele>47</ele>
        <time>2018-11-04T10:51:04.000Z</time>
      </trkpt>
      <trkpt lat="39.509492" lon="-0.478124">
        <ele>47</ele>
        <time>2018-11-04T10:51:05.000Z</time>
      </trkpt>
      <trkpt lat="39.509475" lon="-0.478078">
        <ele>47</ele>
        <time>2018-11-04T10:51:06.000Z</time>
      </trkpt>
      <trkpt lat="39.509462" lon="-0.478028">
        <ele>47</ele>
        <time>2018-11-04T10:51:07.000Z</time>
      </trkpt>
      <trkpt lat="39.509457" lon="-0.477976">
        <ele>47</ele>
        <time>2018-11-04T10:51:08.000Z</time>
      </trkpt>
      <trkpt lat="39.509454" lon="-0.477924">
        <ele>47</ele>
        <time>2018-11-04T10:51:09.000Z</time>
      </trkpt>
      <trkpt lat="39.509453" lon="-0.477868">
        <ele>47</ele>
        <time>2018-11-04T10:51:10.000Z</time>
      </trkpt>
      <trkpt lat="39.509455" lon="-0.477813">
        <ele>47</ele>
        <time>2018-11-04T10:51:11.000Z</time>
      </trkpt>
      <trkpt lat="39.509457" lon="-0.477764">
        <ele>47</ele>
        <time>2018-11-04T10:51:12.000Z</time>
      </trkpt>
      <trkpt lat="39.50946" lon="-0.47771">
        <ele>47</ele>
        <time>2018-11-04T10:51:13.000Z</time>
      </trkpt>
      <trkpt lat="39.509465" lon="-0.477661">
        <ele>47</ele>
        <time>2018-11-04T10:51:14.000Z</time>
      </trkpt>
      <trkpt lat="39.509469" lon="-0.477611">
        <ele>47</ele>
        <time>2018-11-04T10:51:15.000Z</time>
      </trkpt>
      <trkpt lat="39.509469" lon="-0.477561">
        <ele>47.888886015722</ele>
        <time>2018-11-04T10:51:16.000Z</time>
      </trkpt>
      <trkpt lat="39.509474" lon="-0.477502">
        <ele>48</ele>
        <time>2018-11-04T10:51:17.000Z</time>
      </trkpt>
      <trkpt lat="39.509483" lon="-0.47744">
        <ele>48</ele>
        <time>2018-11-04T10:51:18.000Z</time>
      </trkpt>
      <trkpt lat="39.509488" lon="-0.477374">
        <ele>48</ele>
        <time>2018-11-04T10:51:19.000Z</time>
      </trkpt>
      <trkpt lat="39.509493" lon="-0.477307">
        <ele>48</ele>
        <time>2018-11-04T10:51:20.000Z</time>
      </trkpt>
      <trkpt lat="39.509506" lon="-0.477231">
        <ele>48</ele>
        <time>2018-11-04T10:51:21.000Z</time>
      </trkpt>
      <trkpt lat="39.509514" lon="-0.477159">
        <ele>48</ele>
        <time>2018-11-04T10:51:22.000Z</time>
      </trkpt>
      <trkpt lat="39.509522" lon="-0.477084">
        <ele>48</ele>
        <time>2018-11-04T10:51:23.000Z</time>
      </trkpt>
      <trkpt lat="39.509528" lon="-0.477011">
        <ele>48.8899968</ele>
        <time>2018-11-04T10:51:24.000Z</time>
      </trkpt>
      <trkpt lat="39.509534" lon="-0.476941">
        <ele>48.1100032</ele>
        <time>2018-11-04T10:51:25.000Z</time>
      </trkpt>
      <trkpt lat="39.509544" lon="-0.47687">
        <ele>48</ele>
        <time>2018-11-04T10:51:26.000Z</time>
      </trkpt>
      <trkpt lat="39.509553" lon="-0.476809">
        <ele>48.8405772905189</ele>
        <time>2018-11-04T10:51:27.000Z</time>
      </trkpt>
      <trkpt lat="39.50956" lon="-0.476749">
        <ele>49</ele>
        <time>2018-11-04T10:51:28.000Z</time>
      </trkpt>
      <trkpt lat="39.509563" lon="-0.476688">
        <ele>49</ele>
        <time>2018-11-04T10:51:29.000Z</time>
      </trkpt>
      <trkpt lat="39.509562" lon="-0.476631">
        <ele>49</ele>
        <time>2018-11-04T10:51:30.000Z</time>
      </trkpt>
      <trkpt lat="39.509559" lon="-0.47658">
        <ele>48.1100032</ele>
        <time>2018-11-04T10:51:31.000Z</time>
      </trkpt>
      <trkpt lat="39.509557" lon="-0.476528">
        <ele>48</ele>
        <time>2018-11-04T10:51:32.000Z</time>
      </trkpt>
      <trkpt lat="39.509552" lon="-0.476475">
        <ele>48</ele>
        <time>2018-11-04T10:51:33.000Z</time>
      </trkpt>
      <trkpt lat="39.509548" lon="-0.476418">
        <ele>48</ele>
        <time>2018-11-04T10:51:34.000Z</time>
      </trkpt>
      <trkpt lat="39.509541" lon="-0.476357">
        <ele>48</ele>
        <time>2018-11-04T10:51:35.000Z</time>
      </trkpt>
      <trkpt lat="39.509532" lon="-0.476296">
        <ele>48</ele>
        <time>2018-11-04T10:51:36.000Z</time>
      </trkpt>
      <trkpt lat="39.509519" lon="-0.476233">
        <ele>48.6846162934956</ele>
        <time>2018-11-04T10:51:37.000Z</time>
      </trkpt>
      <trkpt lat="39.509505" lon="-0.476172">
        <ele>49</ele>
        <time>2018-11-04T10:51:38.000Z</time>
      </trkpt>
      <trkpt lat="39.509495" lon="-0.47611">
        <ele>49</ele>
        <time>2018-11-04T10:51:39.000Z</time>
      </trkpt>
      <trkpt lat="39.509489" lon="-0.476049">
        <ele>49</ele>
        <time>2018-11-04T10:51:40.000Z</time>
      </trkpt>
      <trkpt lat="39.509482" lon="-0.475989">
        <ele>49</ele>
        <time>2018-11-04T10:51:41.000Z</time>
      </trkpt>
      <trkpt lat="39.509477" lon="-0.475932">
        <ele>49</ele>
        <time>2018-11-04T10:51:42.000Z</time>
      </trkpt>
      <trkpt lat="39.509472" lon="-0.475875">
        <ele>49</ele>
        <time>2018-11-04T10:51:43.000Z</time>
      </trkpt>
      <trkpt lat="39.509467" lon="-0.475821">
        <ele>48.1100032</ele>
        <time>2018-11-04T10:51:44.000Z</time>
      </trkpt>
      <trkpt lat="39.509462" lon="-0.47577">
        <ele>48</ele>
        <time>2018-11-04T10:51:45.000Z</time>
      </trkpt>
      <trkpt lat="39.509457" lon="-0.475721">
        <ele>48</ele>
        <time>2018-11-04T10:51:46.000Z</time>
      </trkpt>
      <trkpt lat="39.50945" lon="-0.475675">
        <ele>48</ele>
        <time>2018-11-04T10:51:47.000Z</time>
      </trkpt>
      <trkpt lat="39.509444" lon="-0.475634">
        <ele>48</ele>
        <time>2018-11-04T10:51:48.000Z</time>
      </trkpt>
      <trkpt lat="39.50944" lon="-0.475609">
        <ele>48</ele>
        <time>2018-11-04T10:51:49.000Z</time>
      </trkpt>
      <trkpt lat="39.509435" lon="-0.475571">
        <ele>48</ele>
        <time>2018-11-04T10:51:51.000Z</time>
      </trkpt>
      <trkpt lat="39.509427" lon="-0.475536">
        <ele>48</ele>
        <time>2018-11-04T10:51:52.000Z</time>
      </trkpt>
      <trkpt lat="39.509418" lon="-0.475492">
        <ele>48</ele>
        <time>2018-11-04T10:51:53.000Z</time>
      </trkpt>
      <trkpt lat="39.509408" lon="-0.475441">
        <ele>48</ele>
        <time>2018-11-04T10:51:54.000Z</time>
      </trkpt>
      <trkpt lat="39.509397" lon="-0.475385">
        <ele>48.8899968</ele>
        <time>2018-11-04T10:51:55.000Z</time>
      </trkpt>
      <trkpt lat="39.509385" lon="-0.475329">
        <ele>48.1100032</ele>
        <time>2018-11-04T10:51:56.000Z</time>
      </trkpt>
      <trkpt lat="39.509367" lon="-0.475277">
        <ele>48</ele>
        <time>2018-11-04T10:51:57.000Z</time>
      </trkpt>
      <trkpt lat="39.509345" lon="-0.475224">
        <ele>48.8472177777778</ele>
        <time>2018-11-04T10:51:58.000Z</time>
      </trkpt>
      <trkpt lat="39.509318" lon="-0.475172">
        <ele>49</ele>
        <time>2018-11-04T10:51:59.000Z</time>
      </trkpt>
      <trkpt lat="39.509291" lon="-0.475119">
        <ele>49</ele>
        <time>2018-11-04T10:52:00.000Z</time>
      </trkpt>
      <trkpt lat="39.509266" lon="-0.475067">
        <ele>49</ele>
        <time>2018-11-04T10:52:01.000Z</time>
      </trkpt>
      <trkpt lat="39.509242" lon="-0.475014">
        <ele>48.3153837065044</ele>
        <time>2018-11-04T10:52:02.000Z</time>
      </trkpt>
      <trkpt lat="39.509216" lon="-0.474964">
        <ele>48</ele>
        <time>2018-11-04T10:52:03.000Z</time>
      </trkpt>
      <trkpt lat="39.50919" lon="-0.474911">
        <ele>48.881187742377</ele>
        <time>2018-11-04T10:52:04.000Z</time>
      </trkpt>
      <trkpt lat="39.509165" lon="-0.474856">
        <ele>49</ele>
        <time>2018-11-04T10:52:05.000Z</time>
      </trkpt>
      <trkpt lat="39.509142" lon="-0.474802">
        <ele>49</ele>
        <time>2018-11-04T10:52:06.000Z</time>
      </trkpt>
      <trkpt lat="39.509118" lon="-0.474749">
        <ele>49</ele>
        <time>2018-11-04T10:52:07.000Z</time>
      </trkpt>
      <trkpt lat="39.509093" lon="-0.474693">
        <ele>49</ele>
        <time>2018-11-04T10:52:08.000Z</time>
      </trkpt>
      <trkpt lat="39.509065" lon="-0.474635">
        <ele>49</ele>
        <time>2018-11-04T10:52:09.000Z</time>
      </trkpt>
      <trkpt lat="39.509037" lon="-0.474576">
        <ele>49</ele>
        <time>2018-11-04T10:52:10.000Z</time>
      </trkpt>
      <trkpt lat="39.509009" lon="-0.474516">
        <ele>49</ele>
        <time>2018-11-04T10:52:11.000Z</time>
      </trkpt>
      <trkpt lat="39.508983" lon="-0.474453">
        <ele>49</ele>
        <time>2018-11-04T10:52:12.000Z</time>
      </trkpt>
      <trkpt lat="39.508958" lon="-0.474392">
        <ele>49</ele>
        <time>2018-11-04T10:52:13.000Z</time>
      </trkpt>
      <trkpt lat="39.508931" lon="-0.474331">
        <ele>49</ele>
        <time>2018-11-04T10:52:14.000Z</time>
      </trkpt>
      <trkpt lat="39.508907" lon="-0.474271">
        <ele>49</ele>
        <time>2018-11-04T10:52:15.000Z</time>
      </trkpt>
      <trkpt lat="39.508882" lon="-0.474212">
        <ele>49</ele>
        <time>2018-11-04T10:52:16.000Z</time>
      </trkpt>
      <trkpt lat="39.508852" lon="-0.474153">
        <ele>49</ele>
        <time>2018-11-04T10:52:17.000Z</time>
      </trkpt>
      <trkpt lat="39.508821" lon="-0.474101">
        <ele>49</ele>
        <time>2018-11-04T10:52:18.000Z</time>
      </trkpt>
      <trkpt lat="39.508789" lon="-0.474054">
        <ele>48.1100032</ele>
        <time>2018-11-04T10:52:19.000Z</time>
      </trkpt>
      <trkpt lat="39.508755" lon="-0.474009">
        <ele>48</ele>
        <time>2018-11-04T10:52:20.000Z</time>
      </trkpt>
      <trkpt lat="39.508719" lon="-0.473966">
        <ele>48</ele>
        <time>2018-11-04T10:52:21.000Z</time>
      </trkpt>
      <trkpt lat="39.508682" lon="-0.473925">
        <ele>48</ele>
        <time>2018-11-04T10:52:22.000Z</time>
      </trkpt>
      <trkpt lat="39.508644" lon="-0.473885">
        <ele>48</ele>
        <time>2018-11-04T10:52:23.000Z</time>
      </trkpt>
      <trkpt lat="39.508608" lon="-0.473844">
        <ele>48</ele>
        <time>2018-11-04T10:52:24.000Z</time>
      </trkpt>
      <trkpt lat="39.508571" lon="-0.4738">
        <ele>48</ele>
        <time>2018-11-04T10:52:25.000Z</time>
      </trkpt>
      <trkpt lat="39.508535" lon="-0.473759">
        <ele>48</ele>
        <time>2018-11-04T10:52:26.000Z</time>
      </trkpt>
      <trkpt lat="39.5085" lon="-0.473715">
        <ele>48</ele>
        <time>2018-11-04T10:52:27.000Z</time>
      </trkpt>
      <trkpt lat="39.508463" lon="-0.473671">
        <ele>48</ele>
        <time>2018-11-04T10:52:28.000Z</time>
      </trkpt>
      <trkpt lat="39.508428" lon="-0.473628">
        <ele>48</ele>
        <time>2018-11-04T10:52:29.000Z</time>
      </trkpt>
      <trkpt lat="39.508392" lon="-0.473585">
        <ele>48</ele>
        <time>2018-11-04T10:52:30.000Z</time>
      </trkpt>
      <trkpt lat="39.508359" lon="-0.473544">
        <ele>48</ele>
        <time>2018-11-04T10:52:31.000Z</time>
      </trkpt>
      <trkpt lat="39.508326" lon="-0.473505">
        <ele>48</ele>
        <time>2018-11-04T10:52:32.000Z</time>
      </trkpt>
      <trkpt lat="39.508292" lon="-0.473463">
        <ele>48</ele>
        <time>2018-11-04T10:52:33.000Z</time>
      </trkpt>
      <trkpt lat="39.50826" lon="-0.473417">
        <ele>48</ele>
        <time>2018-11-04T10:52:34.000Z</time>
      </trkpt>
      <trkpt lat="39.508228" lon="-0.473369">
        <ele>48</ele>
        <time>2018-11-04T10:52:35.000Z</time>
      </trkpt>
      <trkpt lat="39.508196" lon="-0.473323">
        <ele>47.1506873334268</ele>
        <time>2018-11-04T10:52:36.000Z</time>
      </trkpt>
      <trkpt lat="39.508164" lon="-0.473277">
        <ele>47</ele>
        <time>2018-11-04T10:52:37.000Z</time>
      </trkpt>
      <trkpt lat="39.50813" lon="-0.47323">
        <ele>47</ele>
        <time>2018-11-04T10:52:38.000Z</time>
      </trkpt>
      <trkpt lat="39.508093" lon="-0.473181">
        <ele>47</ele>
        <time>2018-11-04T10:52:39.000Z</time>
      </trkpt>
      <trkpt lat="39.508055" lon="-0.473135">
        <ele>47</ele>
        <time>2018-11-04T10:52:40.000Z</time>
      </trkpt>
      <trkpt lat="39.508011" lon="-0.473091">
        <ele>47</ele>
        <time>2018-11-04T10:52:41.000Z</time>
      </trkpt>
      <trkpt lat="39.507963" lon="-0.473055">
        <ele>47</ele>
        <time>2018-11-04T10:52:42.000Z</time>
      </trkpt>
      <trkpt lat="39.507909" lon="-0.473032">
        <ele>47</ele>
        <time>2018-11-04T10:52:43.000Z</time>
      </trkpt>
      <trkpt lat="39.507854" lon="-0.473018">
        <ele>47</ele>
        <time>2018-11-04T10:52:44.000Z</time>
      </trkpt>
      <trkpt lat="39.507805" lon="-0.473015">
        <ele>46.1100032</ele>
        <time>2018-11-04T10:52:45.000Z</time>
      </trkpt>
      <trkpt lat="39.507762" lon="-0.473013">
        <ele>46</ele>
        <time>2018-11-04T10:52:46.000Z</time>
      </trkpt>
      <trkpt lat="39.507727" lon="-0.473001">
        <ele>46</ele>
        <time>2018-11-04T10:52:47.000Z</time>
      </trkpt>
      <trkpt lat="39.507696" lon="-0.472989">
        <ele>46</ele>
        <time>2018-11-04T10:52:48.000Z</time>
      </trkpt>
      <trkpt lat="39.507663" lon="-0.472978">
        <ele>46</ele>
        <time>2018-11-04T10:52:49.000Z</time>
      </trkpt>
      <trkpt lat="39.507629" lon="-0.472967">
        <ele>46</ele>
        <time>2018-11-04T10:52:50.000Z</time>
      </trkpt>
      <trkpt lat="39.507594" lon="-0.472957">
        <ele>46</ele>
        <time>2018-11-04T10:52:51.000Z</time>
      </trkpt>
      <trkpt lat="39.507554" lon="-0.472945">
        <ele>46</ele>
        <time>2018-11-04T10:52:52.000Z</time>
      </trkpt>
      <trkpt lat="39.507513" lon="-0.472931">
        <ele>46</ele>
        <time>2018-11-04T10:52:53.000Z</time>
      </trkpt>
      <trkpt lat="39.50747" lon="-0.472918">
        <ele>45.32576</ele>
        <time>2018-11-04T10:52:54.000Z</time>
      </trkpt>
      <trkpt lat="39.507425" lon="-0.472909">
        <ele>45</ele>
        <time>2018-11-04T10:52:55.000Z</time>
      </trkpt>
      <trkpt lat="39.507381" lon="-0.472905">
        <ele>45</ele>
        <time>2018-11-04T10:52:56.000Z</time>
      </trkpt>
      <trkpt lat="39.507338" lon="-0.472902">
        <ele>45</ele>
        <time>2018-11-04T10:52:57.000Z</time>
      </trkpt>
      <trkpt lat="39.507298" lon="-0.472903">
        <ele>45</ele>
        <time>2018-11-04T10:52:58.000Z</time>
      </trkpt>
      <trkpt lat="39.507258" lon="-0.472904">
        <ele>45</ele>
        <time>2018-11-04T10:52:59.000Z</time>
      </trkpt>
      <trkpt lat="39.507218" lon="-0.472903">
        <ele>45</ele>
        <time>2018-11-04T10:53:00.000Z</time>
      </trkpt>
      <trkpt lat="39.507178" lon="-0.472902">
        <ele>45</ele>
        <time>2018-11-04T10:53:01.000Z</time>
      </trkpt>
      <trkpt lat="39.507138" lon="-0.472903">
        <ele>45</ele>
        <time>2018-11-04T10:53:02.000Z</time>
      </trkpt>
      <trkpt lat="39.5071" lon="-0.472907">
        <ele>45</ele>
        <time>2018-11-04T10:53:03.000Z</time>
      </trkpt>
      <trkpt lat="39.507063" lon="-0.472911">
        <ele>45</ele>
        <time>2018-11-04T10:53:04.000Z</time>
      </trkpt>
      <trkpt lat="39.507024" lon="-0.472918">
        <ele>44.1100032</ele>
        <time>2018-11-04T10:53:05.000Z</time>
      </trkpt>
      <trkpt lat="39.506985" lon="-0.472926">
        <ele>44</ele>
        <time>2018-11-04T10:53:06.000Z</time>
      </trkpt>
      <trkpt lat="39.506947" lon="-0.472935">
        <ele>44</ele>
        <time>2018-11-04T10:53:07.000Z</time>
      </trkpt>
      <trkpt lat="39.506909" lon="-0.472945">
        <ele>44</ele>
        <time>2018-11-04T10:53:08.000Z</time>
      </trkpt>
      <trkpt lat="39.506872" lon="-0.472956">
        <ele>44</ele>
        <time>2018-11-04T10:53:09.000Z</time>
      </trkpt>
      <trkpt lat="39.506835" lon="-0.472967">
        <ele>44</ele>
        <time>2018-11-04T10:53:10.000Z</time>
      </trkpt>
      <trkpt lat="39.506801" lon="-0.472977">
        <ele>44</ele>
        <time>2018-11-04T10:53:11.000Z</time>
      </trkpt>
      <trkpt lat="39.506769" lon="-0.472985">
        <ele>44</ele>
        <time>2018-11-04T10:53:12.000Z</time>
      </trkpt>
      <trkpt lat="39.506737" lon="-0.472991">
        <ele>44</ele>
        <time>2018-11-04T10:53:13.000Z</time>
      </trkpt>
      <trkpt lat="39.506707" lon="-0.472998">
        <ele>44</ele>
        <time>2018-11-04T10:53:14.000Z</time>
      </trkpt>
      <trkpt lat="39.506674" lon="-0.473005">
        <ele>44</ele>
        <time>2018-11-04T10:53:15.000Z</time>
      </trkpt>
      <trkpt lat="39.506641" lon="-0.473007">
        <ele>44</ele>
        <time>2018-11-04T10:53:16.000Z</time>
      </trkpt>
      <trkpt lat="39.506608" lon="-0.473009">
        <ele>44</ele>
        <time>2018-11-04T10:53:17.000Z</time>
      </trkpt>
      <trkpt lat="39.506573" lon="-0.473012">
        <ele>44</ele>
        <time>2018-11-04T10:53:18.000Z</time>
      </trkpt>
      <trkpt lat="39.506536" lon="-0.473017">
        <ele>44</ele>
        <time>2018-11-04T10:53:19.000Z</time>
      </trkpt>
      <trkpt lat="39.506496" lon="-0.473021">
        <ele>44</ele>
        <time>2018-11-04T10:53:20.000Z</time>
      </trkpt>
      <trkpt lat="39.506455" lon="-0.473026">
        <ele>44</ele>
        <time>2018-11-04T10:53:21.000Z</time>
      </trkpt>
      <trkpt lat="39.506412" lon="-0.473036">
        <ele>44</ele>
        <time>2018-11-04T10:53:22.000Z</time>
      </trkpt>
      <trkpt lat="39.506368" lon="-0.473046">
        <ele>44</ele>
        <time>2018-11-04T10:53:23.000Z</time>
      </trkpt>
      <trkpt lat="39.506324" lon="-0.473057">
        <ele>44</ele>
        <time>2018-11-04T10:53:24.000Z</time>
      </trkpt>
      <trkpt lat="39.50628" lon="-0.473068">
        <ele>44</ele>
        <time>2018-11-04T10:53:25.000Z</time>
      </trkpt>
      <trkpt lat="39.506238" lon="-0.473076">
        <ele>44</ele>
        <time>2018-11-04T10:53:26.000Z</time>
      </trkpt>
      <trkpt lat="39.506196" lon="-0.473085">
        <ele>44</ele>
        <time>2018-11-04T10:53:27.000Z</time>
      </trkpt>
      <trkpt lat="39.506154" lon="-0.473093">
        <ele>44</ele>
        <time>2018-11-04T10:53:28.000Z</time>
      </trkpt>
      <trkpt lat="39.506114" lon="-0.473101">
        <ele>44</ele>
        <time>2018-11-04T10:53:29.000Z</time>
      </trkpt>
      <trkpt lat="39.506074" lon="-0.473108">
        <ele>44</ele>
        <time>2018-11-04T10:53:30.000Z</time>
      </trkpt>
      <trkpt lat="39.506036" lon="-0.473115">
        <ele>43.1100032</ele>
        <time>2018-11-04T10:53:31.000Z</time>
      </trkpt>
      <trkpt lat="39.505998" lon="-0.473126">
        <ele>43</ele>
        <time>2018-11-04T10:53:32.000Z</time>
      </trkpt>
      <trkpt lat="39.505961" lon="-0.473133">
        <ele>43</ele>
        <time>2018-11-04T10:53:33.000Z</time>
      </trkpt>
      <trkpt lat="39.505926" lon="-0.473143">
        <ele>43</ele>
        <time>2018-11-04T10:53:34.000Z</time>
      </trkpt>
      <trkpt lat="39.505892" lon="-0.473154">
        <ele>43</ele>
        <time>2018-11-04T10:53:35.000Z</time>
      </trkpt>
      <trkpt lat="39.505858" lon="-0.473163">
        <ele>43</ele>
        <time>2018-11-04T10:53:36.000Z</time>
      </trkpt>
      <trkpt lat="39.505822" lon="-0.473171">
        <ele>42.1100032</ele>
        <time>2018-11-04T10:53:37.000Z</time>
      </trkpt>
      <trkpt lat="39.505788" lon="-0.473174">
        <ele>42</ele>
        <time>2018-11-04T10:53:38.000Z</time>
      </trkpt>
      <trkpt lat="39.505754" lon="-0.473173">
        <ele>42</ele>
        <time>2018-11-04T10:53:39.000Z</time>
      </trkpt>
      <trkpt lat="39.505719" lon="-0.473173">
        <ele>42</ele>
        <time>2018-11-04T10:53:40.000Z</time>
      </trkpt>
      <trkpt lat="39.505683" lon="-0.473173">
        <ele>42</ele>
        <time>2018-11-04T10:53:41.000Z</time>
      </trkpt>
      <trkpt lat="39.505646" lon="-0.473173">
        <ele>41.111113984278</ele>
        <time>2018-11-04T10:53:42.000Z</time>
      </trkpt>
      <trkpt lat="39.505612" lon="-0.473176">
        <ele>41</ele>
        <time>2018-11-04T10:53:43.000Z</time>
      </trkpt>
      <trkpt lat="39.505579" lon="-0.473184">
        <ele>41</ele>
        <time>2018-11-04T10:53:44.000Z</time>
      </trkpt>
      <trkpt lat="39.505545" lon="-0.473192">
        <ele>41</ele>
        <time>2018-11-04T10:53:45.000Z</time>
      </trkpt>
      <trkpt lat="39.50551" lon="-0.473203">
        <ele>41</ele>
        <time>2018-11-04T10:53:46.000Z</time>
      </trkpt>
      <trkpt lat="39.505476" lon="-0.473213">
        <ele>41</ele>
        <time>2018-11-04T10:53:47.000Z</time>
      </trkpt>
      <trkpt lat="39.505444" lon="-0.473224">
        <ele>41</ele>
        <time>2018-11-04T10:53:48.000Z</time>
      </trkpt>
      <trkpt lat="39.505413" lon="-0.473239">
        <ele>41</ele>
        <time>2018-11-04T10:53:49.000Z</time>
      </trkpt>
      <trkpt lat="39.505382" lon="-0.47325">
        <ele>40.1100032</ele>
        <time>2018-11-04T10:53:50.000Z</time>
      </trkpt>
      <trkpt lat="39.50535" lon="-0.47326">
        <ele>40</ele>
        <time>2018-11-04T10:53:51.000Z</time>
      </trkpt>
      <trkpt lat="39.505315" lon="-0.473267">
        <ele>40.8472177777778</ele>
        <time>2018-11-04T10:53:52.000Z</time>
      </trkpt>
      <trkpt lat="39.505276" lon="-0.473273">
        <ele>41</ele>
        <time>2018-11-04T10:53:53.000Z</time>
      </trkpt>
      <trkpt lat="39.505236" lon="-0.473283">
        <ele>41</ele>
        <time>2018-11-04T10:53:54.000Z</time>
      </trkpt>
      <trkpt lat="39.505193" lon="-0.473301">
        <ele>41</ele>
        <time>2018-11-04T10:53:55.000Z</time>
      </trkpt>
      <trkpt lat="39.505146" lon="-0.47332">
        <ele>41.8899968</ele>
        <time>2018-11-04T10:53:56.000Z</time>
      </trkpt>
      <trkpt lat="39.505091" lon="-0.473335">
        <ele>42</ele>
        <time>2018-11-04T10:53:57.000Z</time>
      </trkpt>
      <trkpt lat="39.505034" lon="-0.473348">
        <ele>42</ele>
        <time>2018-11-04T10:53:58.000Z</time>
      </trkpt>
      <trkpt lat="39.504978" lon="-0.473358">
        <ele>42</ele>
        <time>2018-11-04T10:53:59.000Z</time>
      </trkpt>
      <trkpt lat="39.504925" lon="-0.473363">
        <ele>42</ele>
        <time>2018-11-04T10:54:00.000Z</time>
      </trkpt>
      <trkpt lat="39.504875" lon="-0.473372">
        <ele>41.1100032</ele>
        <time>2018-11-04T10:54:01.000Z</time>
      </trkpt>
      <trkpt lat="39.504826" lon="-0.473388">
        <ele>41</ele>
        <time>2018-11-04T10:54:02.000Z</time>
      </trkpt>
      <trkpt lat="39.504777" lon="-0.473408">
        <ele>41</ele>
        <time>2018-11-04T10:54:03.000Z</time>
      </trkpt>
      <trkpt lat="39.504726" lon="-0.473432">
        <ele>41</ele>
        <time>2018-11-04T10:54:04.000Z</time>
      </trkpt>
      <trkpt lat="39.504672" lon="-0.473458">
        <ele>40.1100032</ele>
        <time>2018-11-04T10:54:05.000Z</time>
      </trkpt>
      <trkpt lat="39.504618" lon="-0.473486">
        <ele>40.8899968</ele>
        <time>2018-11-04T10:54:06.000Z</time>
      </trkpt>
      <trkpt lat="39.504564" lon="-0.473515">
        <ele>41</ele>
        <time>2018-11-04T10:54:07.000Z</time>
      </trkpt>
      <trkpt lat="39.504515" lon="-0.473542">
        <ele>41</ele>
        <time>2018-11-04T10:54:08.000Z</time>
      </trkpt>
      <trkpt lat="39.504469" lon="-0.47358">
        <ele>41</ele>
        <time>2018-11-04T10:54:09.000Z</time>
      </trkpt>
      <trkpt lat="39.504425" lon="-0.473619">
        <ele>41</ele>
        <time>2018-11-04T10:54:10.000Z</time>
      </trkpt>
      <trkpt lat="39.504384" lon="-0.47366">
        <ele>41</ele>
        <time>2018-11-04T10:54:11.000Z</time>
      </trkpt>
      <trkpt lat="39.504347" lon="-0.473706">
        <ele>41</ele>
        <time>2018-11-04T10:54:12.000Z</time>
      </trkpt>
      <trkpt lat="39.504311" lon="-0.473747">
        <ele>41</ele>
        <time>2018-11-04T10:54:13.000Z</time>
      </trkpt>
      <trkpt lat="39.504276" lon="-0.473781">
        <ele>40.1100032</ele>
        <time>2018-11-04T10:54:14.000Z</time>
      </trkpt>
      <trkpt lat="39.504236" lon="-0.4738">
        <ele>40</ele>
        <time>2018-11-04T10:54:15.000Z</time>
      </trkpt>
      <trkpt lat="39.504195" lon="-0.473805">
        <ele>40.8899968</ele>
        <time>2018-11-04T10:54:16.000Z</time>
      </trkpt>
      <trkpt lat="39.50416" lon="-0.473797">
        <ele>41</ele>
        <time>2018-11-04T10:54:17.000Z</time>
      </trkpt>
      <trkpt lat="39.504136" lon="-0.473779">
        <ele>41</ele>
        <time>2018-11-04T10:54:18.000Z</time>
      </trkpt>
      <trkpt lat="39.504122" lon="-0.473754">
        <ele>41</ele>
        <time>2018-11-04T10:54:19.000Z</time>
      </trkpt>
      <trkpt lat="39.50411" lon="-0.473734">
        <ele>41</ele>
        <time>2018-11-04T10:54:20.000Z</time>
      </trkpt>
      <trkpt lat="39.504088" lon="-0.473706">
        <ele>41.8899968</ele>
        <time>2018-11-04T10:54:22.000Z</time>
      </trkpt>
      <trkpt lat="39.504063" lon="-0.473668">
        <ele>42</ele>
        <time>2018-11-04T10:54:24.000Z</time>
      </trkpt>
      <trkpt lat="39.504043" lon="-0.47364">
        <ele>42</ele>
        <time>2018-11-04T10:54:25.000Z</time>
      </trkpt>
      <trkpt lat="39.504023" lon="-0.47361">
        <ele>42</ele>
        <time>2018-11-04T10:54:26.000Z</time>
      </trkpt>
      <trkpt lat="39.503993" lon="-0.473576">
        <ele>42</ele>
        <time>2018-11-04T10:54:27.000Z</time>
      </trkpt>
      <trkpt lat="39.503958" lon="-0.473544">
        <ele>42</ele>
        <time>2018-11-04T10:54:28.000Z</time>
      </trkpt>
      <trkpt lat="39.503914" lon="-0.47353">
        <ele>42</ele>
        <time>2018-11-04T10:54:29.000Z</time>
      </trkpt>
      <trkpt lat="39.503866" lon="-0.47355">
        <ele>42</ele>
        <time>2018-11-04T10:54:30.000Z</time>
      </trkpt>
      <trkpt lat="39.503822" lon="-0.473588">
        <ele>42</ele>
        <time>2018-11-04T10:54:31.000Z</time>
      </trkpt>
      <trkpt lat="39.503777" lon="-0.473637">
        <ele>42</ele>
        <time>2018-11-04T10:54:32.000Z</time>
      </trkpt>
      <trkpt lat="39.503724" lon="-0.473684">
        <ele>42</ele>
        <time>2018-11-04T10:54:33.000Z</time>
      </trkpt>
      <trkpt lat="39.503668" lon="-0.473731">
        <ele>42.8428540081919</ele>
        <time>2018-11-04T10:54:34.000Z</time>
      </trkpt>
      <trkpt lat="39.503606" lon="-0.473772">
        <ele>42.1100032</ele>
        <time>2018-11-04T10:54:35.000Z</time>
      </trkpt>
      <trkpt lat="39.503546" lon="-0.473808">
        <ele>42</ele>
        <time>2018-11-04T10:54:36.000Z</time>
      </trkpt>
      <trkpt lat="39.503488" lon="-0.473837">
        <ele>42</ele>
        <time>2018-11-04T10:54:37.000Z</time>
      </trkpt>
      <trkpt lat="39.503428" lon="-0.47387">
        <ele>41.1100032</ele>
        <time>2018-11-04T10:54:38.000Z</time>
      </trkpt>
      <trkpt lat="39.50337" lon="-0.473903">
        <ele>41</ele>
        <time>2018-11-04T10:54:39.000Z</time>
      </trkpt>
      <trkpt lat="39.503316" lon="-0.47394">
        <ele>40.1100032</ele>
        <time>2018-11-04T10:54:40.000Z</time>
      </trkpt>
      <trkpt lat="39.503264" lon="-0.473969">
        <ele>40</ele>
        <time>2018-11-04T10:54:41.000Z</time>
      </trkpt>
      <trkpt lat="39.503213" lon="-0.473992">
        <ele>39.1594256669016</ele>
        <time>2018-11-04T10:54:42.000Z</time>
      </trkpt>
      <trkpt lat="39.503173" lon="-0.474011">
        <ele>39</ele>
        <time>2018-11-04T10:54:43.000Z</time>
      </trkpt>
      <trkpt lat="39.503131" lon="-0.474019">
        <ele>39</ele>
        <time>2018-11-04T10:54:44.000Z</time>
      </trkpt>
      <trkpt lat="39.503092" lon="-0.474025">
        <ele>39</ele>
        <time>2018-11-04T10:54:45.000Z</time>
      </trkpt>
      <trkpt lat="39.503055" lon="-0.474026">
        <ele>39</ele>
        <time>2018-11-04T10:54:46.000Z</time>
      </trkpt>
      <trkpt lat="39.503022" lon="-0.47403">
        <ele>39</ele>
        <time>2018-11-04T10:54:47.000Z</time>
      </trkpt>
      <trkpt lat="39.502989" lon="-0.474026">
        <ele>39</ele>
        <time>2018-11-04T10:54:48.000Z</time>
      </trkpt>
      <trkpt lat="39.502952" lon="-0.474023">
        <ele>39</ele>
        <time>2018-11-04T10:54:49.000Z</time>
      </trkpt>
      <trkpt lat="39.502909" lon="-0.474025">
        <ele>39</ele>
        <time>2018-11-04T10:54:50.000Z</time>
      </trkpt>
      <trkpt lat="39.502863" lon="-0.474018">
        <ele>39</ele>
        <time>2018-11-04T10:54:51.000Z</time>
      </trkpt>
      <trkpt lat="39.502817" lon="-0.474012">
        <ele>39</ele>
        <time>2018-11-04T10:54:52.000Z</time>
      </trkpt>
      <trkpt lat="39.502772" lon="-0.474015">
        <ele>39</ele>
        <time>2018-11-04T10:54:53.000Z</time>
      </trkpt>
      <trkpt lat="39.502724" lon="-0.474034">
        <ele>38.1527822222222</ele>
        <time>2018-11-04T10:54:54.000Z</time>
      </trkpt>
      <trkpt lat="39.502672" lon="-0.474057">
        <ele>38</ele>
        <time>2018-11-04T10:54:55.000Z</time>
      </trkpt>
      <trkpt lat="39.502615" lon="-0.474085">
        <ele>37.1100032</ele>
        <time>2018-11-04T10:54:56.000Z</time>
      </trkpt>
      <trkpt lat="39.502557" lon="-0.474107">
        <ele>36.127448642815</ele>
        <time>2018-11-04T10:54:57.000Z</time>
      </trkpt>
      <trkpt lat="39.5025" lon="-0.474116">
        <ele>36</ele>
        <time>2018-11-04T10:54:58.000Z</time>
      </trkpt>
      <trkpt lat="39.502446" lon="-0.474124">
        <ele>35.1100032</ele>
        <time>2018-11-04T10:54:59.000Z</time>
      </trkpt>
      <trkpt lat="39.502395" lon="-0.474131">
        <ele>35</ele>
        <time>2018-11-04T10:55:00.000Z</time>
      </trkpt>
      <trkpt lat="39.502348" lon="-0.474141">
        <ele>35</ele>
        <time>2018-11-04T10:55:01.000Z</time>
      </trkpt>
      <trkpt lat="39.502303" lon="-0.474152">
        <ele>35</ele>
        <time>2018-11-04T10:55:02.000Z</time>
      </trkpt>
      <trkpt lat="39.502254" lon="-0.474174">
        <ele>34.1594227094811</ele>
        <time>2018-11-04T10:55:03.000Z</time>
      </trkpt>
      <trkpt lat="39.502198" lon="-0.474191">
        <ele>34</ele>
        <time>2018-11-04T10:55:04.000Z</time>
      </trkpt>
      <trkpt lat="39.502142" lon="-0.474205">
        <ele>33.111113984278</ele>
        <time>2018-11-04T10:55:05.000Z</time>
      </trkpt>
      <trkpt lat="39.502083" lon="-0.474213">
        <ele>33</ele>
        <time>2018-11-04T10:55:06.000Z</time>
      </trkpt>
      <trkpt lat="39.502028" lon="-0.474217">
        <ele>33</ele>
        <time>2018-11-04T10:55:07.000Z</time>
      </trkpt>
      <trkpt lat="39.501978" lon="-0.474217">
        <ele>33</ele>
        <time>2018-11-04T10:55:08.000Z</time>
      </trkpt>
      <trkpt lat="39.501931" lon="-0.474221">
        <ele>33</ele>
        <time>2018-11-04T10:55:09.000Z</time>
      </trkpt>
      <trkpt lat="39.501881" lon="-0.474231">
        <ele>33</ele>
        <time>2018-11-04T10:55:10.000Z</time>
      </trkpt>
      <trkpt lat="39.501832" lon="-0.474237">
        <ele>33</ele>
        <time>2018-11-04T10:55:11.000Z</time>
      </trkpt>
      <trkpt lat="39.501783" lon="-0.474244">
        <ele>33</ele>
        <time>2018-11-04T10:55:12.000Z</time>
      </trkpt>
      <trkpt lat="39.50173" lon="-0.474236">
        <ele>33</ele>
        <time>2018-11-04T10:55:13.000Z</time>
      </trkpt>
      <trkpt lat="39.501677" lon="-0.474233">
        <ele>33</ele>
        <time>2018-11-04T10:55:14.000Z</time>
      </trkpt>
      <trkpt lat="39.501626" lon="-0.47422">
        <ele>33</ele>
        <time>2018-11-04T10:55:15.000Z</time>
      </trkpt>
      <trkpt lat="39.501582" lon="-0.474198">
        <ele>33.8899968</ele>
        <time>2018-11-04T10:55:16.000Z</time>
      </trkpt>
      <trkpt lat="39.501542" lon="-0.474164">
        <ele>34</ele>
        <time>2018-11-04T10:55:17.000Z</time>
      </trkpt>
      <trkpt lat="39.501506" lon="-0.474124">
        <ele>34.8899968</ele>
        <time>2018-11-04T10:55:18.000Z</time>
      </trkpt>
      <trkpt lat="39.50147" lon="-0.474062">
        <ele>35</ele>
        <time>2018-11-04T10:55:19.000Z</time>
      </trkpt>
      <trkpt lat="39.501437" lon="-0.474005">
        <ele>35.8899968</ele>
        <time>2018-11-04T10:55:20.000Z</time>
      </trkpt>
      <trkpt lat="39.501402" lon="-0.473942">
        <ele>36</ele>
        <time>2018-11-04T10:55:21.000Z</time>
      </trkpt>
      <trkpt lat="39.501372" lon="-0.473884">
        <ele>36.8450666137843</ele>
        <time>2018-11-04T10:55:22.000Z</time>
      </trkpt>
      <trkpt lat="39.501339" lon="-0.473821">
        <ele>37</ele>
        <time>2018-11-04T10:55:23.000Z</time>
      </trkpt>
      <trkpt lat="39.501306" lon="-0.473761">
        <ele>37</ele>
        <time>2018-11-04T10:55:24.000Z</time>
      </trkpt>
      <trkpt lat="39.501279" lon="-0.473705">
        <ele>37.8899968</ele>
        <time>2018-11-04T10:55:25.000Z</time>
      </trkpt>
      <trkpt lat="39.501255" lon="-0.473641">
        <ele>38</ele>
        <time>2018-11-04T10:55:26.000Z</time>
      </trkpt>
      <trkpt lat="39.501235" lon="-0.473576">
        <ele>38</ele>
        <time>2018-11-04T10:55:27.000Z</time>
      </trkpt>
      <trkpt lat="39.501218" lon="-0.47352">
        <ele>38</ele>
        <time>2018-11-04T10:55:28.000Z</time>
      </trkpt>
      <trkpt lat="39.501139" lon="-0.473438">
        <ele>37.30469</ele>
        <time>2018-11-04T10:55:30.000Z</time>
      </trkpt>
      <trkpt lat="39.501088" lon="-0.473414">
        <ele>37</ele>
        <time>2018-11-04T10:55:31.000Z</time>
      </trkpt>
      <trkpt lat="39.500992" lon="-0.473342">
        <ele>38</ele>
        <time>2018-11-04T10:55:33.000Z</time>
      </trkpt>
      <trkpt lat="39.500958" lon="-0.473287">
        <ele>38</ele>
        <time>2018-11-04T10:55:34.000Z</time>
      </trkpt>
      <trkpt lat="39.500925" lon="-0.473231">
        <ele>38</ele>
        <time>2018-11-04T10:55:35.000Z</time>
      </trkpt>
      <trkpt lat="39.500894" lon="-0.473176">
        <ele>38</ele>
        <time>2018-11-04T10:55:36.000Z</time>
      </trkpt>
      <trkpt lat="39.50087" lon="-0.473114">
        <ele>38</ele>
        <time>2018-11-04T10:55:37.000Z</time>
      </trkpt>
      <trkpt lat="39.500856" lon="-0.473051">
        <ele>38.8899968</ele>
        <time>2018-11-04T10:55:38.000Z</time>
      </trkpt>
      <trkpt lat="39.50085" lon="-0.472981">
        <ele>39</ele>
        <time>2018-11-04T10:55:39.000Z</time>
      </trkpt>
      <trkpt lat="39.500845" lon="-0.472925">
        <ele>39</ele>
        <time>2018-11-04T10:55:40.000Z</time>
      </trkpt>
      <trkpt lat="39.50084" lon="-0.472878">
        <ele>39</ele>
        <time>2018-11-04T10:55:41.000Z</time>
      </trkpt>
      <trkpt lat="39.500844" lon="-0.472825">
        <ele>39</ele>
        <time>2018-11-04T10:55:42.000Z</time>
      </trkpt>
      <trkpt lat="39.500845" lon="-0.472766">
        <ele>39</ele>
        <time>2018-11-04T10:55:43.000Z</time>
      </trkpt>
      <trkpt lat="39.500836" lon="-0.472712">
        <ele>39.8899968</ele>
        <time>2018-11-04T10:55:44.000Z</time>
      </trkpt>
      <trkpt lat="39.500828" lon="-0.472658">
        <ele>40</ele>
        <time>2018-11-04T10:55:45.000Z</time>
      </trkpt>
      <trkpt lat="39.500815" lon="-0.472598">
        <ele>40</ele>
        <time>2018-11-04T10:55:46.000Z</time>
      </trkpt>
      <trkpt lat="39.500803" lon="-0.472537">
        <ele>40</ele>
        <time>2018-11-04T10:55:47.000Z</time>
      </trkpt>
      <trkpt lat="39.500793" lon="-0.47248">
        <ele>40</ele>
        <time>2018-11-04T10:55:48.000Z</time>
      </trkpt>
      <trkpt lat="39.500781" lon="-0.472432">
        <ele>40</ele>
        <time>2018-11-04T10:55:49.000Z</time>
      </trkpt>
      <trkpt lat="39.500774" lon="-0.472378">
        <ele>40</ele>
        <time>2018-11-04T10:55:50.000Z</time>
      </trkpt>
      <trkpt lat="39.500772" lon="-0.472312">
        <ele>40</ele>
        <time>2018-11-04T10:55:51.000Z</time>
      </trkpt>
      <trkpt lat="39.500764" lon="-0.472256">
        <ele>40</ele>
        <time>2018-11-04T10:55:52.000Z</time>
      </trkpt>
      <trkpt lat="39.500761" lon="-0.472192">
        <ele>40</ele>
        <time>2018-11-04T10:55:53.000Z</time>
      </trkpt>
      <trkpt lat="39.500761" lon="-0.47213">
        <ele>40</ele>
        <time>2018-11-04T10:55:54.000Z</time>
      </trkpt>
      <trkpt lat="39.500766" lon="-0.472067">
        <ele>40</ele>
        <time>2018-11-04T10:55:55.000Z</time>
      </trkpt>
      <trkpt lat="39.500769" lon="-0.472004">
        <ele>40</ele>
        <time>2018-11-04T10:55:56.000Z</time>
      </trkpt>
      <trkpt lat="39.50078" lon="-0.471938">
        <ele>39.1100032</ele>
        <time>2018-11-04T10:55:57.000Z</time>
      </trkpt>
      <trkpt lat="39.500793" lon="-0.471884">
        <ele>39</ele>
        <time>2018-11-04T10:55:58.000Z</time>
      </trkpt>
      <trkpt lat="39.500811" lon="-0.471827">
        <ele>39</ele>
        <time>2018-11-04T10:55:59.000Z</time>
      </trkpt>
      <trkpt lat="39.500826" lon="-0.471771">
        <ele>39</ele>
        <time>2018-11-04T10:56:00.000Z</time>
      </trkpt>
      <trkpt lat="39.500838" lon="-0.471715">
        <ele>39</ele>
        <time>2018-11-04T10:56:01.000Z</time>
      </trkpt>
      <trkpt lat="39.500839" lon="-0.471664">
        <ele>39</ele>
        <time>2018-11-04T10:56:02.000Z</time>
      </trkpt>
      <trkpt lat="39.500843" lon="-0.471608">
        <ele>39</ele>
        <time>2018-11-04T10:56:03.000Z</time>
      </trkpt>
      <trkpt lat="39.50085" lon="-0.471546">
        <ele>39</ele>
        <time>2018-11-04T10:56:04.000Z</time>
      </trkpt>
      <trkpt lat="39.500856" lon="-0.471491">
        <ele>39</ele>
        <time>2018-11-04T10:56:05.000Z</time>
      </trkpt>
      <trkpt lat="39.500854" lon="-0.471437">
        <ele>39</ele>
        <time>2018-11-04T10:56:06.000Z</time>
      </trkpt>
      <trkpt lat="39.500849" lon="-0.47138">
        <ele>39</ele>
        <time>2018-11-04T10:56:07.000Z</time>
      </trkpt>
      <trkpt lat="39.500836" lon="-0.471328">
        <ele>39</ele>
        <time>2018-11-04T10:56:08.000Z</time>
      </trkpt>
      <trkpt lat="39.500823" lon="-0.471275">
        <ele>39</ele>
        <time>2018-11-04T10:56:09.000Z</time>
      </trkpt>
      <trkpt lat="39.500812" lon="-0.471224">
        <ele>38.1100032</ele>
        <time>2018-11-04T10:56:10.000Z</time>
      </trkpt>
      <trkpt lat="39.500806" lon="-0.471163">
        <ele>38</ele>
        <time>2018-11-04T10:56:11.000Z</time>
      </trkpt>
      <trkpt lat="39.500807" lon="-0.471095">
        <ele>38</ele>
        <time>2018-11-04T10:56:12.000Z</time>
      </trkpt>
      <trkpt lat="39.500816" lon="-0.471023">
        <ele>38</ele>
        <time>2018-11-04T10:56:13.000Z</time>
      </trkpt>
      <trkpt lat="39.500824" lon="-0.470957">
        <ele>38</ele>
        <time>2018-11-04T10:56:14.000Z</time>
      </trkpt>
      <trkpt lat="39.500833" lon="-0.470896">
        <ele>38</ele>
        <time>2018-11-04T10:56:15.000Z</time>
      </trkpt>
      <trkpt lat="39.500838" lon="-0.470837">
        <ele>38</ele>
        <time>2018-11-04T10:56:16.000Z</time>
      </trkpt>
      <trkpt lat="39.500846" lon="-0.470781">
        <ele>38</ele>
        <time>2018-11-04T10:56:17.000Z</time>
      </trkpt>
      <trkpt lat="39.50085" lon="-0.470719">
        <ele>38</ele>
        <time>2018-11-04T10:56:18.000Z</time>
      </trkpt>
      <trkpt lat="39.500856" lon="-0.470659">
        <ele>38</ele>
        <time>2018-11-04T10:56:19.000Z</time>
      </trkpt>
      <trkpt lat="39.50087" lon="-0.470595">
        <ele>38</ele>
        <time>2018-11-04T10:56:20.000Z</time>
      </trkpt>
      <trkpt lat="39.500888" lon="-0.470531">
        <ele>38</ele>
        <time>2018-11-04T10:56:21.000Z</time>
      </trkpt>
      <trkpt lat="39.500896" lon="-0.470464">
        <ele>37.1100032</ele>
        <time>2018-11-04T10:56:22.000Z</time>
      </trkpt>
      <trkpt lat="39.500906" lon="-0.470398">
        <ele>37</ele>
        <time>2018-11-04T10:56:23.000Z</time>
      </trkpt>
      <trkpt lat="39.500922" lon="-0.470335">
        <ele>37</ele>
        <time>2018-11-04T10:56:24.000Z</time>
      </trkpt>
      <trkpt lat="39.500941" lon="-0.470278">
        <ele>37</ele>
        <time>2018-11-04T10:56:25.000Z</time>
      </trkpt>
      <trkpt lat="39.500957" lon="-0.470217">
        <ele>37</ele>
        <time>2018-11-04T10:56:26.000Z</time>
      </trkpt>
      <trkpt lat="39.500972" lon="-0.470155">
        <ele>37</ele>
        <time>2018-11-04T10:56:27.000Z</time>
      </trkpt>
      <trkpt lat="39.500988" lon="-0.470095">
        <ele>37</ele>
        <time>2018-11-04T10:56:28.000Z</time>
      </trkpt>
      <trkpt lat="39.501" lon="-0.470037">
        <ele>37</ele>
        <time>2018-11-04T10:56:29.000Z</time>
      </trkpt>
      <trkpt lat="39.501017" lon="-0.469969">
        <ele>37</ele>
        <time>2018-11-04T10:56:30.000Z</time>
      </trkpt>
      <trkpt lat="39.501034" lon="-0.469902">
        <ele>37</ele>
        <time>2018-11-04T10:56:31.000Z</time>
      </trkpt>
      <trkpt lat="39.501051" lon="-0.469838">
        <ele>37</ele>
        <time>2018-11-04T10:56:32.000Z</time>
      </trkpt>
      <trkpt lat="39.501071" lon="-0.469772">
        <ele>37</ele>
        <time>2018-11-04T10:56:33.000Z</time>
      </trkpt>
      <trkpt lat="39.501093" lon="-0.469708">
        <ele>37</ele>
        <time>2018-11-04T10:56:34.000Z</time>
      </trkpt>
      <trkpt lat="39.501109" lon="-0.469648">
        <ele>37</ele>
        <time>2018-11-04T10:56:35.000Z</time>
      </trkpt>
      <trkpt lat="39.501124" lon="-0.469585">
        <ele>37</ele>
        <time>2018-11-04T10:56:36.000Z</time>
      </trkpt>
      <trkpt lat="39.501141" lon="-0.469525">
        <ele>37</ele>
        <time>2018-11-04T10:56:37.000Z</time>
      </trkpt>
      <trkpt lat="39.501159" lon="-0.469468">
        <ele>37.8899968</ele>
        <time>2018-11-04T10:56:38.000Z</time>
      </trkpt>
      <trkpt lat="39.501178" lon="-0.469409">
        <ele>38</ele>
        <time>2018-11-04T10:56:39.000Z</time>
      </trkpt>
      <trkpt lat="39.501193" lon="-0.469353">
        <ele>38</ele>
        <time>2018-11-04T10:56:40.000Z</time>
      </trkpt>
      <trkpt lat="39.501199" lon="-0.469297">
        <ele>38</ele>
        <time>2018-11-04T10:56:41.000Z</time>
      </trkpt>
      <trkpt lat="39.501205" lon="-0.469241">
        <ele>38</ele>
        <time>2018-11-04T10:56:42.000Z</time>
      </trkpt>
      <trkpt lat="39.501208" lon="-0.469187">
        <ele>37.3900032</ele>
        <time>2018-11-04T10:56:43.000Z</time>
      </trkpt>
      <trkpt lat="39.501218" lon="-0.469128">
        <ele>37</ele>
        <time>2018-11-04T10:56:44.000Z</time>
      </trkpt>
      <trkpt lat="39.501228" lon="-0.469074">
        <ele>37</ele>
        <time>2018-11-04T10:56:45.000Z</time>
      </trkpt>
      <trkpt lat="39.501239" lon="-0.469009">
        <ele>37</ele>
        <time>2018-11-04T10:56:46.000Z</time>
      </trkpt>
      <trkpt lat="39.501261" lon="-0.468945">
        <ele>37</ele>
        <time>2018-11-04T10:56:47.000Z</time>
      </trkpt>
      <trkpt lat="39.501285" lon="-0.468883">
        <ele>37</ele>
        <time>2018-11-04T10:56:48.000Z</time>
      </trkpt>
      <trkpt lat="39.501317" lon="-0.468827">
        <ele>37</ele>
        <time>2018-11-04T10:56:49.000Z</time>
      </trkpt>
      <trkpt lat="39.501354" lon="-0.468776">
        <ele>37</ele>
        <time>2018-11-04T10:56:50.000Z</time>
      </trkpt>
      <trkpt lat="39.501391" lon="-0.468722">
        <ele>37</ele>
        <time>2018-11-04T10:56:51.000Z</time>
      </trkpt>
      <trkpt lat="39.501425" lon="-0.468669">
        <ele>37.8899968</ele>
        <time>2018-11-04T10:56:52.000Z</time>
      </trkpt>
      <trkpt lat="39.501462" lon="-0.468619">
        <ele>38</ele>
        <time>2018-11-04T10:56:53.000Z</time>
      </trkpt>
      <trkpt lat="39.501502" lon="-0.468575">
        <ele>38</ele>
        <time>2018-11-04T10:56:54.000Z</time>
      </trkpt>
      <trkpt lat="39.501533" lon="-0.468535">
        <ele>38</ele>
        <time>2018-11-04T10:56:55.000Z</time>
      </trkpt>
      <trkpt lat="39.501558" lon="-0.468493">
        <ele>38</ele>
        <time>2018-11-04T10:56:56.000Z</time>
      </trkpt>
      <trkpt lat="39.501584" lon="-0.468442">
        <ele>38</ele>
        <time>2018-11-04T10:56:57.000Z</time>
      </trkpt>
      <trkpt lat="39.501606" lon="-0.468394">
        <ele>38</ele>
        <time>2018-11-04T10:56:58.000Z</time>
      </trkpt>
      <trkpt lat="39.501627" lon="-0.468348">
        <ele>38</ele>
        <time>2018-11-04T10:56:59.000Z</time>
      </trkpt>
      <trkpt lat="39.501645" lon="-0.468304">
        <ele>38</ele>
        <time>2018-11-04T10:57:00.000Z</time>
      </trkpt>
      <trkpt lat="39.501662" lon="-0.468264">
        <ele>37.2992098207986</ele>
        <time>2018-11-04T10:57:01.000Z</time>
      </trkpt>
      <trkpt lat="39.50168" lon="-0.468227">
        <ele>37</ele>
        <time>2018-11-04T10:57:02.000Z</time>
      </trkpt>
      <trkpt lat="39.501701" lon="-0.468188">
        <ele>37.8899968</ele>
        <time>2018-11-04T10:57:03.000Z</time>
      </trkpt>
      <trkpt lat="39.501724" lon="-0.468154">
        <ele>38</ele>
        <time>2018-11-04T10:57:04.000Z</time>
      </trkpt>
      <trkpt lat="39.501751" lon="-0.468128">
        <ele>38</ele>
        <time>2018-11-04T10:57:05.000Z</time>
      </trkpt>
      <trkpt lat="39.501775" lon="-0.468105">
        <ele>38</ele>
        <time>2018-11-04T10:57:06.000Z</time>
      </trkpt>
      <trkpt lat="39.501799" lon="-0.468085">
        <ele>38.8472177777778</ele>
        <time>2018-11-04T10:57:07.000Z</time>
      </trkpt>
      <trkpt lat="39.501824" lon="-0.468064">
        <ele>39</ele>
        <time>2018-11-04T10:57:08.000Z</time>
      </trkpt>
      <trkpt lat="39.501847" lon="-0.468042">
        <ele>39</ele>
        <time>2018-11-04T10:57:09.000Z</time>
      </trkpt>
      <trkpt lat="39.501866" lon="-0.46802">
        <ele>39.8899968</ele>
        <time>2018-11-04T10:57:10.000Z</time>
      </trkpt>
      <trkpt lat="39.501883" lon="-0.467996">
        <ele>40</ele>
        <time>2018-11-04T10:57:11.000Z</time>
      </trkpt>
      <trkpt lat="39.5019" lon="-0.467974">
        <ele>40</ele>
        <time>2018-11-04T10:57:12.000Z</time>
      </trkpt>
      <trkpt lat="39.501914" lon="-0.467955">
        <ele>40</ele>
        <time>2018-11-04T10:57:13.000Z</time>
      </trkpt>
      <trkpt lat="39.501923" lon="-0.467934">
        <ele>40.8899968</ele>
        <time>2018-11-04T10:57:14.000Z</time>
      </trkpt>
      <trkpt lat="39.501928" lon="-0.467887">
        <ele>41</ele>
        <time>2018-11-04T10:57:16.000Z</time>
      </trkpt>
      <trkpt lat="39.501929" lon="-0.467859">
        <ele>41</ele>
        <time>2018-11-04T10:57:17.000Z</time>
      </trkpt>
      <trkpt lat="39.501931" lon="-0.467826">
        <ele>41</ele>
        <time>2018-11-04T10:57:18.000Z</time>
      </trkpt>
      <trkpt lat="39.501929" lon="-0.467791">
        <ele>41</ele>
        <time>2018-11-04T10:57:19.000Z</time>
      </trkpt>
      <trkpt lat="39.501927" lon="-0.467752">
        <ele>41</ele>
        <time>2018-11-04T10:57:20.000Z</time>
      </trkpt>
      <trkpt lat="39.501923" lon="-0.46771">
        <ele>41</ele>
        <time>2018-11-04T10:57:21.000Z</time>
      </trkpt>
      <trkpt lat="39.501915" lon="-0.467662">
        <ele>41</ele>
        <time>2018-11-04T10:57:22.000Z</time>
      </trkpt>
      <trkpt lat="39.501905" lon="-0.467611">
        <ele>41</ele>
        <time>2018-11-04T10:57:23.000Z</time>
      </trkpt>
      <trkpt lat="39.501889" lon="-0.467558">
        <ele>41.69531</ele>
        <time>2018-11-04T10:57:24.000Z</time>
      </trkpt>
      <trkpt lat="39.501871" lon="-0.467499">
        <ele>42</ele>
        <time>2018-11-04T10:57:25.000Z</time>
      </trkpt>
      <trkpt lat="39.501853" lon="-0.46744">
        <ele>42</ele>
        <time>2018-11-04T10:57:26.000Z</time>
      </trkpt>
      <trkpt lat="39.501839" lon="-0.467379">
        <ele>42</ele>
        <time>2018-11-04T10:57:27.000Z</time>
      </trkpt>
      <trkpt lat="39.501824" lon="-0.467321">
        <ele>42</ele>
        <time>2018-11-04T10:57:28.000Z</time>
      </trkpt>
      <trkpt lat="39.501813" lon="-0.467256">
        <ele>42</ele>
        <time>2018-11-04T10:57:29.000Z</time>
      </trkpt>
      <trkpt lat="39.501803" lon="-0.467193">
        <ele>42</ele>
        <time>2018-11-04T10:57:30.000Z</time>
      </trkpt>
      <trkpt lat="39.501793" lon="-0.46713">
        <ele>42</ele>
        <time>2018-11-04T10:57:31.000Z</time>
      </trkpt>
      <trkpt lat="39.501785" lon="-0.46706">
        <ele>42</ele>
        <time>2018-11-04T10:57:32.000Z</time>
      </trkpt>
      <trkpt lat="39.501776" lon="-0.466988">
        <ele>41.3206147893379</ele>
        <time>2018-11-04T10:57:33.000Z</time>
      </trkpt>
      <trkpt lat="39.50177" lon="-0.466916">
        <ele>41</ele>
        <time>2018-11-04T10:57:34.000Z</time>
      </trkpt>
      <trkpt lat="39.501763" lon="-0.46685">
        <ele>41</ele>
        <time>2018-11-04T10:57:35.000Z</time>
      </trkpt>
      <trkpt lat="39.501748" lon="-0.4668">
        <ele>41</ele>
        <time>2018-11-04T10:57:36.000Z</time>
      </trkpt>
      <trkpt lat="39.501737" lon="-0.466763">
        <ele>41</ele>
        <time>2018-11-04T10:57:37.000Z</time>
      </trkpt>
      <trkpt lat="39.501726" lon="-0.466733">
        <ele>41</ele>
        <time>2018-11-04T10:57:38.000Z</time>
      </trkpt>
      <trkpt lat="39.501705" lon="-0.466708">
        <ele>41</ele>
        <time>2018-11-04T10:57:39.000Z</time>
      </trkpt>
      <trkpt lat="39.501671" lon="-0.466696">
        <ele>41</ele>
        <time>2018-11-04T10:57:40.000Z</time>
      </trkpt>
      <trkpt lat="39.501638" lon="-0.466688">
        <ele>41</ele>
        <time>2018-11-04T10:57:41.000Z</time>
      </trkpt>
      <trkpt lat="39.501607" lon="-0.466689">
        <ele>41.8899968</ele>
        <time>2018-11-04T10:57:42.000Z</time>
      </trkpt>
      <trkpt lat="39.501577" lon="-0.466691">
        <ele>42</ele>
        <time>2018-11-04T10:57:43.000Z</time>
      </trkpt>
      <trkpt lat="39.501555" lon="-0.466692">
        <ele>42</ele>
        <time>2018-11-04T10:57:44.000Z</time>
      </trkpt>
      <trkpt lat="39.501535" lon="-0.466693">
        <ele>42</ele>
        <time>2018-11-04T10:57:45.000Z</time>
      </trkpt>
      <trkpt lat="39.501513" lon="-0.466699">
        <ele>42</ele>
        <time>2018-11-04T10:57:46.000Z</time>
      </trkpt>
      <trkpt lat="39.501489" lon="-0.466705">
        <ele>42.8899968</ele>
        <time>2018-11-04T10:57:47.000Z</time>
      </trkpt>
      <trkpt lat="39.501466" lon="-0.466708">
        <ele>43</ele>
        <time>2018-11-04T10:57:48.000Z</time>
      </trkpt>
      <trkpt lat="39.501441" lon="-0.466713">
        <ele>43</ele>
        <time>2018-11-04T10:57:49.000Z</time>
      </trkpt>
      <trkpt lat="39.50141" lon="-0.466718">
        <ele>43</ele>
        <time>2018-11-04T10:57:50.000Z</time>
      </trkpt>
      <trkpt lat="39.501376" lon="-0.466728">
        <ele>42.1549333862157</ele>
        <time>2018-11-04T10:57:51.000Z</time>
      </trkpt>
      <trkpt lat="39.50134" lon="-0.466737">
        <ele>42</ele>
        <time>2018-11-04T10:57:52.000Z</time>
      </trkpt>
      <trkpt lat="39.501305" lon="-0.466746">
        <ele>42</ele>
        <time>2018-11-04T10:57:53.000Z</time>
      </trkpt>
      <trkpt lat="39.501277" lon="-0.466752">
        <ele>41.1100032</ele>
        <time>2018-11-04T10:57:54.000Z</time>
      </trkpt>
      <trkpt lat="39.501247" lon="-0.466735">
        <ele>41</ele>
        <time>2018-11-04T10:57:55.000Z</time>
      </trkpt>
      <trkpt lat="39.501215" lon="-0.466692">
        <ele>41</ele>
        <time>2018-11-04T10:57:56.000Z</time>
      </trkpt>
      <trkpt lat="39.501192" lon="-0.466635">
        <ele>41</ele>
        <time>2018-11-04T10:57:57.000Z</time>
      </trkpt>
      <trkpt lat="39.501173" lon="-0.466576">
        <ele>41</ele>
        <time>2018-11-04T10:57:58.000Z</time>
      </trkpt>
      <trkpt lat="39.501158" lon="-0.466514">
        <ele>41</ele>
        <time>2018-11-04T10:57:59.000Z</time>
      </trkpt>
      <trkpt lat="39.501146" lon="-0.466451">
        <ele>41</ele>
        <time>2018-11-04T10:58:00.000Z</time>
      </trkpt>
      <trkpt lat="39.501136" lon="-0.466387">
        <ele>41</ele>
        <time>2018-11-04T10:58:01.000Z</time>
      </trkpt>
      <trkpt lat="39.501125" lon="-0.466324">
        <ele>41</ele>
        <time>2018-11-04T10:58:02.000Z</time>
      </trkpt>
      <trkpt lat="39.501114" lon="-0.466271">
        <ele>41</ele>
        <time>2018-11-04T10:58:03.000Z</time>
      </trkpt>
      <trkpt lat="39.50111" lon="-0.466232">
        <ele>41.8899968</ele>
        <time>2018-11-04T10:58:04.000Z</time>
      </trkpt>
      <trkpt lat="39.501102" lon="-0.466194">
        <ele>42</ele>
        <time>2018-11-04T10:58:05.000Z</time>
      </trkpt>
      <trkpt lat="39.501085" lon="-0.466151">
        <ele>42</ele>
        <time>2018-11-04T10:58:06.000Z</time>
      </trkpt>
      <trkpt lat="39.501073" lon="-0.466105">
        <ele>42</ele>
        <time>2018-11-04T10:58:07.000Z</time>
      </trkpt>
      <trkpt lat="39.501058" lon="-0.466053">
        <ele>42</ele>
        <time>2018-11-04T10:58:08.000Z</time>
      </trkpt>
      <trkpt lat="39.501036" lon="-0.465999">
        <ele>42</ele>
        <time>2018-11-04T10:58:09.000Z</time>
      </trkpt>
      <trkpt lat="39.501013" lon="-0.465945">
        <ele>42</ele>
        <time>2018-11-04T10:58:10.000Z</time>
      </trkpt>
      <trkpt lat="39.500977" lon="-0.465895">
        <ele>42</ele>
        <time>2018-11-04T10:58:11.000Z</time>
      </trkpt>
      <trkpt lat="39.500941" lon="-0.46584">
        <ele>41.1100032</ele>
        <time>2018-11-04T10:58:12.000Z</time>
      </trkpt>
      <trkpt lat="39.500898" lon="-0.465778">
        <ele>40.3100782885663</ele>
        <time>2018-11-04T10:58:13.000Z</time>
      </trkpt>
      <trkpt lat="39.500858" lon="-0.46572">
        <ele>40</ele>
        <time>2018-11-04T10:58:14.000Z</time>
      </trkpt>
      <trkpt lat="39.500817" lon="-0.465662">
        <ele>40</ele>
        <time>2018-11-04T10:58:15.000Z</time>
      </trkpt>
      <trkpt lat="39.500779" lon="-0.465605">
        <ele>39.1100032</ele>
        <time>2018-11-04T10:58:16.000Z</time>
      </trkpt>
      <trkpt lat="39.500742" lon="-0.465551">
        <ele>39</ele>
        <time>2018-11-04T10:58:17.000Z</time>
      </trkpt>
      <trkpt lat="39.500705" lon="-0.4655">
        <ele>39</ele>
        <time>2018-11-04T10:58:18.000Z</time>
      </trkpt>
      <trkpt lat="39.500665" lon="-0.465454">
        <ele>38.1100032</ele>
        <time>2018-11-04T10:58:19.000Z</time>
      </trkpt>
      <trkpt lat="39.500621" lon="-0.465419">
        <ele>38</ele>
        <time>2018-11-04T10:58:20.000Z</time>
      </trkpt>
      <trkpt lat="39.500573" lon="-0.465399">
        <ele>38.8899968</ele>
        <time>2018-11-04T10:58:21.000Z</time>
      </trkpt>
      <trkpt lat="39.500528" lon="-0.465395">
        <ele>39</ele>
        <time>2018-11-04T10:58:22.000Z</time>
      </trkpt>
      <trkpt lat="39.500491" lon="-0.465389">
        <ele>39</ele>
        <time>2018-11-04T10:58:23.000Z</time>
      </trkpt>
      <trkpt lat="39.500463" lon="-0.465365">
        <ele>39</ele>
        <time>2018-11-04T10:58:24.000Z</time>
      </trkpt>
      <trkpt lat="39.500438" lon="-0.465324">
        <ele>39.8899968</ele>
        <time>2018-11-04T10:58:25.000Z</time>
      </trkpt>
      <trkpt lat="39.500421" lon="-0.465258">
        <ele>40</ele>
        <time>2018-11-04T10:58:26.000Z</time>
      </trkpt>
      <trkpt lat="39.500395" lon="-0.465187">
        <ele>40</ele>
        <time>2018-11-04T10:58:27.000Z</time>
      </trkpt>
      <trkpt lat="39.500369" lon="-0.465118">
        <ele>40</ele>
        <time>2018-11-04T10:58:28.000Z</time>
      </trkpt>
      <trkpt lat="39.500353" lon="-0.465046">
        <ele>40</ele>
        <time>2018-11-04T10:58:29.000Z</time>
      </trkpt>
      <trkpt lat="39.500345" lon="-0.464971">
        <ele>40.8899968</ele>
        <time>2018-11-04T10:58:30.000Z</time>
      </trkpt>
      <trkpt lat="39.50033" lon="-0.4649">
        <ele>41</ele>
        <time>2018-11-04T10:58:31.000Z</time>
      </trkpt>
      <trkpt lat="39.500306" lon="-0.464835">
        <ele>41</ele>
        <time>2018-11-04T10:58:32.000Z</time>
      </trkpt>
      <trkpt lat="39.500279" lon="-0.464772">
        <ele>41</ele>
        <time>2018-11-04T10:58:33.000Z</time>
      </trkpt>
      <trkpt lat="39.500256" lon="-0.464706">
        <ele>41</ele>
        <time>2018-11-04T10:58:34.000Z</time>
      </trkpt>
      <trkpt lat="39.500228" lon="-0.464643">
        <ele>41</ele>
        <time>2018-11-04T10:58:35.000Z</time>
      </trkpt>
      <trkpt lat="39.500201" lon="-0.464583">
        <ele>41</ele>
        <time>2018-11-04T10:58:36.000Z</time>
      </trkpt>
      <trkpt lat="39.500174" lon="-0.464519">
        <ele>41</ele>
        <time>2018-11-04T10:58:37.000Z</time>
      </trkpt>
      <trkpt lat="39.500143" lon="-0.464458">
        <ele>41</ele>
        <time>2018-11-04T10:58:38.000Z</time>
      </trkpt>
      <trkpt lat="39.500109" lon="-0.464398">
        <ele>41</ele>
        <time>2018-11-04T10:58:39.000Z</time>
      </trkpt>
      <trkpt lat="39.500078" lon="-0.464337">
        <ele>41</ele>
        <time>2018-11-04T10:58:40.000Z</time>
      </trkpt>
      <trkpt lat="39.500045" lon="-0.464282">
        <ele>40.3100782885663</ele>
        <time>2018-11-04T10:58:41.000Z</time>
      </trkpt>
      <trkpt lat="39.500012" lon="-0.464227">
        <ele>40</ele>
        <time>2018-11-04T10:58:42.000Z</time>
      </trkpt>
      <trkpt lat="39.499983" lon="-0.464173">
        <ele>40</ele>
        <time>2018-11-04T10:58:43.000Z</time>
      </trkpt>
      <trkpt lat="39.499959" lon="-0.464117">
        <ele>40</ele>
        <time>2018-11-04T10:58:44.000Z</time>
      </trkpt>
      <trkpt lat="39.499939" lon="-0.46406">
        <ele>40</ele>
        <time>2018-11-04T10:58:45.000Z</time>
      </trkpt>
      <trkpt lat="39.49992" lon="-0.463998">
        <ele>40</ele>
        <time>2018-11-04T10:58:46.000Z</time>
      </trkpt>
      <trkpt lat="39.499893" lon="-0.463936">
        <ele>40</ele>
        <time>2018-11-04T10:58:47.000Z</time>
      </trkpt>
      <trkpt lat="39.499863" lon="-0.463879">
        <ele>40</ele>
        <time>2018-11-04T10:58:48.000Z</time>
      </trkpt>
      <trkpt lat="39.499834" lon="-0.46382">
        <ele>40</ele>
        <time>2018-11-04T10:58:49.000Z</time>
      </trkpt>
      <trkpt lat="39.499818" lon="-0.463756">
        <ele>40</ele>
        <time>2018-11-04T10:58:50.000Z</time>
      </trkpt>
      <trkpt lat="39.499801" lon="-0.463691">
        <ele>40</ele>
        <time>2018-11-04T10:58:51.000Z</time>
      </trkpt>
      <trkpt lat="39.499778" lon="-0.463632">
        <ele>40</ele>
        <time>2018-11-04T10:58:52.000Z</time>
      </trkpt>
      <trkpt lat="39.499748" lon="-0.463573">
        <ele>40</ele>
        <time>2018-11-04T10:58:53.000Z</time>
      </trkpt>
      <trkpt lat="39.499714" lon="-0.463517">
        <ele>40</ele>
        <time>2018-11-04T10:58:54.000Z</time>
      </trkpt>
      <trkpt lat="39.499684" lon="-0.463458">
        <ele>40</ele>
        <time>2018-11-04T10:58:55.000Z</time>
      </trkpt>
      <trkpt lat="39.499652" lon="-0.463404">
        <ele>40</ele>
        <time>2018-11-04T10:58:56.000Z</time>
      </trkpt>
      <trkpt lat="39.499614" lon="-0.463359">
        <ele>40</ele>
        <time>2018-11-04T10:58:57.000Z</time>
      </trkpt>
      <trkpt lat="39.499575" lon="-0.463314">
        <ele>40</ele>
        <time>2018-11-04T10:58:58.000Z</time>
      </trkpt>
      <trkpt lat="39.499543" lon="-0.463267">
        <ele>40</ele>
        <time>2018-11-04T10:58:59.000Z</time>
      </trkpt>
      <trkpt lat="39.499511" lon="-0.463219">
        <ele>40</ele>
        <time>2018-11-04T10:59:00.000Z</time>
      </trkpt>
      <trkpt lat="39.499478" lon="-0.463165">
        <ele>40</ele>
        <time>2018-11-04T10:59:01.000Z</time>
      </trkpt>
      <trkpt lat="39.499444" lon="-0.46311">
        <ele>39.1100032</ele>
        <time>2018-11-04T10:59:02.000Z</time>
      </trkpt>
      <trkpt lat="39.499409" lon="-0.463055">
        <ele>39</ele>
        <time>2018-11-04T10:59:03.000Z</time>
      </trkpt>
      <trkpt lat="39.499378" lon="-0.463003">
        <ele>39</ele>
        <time>2018-11-04T10:59:04.000Z</time>
      </trkpt>
      <trkpt lat="39.499366" lon="-0.462943">
        <ele>39</ele>
        <time>2018-11-04T10:59:05.000Z</time>
      </trkpt>
      <trkpt lat="39.499366" lon="-0.46289">
        <ele>39</ele>
        <time>2018-11-04T10:59:06.000Z</time>
      </trkpt>
      <trkpt lat="39.499379" lon="-0.462849">
        <ele>39</ele>
        <time>2018-11-04T10:59:07.000Z</time>
      </trkpt>
      <trkpt lat="39.499395" lon="-0.462818">
        <ele>39.8899968</ele>
        <time>2018-11-04T10:59:08.000Z</time>
      </trkpt>
      <trkpt lat="39.499411" lon="-0.462792">
        <ele>40</ele>
        <time>2018-11-04T10:59:09.000Z</time>
      </trkpt>
      <trkpt lat="39.499425" lon="-0.462769">
        <ele>40</ele>
        <time>2018-11-04T10:59:10.000Z</time>
      </trkpt>
      <trkpt lat="39.499441" lon="-0.46274">
        <ele>40</ele>
        <time>2018-11-04T10:59:11.000Z</time>
      </trkpt>
      <trkpt lat="39.49946" lon="-0.462712">
        <ele>40</ele>
        <time>2018-11-04T10:59:12.000Z</time>
      </trkpt>
      <trkpt lat="39.499486" lon="-0.46268">
        <ele>40</ele>
        <time>2018-11-04T10:59:13.000Z</time>
      </trkpt>
      <trkpt lat="39.499513" lon="-0.462638">
        <ele>40.5979335189559</ele>
        <time>2018-11-04T10:59:14.000Z</time>
      </trkpt>
      <trkpt lat="39.499547" lon="-0.462588">
        <ele>41</ele>
        <time>2018-11-04T10:59:15.000Z</time>
      </trkpt>
      <trkpt lat="39.499586" lon="-0.462532">
        <ele>41</ele>
        <time>2018-11-04T10:59:16.000Z</time>
      </trkpt>
      <trkpt lat="39.499627" lon="-0.462472">
        <ele>41</ele>
        <time>2018-11-04T10:59:17.000Z</time>
      </trkpt>
      <trkpt lat="39.49967" lon="-0.462415">
        <ele>41</ele>
        <time>2018-11-04T10:59:18.000Z</time>
      </trkpt>
      <trkpt lat="39.499718" lon="-0.462361">
        <ele>41</ele>
        <time>2018-11-04T10:59:19.000Z</time>
      </trkpt>
      <trkpt lat="39.499756" lon="-0.462303">
        <ele>41</ele>
        <time>2018-11-04T10:59:20.000Z</time>
      </trkpt>
      <trkpt lat="39.499771" lon="-0.462231">
        <ele>41</ele>
        <time>2018-11-04T10:59:21.000Z</time>
      </trkpt>
      <trkpt lat="39.49977" lon="-0.462162">
        <ele>41</ele>
        <time>2018-11-04T10:59:22.000Z</time>
      </trkpt>
      <trkpt lat="39.49976" lon="-0.462093">
        <ele>41</ele>
        <time>2018-11-04T10:59:23.000Z</time>
      </trkpt>
      <trkpt lat="39.499743" lon="-0.462026">
        <ele>40.1100032</ele>
        <time>2018-11-04T10:59:24.000Z</time>
      </trkpt>
      <trkpt lat="39.499725" lon="-0.461959">
        <ele>40</ele>
        <time>2018-11-04T10:59:25.000Z</time>
      </trkpt>
      <trkpt lat="39.499708" lon="-0.461892">
        <ele>40</ele>
        <time>2018-11-04T10:59:26.000Z</time>
      </trkpt>
      <trkpt lat="39.499692" lon="-0.461825">
        <ele>40</ele>
        <time>2018-11-04T10:59:27.000Z</time>
      </trkpt>
      <trkpt lat="39.499674" lon="-0.461758">
        <ele>39.1100032</ele>
        <time>2018-11-04T10:59:28.000Z</time>
      </trkpt>
      <trkpt lat="39.499655" lon="-0.461693">
        <ele>39</ele>
        <time>2018-11-04T10:59:29.000Z</time>
      </trkpt>
      <trkpt lat="39.499637" lon="-0.461629">
        <ele>39</ele>
        <time>2018-11-04T10:59:30.000Z</time>
      </trkpt>
      <trkpt lat="39.499623" lon="-0.461564">
        <ele>39</ele>
        <time>2018-11-04T10:59:31.000Z</time>
      </trkpt>
      <trkpt lat="39.499612" lon="-0.461497">
        <ele>39</ele>
        <time>2018-11-04T10:59:32.000Z</time>
      </trkpt>
      <trkpt lat="39.499607" lon="-0.461429">
        <ele>39</ele>
        <time>2018-11-04T10:59:33.000Z</time>
      </trkpt>
      <trkpt lat="39.499605" lon="-0.461366">
        <ele>39</ele>
        <time>2018-11-04T10:59:34.000Z</time>
      </trkpt>
      <trkpt lat="39.499604" lon="-0.461312">
        <ele>39</ele>
        <time>2018-11-04T10:59:35.000Z</time>
      </trkpt>
      <trkpt lat="39.499606" lon="-0.461268">
        <ele>39</ele>
        <time>2018-11-04T10:59:36.000Z</time>
      </trkpt>
      <trkpt lat="39.49961" lon="-0.46123">
        <ele>39</ele>
        <time>2018-11-04T10:59:37.000Z</time>
      </trkpt>
      <trkpt lat="39.499605" lon="-0.461198">
        <ele>39</ele>
        <time>2018-11-04T10:59:38.000Z</time>
      </trkpt>
      <trkpt lat="39.499594" lon="-0.461168">
        <ele>39</ele>
        <time>2018-11-04T10:59:39.000Z</time>
      </trkpt>
      <trkpt lat="39.499578" lon="-0.461135">
        <ele>39.8899968</ele>
        <time>2018-11-04T10:59:40.000Z</time>
      </trkpt>
      <trkpt lat="39.499563" lon="-0.461099">
        <ele>40</ele>
        <time>2018-11-04T10:59:41.000Z</time>
      </trkpt>
      <trkpt lat="39.499548" lon="-0.461057">
        <ele>40</ele>
        <time>2018-11-04T10:59:42.000Z</time>
      </trkpt>
      <trkpt lat="39.499531" lon="-0.461011">
        <ele>39.1100032</ele>
        <time>2018-11-04T10:59:43.000Z</time>
      </trkpt>
      <trkpt lat="39.499511" lon="-0.460965">
        <ele>39</ele>
        <time>2018-11-04T10:59:44.000Z</time>
      </trkpt>
      <trkpt lat="39.499489" lon="-0.460918">
        <ele>39</ele>
        <time>2018-11-04T10:59:45.000Z</time>
      </trkpt>
      <trkpt lat="39.499464" lon="-0.460865">
        <ele>39</ele>
        <time>2018-11-04T10:59:46.000Z</time>
      </trkpt>
      <trkpt lat="39.49944" lon="-0.460806">
        <ele>39</ele>
        <time>2018-11-04T10:59:47.000Z</time>
      </trkpt>
      <trkpt lat="39.499409" lon="-0.460745">
        <ele>39</ele>
        <time>2018-11-04T10:59:48.000Z</time>
      </trkpt>
      <trkpt lat="39.499377" lon="-0.460682">
        <ele>39</ele>
        <time>2018-11-04T10:59:49.000Z</time>
      </trkpt>
      <trkpt lat="39.499348" lon="-0.460618">
        <ele>39.8899968</ele>
        <time>2018-11-04T10:59:50.000Z</time>
      </trkpt>
      <trkpt lat="39.499323" lon="-0.460549">
        <ele>40</ele>
        <time>2018-11-04T10:59:51.000Z</time>
      </trkpt>
      <trkpt lat="39.499305" lon="-0.460478">
        <ele>40</ele>
        <time>2018-11-04T10:59:52.000Z</time>
      </trkpt>
      <trkpt lat="39.499293" lon="-0.460406">
        <ele>40</ele>
        <time>2018-11-04T10:59:53.000Z</time>
      </trkpt>
      <trkpt lat="39.499285" lon="-0.460336">
        <ele>40</ele>
        <time>2018-11-04T10:59:54.000Z</time>
      </trkpt>
      <trkpt lat="39.49928" lon="-0.460267">
        <ele>40</ele>
        <time>2018-11-04T10:59:55.000Z</time>
      </trkpt>
      <trkpt lat="39.499275" lon="-0.460199">
        <ele>40</ele>
        <time>2018-11-04T10:59:56.000Z</time>
      </trkpt>
      <trkpt lat="39.499267" lon="-0.460132">
        <ele>39.1100032</ele>
        <time>2018-11-04T10:59:57.000Z</time>
      </trkpt>
      <trkpt lat="39.499257" lon="-0.460068">
        <ele>39</ele>
        <time>2018-11-04T10:59:58.000Z</time>
      </trkpt>
      <trkpt lat="39.499249" lon="-0.460006">
        <ele>39</ele>
        <time>2018-11-04T10:59:59.000Z</time>
      </trkpt>
      <trkpt lat="39.499248" lon="-0.459943">
        <ele>39</ele>
        <time>2018-11-04T11:00:00.000Z</time>
      </trkpt>
      <trkpt lat="39.49925" lon="-0.459881">
        <ele>38.1294140677941</ele>
        <time>2018-11-04T11:00:01.000Z</time>
      </trkpt>
      <trkpt lat="39.499249" lon="-0.459818">
        <ele>38</ele>
        <time>2018-11-04T11:00:02.000Z</time>
      </trkpt>
      <trkpt lat="39.499246" lon="-0.459756">
        <ele>38</ele>
        <time>2018-11-04T11:00:03.000Z</time>
      </trkpt>
      <trkpt lat="39.499245" lon="-0.459694">
        <ele>37.1549333862157</ele>
        <time>2018-11-04T11:00:04.000Z</time>
      </trkpt>
      <trkpt lat="39.499244" lon="-0.459632">
        <ele>37</ele>
        <time>2018-11-04T11:00:05.000Z</time>
      </trkpt>
      <trkpt lat="39.499242" lon="-0.45957">
        <ele>37</ele>
        <time>2018-11-04T11:00:06.000Z</time>
      </trkpt>
      <trkpt lat="39.49924" lon="-0.459505">
        <ele>37</ele>
        <time>2018-11-04T11:00:07.000Z</time>
      </trkpt>
      <trkpt lat="39.499238" lon="-0.45944">
        <ele>36.1100032</ele>
        <time>2018-11-04T11:00:08.000Z</time>
      </trkpt>
      <trkpt lat="39.499234" lon="-0.459375">
        <ele>36</ele>
        <time>2018-11-04T11:00:09.000Z</time>
      </trkpt>
      <trkpt lat="39.499228" lon="-0.459308">
        <ele>35.1100032</ele>
        <time>2018-11-04T11:00:10.000Z</time>
      </trkpt>
      <trkpt lat="39.499221" lon="-0.459241">
        <ele>35</ele>
        <time>2018-11-04T11:00:11.000Z</time>
      </trkpt>
      <trkpt lat="39.499216" lon="-0.459173">
        <ele>35</ele>
        <time>2018-11-04T11:00:12.000Z</time>
      </trkpt>
      <trkpt lat="39.499209" lon="-0.459105">
        <ele>34.3100782885663</ele>
        <time>2018-11-04T11:00:13.000Z</time>
      </trkpt>
      <trkpt lat="39.499204" lon="-0.459036">
        <ele>34</ele>
        <time>2018-11-04T11:00:14.000Z</time>
      </trkpt>
      <trkpt lat="39.499199" lon="-0.458968">
        <ele>34</ele>
        <time>2018-11-04T11:00:15.000Z</time>
      </trkpt>
      <trkpt lat="39.499195" lon="-0.458899">
        <ele>34</ele>
        <time>2018-11-04T11:00:16.000Z</time>
      </trkpt>
      <trkpt lat="39.499189" lon="-0.45883">
        <ele>33.1100032</ele>
        <time>2018-11-04T11:00:17.000Z</time>
      </trkpt>
      <trkpt lat="39.499183" lon="-0.458761">
        <ele>33</ele>
        <time>2018-11-04T11:00:18.000Z</time>
      </trkpt>
      <trkpt lat="39.499177" lon="-0.458693">
        <ele>33</ele>
        <time>2018-11-04T11:00:19.000Z</time>
      </trkpt>
      <trkpt lat="39.499172" lon="-0.458623">
        <ele>33</ele>
        <time>2018-11-04T11:00:20.000Z</time>
      </trkpt>
      <trkpt lat="39.499166" lon="-0.458554">
        <ele>33</ele>
        <time>2018-11-04T11:00:21.000Z</time>
      </trkpt>
      <trkpt lat="39.499158" lon="-0.458485">
        <ele>32.3153837065044</ele>
        <time>2018-11-04T11:00:22.000Z</time>
      </trkpt>
      <trkpt lat="39.499152" lon="-0.458416">
        <ele>32</ele>
        <time>2018-11-04T11:00:23.000Z</time>
      </trkpt>
      <trkpt lat="39.499144" lon="-0.458346">
        <ele>32</ele>
        <time>2018-11-04T11:00:24.000Z</time>
      </trkpt>
      <trkpt lat="39.499136" lon="-0.458275">
        <ele>31.111113984278</ele>
        <time>2018-11-04T11:00:25.000Z</time>
      </trkpt>
      <trkpt lat="39.499127" lon="-0.458203">
        <ele>31</ele>
        <time>2018-11-04T11:00:26.000Z</time>
      </trkpt>
      <trkpt lat="39.499121" lon="-0.458134">
        <ele>31</ele>
        <time>2018-11-04T11:00:27.000Z</time>
      </trkpt>
      <trkpt lat="39.499116" lon="-0.458065">
        <ele>31</ele>
        <time>2018-11-04T11:00:28.000Z</time>
      </trkpt>
      <trkpt lat="39.499108" lon="-0.457999">
        <ele>31</ele>
        <time>2018-11-04T11:00:29.000Z</time>
      </trkpt>
      <trkpt lat="39.499099" lon="-0.457933">
        <ele>30.299216883863</ele>
        <time>2018-11-04T11:00:30.000Z</time>
      </trkpt>
      <trkpt lat="39.499085" lon="-0.457869">
        <ele>30</ele>
        <time>2018-11-04T11:00:31.000Z</time>
      </trkpt>
      <trkpt lat="39.499067" lon="-0.457807">
        <ele>30</ele>
        <time>2018-11-04T11:00:32.000Z</time>
      </trkpt>
      <trkpt lat="39.499047" lon="-0.457746">
        <ele>30</ele>
        <time>2018-11-04T11:00:33.000Z</time>
      </trkpt>
      <trkpt lat="39.499025" lon="-0.457686">
        <ele>30</ele>
        <time>2018-11-04T11:00:34.000Z</time>
      </trkpt>
      <trkpt lat="39.499003" lon="-0.457626">
        <ele>30.888886015722</ele>
        <time>2018-11-04T11:00:35.000Z</time>
      </trkpt>
      <trkpt lat="39.498983" lon="-0.457562">
        <ele>31</ele>
        <time>2018-11-04T11:00:36.000Z</time>
      </trkpt>
      <trkpt lat="39.498968" lon="-0.457497">
        <ele>31</ele>
        <time>2018-11-04T11:00:37.000Z</time>
      </trkpt>
      <trkpt lat="39.498956" lon="-0.45743">
        <ele>30.1100032</ele>
        <time>2018-11-04T11:00:38.000Z</time>
      </trkpt>
      <trkpt lat="39.498947" lon="-0.457361">
        <ele>30.8899968</ele>
        <time>2018-11-04T11:00:39.000Z</time>
      </trkpt>
      <trkpt lat="39.498938" lon="-0.457292">
        <ele>31</ele>
        <time>2018-11-04T11:00:40.000Z</time>
      </trkpt>
      <trkpt lat="39.498934" lon="-0.457223">
        <ele>30.3100782885663</ele>
        <time>2018-11-04T11:00:41.000Z</time>
      </trkpt>
      <trkpt lat="39.498932" lon="-0.457154">
        <ele>30</ele>
        <time>2018-11-04T11:00:42.000Z</time>
      </trkpt>
      <trkpt lat="39.498929" lon="-0.457086">
        <ele>30</ele>
        <time>2018-11-04T11:00:43.000Z</time>
      </trkpt>
      <trkpt lat="39.498926" lon="-0.457017">
        <ele>30</ele>
        <time>2018-11-04T11:00:44.000Z</time>
      </trkpt>
      <trkpt lat="39.498923" lon="-0.456948">
        <ele>30</ele>
        <time>2018-11-04T11:00:45.000Z</time>
      </trkpt>
      <trkpt lat="39.498922" lon="-0.45688">
        <ele>30</ele>
        <time>2018-11-04T11:00:46.000Z</time>
      </trkpt>
      <trkpt lat="39.498917" lon="-0.456813">
        <ele>30</ele>
        <time>2018-11-04T11:00:47.000Z</time>
      </trkpt>
      <trkpt lat="39.498914" lon="-0.456747">
        <ele>30</ele>
        <time>2018-11-04T11:00:48.000Z</time>
      </trkpt>
      <trkpt lat="39.498912" lon="-0.456685">
        <ele>29.2992098207986</ele>
        <time>2018-11-04T11:00:49.000Z</time>
      </trkpt>
      <trkpt lat="39.498915" lon="-0.456625">
        <ele>29</ele>
        <time>2018-11-04T11:00:50.000Z</time>
      </trkpt>
      <trkpt lat="39.498924" lon="-0.45657">
        <ele>29</ele>
        <time>2018-11-04T11:00:51.000Z</time>
      </trkpt>
      <trkpt lat="39.498944" lon="-0.456519">
        <ele>29</ele>
        <time>2018-11-04T11:00:52.000Z</time>
      </trkpt>
      <trkpt lat="39.498974" lon="-0.456475">
        <ele>29</ele>
        <time>2018-11-04T11:00:53.000Z</time>
      </trkpt>
      <trkpt lat="39.499009" lon="-0.456435">
        <ele>29</ele>
        <time>2018-11-04T11:00:54.000Z</time>
      </trkpt>
      <trkpt lat="39.499045" lon="-0.456393">
        <ele>29.872551357185</ele>
        <time>2018-11-04T11:00:55.000Z</time>
      </trkpt>
      <trkpt lat="39.49908" lon="-0.456347">
        <ele>30</ele>
        <time>2018-11-04T11:00:56.000Z</time>
      </trkpt>
      <trkpt lat="39.499111" lon="-0.456296">
        <ele>30</ele>
        <time>2018-11-04T11:00:57.000Z</time>
      </trkpt>
      <trkpt lat="39.499139" lon="-0.456242">
        <ele>30.8899968</ele>
        <time>2018-11-04T11:00:58.000Z</time>
      </trkpt>
      <trkpt lat="39.499169" lon="-0.45619">
        <ele>31</ele>
        <time>2018-11-04T11:00:59.000Z</time>
      </trkpt>
      <trkpt lat="39.499206" lon="-0.456146">
        <ele>31</ele>
        <time>2018-11-04T11:01:00.000Z</time>
      </trkpt>
      <trkpt lat="39.499249" lon="-0.456116">
        <ele>31</ele>
        <time>2018-11-04T11:01:01.000Z</time>
      </trkpt>
      <trkpt lat="39.499295" lon="-0.456102">
        <ele>31</ele>
        <time>2018-11-04T11:01:02.000Z</time>
      </trkpt>
      <trkpt lat="39.499342" lon="-0.456095">
        <ele>31</ele>
        <time>2018-11-04T11:01:03.000Z</time>
      </trkpt>
      <trkpt lat="39.499389" lon="-0.456092">
        <ele>31</ele>
        <time>2018-11-04T11:01:04.000Z</time>
      </trkpt>
      <trkpt lat="39.499435" lon="-0.45609">
        <ele>31</ele>
        <time>2018-11-04T11:01:05.000Z</time>
      </trkpt>
      <trkpt lat="39.499478" lon="-0.456086">
        <ele>31</ele>
        <time>2018-11-04T11:01:06.000Z</time>
      </trkpt>
      <trkpt lat="39.499519" lon="-0.456084">
        <ele>31</ele>
        <time>2018-11-04T11:01:07.000Z</time>
      </trkpt>
      <trkpt lat="39.499567" lon="-0.456084">
        <ele>31</ele>
        <time>2018-11-04T11:01:08.000Z</time>
      </trkpt>
      <trkpt lat="39.499613" lon="-0.456086">
        <ele>31</ele>
        <time>2018-11-04T11:01:09.000Z</time>
      </trkpt>
      <trkpt lat="39.499656" lon="-0.456095">
        <ele>31</ele>
        <time>2018-11-04T11:01:10.000Z</time>
      </trkpt>
      <trkpt lat="39.499696" lon="-0.456114">
        <ele>31</ele>
        <time>2018-11-04T11:01:11.000Z</time>
      </trkpt>
      <trkpt lat="39.49974" lon="-0.456134">
        <ele>31</ele>
        <time>2018-11-04T11:01:12.000Z</time>
      </trkpt>
      <trkpt lat="39.499786" lon="-0.456157">
        <ele>31</ele>
        <time>2018-11-04T11:01:13.000Z</time>
      </trkpt>
      <trkpt lat="39.499835" lon="-0.456183">
        <ele>31.8493126665732</ele>
        <time>2018-11-04T11:01:14.000Z</time>
      </trkpt>
      <trkpt lat="39.49989" lon="-0.456199">
        <ele>32</ele>
        <time>2018-11-04T11:01:15.000Z</time>
      </trkpt>
      <trkpt lat="39.499945" lon="-0.456189">
        <ele>32</ele>
        <time>2018-11-04T11:01:16.000Z</time>
      </trkpt>
      <trkpt lat="39.499983" lon="-0.456152">
        <ele>32.8899968</ele>
        <time>2018-11-04T11:01:17.000Z</time>
      </trkpt>
      <trkpt lat="39.499998" lon="-0.456101">
        <ele>33</ele>
        <time>2018-11-04T11:01:18.000Z</time>
      </trkpt>
      <trkpt lat="39.500007" lon="-0.456045">
        <ele>33</ele>
        <time>2018-11-04T11:01:19.000Z</time>
      </trkpt>
      <trkpt lat="39.500011" lon="-0.455989">
        <ele>33</ele>
        <time>2018-11-04T11:01:20.000Z</time>
      </trkpt>
      <trkpt lat="39.500012" lon="-0.455936">
        <ele>33</ele>
        <time>2018-11-04T11:01:21.000Z</time>
      </trkpt>
      <trkpt lat="39.500014" lon="-0.455882">
        <ele>33</ele>
        <time>2018-11-04T11:01:22.000Z</time>
      </trkpt>
      <trkpt lat="39.500018" lon="-0.455829">
        <ele>33</ele>
        <time>2018-11-04T11:01:23.000Z</time>
      </trkpt>
      <trkpt lat="39.500025" lon="-0.45578">
        <ele>33.6899217114337</ele>
        <time>2018-11-04T11:01:24.000Z</time>
      </trkpt>
      <trkpt lat="39.500038" lon="-0.455734">
        <ele>34</ele>
        <time>2018-11-04T11:01:25.000Z</time>
      </trkpt>
      <trkpt lat="39.500047" lon="-0.455693">
        <ele>34</ele>
        <time>2018-11-04T11:01:26.000Z</time>
      </trkpt>
      <trkpt lat="39.500044" lon="-0.455651">
        <ele>34.7007901792014</ele>
        <time>2018-11-04T11:01:27.000Z</time>
      </trkpt>
      <trkpt lat="39.500023" lon="-0.455616">
        <ele>35</ele>
        <time>2018-11-04T11:01:28.000Z</time>
      </trkpt>
      <trkpt lat="39.49999" lon="-0.455597">
        <ele>35</ele>
        <time>2018-11-04T11:01:29.000Z</time>
      </trkpt>
      <trkpt lat="39.499953" lon="-0.455582">
        <ele>35</ele>
        <time>2018-11-04T11:01:30.000Z</time>
      </trkpt>
      <trkpt lat="39.499916" lon="-0.455573">
        <ele>35</ele>
        <time>2018-11-04T11:01:31.000Z</time>
      </trkpt>
      <trkpt lat="39.499876" lon="-0.455562">
        <ele>35</ele>
        <time>2018-11-04T11:01:32.000Z</time>
      </trkpt>
      <trkpt lat="39.499834" lon="-0.455554">
        <ele>35</ele>
        <time>2018-11-04T11:01:33.000Z</time>
      </trkpt>
      <trkpt lat="39.499789" lon="-0.455557">
        <ele>35</ele>
        <time>2018-11-04T11:01:34.000Z</time>
      </trkpt>
      <trkpt lat="39.499746" lon="-0.455564">
        <ele>35</ele>
        <time>2018-11-04T11:01:35.000Z</time>
      </trkpt>
      <trkpt lat="39.499704" lon="-0.45557">
        <ele>35</ele>
        <time>2018-11-04T11:01:36.000Z</time>
      </trkpt>
      <trkpt lat="39.499662" lon="-0.455579">
        <ele>35</ele>
        <time>2018-11-04T11:01:37.000Z</time>
      </trkpt>
      <trkpt lat="39.499621" lon="-0.455588">
        <ele>35</ele>
        <time>2018-11-04T11:01:38.000Z</time>
      </trkpt>
      <trkpt lat="39.499579" lon="-0.455594">
        <ele>35</ele>
        <time>2018-11-04T11:01:39.000Z</time>
      </trkpt>
      <trkpt lat="39.499535" lon="-0.455596">
        <ele>35</ele>
        <time>2018-11-04T11:01:40.000Z</time>
      </trkpt>
      <trkpt lat="39.499488" lon="-0.455595">
        <ele>35</ele>
        <time>2018-11-04T11:01:41.000Z</time>
      </trkpt>
      <trkpt lat="39.499436" lon="-0.455591">
        <ele>35.8899968</ele>
        <time>2018-11-04T11:01:42.000Z</time>
      </trkpt>
      <trkpt lat="39.499381" lon="-0.455583">
        <ele>36</ele>
        <time>2018-11-04T11:01:43.000Z</time>
      </trkpt>
      <trkpt lat="39.499324" lon="-0.455571">
        <ele>36</ele>
        <time>2018-11-04T11:01:44.000Z</time>
      </trkpt>
      <trkpt lat="39.499266" lon="-0.455558">
        <ele>36</ele>
        <time>2018-11-04T11:01:45.000Z</time>
      </trkpt>
      <trkpt lat="39.499211" lon="-0.45554">
        <ele>36</ele>
        <time>2018-11-04T11:01:46.000Z</time>
      </trkpt>
      <trkpt lat="39.499154" lon="-0.455517">
        <ele>36</ele>
        <time>2018-11-04T11:01:47.000Z</time>
      </trkpt>
      <trkpt lat="39.499103" lon="-0.455485">
        <ele>36.8899968</ele>
        <time>2018-11-04T11:01:48.000Z</time>
      </trkpt>
      <trkpt lat="39.499059" lon="-0.455452">
        <ele>37</ele>
        <time>2018-11-04T11:01:49.000Z</time>
      </trkpt>
      <trkpt lat="39.499018" lon="-0.455414">
        <ele>37</ele>
        <time>2018-11-04T11:01:50.000Z</time>
      </trkpt>
      <trkpt lat="39.498976" lon="-0.455387">
        <ele>37</ele>
        <time>2018-11-04T11:01:51.000Z</time>
      </trkpt>
      <trkpt lat="39.498934" lon="-0.455363">
        <ele>37</ele>
        <time>2018-11-04T11:01:52.000Z</time>
      </trkpt>
      <trkpt lat="39.498894" lon="-0.455336">
        <ele>37</ele>
        <time>2018-11-04T11:01:53.000Z</time>
      </trkpt>
      <trkpt lat="39.498855" lon="-0.455304">
        <ele>37</ele>
        <time>2018-11-04T11:01:54.000Z</time>
      </trkpt>
      <trkpt lat="39.498815" lon="-0.455268">
        <ele>37.888886015722</ele>
        <time>2018-11-04T11:01:55.000Z</time>
      </trkpt>
      <trkpt lat="39.498774" lon="-0.455232">
        <ele>38</ele>
        <time>2018-11-04T11:01:56.000Z</time>
      </trkpt>
      <trkpt lat="39.498734" lon="-0.455197">
        <ele>38</ele>
        <time>2018-11-04T11:01:57.000Z</time>
      </trkpt>
      <trkpt lat="39.498691" lon="-0.455166">
        <ele>38</ele>
        <time>2018-11-04T11:01:58.000Z</time>
      </trkpt>
      <trkpt lat="39.498649" lon="-0.455138">
        <ele>38</ele>
        <time>2018-11-04T11:01:59.000Z</time>
      </trkpt>
      <trkpt lat="39.498608" lon="-0.455109">
        <ele>38</ele>
        <time>2018-11-04T11:02:00.000Z</time>
      </trkpt>
      <trkpt lat="39.498565" lon="-0.45508">
        <ele>38</ele>
        <time>2018-11-04T11:02:01.000Z</time>
      </trkpt>
      <trkpt lat="39.498523" lon="-0.455055">
        <ele>38</ele>
        <time>2018-11-04T11:02:02.000Z</time>
      </trkpt>
      <trkpt lat="39.498481" lon="-0.455037">
        <ele>38</ele>
        <time>2018-11-04T11:02:03.000Z</time>
      </trkpt>
      <trkpt lat="39.498441" lon="-0.455017">
        <ele>38</ele>
        <time>2018-11-04T11:02:04.000Z</time>
      </trkpt>
      <trkpt lat="39.498397" lon="-0.454999">
        <ele>38</ele>
        <time>2018-11-04T11:02:05.000Z</time>
      </trkpt>
      <trkpt lat="39.49835" lon="-0.454968">
        <ele>38</ele>
        <time>2018-11-04T11:02:06.000Z</time>
      </trkpt>
      <trkpt lat="39.498305" lon="-0.454929">
        <ele>38</ele>
        <time>2018-11-04T11:02:07.000Z</time>
      </trkpt>
      <trkpt lat="39.498258" lon="-0.454896">
        <ele>38.8450666137843</ele>
        <time>2018-11-04T11:02:08.000Z</time>
      </trkpt>
      <trkpt lat="39.49821" lon="-0.454862">
        <ele>39</ele>
        <time>2018-11-04T11:02:09.000Z</time>
      </trkpt>
      <trkpt lat="39.49816" lon="-0.454832">
        <ele>39</ele>
        <time>2018-11-04T11:02:10.000Z</time>
      </trkpt>
      <trkpt lat="39.498114" lon="-0.4548">
        <ele>38.1100032</ele>
        <time>2018-11-04T11:02:11.000Z</time>
      </trkpt>
      <trkpt lat="39.498069" lon="-0.454763">
        <ele>38</ele>
        <time>2018-11-04T11:02:12.000Z</time>
      </trkpt>
      <trkpt lat="39.498027" lon="-0.454725">
        <ele>38</ele>
        <time>2018-11-04T11:02:13.000Z</time>
      </trkpt>
      <trkpt lat="39.497984" lon="-0.454689">
        <ele>37.1100032</ele>
        <time>2018-11-04T11:02:14.000Z</time>
      </trkpt>
      <trkpt lat="39.497944" lon="-0.454651">
        <ele>37</ele>
        <time>2018-11-04T11:02:15.000Z</time>
      </trkpt>
      <trkpt lat="39.497903" lon="-0.454615">
        <ele>37</ele>
        <time>2018-11-04T11:02:16.000Z</time>
      </trkpt>
      <trkpt lat="39.497862" lon="-0.454577">
        <ele>36.1594227094811</ele>
        <time>2018-11-04T11:02:17.000Z</time>
      </trkpt>
      <trkpt lat="39.49782" lon="-0.454542">
        <ele>36</ele>
        <time>2018-11-04T11:02:18.000Z</time>
      </trkpt>
      <trkpt lat="39.497776" lon="-0.454508">
        <ele>36</ele>
        <time>2018-11-04T11:02:19.000Z</time>
      </trkpt>
      <trkpt lat="39.497731" lon="-0.454478">
        <ele>36</ele>
        <time>2018-11-04T11:02:20.000Z</time>
      </trkpt>
      <trkpt lat="39.497687" lon="-0.45445">
        <ele>36</ele>
        <time>2018-11-04T11:02:21.000Z</time>
      </trkpt>
      <trkpt lat="39.497642" lon="-0.454423">
        <ele>36</ele>
        <time>2018-11-04T11:02:22.000Z</time>
      </trkpt>
      <trkpt lat="39.497598" lon="-0.454395">
        <ele>36</ele>
        <time>2018-11-04T11:02:23.000Z</time>
      </trkpt>
      <trkpt lat="39.497553" lon="-0.454366">
        <ele>35.299216883863</ele>
        <time>2018-11-04T11:02:24.000Z</time>
      </trkpt>
      <trkpt lat="39.497508" lon="-0.454335">
        <ele>35</ele>
        <time>2018-11-04T11:02:25.000Z</time>
      </trkpt>
      <trkpt lat="39.497463" lon="-0.454304">
        <ele>35</ele>
        <time>2018-11-04T11:02:26.000Z</time>
      </trkpt>
      <trkpt lat="39.497415" lon="-0.45427">
        <ele>35.8450666137843</ele>
        <time>2018-11-04T11:02:27.000Z</time>
      </trkpt>
      <trkpt lat="39.497367" lon="-0.454237">
        <ele>36</ele>
        <time>2018-11-04T11:02:28.000Z</time>
      </trkpt>
      <trkpt lat="39.497318" lon="-0.454202">
        <ele>35.1100032</ele>
        <time>2018-11-04T11:02:29.000Z</time>
      </trkpt>
      <trkpt lat="39.497271" lon="-0.454167">
        <ele>35</ele>
        <time>2018-11-04T11:02:30.000Z</time>
      </trkpt>
      <trkpt lat="39.497225" lon="-0.454135">
        <ele>35</ele>
        <time>2018-11-04T11:02:31.000Z</time>
      </trkpt>
      <trkpt lat="39.497182" lon="-0.4541">
        <ele>35</ele>
        <time>2018-11-04T11:02:32.000Z</time>
      </trkpt>
      <trkpt lat="39.497139" lon="-0.454068">
        <ele>35</ele>
        <time>2018-11-04T11:02:33.000Z</time>
      </trkpt>
      <trkpt lat="39.497098" lon="-0.454035">
        <ele>35</ele>
        <time>2018-11-04T11:02:34.000Z</time>
      </trkpt>
      <trkpt lat="39.497056" lon="-0.454001">
        <ele>35</ele>
        <time>2018-11-04T11:02:35.000Z</time>
      </trkpt>
      <trkpt lat="39.497014" lon="-0.453967">
        <ele>35</ele>
        <time>2018-11-04T11:02:36.000Z</time>
      </trkpt>
      <trkpt lat="39.496971" lon="-0.453934">
        <ele>35</ele>
        <time>2018-11-04T11:02:37.000Z</time>
      </trkpt>
      <trkpt lat="39.496928" lon="-0.453898">
        <ele>35</ele>
        <time>2018-11-04T11:02:38.000Z</time>
      </trkpt>
      <trkpt lat="39.496884" lon="-0.453862">
        <ele>35</ele>
        <time>2018-11-04T11:02:39.000Z</time>
      </trkpt>
      <trkpt lat="39.496844" lon="-0.453827">
        <ele>35</ele>
        <time>2018-11-04T11:02:40.000Z</time>
      </trkpt>
      <trkpt lat="39.496803" lon="-0.453797">
        <ele>35</ele>
        <time>2018-11-04T11:02:41.000Z</time>
      </trkpt>
      <trkpt lat="39.496762" lon="-0.453766">
        <ele>34.1100032</ele>
        <time>2018-11-04T11:02:42.000Z</time>
      </trkpt>
      <trkpt lat="39.496721" lon="-0.453736">
        <ele>34</ele>
        <time>2018-11-04T11:02:43.000Z</time>
      </trkpt>
      <trkpt lat="39.49668" lon="-0.453709">
        <ele>34</ele>
        <time>2018-11-04T11:02:44.000Z</time>
      </trkpt>
      <trkpt lat="39.496637" lon="-0.453684">
        <ele>34</ele>
        <time>2018-11-04T11:02:45.000Z</time>
      </trkpt>
      <trkpt lat="39.496594" lon="-0.453662">
        <ele>34</ele>
        <time>2018-11-04T11:02:46.000Z</time>
      </trkpt>
      <trkpt lat="39.496546" lon="-0.453665">
        <ele>33.1571459918081</ele>
        <time>2018-11-04T11:02:47.000Z</time>
      </trkpt>
      <trkpt lat="39.4965" lon="-0.453684">
        <ele>33</ele>
        <time>2018-11-04T11:02:48.000Z</time>
      </trkpt>
      <trkpt lat="39.496454" lon="-0.453711">
        <ele>33</ele>
        <time>2018-11-04T11:02:49.000Z</time>
      </trkpt>
      <trkpt lat="39.496408" lon="-0.453739">
        <ele>32.1100032</ele>
        <time>2018-11-04T11:02:50.000Z</time>
      </trkpt>
      <trkpt lat="39.496359" lon="-0.45376">
        <ele>32</ele>
        <time>2018-11-04T11:02:51.000Z</time>
      </trkpt>
      <trkpt lat="39.496307" lon="-0.453761">
        <ele>32</ele>
        <time>2018-11-04T11:02:52.000Z</time>
      </trkpt>
      <trkpt lat="39.496252" lon="-0.453746">
        <ele>32</ele>
        <time>2018-11-04T11:02:53.000Z</time>
      </trkpt>
      <trkpt lat="39.496197" lon="-0.453725">
        <ele>32</ele>
        <time>2018-11-04T11:02:54.000Z</time>
      </trkpt>
      <trkpt lat="39.496141" lon="-0.453699">
        <ele>32</ele>
        <time>2018-11-04T11:02:55.000Z</time>
      </trkpt>
      <trkpt lat="39.496079" lon="-0.453681">
        <ele>32</ele>
        <time>2018-11-04T11:02:56.000Z</time>
      </trkpt>
      <trkpt lat="39.496015" lon="-0.453677">
        <ele>32</ele>
        <time>2018-11-04T11:02:57.000Z</time>
      </trkpt>
      <trkpt lat="39.495945" lon="-0.453678">
        <ele>31.1100032</ele>
        <time>2018-11-04T11:02:58.000Z</time>
      </trkpt>
      <trkpt lat="39.495877" lon="-0.453676">
        <ele>31</ele>
        <time>2018-11-04T11:02:59.000Z</time>
      </trkpt>
      <trkpt lat="39.495813" lon="-0.453662">
        <ele>31</ele>
        <time>2018-11-04T11:03:00.000Z</time>
      </trkpt>
      <trkpt lat="39.495754" lon="-0.45364">
        <ele>30.1100032</ele>
        <time>2018-11-04T11:03:01.000Z</time>
      </trkpt>
      <trkpt lat="39.495701" lon="-0.453607">
        <ele>30</ele>
        <time>2018-11-04T11:03:02.000Z</time>
      </trkpt>
      <trkpt lat="39.49565" lon="-0.453574">
        <ele>29.4038523076923</ele>
        <time>2018-11-04T11:03:03.000Z</time>
      </trkpt>
      <trkpt lat="39.495598" lon="-0.453548">
        <ele>29</ele>
        <time>2018-11-04T11:03:04.000Z</time>
      </trkpt>
      <trkpt lat="39.495547" lon="-0.453526">
        <ele>28.127448642815</ele>
        <time>2018-11-04T11:03:05.000Z</time>
      </trkpt>
      <trkpt lat="39.495497" lon="-0.453505">
        <ele>28</ele>
        <time>2018-11-04T11:03:06.000Z</time>
      </trkpt>
      <trkpt lat="39.495449" lon="-0.453482">
        <ele>28</ele>
        <time>2018-11-04T11:03:07.000Z</time>
      </trkpt>
      <trkpt lat="39.495404" lon="-0.453462">
        <ele>28</ele>
        <time>2018-11-04T11:03:08.000Z</time>
      </trkpt>
      <trkpt lat="39.495362" lon="-0.45344">
        <ele>28</ele>
        <time>2018-11-04T11:03:09.000Z</time>
      </trkpt>
      <trkpt lat="39.495321" lon="-0.453416">
        <ele>28</ele>
        <time>2018-11-04T11:03:10.000Z</time>
      </trkpt>
      <trkpt lat="39.495281" lon="-0.453398">
        <ele>28</ele>
        <time>2018-11-04T11:03:11.000Z</time>
      </trkpt>
      <trkpt lat="39.495244" lon="-0.453383">
        <ele>28</ele>
        <time>2018-11-04T11:03:12.000Z</time>
      </trkpt>
      <trkpt lat="39.495206" lon="-0.453369">
        <ele>28</ele>
        <time>2018-11-04T11:03:13.000Z</time>
      </trkpt>
      <trkpt lat="39.495169" lon="-0.453351">
        <ele>27.127448642815</ele>
        <time>2018-11-04T11:03:14.000Z</time>
      </trkpt>
      <trkpt lat="39.495132" lon="-0.453334">
        <ele>27</ele>
        <time>2018-11-04T11:03:15.000Z</time>
      </trkpt>
      <trkpt lat="39.495092" lon="-0.453312">
        <ele>27</ele>
        <time>2018-11-04T11:03:16.000Z</time>
      </trkpt>
      <trkpt lat="39.495048" lon="-0.453296">
        <ele>27</ele>
        <time>2018-11-04T11:03:17.000Z</time>
      </trkpt>
      <trkpt lat="39.495006" lon="-0.453283">
        <ele>27</ele>
        <time>2018-11-04T11:03:18.000Z</time>
      </trkpt>
      <trkpt lat="39.49496" lon="-0.453264">
        <ele>27</ele>
        <time>2018-11-04T11:03:19.000Z</time>
      </trkpt>
      <trkpt lat="39.494915" lon="-0.453245">
        <ele>26.1100032</ele>
        <time>2018-11-04T11:03:20.000Z</time>
      </trkpt>
      <trkpt lat="39.494874" lon="-0.453216">
        <ele>26</ele>
        <time>2018-11-04T11:03:21.000Z</time>
      </trkpt>
      <trkpt lat="39.494847" lon="-0.453174">
        <ele>26</ele>
        <time>2018-11-04T11:03:22.000Z</time>
      </trkpt>
      <trkpt lat="39.494841" lon="-0.453122">
        <ele>26</ele>
        <time>2018-11-04T11:03:23.000Z</time>
      </trkpt>
      <trkpt lat="39.494852" lon="-0.453075">
        <ele>26</ele>
        <time>2018-11-04T11:03:24.000Z</time>
      </trkpt>
      <trkpt lat="39.494878" lon="-0.453036">
        <ele>26</ele>
        <time>2018-11-04T11:03:25.000Z</time>
      </trkpt>
      <trkpt lat="39.494905" lon="-0.453001">
        <ele>26.6846162934956</ele>
        <time>2018-11-04T11:03:26.000Z</time>
      </trkpt>
      <trkpt lat="39.494937" lon="-0.45297">
        <ele>27</ele>
        <time>2018-11-04T11:03:27.000Z</time>
      </trkpt>
      <trkpt lat="39.494971" lon="-0.452942">
        <ele>27</ele>
        <time>2018-11-04T11:03:28.000Z</time>
      </trkpt>
      <trkpt lat="39.495002" lon="-0.452916">
        <ele>27.8899968</ele>
        <time>2018-11-04T11:03:29.000Z</time>
      </trkpt>
      <trkpt lat="39.495033" lon="-0.452883">
        <ele>28</ele>
        <time>2018-11-04T11:03:30.000Z</time>
      </trkpt>
      <trkpt lat="39.495057" lon="-0.452848">
        <ele>28.8899968</ele>
        <time>2018-11-04T11:03:31.000Z</time>
      </trkpt>
      <trkpt lat="39.495071" lon="-0.452808">
        <ele>29</ele>
        <time>2018-11-04T11:03:32.000Z</time>
      </trkpt>
      <trkpt lat="39.495076" lon="-0.452767">
        <ele>29</ele>
        <time>2018-11-04T11:03:33.000Z</time>
      </trkpt>
      <trkpt lat="39.495072" lon="-0.45273">
        <ele>29.8899968</ele>
        <time>2018-11-04T11:03:34.000Z</time>
      </trkpt>
      <trkpt lat="39.49506" lon="-0.4527">
        <ele>30</ele>
        <time>2018-11-04T11:03:35.000Z</time>
      </trkpt>
      <trkpt lat="39.495045" lon="-0.452675">
        <ele>30</ele>
        <time>2018-11-04T11:03:36.000Z</time>
      </trkpt>
      <trkpt lat="39.495026" lon="-0.452651">
        <ele>30</ele>
        <time>2018-11-04T11:03:37.000Z</time>
      </trkpt>
      <trkpt lat="39.495001" lon="-0.452632">
        <ele>30</ele>
        <time>2018-11-04T11:03:38.000Z</time>
      </trkpt>
      <trkpt lat="39.494975" lon="-0.452613">
        <ele>30</ele>
        <time>2018-11-04T11:03:39.000Z</time>
      </trkpt>
      <trkpt lat="39.49495" lon="-0.452596">
        <ele>30.69531</ele>
        <time>2018-11-04T11:03:40.000Z</time>
      </trkpt>
      <trkpt lat="39.494929" lon="-0.452582">
        <ele>31</ele>
        <time>2018-11-04T11:03:41.000Z</time>
      </trkpt>
      <trkpt lat="39.494907" lon="-0.452568">
        <ele>31</ele>
        <time>2018-11-04T11:03:42.000Z</time>
      </trkpt>
      <trkpt lat="39.494881" lon="-0.452553">
        <ele>31</ele>
        <time>2018-11-04T11:03:43.000Z</time>
      </trkpt>
      <trkpt lat="39.494846" lon="-0.452539">
        <ele>30.3877591003487</ele>
        <time>2018-11-04T11:03:44.000Z</time>
      </trkpt>
      <trkpt lat="39.494811" lon="-0.452525">
        <ele>30</ele>
        <time>2018-11-04T11:03:45.000Z</time>
      </trkpt>
      <trkpt lat="39.494779" lon="-0.452504">
        <ele>30</ele>
        <time>2018-11-04T11:03:46.000Z</time>
      </trkpt>
      <trkpt lat="39.494741" lon="-0.452478">
        <ele>30</ele>
        <time>2018-11-04T11:03:47.000Z</time>
      </trkpt>
      <trkpt lat="39.494702" lon="-0.452454">
        <ele>30</ele>
        <time>2018-11-04T11:03:48.000Z</time>
      </trkpt>
      <trkpt lat="39.494661" lon="-0.452438">
        <ele>30</ele>
        <time>2018-11-04T11:03:49.000Z</time>
      </trkpt>
      <trkpt lat="39.494623" lon="-0.452422">
        <ele>30</ele>
        <time>2018-11-04T11:03:50.000Z</time>
      </trkpt>
      <trkpt lat="39.494587" lon="-0.452403">
        <ele>30</ele>
        <time>2018-11-04T11:03:51.000Z</time>
      </trkpt>
      <trkpt lat="39.494546" lon="-0.45238">
        <ele>30</ele>
        <time>2018-11-04T11:03:52.000Z</time>
      </trkpt>
      <trkpt lat="39.494507" lon="-0.452357">
        <ele>30</ele>
        <time>2018-11-04T11:03:53.000Z</time>
      </trkpt>
      <trkpt lat="39.494466" lon="-0.452327">
        <ele>29.3206081510216</ele>
        <time>2018-11-04T11:03:54.000Z</time>
      </trkpt>
      <trkpt lat="39.494425" lon="-0.452289">
        <ele>29</ele>
        <time>2018-11-04T11:03:55.000Z</time>
      </trkpt>
      <trkpt lat="39.494386" lon="-0.452252">
        <ele>29</ele>
        <time>2018-11-04T11:03:56.000Z</time>
      </trkpt>
      <trkpt lat="39.494349" lon="-0.452215">
        <ele>29</ele>
        <time>2018-11-04T11:03:57.000Z</time>
      </trkpt>
      <trkpt lat="39.494314" lon="-0.452179">
        <ele>29</ele>
        <time>2018-11-04T11:03:58.000Z</time>
      </trkpt>
      <trkpt lat="39.494281" lon="-0.452142">
        <ele>29</ele>
        <time>2018-11-04T11:03:59.000Z</time>
      </trkpt>
      <trkpt lat="39.494243" lon="-0.452113">
        <ele>29.8493126665732</ele>
        <time>2018-11-04T11:04:00.000Z</time>
      </trkpt>
      <trkpt lat="39.494208" lon="-0.452083">
        <ele>29.1100032</ele>
        <time>2018-11-04T11:04:01.000Z</time>
      </trkpt>
      <trkpt lat="39.494174" lon="-0.452049">
        <ele>29</ele>
        <time>2018-11-04T11:04:02.000Z</time>
      </trkpt>
      <trkpt lat="39.494136" lon="-0.452015">
        <ele>29</ele>
        <time>2018-11-04T11:04:03.000Z</time>
      </trkpt>
      <trkpt lat="39.494099" lon="-0.451971">
        <ele>29</ele>
        <time>2018-11-04T11:04:04.000Z</time>
      </trkpt>
      <trkpt lat="39.494062" lon="-0.451941">
        <ele>29</ele>
        <time>2018-11-04T11:04:05.000Z</time>
      </trkpt>
      <trkpt lat="39.494014" lon="-0.451918">
        <ele>29</ele>
        <time>2018-11-04T11:04:06.000Z</time>
      </trkpt>
      <trkpt lat="39.493969" lon="-0.451893">
        <ele>29</ele>
        <time>2018-11-04T11:04:07.000Z</time>
      </trkpt>
      <trkpt lat="39.493928" lon="-0.451856">
        <ele>29</ele>
        <time>2018-11-04T11:04:08.000Z</time>
      </trkpt>
      <trkpt lat="39.493883" lon="-0.45182">
        <ele>29</ele>
        <time>2018-11-04T11:04:09.000Z</time>
      </trkpt>
      <trkpt lat="39.493831" lon="-0.451772">
        <ele>29</ele>
        <time>2018-11-04T11:04:10.000Z</time>
      </trkpt>
      <trkpt lat="39.493785" lon="-0.451724">
        <ele>29.8899968</ele>
        <time>2018-11-04T11:04:11.000Z</time>
      </trkpt>
      <trkpt lat="39.493741" lon="-0.451672">
        <ele>29.1100032</ele>
        <time>2018-11-04T11:04:12.000Z</time>
      </trkpt>
      <trkpt lat="39.493704" lon="-0.451628">
        <ele>29.8899968</ele>
        <time>2018-11-04T11:04:13.000Z</time>
      </trkpt>
      <trkpt lat="39.493671" lon="-0.451582">
        <ele>30</ele>
        <time>2018-11-04T11:04:14.000Z</time>
      </trkpt>
      <trkpt lat="39.493645" lon="-0.451534">
        <ele>30</ele>
        <time>2018-11-04T11:04:15.000Z</time>
      </trkpt>
      <trkpt lat="39.493617" lon="-0.451489">
        <ele>29.1486516873368</ele>
        <time>2018-11-04T11:04:16.000Z</time>
      </trkpt>
      <trkpt lat="39.49359" lon="-0.451452">
        <ele>29</ele>
        <time>2018-11-04T11:04:17.000Z</time>
      </trkpt>
      <trkpt lat="39.493565" lon="-0.451413">
        <ele>29</ele>
        <time>2018-11-04T11:04:18.000Z</time>
      </trkpt>
      <trkpt lat="39.493535" lon="-0.451372">
        <ele>28.1506899756273</ele>
        <time>2018-11-04T11:04:19.000Z</time>
      </trkpt>
      <trkpt lat="39.493499" lon="-0.451343">
        <ele>28</ele>
        <time>2018-11-04T11:04:20.000Z</time>
      </trkpt>
      <trkpt lat="39.493461" lon="-0.451324">
        <ele>28</ele>
        <time>2018-11-04T11:04:21.000Z</time>
      </trkpt>
      <trkpt lat="39.493422" lon="-0.451312">
        <ele>28</ele>
        <time>2018-11-04T11:04:22.000Z</time>
      </trkpt>
      <trkpt lat="39.493391" lon="-0.451301">
        <ele>28</ele>
        <time>2018-11-04T11:04:23.000Z</time>
      </trkpt>
      <trkpt lat="39.493367" lon="-0.451293">
        <ele>28</ele>
        <time>2018-11-04T11:04:24.000Z</time>
      </trkpt>
      <trkpt lat="39.493341" lon="-0.451279">
        <ele>28</ele>
        <time>2018-11-04T11:04:25.000Z</time>
      </trkpt>
      <trkpt lat="39.493313" lon="-0.451265">
        <ele>27.1100032</ele>
        <time>2018-11-04T11:04:26.000Z</time>
      </trkpt>
      <trkpt lat="39.493284" lon="-0.451246">
        <ele>27</ele>
        <time>2018-11-04T11:04:27.000Z</time>
      </trkpt>
      <trkpt lat="39.493255" lon="-0.451224">
        <ele>27</ele>
        <time>2018-11-04T11:04:28.000Z</time>
      </trkpt>
      <trkpt lat="39.493227" lon="-0.451193">
        <ele>27</ele>
        <time>2018-11-04T11:04:29.000Z</time>
      </trkpt>
      <trkpt lat="39.493196" lon="-0.451156">
        <ele>27</ele>
        <time>2018-11-04T11:04:30.000Z</time>
      </trkpt>
      <trkpt lat="39.49316" lon="-0.451117">
        <ele>27</ele>
        <time>2018-11-04T11:04:31.000Z</time>
      </trkpt>
      <trkpt lat="39.493121" lon="-0.451076">
        <ele>27</ele>
        <time>2018-11-04T11:04:32.000Z</time>
      </trkpt>
      <trkpt lat="39.493084" lon="-0.451038">
        <ele>27</ele>
        <time>2018-11-04T11:04:33.000Z</time>
      </trkpt>
      <trkpt lat="39.493047" lon="-0.450997">
        <ele>27</ele>
        <time>2018-11-04T11:04:34.000Z</time>
      </trkpt>
      <trkpt lat="39.493013" lon="-0.450952">
        <ele>27</ele>
        <time>2018-11-04T11:04:35.000Z</time>
      </trkpt>
      <trkpt lat="39.49298" lon="-0.450902">
        <ele>27</ele>
        <time>2018-11-04T11:04:36.000Z</time>
      </trkpt>
      <trkpt lat="39.492949" lon="-0.450851">
        <ele>27</ele>
        <time>2018-11-04T11:04:37.000Z</time>
      </trkpt>
      <trkpt lat="39.492917" lon="-0.450802">
        <ele>27</ele>
        <time>2018-11-04T11:04:38.000Z</time>
      </trkpt>
      <trkpt lat="39.492883" lon="-0.450755">
        <ele>27</ele>
        <time>2018-11-04T11:04:39.000Z</time>
      </trkpt>
      <trkpt lat="39.492852" lon="-0.450706">
        <ele>27</ele>
        <time>2018-11-04T11:04:40.000Z</time>
      </trkpt>
      <trkpt lat="39.492819" lon="-0.450657">
        <ele>27</ele>
        <time>2018-11-04T11:04:41.000Z</time>
      </trkpt>
      <trkpt lat="39.492777" lon="-0.450606">
        <ele>27</ele>
        <time>2018-11-04T11:04:42.000Z</time>
      </trkpt>
      <trkpt lat="39.492734" lon="-0.450557">
        <ele>27</ele>
        <time>2018-11-04T11:04:43.000Z</time>
      </trkpt>
      <trkpt lat="39.492691" lon="-0.450513">
        <ele>27</ele>
        <time>2018-11-04T11:04:44.000Z</time>
      </trkpt>
      <trkpt lat="39.49264" lon="-0.450475">
        <ele>27</ele>
        <time>2018-11-04T11:04:45.000Z</time>
      </trkpt>
      <trkpt lat="39.492586" lon="-0.450439">
        <ele>27</ele>
        <time>2018-11-04T11:04:46.000Z</time>
      </trkpt>
      <trkpt lat="39.492539" lon="-0.450404">
        <ele>27</ele>
        <time>2018-11-04T11:04:47.000Z</time>
      </trkpt>
      <trkpt lat="39.492499" lon="-0.450362">
        <ele>27</ele>
        <time>2018-11-04T11:04:48.000Z</time>
      </trkpt>
      <trkpt lat="39.492464" lon="-0.450316">
        <ele>27</ele>
        <time>2018-11-04T11:04:49.000Z</time>
      </trkpt>
      <trkpt lat="39.492427" lon="-0.450268">
        <ele>27</ele>
        <time>2018-11-04T11:04:50.000Z</time>
      </trkpt>
      <trkpt lat="39.492391" lon="-0.450219">
        <ele>27.8899968</ele>
        <time>2018-11-04T11:04:51.000Z</time>
      </trkpt>
      <trkpt lat="39.492356" lon="-0.45017">
        <ele>28</ele>
        <time>2018-11-04T11:04:52.000Z</time>
      </trkpt>
      <trkpt lat="39.492319" lon="-0.450123">
        <ele>28</ele>
        <time>2018-11-04T11:04:53.000Z</time>
      </trkpt>
      <trkpt lat="39.492283" lon="-0.450071">
        <ele>28</ele>
        <time>2018-11-04T11:04:54.000Z</time>
      </trkpt>
      <trkpt lat="39.492246" lon="-0.450018">
        <ele>28</ele>
        <time>2018-11-04T11:04:55.000Z</time>
      </trkpt>
      <trkpt lat="39.492206" lon="-0.44997">
        <ele>28</ele>
        <time>2018-11-04T11:04:56.000Z</time>
      </trkpt>
      <trkpt lat="39.492166" lon="-0.449932">
        <ele>28</ele>
        <time>2018-11-04T11:04:57.000Z</time>
      </trkpt>
      <trkpt lat="39.492128" lon="-0.449893">
        <ele>28</ele>
        <time>2018-11-04T11:04:58.000Z</time>
      </trkpt>
      <trkpt lat="39.492087" lon="-0.449852">
        <ele>28</ele>
        <time>2018-11-04T11:04:59.000Z</time>
      </trkpt>
      <trkpt lat="39.492042" lon="-0.449811">
        <ele>28</ele>
        <time>2018-11-04T11:05:00.000Z</time>
      </trkpt>
      <trkpt lat="39.491998" lon="-0.449772">
        <ele>28.888886015722</ele>
        <time>2018-11-04T11:05:01.000Z</time>
      </trkpt>
      <trkpt lat="39.491956" lon="-0.449734">
        <ele>29</ele>
        <time>2018-11-04T11:05:02.000Z</time>
      </trkpt>
      <trkpt lat="39.491915" lon="-0.449695">
        <ele>29</ele>
        <time>2018-11-04T11:05:03.000Z</time>
      </trkpt>
      <trkpt lat="39.491874" lon="-0.449654">
        <ele>29</ele>
        <time>2018-11-04T11:05:04.000Z</time>
      </trkpt>
      <trkpt lat="39.491833" lon="-0.449614">
        <ele>29</ele>
        <time>2018-11-04T11:05:05.000Z</time>
      </trkpt>
      <trkpt lat="39.491793" lon="-0.449576">
        <ele>29</ele>
        <time>2018-11-04T11:05:06.000Z</time>
      </trkpt>
      <trkpt lat="39.491752" lon="-0.449536">
        <ele>29</ele>
        <time>2018-11-04T11:05:07.000Z</time>
      </trkpt>
      <trkpt lat="39.491711" lon="-0.449496">
        <ele>29</ele>
        <time>2018-11-04T11:05:08.000Z</time>
      </trkpt>
      <trkpt lat="39.491668" lon="-0.44946">
        <ele>29</ele>
        <time>2018-11-04T11:05:09.000Z</time>
      </trkpt>
      <trkpt lat="39.491626" lon="-0.449427">
        <ele>29</ele>
        <time>2018-11-04T11:05:10.000Z</time>
      </trkpt>
      <trkpt lat="39.491585" lon="-0.449394">
        <ele>29</ele>
        <time>2018-11-04T11:05:11.000Z</time>
      </trkpt>
      <trkpt lat="39.491546" lon="-0.449359">
        <ele>29</ele>
        <time>2018-11-04T11:05:12.000Z</time>
      </trkpt>
      <trkpt lat="39.49151" lon="-0.449323">
        <ele>29</ele>
        <time>2018-11-04T11:05:13.000Z</time>
      </trkpt>
      <trkpt lat="39.491472" lon="-0.449288">
        <ele>29</ele>
        <time>2018-11-04T11:05:14.000Z</time>
      </trkpt>
      <trkpt lat="39.491434" lon="-0.44925">
        <ele>29</ele>
        <time>2018-11-04T11:05:15.000Z</time>
      </trkpt>
      <trkpt lat="39.491397" lon="-0.449211">
        <ele>29</ele>
        <time>2018-11-04T11:05:16.000Z</time>
      </trkpt>
      <trkpt lat="39.491361" lon="-0.449171">
        <ele>28.1100032</ele>
        <time>2018-11-04T11:05:17.000Z</time>
      </trkpt>
      <trkpt lat="39.491324" lon="-0.449135">
        <ele>28</ele>
        <time>2018-11-04T11:05:18.000Z</time>
      </trkpt>
      <trkpt lat="39.491288" lon="-0.449099">
        <ele>28</ele>
        <time>2018-11-04T11:05:19.000Z</time>
      </trkpt>
      <trkpt lat="39.491251" lon="-0.449057">
        <ele>28</ele>
        <time>2018-11-04T11:05:20.000Z</time>
      </trkpt>
      <trkpt lat="39.491212" lon="-0.449015">
        <ele>28</ele>
        <time>2018-11-04T11:05:21.000Z</time>
      </trkpt>
      <trkpt lat="39.491171" lon="-0.44897">
        <ele>28</ele>
        <time>2018-11-04T11:05:22.000Z</time>
      </trkpt>
      <trkpt lat="39.491134" lon="-0.448923">
        <ele>28</ele>
        <time>2018-11-04T11:05:23.000Z</time>
      </trkpt>
      <trkpt lat="39.491099" lon="-0.448873">
        <ele>27.1100032</ele>
        <time>2018-11-04T11:05:24.000Z</time>
      </trkpt>
      <trkpt lat="39.491066" lon="-0.448821">
        <ele>27</ele>
        <time>2018-11-04T11:05:25.000Z</time>
      </trkpt>
      <trkpt lat="39.491036" lon="-0.448771">
        <ele>27</ele>
        <time>2018-11-04T11:05:26.000Z</time>
      </trkpt>
      <trkpt lat="39.491003" lon="-0.448723">
        <ele>27</ele>
        <time>2018-11-04T11:05:27.000Z</time>
      </trkpt>
      <trkpt lat="39.490966" lon="-0.44868">
        <ele>27</ele>
        <time>2018-11-04T11:05:28.000Z</time>
      </trkpt>
      <trkpt lat="39.490928" lon="-0.448638">
        <ele>27</ele>
        <time>2018-11-04T11:05:29.000Z</time>
      </trkpt>
      <trkpt lat="39.490894" lon="-0.448595">
        <ele>27</ele>
        <time>2018-11-04T11:05:30.000Z</time>
      </trkpt>
      <trkpt lat="39.490858" lon="-0.448555">
        <ele>27</ele>
        <time>2018-11-04T11:05:31.000Z</time>
      </trkpt>
      <trkpt lat="39.49082" lon="-0.448516">
        <ele>27</ele>
        <time>2018-11-04T11:05:32.000Z</time>
      </trkpt>
      <trkpt lat="39.49078" lon="-0.448478">
        <ele>27</ele>
        <time>2018-11-04T11:05:33.000Z</time>
      </trkpt>
      <trkpt lat="39.490742" lon="-0.448441">
        <ele>27</ele>
        <time>2018-11-04T11:05:34.000Z</time>
      </trkpt>
      <trkpt lat="39.490706" lon="-0.448404">
        <ele>27</ele>
        <time>2018-11-04T11:05:35.000Z</time>
      </trkpt>
      <trkpt lat="39.490669" lon="-0.448366">
        <ele>27</ele>
        <time>2018-11-04T11:05:36.000Z</time>
      </trkpt>
      <trkpt lat="39.49063" lon="-0.448326">
        <ele>27</ele>
        <time>2018-11-04T11:05:37.000Z</time>
      </trkpt>
      <trkpt lat="39.490585" lon="-0.448288">
        <ele>26.3100782885663</ele>
        <time>2018-11-04T11:05:38.000Z</time>
      </trkpt>
      <trkpt lat="39.490542" lon="-0.44825">
        <ele>26</ele>
        <time>2018-11-04T11:05:39.000Z</time>
      </trkpt>
      <trkpt lat="39.490502" lon="-0.448212">
        <ele>26</ele>
        <time>2018-11-04T11:05:40.000Z</time>
      </trkpt>
      <trkpt lat="39.490465" lon="-0.448171">
        <ele>26</ele>
        <time>2018-11-04T11:05:41.000Z</time>
      </trkpt>
      <trkpt lat="39.49043" lon="-0.448132">
        <ele>26</ele>
        <time>2018-11-04T11:05:42.000Z</time>
      </trkpt>
      <trkpt lat="39.490392" lon="-0.448094">
        <ele>26</ele>
        <time>2018-11-04T11:05:43.000Z</time>
      </trkpt>
      <trkpt lat="39.490354" lon="-0.448057">
        <ele>26</ele>
        <time>2018-11-04T11:05:44.000Z</time>
      </trkpt>
      <trkpt lat="39.490309" lon="-0.448021">
        <ele>26</ele>
        <time>2018-11-04T11:05:45.000Z</time>
      </trkpt>
      <trkpt lat="39.490268" lon="-0.447986">
        <ele>26</ele>
        <time>2018-11-04T11:05:46.000Z</time>
      </trkpt>
      <trkpt lat="39.490227" lon="-0.447951">
        <ele>26</ele>
        <time>2018-11-04T11:05:47.000Z</time>
      </trkpt>
      <trkpt lat="39.490188" lon="-0.447916">
        <ele>26</ele>
        <time>2018-11-04T11:05:48.000Z</time>
      </trkpt>
      <trkpt lat="39.490154" lon="-0.447882">
        <ele>26</ele>
        <time>2018-11-04T11:05:49.000Z</time>
      </trkpt>
      <trkpt lat="39.490122" lon="-0.447844">
        <ele>26</ele>
        <time>2018-11-04T11:05:50.000Z</time>
      </trkpt>
      <trkpt lat="39.490092" lon="-0.447808">
        <ele>26</ele>
        <time>2018-11-04T11:05:51.000Z</time>
      </trkpt>
      <trkpt lat="39.490057" lon="-0.447772">
        <ele>26</ele>
        <time>2018-11-04T11:05:52.000Z</time>
      </trkpt>
      <trkpt lat="39.490022" lon="-0.447734">
        <ele>26</ele>
        <time>2018-11-04T11:05:53.000Z</time>
      </trkpt>
      <trkpt lat="39.489989" lon="-0.447688">
        <ele>26</ele>
        <time>2018-11-04T11:05:54.000Z</time>
      </trkpt>
      <trkpt lat="39.489958" lon="-0.447636">
        <ele>26</ele>
        <time>2018-11-04T11:05:55.000Z</time>
      </trkpt>
      <trkpt lat="39.489941" lon="-0.447592">
        <ele>26.8899968</ele>
        <time>2018-11-04T11:05:56.000Z</time>
      </trkpt>
      <trkpt lat="39.48992" lon="-0.447548">
        <ele>27</ele>
        <time>2018-11-04T11:05:57.000Z</time>
      </trkpt>
      <trkpt lat="39.489905" lon="-0.447504">
        <ele>27</ele>
        <time>2018-11-04T11:05:58.000Z</time>
      </trkpt>
      <trkpt lat="39.489887" lon="-0.447459">
        <ele>27</ele>
        <time>2018-11-04T11:05:59.000Z</time>
      </trkpt>
      <trkpt lat="39.489861" lon="-0.447411">
        <ele>27.6899217114337</ele>
        <time>2018-11-04T11:06:00.000Z</time>
      </trkpt>
      <trkpt lat="39.489827" lon="-0.447363">
        <ele>28</ele>
        <time>2018-11-04T11:06:01.000Z</time>
      </trkpt>
      <trkpt lat="39.489788" lon="-0.447326">
        <ele>28</ele>
        <time>2018-11-04T11:06:02.000Z</time>
      </trkpt>
      <trkpt lat="39.48975" lon="-0.447288">
        <ele>28</ele>
        <time>2018-11-04T11:06:03.000Z</time>
      </trkpt>
      <trkpt lat="39.489716" lon="-0.447244">
        <ele>28</ele>
        <time>2018-11-04T11:06:04.000Z</time>
      </trkpt>
      <trkpt lat="39.489684" lon="-0.447197">
        <ele>28</ele>
        <time>2018-11-04T11:06:05.000Z</time>
      </trkpt>
      <trkpt lat="39.489651" lon="-0.44715">
        <ele>28.8899968</ele>
        <time>2018-11-04T11:06:06.000Z</time>
      </trkpt>
      <trkpt lat="39.489618" lon="-0.447101">
        <ele>29</ele>
        <time>2018-11-04T11:06:07.000Z</time>
      </trkpt>
      <trkpt lat="39.489585" lon="-0.447051">
        <ele>29</ele>
        <time>2018-11-04T11:06:08.000Z</time>
      </trkpt>
      <trkpt lat="39.489549" lon="-0.447001">
        <ele>29.8899968</ele>
        <time>2018-11-04T11:06:09.000Z</time>
      </trkpt>
      <trkpt lat="39.489513" lon="-0.446952">
        <ele>30</ele>
        <time>2018-11-04T11:06:10.000Z</time>
      </trkpt>
      <trkpt lat="39.489478" lon="-0.446903">
        <ele>30</ele>
        <time>2018-11-04T11:06:11.000Z</time>
      </trkpt>
      <trkpt lat="39.489444" lon="-0.446851">
        <ele>30.700783116137</ele>
        <time>2018-11-04T11:06:12.000Z</time>
      </trkpt>
      <trkpt lat="39.48941" lon="-0.446802">
        <ele>31</ele>
        <time>2018-11-04T11:06:13.000Z</time>
      </trkpt>
      <trkpt lat="39.489373" lon="-0.446754">
        <ele>31</ele>
        <time>2018-11-04T11:06:14.000Z</time>
      </trkpt>
      <trkpt lat="39.489337" lon="-0.446706">
        <ele>31</ele>
        <time>2018-11-04T11:06:15.000Z</time>
      </trkpt>
      <trkpt lat="39.489301" lon="-0.446659">
        <ele>31</ele>
        <time>2018-11-04T11:06:16.000Z</time>
      </trkpt>
      <trkpt lat="39.489262" lon="-0.446614">
        <ele>31</ele>
        <time>2018-11-04T11:06:17.000Z</time>
      </trkpt>
      <trkpt lat="39.489226" lon="-0.446573">
        <ele>31</ele>
        <time>2018-11-04T11:06:18.000Z</time>
      </trkpt>
      <trkpt lat="39.489193" lon="-0.446533">
        <ele>31</ele>
        <time>2018-11-04T11:06:19.000Z</time>
      </trkpt>
      <trkpt lat="39.489162" lon="-0.446492">
        <ele>31.6899217114337</ele>
        <time>2018-11-04T11:06:20.000Z</time>
      </trkpt>
      <trkpt lat="39.489132" lon="-0.446454">
        <ele>32</ele>
        <time>2018-11-04T11:06:21.000Z</time>
      </trkpt>
      <trkpt lat="39.489108" lon="-0.44642">
        <ele>32</ele>
        <time>2018-11-04T11:06:22.000Z</time>
      </trkpt>
      <trkpt lat="39.489087" lon="-0.446395">
        <ele>32</ele>
        <time>2018-11-04T11:06:23.000Z</time>
      </trkpt>
      <trkpt lat="39.489065" lon="-0.446373">
        <ele>32</ele>
        <time>2018-11-04T11:06:24.000Z</time>
      </trkpt>
      <trkpt lat="39.489044" lon="-0.446348">
        <ele>32</ele>
        <time>2018-11-04T11:06:25.000Z</time>
      </trkpt>
      <trkpt lat="39.489024" lon="-0.44632">
        <ele>32</ele>
        <time>2018-11-04T11:06:26.000Z</time>
      </trkpt>
      <trkpt lat="39.489003" lon="-0.446287">
        <ele>32</ele>
        <time>2018-11-04T11:06:27.000Z</time>
      </trkpt>
      <trkpt lat="39.488982" lon="-0.44625">
        <ele>32</ele>
        <time>2018-11-04T11:06:28.000Z</time>
      </trkpt>
      <trkpt lat="39.488962" lon="-0.446212">
        <ele>32</ele>
        <time>2018-11-04T11:06:29.000Z</time>
      </trkpt>
      <trkpt lat="39.488941" lon="-0.446178">
        <ele>32</ele>
        <time>2018-11-04T11:06:30.000Z</time>
      </trkpt>
      <trkpt lat="39.488921" lon="-0.446148">
        <ele>32.7007901792014</ele>
        <time>2018-11-04T11:06:31.000Z</time>
      </trkpt>
      <trkpt lat="39.488903" lon="-0.44612">
        <ele>33</ele>
        <time>2018-11-04T11:06:32.000Z</time>
      </trkpt>
      <trkpt lat="39.488883" lon="-0.446087">
        <ele>33</ele>
        <time>2018-11-04T11:06:33.000Z</time>
      </trkpt>
      <trkpt lat="39.488861" lon="-0.44605">
        <ele>33</ele>
        <time>2018-11-04T11:06:34.000Z</time>
      </trkpt>
      <trkpt lat="39.488832" lon="-0.446014">
        <ele>33</ele>
        <time>2018-11-04T11:06:35.000Z</time>
      </trkpt>
      <trkpt lat="39.488801" lon="-0.445981">
        <ele>33</ele>
        <time>2018-11-04T11:06:36.000Z</time>
      </trkpt>
      <trkpt lat="39.488771" lon="-0.445946">
        <ele>33</ele>
        <time>2018-11-04T11:06:37.000Z</time>
      </trkpt>
      <trkpt lat="39.488734" lon="-0.445912">
        <ele>33</ele>
        <time>2018-11-04T11:06:38.000Z</time>
      </trkpt>
      <trkpt lat="39.488692" lon="-0.445874">
        <ele>32.118812257623</ele>
        <time>2018-11-04T11:06:39.000Z</time>
      </trkpt>
      <trkpt lat="39.488649" lon="-0.445835">
        <ele>32</ele>
        <time>2018-11-04T11:06:40.000Z</time>
      </trkpt>
      <trkpt lat="39.488603" lon="-0.445789">
        <ele>32</ele>
        <time>2018-11-04T11:06:41.000Z</time>
      </trkpt>
      <trkpt lat="39.48856" lon="-0.445746">
        <ele>32</ele>
        <time>2018-11-04T11:06:42.000Z</time>
      </trkpt>
      <trkpt lat="39.48852" lon="-0.445699">
        <ele>32</ele>
        <time>2018-11-04T11:06:43.000Z</time>
      </trkpt>
      <trkpt lat="39.488478" lon="-0.445648">
        <ele>31.1100032</ele>
        <time>2018-11-04T11:06:44.000Z</time>
      </trkpt>
      <trkpt lat="39.488437" lon="-0.445592">
        <ele>31</ele>
        <time>2018-11-04T11:06:45.000Z</time>
      </trkpt>
      <trkpt lat="39.488394" lon="-0.445534">
        <ele>31</ele>
        <time>2018-11-04T11:06:46.000Z</time>
      </trkpt>
      <trkpt lat="39.488351" lon="-0.445474">
        <ele>31</ele>
        <time>2018-11-04T11:06:47.000Z</time>
      </trkpt>
      <trkpt lat="39.488307" lon="-0.445418">
        <ele>31</ele>
        <time>2018-11-04T11:06:48.000Z</time>
      </trkpt>
      <trkpt lat="39.488261" lon="-0.445365">
        <ele>31</ele>
        <time>2018-11-04T11:06:49.000Z</time>
      </trkpt>
      <trkpt lat="39.488216" lon="-0.445312">
        <ele>31</ele>
        <time>2018-11-04T11:06:50.000Z</time>
      </trkpt>
      <trkpt lat="39.488168" lon="-0.445262">
        <ele>31</ele>
        <time>2018-11-04T11:06:51.000Z</time>
      </trkpt>
      <trkpt lat="39.488118" lon="-0.445214">
        <ele>31</ele>
        <time>2018-11-04T11:06:52.000Z</time>
      </trkpt>
      <trkpt lat="39.488068" lon="-0.445164">
        <ele>31</ele>
        <time>2018-11-04T11:06:53.000Z</time>
      </trkpt>
      <trkpt lat="39.488019" lon="-0.445114">
        <ele>31</ele>
        <time>2018-11-04T11:06:54.000Z</time>
      </trkpt>
      <trkpt lat="39.48797" lon="-0.445066">
        <ele>31</ele>
        <time>2018-11-04T11:06:55.000Z</time>
      </trkpt>
      <trkpt lat="39.487919" lon="-0.44502">
        <ele>31</ele>
        <time>2018-11-04T11:06:56.000Z</time>
      </trkpt>
      <trkpt lat="39.487867" lon="-0.44497">
        <ele>31</ele>
        <time>2018-11-04T11:06:57.000Z</time>
      </trkpt>
      <trkpt lat="39.487817" lon="-0.444916">
        <ele>31</ele>
        <time>2018-11-04T11:06:58.000Z</time>
      </trkpt>
      <trkpt lat="39.487769" lon="-0.444862">
        <ele>31</ele>
        <time>2018-11-04T11:06:59.000Z</time>
      </trkpt>
      <trkpt lat="39.487723" lon="-0.444807">
        <ele>31</ele>
        <time>2018-11-04T11:07:00.000Z</time>
      </trkpt>
      <trkpt lat="39.487681" lon="-0.444751">
        <ele>31</ele>
        <time>2018-11-04T11:07:01.000Z</time>
      </trkpt>
      <trkpt lat="39.487643" lon="-0.444688">
        <ele>31</ele>
        <time>2018-11-04T11:07:02.000Z</time>
      </trkpt>
      <trkpt lat="39.487607" lon="-0.444621">
        <ele>31</ele>
        <time>2018-11-04T11:07:03.000Z</time>
      </trkpt>
      <trkpt lat="39.487572" lon="-0.444552">
        <ele>31</ele>
        <time>2018-11-04T11:07:04.000Z</time>
      </trkpt>
      <trkpt lat="39.487537" lon="-0.444487">
        <ele>31</ele>
        <time>2018-11-04T11:07:05.000Z</time>
      </trkpt>
      <trkpt lat="39.487501" lon="-0.444424">
        <ele>31.8899968</ele>
        <time>2018-11-04T11:07:06.000Z</time>
      </trkpt>
      <trkpt lat="39.487466" lon="-0.444363">
        <ele>32</ele>
        <time>2018-11-04T11:07:07.000Z</time>
      </trkpt>
      <trkpt lat="39.48743" lon="-0.444307">
        <ele>32</ele>
        <time>2018-11-04T11:07:08.000Z</time>
      </trkpt>
      <trkpt lat="39.48739" lon="-0.44426">
        <ele>32</ele>
        <time>2018-11-04T11:07:09.000Z</time>
      </trkpt>
      <trkpt lat="39.48735" lon="-0.444224">
        <ele>32</ele>
        <time>2018-11-04T11:07:10.000Z</time>
      </trkpt>
      <trkpt lat="39.48731" lon="-0.444193">
        <ele>32.8899968</ele>
        <time>2018-11-04T11:07:11.000Z</time>
      </trkpt>
      <trkpt lat="39.487273" lon="-0.444166">
        <ele>33</ele>
        <time>2018-11-04T11:07:12.000Z</time>
      </trkpt>
      <trkpt lat="39.487244" lon="-0.444145">
        <ele>32.1100032</ele>
        <time>2018-11-04T11:07:13.000Z</time>
      </trkpt>
      <trkpt lat="39.487218" lon="-0.44413">
        <ele>32</ele>
        <time>2018-11-04T11:07:14.000Z</time>
      </trkpt>
      <trkpt lat="39.48719" lon="-0.444126">
        <ele>32</ele>
        <time>2018-11-04T11:07:15.000Z</time>
      </trkpt>
      <trkpt lat="39.48716" lon="-0.444132">
        <ele>32</ele>
        <time>2018-11-04T11:07:16.000Z</time>
      </trkpt>
      <trkpt lat="39.487136" lon="-0.44414">
        <ele>32</ele>
        <time>2018-11-04T11:07:17.000Z</time>
      </trkpt>
      <trkpt lat="39.487114" lon="-0.444148">
        <ele>31.1100032</ele>
        <time>2018-11-04T11:07:22.000Z</time>
      </trkpt>
      <trkpt lat="39.487091" lon="-0.444171">
        <ele>31.8899968</ele>
        <time>2018-11-04T11:07:24.000Z</time>
      </trkpt>
      <trkpt lat="39.487069" lon="-0.444185">
        <ele>32</ele>
        <time>2018-11-04T11:07:25.000Z</time>
      </trkpt>
      <trkpt lat="39.487039" lon="-0.444202">
        <ele>32</ele>
        <time>2018-11-04T11:07:26.000Z</time>
      </trkpt>
      <trkpt lat="39.487002" lon="-0.444223">
        <ele>32</ele>
        <time>2018-11-04T11:07:27.000Z</time>
      </trkpt>
      <trkpt lat="39.486966" lon="-0.444252">
        <ele>32</ele>
        <time>2018-11-04T11:07:28.000Z</time>
      </trkpt>
      <trkpt lat="39.486934" lon="-0.444278">
        <ele>31.3921593233526</ele>
        <time>2018-11-04T11:07:29.000Z</time>
      </trkpt>
      <trkpt lat="39.486903" lon="-0.444304">
        <ele>31</ele>
        <time>2018-11-04T11:07:30.000Z</time>
      </trkpt>
      <trkpt lat="39.486871" lon="-0.444329">
        <ele>31</ele>
        <time>2018-11-04T11:07:31.000Z</time>
      </trkpt>
      <trkpt lat="39.486837" lon="-0.444357">
        <ele>31</ele>
        <time>2018-11-04T11:07:32.000Z</time>
      </trkpt>
      <trkpt lat="39.486799" lon="-0.444387">
        <ele>30.1100032</ele>
        <time>2018-11-04T11:07:33.000Z</time>
      </trkpt>
      <trkpt lat="39.48676" lon="-0.444421">
        <ele>30</ele>
        <time>2018-11-04T11:07:34.000Z</time>
      </trkpt>
      <trkpt lat="39.48672" lon="-0.444459">
        <ele>30</ele>
        <time>2018-11-04T11:07:35.000Z</time>
      </trkpt>
      <trkpt lat="39.486682" lon="-0.444501">
        <ele>30</ele>
        <time>2018-11-04T11:07:36.000Z</time>
      </trkpt>
      <trkpt lat="39.486643" lon="-0.444542">
        <ele>30</ele>
        <time>2018-11-04T11:07:37.000Z</time>
      </trkpt>
      <trkpt lat="39.486604" lon="-0.444586">
        <ele>30</ele>
        <time>2018-11-04T11:07:38.000Z</time>
      </trkpt>
      <trkpt lat="39.486565" lon="-0.44463">
        <ele>29.1100032</ele>
        <time>2018-11-04T11:07:39.000Z</time>
      </trkpt>
      <trkpt lat="39.486523" lon="-0.444674">
        <ele>29</ele>
        <time>2018-11-04T11:07:40.000Z</time>
      </trkpt>
      <trkpt lat="39.486482" lon="-0.444718">
        <ele>29</ele>
        <time>2018-11-04T11:07:41.000Z</time>
      </trkpt>
      <trkpt lat="39.486442" lon="-0.444762">
        <ele>29</ele>
        <time>2018-11-04T11:07:42.000Z</time>
      </trkpt>
      <trkpt lat="39.4864" lon="-0.444806">
        <ele>29</ele>
        <time>2018-11-04T11:07:43.000Z</time>
      </trkpt>
      <trkpt lat="39.486354" lon="-0.444845">
        <ele>29.8899968</ele>
        <time>2018-11-04T11:07:44.000Z</time>
      </trkpt>
      <trkpt lat="39.48631" lon="-0.444883">
        <ele>30</ele>
        <time>2018-11-04T11:07:45.000Z</time>
      </trkpt>
      <trkpt lat="39.486264" lon="-0.444918">
        <ele>30</ele>
        <time>2018-11-04T11:07:46.000Z</time>
      </trkpt>
      <trkpt lat="39.486221" lon="-0.444955">
        <ele>30</ele>
        <time>2018-11-04T11:07:47.000Z</time>
      </trkpt>
      <trkpt lat="39.486179" lon="-0.444996">
        <ele>30</ele>
        <time>2018-11-04T11:07:48.000Z</time>
      </trkpt>
      <trkpt lat="39.48614" lon="-0.44504">
        <ele>30</ele>
        <time>2018-11-04T11:07:49.000Z</time>
      </trkpt>
      <trkpt lat="39.486103" lon="-0.445086">
        <ele>30</ele>
        <time>2018-11-04T11:07:50.000Z</time>
      </trkpt>
      <trkpt lat="39.486068" lon="-0.445132">
        <ele>30.8899968</ele>
        <time>2018-11-04T11:07:51.000Z</time>
      </trkpt>
      <trkpt lat="39.486036" lon="-0.445178">
        <ele>31</ele>
        <time>2018-11-04T11:07:52.000Z</time>
      </trkpt>
      <trkpt lat="39.486004" lon="-0.445222">
        <ele>31</ele>
        <time>2018-11-04T11:07:53.000Z</time>
      </trkpt>
      <trkpt lat="39.485972" lon="-0.445264">
        <ele>31</ele>
        <time>2018-11-04T11:07:54.000Z</time>
      </trkpt>
      <trkpt lat="39.485941" lon="-0.445307">
        <ele>31</ele>
        <time>2018-11-04T11:07:55.000Z</time>
      </trkpt>
      <trkpt lat="39.485913" lon="-0.445351">
        <ele>31</ele>
        <time>2018-11-04T11:07:56.000Z</time>
      </trkpt>
      <trkpt lat="39.485884" lon="-0.445393">
        <ele>31</ele>
        <time>2018-11-04T11:07:57.000Z</time>
      </trkpt>
      <trkpt lat="39.485855" lon="-0.445433">
        <ele>31</ele>
        <time>2018-11-04T11:07:58.000Z</time>
      </trkpt>
      <trkpt lat="39.485829" lon="-0.445473">
        <ele>31</ele>
        <time>2018-11-04T11:07:59.000Z</time>
      </trkpt>
      <trkpt lat="39.485801" lon="-0.445512">
        <ele>31</ele>
        <time>2018-11-04T11:08:00.000Z</time>
      </trkpt>
      <trkpt lat="39.485773" lon="-0.445547">
        <ele>31</ele>
        <time>2018-11-04T11:08:01.000Z</time>
      </trkpt>
      <trkpt lat="39.485745" lon="-0.445581">
        <ele>31</ele>
        <time>2018-11-04T11:08:02.000Z</time>
      </trkpt>
      <trkpt lat="39.485717" lon="-0.445612">
        <ele>31</ele>
        <time>2018-11-04T11:08:03.000Z</time>
      </trkpt>
      <trkpt lat="39.485686" lon="-0.445639">
        <ele>31</ele>
        <time>2018-11-04T11:08:04.000Z</time>
      </trkpt>
      <trkpt lat="39.485654" lon="-0.445663">
        <ele>31</ele>
        <time>2018-11-04T11:08:05.000Z</time>
      </trkpt>
      <trkpt lat="39.485621" lon="-0.445681">
        <ele>31</ele>
        <time>2018-11-04T11:08:06.000Z</time>
      </trkpt>
      <trkpt lat="39.485589" lon="-0.4457">
        <ele>31.8472177777778</ele>
        <time>2018-11-04T11:08:07.000Z</time>
      </trkpt>
      <trkpt lat="39.485556" lon="-0.44571">
        <ele>32</ele>
        <time>2018-11-04T11:08:08.000Z</time>
      </trkpt>
      <trkpt lat="39.485524" lon="-0.445714">
        <ele>32</ele>
        <time>2018-11-04T11:08:09.000Z</time>
      </trkpt>
      <trkpt lat="39.485497" lon="-0.445714">
        <ele>32</ele>
        <time>2018-11-04T11:08:10.000Z</time>
      </trkpt>
      <trkpt lat="39.485472" lon="-0.44571">
        <ele>32</ele>
        <time>2018-11-04T11:08:11.000Z</time>
      </trkpt>
      <trkpt lat="39.485442" lon="-0.445701">
        <ele>32.8899968</ele>
        <time>2018-11-04T11:08:12.000Z</time>
      </trkpt>
      <trkpt lat="39.485411" lon="-0.445685">
        <ele>33</ele>
        <time>2018-11-04T11:08:13.000Z</time>
      </trkpt>
      <trkpt lat="39.485377" lon="-0.445668">
        <ele>33</ele>
        <time>2018-11-04T11:08:14.000Z</time>
      </trkpt>
      <trkpt lat="39.48534" lon="-0.44565">
        <ele>33</ele>
        <time>2018-11-04T11:08:15.000Z</time>
      </trkpt>
      <trkpt lat="39.485306" lon="-0.445631">
        <ele>33</ele>
        <time>2018-11-04T11:08:16.000Z</time>
      </trkpt>
      <trkpt lat="39.485276" lon="-0.445612">
        <ele>33.8899968</ele>
        <time>2018-11-04T11:08:17.000Z</time>
      </trkpt>
      <trkpt lat="39.485251" lon="-0.445591">
        <ele>34</ele>
        <time>2018-11-04T11:08:18.000Z</time>
      </trkpt>
      <trkpt lat="39.485227" lon="-0.445565">
        <ele>34</ele>
        <time>2018-11-04T11:08:19.000Z</time>
      </trkpt>
      <trkpt lat="39.485202" lon="-0.445546">
        <ele>34</ele>
        <time>2018-11-04T11:08:20.000Z</time>
      </trkpt>
      <trkpt lat="39.485175" lon="-0.445542">
        <ele>34</ele>
        <time>2018-11-04T11:08:21.000Z</time>
      </trkpt>
      <trkpt lat="39.48515" lon="-0.445548">
        <ele>34</ele>
        <time>2018-11-04T11:08:22.000Z</time>
      </trkpt>
      <trkpt lat="39.485117" lon="-0.445554">
        <ele>34.8899968</ele>
        <time>2018-11-04T11:08:23.000Z</time>
      </trkpt>
      <trkpt lat="39.48508" lon="-0.445557">
        <ele>35</ele>
        <time>2018-11-04T11:08:24.000Z</time>
      </trkpt>
      <trkpt lat="39.485043" lon="-0.445559">
        <ele>35</ele>
        <time>2018-11-04T11:08:25.000Z</time>
      </trkpt>
      <trkpt lat="39.485006" lon="-0.445569">
        <ele>35</ele>
        <time>2018-11-04T11:08:26.000Z</time>
      </trkpt>
      <trkpt lat="39.484966" lon="-0.44558">
        <ele>35</ele>
        <time>2018-11-04T11:08:27.000Z</time>
      </trkpt>
      <trkpt lat="39.484935" lon="-0.445583">
        <ele>35</ele>
        <time>2018-11-04T11:08:28.000Z</time>
      </trkpt>
      <trkpt lat="39.484906" lon="-0.44558">
        <ele>35.8899968</ele>
        <time>2018-11-04T11:08:29.000Z</time>
      </trkpt>
      <trkpt lat="39.484869" lon="-0.445575">
        <ele>36</ele>
        <time>2018-11-04T11:08:30.000Z</time>
      </trkpt>
      <trkpt lat="39.48484" lon="-0.445579">
        <ele>36</ele>
        <time>2018-11-04T11:08:31.000Z</time>
      </trkpt>
      <trkpt lat="39.484816" lon="-0.44563">
        <ele>37</ele>
        <time>2018-11-04T11:08:33.000Z</time>
      </trkpt>
      <trkpt lat="39.48482" lon="-0.445729">
        <ele>37</ele>
        <time>2018-11-04T11:08:35.000Z</time>
      </trkpt>
      <trkpt lat="39.484834" lon="-0.445788">
        <ele>37</ele>
        <time>2018-11-04T11:08:36.000Z</time>
      </trkpt>
      <trkpt lat="39.484847" lon="-0.445841">
        <ele>37.8899968</ele>
        <time>2018-11-04T11:08:37.000Z</time>
      </trkpt>
      <trkpt lat="39.484863" lon="-0.445892">
        <ele>38</ele>
        <time>2018-11-04T11:08:38.000Z</time>
      </trkpt>
      <trkpt lat="39.484879" lon="-0.445937">
        <ele>38</ele>
        <time>2018-11-04T11:08:39.000Z</time>
      </trkpt>
      <trkpt lat="39.484893" lon="-0.445975">
        <ele>38.8899968</ele>
        <time>2018-11-04T11:08:40.000Z</time>
      </trkpt>
      <trkpt lat="39.484902" lon="-0.446009">
        <ele>39</ele>
        <time>2018-11-04T11:08:41.000Z</time>
      </trkpt>
      <trkpt lat="39.484917" lon="-0.446055">
        <ele>39</ele>
        <time>2018-11-04T11:08:42.000Z</time>
      </trkpt>
      <trkpt lat="39.484936" lon="-0.4461">
        <ele>39</ele>
        <time>2018-11-04T11:08:43.000Z</time>
      </trkpt>
      <trkpt lat="39.484956" lon="-0.446142">
        <ele>39</ele>
        <time>2018-11-04T11:08:44.000Z</time>
      </trkpt>
      <trkpt lat="39.484976" lon="-0.446186">
        <ele>39</ele>
        <time>2018-11-04T11:08:45.000Z</time>
      </trkpt>
      <trkpt lat="39.484997" lon="-0.446225">
        <ele>39.8899968</ele>
        <time>2018-11-04T11:08:46.000Z</time>
      </trkpt>
      <trkpt lat="39.485025" lon="-0.446267">
        <ele>40</ele>
        <time>2018-11-04T11:08:47.000Z</time>
      </trkpt>
      <trkpt lat="39.485046" lon="-0.446306">
        <ele>40</ele>
        <time>2018-11-04T11:08:48.000Z</time>
      </trkpt>
      <trkpt lat="39.485063" lon="-0.446348">
        <ele>40</ele>
        <time>2018-11-04T11:08:49.000Z</time>
      </trkpt>
      <trkpt lat="39.485081" lon="-0.446396">
        <ele>40</ele>
        <time>2018-11-04T11:08:50.000Z</time>
      </trkpt>
      <trkpt lat="39.485081" lon="-0.446432">
        <ele>40</ele>
        <time>2018-11-04T11:08:51.000Z</time>
      </trkpt>
      <trkpt lat="39.48506" lon="-0.446462">
        <ele>40.8899968</ele>
        <time>2018-11-04T11:08:52.000Z</time>
      </trkpt>
      <trkpt lat="39.485029" lon="-0.446498">
        <ele>41</ele>
        <time>2018-11-04T11:08:53.000Z</time>
      </trkpt>
      <trkpt lat="39.484998" lon="-0.446529">
        <ele>41</ele>
        <time>2018-11-04T11:08:54.000Z</time>
      </trkpt>
      <trkpt lat="39.484963" lon="-0.446556">
        <ele>41.8899968</ele>
        <time>2018-11-04T11:08:55.000Z</time>
      </trkpt>
      <trkpt lat="39.484933" lon="-0.446588">
        <ele>42</ele>
        <time>2018-11-04T11:08:56.000Z</time>
      </trkpt>
      <trkpt lat="39.4849" lon="-0.446613">
        <ele>42</ele>
        <time>2018-11-04T11:08:57.000Z</time>
      </trkpt>
      <trkpt lat="39.484866" lon="-0.446638">
        <ele>42</ele>
        <time>2018-11-04T11:08:58.000Z</time>
      </trkpt>
      <trkpt lat="39.484823" lon="-0.446654">
        <ele>42.8899968</ele>
        <time>2018-11-04T11:08:59.000Z</time>
      </trkpt>
      <trkpt lat="39.484787" lon="-0.446678">
        <ele>43</ele>
        <time>2018-11-04T11:09:00.000Z</time>
      </trkpt>
      <trkpt lat="39.484752" lon="-0.446707">
        <ele>43</ele>
        <time>2018-11-04T11:09:01.000Z</time>
      </trkpt>
      <trkpt lat="39.484713" lon="-0.44674">
        <ele>43.8899968</ele>
        <time>2018-11-04T11:09:02.000Z</time>
      </trkpt>
      <trkpt lat="39.484679" lon="-0.446774">
        <ele>44</ele>
        <time>2018-11-04T11:09:03.000Z</time>
      </trkpt>
      <trkpt lat="39.484642" lon="-0.446811">
        <ele>44</ele>
        <time>2018-11-04T11:09:04.000Z</time>
      </trkpt>
      <trkpt lat="39.48461" lon="-0.446841">
        <ele>44.8899968</ele>
        <time>2018-11-04T11:09:05.000Z</time>
      </trkpt>
      <trkpt lat="39.48457" lon="-0.446856">
        <ele>45</ele>
        <time>2018-11-04T11:09:06.000Z</time>
      </trkpt>
      <trkpt lat="39.48452" lon="-0.446883">
        <ele>45</ele>
        <time>2018-11-04T11:09:07.000Z</time>
      </trkpt>
      <trkpt lat="39.484475" lon="-0.446903">
        <ele>45.67424</ele>
        <time>2018-11-04T11:09:08.000Z</time>
      </trkpt>
      <trkpt lat="39.484412" lon="-0.446936">
        <ele>46</ele>
        <time>2018-11-04T11:09:09.000Z</time>
      </trkpt>
      <trkpt lat="39.48437" lon="-0.446956">
        <ele>46</ele>
        <time>2018-11-04T11:09:10.000Z</time>
      </trkpt>
      <trkpt lat="39.484342" lon="-0.446969">
        <ele>46.8899968</ele>
        <time>2018-11-04T11:09:11.000Z</time>
      </trkpt>
      <trkpt lat="39.484318" lon="-0.446987">
        <ele>47</ele>
        <time>2018-11-04T11:09:12.000Z</time>
      </trkpt>
      <trkpt lat="39.484291" lon="-0.447003">
        <ele>47</ele>
        <time>2018-11-04T11:09:13.000Z</time>
      </trkpt>
      <trkpt lat="39.484263" lon="-0.447013">
        <ele>47</ele>
        <time>2018-11-04T11:09:14.000Z</time>
      </trkpt>
      <trkpt lat="39.484242" lon="-0.447016">
        <ele>47</ele>
        <time>2018-11-04T11:09:15.000Z</time>
      </trkpt>
      <trkpt lat="39.484207" lon="-0.447013">
        <ele>48</ele>
        <time>2018-11-04T11:09:17.000Z</time>
      </trkpt>
      <trkpt lat="39.484184" lon="-0.447005">
        <ele>48</ele>
        <time>2018-11-04T11:09:18.000Z</time>
      </trkpt>
      <trkpt lat="39.484162" lon="-0.447001">
        <ele>48</ele>
        <time>2018-11-04T11:09:19.000Z</time>
      </trkpt>
      <trkpt lat="39.484122" lon="-0.447022">
        <ele>48</ele>
        <time>2018-11-04T11:09:20.000Z</time>
      </trkpt>
      <trkpt lat="39.48407" lon="-0.447035">
        <ele>48.8493100243727</ele>
        <time>2018-11-04T11:09:23.000Z</time>
      </trkpt>
      <trkpt lat="39.484036" lon="-0.447047">
        <ele>49</ele>
        <time>2018-11-04T11:09:24.000Z</time>
      </trkpt>
      <trkpt lat="39.484008" lon="-0.447036">
        <ele>49</ele>
        <time>2018-11-04T11:09:26.000Z</time>
      </trkpt>
      <trkpt lat="39.483983" lon="-0.447033">
        <ele>49.0097591228853</ele>
        <time>2018-11-04T11:09:28.000Z</time>
      </trkpt>
      <trkpt lat="39.483818" lon="-0.447182">
        <ele>54</ele>
        <time>2018-11-04T11:13:03.000Z</time>
      </trkpt>
      <trkpt lat="39.483817" lon="-0.447211">
        <ele>54.7499927272727</ele>
        <time>2018-11-04T11:13:06.000Z</time>
      </trkpt>
      <trkpt lat="39.483817" lon="-0.447256">
        <ele>55</ele>
        <time>2018-11-04T11:13:08.000Z</time>
      </trkpt>
      <trkpt lat="39.483828" lon="-0.447278">
        <ele>55</ele>
        <time>2018-11-04T11:13:09.000Z</time>
      </trkpt>
      <trkpt lat="39.483844" lon="-0.4473">
        <ele>55</ele>
        <time>2018-11-04T11:13:10.000Z</time>
      </trkpt>
      <trkpt lat="39.483855" lon="-0.447336">
        <ele>55</ele>
        <time>2018-11-04T11:13:11.000Z</time>
      </trkpt>
      <trkpt lat="39.483866" lon="-0.447379">
        <ele>55</ele>
        <time>2018-11-04T11:13:12.000Z</time>
      </trkpt>
      <trkpt lat="39.483879" lon="-0.447422">
        <ele>54.3100782885663</ele>
        <time>2018-11-04T11:13:13.000Z</time>
      </trkpt>
      <trkpt lat="39.483888" lon="-0.447462">
        <ele>54</ele>
        <time>2018-11-04T11:13:14.000Z</time>
      </trkpt>
      <trkpt lat="39.483897" lon="-0.447495">
        <ele>54</ele>
        <time>2018-11-04T11:13:15.000Z</time>
      </trkpt>
      <trkpt lat="39.483893" lon="-0.447532">
        <ele>54</ele>
        <time>2018-11-04T11:13:16.000Z</time>
      </trkpt>
      <trkpt lat="39.483873" lon="-0.447578">
        <ele>54</ele>
        <time>2018-11-04T11:13:17.000Z</time>
      </trkpt>
      <trkpt lat="39.483848" lon="-0.447612">
        <ele>54</ele>
        <time>2018-11-04T11:13:18.000Z</time>
      </trkpt>
      <trkpt lat="39.48382" lon="-0.447638">
        <ele>54</ele>
        <time>2018-11-04T11:13:19.000Z</time>
      </trkpt>
      <trkpt lat="39.483791" lon="-0.447663">
        <ele>54</ele>
        <time>2018-11-04T11:13:20.000Z</time>
      </trkpt>
      <trkpt lat="39.483762" lon="-0.447687">
        <ele>54</ele>
        <time>2018-11-04T11:13:21.000Z</time>
      </trkpt>
      <trkpt lat="39.48373" lon="-0.447708">
        <ele>53.5348837209302</ele>
        <time>2018-11-04T11:13:22.000Z</time>
      </trkpt>
      <trkpt lat="39.483701" lon="-0.447726">
        <ele>53</ele>
        <time>2018-11-04T11:13:23.000Z</time>
      </trkpt>
      <trkpt lat="39.483616" lon="-0.447777">
        <ele>53</ele>
        <time>2018-11-04T11:13:26.000Z</time>
      </trkpt>
      <trkpt lat="39.483502" lon="-0.447851">
        <ele>53</ele>
        <time>2018-11-04T11:13:29.000Z</time>
      </trkpt>
      <trkpt lat="39.483433" lon="-0.447914">
        <ele>53</ele>
        <time>2018-11-04T11:13:31.000Z</time>
      </trkpt>
      <trkpt lat="39.48341" lon="-0.447937">
        <ele>52.1100032</ele>
        <time>2018-11-04T11:13:32.000Z</time>
      </trkpt>
      <trkpt lat="39.483391" lon="-0.447944">
        <ele>52</ele>
        <time>2018-11-04T11:13:33.000Z</time>
      </trkpt>
      <trkpt lat="39.483368" lon="-0.447955">
        <ele>52</ele>
        <time>2018-11-04T11:13:34.000Z</time>
      </trkpt>
      <trkpt lat="39.483345" lon="-0.447959">
        <ele>52</ele>
        <time>2018-11-04T11:13:35.000Z</time>
      </trkpt>
      <trkpt lat="39.483324" lon="-0.447969">
        <ele>52</ele>
        <time>2018-11-04T11:13:36.000Z</time>
      </trkpt>
      <trkpt lat="39.483307" lon="-0.447978">
        <ele>52.8899968</ele>
        <time>2018-11-04T11:13:37.000Z</time>
      </trkpt>
      <trkpt lat="39.483287" lon="-0.44799">
        <ele>53</ele>
        <time>2018-11-04T11:13:38.000Z</time>
      </trkpt>
      <trkpt lat="39.48326" lon="-0.447993">
        <ele>52.1549333862157</ele>
        <time>2018-11-04T11:13:39.000Z</time>
      </trkpt>
      <trkpt lat="39.483234" lon="-0.447995">
        <ele>52</ele>
        <time>2018-11-04T11:13:40.000Z</time>
      </trkpt>
      <trkpt lat="39.483194" lon="-0.447979">
        <ele>52</ele>
        <time>2018-11-04T11:13:42.000Z</time>
      </trkpt>
      <trkpt lat="39.483166" lon="-0.447965">
        <ele>52</ele>
        <time>2018-11-04T11:13:43.000Z</time>
      </trkpt>
      <trkpt lat="39.48313" lon="-0.447944">
        <ele>52</ele>
        <time>2018-11-04T11:13:44.000Z</time>
      </trkpt>
      <trkpt lat="39.483099" lon="-0.447925">
        <ele>51.1100032</ele>
        <time>2018-11-04T11:13:45.000Z</time>
      </trkpt>
      <trkpt lat="39.483062" lon="-0.447912">
        <ele>51</ele>
        <time>2018-11-04T11:13:46.000Z</time>
      </trkpt>
      <trkpt lat="39.483031" lon="-0.447905">
        <ele>51</ele>
        <time>2018-11-04T11:13:47.000Z</time>
      </trkpt>
      <trkpt lat="39.482989" lon="-0.4479">
        <ele>51.8899968</ele>
        <time>2018-11-04T11:13:48.000Z</time>
      </trkpt>
      <trkpt lat="39.482962" lon="-0.447899">
        <ele>52</ele>
        <time>2018-11-04T11:13:49.000Z</time>
      </trkpt>
      <trkpt lat="39.482935" lon="-0.447893">
        <ele>52</ele>
        <time>2018-11-04T11:13:50.000Z</time>
      </trkpt>
      <trkpt lat="39.482915" lon="-0.447894">
        <ele>52</ele>
        <time>2018-11-04T11:13:51.000Z</time>
      </trkpt>
      <trkpt lat="39.482896" lon="-0.447897">
        <ele>52</ele>
        <time>2018-11-04T11:13:54.000Z</time>
      </trkpt>
      <trkpt lat="39.482861" lon="-0.447874">
        <ele>53</ele>
        <time>2018-11-04T11:13:58.000Z</time>
      </trkpt>
      <trkpt lat="39.48284" lon="-0.447889">
        <ele>53</ele>
        <time>2018-11-04T11:14:00.000Z</time>
      </trkpt>
      <trkpt lat="39.482823" lon="-0.447899">
        <ele>53</ele>
        <time>2018-11-04T11:14:01.000Z</time>
      </trkpt>
      <trkpt lat="39.482802" lon="-0.447904">
        <ele>53</ele>
        <time>2018-11-04T11:14:02.000Z</time>
      </trkpt>
      <trkpt lat="39.48278" lon="-0.447909">
        <ele>53</ele>
        <time>2018-11-04T11:14:03.000Z</time>
      </trkpt>
      <trkpt lat="39.482754" lon="-0.44791">
        <ele>53</ele>
        <time>2018-11-04T11:14:04.000Z</time>
      </trkpt>
      <trkpt lat="39.482724" lon="-0.447903">
        <ele>53</ele>
        <time>2018-11-04T11:14:05.000Z</time>
      </trkpt>
      <trkpt lat="39.482696" lon="-0.447894">
        <ele>53</ele>
        <time>2018-11-04T11:14:06.000Z</time>
      </trkpt>
      <trkpt lat="39.482664" lon="-0.447882">
        <ele>53</ele>
        <time>2018-11-04T11:14:07.000Z</time>
      </trkpt>
      <trkpt lat="39.482632" lon="-0.447863">
        <ele>53.8899968</ele>
        <time>2018-11-04T11:14:08.000Z</time>
      </trkpt>
      <trkpt lat="39.482607" lon="-0.447851">
        <ele>54</ele>
        <time>2018-11-04T11:14:09.000Z</time>
      </trkpt>
      <trkpt lat="39.482579" lon="-0.447848">
        <ele>54</ele>
        <time>2018-11-04T11:14:10.000Z</time>
      </trkpt>
      <trkpt lat="39.482543" lon="-0.447853">
        <ele>54.8899968</ele>
        <time>2018-11-04T11:14:12.000Z</time>
      </trkpt>
      <trkpt lat="39.482517" lon="-0.447857">
        <ele>55</ele>
        <time>2018-11-04T11:14:13.000Z</time>
      </trkpt>
      <trkpt lat="39.482492" lon="-0.447868">
        <ele>55</ele>
        <time>2018-11-04T11:14:14.000Z</time>
      </trkpt>
      <trkpt lat="39.482463" lon="-0.447879">
        <ele>55</ele>
        <time>2018-11-04T11:14:15.000Z</time>
      </trkpt>
      <trkpt lat="39.482437" lon="-0.447893">
        <ele>55</ele>
        <time>2018-11-04T11:14:16.000Z</time>
      </trkpt>
      <trkpt lat="39.482405" lon="-0.447906">
        <ele>55</ele>
        <time>2018-11-04T11:14:17.000Z</time>
      </trkpt>
      <trkpt lat="39.482375" lon="-0.447914">
        <ele>55.8899968</ele>
        <time>2018-11-04T11:14:18.000Z</time>
      </trkpt>
      <trkpt lat="39.48235" lon="-0.447919">
        <ele>56</ele>
        <time>2018-11-04T11:14:19.000Z</time>
      </trkpt>
      <trkpt lat="39.482319" lon="-0.447923">
        <ele>56</ele>
        <time>2018-11-04T11:14:20.000Z</time>
      </trkpt>
      <trkpt lat="39.482281" lon="-0.44792">
        <ele>56</ele>
        <time>2018-11-04T11:14:21.000Z</time>
      </trkpt>
      <trkpt lat="39.482234" lon="-0.44792">
        <ele>56</ele>
        <time>2018-11-04T11:14:22.000Z</time>
      </trkpt>
      <trkpt lat="39.48217" lon="-0.447901">
        <ele>56.8899968</ele>
        <time>2018-11-04T11:14:23.000Z</time>
      </trkpt>
      <trkpt lat="39.48212" lon="-0.447903">
        <ele>57</ele>
        <time>2018-11-04T11:14:24.000Z</time>
      </trkpt>
      <trkpt lat="39.482071" lon="-0.447908">
        <ele>57</ele>
        <time>2018-11-04T11:14:25.000Z</time>
      </trkpt>
      <trkpt lat="39.482023" lon="-0.447913">
        <ele>57</ele>
        <time>2018-11-04T11:14:26.000Z</time>
      </trkpt>
      <trkpt lat="39.481976" lon="-0.44792">
        <ele>57</ele>
        <time>2018-11-04T11:14:27.000Z</time>
      </trkpt>
      <trkpt lat="39.481926" lon="-0.447926">
        <ele>57</ele>
        <time>2018-11-04T11:14:28.000Z</time>
      </trkpt>
      <trkpt lat="39.481875" lon="-0.447931">
        <ele>57</ele>
        <time>2018-11-04T11:14:29.000Z</time>
      </trkpt>
      <trkpt lat="39.481827" lon="-0.447943">
        <ele>57.6793918489784</ele>
        <time>2018-11-04T11:14:30.000Z</time>
      </trkpt>
      <trkpt lat="39.48177" lon="-0.447942">
        <ele>58</ele>
        <time>2018-11-04T11:14:31.000Z</time>
      </trkpt>
      <trkpt lat="39.481719" lon="-0.447952">
        <ele>58.872551357185</ele>
        <time>2018-11-04T11:14:32.000Z</time>
      </trkpt>
      <trkpt lat="39.481673" lon="-0.447968">
        <ele>59</ele>
        <time>2018-11-04T11:14:33.000Z</time>
      </trkpt>
      <trkpt lat="39.481623" lon="-0.447982">
        <ele>59</ele>
        <time>2018-11-04T11:14:34.000Z</time>
      </trkpt>
      <trkpt lat="39.481572" lon="-0.447996">
        <ele>59</ele>
        <time>2018-11-04T11:14:35.000Z</time>
      </trkpt>
      <trkpt lat="39.48152" lon="-0.448007">
        <ele>59</ele>
        <time>2018-11-04T11:14:36.000Z</time>
      </trkpt>
      <trkpt lat="39.48147" lon="-0.44802">
        <ele>59</ele>
        <time>2018-11-04T11:14:37.000Z</time>
      </trkpt>
      <trkpt lat="39.481422" lon="-0.448035">
        <ele>59.6846162934956</ele>
        <time>2018-11-04T11:14:38.000Z</time>
      </trkpt>
      <trkpt lat="39.48137" lon="-0.448047">
        <ele>60</ele>
        <time>2018-11-04T11:14:39.000Z</time>
      </trkpt>
      <trkpt lat="39.481322" lon="-0.448064">
        <ele>60</ele>
        <time>2018-11-04T11:14:40.000Z</time>
      </trkpt>
      <trkpt lat="39.481275" lon="-0.448081">
        <ele>60</ele>
        <time>2018-11-04T11:14:41.000Z</time>
      </trkpt>
      <trkpt lat="39.481231" lon="-0.448095">
        <ele>60</ele>
        <time>2018-11-04T11:14:42.000Z</time>
      </trkpt>
      <trkpt lat="39.481184" lon="-0.448109">
        <ele>59.1100032</ele>
        <time>2018-11-04T11:14:43.000Z</time>
      </trkpt>
      <trkpt lat="39.481139" lon="-0.448127">
        <ele>59</ele>
        <time>2018-11-04T11:14:44.000Z</time>
      </trkpt>
      <trkpt lat="39.481095" lon="-0.448145">
        <ele>59</ele>
        <time>2018-11-04T11:14:45.000Z</time>
      </trkpt>
      <trkpt lat="39.481052" lon="-0.448164">
        <ele>59</ele>
        <time>2018-11-04T11:14:46.000Z</time>
      </trkpt>
      <trkpt lat="39.481011" lon="-0.448184">
        <ele>59</ele>
        <time>2018-11-04T11:14:47.000Z</time>
      </trkpt>
      <trkpt lat="39.480968" lon="-0.448202">
        <ele>59</ele>
        <time>2018-11-04T11:14:48.000Z</time>
      </trkpt>
      <trkpt lat="39.480926" lon="-0.448221">
        <ele>59</ele>
        <time>2018-11-04T11:14:49.000Z</time>
      </trkpt>
      <trkpt lat="39.480883" lon="-0.448242">
        <ele>59</ele>
        <time>2018-11-04T11:14:50.000Z</time>
      </trkpt>
      <trkpt lat="39.48084" lon="-0.448267">
        <ele>59</ele>
        <time>2018-11-04T11:14:51.000Z</time>
      </trkpt>
      <trkpt lat="39.480801" lon="-0.448292">
        <ele>59</ele>
        <time>2018-11-04T11:14:52.000Z</time>
      </trkpt>
      <trkpt lat="39.480762" lon="-0.448317">
        <ele>59</ele>
        <time>2018-11-04T11:14:53.000Z</time>
      </trkpt>
      <trkpt lat="39.480733" lon="-0.448354">
        <ele>59</ele>
        <time>2018-11-04T11:14:54.000Z</time>
      </trkpt>
      <trkpt lat="39.480704" lon="-0.448391">
        <ele>58.1100032</ele>
        <time>2018-11-04T11:14:55.000Z</time>
      </trkpt>
      <trkpt lat="39.480673" lon="-0.448427">
        <ele>57.1100032</ele>
        <time>2018-11-04T11:14:56.000Z</time>
      </trkpt>
      <trkpt lat="39.48064" lon="-0.448454">
        <ele>56.3206147893379</ele>
        <time>2018-11-04T11:14:57.000Z</time>
      </trkpt>
      <trkpt lat="39.480605" lon="-0.448474">
        <ele>55.1594256669016</ele>
        <time>2018-11-04T11:14:58.000Z</time>
      </trkpt>
      <trkpt lat="39.480564" lon="-0.448484">
        <ele>55</ele>
        <time>2018-11-04T11:14:59.000Z</time>
      </trkpt>
      <trkpt lat="39.480524" lon="-0.448498">
        <ele>54.258336</ele>
        <time>2018-11-04T11:15:00.000Z</time>
      </trkpt>
      <trkpt lat="39.480486" lon="-0.448523">
        <ele>53.137504</ele>
        <time>2018-11-04T11:15:01.000Z</time>
      </trkpt>
      <trkpt lat="39.480443" lon="-0.448554">
        <ele>52.3206081510216</ele>
        <time>2018-11-04T11:15:02.000Z</time>
      </trkpt>
      <trkpt lat="39.480399" lon="-0.448588">
        <ele>52</ele>
        <time>2018-11-04T11:15:03.000Z</time>
      </trkpt>
      <trkpt lat="39.480354" lon="-0.448623">
        <ele>51.127448642815</ele>
        <time>2018-11-04T11:15:04.000Z</time>
      </trkpt>
      <trkpt lat="39.48031" lon="-0.44866">
        <ele>51</ele>
        <time>2018-11-04T11:15:05.000Z</time>
      </trkpt>
      <trkpt lat="39.480268" lon="-0.448697">
        <ele>50.1100032</ele>
        <time>2018-11-04T11:15:06.000Z</time>
      </trkpt>
      <trkpt lat="39.480223" lon="-0.448721">
        <ele>50</ele>
        <time>2018-11-04T11:15:07.000Z</time>
      </trkpt>
      <trkpt lat="39.480183" lon="-0.448728">
        <ele>50</ele>
        <time>2018-11-04T11:15:08.000Z</time>
      </trkpt>
      <trkpt lat="39.480146" lon="-0.448744">
        <ele>49.1100032</ele>
        <time>2018-11-04T11:15:09.000Z</time>
      </trkpt>
      <trkpt lat="39.48011" lon="-0.448771">
        <ele>49</ele>
        <time>2018-11-04T11:15:10.000Z</time>
      </trkpt>
      <trkpt lat="39.480067" lon="-0.448795">
        <ele>49</ele>
        <time>2018-11-04T11:15:11.000Z</time>
      </trkpt>
      <trkpt lat="39.480022" lon="-0.44882">
        <ele>49</ele>
        <time>2018-11-04T11:15:12.000Z</time>
      </trkpt>
      <trkpt lat="39.479977" lon="-0.448848">
        <ele>48.1571459918081</ele>
        <time>2018-11-04T11:15:13.000Z</time>
      </trkpt>
      <trkpt lat="39.479929" lon="-0.44888">
        <ele>48</ele>
        <time>2018-11-04T11:15:14.000Z</time>
      </trkpt>
      <trkpt lat="39.479879" lon="-0.448912">
        <ele>48</ele>
        <time>2018-11-04T11:15:15.000Z</time>
      </trkpt>
      <trkpt lat="39.47983" lon="-0.448948">
        <ele>48</ele>
        <time>2018-11-04T11:15:16.000Z</time>
      </trkpt>
      <trkpt lat="39.479776" lon="-0.448984">
        <ele>47.1594227094811</ele>
        <time>2018-11-04T11:15:17.000Z</time>
      </trkpt>
      <trkpt lat="39.479722" lon="-0.449018">
        <ele>47</ele>
        <time>2018-11-04T11:15:18.000Z</time>
      </trkpt>
      <trkpt lat="39.479668" lon="-0.449053">
        <ele>47</ele>
        <time>2018-11-04T11:15:19.000Z</time>
      </trkpt>
      <trkpt lat="39.479615" lon="-0.449086">
        <ele>47</ele>
        <time>2018-11-04T11:15:20.000Z</time>
      </trkpt>
      <trkpt lat="39.479564" lon="-0.449118">
        <ele>47</ele>
        <time>2018-11-04T11:15:21.000Z</time>
      </trkpt>
      <trkpt lat="39.479516" lon="-0.449147">
        <ele>46.1594256669016</ele>
        <time>2018-11-04T11:15:22.000Z</time>
      </trkpt>
      <trkpt lat="39.479471" lon="-0.449173">
        <ele>46</ele>
        <time>2018-11-04T11:15:23.000Z</time>
      </trkpt>
      <trkpt lat="39.479421" lon="-0.449197">
        <ele>45.111113984278</ele>
        <time>2018-11-04T11:15:24.000Z</time>
      </trkpt>
      <trkpt lat="39.479375" lon="-0.449226">
        <ele>45</ele>
        <time>2018-11-04T11:15:25.000Z</time>
      </trkpt>
      <trkpt lat="39.479324" lon="-0.449258">
        <ele>45</ele>
        <time>2018-11-04T11:15:26.000Z</time>
      </trkpt>
      <trkpt lat="39.479275" lon="-0.449286">
        <ele>45</ele>
        <time>2018-11-04T11:15:27.000Z</time>
      </trkpt>
      <trkpt lat="39.47923" lon="-0.449314">
        <ele>45</ele>
        <time>2018-11-04T11:15:28.000Z</time>
      </trkpt>
      <trkpt lat="39.479183" lon="-0.449337">
        <ele>45</ele>
        <time>2018-11-04T11:15:29.000Z</time>
      </trkpt>
      <trkpt lat="39.479136" lon="-0.449354">
        <ele>45</ele>
        <time>2018-11-04T11:15:30.000Z</time>
      </trkpt>
      <trkpt lat="39.479092" lon="-0.449374">
        <ele>45</ele>
        <time>2018-11-04T11:15:31.000Z</time>
      </trkpt>
      <trkpt lat="39.479007" lon="-0.449414">
        <ele>45</ele>
        <time>2018-11-04T11:15:33.000Z</time>
      </trkpt>
      <trkpt lat="39.47891" lon="-0.449461">
        <ele>45</ele>
        <time>2018-11-04T11:15:35.000Z</time>
      </trkpt>
      <trkpt lat="39.478809" lon="-0.449531">
        <ele>45</ele>
        <time>2018-11-04T11:15:37.000Z</time>
      </trkpt>
      <trkpt lat="39.478746" lon="-0.449588">
        <ele>44.111113984278</ele>
        <time>2018-11-04T11:15:38.000Z</time>
      </trkpt>
      <trkpt lat="39.478685" lon="-0.44965">
        <ele>44</ele>
        <time>2018-11-04T11:15:39.000Z</time>
      </trkpt>
      <trkpt lat="39.478628" lon="-0.449695">
        <ele>44</ele>
        <time>2018-11-04T11:15:40.000Z</time>
      </trkpt>
      <trkpt lat="39.478576" lon="-0.449733">
        <ele>44</ele>
        <time>2018-11-04T11:15:41.000Z</time>
      </trkpt>
      <trkpt lat="39.478525" lon="-0.449766">
        <ele>44</ele>
        <time>2018-11-04T11:15:42.000Z</time>
      </trkpt>
      <trkpt lat="39.47848" lon="-0.449795">
        <ele>43.1100032</ele>
        <time>2018-11-04T11:15:43.000Z</time>
      </trkpt>
      <trkpt lat="39.478435" lon="-0.449822">
        <ele>42.1100032</ele>
        <time>2018-11-04T11:15:44.000Z</time>
      </trkpt>
      <trkpt lat="39.478393" lon="-0.449849">
        <ele>42</ele>
        <time>2018-11-04T11:15:45.000Z</time>
      </trkpt>
      <trkpt lat="39.478356" lon="-0.449877">
        <ele>42</ele>
        <time>2018-11-04T11:15:46.000Z</time>
      </trkpt>
      <trkpt lat="39.478323" lon="-0.449905">
        <ele>41.1100032</ele>
        <time>2018-11-04T11:15:47.000Z</time>
      </trkpt>
      <trkpt lat="39.47829" lon="-0.449934">
        <ele>41</ele>
        <time>2018-11-04T11:15:48.000Z</time>
      </trkpt>
      <trkpt lat="39.478259" lon="-0.449962">
        <ele>41</ele>
        <time>2018-11-04T11:15:49.000Z</time>
      </trkpt>
      <trkpt lat="39.478229" lon="-0.44999">
        <ele>40.3206081510216</ele>
        <time>2018-11-04T11:15:50.000Z</time>
      </trkpt>
      <trkpt lat="39.478197" lon="-0.450018">
        <ele>40</ele>
        <time>2018-11-04T11:15:51.000Z</time>
      </trkpt>
      <trkpt lat="39.478165" lon="-0.450048">
        <ele>40</ele>
        <time>2018-11-04T11:15:52.000Z</time>
      </trkpt>
      <trkpt lat="39.478133" lon="-0.450078">
        <ele>40</ele>
        <time>2018-11-04T11:15:53.000Z</time>
      </trkpt>
      <trkpt lat="39.478104" lon="-0.450109">
        <ele>40</ele>
        <time>2018-11-04T11:15:54.000Z</time>
      </trkpt>
      <trkpt lat="39.478076" lon="-0.450144">
        <ele>40</ele>
        <time>2018-11-04T11:15:55.000Z</time>
      </trkpt>
      <trkpt lat="39.478048" lon="-0.450181">
        <ele>39.1100032</ele>
        <time>2018-11-04T11:15:56.000Z</time>
      </trkpt>
      <trkpt lat="39.478022" lon="-0.450216">
        <ele>39</ele>
        <time>2018-11-04T11:15:57.000Z</time>
      </trkpt>
      <trkpt lat="39.477998" lon="-0.45025">
        <ele>39</ele>
        <time>2018-11-04T11:15:58.000Z</time>
      </trkpt>
      <trkpt lat="39.477971" lon="-0.450285">
        <ele>39</ele>
        <time>2018-11-04T11:15:59.000Z</time>
      </trkpt>
      <trkpt lat="39.477946" lon="-0.450317">
        <ele>39</ele>
        <time>2018-11-04T11:16:00.000Z</time>
      </trkpt>
      <trkpt lat="39.477923" lon="-0.450348">
        <ele>39</ele>
        <time>2018-11-04T11:16:01.000Z</time>
      </trkpt>
      <trkpt lat="39.477905" lon="-0.450381">
        <ele>39</ele>
        <time>2018-11-04T11:16:02.000Z</time>
      </trkpt>
      <trkpt lat="39.477894" lon="-0.450411">
        <ele>39.8899968</ele>
        <time>2018-11-04T11:16:03.000Z</time>
      </trkpt>
      <trkpt lat="39.477893" lon="-0.450444">
        <ele>40</ele>
        <time>2018-11-04T11:16:04.000Z</time>
      </trkpt>
      <trkpt lat="39.477888" lon="-0.450485">
        <ele>40</ele>
        <time>2018-11-04T11:16:05.000Z</time>
      </trkpt>
      <trkpt lat="39.477884" lon="-0.450524">
        <ele>40</ele>
        <time>2018-11-04T11:16:06.000Z</time>
      </trkpt>
      <trkpt lat="39.477875" lon="-0.450568">
        <ele>40</ele>
        <time>2018-11-04T11:16:07.000Z</time>
      </trkpt>
      <trkpt lat="39.477871" lon="-0.450608">
        <ele>40</ele>
        <time>2018-11-04T11:16:08.000Z</time>
      </trkpt>
      <trkpt lat="39.477867" lon="-0.450645">
        <ele>40.8899968</ele>
        <time>2018-11-04T11:16:09.000Z</time>
      </trkpt>
      <trkpt lat="39.477861" lon="-0.450682">
        <ele>41</ele>
        <time>2018-11-04T11:16:10.000Z</time>
      </trkpt>
      <trkpt lat="39.477856" lon="-0.45072">
        <ele>41</ele>
        <time>2018-11-04T11:16:11.000Z</time>
      </trkpt>
      <trkpt lat="39.477844" lon="-0.450752">
        <ele>41</ele>
        <time>2018-11-04T11:16:12.000Z</time>
      </trkpt>
      <trkpt lat="39.477821" lon="-0.450783">
        <ele>41.6846162934956</ele>
        <time>2018-11-04T11:16:13.000Z</time>
      </trkpt>
      <trkpt lat="39.477794" lon="-0.450805">
        <ele>42</ele>
        <time>2018-11-04T11:16:14.000Z</time>
      </trkpt>
      <trkpt lat="39.477766" lon="-0.45083">
        <ele>42</ele>
        <time>2018-11-04T11:16:15.000Z</time>
      </trkpt>
      <trkpt lat="39.477741" lon="-0.450864">
        <ele>42</ele>
        <time>2018-11-04T11:16:16.000Z</time>
      </trkpt>
      <trkpt lat="39.47772" lon="-0.450899">
        <ele>42</ele>
        <time>2018-11-04T11:16:17.000Z</time>
      </trkpt>
      <trkpt lat="39.477701" lon="-0.450939">
        <ele>42.8899968</ele>
        <time>2018-11-04T11:16:18.000Z</time>
      </trkpt>
      <trkpt lat="39.477693" lon="-0.450983">
        <ele>43</ele>
        <time>2018-11-04T11:16:19.000Z</time>
      </trkpt>
      <trkpt lat="39.4777" lon="-0.451028">
        <ele>43</ele>
        <time>2018-11-04T11:16:20.000Z</time>
      </trkpt>
      <trkpt lat="39.477702" lon="-0.451071">
        <ele>43</ele>
        <time>2018-11-04T11:16:21.000Z</time>
      </trkpt>
      <trkpt lat="39.477685" lon="-0.451104">
        <ele>43</ele>
        <time>2018-11-04T11:16:22.000Z</time>
      </trkpt>
      <trkpt lat="39.477661" lon="-0.451127">
        <ele>43.8899968</ele>
        <time>2018-11-04T11:16:23.000Z</time>
      </trkpt>
      <trkpt lat="39.477637" lon="-0.451155">
        <ele>44</ele>
        <time>2018-11-04T11:16:24.000Z</time>
      </trkpt>
      <trkpt lat="39.477616" lon="-0.451194">
        <ele>44</ele>
        <time>2018-11-04T11:16:25.000Z</time>
      </trkpt>
      <trkpt lat="39.477598" lon="-0.451239">
        <ele>44</ele>
        <time>2018-11-04T11:16:26.000Z</time>
      </trkpt>
      <trkpt lat="39.477582" lon="-0.451285">
        <ele>44</ele>
        <time>2018-11-04T11:16:27.000Z</time>
      </trkpt>
      <trkpt lat="39.477565" lon="-0.451332">
        <ele>44.8899968</ele>
        <time>2018-11-04T11:16:28.000Z</time>
      </trkpt>
      <trkpt lat="39.47755" lon="-0.451381">
        <ele>45</ele>
        <time>2018-11-04T11:16:29.000Z</time>
      </trkpt>
      <trkpt lat="39.477537" lon="-0.451433">
        <ele>45</ele>
        <time>2018-11-04T11:16:30.000Z</time>
      </trkpt>
      <trkpt lat="39.477523" lon="-0.451487">
        <ele>45</ele>
        <time>2018-11-04T11:16:31.000Z</time>
      </trkpt>
      <trkpt lat="39.477508" lon="-0.451539">
        <ele>45</ele>
        <time>2018-11-04T11:16:32.000Z</time>
      </trkpt>
      <trkpt lat="39.477495" lon="-0.451591">
        <ele>45</ele>
        <time>2018-11-04T11:16:33.000Z</time>
      </trkpt>
      <trkpt lat="39.477478" lon="-0.45164">
        <ele>45</ele>
        <time>2018-11-04T11:16:34.000Z</time>
      </trkpt>
      <trkpt lat="39.477459" lon="-0.451691">
        <ele>45</ele>
        <time>2018-11-04T11:16:35.000Z</time>
      </trkpt>
      <trkpt lat="39.47744" lon="-0.451744">
        <ele>45</ele>
        <time>2018-11-04T11:16:36.000Z</time>
      </trkpt>
      <trkpt lat="39.477419" lon="-0.451796">
        <ele>45</ele>
        <time>2018-11-04T11:16:37.000Z</time>
      </trkpt>
      <trkpt lat="39.477401" lon="-0.45185">
        <ele>45</ele>
        <time>2018-11-04T11:16:38.000Z</time>
      </trkpt>
      <trkpt lat="39.477383" lon="-0.451901">
        <ele>45.8899968</ele>
        <time>2018-11-04T11:16:39.000Z</time>
      </trkpt>
      <trkpt lat="39.477365" lon="-0.451952">
        <ele>46</ele>
        <time>2018-11-04T11:16:40.000Z</time>
      </trkpt>
      <trkpt lat="39.47735" lon="-0.452004">
        <ele>46</ele>
        <time>2018-11-04T11:16:41.000Z</time>
      </trkpt>
      <trkpt lat="39.477335" lon="-0.452057">
        <ele>46</ele>
        <time>2018-11-04T11:16:42.000Z</time>
      </trkpt>
      <trkpt lat="39.477319" lon="-0.452109">
        <ele>46</ele>
        <time>2018-11-04T11:16:43.000Z</time>
      </trkpt>
      <trkpt lat="39.477301" lon="-0.452159">
        <ele>46</ele>
        <time>2018-11-04T11:16:44.000Z</time>
      </trkpt>
      <trkpt lat="39.477282" lon="-0.452208">
        <ele>46</ele>
        <time>2018-11-04T11:16:45.000Z</time>
      </trkpt>
      <trkpt lat="39.477265" lon="-0.452257">
        <ele>46</ele>
        <time>2018-11-04T11:16:46.000Z</time>
      </trkpt>
      <trkpt lat="39.477246" lon="-0.452304">
        <ele>46</ele>
        <time>2018-11-04T11:16:47.000Z</time>
      </trkpt>
      <trkpt lat="39.477228" lon="-0.452352">
        <ele>46</ele>
        <time>2018-11-04T11:16:48.000Z</time>
      </trkpt>
      <trkpt lat="39.477209" lon="-0.452401">
        <ele>46</ele>
        <time>2018-11-04T11:16:49.000Z</time>
      </trkpt>
      <trkpt lat="39.477197" lon="-0.452451">
        <ele>46</ele>
        <time>2018-11-04T11:16:50.000Z</time>
      </trkpt>
      <trkpt lat="39.477196" lon="-0.452504">
        <ele>46</ele>
        <time>2018-11-04T11:16:51.000Z</time>
      </trkpt>
      <trkpt lat="39.477205" lon="-0.452558">
        <ele>46</ele>
        <time>2018-11-04T11:16:52.000Z</time>
      </trkpt>
      <trkpt lat="39.47722" lon="-0.452606">
        <ele>46</ele>
        <time>2018-11-04T11:16:53.000Z</time>
      </trkpt>
      <trkpt lat="39.477245" lon="-0.452639">
        <ele>46.888886015722</ele>
        <time>2018-11-04T11:16:54.000Z</time>
      </trkpt>
      <trkpt lat="39.477272" lon="-0.452652">
        <ele>46.1100032</ele>
        <time>2018-11-04T11:16:55.000Z</time>
      </trkpt>
      <trkpt lat="39.4773" lon="-0.452646">
        <ele>46.8899968</ele>
        <time>2018-11-04T11:16:56.000Z</time>
      </trkpt>
      <trkpt lat="39.477323" lon="-0.452644">
        <ele>47</ele>
        <time>2018-11-04T11:16:57.000Z</time>
      </trkpt>
      <trkpt lat="39.477345" lon="-0.452665">
        <ele>47</ele>
        <time>2018-11-04T11:16:58.000Z</time>
      </trkpt>
      <trkpt lat="39.477358" lon="-0.452706">
        <ele>47</ele>
        <time>2018-11-04T11:16:59.000Z</time>
      </trkpt>
      <trkpt lat="39.477349" lon="-0.452749">
        <ele>47</ele>
        <time>2018-11-04T11:17:00.000Z</time>
      </trkpt>
      <trkpt lat="39.477328" lon="-0.452786">
        <ele>47</ele>
        <time>2018-11-04T11:17:01.000Z</time>
      </trkpt>
      <trkpt lat="39.477301" lon="-0.452812">
        <ele>47</ele>
        <time>2018-11-04T11:17:02.000Z</time>
      </trkpt>
      <trkpt lat="39.47727" lon="-0.452831">
        <ele>47</ele>
        <time>2018-11-04T11:17:03.000Z</time>
      </trkpt>
      <trkpt lat="39.477235" lon="-0.452847">
        <ele>47</ele>
        <time>2018-11-04T11:17:04.000Z</time>
      </trkpt>
      <trkpt lat="39.477199" lon="-0.452863">
        <ele>46.1100032</ele>
        <time>2018-11-04T11:17:05.000Z</time>
      </trkpt>
      <trkpt lat="39.477162" lon="-0.452879">
        <ele>46</ele>
        <time>2018-11-04T11:17:06.000Z</time>
      </trkpt>
      <trkpt lat="39.477122" lon="-0.452887">
        <ele>46</ele>
        <time>2018-11-04T11:17:07.000Z</time>
      </trkpt>
      <trkpt lat="39.477079" lon="-0.452887">
        <ele>46.8899968</ele>
        <time>2018-11-04T11:17:08.000Z</time>
      </trkpt>
      <trkpt lat="39.477037" lon="-0.452892">
        <ele>47</ele>
        <time>2018-11-04T11:17:09.000Z</time>
      </trkpt>
      <trkpt lat="39.47699" lon="-0.452901">
        <ele>47</ele>
        <time>2018-11-04T11:17:10.000Z</time>
      </trkpt>
      <trkpt lat="39.476943" lon="-0.452917">
        <ele>47</ele>
        <time>2018-11-04T11:17:11.000Z</time>
      </trkpt>
      <trkpt lat="39.476898" lon="-0.45294">
        <ele>46.1571459918081</ele>
        <time>2018-11-04T11:17:12.000Z</time>
      </trkpt>
      <trkpt lat="39.476852" lon="-0.452963">
        <ele>46</ele>
        <time>2018-11-04T11:17:13.000Z</time>
      </trkpt>
      <trkpt lat="39.476806" lon="-0.452988">
        <ele>46</ele>
        <time>2018-11-04T11:17:14.000Z</time>
      </trkpt>
      <trkpt lat="39.476759" lon="-0.453013">
        <ele>46</ele>
        <time>2018-11-04T11:17:15.000Z</time>
      </trkpt>
      <trkpt lat="39.476712" lon="-0.45304">
        <ele>46</ele>
        <time>2018-11-04T11:17:16.000Z</time>
      </trkpt>
      <trkpt lat="39.476664" lon="-0.453065">
        <ele>46</ele>
        <time>2018-11-04T11:17:17.000Z</time>
      </trkpt>
      <trkpt lat="39.476616" lon="-0.453089">
        <ele>46</ele>
        <time>2018-11-04T11:17:18.000Z</time>
      </trkpt>
      <trkpt lat="39.476569" lon="-0.453113">
        <ele>46</ele>
        <time>2018-11-04T11:17:19.000Z</time>
      </trkpt>
      <trkpt lat="39.476522" lon="-0.453139">
        <ele>46</ele>
        <time>2018-11-04T11:17:20.000Z</time>
      </trkpt>
      <trkpt lat="39.476474" lon="-0.453163">
        <ele>46</ele>
        <time>2018-11-04T11:17:21.000Z</time>
      </trkpt>
      <trkpt lat="39.476424" lon="-0.453186">
        <ele>46</ele>
        <time>2018-11-04T11:17:22.000Z</time>
      </trkpt>
      <trkpt lat="39.476375" lon="-0.45321">
        <ele>46</ele>
        <time>2018-11-04T11:17:23.000Z</time>
      </trkpt>
      <trkpt lat="39.476326" lon="-0.453234">
        <ele>46</ele>
        <time>2018-11-04T11:17:24.000Z</time>
      </trkpt>
      <trkpt lat="39.476276" lon="-0.453259">
        <ele>46</ele>
        <time>2018-11-04T11:17:25.000Z</time>
      </trkpt>
      <trkpt lat="39.476226" lon="-0.453285">
        <ele>46</ele>
        <time>2018-11-04T11:17:26.000Z</time>
      </trkpt>
      <trkpt lat="39.476176" lon="-0.45331">
        <ele>46</ele>
        <time>2018-11-04T11:17:27.000Z</time>
      </trkpt>
      <trkpt lat="39.476126" lon="-0.453337">
        <ele>46</ele>
        <time>2018-11-04T11:17:28.000Z</time>
      </trkpt>
      <trkpt lat="39.476076" lon="-0.453366">
        <ele>46</ele>
        <time>2018-11-04T11:17:29.000Z</time>
      </trkpt>
      <trkpt lat="39.476028" lon="-0.453392">
        <ele>46</ele>
        <time>2018-11-04T11:17:30.000Z</time>
      </trkpt>
      <trkpt lat="39.47598" lon="-0.453416">
        <ele>46</ele>
        <time>2018-11-04T11:17:31.000Z</time>
      </trkpt>
      <trkpt lat="39.475934" lon="-0.453443">
        <ele>46</ele>
        <time>2018-11-04T11:17:32.000Z</time>
      </trkpt>
      <trkpt lat="39.475887" lon="-0.453467">
        <ele>46</ele>
        <time>2018-11-04T11:17:33.000Z</time>
      </trkpt>
      <trkpt lat="39.47584" lon="-0.453493">
        <ele>46</ele>
        <time>2018-11-04T11:17:34.000Z</time>
      </trkpt>
      <trkpt lat="39.475794" lon="-0.453519">
        <ele>46</ele>
        <time>2018-11-04T11:17:35.000Z</time>
      </trkpt>
      <trkpt lat="39.475747" lon="-0.453545">
        <ele>46</ele>
        <time>2018-11-04T11:17:36.000Z</time>
      </trkpt>
      <trkpt lat="39.475702" lon="-0.453574">
        <ele>46</ele>
        <time>2018-11-04T11:17:37.000Z</time>
      </trkpt>
      <trkpt lat="39.475658" lon="-0.453609">
        <ele>46</ele>
        <time>2018-11-04T11:17:38.000Z</time>
      </trkpt>
      <trkpt lat="39.475617" lon="-0.453649">
        <ele>46</ele>
        <time>2018-11-04T11:17:39.000Z</time>
      </trkpt>
      <trkpt lat="39.475578" lon="-0.453693">
        <ele>46</ele>
        <time>2018-11-04T11:17:40.000Z</time>
      </trkpt>
      <trkpt lat="39.475543" lon="-0.453743">
        <ele>46</ele>
        <time>2018-11-04T11:17:41.000Z</time>
      </trkpt>
      <trkpt lat="39.475519" lon="-0.453803">
        <ele>46</ele>
        <time>2018-11-04T11:17:42.000Z</time>
      </trkpt>
      <trkpt lat="39.475505" lon="-0.453867">
        <ele>46</ele>
        <time>2018-11-04T11:17:43.000Z</time>
      </trkpt>
      <trkpt lat="39.47549" lon="-0.453929">
        <ele>46</ele>
        <time>2018-11-04T11:17:44.000Z</time>
      </trkpt>
      <trkpt lat="39.475471" lon="-0.45399">
        <ele>46</ele>
        <time>2018-11-04T11:17:45.000Z</time>
      </trkpt>
      <trkpt lat="39.475444" lon="-0.454047">
        <ele>46</ele>
        <time>2018-11-04T11:17:46.000Z</time>
      </trkpt>
      <trkpt lat="39.475404" lon="-0.454089">
        <ele>46</ele>
        <time>2018-11-04T11:17:47.000Z</time>
      </trkpt>
      <trkpt lat="39.475356" lon="-0.454111">
        <ele>46</ele>
        <time>2018-11-04T11:17:48.000Z</time>
      </trkpt>
      <trkpt lat="39.475304" lon="-0.454111">
        <ele>46</ele>
        <time>2018-11-04T11:17:49.000Z</time>
      </trkpt>
      <trkpt lat="39.475252" lon="-0.454092">
        <ele>46</ele>
        <time>2018-11-04T11:17:50.000Z</time>
      </trkpt>
      <trkpt lat="39.475203" lon="-0.454066">
        <ele>46</ele>
        <time>2018-11-04T11:17:51.000Z</time>
      </trkpt>
      <trkpt lat="39.475153" lon="-0.454041">
        <ele>46</ele>
        <time>2018-11-04T11:17:52.000Z</time>
      </trkpt>
      <trkpt lat="39.4751" lon="-0.454026">
        <ele>46</ele>
        <time>2018-11-04T11:17:53.000Z</time>
      </trkpt>
      <trkpt lat="39.475046" lon="-0.454028">
        <ele>46</ele>
        <time>2018-11-04T11:17:54.000Z</time>
      </trkpt>
      <trkpt lat="39.474993" lon="-0.454046">
        <ele>46</ele>
        <time>2018-11-04T11:17:55.000Z</time>
      </trkpt>
      <trkpt lat="39.474944" lon="-0.454076">
        <ele>46</ele>
        <time>2018-11-04T11:17:56.000Z</time>
      </trkpt>
      <trkpt lat="39.474894" lon="-0.454105">
        <ele>46</ele>
        <time>2018-11-04T11:17:57.000Z</time>
      </trkpt>
      <trkpt lat="39.474843" lon="-0.454129">
        <ele>46</ele>
        <time>2018-11-04T11:17:58.000Z</time>
      </trkpt>
      <trkpt lat="39.474792" lon="-0.454154">
        <ele>46</ele>
        <time>2018-11-04T11:17:59.000Z</time>
      </trkpt>
      <trkpt lat="39.474742" lon="-0.454178">
        <ele>46</ele>
        <time>2018-11-04T11:18:00.000Z</time>
      </trkpt>
      <trkpt lat="39.474694" lon="-0.454201">
        <ele>46</ele>
        <time>2018-11-04T11:18:01.000Z</time>
      </trkpt>
      <trkpt lat="39.474646" lon="-0.454225">
        <ele>46.8899968</ele>
        <time>2018-11-04T11:18:02.000Z</time>
      </trkpt>
      <trkpt lat="39.474599" lon="-0.454246">
        <ele>47</ele>
        <time>2018-11-04T11:18:03.000Z</time>
      </trkpt>
      <trkpt lat="39.474551" lon="-0.454264">
        <ele>47</ele>
        <time>2018-11-04T11:18:04.000Z</time>
      </trkpt>
      <trkpt lat="39.474503" lon="-0.45429">
        <ele>47</ele>
        <time>2018-11-04T11:18:05.000Z</time>
      </trkpt>
      <trkpt lat="39.474456" lon="-0.454314">
        <ele>47</ele>
        <time>2018-11-04T11:18:06.000Z</time>
      </trkpt>
      <trkpt lat="39.47441" lon="-0.454339">
        <ele>47</ele>
        <time>2018-11-04T11:18:07.000Z</time>
      </trkpt>
      <trkpt lat="39.474365" lon="-0.454366">
        <ele>47</ele>
        <time>2018-11-04T11:18:08.000Z</time>
      </trkpt>
      <trkpt lat="39.47432" lon="-0.454392">
        <ele>47</ele>
        <time>2018-11-04T11:18:09.000Z</time>
      </trkpt>
      <trkpt lat="39.474273" lon="-0.45441">
        <ele>47</ele>
        <time>2018-11-04T11:18:10.000Z</time>
      </trkpt>
      <trkpt lat="39.474225" lon="-0.454417">
        <ele>47</ele>
        <time>2018-11-04T11:18:11.000Z</time>
      </trkpt>
      <trkpt lat="39.474178" lon="-0.454428">
        <ele>47</ele>
        <time>2018-11-04T11:18:12.000Z</time>
      </trkpt>
      <trkpt lat="39.474132" lon="-0.454451">
        <ele>47</ele>
        <time>2018-11-04T11:18:13.000Z</time>
      </trkpt>
      <trkpt lat="39.474087" lon="-0.454477">
        <ele>47</ele>
        <time>2018-11-04T11:18:14.000Z</time>
      </trkpt>
      <trkpt lat="39.474042" lon="-0.454503">
        <ele>47</ele>
        <time>2018-11-04T11:18:15.000Z</time>
      </trkpt>
      <trkpt lat="39.473997" lon="-0.454531">
        <ele>47</ele>
        <time>2018-11-04T11:18:16.000Z</time>
      </trkpt>
      <trkpt lat="39.473954" lon="-0.45456">
        <ele>47</ele>
        <time>2018-11-04T11:18:17.000Z</time>
      </trkpt>
      <trkpt lat="39.473909" lon="-0.454589">
        <ele>47</ele>
        <time>2018-11-04T11:18:18.000Z</time>
      </trkpt>
      <trkpt lat="39.473867" lon="-0.45462">
        <ele>47</ele>
        <time>2018-11-04T11:18:19.000Z</time>
      </trkpt>
      <trkpt lat="39.473823" lon="-0.454651">
        <ele>46.1571459918081</ele>
        <time>2018-11-04T11:18:20.000Z</time>
      </trkpt>
      <trkpt lat="39.473779" lon="-0.454681">
        <ele>46</ele>
        <time>2018-11-04T11:18:21.000Z</time>
      </trkpt>
      <trkpt lat="39.473734" lon="-0.454713">
        <ele>46</ele>
        <time>2018-11-04T11:18:22.000Z</time>
      </trkpt>
      <trkpt lat="39.47369" lon="-0.454744">
        <ele>46</ele>
        <time>2018-11-04T11:18:23.000Z</time>
      </trkpt>
      <trkpt lat="39.473645" lon="-0.454775">
        <ele>46</ele>
        <time>2018-11-04T11:18:24.000Z</time>
      </trkpt>
      <trkpt lat="39.4736" lon="-0.454807">
        <ele>46</ele>
        <time>2018-11-04T11:18:25.000Z</time>
      </trkpt>
      <trkpt lat="39.473555" lon="-0.454837">
        <ele>46</ele>
        <time>2018-11-04T11:18:26.000Z</time>
      </trkpt>
      <trkpt lat="39.473509" lon="-0.454868">
        <ele>46</ele>
        <time>2018-11-04T11:18:27.000Z</time>
      </trkpt>
      <trkpt lat="39.473466" lon="-0.454902">
        <ele>46</ele>
        <time>2018-11-04T11:18:28.000Z</time>
      </trkpt>
      <trkpt lat="39.473423" lon="-0.454939">
        <ele>46</ele>
        <time>2018-11-04T11:18:29.000Z</time>
      </trkpt>
      <trkpt lat="39.473382" lon="-0.454978">
        <ele>46</ele>
        <time>2018-11-04T11:18:30.000Z</time>
      </trkpt>
      <trkpt lat="39.47334" lon="-0.455016">
        <ele>46</ele>
        <time>2018-11-04T11:18:31.000Z</time>
      </trkpt>
      <trkpt lat="39.473297" lon="-0.455054">
        <ele>46</ele>
        <time>2018-11-04T11:18:32.000Z</time>
      </trkpt>
      <trkpt lat="39.473253" lon="-0.455092">
        <ele>46</ele>
        <time>2018-11-04T11:18:33.000Z</time>
      </trkpt>
      <trkpt lat="39.473209" lon="-0.455129">
        <ele>46</ele>
        <time>2018-11-04T11:18:34.000Z</time>
      </trkpt>
      <trkpt lat="39.473164" lon="-0.455164">
        <ele>46</ele>
        <time>2018-11-04T11:18:35.000Z</time>
      </trkpt>
      <trkpt lat="39.473119" lon="-0.455199">
        <ele>46</ele>
        <time>2018-11-04T11:18:36.000Z</time>
      </trkpt>
      <trkpt lat="39.473074" lon="-0.455235">
        <ele>46</ele>
        <time>2018-11-04T11:18:37.000Z</time>
      </trkpt>
      <trkpt lat="39.47303" lon="-0.455272">
        <ele>46</ele>
        <time>2018-11-04T11:18:38.000Z</time>
      </trkpt>
      <trkpt lat="39.472985" lon="-0.455309">
        <ele>46</ele>
        <time>2018-11-04T11:18:39.000Z</time>
      </trkpt>
      <trkpt lat="39.472942" lon="-0.455345">
        <ele>46</ele>
        <time>2018-11-04T11:18:40.000Z</time>
      </trkpt>
      <trkpt lat="39.472898" lon="-0.455382">
        <ele>46</ele>
        <time>2018-11-04T11:18:41.000Z</time>
      </trkpt>
      <trkpt lat="39.472855" lon="-0.455419">
        <ele>46</ele>
        <time>2018-11-04T11:18:42.000Z</time>
      </trkpt>
      <trkpt lat="39.47281" lon="-0.455456">
        <ele>46</ele>
        <time>2018-11-04T11:18:43.000Z</time>
      </trkpt>
      <trkpt lat="39.472765" lon="-0.455494">
        <ele>46</ele>
        <time>2018-11-04T11:18:44.000Z</time>
      </trkpt>
      <trkpt lat="39.47272" lon="-0.455531">
        <ele>46</ele>
        <time>2018-11-04T11:18:45.000Z</time>
      </trkpt>
      <trkpt lat="39.472675" lon="-0.455567">
        <ele>46</ele>
        <time>2018-11-04T11:18:46.000Z</time>
      </trkpt>
      <trkpt lat="39.47263" lon="-0.455605">
        <ele>46</ele>
        <time>2018-11-04T11:18:47.000Z</time>
      </trkpt>
      <trkpt lat="39.472586" lon="-0.455643">
        <ele>46</ele>
        <time>2018-11-04T11:18:48.000Z</time>
      </trkpt>
      <trkpt lat="39.472542" lon="-0.45568">
        <ele>46</ele>
        <time>2018-11-04T11:18:49.000Z</time>
      </trkpt>
      <trkpt lat="39.472498" lon="-0.455717">
        <ele>46</ele>
        <time>2018-11-04T11:18:50.000Z</time>
      </trkpt>
      <trkpt lat="39.472453" lon="-0.455754">
        <ele>46</ele>
        <time>2018-11-04T11:18:51.000Z</time>
      </trkpt>
      <trkpt lat="39.472408" lon="-0.455793">
        <ele>46</ele>
        <time>2018-11-04T11:18:52.000Z</time>
      </trkpt>
      <trkpt lat="39.472364" lon="-0.455831">
        <ele>46.8899968</ele>
        <time>2018-11-04T11:18:53.000Z</time>
      </trkpt>
      <trkpt lat="39.47232" lon="-0.455868">
        <ele>47</ele>
        <time>2018-11-04T11:18:54.000Z</time>
      </trkpt>
      <trkpt lat="39.472276" lon="-0.455905">
        <ele>47</ele>
        <time>2018-11-04T11:18:55.000Z</time>
      </trkpt>
      <trkpt lat="39.472232" lon="-0.455943">
        <ele>47</ele>
        <time>2018-11-04T11:18:56.000Z</time>
      </trkpt>
      <trkpt lat="39.472188" lon="-0.455979">
        <ele>47</ele>
        <time>2018-11-04T11:18:57.000Z</time>
      </trkpt>
      <trkpt lat="39.472144" lon="-0.456016">
        <ele>47</ele>
        <time>2018-11-04T11:18:58.000Z</time>
      </trkpt>
      <trkpt lat="39.4721" lon="-0.456053">
        <ele>47</ele>
        <time>2018-11-04T11:18:59.000Z</time>
      </trkpt>
      <trkpt lat="39.472055" lon="-0.456089">
        <ele>47</ele>
        <time>2018-11-04T11:19:00.000Z</time>
      </trkpt>
      <trkpt lat="39.47201" lon="-0.456124">
        <ele>47</ele>
        <time>2018-11-04T11:19:01.000Z</time>
      </trkpt>
      <trkpt lat="39.471966" lon="-0.456159">
        <ele>47</ele>
        <time>2018-11-04T11:19:02.000Z</time>
      </trkpt>
      <trkpt lat="39.471922" lon="-0.456196">
        <ele>47</ele>
        <time>2018-11-04T11:19:03.000Z</time>
      </trkpt>
      <trkpt lat="39.471878" lon="-0.456233">
        <ele>47</ele>
        <time>2018-11-04T11:19:04.000Z</time>
      </trkpt>
      <trkpt lat="39.471836" lon="-0.456272">
        <ele>47</ele>
        <time>2018-11-04T11:19:05.000Z</time>
      </trkpt>
      <trkpt lat="39.471791" lon="-0.45631">
        <ele>47</ele>
        <time>2018-11-04T11:19:06.000Z</time>
      </trkpt>
      <trkpt lat="39.471748" lon="-0.456348">
        <ele>46.3206147893379</ele>
        <time>2018-11-04T11:19:07.000Z</time>
      </trkpt>
      <trkpt lat="39.471704" lon="-0.456387">
        <ele>46</ele>
        <time>2018-11-04T11:19:08.000Z</time>
      </trkpt>
      <trkpt lat="39.471659" lon="-0.456427">
        <ele>46</ele>
        <time>2018-11-04T11:19:09.000Z</time>
      </trkpt>
      <trkpt lat="39.471616" lon="-0.456466">
        <ele>46</ele>
        <time>2018-11-04T11:19:10.000Z</time>
      </trkpt>
      <trkpt lat="39.47157" lon="-0.456504">
        <ele>46</ele>
        <time>2018-11-04T11:19:11.000Z</time>
      </trkpt>
      <trkpt lat="39.471526" lon="-0.456543">
        <ele>46</ele>
        <time>2018-11-04T11:19:12.000Z</time>
      </trkpt>
      <trkpt lat="39.47148" lon="-0.45658">
        <ele>46</ele>
        <time>2018-11-04T11:19:13.000Z</time>
      </trkpt>
      <trkpt lat="39.471434" lon="-0.456618">
        <ele>45.1100032</ele>
        <time>2018-11-04T11:19:14.000Z</time>
      </trkpt>
      <trkpt lat="39.47139" lon="-0.456657">
        <ele>45</ele>
        <time>2018-11-04T11:19:15.000Z</time>
      </trkpt>
      <trkpt lat="39.471343" lon="-0.456696">
        <ele>45</ele>
        <time>2018-11-04T11:19:16.000Z</time>
      </trkpt>
      <trkpt lat="39.471296" lon="-0.456736">
        <ele>45</ele>
        <time>2018-11-04T11:19:17.000Z</time>
      </trkpt>
      <trkpt lat="39.47125" lon="-0.456774">
        <ele>45</ele>
        <time>2018-11-04T11:19:18.000Z</time>
      </trkpt>
      <trkpt lat="39.471202" lon="-0.456813">
        <ele>45</ele>
        <time>2018-11-04T11:19:19.000Z</time>
      </trkpt>
      <trkpt lat="39.471155" lon="-0.456853">
        <ele>45</ele>
        <time>2018-11-04T11:19:20.000Z</time>
      </trkpt>
      <trkpt lat="39.471107" lon="-0.456892">
        <ele>45</ele>
        <time>2018-11-04T11:19:21.000Z</time>
      </trkpt>
      <trkpt lat="39.47106" lon="-0.456932">
        <ele>45</ele>
        <time>2018-11-04T11:19:22.000Z</time>
      </trkpt>
      <trkpt lat="39.47101" lon="-0.456968">
        <ele>45</ele>
        <time>2018-11-04T11:19:23.000Z</time>
      </trkpt>
      <trkpt lat="39.470963" lon="-0.457005">
        <ele>45</ele>
        <time>2018-11-04T11:19:24.000Z</time>
      </trkpt>
      <trkpt lat="39.470918" lon="-0.457049">
        <ele>45</ele>
        <time>2018-11-04T11:19:25.000Z</time>
      </trkpt>
      <trkpt lat="39.470872" lon="-0.457095">
        <ele>45</ele>
        <time>2018-11-04T11:19:26.000Z</time>
      </trkpt>
      <trkpt lat="39.470824" lon="-0.457137">
        <ele>45</ele>
        <time>2018-11-04T11:19:27.000Z</time>
      </trkpt>
      <trkpt lat="39.470774" lon="-0.457176">
        <ele>45</ele>
        <time>2018-11-04T11:19:28.000Z</time>
      </trkpt>
      <trkpt lat="39.470727" lon="-0.457213">
        <ele>45</ele>
        <time>2018-11-04T11:19:29.000Z</time>
      </trkpt>
      <trkpt lat="39.47068" lon="-0.457252">
        <ele>45</ele>
        <time>2018-11-04T11:19:30.000Z</time>
      </trkpt>
      <trkpt lat="39.470631" lon="-0.457289">
        <ele>45</ele>
        <time>2018-11-04T11:19:31.000Z</time>
      </trkpt>
      <trkpt lat="39.470584" lon="-0.457327">
        <ele>45</ele>
        <time>2018-11-04T11:19:32.000Z</time>
      </trkpt>
      <trkpt lat="39.470536" lon="-0.457365">
        <ele>45</ele>
        <time>2018-11-04T11:19:33.000Z</time>
      </trkpt>
      <trkpt lat="39.470488" lon="-0.457403">
        <ele>45</ele>
        <time>2018-11-04T11:19:34.000Z</time>
      </trkpt>
      <trkpt lat="39.470438" lon="-0.45744">
        <ele>45</ele>
        <time>2018-11-04T11:19:35.000Z</time>
      </trkpt>
      <trkpt lat="39.470386" lon="-0.457474">
        <ele>45</ele>
        <time>2018-11-04T11:19:36.000Z</time>
      </trkpt>
      <trkpt lat="39.470333" lon="-0.457507">
        <ele>44.111113984278</ele>
        <time>2018-11-04T11:19:37.000Z</time>
      </trkpt>
      <trkpt lat="39.470284" lon="-0.457541">
        <ele>44</ele>
        <time>2018-11-04T11:19:38.000Z</time>
      </trkpt>
      <trkpt lat="39.470234" lon="-0.457574">
        <ele>44</ele>
        <time>2018-11-04T11:19:39.000Z</time>
      </trkpt>
      <trkpt lat="39.470186" lon="-0.457605">
        <ele>44</ele>
        <time>2018-11-04T11:19:40.000Z</time>
      </trkpt>
      <trkpt lat="39.470138" lon="-0.457633">
        <ele>44</ele>
        <time>2018-11-04T11:19:41.000Z</time>
      </trkpt>
      <trkpt lat="39.47009" lon="-0.45766">
        <ele>44</ele>
        <time>2018-11-04T11:19:42.000Z</time>
      </trkpt>
      <trkpt lat="39.470044" lon="-0.457687">
        <ele>44</ele>
        <time>2018-11-04T11:19:43.000Z</time>
      </trkpt>
      <trkpt lat="39.469999" lon="-0.457715">
        <ele>44</ele>
        <time>2018-11-04T11:19:44.000Z</time>
      </trkpt>
      <trkpt lat="39.469954" lon="-0.457742">
        <ele>44</ele>
        <time>2018-11-04T11:19:45.000Z</time>
      </trkpt>
      <trkpt lat="39.46991" lon="-0.457768">
        <ele>44</ele>
        <time>2018-11-04T11:19:46.000Z</time>
      </trkpt>
      <trkpt lat="39.469868" lon="-0.457796">
        <ele>44.8899968</ele>
        <time>2018-11-04T11:19:47.000Z</time>
      </trkpt>
      <trkpt lat="39.469835" lon="-0.457824">
        <ele>45</ele>
        <time>2018-11-04T11:19:48.000Z</time>
      </trkpt>
      <trkpt lat="39.469808" lon="-0.457845">
        <ele>45</ele>
        <time>2018-11-04T11:19:49.000Z</time>
      </trkpt>
      <trkpt lat="39.469787" lon="-0.457852">
        <ele>45</ele>
        <time>2018-11-04T11:19:50.000Z</time>
      </trkpt>
      <trkpt lat="39.46978" lon="-0.457826">
        <ele>45</ele>
        <time>2018-11-04T11:19:54.000Z</time>
      </trkpt>
      <trkpt lat="39.469764" lon="-0.457785">
        <ele>45</ele>
        <time>2018-11-04T11:19:56.000Z</time>
      </trkpt>
      <trkpt lat="39.469754" lon="-0.457751">
        <ele>45</ele>
        <time>2018-11-04T11:19:57.000Z</time>
      </trkpt>
      <trkpt lat="39.469736" lon="-0.457706">
        <ele>45</ele>
        <time>2018-11-04T11:19:58.000Z</time>
      </trkpt>
      <trkpt lat="39.469711" lon="-0.457655">
        <ele>45</ele>
        <time>2018-11-04T11:19:59.000Z</time>
      </trkpt>
      <trkpt lat="39.46969" lon="-0.457595">
        <ele>45</ele>
        <time>2018-11-04T11:20:00.000Z</time>
      </trkpt>
      <trkpt lat="39.469676" lon="-0.45753">
        <ele>45</ele>
        <time>2018-11-04T11:20:01.000Z</time>
      </trkpt>
      <trkpt lat="39.469664" lon="-0.457473">
        <ele>45</ele>
        <time>2018-11-04T11:20:02.000Z</time>
      </trkpt>
      <trkpt lat="39.469655" lon="-0.457415">
        <ele>45</ele>
        <time>2018-11-04T11:20:03.000Z</time>
      </trkpt>
      <trkpt lat="39.469646" lon="-0.457362">
        <ele>45</ele>
        <time>2018-11-04T11:20:04.000Z</time>
      </trkpt>
      <trkpt lat="39.469632" lon="-0.45732">
        <ele>45</ele>
        <time>2018-11-04T11:20:05.000Z</time>
      </trkpt>
      <trkpt lat="39.469619" lon="-0.457284">
        <ele>45</ele>
        <time>2018-11-04T11:20:06.000Z</time>
      </trkpt>
      <trkpt lat="39.469608" lon="-0.457243">
        <ele>45</ele>
        <time>2018-11-04T11:20:07.000Z</time>
      </trkpt>
      <trkpt lat="39.4696" lon="-0.457198">
        <ele>45</ele>
        <time>2018-11-04T11:20:08.000Z</time>
      </trkpt>
      <trkpt lat="39.469588" lon="-0.457141">
        <ele>45</ele>
        <time>2018-11-04T11:20:09.000Z</time>
      </trkpt>
      <trkpt lat="39.46957" lon="-0.457087">
        <ele>45</ele>
        <time>2018-11-04T11:20:10.000Z</time>
      </trkpt>
      <trkpt lat="39.469558" lon="-0.457025">
        <ele>45</ele>
        <time>2018-11-04T11:20:11.000Z</time>
      </trkpt>
      <trkpt lat="39.469538" lon="-0.456965">
        <ele>45</ele>
        <time>2018-11-04T11:20:12.000Z</time>
      </trkpt>
      <trkpt lat="39.469518" lon="-0.456904">
        <ele>45</ele>
        <time>2018-11-04T11:20:13.000Z</time>
      </trkpt>
      <trkpt lat="39.4695" lon="-0.456843">
        <ele>45</ele>
        <time>2018-11-04T11:20:14.000Z</time>
      </trkpt>
      <trkpt lat="39.469486" lon="-0.456786">
        <ele>45</ele>
        <time>2018-11-04T11:20:15.000Z</time>
      </trkpt>
      <trkpt lat="39.469464" lon="-0.456733">
        <ele>45</ele>
        <time>2018-11-04T11:20:16.000Z</time>
      </trkpt>
      <trkpt lat="39.469441" lon="-0.456677">
        <ele>45</ele>
        <time>2018-11-04T11:20:17.000Z</time>
      </trkpt>
      <trkpt lat="39.469414" lon="-0.456619">
        <ele>44.1100032</ele>
        <time>2018-11-04T11:20:18.000Z</time>
      </trkpt>
      <trkpt lat="39.469388" lon="-0.45656">
        <ele>44</ele>
        <time>2018-11-04T11:20:19.000Z</time>
      </trkpt>
      <trkpt lat="39.46936" lon="-0.456503">
        <ele>44</ele>
        <time>2018-11-04T11:20:20.000Z</time>
      </trkpt>
      <trkpt lat="39.46933" lon="-0.45645">
        <ele>44</ele>
        <time>2018-11-04T11:20:21.000Z</time>
      </trkpt>
      <trkpt lat="39.469296" lon="-0.456399">
        <ele>44</ele>
        <time>2018-11-04T11:20:22.000Z</time>
      </trkpt>
      <trkpt lat="39.469261" lon="-0.456349">
        <ele>44</ele>
        <time>2018-11-04T11:20:23.000Z</time>
      </trkpt>
      <trkpt lat="39.469224" lon="-0.456302">
        <ele>44</ele>
        <time>2018-11-04T11:20:24.000Z</time>
      </trkpt>
      <trkpt lat="39.469187" lon="-0.456254">
        <ele>44</ele>
        <time>2018-11-04T11:20:25.000Z</time>
      </trkpt>
      <trkpt lat="39.469151" lon="-0.456207">
        <ele>44</ele>
        <time>2018-11-04T11:20:26.000Z</time>
      </trkpt>
      <trkpt lat="39.46912" lon="-0.456165">
        <ele>44</ele>
        <time>2018-11-04T11:20:27.000Z</time>
      </trkpt>
      <trkpt lat="39.469085" lon="-0.456122">
        <ele>44</ele>
        <time>2018-11-04T11:20:28.000Z</time>
      </trkpt>
      <trkpt lat="39.469044" lon="-0.456082">
        <ele>44</ele>
        <time>2018-11-04T11:20:29.000Z</time>
      </trkpt>
      <trkpt lat="39.468999" lon="-0.456046">
        <ele>44</ele>
        <time>2018-11-04T11:20:30.000Z</time>
      </trkpt>
      <trkpt lat="39.468954" lon="-0.456028">
        <ele>44</ele>
        <time>2018-11-04T11:20:31.000Z</time>
      </trkpt>
      <trkpt lat="39.468912" lon="-0.456023">
        <ele>44</ele>
        <time>2018-11-04T11:20:32.000Z</time>
      </trkpt>
      <trkpt lat="39.468866" lon="-0.456006">
        <ele>44</ele>
        <time>2018-11-04T11:20:33.000Z</time>
      </trkpt>
      <trkpt lat="39.468822" lon="-0.455982">
        <ele>44.888886015722</ele>
        <time>2018-11-04T11:20:34.000Z</time>
      </trkpt>
      <trkpt lat="39.46878" lon="-0.455955">
        <ele>45</ele>
        <time>2018-11-04T11:20:35.000Z</time>
      </trkpt>
      <trkpt lat="39.468746" lon="-0.455927">
        <ele>45</ele>
        <time>2018-11-04T11:20:36.000Z</time>
      </trkpt>
      <trkpt lat="39.468706" lon="-0.455891">
        <ele>45</ele>
        <time>2018-11-04T11:20:37.000Z</time>
      </trkpt>
      <trkpt lat="39.468656" lon="-0.455856">
        <ele>45</ele>
        <time>2018-11-04T11:20:38.000Z</time>
      </trkpt>
      <trkpt lat="39.468606" lon="-0.455824">
        <ele>45</ele>
        <time>2018-11-04T11:20:39.000Z</time>
      </trkpt>
      <trkpt lat="39.468554" lon="-0.455793">
        <ele>45</ele>
        <time>2018-11-04T11:20:40.000Z</time>
      </trkpt>
      <trkpt lat="39.4685" lon="-0.455763">
        <ele>45</ele>
        <time>2018-11-04T11:20:41.000Z</time>
      </trkpt>
      <trkpt lat="39.468453" lon="-0.455728">
        <ele>45</ele>
        <time>2018-11-04T11:20:42.000Z</time>
      </trkpt>
      <trkpt lat="39.468408" lon="-0.455709">
        <ele>45</ele>
        <time>2018-11-04T11:20:43.000Z</time>
      </trkpt>
      <trkpt lat="39.468352" lon="-0.455693">
        <ele>45</ele>
        <time>2018-11-04T11:20:44.000Z</time>
      </trkpt>
      <trkpt lat="39.468296" lon="-0.455677">
        <ele>45</ele>
        <time>2018-11-04T11:20:45.000Z</time>
      </trkpt>
      <trkpt lat="39.468243" lon="-0.455661">
        <ele>45</ele>
        <time>2018-11-04T11:20:46.000Z</time>
      </trkpt>
      <trkpt lat="39.46819" lon="-0.45565">
        <ele>45.8899968</ele>
        <time>2018-11-04T11:20:47.000Z</time>
      </trkpt>
      <trkpt lat="39.468141" lon="-0.45564">
        <ele>46</ele>
        <time>2018-11-04T11:20:48.000Z</time>
      </trkpt>
      <trkpt lat="39.468094" lon="-0.455634">
        <ele>46</ele>
        <time>2018-11-04T11:20:49.000Z</time>
      </trkpt>
      <trkpt lat="39.468052" lon="-0.455633">
        <ele>46</ele>
        <time>2018-11-04T11:20:50.000Z</time>
      </trkpt>
      <trkpt lat="39.468004" lon="-0.455635">
        <ele>46</ele>
        <time>2018-11-04T11:20:51.000Z</time>
      </trkpt>
      <trkpt lat="39.467956" lon="-0.455635">
        <ele>46</ele>
        <time>2018-11-04T11:20:52.000Z</time>
      </trkpt>
      <trkpt lat="39.46791" lon="-0.455635">
        <ele>46</ele>
        <time>2018-11-04T11:20:53.000Z</time>
      </trkpt>
      <trkpt lat="39.467862" lon="-0.455634">
        <ele>46</ele>
        <time>2018-11-04T11:20:54.000Z</time>
      </trkpt>
      <trkpt lat="39.467816" lon="-0.455634">
        <ele>46</ele>
        <time>2018-11-04T11:20:55.000Z</time>
      </trkpt>
      <trkpt lat="39.467768" lon="-0.455637">
        <ele>46</ele>
        <time>2018-11-04T11:20:56.000Z</time>
      </trkpt>
      <trkpt lat="39.467718" lon="-0.455638">
        <ele>46</ele>
        <time>2018-11-04T11:20:57.000Z</time>
      </trkpt>
      <trkpt lat="39.467668" lon="-0.455643">
        <ele>46.6793918489784</ele>
        <time>2018-11-04T11:20:58.000Z</time>
      </trkpt>
      <trkpt lat="39.467616" lon="-0.45564">
        <ele>47</ele>
        <time>2018-11-04T11:20:59.000Z</time>
      </trkpt>
      <trkpt lat="39.467563" lon="-0.455635">
        <ele>47</ele>
        <time>2018-11-04T11:21:00.000Z</time>
      </trkpt>
      <trkpt lat="39.46751" lon="-0.455636">
        <ele>47</ele>
        <time>2018-11-04T11:21:01.000Z</time>
      </trkpt>
      <trkpt lat="39.467462" lon="-0.455643">
        <ele>47</ele>
        <time>2018-11-04T11:21:02.000Z</time>
      </trkpt>
      <trkpt lat="39.467415" lon="-0.45565">
        <ele>47</ele>
        <time>2018-11-04T11:21:03.000Z</time>
      </trkpt>
      <trkpt lat="39.467369" lon="-0.455657">
        <ele>46.111113984278</ele>
        <time>2018-11-04T11:21:04.000Z</time>
      </trkpt>
      <trkpt lat="39.467324" lon="-0.455663">
        <ele>46</ele>
        <time>2018-11-04T11:21:05.000Z</time>
      </trkpt>
      <trkpt lat="39.467278" lon="-0.45567">
        <ele>46</ele>
        <time>2018-11-04T11:21:06.000Z</time>
      </trkpt>
      <trkpt lat="39.467231" lon="-0.455676">
        <ele>46</ele>
        <time>2018-11-04T11:21:07.000Z</time>
      </trkpt>
      <trkpt lat="39.467187" lon="-0.455685">
        <ele>46</ele>
        <time>2018-11-04T11:21:08.000Z</time>
      </trkpt>
      <trkpt lat="39.467144" lon="-0.455701">
        <ele>46</ele>
        <time>2018-11-04T11:21:09.000Z</time>
      </trkpt>
      <trkpt lat="39.467101" lon="-0.45572">
        <ele>46.8899968</ele>
        <time>2018-11-04T11:21:10.000Z</time>
      </trkpt>
      <trkpt lat="39.467058" lon="-0.455734">
        <ele>47</ele>
        <time>2018-11-04T11:21:11.000Z</time>
      </trkpt>
      <trkpt lat="39.467016" lon="-0.455749">
        <ele>47</ele>
        <time>2018-11-04T11:21:12.000Z</time>
      </trkpt>
      <trkpt lat="39.466972" lon="-0.455761">
        <ele>47</ele>
        <time>2018-11-04T11:21:13.000Z</time>
      </trkpt>
      <trkpt lat="39.46693" lon="-0.455777">
        <ele>47</ele>
        <time>2018-11-04T11:21:14.000Z</time>
      </trkpt>
      <trkpt lat="39.466878" lon="-0.45578">
        <ele>47.8899968</ele>
        <time>2018-11-04T11:21:15.000Z</time>
      </trkpt>
      <trkpt lat="39.466824" lon="-0.455779">
        <ele>48</ele>
        <time>2018-11-04T11:21:16.000Z</time>
      </trkpt>
      <trkpt lat="39.466766" lon="-0.455779">
        <ele>48</ele>
        <time>2018-11-04T11:21:17.000Z</time>
      </trkpt>
      <trkpt lat="39.466718" lon="-0.455785">
        <ele>48</ele>
        <time>2018-11-04T11:21:18.000Z</time>
      </trkpt>
      <trkpt lat="39.466671" lon="-0.455788">
        <ele>48</ele>
        <time>2018-11-04T11:21:19.000Z</time>
      </trkpt>
      <trkpt lat="39.466624" lon="-0.455796">
        <ele>48.8899968</ele>
        <time>2018-11-04T11:21:20.000Z</time>
      </trkpt>
      <trkpt lat="39.466575" lon="-0.455806">
        <ele>49</ele>
        <time>2018-11-04T11:21:21.000Z</time>
      </trkpt>
      <trkpt lat="39.466529" lon="-0.455821">
        <ele>49</ele>
        <time>2018-11-04T11:21:22.000Z</time>
      </trkpt>
      <trkpt lat="39.466484" lon="-0.455833">
        <ele>49</ele>
        <time>2018-11-04T11:21:23.000Z</time>
      </trkpt>
      <trkpt lat="39.46644" lon="-0.455844">
        <ele>49.8899968</ele>
        <time>2018-11-04T11:21:24.000Z</time>
      </trkpt>
      <trkpt lat="39.466389" lon="-0.455849">
        <ele>50</ele>
        <time>2018-11-04T11:21:25.000Z</time>
      </trkpt>
      <trkpt lat="39.466339" lon="-0.455854">
        <ele>49.1100032</ele>
        <time>2018-11-04T11:21:26.000Z</time>
      </trkpt>
      <trkpt lat="39.466287" lon="-0.455859">
        <ele>49</ele>
        <time>2018-11-04T11:21:27.000Z</time>
      </trkpt>
      <trkpt lat="39.46624" lon="-0.455869">
        <ele>49</ele>
        <time>2018-11-04T11:21:28.000Z</time>
      </trkpt>
      <trkpt lat="39.466192" lon="-0.455877">
        <ele>49</ele>
        <time>2018-11-04T11:21:29.000Z</time>
      </trkpt>
      <trkpt lat="39.466145" lon="-0.45588">
        <ele>49.8899968</ele>
        <time>2018-11-04T11:21:30.000Z</time>
      </trkpt>
      <trkpt lat="39.466095" lon="-0.455888">
        <ele>50</ele>
        <time>2018-11-04T11:21:31.000Z</time>
      </trkpt>
      <trkpt lat="39.466046" lon="-0.455897">
        <ele>50</ele>
        <time>2018-11-04T11:21:32.000Z</time>
      </trkpt>
      <trkpt lat="39.465998" lon="-0.455909">
        <ele>50</ele>
        <time>2018-11-04T11:21:33.000Z</time>
      </trkpt>
      <trkpt lat="39.465955" lon="-0.455917">
        <ele>50</ele>
        <time>2018-11-04T11:21:34.000Z</time>
      </trkpt>
      <trkpt lat="39.465917" lon="-0.455923">
        <ele>50</ele>
        <time>2018-11-04T11:21:35.000Z</time>
      </trkpt>
      <trkpt lat="39.465886" lon="-0.455928">
        <ele>50</ele>
        <time>2018-11-04T11:21:36.000Z</time>
      </trkpt>
      <trkpt lat="39.465863" lon="-0.455918">
        <ele>50</ele>
        <time>2018-11-04T11:21:37.000Z</time>
      </trkpt>
      <trkpt lat="39.465839" lon="-0.455906">
        <ele>50</ele>
        <time>2018-11-04T11:21:38.000Z</time>
      </trkpt>
      <trkpt lat="39.465806" lon="-0.455899">
        <ele>50.8899968</ele>
        <time>2018-11-04T11:21:39.000Z</time>
      </trkpt>
      <trkpt lat="39.465779" lon="-0.455899">
        <ele>51</ele>
        <time>2018-11-04T11:21:40.000Z</time>
      </trkpt>
      <trkpt lat="39.465757" lon="-0.455895">
        <ele>51</ele>
        <time>2018-11-04T11:21:41.000Z</time>
      </trkpt>
      <trkpt lat="39.465727" lon="-0.455909">
        <ele>51</ele>
        <time>2018-11-04T11:21:43.000Z</time>
      </trkpt>
      <trkpt lat="39.465701" lon="-0.455913">
        <ele>51</ele>
        <time>2018-11-04T11:21:45.000Z</time>
      </trkpt>
      <trkpt lat="39.46567" lon="-0.455903">
        <ele>52</ele>
        <time>2018-11-04T11:21:47.000Z</time>
      </trkpt>
      <trkpt lat="39.46565" lon="-0.455904">
        <ele>52</ele>
        <time>2018-11-04T11:21:48.000Z</time>
      </trkpt>
      <trkpt lat="39.465633" lon="-0.455912">
        <ele>52</ele>
        <time>2018-11-04T11:21:49.000Z</time>
      </trkpt>
      <trkpt lat="39.465613" lon="-0.45592">
        <ele>52</ele>
        <time>2018-11-04T11:21:50.000Z</time>
      </trkpt>
      <trkpt lat="39.465594" lon="-0.455932">
        <ele>52.8899968</ele>
        <time>2018-11-04T11:21:51.000Z</time>
      </trkpt>
      <trkpt lat="39.465569" lon="-0.455941">
        <ele>53</ele>
        <time>2018-11-04T11:21:52.000Z</time>
      </trkpt>
      <trkpt lat="39.46553" lon="-0.455947">
        <ele>53</ele>
        <time>2018-11-04T11:21:53.000Z</time>
      </trkpt>
      <trkpt lat="39.465485" lon="-0.455952">
        <ele>53.8405743330984</ele>
        <time>2018-11-04T11:21:54.000Z</time>
      </trkpt>
      <trkpt lat="39.465437" lon="-0.455958">
        <ele>54</ele>
        <time>2018-11-04T11:21:55.000Z</time>
      </trkpt>
      <trkpt lat="39.465383" lon="-0.455974">
        <ele>54</ele>
        <time>2018-11-04T11:21:56.000Z</time>
      </trkpt>
      <trkpt lat="39.465325" lon="-0.455991">
        <ele>54</ele>
        <time>2018-11-04T11:21:57.000Z</time>
      </trkpt>
      <trkpt lat="39.465276" lon="-0.45603">
        <ele>54</ele>
        <time>2018-11-04T11:21:58.000Z</time>
      </trkpt>
      <trkpt lat="39.46523" lon="-0.456065">
        <ele>54</ele>
        <time>2018-11-04T11:21:59.000Z</time>
      </trkpt>
      <trkpt lat="39.465183" lon="-0.456087">
        <ele>54.8899968</ele>
        <time>2018-11-04T11:22:00.000Z</time>
      </trkpt>
      <trkpt lat="39.465134" lon="-0.456095">
        <ele>55</ele>
        <time>2018-11-04T11:22:01.000Z</time>
      </trkpt>
      <trkpt lat="39.465082" lon="-0.456107">
        <ele>55</ele>
        <time>2018-11-04T11:22:02.000Z</time>
      </trkpt>
      <trkpt lat="39.465033" lon="-0.456111">
        <ele>55</ele>
        <time>2018-11-04T11:22:03.000Z</time>
      </trkpt>
      <trkpt lat="39.464987" lon="-0.456102">
        <ele>55</ele>
        <time>2018-11-04T11:22:04.000Z</time>
      </trkpt>
      <trkpt lat="39.46495" lon="-0.456085">
        <ele>55</ele>
        <time>2018-11-04T11:22:05.000Z</time>
      </trkpt>
      <trkpt lat="39.464896" lon="-0.456079">
        <ele>55</ele>
        <time>2018-11-04T11:22:06.000Z</time>
      </trkpt>
      <trkpt lat="39.464828" lon="-0.456074">
        <ele>55</ele>
        <time>2018-11-04T11:22:07.000Z</time>
      </trkpt>
      <trkpt lat="39.464769" lon="-0.456059">
        <ele>55</ele>
        <time>2018-11-04T11:22:08.000Z</time>
      </trkpt>
      <trkpt lat="39.464728" lon="-0.456028">
        <ele>55</ele>
        <time>2018-11-04T11:22:09.000Z</time>
      </trkpt>
      <trkpt lat="39.464688" lon="-0.456001">
        <ele>55</ele>
        <time>2018-11-04T11:22:10.000Z</time>
      </trkpt>
      <trkpt lat="39.464649" lon="-0.455987">
        <ele>55</ele>
        <time>2018-11-04T11:22:11.000Z</time>
      </trkpt>
      <trkpt lat="39.464608" lon="-0.455974">
        <ele>55</ele>
        <time>2018-11-04T11:22:12.000Z</time>
      </trkpt>
      <trkpt lat="39.464557" lon="-0.455944">
        <ele>55</ele>
        <time>2018-11-04T11:22:13.000Z</time>
      </trkpt>
      <trkpt lat="39.464504" lon="-0.455916">
        <ele>55</ele>
        <time>2018-11-04T11:22:14.000Z</time>
      </trkpt>
      <trkpt lat="39.464451" lon="-0.455895">
        <ele>54.1617694117647</ele>
        <time>2018-11-04T11:22:15.000Z</time>
      </trkpt>
      <trkpt lat="39.464392" lon="-0.455857">
        <ele>53.1100032</ele>
        <time>2018-11-04T11:22:16.000Z</time>
      </trkpt>
      <trkpt lat="39.464342" lon="-0.455822">
        <ele>53</ele>
        <time>2018-11-04T11:22:17.000Z</time>
      </trkpt>
      <trkpt lat="39.46431" lon="-0.455776">
        <ele>53</ele>
        <time>2018-11-04T11:22:18.000Z</time>
      </trkpt>
      <trkpt lat="39.464285" lon="-0.455728">
        <ele>53</ele>
        <time>2018-11-04T11:22:19.000Z</time>
      </trkpt>
      <trkpt lat="39.464262" lon="-0.45568">
        <ele>53</ele>
        <time>2018-11-04T11:22:20.000Z</time>
      </trkpt>
      <trkpt lat="39.464245" lon="-0.455638">
        <ele>53</ele>
        <time>2018-11-04T11:22:21.000Z</time>
      </trkpt>
      <trkpt lat="39.464231" lon="-0.455596">
        <ele>53</ele>
        <time>2018-11-04T11:22:22.000Z</time>
      </trkpt>
      <trkpt lat="39.464215" lon="-0.455544">
        <ele>53</ele>
        <time>2018-11-04T11:22:23.000Z</time>
      </trkpt>
      <trkpt lat="39.464198" lon="-0.455493">
        <ele>53</ele>
        <time>2018-11-04T11:22:24.000Z</time>
      </trkpt>
      <trkpt lat="39.464188" lon="-0.455433">
        <ele>52.118812257623</ele>
        <time>2018-11-04T11:22:25.000Z</time>
      </trkpt>
      <trkpt lat="39.464171" lon="-0.455375">
        <ele>52</ele>
        <time>2018-11-04T11:22:26.000Z</time>
      </trkpt>
      <trkpt lat="39.46416" lon="-0.455316">
        <ele>52</ele>
        <time>2018-11-04T11:22:27.000Z</time>
      </trkpt>
      <trkpt lat="39.46415" lon="-0.455251">
        <ele>51.1100032</ele>
        <time>2018-11-04T11:22:28.000Z</time>
      </trkpt>
      <trkpt lat="39.464141" lon="-0.455185">
        <ele>51</ele>
        <time>2018-11-04T11:22:29.000Z</time>
      </trkpt>
      <trkpt lat="39.464141" lon="-0.455109">
        <ele>50.1100032</ele>
        <time>2018-11-04T11:22:30.000Z</time>
      </trkpt>
      <trkpt lat="39.464139" lon="-0.455041">
        <ele>50</ele>
        <time>2018-11-04T11:22:31.000Z</time>
      </trkpt>
      <trkpt lat="39.464137" lon="-0.454971">
        <ele>50</ele>
        <time>2018-11-04T11:22:32.000Z</time>
      </trkpt>
      <trkpt lat="39.464129" lon="-0.454908">
        <ele>49.4200010239869</ele>
        <time>2018-11-04T11:22:33.000Z</time>
      </trkpt>
      <trkpt lat="39.464124" lon="-0.454843">
        <ele>49</ele>
        <time>2018-11-04T11:22:34.000Z</time>
      </trkpt>
      <trkpt lat="39.464113" lon="-0.454786">
        <ele>49</ele>
        <time>2018-11-04T11:22:35.000Z</time>
      </trkpt>
      <trkpt lat="39.464103" lon="-0.45473">
        <ele>49</ele>
        <time>2018-11-04T11:22:36.000Z</time>
      </trkpt>
      <trkpt lat="39.464094" lon="-0.454676">
        <ele>49</ele>
        <time>2018-11-04T11:22:37.000Z</time>
      </trkpt>
      <trkpt lat="39.464084" lon="-0.454622">
        <ele>49</ele>
        <time>2018-11-04T11:22:38.000Z</time>
      </trkpt>
      <trkpt lat="39.464076" lon="-0.454576">
        <ele>49</ele>
        <time>2018-11-04T11:22:39.000Z</time>
      </trkpt>
      <trkpt lat="39.464072" lon="-0.454533">
        <ele>49</ele>
        <time>2018-11-04T11:22:40.000Z</time>
      </trkpt>
      <trkpt lat="39.46407" lon="-0.454497">
        <ele>49</ele>
        <time>2018-11-04T11:22:41.000Z</time>
      </trkpt>
      <trkpt lat="39.464065" lon="-0.454467">
        <ele>49</ele>
        <time>2018-11-04T11:22:42.000Z</time>
      </trkpt>
      <trkpt lat="39.464063" lon="-0.454421">
        <ele>48.1100032</ele>
        <time>2018-11-04T11:22:43.000Z</time>
      </trkpt>
      <trkpt lat="39.464065" lon="-0.454361">
        <ele>48</ele>
        <time>2018-11-04T11:22:44.000Z</time>
      </trkpt>
      <trkpt lat="39.464067" lon="-0.4543">
        <ele>48</ele>
        <time>2018-11-04T11:22:45.000Z</time>
      </trkpt>
      <trkpt lat="39.464074" lon="-0.454237">
        <ele>47.1594256669016</ele>
        <time>2018-11-04T11:22:46.000Z</time>
      </trkpt>
      <trkpt lat="39.464075" lon="-0.454175">
        <ele>47</ele>
        <time>2018-11-04T11:22:47.000Z</time>
      </trkpt>
      <trkpt lat="39.464076" lon="-0.454117">
        <ele>47</ele>
        <time>2018-11-04T11:22:48.000Z</time>
      </trkpt>
      <trkpt lat="39.464075" lon="-0.454062">
        <ele>46.1100032</ele>
        <time>2018-11-04T11:22:49.000Z</time>
      </trkpt>
      <trkpt lat="39.464071" lon="-0.454009">
        <ele>46</ele>
        <time>2018-11-04T11:22:50.000Z</time>
      </trkpt>
      <trkpt lat="39.464069" lon="-0.453963">
        <ele>45.1100032</ele>
        <time>2018-11-04T11:22:51.000Z</time>
      </trkpt>
      <trkpt lat="39.464062" lon="-0.453923">
        <ele>45</ele>
        <time>2018-11-04T11:22:52.000Z</time>
      </trkpt>
      <trkpt lat="39.464061" lon="-0.45388">
        <ele>45</ele>
        <time>2018-11-04T11:22:53.000Z</time>
      </trkpt>
      <trkpt lat="39.464056" lon="-0.453831">
        <ele>45</ele>
        <time>2018-11-04T11:22:54.000Z</time>
      </trkpt>
      <trkpt lat="39.464047" lon="-0.453784">
        <ele>44.1100032</ele>
        <time>2018-11-04T11:22:55.000Z</time>
      </trkpt>
      <trkpt lat="39.464032" lon="-0.453733">
        <ele>44</ele>
        <time>2018-11-04T11:22:56.000Z</time>
      </trkpt>
      <trkpt lat="39.464022" lon="-0.453674">
        <ele>44</ele>
        <time>2018-11-04T11:22:57.000Z</time>
      </trkpt>
      <trkpt lat="39.464006" lon="-0.453621">
        <ele>44</ele>
        <time>2018-11-04T11:22:58.000Z</time>
      </trkpt>
      <trkpt lat="39.464" lon="-0.453556">
        <ele>43.1100032</ele>
        <time>2018-11-04T11:22:59.000Z</time>
      </trkpt>
      <trkpt lat="39.463991" lon="-0.453488">
        <ele>43</ele>
        <time>2018-11-04T11:23:00.000Z</time>
      </trkpt>
      <trkpt lat="39.463981" lon="-0.453418">
        <ele>43</ele>
        <time>2018-11-04T11:23:01.000Z</time>
      </trkpt>
      <trkpt lat="39.463975" lon="-0.453345">
        <ele>43</ele>
        <time>2018-11-04T11:23:02.000Z</time>
      </trkpt>
      <trkpt lat="39.463969" lon="-0.453274">
        <ele>43</ele>
        <time>2018-11-04T11:23:03.000Z</time>
      </trkpt>
      <trkpt lat="39.463964" lon="-0.453204">
        <ele>42.1100032</ele>
        <time>2018-11-04T11:23:04.000Z</time>
      </trkpt>
      <trkpt lat="39.463956" lon="-0.453134">
        <ele>42</ele>
        <time>2018-11-04T11:23:05.000Z</time>
      </trkpt>
      <trkpt lat="39.463949" lon="-0.453062">
        <ele>42</ele>
        <time>2018-11-04T11:23:06.000Z</time>
      </trkpt>
      <trkpt lat="39.46394" lon="-0.452994">
        <ele>42</ele>
        <time>2018-11-04T11:23:07.000Z</time>
      </trkpt>
      <trkpt lat="39.463931" lon="-0.452923">
        <ele>42</ele>
        <time>2018-11-04T11:23:08.000Z</time>
      </trkpt>
      <trkpt lat="39.463923" lon="-0.452855">
        <ele>42</ele>
        <time>2018-11-04T11:23:09.000Z</time>
      </trkpt>
      <trkpt lat="39.463912" lon="-0.452788">
        <ele>42</ele>
        <time>2018-11-04T11:23:10.000Z</time>
      </trkpt>
      <trkpt lat="39.4639" lon="-0.452728">
        <ele>42</ele>
        <time>2018-11-04T11:23:11.000Z</time>
      </trkpt>
      <trkpt lat="39.46389" lon="-0.452666">
        <ele>42</ele>
        <time>2018-11-04T11:23:12.000Z</time>
      </trkpt>
      <trkpt lat="39.463882" lon="-0.452601">
        <ele>42</ele>
        <time>2018-11-04T11:23:13.000Z</time>
      </trkpt>
      <trkpt lat="39.46387" lon="-0.452536">
        <ele>42</ele>
        <time>2018-11-04T11:23:14.000Z</time>
      </trkpt>
      <trkpt lat="39.46386" lon="-0.452474">
        <ele>42</ele>
        <time>2018-11-04T11:23:15.000Z</time>
      </trkpt>
      <trkpt lat="39.463849" lon="-0.452413">
        <ele>42</ele>
        <time>2018-11-04T11:23:16.000Z</time>
      </trkpt>
      <trkpt lat="39.463843" lon="-0.452343">
        <ele>42</ele>
        <time>2018-11-04T11:23:17.000Z</time>
      </trkpt>
      <trkpt lat="39.463845" lon="-0.45227">
        <ele>42</ele>
        <time>2018-11-04T11:23:18.000Z</time>
      </trkpt>
      <trkpt lat="39.463844" lon="-0.452204">
        <ele>42</ele>
        <time>2018-11-04T11:23:19.000Z</time>
      </trkpt>
      <trkpt lat="39.463837" lon="-0.452139">
        <ele>42</ele>
        <time>2018-11-04T11:23:20.000Z</time>
      </trkpt>
      <trkpt lat="39.463828" lon="-0.452074">
        <ele>42</ele>
        <time>2018-11-04T11:23:21.000Z</time>
      </trkpt>
      <trkpt lat="39.463817" lon="-0.452018">
        <ele>42</ele>
        <time>2018-11-04T11:23:22.000Z</time>
      </trkpt>
      <trkpt lat="39.463806" lon="-0.451969">
        <ele>42</ele>
        <time>2018-11-04T11:23:23.000Z</time>
      </trkpt>
      <trkpt lat="39.463797" lon="-0.451936">
        <ele>42</ele>
        <time>2018-11-04T11:23:24.000Z</time>
      </trkpt>
      <trkpt lat="39.463793" lon="-0.451904">
        <ele>42</ele>
        <time>2018-11-04T11:23:25.000Z</time>
      </trkpt>
      <trkpt lat="39.46379" lon="-0.451869">
        <ele>42</ele>
        <time>2018-11-04T11:23:26.000Z</time>
      </trkpt>
      <trkpt lat="39.46379" lon="-0.451831">
        <ele>42</ele>
        <time>2018-11-04T11:23:27.000Z</time>
      </trkpt>
      <trkpt lat="39.463785" lon="-0.451786">
        <ele>42</ele>
        <time>2018-11-04T11:23:28.000Z</time>
      </trkpt>
      <trkpt lat="39.463779" lon="-0.451734">
        <ele>42</ele>
        <time>2018-11-04T11:23:29.000Z</time>
      </trkpt>
      <trkpt lat="39.46377" lon="-0.451678">
        <ele>42</ele>
        <time>2018-11-04T11:23:30.000Z</time>
      </trkpt>
      <trkpt lat="39.463763" lon="-0.451616">
        <ele>42</ele>
        <time>2018-11-04T11:23:31.000Z</time>
      </trkpt>
      <trkpt lat="39.463759" lon="-0.451556">
        <ele>42</ele>
        <time>2018-11-04T11:23:32.000Z</time>
      </trkpt>
      <trkpt lat="39.463752" lon="-0.451494">
        <ele>42</ele>
        <time>2018-11-04T11:23:33.000Z</time>
      </trkpt>
      <trkpt lat="39.46374" lon="-0.451432">
        <ele>42</ele>
        <time>2018-11-04T11:23:34.000Z</time>
      </trkpt>
      <trkpt lat="39.46373" lon="-0.451376">
        <ele>42</ele>
        <time>2018-11-04T11:23:35.000Z</time>
      </trkpt>
      <trkpt lat="39.463717" lon="-0.451313">
        <ele>42</ele>
        <time>2018-11-04T11:23:36.000Z</time>
      </trkpt>
      <trkpt lat="39.463709" lon="-0.451244">
        <ele>42</ele>
        <time>2018-11-04T11:23:37.000Z</time>
      </trkpt>
      <trkpt lat="39.4637" lon="-0.45118">
        <ele>42</ele>
        <time>2018-11-04T11:23:38.000Z</time>
      </trkpt>
      <trkpt lat="39.463695" lon="-0.451116">
        <ele>42</ele>
        <time>2018-11-04T11:23:39.000Z</time>
      </trkpt>
      <trkpt lat="39.46369" lon="-0.451057">
        <ele>42</ele>
        <time>2018-11-04T11:23:40.000Z</time>
      </trkpt>
      <trkpt lat="39.463683" lon="-0.450991">
        <ele>42</ele>
        <time>2018-11-04T11:23:41.000Z</time>
      </trkpt>
      <trkpt lat="39.46368" lon="-0.450916">
        <ele>42</ele>
        <time>2018-11-04T11:23:42.000Z</time>
      </trkpt>
      <trkpt lat="39.463675" lon="-0.450845">
        <ele>42</ele>
        <time>2018-11-04T11:23:43.000Z</time>
      </trkpt>
      <trkpt lat="39.463671" lon="-0.450777">
        <ele>42</ele>
        <time>2018-11-04T11:23:44.000Z</time>
      </trkpt>
      <trkpt lat="39.463669" lon="-0.450708">
        <ele>42</ele>
        <time>2018-11-04T11:23:45.000Z</time>
      </trkpt>
      <trkpt lat="39.463669" lon="-0.450638">
        <ele>42</ele>
        <time>2018-11-04T11:23:46.000Z</time>
      </trkpt>
      <trkpt lat="39.463668" lon="-0.450572">
        <ele>42</ele>
        <time>2018-11-04T11:23:47.000Z</time>
      </trkpt>
      <trkpt lat="39.463666" lon="-0.450505">
        <ele>41.32576</ele>
        <time>2018-11-04T11:23:48.000Z</time>
      </trkpt>
      <trkpt lat="39.463665" lon="-0.450432">
        <ele>41</ele>
        <time>2018-11-04T11:23:49.000Z</time>
      </trkpt>
      <trkpt lat="39.463661" lon="-0.450366">
        <ele>41</ele>
        <time>2018-11-04T11:23:50.000Z</time>
      </trkpt>
      <trkpt lat="39.463653" lon="-0.450306">
        <ele>41</ele>
        <time>2018-11-04T11:23:51.000Z</time>
      </trkpt>
      <trkpt lat="39.463641" lon="-0.450247">
        <ele>41</ele>
        <time>2018-11-04T11:23:52.000Z</time>
      </trkpt>
      <trkpt lat="39.463628" lon="-0.45019">
        <ele>41</ele>
        <time>2018-11-04T11:23:53.000Z</time>
      </trkpt>
      <trkpt lat="39.463617" lon="-0.45013">
        <ele>40.1100032</ele>
        <time>2018-11-04T11:23:54.000Z</time>
      </trkpt>
      <trkpt lat="39.46361" lon="-0.450072">
        <ele>40</ele>
        <time>2018-11-04T11:23:55.000Z</time>
      </trkpt>
      <trkpt lat="39.463599" lon="-0.450012">
        <ele>40</ele>
        <time>2018-11-04T11:23:56.000Z</time>
      </trkpt>
      <trkpt lat="39.463589" lon="-0.449951">
        <ele>40</ele>
        <time>2018-11-04T11:23:57.000Z</time>
      </trkpt>
      <trkpt lat="39.463583" lon="-0.449887">
        <ele>40</ele>
        <time>2018-11-04T11:23:58.000Z</time>
      </trkpt>
      <trkpt lat="39.463586" lon="-0.449814">
        <ele>40.6793852106621</ele>
        <time>2018-11-04T11:23:59.000Z</time>
      </trkpt>
      <trkpt lat="39.463587" lon="-0.449746">
        <ele>41</ele>
        <time>2018-11-04T11:24:00.000Z</time>
      </trkpt>
      <trkpt lat="39.46359" lon="-0.449672">
        <ele>40.1100032</ele>
        <time>2018-11-04T11:24:01.000Z</time>
      </trkpt>
      <trkpt lat="39.46359" lon="-0.449603">
        <ele>40</ele>
        <time>2018-11-04T11:24:02.000Z</time>
      </trkpt>
      <trkpt lat="39.463593" lon="-0.449529">
        <ele>40</ele>
        <time>2018-11-04T11:24:03.000Z</time>
      </trkpt>
      <trkpt lat="39.463604" lon="-0.449452">
        <ele>40</ele>
        <time>2018-11-04T11:24:04.000Z</time>
      </trkpt>
      <trkpt lat="39.463612" lon="-0.449379">
        <ele>40</ele>
        <time>2018-11-04T11:24:05.000Z</time>
      </trkpt>
      <trkpt lat="39.463619" lon="-0.449307">
        <ele>40</ele>
        <time>2018-11-04T11:24:06.000Z</time>
      </trkpt>
      <trkpt lat="39.463627" lon="-0.449235">
        <ele>40</ele>
        <time>2018-11-04T11:24:07.000Z</time>
      </trkpt>
      <trkpt lat="39.463633" lon="-0.449166">
        <ele>40</ele>
        <time>2018-11-04T11:24:08.000Z</time>
      </trkpt>
      <trkpt lat="39.463639" lon="-0.449097">
        <ele>40.7027017677379</ele>
        <time>2018-11-04T11:24:09.000Z</time>
      </trkpt>
      <trkpt lat="39.463651" lon="-0.449028">
        <ele>41</ele>
        <time>2018-11-04T11:24:10.000Z</time>
      </trkpt>
      <trkpt lat="39.463665" lon="-0.448957">
        <ele>41</ele>
        <time>2018-11-04T11:24:11.000Z</time>
      </trkpt>
      <trkpt lat="39.463679" lon="-0.448887">
        <ele>41</ele>
        <time>2018-11-04T11:24:12.000Z</time>
      </trkpt>
      <trkpt lat="39.463697" lon="-0.448818">
        <ele>41</ele>
        <time>2018-11-04T11:24:13.000Z</time>
      </trkpt>
      <trkpt lat="39.46372" lon="-0.448751">
        <ele>41</ele>
        <time>2018-11-04T11:24:14.000Z</time>
      </trkpt>
      <trkpt lat="39.463744" lon="-0.448684">
        <ele>41.888886015722</ele>
        <time>2018-11-04T11:24:15.000Z</time>
      </trkpt>
      <trkpt lat="39.463769" lon="-0.448617">
        <ele>42</ele>
        <time>2018-11-04T11:24:16.000Z</time>
      </trkpt>
      <trkpt lat="39.46379" lon="-0.448549">
        <ele>42</ele>
        <time>2018-11-04T11:24:17.000Z</time>
      </trkpt>
      <trkpt lat="39.463811" lon="-0.44848">
        <ele>42</ele>
        <time>2018-11-04T11:24:18.000Z</time>
      </trkpt>
      <trkpt lat="39.463834" lon="-0.448413">
        <ele>42</ele>
        <time>2018-11-04T11:24:19.000Z</time>
      </trkpt>
      <trkpt lat="39.463856" lon="-0.448345">
        <ele>42</ele>
        <time>2018-11-04T11:24:20.000Z</time>
      </trkpt>
      <trkpt lat="39.463876" lon="-0.448276">
        <ele>42</ele>
        <time>2018-11-04T11:24:21.000Z</time>
      </trkpt>
      <trkpt lat="39.463893" lon="-0.448208">
        <ele>42.8899968</ele>
        <time>2018-11-04T11:24:22.000Z</time>
      </trkpt>
      <trkpt lat="39.463909" lon="-0.44814">
        <ele>43</ele>
        <time>2018-11-04T11:24:23.000Z</time>
      </trkpt>
      <trkpt lat="39.463925" lon="-0.448073">
        <ele>43</ele>
        <time>2018-11-04T11:24:24.000Z</time>
      </trkpt>
      <trkpt lat="39.463944" lon="-0.44801">
        <ele>43</ele>
        <time>2018-11-04T11:24:25.000Z</time>
      </trkpt>
      <trkpt lat="39.463968" lon="-0.447951">
        <ele>43</ele>
        <time>2018-11-04T11:24:26.000Z</time>
      </trkpt>
      <trkpt lat="39.463984" lon="-0.447892">
        <ele>43</ele>
        <time>2018-11-04T11:24:27.000Z</time>
      </trkpt>
      <trkpt lat="39.463986" lon="-0.447837">
        <ele>43</ele>
        <time>2018-11-04T11:24:28.000Z</time>
      </trkpt>
      <trkpt lat="39.463969" lon="-0.447798">
        <ele>43</ele>
        <time>2018-11-04T11:24:29.000Z</time>
      </trkpt>
      <trkpt lat="39.463948" lon="-0.447782">
        <ele>43</ele>
        <time>2018-11-04T11:24:30.000Z</time>
      </trkpt>
      <trkpt lat="39.463926" lon="-0.447769">
        <ele>43.8899968</ele>
        <time>2018-11-04T11:24:31.000Z</time>
      </trkpt>
      <trkpt lat="39.4639" lon="-0.447755">
        <ele>44</ele>
        <time>2018-11-04T11:24:32.000Z</time>
      </trkpt>
      <trkpt lat="39.46387" lon="-0.44774">
        <ele>44</ele>
        <time>2018-11-04T11:24:33.000Z</time>
      </trkpt>
      <trkpt lat="39.46384" lon="-0.447719">
        <ele>43.1100032</ele>
        <time>2018-11-04T11:24:34.000Z</time>
      </trkpt>
      <trkpt lat="39.463816" lon="-0.44768">
        <ele>43</ele>
        <time>2018-11-04T11:24:35.000Z</time>
      </trkpt>
      <trkpt lat="39.463797" lon="-0.447628">
        <ele>43</ele>
        <time>2018-11-04T11:24:36.000Z</time>
      </trkpt>
      <trkpt lat="39.463777" lon="-0.447573">
        <ele>43</ele>
        <time>2018-11-04T11:24:37.000Z</time>
      </trkpt>
      <trkpt lat="39.463749" lon="-0.447532">
        <ele>43</ele>
        <time>2018-11-04T11:24:38.000Z</time>
      </trkpt>
      <trkpt lat="39.463718" lon="-0.447498">
        <ele>43</ele>
        <time>2018-11-04T11:24:39.000Z</time>
      </trkpt>
      <trkpt lat="39.463686" lon="-0.447476">
        <ele>43</ele>
        <time>2018-11-04T11:24:40.000Z</time>
      </trkpt>
      <trkpt lat="39.463649" lon="-0.447475">
        <ele>42.1100032</ele>
        <time>2018-11-04T11:24:41.000Z</time>
      </trkpt>
      <trkpt lat="39.463611" lon="-0.447497">
        <ele>42</ele>
        <time>2018-11-04T11:24:42.000Z</time>
      </trkpt>
      <trkpt lat="39.463574" lon="-0.447527">
        <ele>42</ele>
        <time>2018-11-04T11:24:43.000Z</time>
      </trkpt>
      <trkpt lat="39.463542" lon="-0.447531">
        <ele>42</ele>
        <time>2018-11-04T11:24:44.000Z</time>
      </trkpt>
      <trkpt lat="39.463514" lon="-0.447507">
        <ele>42</ele>
        <time>2018-11-04T11:24:45.000Z</time>
      </trkpt>
      <trkpt lat="39.463491" lon="-0.447468">
        <ele>42.6846162934956</ele>
        <time>2018-11-04T11:24:46.000Z</time>
      </trkpt>
      <trkpt lat="39.463455" lon="-0.447436">
        <ele>43</ele>
        <time>2018-11-04T11:24:47.000Z</time>
      </trkpt>
      <trkpt lat="39.463419" lon="-0.447414">
        <ele>43</ele>
        <time>2018-11-04T11:24:48.000Z</time>
      </trkpt>
      <trkpt lat="39.463386" lon="-0.44741">
        <ele>43</ele>
        <time>2018-11-04T11:24:49.000Z</time>
      </trkpt>
      <trkpt lat="39.463348" lon="-0.447412">
        <ele>43</ele>
        <time>2018-11-04T11:24:50.000Z</time>
      </trkpt>
      <trkpt lat="39.46331" lon="-0.447411">
        <ele>43</ele>
        <time>2018-11-04T11:24:51.000Z</time>
      </trkpt>
      <trkpt lat="39.46327" lon="-0.447409">
        <ele>43</ele>
        <time>2018-11-04T11:24:52.000Z</time>
      </trkpt>
      <trkpt lat="39.463231" lon="-0.44741">
        <ele>43.8428540081919</ele>
        <time>2018-11-04T11:24:53.000Z</time>
      </trkpt>
      <trkpt lat="39.46319" lon="-0.447409">
        <ele>44</ele>
        <time>2018-11-04T11:24:54.000Z</time>
      </trkpt>
      <trkpt lat="39.463151" lon="-0.44741">
        <ele>44</ele>
        <time>2018-11-04T11:24:55.000Z</time>
      </trkpt>
      <trkpt lat="39.463116" lon="-0.447415">
        <ele>44</ele>
        <time>2018-11-04T11:24:56.000Z</time>
      </trkpt>
      <trkpt lat="39.463082" lon="-0.447419">
        <ele>44</ele>
        <time>2018-11-04T11:24:57.000Z</time>
      </trkpt>
      <trkpt lat="39.463046" lon="-0.447422">
        <ele>44.8899968</ele>
        <time>2018-11-04T11:24:58.000Z</time>
      </trkpt>
      <trkpt lat="39.463014" lon="-0.447424">
        <ele>45</ele>
        <time>2018-11-04T11:24:59.000Z</time>
      </trkpt>
      <trkpt lat="39.46298" lon="-0.447427">
        <ele>45</ele>
        <time>2018-11-04T11:25:00.000Z</time>
      </trkpt>
      <trkpt lat="39.462947" lon="-0.447432">
        <ele>45</ele>
        <time>2018-11-04T11:25:01.000Z</time>
      </trkpt>
      <trkpt lat="39.462915" lon="-0.447436">
        <ele>45.888886015722</ele>
        <time>2018-11-04T11:25:02.000Z</time>
      </trkpt>
      <trkpt lat="39.462879" lon="-0.44744">
        <ele>46</ele>
        <time>2018-11-04T11:25:03.000Z</time>
      </trkpt>
      <trkpt lat="39.462842" lon="-0.447443">
        <ele>46</ele>
        <time>2018-11-04T11:25:04.000Z</time>
      </trkpt>
      <trkpt lat="39.462806" lon="-0.447445">
        <ele>46</ele>
        <time>2018-11-04T11:25:05.000Z</time>
      </trkpt>
      <trkpt lat="39.462771" lon="-0.447448">
        <ele>46</ele>
        <time>2018-11-04T11:25:06.000Z</time>
      </trkpt>
      <trkpt lat="39.462737" lon="-0.447453">
        <ele>46</ele>
        <time>2018-11-04T11:25:07.000Z</time>
      </trkpt>
      <trkpt lat="39.462705" lon="-0.447459">
        <ele>46.8899968</ele>
        <time>2018-11-04T11:25:08.000Z</time>
      </trkpt>
      <trkpt lat="39.462673" lon="-0.447461">
        <ele>47</ele>
        <time>2018-11-04T11:25:09.000Z</time>
      </trkpt>
      <trkpt lat="39.46264" lon="-0.447464">
        <ele>47</ele>
        <time>2018-11-04T11:25:10.000Z</time>
      </trkpt>
      <trkpt lat="39.462607" lon="-0.44747">
        <ele>47</ele>
        <time>2018-11-04T11:25:11.000Z</time>
      </trkpt>
      <trkpt lat="39.462574" lon="-0.447478">
        <ele>47</ele>
        <time>2018-11-04T11:25:12.000Z</time>
      </trkpt>
      <trkpt lat="39.462542" lon="-0.447483">
        <ele>47</ele>
        <time>2018-11-04T11:25:13.000Z</time>
      </trkpt>
      <trkpt lat="39.46251" lon="-0.447489">
        <ele>47</ele>
        <time>2018-11-04T11:25:14.000Z</time>
      </trkpt>
      <trkpt lat="39.462478" lon="-0.447494">
        <ele>47</ele>
        <time>2018-11-04T11:25:15.000Z</time>
      </trkpt>
      <trkpt lat="39.462447" lon="-0.447499">
        <ele>47</ele>
        <time>2018-11-04T11:25:16.000Z</time>
      </trkpt>
      <trkpt lat="39.462414" lon="-0.447502">
        <ele>47</ele>
        <time>2018-11-04T11:25:17.000Z</time>
      </trkpt>
      <trkpt lat="39.462382" lon="-0.447507">
        <ele>47</ele>
        <time>2018-11-04T11:25:18.000Z</time>
      </trkpt>
      <trkpt lat="39.46235" lon="-0.447514">
        <ele>47</ele>
        <time>2018-11-04T11:25:19.000Z</time>
      </trkpt>
      <trkpt lat="39.462317" lon="-0.447522">
        <ele>47</ele>
        <time>2018-11-04T11:25:20.000Z</time>
      </trkpt>
      <trkpt lat="39.462285" lon="-0.447535">
        <ele>47.8899968</ele>
        <time>2018-11-04T11:25:21.000Z</time>
      </trkpt>
      <trkpt lat="39.462252" lon="-0.447541">
        <ele>48</ele>
        <time>2018-11-04T11:25:22.000Z</time>
      </trkpt>
      <trkpt lat="39.462217" lon="-0.447543">
        <ele>48</ele>
        <time>2018-11-04T11:25:23.000Z</time>
      </trkpt>
      <trkpt lat="39.462181" lon="-0.447548">
        <ele>48</ele>
        <time>2018-11-04T11:25:24.000Z</time>
      </trkpt>
      <trkpt lat="39.462144" lon="-0.447553">
        <ele>48</ele>
        <time>2018-11-04T11:25:25.000Z</time>
      </trkpt>
      <trkpt lat="39.462107" lon="-0.447558">
        <ele>48</ele>
        <time>2018-11-04T11:25:26.000Z</time>
      </trkpt>
      <trkpt lat="39.46207" lon="-0.447565">
        <ele>48</ele>
        <time>2018-11-04T11:25:27.000Z</time>
      </trkpt>
      <trkpt lat="39.462032" lon="-0.447572">
        <ele>48</ele>
        <time>2018-11-04T11:25:28.000Z</time>
      </trkpt>
      <trkpt lat="39.461992" lon="-0.447576">
        <ele>48</ele>
        <time>2018-11-04T11:25:29.000Z</time>
      </trkpt>
      <trkpt lat="39.46195" lon="-0.44758">
        <ele>48.8899968</ele>
        <time>2018-11-04T11:25:30.000Z</time>
      </trkpt>
      <trkpt lat="39.461909" lon="-0.447587">
        <ele>49</ele>
        <time>2018-11-04T11:25:31.000Z</time>
      </trkpt>
      <trkpt lat="39.461869" lon="-0.447594">
        <ele>49</ele>
        <time>2018-11-04T11:25:32.000Z</time>
      </trkpt>
      <trkpt lat="39.461827" lon="-0.447601">
        <ele>49</ele>
        <time>2018-11-04T11:25:33.000Z</time>
      </trkpt>
      <trkpt lat="39.461786" lon="-0.447608">
        <ele>49</ele>
        <time>2018-11-04T11:25:34.000Z</time>
      </trkpt>
      <trkpt lat="39.461744" lon="-0.447613">
        <ele>49</ele>
        <time>2018-11-04T11:25:35.000Z</time>
      </trkpt>
      <trkpt lat="39.461701" lon="-0.447619">
        <ele>49</ele>
        <time>2018-11-04T11:25:36.000Z</time>
      </trkpt>
      <trkpt lat="39.461656" lon="-0.447627">
        <ele>49</ele>
        <time>2018-11-04T11:25:37.000Z</time>
      </trkpt>
      <trkpt lat="39.461611" lon="-0.447636">
        <ele>49</ele>
        <time>2018-11-04T11:25:38.000Z</time>
      </trkpt>
      <trkpt lat="39.461567" lon="-0.447644">
        <ele>49</ele>
        <time>2018-11-04T11:25:39.000Z</time>
      </trkpt>
      <trkpt lat="39.461523" lon="-0.447652">
        <ele>49</ele>
        <time>2018-11-04T11:25:40.000Z</time>
      </trkpt>
      <trkpt lat="39.461478" lon="-0.44766">
        <ele>48.1100032</ele>
        <time>2018-11-04T11:25:41.000Z</time>
      </trkpt>
      <trkpt lat="39.461432" lon="-0.447668">
        <ele>48</ele>
        <time>2018-11-04T11:25:42.000Z</time>
      </trkpt>
      <trkpt lat="39.461384" lon="-0.447674">
        <ele>48</ele>
        <time>2018-11-04T11:25:43.000Z</time>
      </trkpt>
      <trkpt lat="39.461335" lon="-0.44768">
        <ele>48</ele>
        <time>2018-11-04T11:25:44.000Z</time>
      </trkpt>
      <trkpt lat="39.461285" lon="-0.447682">
        <ele>48</ele>
        <time>2018-11-04T11:25:45.000Z</time>
      </trkpt>
      <trkpt lat="39.461233" lon="-0.447685">
        <ele>47.1617694117647</ele>
        <time>2018-11-04T11:25:46.000Z</time>
      </trkpt>
      <trkpt lat="39.461178" lon="-0.447692">
        <ele>47</ele>
        <time>2018-11-04T11:25:47.000Z</time>
      </trkpt>
      <trkpt lat="39.461122" lon="-0.447698">
        <ele>47</ele>
        <time>2018-11-04T11:25:48.000Z</time>
      </trkpt>
      <trkpt lat="39.461062" lon="-0.447696">
        <ele>47</ele>
        <time>2018-11-04T11:25:49.000Z</time>
      </trkpt>
      <trkpt lat="39.461001" lon="-0.447694">
        <ele>46.1100032</ele>
        <time>2018-11-04T11:25:50.000Z</time>
      </trkpt>
      <trkpt lat="39.460937" lon="-0.447694">
        <ele>46</ele>
        <time>2018-11-04T11:25:51.000Z</time>
      </trkpt>
      <trkpt lat="39.460871" lon="-0.447694">
        <ele>46</ele>
        <time>2018-11-04T11:25:52.000Z</time>
      </trkpt>
      <trkpt lat="39.460803" lon="-0.447687">
        <ele>45.3206147893379</ele>
        <time>2018-11-04T11:25:53.000Z</time>
      </trkpt>
      <trkpt lat="39.460733" lon="-0.447678">
        <ele>45</ele>
        <time>2018-11-04T11:25:54.000Z</time>
      </trkpt>
      <trkpt lat="39.460661" lon="-0.447668">
        <ele>45</ele>
        <time>2018-11-04T11:25:55.000Z</time>
      </trkpt>
      <trkpt lat="39.460592" lon="-0.447657">
        <ele>45</ele>
        <time>2018-11-04T11:25:56.000Z</time>
      </trkpt>
      <trkpt lat="39.460526" lon="-0.447643">
        <ele>44.1100032</ele>
        <time>2018-11-04T11:25:57.000Z</time>
      </trkpt>
      <trkpt lat="39.460461" lon="-0.447627">
        <ele>44</ele>
        <time>2018-11-04T11:25:58.000Z</time>
      </trkpt>
      <trkpt lat="39.460399" lon="-0.44761">
        <ele>44</ele>
        <time>2018-11-04T11:25:59.000Z</time>
      </trkpt>
      <trkpt lat="39.460336" lon="-0.447592">
        <ele>44</ele>
        <time>2018-11-04T11:26:00.000Z</time>
      </trkpt>
      <trkpt lat="39.460272" lon="-0.447574">
        <ele>44</ele>
        <time>2018-11-04T11:26:01.000Z</time>
      </trkpt>
      <trkpt lat="39.460208" lon="-0.447551">
        <ele>44</ele>
        <time>2018-11-04T11:26:02.000Z</time>
      </trkpt>
      <trkpt lat="39.460145" lon="-0.447527">
        <ele>43.1594227094811</ele>
        <time>2018-11-04T11:26:03.000Z</time>
      </trkpt>
      <trkpt lat="39.460082" lon="-0.4475">
        <ele>43</ele>
        <time>2018-11-04T11:26:04.000Z</time>
      </trkpt>
      <trkpt lat="39.46002" lon="-0.447477">
        <ele>42.1100032</ele>
        <time>2018-11-04T11:26:05.000Z</time>
      </trkpt>
      <trkpt lat="39.459956" lon="-0.447457">
        <ele>42</ele>
        <time>2018-11-04T11:26:06.000Z</time>
      </trkpt>
      <trkpt lat="39.459888" lon="-0.44744">
        <ele>42</ele>
        <time>2018-11-04T11:26:07.000Z</time>
      </trkpt>
      <trkpt lat="39.459822" lon="-0.447429">
        <ele>42.6793918489784</ele>
        <time>2018-11-04T11:26:08.000Z</time>
      </trkpt>
      <trkpt lat="39.459754" lon="-0.447419">
        <ele>43</ele>
        <time>2018-11-04T11:26:09.000Z</time>
      </trkpt>
      <trkpt lat="39.459692" lon="-0.447415">
        <ele>42.127448642815</ele>
        <time>2018-11-04T11:26:10.000Z</time>
      </trkpt>
      <trkpt lat="39.459634" lon="-0.447422">
        <ele>42</ele>
        <time>2018-11-04T11:26:11.000Z</time>
      </trkpt>
      <trkpt lat="39.459582" lon="-0.447444">
        <ele>42</ele>
        <time>2018-11-04T11:26:12.000Z</time>
      </trkpt>
      <trkpt lat="39.459537" lon="-0.447484">
        <ele>42</ele>
        <time>2018-11-04T11:26:13.000Z</time>
      </trkpt>
      <trkpt lat="39.459508" lon="-0.447528">
        <ele>42</ele>
        <time>2018-11-04T11:26:14.000Z</time>
      </trkpt>
      <trkpt lat="39.459496" lon="-0.447572">
        <ele>42</ele>
        <time>2018-11-04T11:26:15.000Z</time>
      </trkpt>
      <trkpt lat="39.459501" lon="-0.447615">
        <ele>42.872551357185</ele>
        <time>2018-11-04T11:26:16.000Z</time>
      </trkpt>
      <trkpt lat="39.459504" lon="-0.447659">
        <ele>43</ele>
        <time>2018-11-04T11:26:17.000Z</time>
      </trkpt>
      <trkpt lat="39.459494" lon="-0.447689">
        <ele>43</ele>
        <time>2018-11-04T11:26:18.000Z</time>
      </trkpt>
      <trkpt lat="39.459474" lon="-0.447701">
        <ele>43</ele>
        <time>2018-11-04T11:26:19.000Z</time>
      </trkpt>
      <trkpt lat="39.459446" lon="-0.447707">
        <ele>43</ele>
        <time>2018-11-04T11:26:20.000Z</time>
      </trkpt>
      <trkpt lat="39.45941" lon="-0.44771">
        <ele>43</ele>
        <time>2018-11-04T11:26:21.000Z</time>
      </trkpt>
      <trkpt lat="39.45937" lon="-0.447711">
        <ele>43</ele>
        <time>2018-11-04T11:26:22.000Z</time>
      </trkpt>
      <trkpt lat="39.459326" lon="-0.447705">
        <ele>43.8899968</ele>
        <time>2018-11-04T11:26:23.000Z</time>
      </trkpt>
      <trkpt lat="39.459282" lon="-0.44769">
        <ele>44</ele>
        <time>2018-11-04T11:26:24.000Z</time>
      </trkpt>
      <trkpt lat="39.459246" lon="-0.447671">
        <ele>44</ele>
        <time>2018-11-04T11:26:25.000Z</time>
      </trkpt>
      <trkpt lat="39.459216" lon="-0.447662">
        <ele>44</ele>
        <time>2018-11-04T11:26:26.000Z</time>
      </trkpt>
      <trkpt lat="39.459194" lon="-0.447679">
        <ele>44</ele>
        <time>2018-11-04T11:26:27.000Z</time>
      </trkpt>
      <trkpt lat="39.459176" lon="-0.447713">
        <ele>44</ele>
        <time>2018-11-04T11:26:28.000Z</time>
      </trkpt>
      <trkpt lat="39.459152" lon="-0.447756">
        <ele>44</ele>
        <time>2018-11-04T11:26:29.000Z</time>
      </trkpt>
      <trkpt lat="39.459116" lon="-0.447797">
        <ele>44</ele>
        <time>2018-11-04T11:26:30.000Z</time>
      </trkpt>
      <trkpt lat="39.459082" lon="-0.447845">
        <ele>43.1100032</ele>
        <time>2018-11-04T11:26:31.000Z</time>
      </trkpt>
      <trkpt lat="39.459051" lon="-0.447897">
        <ele>43</ele>
        <time>2018-11-04T11:26:32.000Z</time>
      </trkpt>
      <trkpt lat="39.459028" lon="-0.447955">
        <ele>43</ele>
        <time>2018-11-04T11:26:33.000Z</time>
      </trkpt>
      <trkpt lat="39.459006" lon="-0.448015">
        <ele>43</ele>
        <time>2018-11-04T11:26:34.000Z</time>
      </trkpt>
      <trkpt lat="39.458988" lon="-0.448074">
        <ele>43</ele>
        <time>2018-11-04T11:26:35.000Z</time>
      </trkpt>
      <trkpt lat="39.458969" lon="-0.448135">
        <ele>43</ele>
        <time>2018-11-04T11:26:36.000Z</time>
      </trkpt>
      <trkpt lat="39.458948" lon="-0.448196">
        <ele>43</ele>
        <time>2018-11-04T11:26:37.000Z</time>
      </trkpt>
      <trkpt lat="39.458928" lon="-0.448258">
        <ele>43</ele>
        <time>2018-11-04T11:26:38.000Z</time>
      </trkpt>
      <trkpt lat="39.458904" lon="-0.448319">
        <ele>43.8899968</ele>
        <time>2018-11-04T11:26:39.000Z</time>
      </trkpt>
      <trkpt lat="39.458882" lon="-0.44838">
        <ele>44</ele>
        <time>2018-11-04T11:26:40.000Z</time>
      </trkpt>
      <trkpt lat="39.458859" lon="-0.448441">
        <ele>44</ele>
        <time>2018-11-04T11:26:41.000Z</time>
      </trkpt>
      <trkpt lat="39.458842" lon="-0.448503">
        <ele>44</ele>
        <time>2018-11-04T11:26:42.000Z</time>
      </trkpt>
      <trkpt lat="39.458824" lon="-0.448564">
        <ele>44</ele>
        <time>2018-11-04T11:26:43.000Z</time>
      </trkpt>
      <trkpt lat="39.458798" lon="-0.448622">
        <ele>44</ele>
        <time>2018-11-04T11:26:44.000Z</time>
      </trkpt>
      <trkpt lat="39.458776" lon="-0.448681">
        <ele>44.8899968</ele>
        <time>2018-11-04T11:26:45.000Z</time>
      </trkpt>
      <trkpt lat="39.458756" lon="-0.448737">
        <ele>45</ele>
        <time>2018-11-04T11:26:46.000Z</time>
      </trkpt>
      <trkpt lat="39.458735" lon="-0.448797">
        <ele>45</ele>
        <time>2018-11-04T11:26:47.000Z</time>
      </trkpt>
      <trkpt lat="39.458718" lon="-0.448855">
        <ele>45</ele>
        <time>2018-11-04T11:26:48.000Z</time>
      </trkpt>
      <trkpt lat="39.458707" lon="-0.448916">
        <ele>45</ele>
        <time>2018-11-04T11:26:49.000Z</time>
      </trkpt>
      <trkpt lat="39.458686" lon="-0.448974">
        <ele>45</ele>
        <time>2018-11-04T11:26:50.000Z</time>
      </trkpt>
      <trkpt lat="39.458648" lon="-0.449025">
        <ele>45</ele>
        <time>2018-11-04T11:26:51.000Z</time>
      </trkpt>
      <trkpt lat="39.45861" lon="-0.449077">
        <ele>45.6793918489784</ele>
        <time>2018-11-04T11:26:52.000Z</time>
      </trkpt>
      <trkpt lat="39.45858" lon="-0.449127">
        <ele>46</ele>
        <time>2018-11-04T11:26:53.000Z</time>
      </trkpt>
      <trkpt lat="39.458555" lon="-0.449182">
        <ele>46</ele>
        <time>2018-11-04T11:26:54.000Z</time>
      </trkpt>
      <trkpt lat="39.458534" lon="-0.449241">
        <ele>46.8450666137843</ele>
        <time>2018-11-04T11:26:55.000Z</time>
      </trkpt>
      <trkpt lat="39.458512" lon="-0.449303">
        <ele>47</ele>
        <time>2018-11-04T11:26:56.000Z</time>
      </trkpt>
      <trkpt lat="39.458492" lon="-0.449366">
        <ele>47</ele>
        <time>2018-11-04T11:26:57.000Z</time>
      </trkpt>
      <trkpt lat="39.458466" lon="-0.449428">
        <ele>47.8899968</ele>
        <time>2018-11-04T11:26:58.000Z</time>
      </trkpt>
      <trkpt lat="39.458444" lon="-0.449491">
        <ele>48</ele>
        <time>2018-11-04T11:26:59.000Z</time>
      </trkpt>
      <trkpt lat="39.458419" lon="-0.449553">
        <ele>48.8428540081919</ele>
        <time>2018-11-04T11:27:00.000Z</time>
      </trkpt>
      <trkpt lat="39.458387" lon="-0.449613">
        <ele>49</ele>
        <time>2018-11-04T11:27:01.000Z</time>
      </trkpt>
      <trkpt lat="39.458358" lon="-0.449675">
        <ele>49</ele>
        <time>2018-11-04T11:27:02.000Z</time>
      </trkpt>
      <trkpt lat="39.458324" lon="-0.449735">
        <ele>49.872551357185</ele>
        <time>2018-11-04T11:27:03.000Z</time>
      </trkpt>
      <trkpt lat="39.458292" lon="-0.449796">
        <ele>50</ele>
        <time>2018-11-04T11:27:04.000Z</time>
      </trkpt>
      <trkpt lat="39.458266" lon="-0.449857">
        <ele>50</ele>
        <time>2018-11-04T11:27:05.000Z</time>
      </trkpt>
      <trkpt lat="39.458236" lon="-0.449918">
        <ele>50.8899968</ele>
        <time>2018-11-04T11:27:06.000Z</time>
      </trkpt>
      <trkpt lat="39.458212" lon="-0.449982">
        <ele>51</ele>
        <time>2018-11-04T11:27:07.000Z</time>
      </trkpt>
      <trkpt lat="39.45819" lon="-0.450046">
        <ele>51</ele>
        <time>2018-11-04T11:27:08.000Z</time>
      </trkpt>
      <trkpt lat="39.458172" lon="-0.450113">
        <ele>51</ele>
        <time>2018-11-04T11:27:09.000Z</time>
      </trkpt>
      <trkpt lat="39.458151" lon="-0.45018">
        <ele>51.67424</ele>
        <time>2018-11-04T11:27:10.000Z</time>
      </trkpt>
      <trkpt lat="39.458126" lon="-0.450243">
        <ele>52</ele>
        <time>2018-11-04T11:27:11.000Z</time>
      </trkpt>
      <trkpt lat="39.458104" lon="-0.450306">
        <ele>52</ele>
        <time>2018-11-04T11:27:12.000Z</time>
      </trkpt>
      <trkpt lat="39.458079" lon="-0.450368">
        <ele>52</ele>
        <time>2018-11-04T11:27:13.000Z</time>
      </trkpt>
      <trkpt lat="39.458055" lon="-0.450431">
        <ele>52</ele>
        <time>2018-11-04T11:27:14.000Z</time>
      </trkpt>
      <trkpt lat="39.458035" lon="-0.450497">
        <ele>52.8899968</ele>
        <time>2018-11-04T11:27:15.000Z</time>
      </trkpt>
      <trkpt lat="39.458012" lon="-0.450561">
        <ele>53</ele>
        <time>2018-11-04T11:27:16.000Z</time>
      </trkpt>
      <trkpt lat="39.457986" lon="-0.450623">
        <ele>53</ele>
        <time>2018-11-04T11:27:17.000Z</time>
      </trkpt>
      <trkpt lat="39.457957" lon="-0.450684">
        <ele>53</ele>
        <time>2018-11-04T11:27:18.000Z</time>
      </trkpt>
      <trkpt lat="39.457933" lon="-0.450747">
        <ele>53.5742583040795</ele>
        <time>2018-11-04T11:27:19.000Z</time>
      </trkpt>
      <trkpt lat="39.457912" lon="-0.450813">
        <ele>54</ele>
        <time>2018-11-04T11:27:20.000Z</time>
      </trkpt>
      <trkpt lat="39.457885" lon="-0.450876">
        <ele>54</ele>
        <time>2018-11-04T11:27:21.000Z</time>
      </trkpt>
      <trkpt lat="39.457864" lon="-0.450943">
        <ele>54</ele>
        <time>2018-11-04T11:27:22.000Z</time>
      </trkpt>
      <trkpt lat="39.457843" lon="-0.451011">
        <ele>54</ele>
        <time>2018-11-04T11:27:23.000Z</time>
      </trkpt>
      <trkpt lat="39.457828" lon="-0.451081">
        <ele>54</ele>
        <time>2018-11-04T11:27:24.000Z</time>
      </trkpt>
      <trkpt lat="39.4578" lon="-0.451142">
        <ele>54</ele>
        <time>2018-11-04T11:27:25.000Z</time>
      </trkpt>
      <trkpt lat="39.45775" lon="-0.451196">
        <ele>54</ele>
        <time>2018-11-04T11:27:26.000Z</time>
      </trkpt>
      <trkpt lat="39.457716" lon="-0.451255">
        <ele>54</ele>
        <time>2018-11-04T11:27:27.000Z</time>
      </trkpt>
      <trkpt lat="39.457686" lon="-0.451319">
        <ele>54.67424</ele>
        <time>2018-11-04T11:27:28.000Z</time>
      </trkpt>
      <trkpt lat="39.457653" lon="-0.451381">
        <ele>55</ele>
        <time>2018-11-04T11:27:29.000Z</time>
      </trkpt>
      <trkpt lat="39.457622" lon="-0.451444">
        <ele>55</ele>
        <time>2018-11-04T11:27:30.000Z</time>
      </trkpt>
      <trkpt lat="39.457593" lon="-0.451503">
        <ele>55.888886015722</ele>
        <time>2018-11-04T11:27:31.000Z</time>
      </trkpt>
      <trkpt lat="39.457563" lon="-0.451565">
        <ele>56</ele>
        <time>2018-11-04T11:27:32.000Z</time>
      </trkpt>
      <trkpt lat="39.457537" lon="-0.451631">
        <ele>56</ele>
        <time>2018-11-04T11:27:33.000Z</time>
      </trkpt>
      <trkpt lat="39.457509" lon="-0.451697">
        <ele>56</ele>
        <time>2018-11-04T11:27:34.000Z</time>
      </trkpt>
      <trkpt lat="39.457484" lon="-0.451763">
        <ele>56</ele>
        <time>2018-11-04T11:27:35.000Z</time>
      </trkpt>
      <trkpt lat="39.457459" lon="-0.451831">
        <ele>56</ele>
        <time>2018-11-04T11:27:36.000Z</time>
      </trkpt>
      <trkpt lat="39.457428" lon="-0.451894">
        <ele>56</ele>
        <time>2018-11-04T11:27:37.000Z</time>
      </trkpt>
      <trkpt lat="39.4574" lon="-0.451959">
        <ele>56</ele>
        <time>2018-11-04T11:27:38.000Z</time>
      </trkpt>
      <trkpt lat="39.457368" lon="-0.452021">
        <ele>56.8899968</ele>
        <time>2018-11-04T11:27:39.000Z</time>
      </trkpt>
      <trkpt lat="39.457338" lon="-0.452085">
        <ele>57</ele>
        <time>2018-11-04T11:27:40.000Z</time>
      </trkpt>
      <trkpt lat="39.457308" lon="-0.452145">
        <ele>57</ele>
        <time>2018-11-04T11:27:41.000Z</time>
      </trkpt>
      <trkpt lat="39.457282" lon="-0.452205">
        <ele>56.1100032</ele>
        <time>2018-11-04T11:27:42.000Z</time>
      </trkpt>
      <trkpt lat="39.457266" lon="-0.452316">
        <ele>55</ele>
        <time>2018-11-04T11:27:44.000Z</time>
      </trkpt>
      <trkpt lat="39.457371" lon="-0.452424">
        <ele>55</ele>
        <time>2018-11-04T11:27:47.000Z</time>
      </trkpt>
      <trkpt lat="39.457439" lon="-0.452503">
        <ele>55</ele>
        <time>2018-11-04T11:27:49.000Z</time>
      </trkpt>
      <trkpt lat="39.457487" lon="-0.452634">
        <ele>54.1122474302209</ele>
        <time>2018-11-04T11:27:51.000Z</time>
      </trkpt>
      <trkpt lat="39.457488" lon="-0.452771">
        <ele>53.1100032</ele>
        <time>2018-11-04T11:27:53.000Z</time>
      </trkpt>
      <trkpt lat="39.457481" lon="-0.45293">
        <ele>53</ele>
        <time>2018-11-04T11:27:56.000Z</time>
      </trkpt>
      <trkpt lat="39.457497" lon="-0.453039">
        <ele>53.8382305882353</ele>
        <time>2018-11-04T11:27:58.000Z</time>
      </trkpt>
      <trkpt lat="39.457498" lon="-0.453082">
        <ele>53.127448642815</ele>
        <time>2018-11-04T11:27:59.000Z</time>
      </trkpt>
      <trkpt lat="39.457504" lon="-0.453134">
        <ele>54</ele>
        <time>2018-11-04T11:28:01.000Z</time>
      </trkpt>
      <trkpt lat="39.45748" lon="-0.453109">
        <ele>0</ele>
        <time>2018-11-04T11:28:05.000Z</time>
      </trkpt>
    </trkseg>
  </trk>
</gpx>
